<?xml version="1.0" encoding="UTF-8" standalone="no" ?>
<gpx xmlns="http://www.topografix.com/GPX/1/1" xmlns:xsi="http://www.w3.org/2001/XMLSchema-instance" xsi:schemaLocation="http://www.topografix.com/GPX/1/1 http://www.topografix.com/GPX/1/1/gpx.xsd" version="1.1" creator="VisuGPX - https://www.visugpx.com">
  <metadata>
    <name>Rando VTT St Pardoux 2024</name>
    <desc><![CDATA[Bonne rando!]]></desc>
  </metadata>
  <trk>
    <name><![CDATA[Rando VTT St Pardoux 2024_1]]></name>
    <trkseg>
      <trkpt lat="46.0313" lon="1.29654">
        <ele>352</ele>
        <time>2024-04-28T06:19:55Z</time>
      </trkpt>
      <trkpt lat="46.03131" lon="1.29652">
        <ele>352</ele>
        <time>2024-04-28T06:20:05Z</time>
      </trkpt>
      <trkpt lat="46.03137" lon="1.29638">
        <ele>352.2</ele>
        <time>2024-04-28T06:20:13Z</time>
      </trkpt>
      <trkpt lat="46.03139" lon="1.29634">
        <ele>353</ele>
        <time>2024-04-28T06:20:16Z</time>
      </trkpt>
      <trkpt lat="46.03141" lon="1.29632">
        <ele>353.6</ele>
        <time>2024-04-28T06:20:19Z</time>
      </trkpt>
      <trkpt lat="46.03144" lon="1.29633">
        <ele>353.6</ele>
        <time>2024-04-28T06:20:21Z</time>
      </trkpt>
      <trkpt lat="46.03148" lon="1.29637">
        <ele>354</ele>
        <time>2024-04-28T06:20:24Z</time>
      </trkpt>
      <trkpt lat="46.0315" lon="1.29638">
        <ele>354.2</ele>
        <time>2024-04-28T06:20:25Z</time>
      </trkpt>
      <trkpt lat="46.03158" lon="1.2964">
        <ele>354.6</ele>
        <time>2024-04-28T06:20:29Z</time>
      </trkpt>
      <trkpt lat="46.03159" lon="1.29637">
        <ele>355</ele>
        <time>2024-04-28T06:20:31Z</time>
      </trkpt>
      <trkpt lat="46.03167" lon="1.29622">
        <ele>355.2</ele>
        <time>2024-04-28T06:20:37Z</time>
      </trkpt>
      <trkpt lat="46.03175" lon="1.29611">
        <ele>356.4</ele>
        <time>2024-04-28T06:20:42Z</time>
      </trkpt>
      <trkpt lat="46.0318" lon="1.29604">
        <ele>357.2</ele>
        <time>2024-04-28T06:20:45Z</time>
      </trkpt>
      <trkpt lat="46.03183" lon="1.296">
        <ele>357.6</ele>
        <time>2024-04-28T06:20:47Z</time>
      </trkpt>
      <trkpt lat="46.03193" lon="1.29583">
        <ele>358.6</ele>
        <time>2024-04-28T06:20:54Z</time>
      </trkpt>
      <trkpt lat="46.03195" lon="1.2958">
        <ele>358.8</ele>
        <time>2024-04-28T06:20:55Z</time>
      </trkpt>
      <trkpt lat="46.03199" lon="1.29577">
        <ele>359</ele>
        <time>2024-04-28T06:20:57Z</time>
      </trkpt>
      <trkpt lat="46.03201" lon="1.29577">
        <ele>359.2</ele>
        <time>2024-04-28T06:20:58Z</time>
      </trkpt>
      <trkpt lat="46.03208" lon="1.29577">
        <ele>359.8</ele>
        <time>2024-04-28T06:21:01Z</time>
      </trkpt>
      <trkpt lat="46.03214" lon="1.29576">
        <ele>360.4</ele>
        <time>2024-04-28T06:21:04Z</time>
      </trkpt>
      <trkpt lat="46.03219" lon="1.29572">
        <ele>360.8</ele>
        <time>2024-04-28T06:21:06Z</time>
      </trkpt>
      <trkpt lat="46.03221" lon="1.29565">
        <ele>361.4</ele>
        <time>2024-04-28T06:21:08Z</time>
      </trkpt>
      <trkpt lat="46.03225" lon="1.29558">
        <ele>361.6</ele>
        <time>2024-04-28T06:21:11Z</time>
      </trkpt>
      <trkpt lat="46.03226" lon="1.29557">
        <ele>361.8</ele>
        <time>2024-04-28T06:21:12Z</time>
      </trkpt>
      <trkpt lat="46.03229" lon="1.29557">
        <ele>362</ele>
        <time>2024-04-28T06:21:13Z</time>
      </trkpt>
      <trkpt lat="46.03243" lon="1.29552">
        <ele>362.6</ele>
        <time>2024-04-28T06:21:19Z</time>
      </trkpt>
      <trkpt lat="46.0325" lon="1.29552">
        <ele>363.2</ele>
        <time>2024-04-28T06:21:22Z</time>
      </trkpt>
      <trkpt lat="46.03254" lon="1.29556">
        <ele>363.8</ele>
        <time>2024-04-28T06:21:24Z</time>
      </trkpt>
      <trkpt lat="46.0326" lon="1.29566">
        <ele>364.2</ele>
        <time>2024-04-28T06:21:27Z</time>
      </trkpt>
      <trkpt lat="46.03267" lon="1.29572">
        <ele>364.8</ele>
        <time>2024-04-28T06:21:30Z</time>
      </trkpt>
      <trkpt lat="46.03275" lon="1.29578">
        <ele>365.4</ele>
        <time>2024-04-28T06:21:34Z</time>
      </trkpt>
      <trkpt lat="46.03282" lon="1.29583">
        <ele>366.4</ele>
        <time>2024-04-28T06:21:37Z</time>
      </trkpt>
      <trkpt lat="46.03284" lon="1.29585">
        <ele>366.4</ele>
        <time>2024-04-28T06:21:38Z</time>
      </trkpt>
      <trkpt lat="46.03294" lon="1.29597">
        <ele>367.6</ele>
        <time>2024-04-28T06:21:43Z</time>
      </trkpt>
      <trkpt lat="46.03306" lon="1.29615">
        <ele>368.6</ele>
        <time>2024-04-28T06:21:49Z</time>
      </trkpt>
      <trkpt lat="46.0331" lon="1.29621">
        <ele>369.2</ele>
        <time>2024-04-28T06:21:51Z</time>
      </trkpt>
      <trkpt lat="46.03317" lon="1.2963">
        <ele>369.8</ele>
        <time>2024-04-28T06:21:54Z</time>
      </trkpt>
      <trkpt lat="46.03326" lon="1.29635">
        <ele>370</ele>
        <time>2024-04-28T06:21:57Z</time>
      </trkpt>
      <trkpt lat="46.03347" lon="1.29641">
        <ele>370.4</ele>
        <time>2024-04-28T06:22:05Z</time>
      </trkpt>
      <trkpt lat="46.03371" lon="1.29648">
        <ele>370</ele>
        <time>2024-04-28T06:22:11Z</time>
      </trkpt>
      <trkpt lat="46.03394" lon="1.29657">
        <ele>369.6</ele>
        <time>2024-04-28T06:22:17Z</time>
      </trkpt>
      <trkpt lat="46.034" lon="1.29658">
        <ele>369.4</ele>
        <time>2024-04-28T06:22:19Z</time>
      </trkpt>
      <trkpt lat="46.03407" lon="1.29658">
        <ele>369.2</ele>
        <time>2024-04-28T06:22:21Z</time>
      </trkpt>
      <trkpt lat="46.0341" lon="1.29658">
        <ele>369</ele>
        <time>2024-04-28T06:22:22Z</time>
      </trkpt>
      <trkpt lat="46.03414" lon="1.29657">
        <ele>369</ele>
        <time>2024-04-28T06:22:23Z</time>
      </trkpt>
      <trkpt lat="46.03428" lon="1.29654">
        <ele>368.8</ele>
        <time>2024-04-28T06:22:26Z</time>
      </trkpt>
      <trkpt lat="46.03434" lon="1.29655">
        <ele>368.8</ele>
        <time>2024-04-28T06:22:27Z</time>
      </trkpt>
      <trkpt lat="46.0344" lon="1.29655">
        <ele>368.6</ele>
        <time>2024-04-28T06:22:28Z</time>
      </trkpt>
      <trkpt lat="46.0346" lon="1.29651">
        <ele>368</ele>
        <time>2024-04-28T06:22:31Z</time>
      </trkpt>
      <trkpt lat="46.03476" lon="1.29652">
        <ele>367.4</ele>
        <time>2024-04-28T06:22:33Z</time>
      </trkpt>
      <trkpt lat="46.03493" lon="1.29654">
        <ele>367</ele>
        <time>2024-04-28T06:22:35Z</time>
      </trkpt>
      <trkpt lat="46.03509" lon="1.29656">
        <ele>366.4</ele>
        <time>2024-04-28T06:22:37Z</time>
      </trkpt>
      <trkpt lat="46.03521" lon="1.29649">
        <ele>365.6</ele>
        <time>2024-04-28T06:22:39Z</time>
      </trkpt>
      <trkpt lat="46.03533" lon="1.29636">
        <ele>365</ele>
        <time>2024-04-28T06:22:41Z</time>
      </trkpt>
      <trkpt lat="46.0354" lon="1.29631">
        <ele>364.8</ele>
        <time>2024-04-28T06:22:42Z</time>
      </trkpt>
      <trkpt lat="46.03547" lon="1.29625">
        <ele>364.6</ele>
        <time>2024-04-28T06:22:43Z</time>
      </trkpt>
      <trkpt lat="46.0356" lon="1.29613">
        <ele>363.8</ele>
        <time>2024-04-28T06:22:45Z</time>
      </trkpt>
      <trkpt lat="46.03573" lon="1.29602">
        <ele>362.4</ele>
        <time>2024-04-28T06:22:47Z</time>
      </trkpt>
      <trkpt lat="46.03585" lon="1.29592">
        <ele>361.6</ele>
        <time>2024-04-28T06:22:49Z</time>
      </trkpt>
      <trkpt lat="46.03591" lon="1.29589">
        <ele>361.2</ele>
        <time>2024-04-28T06:22:50Z</time>
      </trkpt>
      <trkpt lat="46.03597" lon="1.29588">
        <ele>360.8</ele>
        <time>2024-04-28T06:22:51Z</time>
      </trkpt>
      <trkpt lat="46.03604" lon="1.29589">
        <ele>360.2</ele>
        <time>2024-04-28T06:22:52Z</time>
      </trkpt>
      <trkpt lat="46.03611" lon="1.29592">
        <ele>359.8</ele>
        <time>2024-04-28T06:22:53Z</time>
      </trkpt>
      <trkpt lat="46.03626" lon="1.29595">
        <ele>359.4</ele>
        <time>2024-04-28T06:22:55Z</time>
      </trkpt>
      <trkpt lat="46.03633" lon="1.29594">
        <ele>358.8</ele>
        <time>2024-04-28T06:22:56Z</time>
      </trkpt>
      <trkpt lat="46.03655" lon="1.29588">
        <ele>358.2</ele>
        <time>2024-04-28T06:22:59Z</time>
      </trkpt>
      <trkpt lat="46.03669" lon="1.29585">
        <ele>358</ele>
        <time>2024-04-28T06:23:01Z</time>
      </trkpt>
      <trkpt lat="46.03684" lon="1.29584">
        <ele>357.6</ele>
        <time>2024-04-28T06:23:03Z</time>
      </trkpt>
      <trkpt lat="46.03707" lon="1.29585">
        <ele>357.2</ele>
        <time>2024-04-28T06:23:06Z</time>
      </trkpt>
      <trkpt lat="46.03733" lon="1.29586">
        <ele>357</ele>
        <time>2024-04-28T06:23:10Z</time>
      </trkpt>
      <trkpt lat="46.03738" lon="1.29582">
        <ele>356.4</ele>
        <time>2024-04-28T06:23:11Z</time>
      </trkpt>
      <trkpt lat="46.03742" lon="1.29576">
        <ele>356.2</ele>
        <time>2024-04-28T06:23:12Z</time>
      </trkpt>
      <trkpt lat="46.03747" lon="1.2957">
        <ele>355.8</ele>
        <time>2024-04-28T06:23:13Z</time>
      </trkpt>
      <trkpt lat="46.03752" lon="1.29565">
        <ele>355.4</ele>
        <time>2024-04-28T06:23:14Z</time>
      </trkpt>
      <trkpt lat="46.03758" lon="1.29562">
        <ele>355</ele>
        <time>2024-04-28T06:23:15Z</time>
      </trkpt>
      <trkpt lat="46.03764" lon="1.29562">
        <ele>354.8</ele>
        <time>2024-04-28T06:23:16Z</time>
      </trkpt>
      <trkpt lat="46.03787" lon="1.29564">
        <ele>354.4</ele>
        <time>2024-04-28T06:23:20Z</time>
      </trkpt>
      <trkpt lat="46.03799" lon="1.29566">
        <ele>354.2</ele>
        <time>2024-04-28T06:23:22Z</time>
      </trkpt>
      <trkpt lat="46.03808" lon="1.29576">
        <ele>354</ele>
        <time>2024-04-28T06:23:24Z</time>
      </trkpt>
      <trkpt lat="46.03812" lon="1.29583">
        <ele>354</ele>
        <time>2024-04-28T06:23:25Z</time>
      </trkpt>
      <trkpt lat="46.03821" lon="1.29598">
        <ele>353.8</ele>
        <time>2024-04-28T06:23:27Z</time>
      </trkpt>
      <trkpt lat="46.03833" lon="1.2961">
        <ele>353.6</ele>
        <time>2024-04-28T06:23:29Z</time>
      </trkpt>
      <trkpt lat="46.03856" lon="1.29627">
        <ele>353</ele>
        <time>2024-04-28T06:23:32Z</time>
      </trkpt>
      <trkpt lat="46.0388" lon="1.29643">
        <ele>352</ele>
        <time>2024-04-28T06:23:35Z</time>
      </trkpt>
      <trkpt lat="46.03888" lon="1.29648">
        <ele>351.8</ele>
        <time>2024-04-28T06:23:36Z</time>
      </trkpt>
      <trkpt lat="46.03911" lon="1.2966">
        <ele>351.4</ele>
        <time>2024-04-28T06:23:39Z</time>
      </trkpt>
      <trkpt lat="46.03919" lon="1.29661">
        <ele>351.2</ele>
        <time>2024-04-28T06:23:40Z</time>
      </trkpt>
      <trkpt lat="46.03935" lon="1.29662">
        <ele>350.8</ele>
        <time>2024-04-28T06:23:42Z</time>
      </trkpt>
      <trkpt lat="46.03957" lon="1.29659">
        <ele>350</ele>
        <time>2024-04-28T06:23:45Z</time>
      </trkpt>
      <trkpt lat="46.03967" lon="1.29654">
        <ele>349.8</ele>
        <time>2024-04-28T06:23:47Z</time>
      </trkpt>
      <trkpt lat="46.0397" lon="1.29654">
        <ele>349.4</ele>
        <time>2024-04-28T06:23:48Z</time>
      </trkpt>
      <trkpt lat="46.03974" lon="1.2966">
        <ele>349.4</ele>
        <time>2024-04-28T06:23:52Z</time>
      </trkpt>
      <trkpt lat="46.03976" lon="1.29667">
        <ele>349.6</ele>
        <time>2024-04-28T06:23:55Z</time>
      </trkpt>
      <trkpt lat="46.03976" lon="1.29673">
        <ele>349.6</ele>
        <time>2024-04-28T06:23:57Z</time>
      </trkpt>
      <trkpt lat="46.03976" lon="1.29676">
        <ele>349.6</ele>
        <time>2024-04-28T06:23:58Z</time>
      </trkpt>
      <trkpt lat="46.03975" lon="1.29688">
        <ele>349.8</ele>
        <time>2024-04-28T06:24:01Z</time>
      </trkpt>
      <trkpt lat="46.03973" lon="1.29691">
        <ele>349.8</ele>
        <time>2024-04-28T06:24:02Z</time>
      </trkpt>
      <trkpt lat="46.03957" lon="1.29705">
        <ele>350.2</ele>
        <time>2024-04-28T06:24:07Z</time>
      </trkpt>
      <trkpt lat="46.03951" lon="1.29711">
        <ele>350.2</ele>
        <time>2024-04-28T06:24:09Z</time>
      </trkpt>
      <trkpt lat="46.03939" lon="1.29719">
        <ele>350.2</ele>
        <time>2024-04-28T06:24:12Z</time>
      </trkpt>
      <trkpt lat="46.03935" lon="1.29722">
        <ele>350.2</ele>
        <time>2024-04-28T06:24:13Z</time>
      </trkpt>
      <trkpt lat="46.03922" lon="1.29733">
        <ele>350.6</ele>
        <time>2024-04-28T06:24:16Z</time>
      </trkpt>
      <trkpt lat="46.03913" lon="1.29739">
        <ele>350.8</ele>
        <time>2024-04-28T06:24:18Z</time>
      </trkpt>
      <trkpt lat="46.03898" lon="1.29749">
        <ele>350.8</ele>
        <time>2024-04-28T06:24:22Z</time>
      </trkpt>
      <trkpt lat="46.03896" lon="1.29752">
        <ele>350.8</ele>
        <time>2024-04-28T06:24:23Z</time>
      </trkpt>
      <trkpt lat="46.03895" lon="1.29756">
        <ele>350.6</ele>
        <time>2024-04-28T06:24:24Z</time>
      </trkpt>
      <trkpt lat="46.03896" lon="1.29762">
        <ele>350.4</ele>
        <time>2024-04-28T06:24:26Z</time>
      </trkpt>
      <trkpt lat="46.03904" lon="1.29775">
        <ele>350.8</ele>
        <time>2024-04-28T06:24:32Z</time>
      </trkpt>
      <trkpt lat="46.03915" lon="1.29784">
        <ele>350.8</ele>
        <time>2024-04-28T06:24:35Z</time>
      </trkpt>
      <trkpt lat="46.03919" lon="1.29786">
        <ele>350.8</ele>
        <time>2024-04-28T06:24:36Z</time>
      </trkpt>
      <trkpt lat="46.03922" lon="1.29785">
        <ele>350.6</ele>
        <time>2024-04-28T06:24:37Z</time>
      </trkpt>
      <trkpt lat="46.03928" lon="1.29783">
        <ele>350.2</ele>
        <time>2024-04-28T06:24:39Z</time>
      </trkpt>
      <trkpt lat="46.03931" lon="1.29783">
        <ele>350.2</ele>
        <time>2024-04-28T06:24:40Z</time>
      </trkpt>
      <trkpt lat="46.03946" lon="1.29782">
        <ele>349.8</ele>
        <time>2024-04-28T06:24:44Z</time>
      </trkpt>
      <trkpt lat="46.03951" lon="1.2978">
        <ele>349</ele>
        <time>2024-04-28T06:24:46Z</time>
      </trkpt>
      <trkpt lat="46.03956" lon="1.29776">
        <ele>348.6</ele>
        <time>2024-04-28T06:24:48Z</time>
      </trkpt>
      <trkpt lat="46.03961" lon="1.29773">
        <ele>348.8</ele>
        <time>2024-04-28T06:24:50Z</time>
      </trkpt>
      <trkpt lat="46.03964" lon="1.29772">
        <ele>348.8</ele>
        <time>2024-04-28T06:24:51Z</time>
      </trkpt>
      <trkpt lat="46.03966" lon="1.29771">
        <ele>349</ele>
        <time>2024-04-28T06:24:52Z</time>
      </trkpt>
      <trkpt lat="46.03972" lon="1.29768">
        <ele>349.2</ele>
        <time>2024-04-28T06:24:54Z</time>
      </trkpt>
      <trkpt lat="46.03979" lon="1.29766">
        <ele>349.2</ele>
        <time>2024-04-28T06:24:56Z</time>
      </trkpt>
      <trkpt lat="46.03993" lon="1.29771">
        <ele>349.4</ele>
        <time>2024-04-28T06:25:00Z</time>
      </trkpt>
      <trkpt lat="46.04" lon="1.29767">
        <ele>349.6</ele>
        <time>2024-04-28T06:25:02Z</time>
      </trkpt>
      <trkpt lat="46.04003" lon="1.29764">
        <ele>349.6</ele>
        <time>2024-04-28T06:25:03Z</time>
      </trkpt>
      <trkpt lat="46.04024" lon="1.29741">
        <ele>350</ele>
        <time>2024-04-28T06:25:09Z</time>
      </trkpt>
      <trkpt lat="46.04027" lon="1.29739">
        <ele>350.2</ele>
        <time>2024-04-28T06:25:10Z</time>
      </trkpt>
      <trkpt lat="46.04038" lon="1.29737">
        <ele>350</ele>
        <time>2024-04-28T06:25:12Z</time>
      </trkpt>
      <trkpt lat="46.04042" lon="1.29739">
        <ele>350.2</ele>
        <time>2024-04-28T06:25:13Z</time>
      </trkpt>
      <trkpt lat="46.04047" lon="1.29741">
        <ele>350</ele>
        <time>2024-04-28T06:25:14Z</time>
      </trkpt>
      <trkpt lat="46.04057" lon="1.29742">
        <ele>350</ele>
        <time>2024-04-28T06:25:16Z</time>
      </trkpt>
      <trkpt lat="46.04089" lon="1.29731">
        <ele>349.4</ele>
        <time>2024-04-28T06:25:22Z</time>
      </trkpt>
      <trkpt lat="46.04116" lon="1.29721">
        <ele>348.8</ele>
        <time>2024-04-28T06:25:29Z</time>
      </trkpt>
      <trkpt lat="46.04127" lon="1.29713">
        <ele>348.6</ele>
        <time>2024-04-28T06:25:33Z</time>
      </trkpt>
      <trkpt lat="46.04136" lon="1.29699">
        <ele>348.8</ele>
        <time>2024-04-28T06:25:38Z</time>
      </trkpt>
      <trkpt lat="46.04151" lon="1.29669">
        <ele>349.6</ele>
        <time>2024-04-28T06:25:45Z</time>
      </trkpt>
      <trkpt lat="46.04154" lon="1.29661">
        <ele>349.8</ele>
        <time>2024-04-28T06:25:47Z</time>
      </trkpt>
      <trkpt lat="46.04155" lon="1.29657">
        <ele>349.8</ele>
        <time>2024-04-28T06:25:48Z</time>
      </trkpt>
      <trkpt lat="46.04159" lon="1.29645">
        <ele>349.8</ele>
        <time>2024-04-28T06:25:51Z</time>
      </trkpt>
      <trkpt lat="46.04171" lon="1.29615">
        <ele>350.4</ele>
        <time>2024-04-28T06:25:57Z</time>
      </trkpt>
      <trkpt lat="46.0418" lon="1.29598">
        <ele>350.6</ele>
        <time>2024-04-28T06:26:02Z</time>
      </trkpt>
      <trkpt lat="46.04183" lon="1.29592">
        <ele>350.6</ele>
        <time>2024-04-28T06:26:04Z</time>
      </trkpt>
      <trkpt lat="46.0419" lon="1.29587">
        <ele>351</ele>
        <time>2024-04-28T06:26:07Z</time>
      </trkpt>
      <trkpt lat="46.0421" lon="1.29589">
        <ele>351.2</ele>
        <time>2024-04-28T06:26:13Z</time>
      </trkpt>
      <trkpt lat="46.04231" lon="1.29597">
        <ele>350.6</ele>
        <time>2024-04-28T06:26:19Z</time>
      </trkpt>
      <trkpt lat="46.04241" lon="1.2961">
        <ele>350.8</ele>
        <time>2024-04-28T06:26:23Z</time>
      </trkpt>
      <trkpt lat="46.04247" lon="1.29617">
        <ele>351</ele>
        <time>2024-04-28T06:26:25Z</time>
      </trkpt>
      <trkpt lat="46.04253" lon="1.29626">
        <ele>351.2</ele>
        <time>2024-04-28T06:26:27Z</time>
      </trkpt>
      <trkpt lat="46.04268" lon="1.29644">
        <ele>351.2</ele>
        <time>2024-04-28T06:26:31Z</time>
      </trkpt>
      <trkpt lat="46.0428" lon="1.29655">
        <ele>351</ele>
        <time>2024-04-28T06:26:34Z</time>
      </trkpt>
      <trkpt lat="46.04286" lon="1.29665">
        <ele>351</ele>
        <time>2024-04-28T06:26:36Z</time>
      </trkpt>
      <trkpt lat="46.0429" lon="1.29676">
        <ele>350.8</ele>
        <time>2024-04-28T06:26:38Z</time>
      </trkpt>
      <trkpt lat="46.04292" lon="1.29688">
        <ele>350.8</ele>
        <time>2024-04-28T06:26:40Z</time>
      </trkpt>
      <trkpt lat="46.04292" lon="1.29696">
        <ele>350.6</ele>
        <time>2024-04-28T06:26:41Z</time>
      </trkpt>
      <trkpt lat="46.04294" lon="1.29724">
        <ele>351</ele>
        <time>2024-04-28T06:26:46Z</time>
      </trkpt>
      <trkpt lat="46.04293" lon="1.2974">
        <ele>351.8</ele>
        <time>2024-04-28T06:26:50Z</time>
      </trkpt>
      <trkpt lat="46.04292" lon="1.29747">
        <ele>352.2</ele>
        <time>2024-04-28T06:26:52Z</time>
      </trkpt>
      <trkpt lat="46.04293" lon="1.2975">
        <ele>352.6</ele>
        <time>2024-04-28T06:26:53Z</time>
      </trkpt>
      <trkpt lat="46.04294" lon="1.29752">
        <ele>352.8</ele>
        <time>2024-04-28T06:26:54Z</time>
      </trkpt>
      <trkpt lat="46.04297" lon="1.29757">
        <ele>353.2</ele>
        <time>2024-04-28T06:26:56Z</time>
      </trkpt>
      <trkpt lat="46.0431" lon="1.29762">
        <ele>353.8</ele>
        <time>2024-04-28T06:27:01Z</time>
      </trkpt>
      <trkpt lat="46.04327" lon="1.29769">
        <ele>353.8</ele>
        <time>2024-04-28T06:27:05Z</time>
      </trkpt>
      <trkpt lat="46.04343" lon="1.29779">
        <ele>354</ele>
        <time>2024-04-28T06:27:10Z</time>
      </trkpt>
      <trkpt lat="46.04363" lon="1.298">
        <ele>354.8</ele>
        <time>2024-04-28T06:27:18Z</time>
      </trkpt>
      <trkpt lat="46.04369" lon="1.29806">
        <ele>355</ele>
        <time>2024-04-28T06:27:20Z</time>
      </trkpt>
      <trkpt lat="46.0438" lon="1.29817">
        <ele>355.2</ele>
        <time>2024-04-28T06:27:24Z</time>
      </trkpt>
      <trkpt lat="46.04401" lon="1.29841">
        <ele>355.2</ele>
        <time>2024-04-28T06:27:31Z</time>
      </trkpt>
      <trkpt lat="46.04411" lon="1.29859">
        <ele>355.2</ele>
        <time>2024-04-28T06:27:36Z</time>
      </trkpt>
      <trkpt lat="46.04421" lon="1.29891">
        <ele>355.4</ele>
        <time>2024-04-28T06:27:42Z</time>
      </trkpt>
      <trkpt lat="46.04427" lon="1.2991">
        <ele>355.2</ele>
        <time>2024-04-28T06:27:45Z</time>
      </trkpt>
      <trkpt lat="46.0443" lon="1.29924">
        <ele>355</ele>
        <time>2024-04-28T06:27:47Z</time>
      </trkpt>
      <trkpt lat="46.0443" lon="1.29938">
        <ele>354.4</ele>
        <time>2024-04-28T06:27:49Z</time>
      </trkpt>
      <trkpt lat="46.04433" lon="1.29951">
        <ele>353.8</ele>
        <time>2024-04-28T06:27:51Z</time>
      </trkpt>
      <trkpt lat="46.04434" lon="1.29958">
        <ele>353.2</ele>
        <time>2024-04-28T06:27:52Z</time>
      </trkpt>
      <trkpt lat="46.04437" lon="1.29971">
        <ele>352.4</ele>
        <time>2024-04-28T06:27:54Z</time>
      </trkpt>
      <trkpt lat="46.04441" lon="1.29987">
        <ele>351.8</ele>
        <time>2024-04-28T06:27:56Z</time>
      </trkpt>
      <trkpt lat="46.04443" lon="1.29995">
        <ele>351.6</ele>
        <time>2024-04-28T06:27:57Z</time>
      </trkpt>
      <trkpt lat="46.04444" lon="1.30003">
        <ele>351.2</ele>
        <time>2024-04-28T06:27:58Z</time>
      </trkpt>
      <trkpt lat="46.04447" lon="1.30021">
        <ele>351</ele>
        <time>2024-04-28T06:28:01Z</time>
      </trkpt>
      <trkpt lat="46.04452" lon="1.30047">
        <ele>350.8</ele>
        <time>2024-04-28T06:28:07Z</time>
      </trkpt>
      <trkpt lat="46.04457" lon="1.30078">
        <ele>352</ele>
        <time>2024-04-28T06:28:13Z</time>
      </trkpt>
      <trkpt lat="46.04459" lon="1.30093">
        <ele>352.6</ele>
        <time>2024-04-28T06:28:16Z</time>
      </trkpt>
      <trkpt lat="46.04461" lon="1.30105">
        <ele>353.8</ele>
        <time>2024-04-28T06:28:19Z</time>
      </trkpt>
      <trkpt lat="46.04463" lon="1.30113">
        <ele>354</ele>
        <time>2024-04-28T06:28:21Z</time>
      </trkpt>
      <trkpt lat="46.04467" lon="1.3014">
        <ele>355.2</ele>
        <time>2024-04-28T06:28:27Z</time>
      </trkpt>
      <trkpt lat="46.04467" lon="1.30145">
        <ele>355.4</ele>
        <time>2024-04-28T06:28:28Z</time>
      </trkpt>
      <trkpt lat="46.0447" lon="1.30164">
        <ele>356.4</ele>
        <time>2024-04-28T06:28:32Z</time>
      </trkpt>
      <trkpt lat="46.04473" lon="1.30182">
        <ele>357.8</ele>
        <time>2024-04-28T06:28:37Z</time>
      </trkpt>
      <trkpt lat="46.04475" lon="1.30207">
        <ele>358.2</ele>
        <time>2024-04-28T06:28:43Z</time>
      </trkpt>
      <trkpt lat="46.04475" lon="1.3023">
        <ele>358.8</ele>
        <time>2024-04-28T06:28:48Z</time>
      </trkpt>
      <trkpt lat="46.04477" lon="1.30244">
        <ele>359.4</ele>
        <time>2024-04-28T06:28:51Z</time>
      </trkpt>
      <trkpt lat="46.0448" lon="1.30286">
        <ele>359.8</ele>
        <time>2024-04-28T06:28:58Z</time>
      </trkpt>
      <trkpt lat="46.04484" lon="1.30336">
        <ele>359.8</ele>
        <time>2024-04-28T06:29:06Z</time>
      </trkpt>
      <trkpt lat="46.04485" lon="1.30357">
        <ele>359.8</ele>
        <time>2024-04-28T06:29:10Z</time>
      </trkpt>
      <trkpt lat="46.04486" lon="1.30371">
        <ele>360.4</ele>
        <time>2024-04-28T06:29:13Z</time>
      </trkpt>
      <trkpt lat="46.04487" lon="1.30379">
        <ele>361</ele>
        <time>2024-04-28T06:29:15Z</time>
      </trkpt>
      <trkpt lat="46.04488" lon="1.30399">
        <ele>361.6</ele>
        <time>2024-04-28T06:29:20Z</time>
      </trkpt>
      <trkpt lat="46.04488" lon="1.30402">
        <ele>362</ele>
        <time>2024-04-28T06:29:21Z</time>
      </trkpt>
      <trkpt lat="46.04487" lon="1.30417">
        <ele>363.2</ele>
        <time>2024-04-28T06:29:25Z</time>
      </trkpt>
      <trkpt lat="46.04485" lon="1.30425">
        <ele>363.6</ele>
        <time>2024-04-28T06:29:27Z</time>
      </trkpt>
      <trkpt lat="46.04473" lon="1.30454">
        <ele>363.6</ele>
        <time>2024-04-28T06:29:33Z</time>
      </trkpt>
      <trkpt lat="46.04456" lon="1.30499">
        <ele>363.4</ele>
        <time>2024-04-28T06:29:41Z</time>
      </trkpt>
      <trkpt lat="46.04452" lon="1.30506">
        <ele>363</ele>
        <time>2024-04-28T06:29:43Z</time>
      </trkpt>
      <trkpt lat="46.0445" lon="1.30507">
        <ele>362.6</ele>
        <time>2024-04-28T06:29:44Z</time>
      </trkpt>
      <trkpt lat="46.04447" lon="1.30506">
        <ele>362.6</ele>
        <time>2024-04-28T06:29:45Z</time>
      </trkpt>
      <trkpt lat="46.04444" lon="1.30499">
        <ele>362.4</ele>
        <time>2024-04-28T06:29:47Z</time>
      </trkpt>
      <trkpt lat="46.04443" lon="1.30493">
        <ele>362.2</ele>
        <time>2024-04-28T06:29:48Z</time>
      </trkpt>
      <trkpt lat="46.04441" lon="1.3048">
        <ele>361.6</ele>
        <time>2024-04-28T06:29:50Z</time>
      </trkpt>
      <trkpt lat="46.0444" lon="1.30473">
        <ele>361.4</ele>
        <time>2024-04-28T06:29:51Z</time>
      </trkpt>
      <trkpt lat="46.04435" lon="1.30451">
        <ele>361</ele>
        <time>2024-04-28T06:29:54Z</time>
      </trkpt>
      <trkpt lat="46.04429" lon="1.30428">
        <ele>360.4</ele>
        <time>2024-04-28T06:29:57Z</time>
      </trkpt>
      <trkpt lat="46.04425" lon="1.30424">
        <ele>360.2</ele>
        <time>2024-04-28T06:29:58Z</time>
      </trkpt>
      <trkpt lat="46.0442" lon="1.30421">
        <ele>360</ele>
        <time>2024-04-28T06:29:59Z</time>
      </trkpt>
      <trkpt lat="46.04406" lon="1.30421">
        <ele>359.2</ele>
        <time>2024-04-28T06:30:01Z</time>
      </trkpt>
      <trkpt lat="46.04391" lon="1.30424">
        <ele>358.6</ele>
        <time>2024-04-28T06:30:03Z</time>
      </trkpt>
      <trkpt lat="46.04374" lon="1.30429">
        <ele>357.4</ele>
        <time>2024-04-28T06:30:05Z</time>
      </trkpt>
      <trkpt lat="46.04366" lon="1.30432">
        <ele>356.8</ele>
        <time>2024-04-28T06:30:06Z</time>
      </trkpt>
      <trkpt lat="46.04359" lon="1.30436">
        <ele>356.2</ele>
        <time>2024-04-28T06:30:07Z</time>
      </trkpt>
      <trkpt lat="46.04344" lon="1.30444">
        <ele>355.2</ele>
        <time>2024-04-28T06:30:09Z</time>
      </trkpt>
      <trkpt lat="46.0433" lon="1.30449">
        <ele>354.6</ele>
        <time>2024-04-28T06:30:11Z</time>
      </trkpt>
      <trkpt lat="46.04317" lon="1.30446">
        <ele>353.8</ele>
        <time>2024-04-28T06:30:13Z</time>
      </trkpt>
      <trkpt lat="46.04303" lon="1.30448">
        <ele>352.2</ele>
        <time>2024-04-28T06:30:16Z</time>
      </trkpt>
      <trkpt lat="46.043" lon="1.30456">
        <ele>350.6</ele>
        <time>2024-04-28T06:30:18Z</time>
      </trkpt>
      <trkpt lat="46.04301" lon="1.3046">
        <ele>350</ele>
        <time>2024-04-28T06:30:19Z</time>
      </trkpt>
      <trkpt lat="46.04303" lon="1.30471">
        <ele>349.6</ele>
        <time>2024-04-28T06:30:21Z</time>
      </trkpt>
      <trkpt lat="46.04305" lon="1.30482">
        <ele>349.2</ele>
        <time>2024-04-28T06:30:23Z</time>
      </trkpt>
      <trkpt lat="46.04309" lon="1.30493">
        <ele>349.8</ele>
        <time>2024-04-28T06:30:25Z</time>
      </trkpt>
      <trkpt lat="46.04314" lon="1.30508">
        <ele>350.4</ele>
        <time>2024-04-28T06:30:28Z</time>
      </trkpt>
      <trkpt lat="46.04325" lon="1.30527">
        <ele>350.4</ele>
        <time>2024-04-28T06:30:32Z</time>
      </trkpt>
      <trkpt lat="46.04351" lon="1.30564">
        <ele>349.2</ele>
        <time>2024-04-28T06:30:39Z</time>
      </trkpt>
      <trkpt lat="46.04357" lon="1.30573">
        <ele>349.4</ele>
        <time>2024-04-28T06:30:41Z</time>
      </trkpt>
      <trkpt lat="46.04364" lon="1.30582">
        <ele>349.4</ele>
        <time>2024-04-28T06:30:44Z</time>
      </trkpt>
      <trkpt lat="46.0437" lon="1.30597">
        <ele>349.4</ele>
        <time>2024-04-28T06:30:48Z</time>
      </trkpt>
      <trkpt lat="46.04382" lon="1.30626">
        <ele>348.8</ele>
        <time>2024-04-28T06:30:55Z</time>
      </trkpt>
      <trkpt lat="46.04389" lon="1.3064">
        <ele>348.4</ele>
        <time>2024-04-28T06:30:59Z</time>
      </trkpt>
      <trkpt lat="46.04393" lon="1.30643">
        <ele>348.4</ele>
        <time>2024-04-28T06:31:00Z</time>
      </trkpt>
      <trkpt lat="46.04414" lon="1.30663">
        <ele>348.4</ele>
        <time>2024-04-28T06:31:06Z</time>
      </trkpt>
      <trkpt lat="46.04421" lon="1.30676">
        <ele>348.2</ele>
        <time>2024-04-28T06:31:09Z</time>
      </trkpt>
      <trkpt lat="46.04423" lon="1.3068">
        <ele>348</ele>
        <time>2024-04-28T06:31:10Z</time>
      </trkpt>
      <trkpt lat="46.04426" lon="1.30684">
        <ele>348</ele>
        <time>2024-04-28T06:31:11Z</time>
      </trkpt>
      <trkpt lat="46.04433" lon="1.3069">
        <ele>347.8</ele>
        <time>2024-04-28T06:31:13Z</time>
      </trkpt>
      <trkpt lat="46.04437" lon="1.30693">
        <ele>348</ele>
        <time>2024-04-28T06:31:14Z</time>
      </trkpt>
      <trkpt lat="46.04461" lon="1.30708">
        <ele>348.6</ele>
        <time>2024-04-28T06:31:20Z</time>
      </trkpt>
      <trkpt lat="46.04471" lon="1.30714">
        <ele>348.8</ele>
        <time>2024-04-28T06:31:23Z</time>
      </trkpt>
      <trkpt lat="46.04474" lon="1.30715">
        <ele>349</ele>
        <time>2024-04-28T06:31:24Z</time>
      </trkpt>
      <trkpt lat="46.04478" lon="1.30716">
        <ele>348.8</ele>
        <time>2024-04-28T06:31:25Z</time>
      </trkpt>
      <trkpt lat="46.04484" lon="1.3072">
        <ele>348.4</ele>
        <time>2024-04-28T06:31:28Z</time>
      </trkpt>
      <trkpt lat="46.04486" lon="1.30722">
        <ele>347.8</ele>
        <time>2024-04-28T06:31:31Z</time>
      </trkpt>
      <trkpt lat="46.0449" lon="1.30725">
        <ele>347.8</ele>
        <time>2024-04-28T06:31:35Z</time>
      </trkpt>
      <trkpt lat="46.04502" lon="1.30732">
        <ele>348.4</ele>
        <time>2024-04-28T06:31:45Z</time>
      </trkpt>
      <trkpt lat="46.045" lon="1.30738">
        <ele>348.6</ele>
        <time>2024-04-28T06:31:49Z</time>
      </trkpt>
      <trkpt lat="46.04498" lon="1.30742">
        <ele>348.6</ele>
        <time>2024-04-28T06:31:52Z</time>
      </trkpt>
      <trkpt lat="46.04494" lon="1.30748">
        <ele>349.6</ele>
        <time>2024-04-28T06:31:56Z</time>
      </trkpt>
      <trkpt lat="46.04489" lon="1.30756">
        <ele>349.6</ele>
        <time>2024-04-28T06:31:59Z</time>
      </trkpt>
      <trkpt lat="46.04483" lon="1.30772">
        <ele>349.6</ele>
        <time>2024-04-28T06:32:02Z</time>
      </trkpt>
      <trkpt lat="46.04482" lon="1.30779">
        <ele>349.4</ele>
        <time>2024-04-28T06:32:03Z</time>
      </trkpt>
      <trkpt lat="46.04482" lon="1.30786">
        <ele>349.4</ele>
        <time>2024-04-28T06:32:04Z</time>
      </trkpt>
      <trkpt lat="46.04484" lon="1.30799">
        <ele>349</ele>
        <time>2024-04-28T06:32:06Z</time>
      </trkpt>
      <trkpt lat="46.04488" lon="1.3081">
        <ele>348.8</ele>
        <time>2024-04-28T06:32:08Z</time>
      </trkpt>
      <trkpt lat="46.04492" lon="1.30821">
        <ele>348.4</ele>
        <time>2024-04-28T06:32:10Z</time>
      </trkpt>
      <trkpt lat="46.04494" lon="1.30826">
        <ele>348.2</ele>
        <time>2024-04-28T06:32:11Z</time>
      </trkpt>
      <trkpt lat="46.04497" lon="1.30831">
        <ele>348.4</ele>
        <time>2024-04-28T06:32:12Z</time>
      </trkpt>
      <trkpt lat="46.04501" lon="1.30834">
        <ele>348.4</ele>
        <time>2024-04-28T06:32:13Z</time>
      </trkpt>
      <trkpt lat="46.04507" lon="1.3084">
        <ele>348.4</ele>
        <time>2024-04-28T06:32:15Z</time>
      </trkpt>
      <trkpt lat="46.0451" lon="1.30843">
        <ele>348.6</ele>
        <time>2024-04-28T06:32:16Z</time>
      </trkpt>
      <trkpt lat="46.04512" lon="1.30846">
        <ele>348.6</ele>
        <time>2024-04-28T06:32:17Z</time>
      </trkpt>
      <trkpt lat="46.04515" lon="1.30854">
        <ele>348.8</ele>
        <time>2024-04-28T06:32:19Z</time>
      </trkpt>
      <trkpt lat="46.04517" lon="1.30857">
        <ele>348.8</ele>
        <time>2024-04-28T06:32:20Z</time>
      </trkpt>
      <trkpt lat="46.0452" lon="1.3086">
        <ele>348.6</ele>
        <time>2024-04-28T06:32:21Z</time>
      </trkpt>
      <trkpt lat="46.04531" lon="1.30868">
        <ele>348.4</ele>
        <time>2024-04-28T06:32:24Z</time>
      </trkpt>
      <trkpt lat="46.04536" lon="1.30875">
        <ele>348.4</ele>
        <time>2024-04-28T06:32:26Z</time>
      </trkpt>
      <trkpt lat="46.0454" lon="1.30882">
        <ele>348.8</ele>
        <time>2024-04-28T06:32:28Z</time>
      </trkpt>
      <trkpt lat="46.04546" lon="1.3089">
        <ele>349.6</ele>
        <time>2024-04-28T06:32:31Z</time>
      </trkpt>
      <trkpt lat="46.0455" lon="1.30897">
        <ele>350.2</ele>
        <time>2024-04-28T06:32:34Z</time>
      </trkpt>
      <trkpt lat="46.04551" lon="1.30898">
        <ele>350.6</ele>
        <time>2024-04-28T06:32:35Z</time>
      </trkpt>
      <trkpt lat="46.04551" lon="1.30898">
        <ele>350.8</ele>
        <time>2024-04-28T06:32:36Z</time>
      </trkpt>
      <trkpt lat="46.04554" lon="1.30898">
        <ele>351.6</ele>
        <time>2024-04-28T06:32:40Z</time>
      </trkpt>
      <trkpt lat="46.04556" lon="1.30896">
        <ele>352</ele>
        <time>2024-04-28T06:32:42Z</time>
      </trkpt>
      <trkpt lat="46.04557" lon="1.30896">
        <ele>352.6</ele>
        <time>2024-04-28T06:32:44Z</time>
      </trkpt>
      <trkpt lat="46.04561" lon="1.30895">
        <ele>353.6</ele>
        <time>2024-04-28T06:32:51Z</time>
      </trkpt>
      <trkpt lat="46.04563" lon="1.30895">
        <ele>354</ele>
        <time>2024-04-28T06:32:52Z</time>
      </trkpt>
      <trkpt lat="46.04566" lon="1.30895">
        <ele>354.6</ele>
        <time>2024-04-28T06:32:55Z</time>
      </trkpt>
      <trkpt lat="46.04568" lon="1.30894">
        <ele>354.8</ele>
        <time>2024-04-28T06:32:56Z</time>
      </trkpt>
      <trkpt lat="46.04572" lon="1.30892">
        <ele>355.8</ele>
        <time>2024-04-28T06:32:59Z</time>
      </trkpt>
      <trkpt lat="46.04577" lon="1.30887">
        <ele>356.6</ele>
        <time>2024-04-28T06:33:02Z</time>
      </trkpt>
      <trkpt lat="46.04578" lon="1.30883">
        <ele>356.8</ele>
        <time>2024-04-28T06:33:04Z</time>
      </trkpt>
      <trkpt lat="46.0458" lon="1.30877">
        <ele>357</ele>
        <time>2024-04-28T06:33:06Z</time>
      </trkpt>
      <trkpt lat="46.04582" lon="1.30872">
        <ele>357.2</ele>
        <time>2024-04-28T06:33:08Z</time>
      </trkpt>
      <trkpt lat="46.04586" lon="1.3087">
        <ele>357.6</ele>
        <time>2024-04-28T06:33:10Z</time>
      </trkpt>
      <trkpt lat="46.0459" lon="1.3087">
        <ele>357.8</ele>
        <time>2024-04-28T06:33:12Z</time>
      </trkpt>
      <trkpt lat="46.04595" lon="1.30869">
        <ele>358.2</ele>
        <time>2024-04-28T06:33:15Z</time>
      </trkpt>
      <trkpt lat="46.04602" lon="1.30864">
        <ele>358.4</ele>
        <time>2024-04-28T06:33:18Z</time>
      </trkpt>
      <trkpt lat="46.04605" lon="1.30864">
        <ele>358.6</ele>
        <time>2024-04-28T06:33:20Z</time>
      </trkpt>
      <trkpt lat="46.04609" lon="1.30867">
        <ele>359.2</ele>
        <time>2024-04-28T06:33:22Z</time>
      </trkpt>
      <trkpt lat="46.04616" lon="1.30873">
        <ele>359.8</ele>
        <time>2024-04-28T06:33:26Z</time>
      </trkpt>
      <trkpt lat="46.04621" lon="1.30878">
        <ele>360.2</ele>
        <time>2024-04-28T06:33:29Z</time>
      </trkpt>
      <trkpt lat="46.04627" lon="1.30884">
        <ele>360.8</ele>
        <time>2024-04-28T06:33:33Z</time>
      </trkpt>
      <trkpt lat="46.04629" lon="1.30885">
        <ele>361</ele>
        <time>2024-04-28T06:33:34Z</time>
      </trkpt>
      <trkpt lat="46.04637" lon="1.30886">
        <ele>361.4</ele>
        <time>2024-04-28T06:33:37Z</time>
      </trkpt>
      <trkpt lat="46.0464" lon="1.30887">
        <ele>361.4</ele>
        <time>2024-04-28T06:33:38Z</time>
      </trkpt>
      <trkpt lat="46.04655" lon="1.30892">
        <ele>360.6</ele>
        <time>2024-04-28T06:33:44Z</time>
      </trkpt>
      <trkpt lat="46.04658" lon="1.30895">
        <ele>360.2</ele>
        <time>2024-04-28T06:33:45Z</time>
      </trkpt>
      <trkpt lat="46.0466" lon="1.30897">
        <ele>359.8</ele>
        <time>2024-04-28T06:33:46Z</time>
      </trkpt>
      <trkpt lat="46.04664" lon="1.30903">
        <ele>358.8</ele>
        <time>2024-04-28T06:33:48Z</time>
      </trkpt>
      <trkpt lat="46.04671" lon="1.30908">
        <ele>357</ele>
        <time>2024-04-28T06:33:50Z</time>
      </trkpt>
      <trkpt lat="46.04676" lon="1.3091">
        <ele>356</ele>
        <time>2024-04-28T06:33:52Z</time>
      </trkpt>
      <trkpt lat="46.0468" lon="1.30912">
        <ele>355.6</ele>
        <time>2024-04-28T06:33:54Z</time>
      </trkpt>
      <trkpt lat="46.04685" lon="1.30913">
        <ele>355.6</ele>
        <time>2024-04-28T06:33:56Z</time>
      </trkpt>
      <trkpt lat="46.04692" lon="1.30915">
        <ele>356</ele>
        <time>2024-04-28T06:33:59Z</time>
      </trkpt>
      <trkpt lat="46.04704" lon="1.3091">
        <ele>356.8</ele>
        <time>2024-04-28T06:34:04Z</time>
      </trkpt>
      <trkpt lat="46.04708" lon="1.3091">
        <ele>357</ele>
        <time>2024-04-28T06:34:05Z</time>
      </trkpt>
      <trkpt lat="46.04722" lon="1.30911">
        <ele>356.4</ele>
        <time>2024-04-28T06:34:09Z</time>
      </trkpt>
      <trkpt lat="46.04726" lon="1.30912">
        <ele>356.2</ele>
        <time>2024-04-28T06:34:10Z</time>
      </trkpt>
      <trkpt lat="46.04729" lon="1.30912">
        <ele>355.8</ele>
        <time>2024-04-28T06:34:11Z</time>
      </trkpt>
      <trkpt lat="46.04735" lon="1.30911">
        <ele>355.4</ele>
        <time>2024-04-28T06:34:13Z</time>
      </trkpt>
      <trkpt lat="46.04753" lon="1.30906">
        <ele>355.6</ele>
        <time>2024-04-28T06:34:19Z</time>
      </trkpt>
      <trkpt lat="46.04776" lon="1.30906">
        <ele>355.4</ele>
        <time>2024-04-28T06:34:26Z</time>
      </trkpt>
      <trkpt lat="46.04781" lon="1.30905">
        <ele>355</ele>
        <time>2024-04-28T06:34:28Z</time>
      </trkpt>
      <trkpt lat="46.04786" lon="1.30903">
        <ele>355</ele>
        <time>2024-04-28T06:34:30Z</time>
      </trkpt>
      <trkpt lat="46.04789" lon="1.30903">
        <ele>354.8</ele>
        <time>2024-04-28T06:34:31Z</time>
      </trkpt>
      <trkpt lat="46.048" lon="1.30898">
        <ele>353.8</ele>
        <time>2024-04-28T06:34:35Z</time>
      </trkpt>
      <trkpt lat="46.04802" lon="1.30897">
        <ele>353.6</ele>
        <time>2024-04-28T06:34:36Z</time>
      </trkpt>
      <trkpt lat="46.04811" lon="1.30885">
        <ele>352.8</ele>
        <time>2024-04-28T06:34:40Z</time>
      </trkpt>
      <trkpt lat="46.04812" lon="1.30883">
        <ele>352.6</ele>
        <time>2024-04-28T06:34:41Z</time>
      </trkpt>
      <trkpt lat="46.04816" lon="1.30878">
        <ele>351.4</ele>
        <time>2024-04-28T06:34:44Z</time>
      </trkpt>
      <trkpt lat="46.04819" lon="1.30875">
        <ele>350.4</ele>
        <time>2024-04-28T06:34:45Z</time>
      </trkpt>
      <trkpt lat="46.04821" lon="1.30872">
        <ele>349.8</ele>
        <time>2024-04-28T06:34:46Z</time>
      </trkpt>
      <trkpt lat="46.04825" lon="1.30863">
        <ele>348.4</ele>
        <time>2024-04-28T06:34:49Z</time>
      </trkpt>
      <trkpt lat="46.04828" lon="1.3086">
        <ele>348.2</ele>
        <time>2024-04-28T06:34:50Z</time>
      </trkpt>
      <trkpt lat="46.04837" lon="1.30843">
        <ele>347.8</ele>
        <time>2024-04-28T06:34:57Z</time>
      </trkpt>
      <trkpt lat="46.04838" lon="1.30841">
        <ele>347.6</ele>
        <time>2024-04-28T06:34:58Z</time>
      </trkpt>
      <trkpt lat="46.04846" lon="1.30829">
        <ele>347.4</ele>
        <time>2024-04-28T06:35:02Z</time>
      </trkpt>
      <trkpt lat="46.04847" lon="1.30827">
        <ele>347.4</ele>
        <time>2024-04-28T06:35:03Z</time>
      </trkpt>
      <trkpt lat="46.04849" lon="1.30822">
        <ele>347.4</ele>
        <time>2024-04-28T06:35:05Z</time>
      </trkpt>
      <trkpt lat="46.04851" lon="1.30817">
        <ele>347.4</ele>
        <time>2024-04-28T06:35:07Z</time>
      </trkpt>
      <trkpt lat="46.04855" lon="1.30808">
        <ele>347.8</ele>
        <time>2024-04-28T06:35:13Z</time>
      </trkpt>
      <trkpt lat="46.04863" lon="1.3079">
        <ele>348</ele>
        <time>2024-04-28T06:35:20Z</time>
      </trkpt>
      <trkpt lat="46.04869" lon="1.30778">
        <ele>348.4</ele>
        <time>2024-04-28T06:35:25Z</time>
      </trkpt>
      <trkpt lat="46.04873" lon="1.30773">
        <ele>349</ele>
        <time>2024-04-28T06:35:27Z</time>
      </trkpt>
      <trkpt lat="46.04875" lon="1.30769">
        <ele>349.4</ele>
        <time>2024-04-28T06:35:29Z</time>
      </trkpt>
      <trkpt lat="46.04883" lon="1.30759">
        <ele>349.8</ele>
        <time>2024-04-28T06:35:34Z</time>
      </trkpt>
      <trkpt lat="46.04895" lon="1.3075">
        <ele>350</ele>
        <time>2024-04-28T06:35:40Z</time>
      </trkpt>
      <trkpt lat="46.049" lon="1.30746">
        <ele>350</ele>
        <time>2024-04-28T06:35:45Z</time>
      </trkpt>
      <trkpt lat="46.04902" lon="1.30745">
        <ele>350</ele>
        <time>2024-04-28T06:35:46Z</time>
      </trkpt>
      <trkpt lat="46.04909" lon="1.30737">
        <ele>350</ele>
        <time>2024-04-28T06:35:53Z</time>
      </trkpt>
      <trkpt lat="46.04912" lon="1.30734">
        <ele>350</ele>
        <time>2024-04-28T06:35:57Z</time>
      </trkpt>
      <trkpt lat="46.04928" lon="1.3072">
        <ele>350.8</ele>
        <time>2024-04-28T06:36:09Z</time>
      </trkpt>
      <trkpt lat="46.0493" lon="1.30718">
        <ele>351</ele>
        <time>2024-04-28T06:36:10Z</time>
      </trkpt>
      <trkpt lat="46.04936" lon="1.30709">
        <ele>351.8</ele>
        <time>2024-04-28T06:36:14Z</time>
      </trkpt>
      <trkpt lat="46.04941" lon="1.30703">
        <ele>352.4</ele>
        <time>2024-04-28T06:36:16Z</time>
      </trkpt>
      <trkpt lat="46.04949" lon="1.30699">
        <ele>352.6</ele>
        <time>2024-04-28T06:36:20Z</time>
      </trkpt>
      <trkpt lat="46.04951" lon="1.307">
        <ele>352.6</ele>
        <time>2024-04-28T06:36:21Z</time>
      </trkpt>
      <trkpt lat="46.04954" lon="1.30701">
        <ele>352.4</ele>
        <time>2024-04-28T06:36:23Z</time>
      </trkpt>
      <trkpt lat="46.04958" lon="1.3071">
        <ele>352.4</ele>
        <time>2024-04-28T06:36:26Z</time>
      </trkpt>
      <trkpt lat="46.04963" lon="1.30727">
        <ele>351.6</ele>
        <time>2024-04-28T06:36:31Z</time>
      </trkpt>
      <trkpt lat="46.04966" lon="1.3073">
        <ele>351.4</ele>
        <time>2024-04-28T06:36:33Z</time>
      </trkpt>
      <trkpt lat="46.04968" lon="1.30732">
        <ele>351</ele>
        <time>2024-04-28T06:36:36Z</time>
      </trkpt>
      <trkpt lat="46.0497" lon="1.30733">
        <ele>350.8</ele>
        <time>2024-04-28T06:36:38Z</time>
      </trkpt>
      <trkpt lat="46.04972" lon="1.30739">
        <ele>350.8</ele>
        <time>2024-04-28T06:36:44Z</time>
      </trkpt>
      <trkpt lat="46.0498" lon="1.30758">
        <ele>351</ele>
        <time>2024-04-28T06:36:55Z</time>
      </trkpt>
      <trkpt lat="46.04981" lon="1.30777">
        <ele>351.2</ele>
        <time>2024-04-28T06:37:00Z</time>
      </trkpt>
      <trkpt lat="46.04979" lon="1.30791">
        <ele>351</ele>
        <time>2024-04-28T06:37:03Z</time>
      </trkpt>
      <trkpt lat="46.04976" lon="1.30801">
        <ele>350.8</ele>
        <time>2024-04-28T06:37:05Z</time>
      </trkpt>
      <trkpt lat="46.04974" lon="1.30805">
        <ele>350.6</ele>
        <time>2024-04-28T06:37:06Z</time>
      </trkpt>
      <trkpt lat="46.04967" lon="1.30821">
        <ele>350</ele>
        <time>2024-04-28T06:37:09Z</time>
      </trkpt>
      <trkpt lat="46.04964" lon="1.30827">
        <ele>349.8</ele>
        <time>2024-04-28T06:37:10Z</time>
      </trkpt>
      <trkpt lat="46.04961" lon="1.30833">
        <ele>349.6</ele>
        <time>2024-04-28T06:37:11Z</time>
      </trkpt>
      <trkpt lat="46.0496" lon="1.30837">
        <ele>349</ele>
        <time>2024-04-28T06:37:12Z</time>
      </trkpt>
      <trkpt lat="46.0496" lon="1.30841">
        <ele>348.6</ele>
        <time>2024-04-28T06:37:13Z</time>
      </trkpt>
      <trkpt lat="46.04961" lon="1.30843">
        <ele>348.4</ele>
        <time>2024-04-28T06:37:14Z</time>
      </trkpt>
      <trkpt lat="46.04965" lon="1.30854">
        <ele>348.2</ele>
        <time>2024-04-28T06:37:18Z</time>
      </trkpt>
      <trkpt lat="46.04969" lon="1.30861">
        <ele>348</ele>
        <time>2024-04-28T06:37:20Z</time>
      </trkpt>
      <trkpt lat="46.04975" lon="1.30861">
        <ele>347.8</ele>
        <time>2024-04-28T06:37:22Z</time>
      </trkpt>
      <trkpt lat="46.04983" lon="1.30858">
        <ele>348</ele>
        <time>2024-04-28T06:37:25Z</time>
      </trkpt>
      <trkpt lat="46.04985" lon="1.30855">
        <ele>348</ele>
        <time>2024-04-28T06:37:26Z</time>
      </trkpt>
      <trkpt lat="46.04986" lon="1.30852">
        <ele>348</ele>
        <time>2024-04-28T06:37:27Z</time>
      </trkpt>
      <trkpt lat="46.04991" lon="1.30849">
        <ele>348.2</ele>
        <time>2024-04-28T06:37:29Z</time>
      </trkpt>
      <trkpt lat="46.04994" lon="1.30849">
        <ele>348.4</ele>
        <time>2024-04-28T06:37:30Z</time>
      </trkpt>
      <trkpt lat="46.04999" lon="1.30847">
        <ele>348.8</ele>
        <time>2024-04-28T06:37:32Z</time>
      </trkpt>
      <trkpt lat="46.05004" lon="1.30845">
        <ele>349</ele>
        <time>2024-04-28T06:37:34Z</time>
      </trkpt>
      <trkpt lat="46.05007" lon="1.30841">
        <ele>349</ele>
        <time>2024-04-28T06:37:36Z</time>
      </trkpt>
      <trkpt lat="46.05012" lon="1.30836">
        <ele>349</ele>
        <time>2024-04-28T06:37:39Z</time>
      </trkpt>
      <trkpt lat="46.05017" lon="1.30834">
        <ele>348.8</ele>
        <time>2024-04-28T06:37:41Z</time>
      </trkpt>
      <trkpt lat="46.05019" lon="1.30834">
        <ele>348.8</ele>
        <time>2024-04-28T06:37:42Z</time>
      </trkpt>
      <trkpt lat="46.05041" lon="1.30836">
        <ele>347.8</ele>
        <time>2024-04-28T06:37:50Z</time>
      </trkpt>
      <trkpt lat="46.05054" lon="1.30839">
        <ele>347.4</ele>
        <time>2024-04-28T06:37:56Z</time>
      </trkpt>
      <trkpt lat="46.05059" lon="1.30839">
        <ele>347.4</ele>
        <time>2024-04-28T06:38:01Z</time>
      </trkpt>
      <trkpt lat="46.05064" lon="1.30839">
        <ele>347.2</ele>
        <time>2024-04-28T06:38:07Z</time>
      </trkpt>
      <trkpt lat="46.05071" lon="1.30852">
        <ele>347.6</ele>
        <time>2024-04-28T06:38:16Z</time>
      </trkpt>
      <trkpt lat="46.05074" lon="1.30871">
        <ele>347.6</ele>
        <time>2024-04-28T06:38:22Z</time>
      </trkpt>
      <trkpt lat="46.05074" lon="1.30887">
        <ele>347.4</ele>
        <time>2024-04-28T06:38:26Z</time>
      </trkpt>
      <trkpt lat="46.05074" lon="1.30898">
        <ele>347.2</ele>
        <time>2024-04-28T06:38:29Z</time>
      </trkpt>
      <trkpt lat="46.05069" lon="1.30917">
        <ele>347.6</ele>
        <time>2024-04-28T06:38:35Z</time>
      </trkpt>
      <trkpt lat="46.05058" lon="1.30947">
        <ele>347.2</ele>
        <time>2024-04-28T06:38:42Z</time>
      </trkpt>
      <trkpt lat="46.05047" lon="1.30984">
        <ele>347.2</ele>
        <time>2024-04-28T06:38:49Z</time>
      </trkpt>
      <trkpt lat="46.05035" lon="1.31034">
        <ele>347.4</ele>
        <time>2024-04-28T06:38:57Z</time>
      </trkpt>
      <trkpt lat="46.05027" lon="1.31059">
        <ele>347.4</ele>
        <time>2024-04-28T06:39:02Z</time>
      </trkpt>
      <trkpt lat="46.05026" lon="1.31064">
        <ele>347.2</ele>
        <time>2024-04-28T06:39:03Z</time>
      </trkpt>
      <trkpt lat="46.05024" lon="1.3108">
        <ele>347.4</ele>
        <time>2024-04-28T06:39:06Z</time>
      </trkpt>
      <trkpt lat="46.05026" lon="1.31088">
        <ele>347.4</ele>
        <time>2024-04-28T06:39:08Z</time>
      </trkpt>
      <trkpt lat="46.0503" lon="1.31097">
        <ele>347.8</ele>
        <time>2024-04-28T06:39:11Z</time>
      </trkpt>
      <trkpt lat="46.05035" lon="1.31103">
        <ele>348</ele>
        <time>2024-04-28T06:39:13Z</time>
      </trkpt>
      <trkpt lat="46.05049" lon="1.31113">
        <ele>348.2</ele>
        <time>2024-04-28T06:39:18Z</time>
      </trkpt>
      <trkpt lat="46.05061" lon="1.31111">
        <ele>348.4</ele>
        <time>2024-04-28T06:39:22Z</time>
      </trkpt>
      <trkpt lat="46.05063" lon="1.3111">
        <ele>348.6</ele>
        <time>2024-04-28T06:39:23Z</time>
      </trkpt>
      <trkpt lat="46.0507" lon="1.31107">
        <ele>349.6</ele>
        <time>2024-04-28T06:39:28Z</time>
      </trkpt>
      <trkpt lat="46.05072" lon="1.31107">
        <ele>349.8</ele>
        <time>2024-04-28T06:39:29Z</time>
      </trkpt>
      <trkpt lat="46.0508" lon="1.31105">
        <ele>350.2</ele>
        <time>2024-04-28T06:39:37Z</time>
      </trkpt>
      <trkpt lat="46.05087" lon="1.31111">
        <ele>349.4</ele>
        <time>2024-04-28T06:39:47Z</time>
      </trkpt>
      <trkpt lat="46.05093" lon="1.31131">
        <ele>350</ele>
        <time>2024-04-28T06:39:54Z</time>
      </trkpt>
      <trkpt lat="46.05098" lon="1.31153">
        <ele>350.6</ele>
        <time>2024-04-28T06:40:00Z</time>
      </trkpt>
      <trkpt lat="46.05098" lon="1.31156">
        <ele>350.6</ele>
        <time>2024-04-28T06:40:01Z</time>
      </trkpt>
      <trkpt lat="46.05104" lon="1.31172">
        <ele>351.4</ele>
        <time>2024-04-28T06:40:06Z</time>
      </trkpt>
      <trkpt lat="46.05104" lon="1.31176">
        <ele>351.8</ele>
        <time>2024-04-28T06:40:07Z</time>
      </trkpt>
      <trkpt lat="46.05106" lon="1.31181">
        <ele>352.4</ele>
        <time>2024-04-28T06:40:09Z</time>
      </trkpt>
      <trkpt lat="46.05111" lon="1.31188">
        <ele>353</ele>
        <time>2024-04-28T06:40:12Z</time>
      </trkpt>
      <trkpt lat="46.05118" lon="1.31197">
        <ele>354.4</ele>
        <time>2024-04-28T06:40:17Z</time>
      </trkpt>
      <trkpt lat="46.05121" lon="1.312">
        <ele>355</ele>
        <time>2024-04-28T06:40:19Z</time>
      </trkpt>
      <trkpt lat="46.05121" lon="1.312">
        <ele>355.6</ele>
        <time>2024-04-28T06:40:21Z</time>
      </trkpt>
      <trkpt lat="46.0513" lon="1.31205">
        <ele>356.8</ele>
        <time>2024-04-28T06:40:24Z</time>
      </trkpt>
      <trkpt lat="46.05133" lon="1.31207">
        <ele>357.2</ele>
        <time>2024-04-28T06:40:26Z</time>
      </trkpt>
      <trkpt lat="46.0514" lon="1.3121">
        <ele>358</ele>
        <time>2024-04-28T06:40:30Z</time>
      </trkpt>
      <trkpt lat="46.05143" lon="1.31211">
        <ele>358.4</ele>
        <time>2024-04-28T06:40:32Z</time>
      </trkpt>
      <trkpt lat="46.05147" lon="1.31211">
        <ele>359</ele>
        <time>2024-04-28T06:40:35Z</time>
      </trkpt>
      <trkpt lat="46.05153" lon="1.31213">
        <ele>360</ele>
        <time>2024-04-28T06:40:40Z</time>
      </trkpt>
      <trkpt lat="46.05155" lon="1.31214">
        <ele>360.2</ele>
        <time>2024-04-28T06:40:41Z</time>
      </trkpt>
      <trkpt lat="46.05167" lon="1.31215">
        <ele>361.2</ele>
        <time>2024-04-28T06:40:46Z</time>
      </trkpt>
      <trkpt lat="46.05169" lon="1.31215">
        <ele>361.4</ele>
        <time>2024-04-28T06:40:47Z</time>
      </trkpt>
      <trkpt lat="46.05178" lon="1.31215">
        <ele>362.6</ele>
        <time>2024-04-28T06:40:52Z</time>
      </trkpt>
      <trkpt lat="46.05184" lon="1.31215">
        <ele>363.2</ele>
        <time>2024-04-28T06:40:56Z</time>
      </trkpt>
      <trkpt lat="46.05186" lon="1.31215">
        <ele>363.8</ele>
        <time>2024-04-28T06:40:58Z</time>
      </trkpt>
      <trkpt lat="46.05193" lon="1.31216">
        <ele>364.8</ele>
        <time>2024-04-28T06:41:03Z</time>
      </trkpt>
      <trkpt lat="46.05194" lon="1.31217">
        <ele>365</ele>
        <time>2024-04-28T06:41:04Z</time>
      </trkpt>
      <trkpt lat="46.05205" lon="1.31222">
        <ele>366.2</ele>
        <time>2024-04-28T06:41:11Z</time>
      </trkpt>
      <trkpt lat="46.05215" lon="1.31227">
        <ele>367.4</ele>
        <time>2024-04-28T06:41:17Z</time>
      </trkpt>
      <trkpt lat="46.05217" lon="1.31229">
        <ele>368</ele>
        <time>2024-04-28T06:41:19Z</time>
      </trkpt>
      <trkpt lat="46.05221" lon="1.31234">
        <ele>368.6</ele>
        <time>2024-04-28T06:41:23Z</time>
      </trkpt>
      <trkpt lat="46.05226" lon="1.31238">
        <ele>369.2</ele>
        <time>2024-04-28T06:41:27Z</time>
      </trkpt>
      <trkpt lat="46.0523" lon="1.31241">
        <ele>369.8</ele>
        <time>2024-04-28T06:41:31Z</time>
      </trkpt>
      <trkpt lat="46.05233" lon="1.31244">
        <ele>370.6</ele>
        <time>2024-04-28T06:41:34Z</time>
      </trkpt>
      <trkpt lat="46.05236" lon="1.31246">
        <ele>371</ele>
        <time>2024-04-28T06:41:36Z</time>
      </trkpt>
      <trkpt lat="46.05242" lon="1.31252">
        <ele>371.8</ele>
        <time>2024-04-28T06:41:42Z</time>
      </trkpt>
      <trkpt lat="46.05243" lon="1.31253">
        <ele>372</ele>
        <time>2024-04-28T06:41:43Z</time>
      </trkpt>
      <trkpt lat="46.05247" lon="1.31256">
        <ele>373.2</ele>
        <time>2024-04-28T06:41:46Z</time>
      </trkpt>
      <trkpt lat="46.05251" lon="1.3126">
        <ele>373.8</ele>
        <time>2024-04-28T06:41:49Z</time>
      </trkpt>
      <trkpt lat="46.05257" lon="1.31267">
        <ele>374.4</ele>
        <time>2024-04-28T06:41:55Z</time>
      </trkpt>
      <trkpt lat="46.05258" lon="1.31267">
        <ele>374.6</ele>
        <time>2024-04-28T06:41:56Z</time>
      </trkpt>
      <trkpt lat="46.05262" lon="1.31275">
        <ele>375.6</ele>
        <time>2024-04-28T06:42:01Z</time>
      </trkpt>
      <trkpt lat="46.05265" lon="1.31283">
        <ele>376</ele>
        <time>2024-04-28T06:42:05Z</time>
      </trkpt>
      <trkpt lat="46.05265" lon="1.31286">
        <ele>376.6</ele>
        <time>2024-04-28T06:42:07Z</time>
      </trkpt>
      <trkpt lat="46.05266" lon="1.313">
        <ele>377.6</ele>
        <time>2024-04-28T06:42:13Z</time>
      </trkpt>
      <trkpt lat="46.05266" lon="1.31303">
        <ele>377.8</ele>
        <time>2024-04-28T06:42:14Z</time>
      </trkpt>
      <trkpt lat="46.05267" lon="1.31319">
        <ele>378.6</ele>
        <time>2024-04-28T06:42:20Z</time>
      </trkpt>
      <trkpt lat="46.0527" lon="1.31326">
        <ele>378.8</ele>
        <time>2024-04-28T06:42:22Z</time>
      </trkpt>
      <trkpt lat="46.05276" lon="1.31335">
        <ele>379</ele>
        <time>2024-04-28T06:42:25Z</time>
      </trkpt>
      <trkpt lat="46.05278" lon="1.31354">
        <ele>379.2</ele>
        <time>2024-04-28T06:42:29Z</time>
      </trkpt>
      <trkpt lat="46.05278" lon="1.31385">
        <ele>379.4</ele>
        <time>2024-04-28T06:42:35Z</time>
      </trkpt>
      <trkpt lat="46.05281" lon="1.31394">
        <ele>379.4</ele>
        <time>2024-04-28T06:42:37Z</time>
      </trkpt>
      <trkpt lat="46.0529" lon="1.314">
        <ele>379</ele>
        <time>2024-04-28T06:42:39Z</time>
      </trkpt>
      <trkpt lat="46.05294" lon="1.31404">
        <ele>378.8</ele>
        <time>2024-04-28T06:42:40Z</time>
      </trkpt>
      <trkpt lat="46.05311" lon="1.31421">
        <ele>378.6</ele>
        <time>2024-04-28T06:42:44Z</time>
      </trkpt>
      <trkpt lat="46.05316" lon="1.31424">
        <ele>378.4</ele>
        <time>2024-04-28T06:42:45Z</time>
      </trkpt>
      <trkpt lat="46.05326" lon="1.31422">
        <ele>378.2</ele>
        <time>2024-04-28T06:42:47Z</time>
      </trkpt>
      <trkpt lat="46.05346" lon="1.31414">
        <ele>377.8</ele>
        <time>2024-04-28T06:42:50Z</time>
      </trkpt>
      <trkpt lat="46.0536" lon="1.31407">
        <ele>377.4</ele>
        <time>2024-04-28T06:42:52Z</time>
      </trkpt>
      <trkpt lat="46.05375" lon="1.31401">
        <ele>376.8</ele>
        <time>2024-04-28T06:42:54Z</time>
      </trkpt>
      <trkpt lat="46.05389" lon="1.31394">
        <ele>376.4</ele>
        <time>2024-04-28T06:42:56Z</time>
      </trkpt>
      <trkpt lat="46.05402" lon="1.31385">
        <ele>376.2</ele>
        <time>2024-04-28T06:42:58Z</time>
      </trkpt>
      <trkpt lat="46.05408" lon="1.31379">
        <ele>376.2</ele>
        <time>2024-04-28T06:42:59Z</time>
      </trkpt>
      <trkpt lat="46.0543" lon="1.31349">
        <ele>376</ele>
        <time>2024-04-28T06:43:04Z</time>
      </trkpt>
      <trkpt lat="46.05444" lon="1.31329">
        <ele>377.2</ele>
        <time>2024-04-28T06:43:08Z</time>
      </trkpt>
      <trkpt lat="46.05449" lon="1.31319">
        <ele>377.6</ele>
        <time>2024-04-28T06:43:10Z</time>
      </trkpt>
      <trkpt lat="46.0545" lon="1.31313">
        <ele>377.8</ele>
        <time>2024-04-28T06:43:11Z</time>
      </trkpt>
      <trkpt lat="46.0545" lon="1.31308">
        <ele>378</ele>
        <time>2024-04-28T06:43:12Z</time>
      </trkpt>
      <trkpt lat="46.0545" lon="1.31297">
        <ele>378.6</ele>
        <time>2024-04-28T06:43:14Z</time>
      </trkpt>
      <trkpt lat="46.05448" lon="1.31285">
        <ele>379</ele>
        <time>2024-04-28T06:43:16Z</time>
      </trkpt>
      <trkpt lat="46.05443" lon="1.31256">
        <ele>379.2</ele>
        <time>2024-04-28T06:43:20Z</time>
      </trkpt>
      <trkpt lat="46.05433" lon="1.31213">
        <ele>377.8</ele>
        <time>2024-04-28T06:43:26Z</time>
      </trkpt>
      <trkpt lat="46.05419" lon="1.31165">
        <ele>377</ele>
        <time>2024-04-28T06:43:32Z</time>
      </trkpt>
      <trkpt lat="46.05416" lon="1.31157">
        <ele>376.8</ele>
        <time>2024-04-28T06:43:33Z</time>
      </trkpt>
      <trkpt lat="46.05407" lon="1.31123">
        <ele>375.4</ele>
        <time>2024-04-28T06:43:37Z</time>
      </trkpt>
      <trkpt lat="46.05407" lon="1.31114">
        <ele>375.2</ele>
        <time>2024-04-28T06:43:38Z</time>
      </trkpt>
      <trkpt lat="46.05407" lon="1.31106">
        <ele>375</ele>
        <time>2024-04-28T06:43:39Z</time>
      </trkpt>
      <trkpt lat="46.05409" lon="1.31098">
        <ele>374.2</ele>
        <time>2024-04-28T06:43:40Z</time>
      </trkpt>
      <trkpt lat="46.05412" lon="1.3109">
        <ele>373.8</ele>
        <time>2024-04-28T06:43:41Z</time>
      </trkpt>
      <trkpt lat="46.05415" lon="1.31074">
        <ele>373</ele>
        <time>2024-04-28T06:43:43Z</time>
      </trkpt>
      <trkpt lat="46.05417" lon="1.31066">
        <ele>372.4</ele>
        <time>2024-04-28T06:43:44Z</time>
      </trkpt>
      <trkpt lat="46.05417" lon="1.31048">
        <ele>372</ele>
        <time>2024-04-28T06:43:46Z</time>
      </trkpt>
      <trkpt lat="46.05417" lon="1.31039">
        <ele>371.8</ele>
        <time>2024-04-28T06:43:47Z</time>
      </trkpt>
      <trkpt lat="46.0541" lon="1.31005">
        <ele>371.6</ele>
        <time>2024-04-28T06:43:51Z</time>
      </trkpt>
      <trkpt lat="46.054" lon="1.30973">
        <ele>370.8</ele>
        <time>2024-04-28T06:43:55Z</time>
      </trkpt>
      <trkpt lat="46.05397" lon="1.30958">
        <ele>369.8</ele>
        <time>2024-04-28T06:43:57Z</time>
      </trkpt>
      <trkpt lat="46.05395" lon="1.3095">
        <ele>369</ele>
        <time>2024-04-28T06:43:58Z</time>
      </trkpt>
      <trkpt lat="46.05393" lon="1.30935">
        <ele>367.8</ele>
        <time>2024-04-28T06:44:00Z</time>
      </trkpt>
      <trkpt lat="46.05392" lon="1.30921">
        <ele>367</ele>
        <time>2024-04-28T06:44:02Z</time>
      </trkpt>
      <trkpt lat="46.05392" lon="1.30915">
        <ele>366.6</ele>
        <time>2024-04-28T06:44:03Z</time>
      </trkpt>
      <trkpt lat="46.05393" lon="1.30886">
        <ele>365.4</ele>
        <time>2024-04-28T06:44:07Z</time>
      </trkpt>
      <trkpt lat="46.05395" lon="1.30817">
        <ele>364.2</ele>
        <time>2024-04-28T06:44:14Z</time>
      </trkpt>
      <trkpt lat="46.05403" lon="1.30763">
        <ele>363.4</ele>
        <time>2024-04-28T06:44:20Z</time>
      </trkpt>
      <trkpt lat="46.05408" lon="1.30739">
        <ele>363.2</ele>
        <time>2024-04-28T06:44:23Z</time>
      </trkpt>
      <trkpt lat="46.05414" lon="1.30724">
        <ele>363</ele>
        <time>2024-04-28T06:44:25Z</time>
      </trkpt>
      <trkpt lat="46.05431" lon="1.30682">
        <ele>363</ele>
        <time>2024-04-28T06:44:30Z</time>
      </trkpt>
      <trkpt lat="46.05443" lon="1.30637">
        <ele>362.8</ele>
        <time>2024-04-28T06:44:36Z</time>
      </trkpt>
      <trkpt lat="46.05449" lon="1.30622">
        <ele>362.2</ele>
        <time>2024-04-28T06:44:41Z</time>
      </trkpt>
      <trkpt lat="46.0545" lon="1.30621">
        <ele>362.2</ele>
        <time>2024-04-28T06:44:42Z</time>
      </trkpt>
      <trkpt lat="46.05454" lon="1.30609">
        <ele>361.8</ele>
        <time>2024-04-28T06:44:49Z</time>
      </trkpt>
      <trkpt lat="46.05461" lon="1.30595">
        <ele>362</ele>
        <time>2024-04-28T06:44:56Z</time>
      </trkpt>
      <trkpt lat="46.05468" lon="1.3058">
        <ele>361.6</ele>
        <time>2024-04-28T06:45:03Z</time>
      </trkpt>
      <trkpt lat="46.05474" lon="1.30571">
        <ele>361.6</ele>
        <time>2024-04-28T06:45:08Z</time>
      </trkpt>
      <trkpt lat="46.05478" lon="1.30561">
        <ele>362</ele>
        <time>2024-04-28T06:45:13Z</time>
      </trkpt>
      <trkpt lat="46.05482" lon="1.3054">
        <ele>362.4</ele>
        <time>2024-04-28T06:45:20Z</time>
      </trkpt>
      <trkpt lat="46.05485" lon="1.30512">
        <ele>363</ele>
        <time>2024-04-28T06:45:28Z</time>
      </trkpt>
      <trkpt lat="46.05485" lon="1.30508">
        <ele>363.2</ele>
        <time>2024-04-28T06:45:29Z</time>
      </trkpt>
      <trkpt lat="46.05485" lon="1.30486">
        <ele>364.2</ele>
        <time>2024-04-28T06:45:35Z</time>
      </trkpt>
      <trkpt lat="46.05485" lon="1.30482">
        <ele>364.2</ele>
        <time>2024-04-28T06:45:36Z</time>
      </trkpt>
      <trkpt lat="46.05486" lon="1.30469">
        <ele>365</ele>
        <time>2024-04-28T06:45:41Z</time>
      </trkpt>
      <trkpt lat="46.05486" lon="1.30466">
        <ele>365.4</ele>
        <time>2024-04-28T06:45:42Z</time>
      </trkpt>
      <trkpt lat="46.05486" lon="1.30451">
        <ele>366.6</ele>
        <time>2024-04-28T06:45:47Z</time>
      </trkpt>
      <trkpt lat="46.05486" lon="1.30434">
        <ele>367.6</ele>
        <time>2024-04-28T06:45:52Z</time>
      </trkpt>
      <trkpt lat="46.05487" lon="1.30428">
        <ele>367.8</ele>
        <time>2024-04-28T06:45:54Z</time>
      </trkpt>
      <trkpt lat="46.0549" lon="1.30412">
        <ele>368.6</ele>
        <time>2024-04-28T06:45:59Z</time>
      </trkpt>
      <trkpt lat="46.05491" lon="1.30404">
        <ele>369</ele>
        <time>2024-04-28T06:46:02Z</time>
      </trkpt>
      <trkpt lat="46.05493" lon="1.30387">
        <ele>369.6</ele>
        <time>2024-04-28T06:46:09Z</time>
      </trkpt>
      <trkpt lat="46.05493" lon="1.30384">
        <ele>369.8</ele>
        <time>2024-04-28T06:46:10Z</time>
      </trkpt>
      <trkpt lat="46.05495" lon="1.30365">
        <ele>371</ele>
        <time>2024-04-28T06:46:17Z</time>
      </trkpt>
      <trkpt lat="46.05496" lon="1.30352">
        <ele>372</ele>
        <time>2024-04-28T06:46:22Z</time>
      </trkpt>
      <trkpt lat="46.05496" lon="1.3035">
        <ele>372.2</ele>
        <time>2024-04-28T06:46:23Z</time>
      </trkpt>
      <trkpt lat="46.05497" lon="1.30344">
        <ele>373.2</ele>
        <time>2024-04-28T06:46:26Z</time>
      </trkpt>
      <trkpt lat="46.05498" lon="1.30334">
        <ele>374.2</ele>
        <time>2024-04-28T06:46:30Z</time>
      </trkpt>
      <trkpt lat="46.05499" lon="1.30318">
        <ele>375.2</ele>
        <time>2024-04-28T06:46:36Z</time>
      </trkpt>
      <trkpt lat="46.055" lon="1.30315">
        <ele>375.4</ele>
        <time>2024-04-28T06:46:37Z</time>
      </trkpt>
      <trkpt lat="46.05502" lon="1.303">
        <ele>376.4</ele>
        <time>2024-04-28T06:46:42Z</time>
      </trkpt>
      <trkpt lat="46.05502" lon="1.30296">
        <ele>376.6</ele>
        <time>2024-04-28T06:46:43Z</time>
      </trkpt>
      <trkpt lat="46.05506" lon="1.30278">
        <ele>377</ele>
        <time>2024-04-28T06:46:48Z</time>
      </trkpt>
      <trkpt lat="46.0551" lon="1.30273">
        <ele>377.4</ele>
        <time>2024-04-28T06:46:50Z</time>
      </trkpt>
      <trkpt lat="46.05518" lon="1.30267">
        <ele>377.6</ele>
        <time>2024-04-28T06:46:53Z</time>
      </trkpt>
      <trkpt lat="46.05542" lon="1.30254">
        <ele>378</ele>
        <time>2024-04-28T06:47:00Z</time>
      </trkpt>
      <trkpt lat="46.05558" lon="1.30239">
        <ele>378.2</ele>
        <time>2024-04-28T06:47:05Z</time>
      </trkpt>
      <trkpt lat="46.05562" lon="1.30229">
        <ele>378.6</ele>
        <time>2024-04-28T06:47:07Z</time>
      </trkpt>
      <trkpt lat="46.05567" lon="1.30212">
        <ele>378.6</ele>
        <time>2024-04-28T06:47:10Z</time>
      </trkpt>
      <trkpt lat="46.05569" lon="1.30206">
        <ele>378.8</ele>
        <time>2024-04-28T06:47:11Z</time>
      </trkpt>
      <trkpt lat="46.05582" lon="1.30169">
        <ele>379.2</ele>
        <time>2024-04-28T06:47:18Z</time>
      </trkpt>
      <trkpt lat="46.05592" lon="1.30163">
        <ele>379</ele>
        <time>2024-04-28T06:47:21Z</time>
      </trkpt>
      <trkpt lat="46.05615" lon="1.30156">
        <ele>379.8</ele>
        <time>2024-04-28T06:47:28Z</time>
      </trkpt>
      <trkpt lat="46.05618" lon="1.30155">
        <ele>379.8</ele>
        <time>2024-04-28T06:47:29Z</time>
      </trkpt>
      <trkpt lat="46.0563" lon="1.3015">
        <ele>380.6</ele>
        <time>2024-04-28T06:47:35Z</time>
      </trkpt>
      <trkpt lat="46.05638" lon="1.30139">
        <ele>380.8</ele>
        <time>2024-04-28T06:47:40Z</time>
      </trkpt>
      <trkpt lat="46.0564" lon="1.30134">
        <ele>381.4</ele>
        <time>2024-04-28T06:47:42Z</time>
      </trkpt>
      <trkpt lat="46.05641" lon="1.30128">
        <ele>381.8</ele>
        <time>2024-04-28T06:47:44Z</time>
      </trkpt>
      <trkpt lat="46.05641" lon="1.30113">
        <ele>383</ele>
        <time>2024-04-28T06:47:49Z</time>
      </trkpt>
      <trkpt lat="46.05641" lon="1.30094">
        <ele>383.8</ele>
        <time>2024-04-28T06:47:54Z</time>
      </trkpt>
      <trkpt lat="46.05642" lon="1.30086">
        <ele>384.2</ele>
        <time>2024-04-28T06:47:56Z</time>
      </trkpt>
      <trkpt lat="46.05645" lon="1.3007">
        <ele>385.2</ele>
        <time>2024-04-28T06:48:00Z</time>
      </trkpt>
      <trkpt lat="46.05646" lon="1.30066">
        <ele>385.4</ele>
        <time>2024-04-28T06:48:01Z</time>
      </trkpt>
      <trkpt lat="46.05651" lon="1.3003">
        <ele>386.2</ele>
        <time>2024-04-28T06:48:11Z</time>
      </trkpt>
      <trkpt lat="46.05653" lon="1.30013">
        <ele>386.4</ele>
        <time>2024-04-28T06:48:16Z</time>
      </trkpt>
      <trkpt lat="46.05654" lon="1.30003">
        <ele>386.8</ele>
        <time>2024-04-28T06:48:19Z</time>
      </trkpt>
      <trkpt lat="46.05657" lon="1.29985">
        <ele>387.6</ele>
        <time>2024-04-28T06:48:25Z</time>
      </trkpt>
      <trkpt lat="46.05659" lon="1.29975">
        <ele>388.2</ele>
        <time>2024-04-28T06:48:29Z</time>
      </trkpt>
      <trkpt lat="46.05659" lon="1.29969">
        <ele>388.6</ele>
        <time>2024-04-28T06:48:31Z</time>
      </trkpt>
      <trkpt lat="46.05664" lon="1.29956">
        <ele>389.8</ele>
        <time>2024-04-28T06:48:37Z</time>
      </trkpt>
      <trkpt lat="46.05667" lon="1.29955">
        <ele>390.4</ele>
        <time>2024-04-28T06:48:39Z</time>
      </trkpt>
      <trkpt lat="46.0567" lon="1.29959">
        <ele>390.8</ele>
        <time>2024-04-28T06:48:41Z</time>
      </trkpt>
      <trkpt lat="46.05671" lon="1.29962">
        <ele>390.8</ele>
        <time>2024-04-28T06:48:42Z</time>
      </trkpt>
      <trkpt lat="46.05678" lon="1.29976">
        <ele>391</ele>
        <time>2024-04-28T06:48:46Z</time>
      </trkpt>
      <trkpt lat="46.05702" lon="1.30006">
        <ele>391.6</ele>
        <time>2024-04-28T06:48:55Z</time>
      </trkpt>
      <trkpt lat="46.05709" lon="1.30013">
        <ele>391.8</ele>
        <time>2024-04-28T06:48:57Z</time>
      </trkpt>
      <trkpt lat="46.05725" lon="1.3003">
        <ele>392.4</ele>
        <time>2024-04-28T06:49:02Z</time>
      </trkpt>
      <trkpt lat="46.05728" lon="1.30034">
        <ele>392.6</ele>
        <time>2024-04-28T06:49:03Z</time>
      </trkpt>
      <trkpt lat="46.05739" lon="1.30043">
        <ele>392.6</ele>
        <time>2024-04-28T06:49:06Z</time>
      </trkpt>
      <trkpt lat="46.05743" lon="1.30044">
        <ele>392.6</ele>
        <time>2024-04-28T06:49:07Z</time>
      </trkpt>
      <trkpt lat="46.05747" lon="1.30042">
        <ele>392.6</ele>
        <time>2024-04-28T06:49:08Z</time>
      </trkpt>
      <trkpt lat="46.05755" lon="1.30038">
        <ele>392.8</ele>
        <time>2024-04-28T06:49:10Z</time>
      </trkpt>
      <trkpt lat="46.05763" lon="1.30033">
        <ele>393</ele>
        <time>2024-04-28T06:49:12Z</time>
      </trkpt>
      <trkpt lat="46.05776" lon="1.30025">
        <ele>393.4</ele>
        <time>2024-04-28T06:49:15Z</time>
      </trkpt>
      <trkpt lat="46.05785" lon="1.3002">
        <ele>393.4</ele>
        <time>2024-04-28T06:49:17Z</time>
      </trkpt>
      <trkpt lat="46.05799" lon="1.30011">
        <ele>393.2</ele>
        <time>2024-04-28T06:49:20Z</time>
      </trkpt>
      <trkpt lat="46.05831" lon="1.29991">
        <ele>393</ele>
        <time>2024-04-28T06:49:26Z</time>
      </trkpt>
      <trkpt lat="46.05864" lon="1.29972">
        <ele>392</ele>
        <time>2024-04-28T06:49:32Z</time>
      </trkpt>
      <trkpt lat="46.05874" lon="1.29968">
        <ele>391.4</ele>
        <time>2024-04-28T06:49:34Z</time>
      </trkpt>
      <trkpt lat="46.0588" lon="1.29967">
        <ele>390.8</ele>
        <time>2024-04-28T06:49:35Z</time>
      </trkpt>
      <trkpt lat="46.05891" lon="1.29963">
        <ele>389.8</ele>
        <time>2024-04-28T06:49:37Z</time>
      </trkpt>
      <trkpt lat="46.05896" lon="1.2996">
        <ele>389.4</ele>
        <time>2024-04-28T06:49:38Z</time>
      </trkpt>
      <trkpt lat="46.05902" lon="1.29955">
        <ele>389</ele>
        <time>2024-04-28T06:49:39Z</time>
      </trkpt>
      <trkpt lat="46.05912" lon="1.29945">
        <ele>388.4</ele>
        <time>2024-04-28T06:49:41Z</time>
      </trkpt>
      <trkpt lat="46.05918" lon="1.29941">
        <ele>387.8</ele>
        <time>2024-04-28T06:49:42Z</time>
      </trkpt>
      <trkpt lat="46.05923" lon="1.29939">
        <ele>386.8</ele>
        <time>2024-04-28T06:49:43Z</time>
      </trkpt>
      <trkpt lat="46.05928" lon="1.29939">
        <ele>385.8</ele>
        <time>2024-04-28T06:49:44Z</time>
      </trkpt>
      <trkpt lat="46.05932" lon="1.2994">
        <ele>385.2</ele>
        <time>2024-04-28T06:49:45Z</time>
      </trkpt>
      <trkpt lat="46.05936" lon="1.29943">
        <ele>384.8</ele>
        <time>2024-04-28T06:49:46Z</time>
      </trkpt>
      <trkpt lat="46.05949" lon="1.29957">
        <ele>384</ele>
        <time>2024-04-28T06:49:49Z</time>
      </trkpt>
      <trkpt lat="46.05974" lon="1.29986">
        <ele>383.6</ele>
        <time>2024-04-28T06:49:54Z</time>
      </trkpt>
      <trkpt lat="46.05985" lon="1.29989">
        <ele>383.4</ele>
        <time>2024-04-28T06:49:56Z</time>
      </trkpt>
      <trkpt lat="46.0599" lon="1.29988">
        <ele>383.4</ele>
        <time>2024-04-28T06:49:57Z</time>
      </trkpt>
      <trkpt lat="46.05994" lon="1.29985">
        <ele>383.2</ele>
        <time>2024-04-28T06:49:58Z</time>
      </trkpt>
      <trkpt lat="46.05999" lon="1.29981">
        <ele>382.8</ele>
        <time>2024-04-28T06:49:59Z</time>
      </trkpt>
      <trkpt lat="46.06009" lon="1.29971">
        <ele>382.4</ele>
        <time>2024-04-28T06:50:01Z</time>
      </trkpt>
      <trkpt lat="46.06038" lon="1.29927">
        <ele>382</ele>
        <time>2024-04-28T06:50:08Z</time>
      </trkpt>
      <trkpt lat="46.06042" lon="1.29919">
        <ele>381.6</ele>
        <time>2024-04-28T06:50:09Z</time>
      </trkpt>
      <trkpt lat="46.06058" lon="1.29886">
        <ele>381.6</ele>
        <time>2024-04-28T06:50:14Z</time>
      </trkpt>
      <trkpt lat="46.06063" lon="1.29871">
        <ele>381.6</ele>
        <time>2024-04-28T06:50:16Z</time>
      </trkpt>
      <trkpt lat="46.06071" lon="1.29837">
        <ele>381.4</ele>
        <time>2024-04-28T06:50:21Z</time>
      </trkpt>
      <trkpt lat="46.06078" lon="1.29785">
        <ele>381.4</ele>
        <time>2024-04-28T06:50:29Z</time>
      </trkpt>
      <trkpt lat="46.06091" lon="1.29741">
        <ele>380.8</ele>
        <time>2024-04-28T06:50:35Z</time>
      </trkpt>
      <trkpt lat="46.06106" lon="1.29691">
        <ele>380.6</ele>
        <time>2024-04-28T06:50:41Z</time>
      </trkpt>
      <trkpt lat="46.06108" lon="1.29682">
        <ele>380.4</ele>
        <time>2024-04-28T06:50:42Z</time>
      </trkpt>
      <trkpt lat="46.06117" lon="1.2965">
        <ele>379.8</ele>
        <time>2024-04-28T06:50:46Z</time>
      </trkpt>
      <trkpt lat="46.06118" lon="1.29642">
        <ele>379.8</ele>
        <time>2024-04-28T06:50:47Z</time>
      </trkpt>
      <trkpt lat="46.06119" lon="1.29634">
        <ele>379.8</ele>
        <time>2024-04-28T06:50:48Z</time>
      </trkpt>
      <trkpt lat="46.06121" lon="1.29618">
        <ele>379.6</ele>
        <time>2024-04-28T06:50:50Z</time>
      </trkpt>
      <trkpt lat="46.06122" lon="1.29603">
        <ele>379.4</ele>
        <time>2024-04-28T06:50:52Z</time>
      </trkpt>
      <trkpt lat="46.06123" lon="1.29589">
        <ele>379.2</ele>
        <time>2024-04-28T06:50:54Z</time>
      </trkpt>
      <trkpt lat="46.06127" lon="1.29549">
        <ele>379</ele>
        <time>2024-04-28T06:50:59Z</time>
      </trkpt>
      <trkpt lat="46.06132" lon="1.29505">
        <ele>379.2</ele>
        <time>2024-04-28T06:51:05Z</time>
      </trkpt>
      <trkpt lat="46.06135" lon="1.29456">
        <ele>379.2</ele>
        <time>2024-04-28T06:51:11Z</time>
      </trkpt>
      <trkpt lat="46.06136" lon="1.29448">
        <ele>379.2</ele>
        <time>2024-04-28T06:51:12Z</time>
      </trkpt>
      <trkpt lat="46.06144" lon="1.29368">
        <ele>378.8</ele>
        <time>2024-04-28T06:51:22Z</time>
      </trkpt>
      <trkpt lat="46.06149" lon="1.29342">
        <ele>378.4</ele>
        <time>2024-04-28T06:51:25Z</time>
      </trkpt>
      <trkpt lat="46.06156" lon="1.29317">
        <ele>378</ele>
        <time>2024-04-28T06:51:28Z</time>
      </trkpt>
      <trkpt lat="46.06177" lon="1.29268">
        <ele>377.2</ele>
        <time>2024-04-28T06:51:34Z</time>
      </trkpt>
      <trkpt lat="46.06207" lon="1.29205">
        <ele>376.6</ele>
        <time>2024-04-28T06:51:41Z</time>
      </trkpt>
      <trkpt lat="46.06216" lon="1.29187">
        <ele>376</ele>
        <time>2024-04-28T06:51:43Z</time>
      </trkpt>
      <trkpt lat="46.06238" lon="1.29136">
        <ele>375</ele>
        <time>2024-04-28T06:51:48Z</time>
      </trkpt>
      <trkpt lat="46.06241" lon="1.29126">
        <ele>374.6</ele>
        <time>2024-04-28T06:51:49Z</time>
      </trkpt>
      <trkpt lat="46.06256" lon="1.29075">
        <ele>373.8</ele>
        <time>2024-04-28T06:51:54Z</time>
      </trkpt>
      <trkpt lat="46.06266" lon="1.29022">
        <ele>373.8</ele>
        <time>2024-04-28T06:52:00Z</time>
      </trkpt>
      <trkpt lat="46.06273" lon="1.28985">
        <ele>374</ele>
        <time>2024-04-28T06:52:06Z</time>
      </trkpt>
      <trkpt lat="46.06281" lon="1.28947">
        <ele>374.4</ele>
        <time>2024-04-28T06:52:13Z</time>
      </trkpt>
      <trkpt lat="46.06287" lon="1.28906">
        <ele>374.6</ele>
        <time>2024-04-28T06:52:20Z</time>
      </trkpt>
      <trkpt lat="46.06287" lon="1.28859">
        <ele>374.2</ele>
        <time>2024-04-28T06:52:26Z</time>
      </trkpt>
      <trkpt lat="46.06287" lon="1.28826">
        <ele>372.8</ele>
        <time>2024-04-28T06:52:30Z</time>
      </trkpt>
      <trkpt lat="46.06288" lon="1.28799">
        <ele>372.4</ele>
        <time>2024-04-28T06:52:33Z</time>
      </trkpt>
      <trkpt lat="46.06289" lon="1.28763">
        <ele>371.6</ele>
        <time>2024-04-28T06:52:37Z</time>
      </trkpt>
      <trkpt lat="46.06292" lon="1.28731">
        <ele>371</ele>
        <time>2024-04-28T06:52:41Z</time>
      </trkpt>
      <trkpt lat="46.06296" lon="1.28699">
        <ele>370.6</ele>
        <time>2024-04-28T06:52:45Z</time>
      </trkpt>
      <trkpt lat="46.06296" lon="1.28666">
        <ele>370.6</ele>
        <time>2024-04-28T06:52:49Z</time>
      </trkpt>
      <trkpt lat="46.06296" lon="1.28659">
        <ele>370.4</ele>
        <time>2024-04-28T06:52:50Z</time>
      </trkpt>
      <trkpt lat="46.06293" lon="1.28623">
        <ele>370</ele>
        <time>2024-04-28T06:52:55Z</time>
      </trkpt>
      <trkpt lat="46.06298" lon="1.28565">
        <ele>369.8</ele>
        <time>2024-04-28T06:53:03Z</time>
      </trkpt>
      <trkpt lat="46.06299" lon="1.28551">
        <ele>369.8</ele>
        <time>2024-04-28T06:53:05Z</time>
      </trkpt>
      <trkpt lat="46.06299" lon="1.28536">
        <ele>369.8</ele>
        <time>2024-04-28T06:53:07Z</time>
      </trkpt>
      <trkpt lat="46.06299" lon="1.28528">
        <ele>369.8</ele>
        <time>2024-04-28T06:53:08Z</time>
      </trkpt>
      <trkpt lat="46.06299" lon="1.28514">
        <ele>369.6</ele>
        <time>2024-04-28T06:53:10Z</time>
      </trkpt>
      <trkpt lat="46.06298" lon="1.28502">
        <ele>369</ele>
        <time>2024-04-28T06:53:12Z</time>
      </trkpt>
      <trkpt lat="46.06297" lon="1.28496">
        <ele>368.6</ele>
        <time>2024-04-28T06:53:13Z</time>
      </trkpt>
      <trkpt lat="46.06295" lon="1.28491">
        <ele>368.6</ele>
        <time>2024-04-28T06:53:14Z</time>
      </trkpt>
      <trkpt lat="46.06288" lon="1.28469">
        <ele>368.4</ele>
        <time>2024-04-28T06:53:18Z</time>
      </trkpt>
      <trkpt lat="46.06271" lon="1.28444">
        <ele>368.2</ele>
        <time>2024-04-28T06:53:23Z</time>
      </trkpt>
      <trkpt lat="46.06254" lon="1.28419">
        <ele>367.4</ele>
        <time>2024-04-28T06:53:28Z</time>
      </trkpt>
      <trkpt lat="46.06243" lon="1.28403">
        <ele>367.2</ele>
        <time>2024-04-28T06:53:31Z</time>
      </trkpt>
      <trkpt lat="46.06227" lon="1.28373">
        <ele>367.6</ele>
        <time>2024-04-28T06:53:37Z</time>
      </trkpt>
      <trkpt lat="46.06209" lon="1.28323">
        <ele>367.2</ele>
        <time>2024-04-28T06:53:45Z</time>
      </trkpt>
      <trkpt lat="46.06189" lon="1.28274">
        <ele>367.6</ele>
        <time>2024-04-28T06:53:53Z</time>
      </trkpt>
      <trkpt lat="46.06187" lon="1.28268">
        <ele>367.8</ele>
        <time>2024-04-28T06:53:54Z</time>
      </trkpt>
      <trkpt lat="46.06174" lon="1.28234">
        <ele>368.4</ele>
        <time>2024-04-28T06:54:00Z</time>
      </trkpt>
      <trkpt lat="46.0617" lon="1.28223">
        <ele>368.8</ele>
        <time>2024-04-28T06:54:02Z</time>
      </trkpt>
      <trkpt lat="46.06157" lon="1.28188">
        <ele>369.2</ele>
        <time>2024-04-28T06:54:09Z</time>
      </trkpt>
      <trkpt lat="46.06151" lon="1.28174">
        <ele>369.4</ele>
        <time>2024-04-28T06:54:12Z</time>
      </trkpt>
      <trkpt lat="46.06145" lon="1.28159">
        <ele>369.8</ele>
        <time>2024-04-28T06:54:15Z</time>
      </trkpt>
      <trkpt lat="46.06142" lon="1.28155">
        <ele>369.8</ele>
        <time>2024-04-28T06:54:16Z</time>
      </trkpt>
      <trkpt lat="46.06123" lon="1.28133">
        <ele>369.6</ele>
        <time>2024-04-28T06:54:21Z</time>
      </trkpt>
      <trkpt lat="46.06114" lon="1.28124">
        <ele>369.4</ele>
        <time>2024-04-28T06:54:23Z</time>
      </trkpt>
      <trkpt lat="46.06106" lon="1.28115">
        <ele>369.2</ele>
        <time>2024-04-28T06:54:25Z</time>
      </trkpt>
      <trkpt lat="46.06097" lon="1.28107">
        <ele>368.8</ele>
        <time>2024-04-28T06:54:27Z</time>
      </trkpt>
      <trkpt lat="46.06093" lon="1.28102">
        <ele>368.6</ele>
        <time>2024-04-28T06:54:28Z</time>
      </trkpt>
      <trkpt lat="46.06067" lon="1.28074">
        <ele>368.2</ele>
        <time>2024-04-28T06:54:34Z</time>
      </trkpt>
      <trkpt lat="46.06052" lon="1.2806">
        <ele>367.4</ele>
        <time>2024-04-28T06:54:37Z</time>
      </trkpt>
      <trkpt lat="46.06036" lon="1.28049">
        <ele>367</ele>
        <time>2024-04-28T06:54:40Z</time>
      </trkpt>
      <trkpt lat="46.06018" lon="1.28033">
        <ele>366.6</ele>
        <time>2024-04-28T06:54:44Z</time>
      </trkpt>
      <trkpt lat="46.06015" lon="1.28029">
        <ele>366.4</ele>
        <time>2024-04-28T06:54:45Z</time>
      </trkpt>
      <trkpt lat="46.06013" lon="1.28024">
        <ele>366.2</ele>
        <time>2024-04-28T06:54:46Z</time>
      </trkpt>
      <trkpt lat="46.06014" lon="1.28013">
        <ele>365.8</ele>
        <time>2024-04-28T06:54:48Z</time>
      </trkpt>
      <trkpt lat="46.06016" lon="1.28008">
        <ele>364.4</ele>
        <time>2024-04-28T06:54:49Z</time>
      </trkpt>
      <trkpt lat="46.06019" lon="1.28002">
        <ele>363.8</ele>
        <time>2024-04-28T06:54:50Z</time>
      </trkpt>
      <trkpt lat="46.06023" lon="1.27997">
        <ele>363.2</ele>
        <time>2024-04-28T06:54:51Z</time>
      </trkpt>
      <trkpt lat="46.06027" lon="1.27992">
        <ele>363</ele>
        <time>2024-04-28T06:54:52Z</time>
      </trkpt>
      <trkpt lat="46.0604" lon="1.27974">
        <ele>362.2</ele>
        <time>2024-04-28T06:54:55Z</time>
      </trkpt>
      <trkpt lat="46.06047" lon="1.27964">
        <ele>361.8</ele>
        <time>2024-04-28T06:54:57Z</time>
      </trkpt>
      <trkpt lat="46.0605" lon="1.27961">
        <ele>361.6</ele>
        <time>2024-04-28T06:54:58Z</time>
      </trkpt>
      <trkpt lat="46.06061" lon="1.27953">
        <ele>361</ele>
        <time>2024-04-28T06:55:01Z</time>
      </trkpt>
      <trkpt lat="46.0608" lon="1.2794">
        <ele>360.6</ele>
        <time>2024-04-28T06:55:05Z</time>
      </trkpt>
      <trkpt lat="46.06085" lon="1.27937">
        <ele>360.4</ele>
        <time>2024-04-28T06:55:06Z</time>
      </trkpt>
      <trkpt lat="46.06095" lon="1.2793">
        <ele>360.4</ele>
        <time>2024-04-28T06:55:08Z</time>
      </trkpt>
      <trkpt lat="46.06107" lon="1.27924">
        <ele>360.2</ele>
        <time>2024-04-28T06:55:10Z</time>
      </trkpt>
      <trkpt lat="46.06132" lon="1.27914">
        <ele>359.8</ele>
        <time>2024-04-28T06:55:14Z</time>
      </trkpt>
      <trkpt lat="46.06157" lon="1.27901">
        <ele>358.8</ele>
        <time>2024-04-28T06:55:18Z</time>
      </trkpt>
      <trkpt lat="46.06175" lon="1.27891">
        <ele>357.6</ele>
        <time>2024-04-28T06:55:21Z</time>
      </trkpt>
      <trkpt lat="46.06185" lon="1.27884">
        <ele>357.2</ele>
        <time>2024-04-28T06:55:23Z</time>
      </trkpt>
      <trkpt lat="46.06195" lon="1.27875">
        <ele>356.6</ele>
        <time>2024-04-28T06:55:26Z</time>
      </trkpt>
      <trkpt lat="46.06208" lon="1.27854">
        <ele>356.2</ele>
        <time>2024-04-28T06:55:32Z</time>
      </trkpt>
      <trkpt lat="46.06216" lon="1.27826">
        <ele>356.8</ele>
        <time>2024-04-28T06:55:37Z</time>
      </trkpt>
      <trkpt lat="46.06222" lon="1.2779">
        <ele>356.6</ele>
        <time>2024-04-28T06:55:43Z</time>
      </trkpt>
      <trkpt lat="46.06222" lon="1.27784">
        <ele>356.6</ele>
        <time>2024-04-28T06:55:44Z</time>
      </trkpt>
      <trkpt lat="46.06222" lon="1.27777">
        <ele>356.6</ele>
        <time>2024-04-28T06:55:45Z</time>
      </trkpt>
      <trkpt lat="46.06225" lon="1.27714">
        <ele>357.2</ele>
        <time>2024-04-28T06:55:54Z</time>
      </trkpt>
      <trkpt lat="46.06225" lon="1.27676">
        <ele>357</ele>
        <time>2024-04-28T06:56:00Z</time>
      </trkpt>
      <trkpt lat="46.06225" lon="1.27671">
        <ele>357</ele>
        <time>2024-04-28T06:56:01Z</time>
      </trkpt>
      <trkpt lat="46.06226" lon="1.27652">
        <ele>356.2</ele>
        <time>2024-04-28T06:56:06Z</time>
      </trkpt>
      <trkpt lat="46.06226" lon="1.27632">
        <ele>356</ele>
        <time>2024-04-28T06:56:11Z</time>
      </trkpt>
      <trkpt lat="46.06227" lon="1.27611">
        <ele>356</ele>
        <time>2024-04-28T06:56:16Z</time>
      </trkpt>
      <trkpt lat="46.06233" lon="1.27588">
        <ele>356.6</ele>
        <time>2024-04-28T06:56:21Z</time>
      </trkpt>
      <trkpt lat="46.06247" lon="1.27556">
        <ele>356.8</ele>
        <time>2024-04-28T06:56:27Z</time>
      </trkpt>
      <trkpt lat="46.06255" lon="1.27532">
        <ele>357</ele>
        <time>2024-04-28T06:56:31Z</time>
      </trkpt>
      <trkpt lat="46.06259" lon="1.27514">
        <ele>357</ele>
        <time>2024-04-28T06:56:34Z</time>
      </trkpt>
      <trkpt lat="46.06264" lon="1.27491">
        <ele>357.6</ele>
        <time>2024-04-28T06:56:38Z</time>
      </trkpt>
      <trkpt lat="46.06267" lon="1.27474">
        <ele>357.8</ele>
        <time>2024-04-28T06:56:41Z</time>
      </trkpt>
      <trkpt lat="46.06267" lon="1.27442">
        <ele>358.2</ele>
        <time>2024-04-28T06:56:47Z</time>
      </trkpt>
      <trkpt lat="46.06266" lon="1.27412">
        <ele>358.6</ele>
        <time>2024-04-28T06:56:53Z</time>
      </trkpt>
      <trkpt lat="46.06265" lon="1.27407">
        <ele>358.8</ele>
        <time>2024-04-28T06:56:54Z</time>
      </trkpt>
      <trkpt lat="46.06261" lon="1.27387">
        <ele>359.6</ele>
        <time>2024-04-28T06:57:00Z</time>
      </trkpt>
      <trkpt lat="46.0626" lon="1.27385">
        <ele>359.8</ele>
        <time>2024-04-28T06:57:01Z</time>
      </trkpt>
      <trkpt lat="46.06258" lon="1.27374">
        <ele>361.2</ele>
        <time>2024-04-28T06:57:05Z</time>
      </trkpt>
      <trkpt lat="46.06256" lon="1.27369">
        <ele>362</ele>
        <time>2024-04-28T06:57:07Z</time>
      </trkpt>
      <trkpt lat="46.06256" lon="1.27367">
        <ele>362.4</ele>
        <time>2024-04-28T06:57:08Z</time>
      </trkpt>
      <trkpt lat="46.06256" lon="1.2736">
        <ele>363</ele>
        <time>2024-04-28T06:57:11Z</time>
      </trkpt>
      <trkpt lat="46.06256" lon="1.27358">
        <ele>363.4</ele>
        <time>2024-04-28T06:57:12Z</time>
      </trkpt>
      <trkpt lat="46.06256" lon="1.27354">
        <ele>363.6</ele>
        <time>2024-04-28T06:57:14Z</time>
      </trkpt>
      <trkpt lat="46.0626" lon="1.27338">
        <ele>364.8</ele>
        <time>2024-04-28T06:57:20Z</time>
      </trkpt>
      <trkpt lat="46.06261" lon="1.27335">
        <ele>365.2</ele>
        <time>2024-04-28T06:57:21Z</time>
      </trkpt>
      <trkpt lat="46.06265" lon="1.27328">
        <ele>366</ele>
        <time>2024-04-28T06:57:24Z</time>
      </trkpt>
      <trkpt lat="46.06269" lon="1.27318">
        <ele>366</ele>
        <time>2024-04-28T06:57:29Z</time>
      </trkpt>
      <trkpt lat="46.06273" lon="1.2731">
        <ele>367</ele>
        <time>2024-04-28T06:57:33Z</time>
      </trkpt>
      <trkpt lat="46.06275" lon="1.27304">
        <ele>367.8</ele>
        <time>2024-04-28T06:57:36Z</time>
      </trkpt>
      <trkpt lat="46.06277" lon="1.27298">
        <ele>368.2</ele>
        <time>2024-04-28T06:57:39Z</time>
      </trkpt>
      <trkpt lat="46.0628" lon="1.27292">
        <ele>368.6</ele>
        <time>2024-04-28T06:57:43Z</time>
      </trkpt>
      <trkpt lat="46.06285" lon="1.27284">
        <ele>369.4</ele>
        <time>2024-04-28T06:57:47Z</time>
      </trkpt>
      <trkpt lat="46.06288" lon="1.27277">
        <ele>369.8</ele>
        <time>2024-04-28T06:57:50Z</time>
      </trkpt>
      <trkpt lat="46.06292" lon="1.27271">
        <ele>370.4</ele>
        <time>2024-04-28T06:57:53Z</time>
      </trkpt>
      <trkpt lat="46.06295" lon="1.27261">
        <ele>371</ele>
        <time>2024-04-28T06:57:57Z</time>
      </trkpt>
      <trkpt lat="46.06297" lon="1.27252">
        <ele>371.6</ele>
        <time>2024-04-28T06:58:00Z</time>
      </trkpt>
      <trkpt lat="46.063" lon="1.27238">
        <ele>372.6</ele>
        <time>2024-04-28T06:58:05Z</time>
      </trkpt>
      <trkpt lat="46.06306" lon="1.27219">
        <ele>373</ele>
        <time>2024-04-28T06:58:11Z</time>
      </trkpt>
      <trkpt lat="46.06311" lon="1.272">
        <ele>373</ele>
        <time>2024-04-28T06:58:15Z</time>
      </trkpt>
      <trkpt lat="46.06312" lon="1.27195">
        <ele>373</ele>
        <time>2024-04-28T06:58:16Z</time>
      </trkpt>
      <trkpt lat="46.06313" lon="1.2719">
        <ele>373</ele>
        <time>2024-04-28T06:58:17Z</time>
      </trkpt>
      <trkpt lat="46.06317" lon="1.27173">
        <ele>373</ele>
        <time>2024-04-28T06:58:21Z</time>
      </trkpt>
      <trkpt lat="46.06317" lon="1.27168">
        <ele>373</ele>
        <time>2024-04-28T06:58:22Z</time>
      </trkpt>
      <trkpt lat="46.06317" lon="1.27162">
        <ele>372.6</ele>
        <time>2024-04-28T06:58:23Z</time>
      </trkpt>
      <trkpt lat="46.06318" lon="1.27149">
        <ele>372</ele>
        <time>2024-04-28T06:58:25Z</time>
      </trkpt>
      <trkpt lat="46.06317" lon="1.27135">
        <ele>371.8</ele>
        <time>2024-04-28T06:58:27Z</time>
      </trkpt>
      <trkpt lat="46.06315" lon="1.27122">
        <ele>371.4</ele>
        <time>2024-04-28T06:58:29Z</time>
      </trkpt>
      <trkpt lat="46.0631" lon="1.27084">
        <ele>370.4</ele>
        <time>2024-04-28T06:58:34Z</time>
      </trkpt>
      <trkpt lat="46.06309" lon="1.27075">
        <ele>370.4</ele>
        <time>2024-04-28T06:58:35Z</time>
      </trkpt>
      <trkpt lat="46.0631" lon="1.27068">
        <ele>370.4</ele>
        <time>2024-04-28T06:58:36Z</time>
      </trkpt>
      <trkpt lat="46.06312" lon="1.27056">
        <ele>370.4</ele>
        <time>2024-04-28T06:58:38Z</time>
      </trkpt>
      <trkpt lat="46.06314" lon="1.27043">
        <ele>370.4</ele>
        <time>2024-04-28T06:58:40Z</time>
      </trkpt>
      <trkpt lat="46.06317" lon="1.27021">
        <ele>370.8</ele>
        <time>2024-04-28T06:58:44Z</time>
      </trkpt>
      <trkpt lat="46.06319" lon="1.27004">
        <ele>371.8</ele>
        <time>2024-04-28T06:58:47Z</time>
      </trkpt>
      <trkpt lat="46.06325" lon="1.2699">
        <ele>372.4</ele>
        <time>2024-04-28T06:58:50Z</time>
      </trkpt>
      <trkpt lat="46.06329" lon="1.2698">
        <ele>373</ele>
        <time>2024-04-28T06:58:52Z</time>
      </trkpt>
      <trkpt lat="46.06345" lon="1.26962">
        <ele>373.8</ele>
        <time>2024-04-28T06:58:58Z</time>
      </trkpt>
      <trkpt lat="46.06356" lon="1.26957">
        <ele>374</ele>
        <time>2024-04-28T06:59:01Z</time>
      </trkpt>
      <trkpt lat="46.0636" lon="1.26956">
        <ele>374</ele>
        <time>2024-04-28T06:59:02Z</time>
      </trkpt>
      <trkpt lat="46.06389" lon="1.26954">
        <ele>373.4</ele>
        <time>2024-04-28T06:59:08Z</time>
      </trkpt>
      <trkpt lat="46.06395" lon="1.26956">
        <ele>373.2</ele>
        <time>2024-04-28T06:59:09Z</time>
      </trkpt>
      <trkpt lat="46.06401" lon="1.26958">
        <ele>373</ele>
        <time>2024-04-28T06:59:10Z</time>
      </trkpt>
      <trkpt lat="46.06406" lon="1.26962">
        <ele>372.8</ele>
        <time>2024-04-28T06:59:11Z</time>
      </trkpt>
      <trkpt lat="46.06413" lon="1.26967">
        <ele>372.4</ele>
        <time>2024-04-28T06:59:12Z</time>
      </trkpt>
      <trkpt lat="46.06426" lon="1.26978">
        <ele>371.8</ele>
        <time>2024-04-28T06:59:14Z</time>
      </trkpt>
      <trkpt lat="46.06434" lon="1.26982">
        <ele>371.4</ele>
        <time>2024-04-28T06:59:15Z</time>
      </trkpt>
      <trkpt lat="46.06443" lon="1.26985">
        <ele>371.2</ele>
        <time>2024-04-28T06:59:16Z</time>
      </trkpt>
      <trkpt lat="46.06452" lon="1.26985">
        <ele>370.6</ele>
        <time>2024-04-28T06:59:17Z</time>
      </trkpt>
      <trkpt lat="46.06472" lon="1.26983">
        <ele>369.6</ele>
        <time>2024-04-28T06:59:19Z</time>
      </trkpt>
      <trkpt lat="46.06504" lon="1.26975">
        <ele>367.4</ele>
        <time>2024-04-28T06:59:22Z</time>
      </trkpt>
      <trkpt lat="46.06515" lon="1.26972">
        <ele>366.4</ele>
        <time>2024-04-28T06:59:23Z</time>
      </trkpt>
      <trkpt lat="46.06527" lon="1.2697">
        <ele>365.6</ele>
        <time>2024-04-28T06:59:24Z</time>
      </trkpt>
      <trkpt lat="46.06538" lon="1.26967">
        <ele>364.8</ele>
        <time>2024-04-28T06:59:25Z</time>
      </trkpt>
      <trkpt lat="46.06559" lon="1.26962">
        <ele>363.4</ele>
        <time>2024-04-28T06:59:27Z</time>
      </trkpt>
      <trkpt lat="46.06581" lon="1.26956">
        <ele>362.2</ele>
        <time>2024-04-28T06:59:29Z</time>
      </trkpt>
      <trkpt lat="46.06592" lon="1.26954">
        <ele>361.4</ele>
        <time>2024-04-28T06:59:30Z</time>
      </trkpt>
      <trkpt lat="46.06602" lon="1.26951">
        <ele>361</ele>
        <time>2024-04-28T06:59:31Z</time>
      </trkpt>
      <trkpt lat="46.06628" lon="1.2694">
        <ele>359.2</ele>
        <time>2024-04-28T06:59:34Z</time>
      </trkpt>
      <trkpt lat="46.06634" lon="1.26938">
        <ele>358.4</ele>
        <time>2024-04-28T06:59:35Z</time>
      </trkpt>
      <trkpt lat="46.0664" lon="1.2694">
        <ele>357.4</ele>
        <time>2024-04-28T06:59:36Z</time>
      </trkpt>
      <trkpt lat="46.06644" lon="1.26943">
        <ele>355.6</ele>
        <time>2024-04-28T06:59:37Z</time>
      </trkpt>
      <trkpt lat="46.06654" lon="1.26949">
        <ele>355</ele>
        <time>2024-04-28T06:59:39Z</time>
      </trkpt>
      <trkpt lat="46.06659" lon="1.26955">
        <ele>354.4</ele>
        <time>2024-04-28T06:59:40Z</time>
      </trkpt>
      <trkpt lat="46.06664" lon="1.26963">
        <ele>353.6</ele>
        <time>2024-04-28T06:59:41Z</time>
      </trkpt>
      <trkpt lat="46.06669" lon="1.2697">
        <ele>353.2</ele>
        <time>2024-04-28T06:59:42Z</time>
      </trkpt>
      <trkpt lat="46.06681" lon="1.26984">
        <ele>352.4</ele>
        <time>2024-04-28T06:59:44Z</time>
      </trkpt>
      <trkpt lat="46.06686" lon="1.26994">
        <ele>351.6</ele>
        <time>2024-04-28T06:59:45Z</time>
      </trkpt>
      <trkpt lat="46.0669" lon="1.27005">
        <ele>350</ele>
        <time>2024-04-28T06:59:46Z</time>
      </trkpt>
      <trkpt lat="46.06693" lon="1.27018">
        <ele>348.6</ele>
        <time>2024-04-28T06:59:47Z</time>
      </trkpt>
      <trkpt lat="46.06696" lon="1.27032">
        <ele>348</ele>
        <time>2024-04-28T06:59:48Z</time>
      </trkpt>
      <trkpt lat="46.067" lon="1.27045">
        <ele>347.2</ele>
        <time>2024-04-28T06:59:49Z</time>
      </trkpt>
      <trkpt lat="46.06703" lon="1.27059">
        <ele>345.8</ele>
        <time>2024-04-28T06:59:50Z</time>
      </trkpt>
      <trkpt lat="46.06707" lon="1.27073">
        <ele>344.4</ele>
        <time>2024-04-28T06:59:51Z</time>
      </trkpt>
      <trkpt lat="46.06715" lon="1.27099">
        <ele>343</ele>
        <time>2024-04-28T06:59:53Z</time>
      </trkpt>
      <trkpt lat="46.06718" lon="1.2711">
        <ele>342.4</ele>
        <time>2024-04-28T06:59:54Z</time>
      </trkpt>
      <trkpt lat="46.06722" lon="1.27116">
        <ele>341.4</ele>
        <time>2024-04-28T06:59:55Z</time>
      </trkpt>
      <trkpt lat="46.06727" lon="1.27119">
        <ele>340.8</ele>
        <time>2024-04-28T06:59:56Z</time>
      </trkpt>
      <trkpt lat="46.0673" lon="1.27118">
        <ele>340.4</ele>
        <time>2024-04-28T06:59:57Z</time>
      </trkpt>
      <trkpt lat="46.06733" lon="1.27116">
        <ele>340.2</ele>
        <time>2024-04-28T06:59:58Z</time>
      </trkpt>
      <trkpt lat="46.06735" lon="1.27113">
        <ele>340.2</ele>
        <time>2024-04-28T06:59:59Z</time>
      </trkpt>
      <trkpt lat="46.06744" lon="1.27101">
        <ele>341.6</ele>
        <time>2024-04-28T07:00:03Z</time>
      </trkpt>
      <trkpt lat="46.0675" lon="1.27092">
        <ele>342.8</ele>
        <time>2024-04-28T07:00:06Z</time>
      </trkpt>
      <trkpt lat="46.06757" lon="1.27083">
        <ele>344</ele>
        <time>2024-04-28T07:00:09Z</time>
      </trkpt>
      <trkpt lat="46.0676" lon="1.2708">
        <ele>344.4</ele>
        <time>2024-04-28T07:00:10Z</time>
      </trkpt>
      <trkpt lat="46.06769" lon="1.27071">
        <ele>345</ele>
        <time>2024-04-28T07:00:13Z</time>
      </trkpt>
      <trkpt lat="46.06781" lon="1.27059">
        <ele>345.8</ele>
        <time>2024-04-28T07:00:17Z</time>
      </trkpt>
      <trkpt lat="46.06785" lon="1.27057">
        <ele>346.2</ele>
        <time>2024-04-28T07:00:18Z</time>
      </trkpt>
      <trkpt lat="46.06805" lon="1.2705">
        <ele>346.8</ele>
        <time>2024-04-28T07:00:23Z</time>
      </trkpt>
      <trkpt lat="46.06813" lon="1.27051">
        <ele>347.2</ele>
        <time>2024-04-28T07:00:25Z</time>
      </trkpt>
      <trkpt lat="46.0682" lon="1.27054">
        <ele>347.6</ele>
        <time>2024-04-28T07:00:27Z</time>
      </trkpt>
      <trkpt lat="46.06825" lon="1.27057">
        <ele>347.6</ele>
        <time>2024-04-28T07:00:29Z</time>
      </trkpt>
      <trkpt lat="46.06832" lon="1.2706">
        <ele>347.6</ele>
        <time>2024-04-28T07:00:31Z</time>
      </trkpt>
      <trkpt lat="46.06835" lon="1.27063">
        <ele>347.8</ele>
        <time>2024-04-28T07:00:32Z</time>
      </trkpt>
      <trkpt lat="46.06845" lon="1.27069">
        <ele>348.4</ele>
        <time>2024-04-28T07:00:35Z</time>
      </trkpt>
      <trkpt lat="46.06858" lon="1.27078">
        <ele>349</ele>
        <time>2024-04-28T07:00:39Z</time>
      </trkpt>
      <trkpt lat="46.06864" lon="1.27083">
        <ele>349.4</ele>
        <time>2024-04-28T07:00:41Z</time>
      </trkpt>
      <trkpt lat="46.0688" lon="1.27092">
        <ele>350.2</ele>
        <time>2024-04-28T07:00:46Z</time>
      </trkpt>
      <trkpt lat="46.06885" lon="1.27095">
        <ele>350.4</ele>
        <time>2024-04-28T07:00:48Z</time>
      </trkpt>
      <trkpt lat="46.06896" lon="1.27098">
        <ele>350.6</ele>
        <time>2024-04-28T07:00:51Z</time>
      </trkpt>
      <trkpt lat="46.06907" lon="1.27101">
        <ele>350.8</ele>
        <time>2024-04-28T07:00:54Z</time>
      </trkpt>
      <trkpt lat="46.06916" lon="1.27103">
        <ele>351</ele>
        <time>2024-04-28T07:00:56Z</time>
      </trkpt>
      <trkpt lat="46.0692" lon="1.27103">
        <ele>351.2</ele>
        <time>2024-04-28T07:00:57Z</time>
      </trkpt>
      <trkpt lat="46.06925" lon="1.27104">
        <ele>351.4</ele>
        <time>2024-04-28T07:00:58Z</time>
      </trkpt>
      <trkpt lat="46.06945" lon="1.27107">
        <ele>351.6</ele>
        <time>2024-04-28T07:01:02Z</time>
      </trkpt>
      <trkpt lat="46.06957" lon="1.27111">
        <ele>351.4</ele>
        <time>2024-04-28T07:01:05Z</time>
      </trkpt>
      <trkpt lat="46.06981" lon="1.27117">
        <ele>351.2</ele>
        <time>2024-04-28T07:01:10Z</time>
      </trkpt>
      <trkpt lat="46.06986" lon="1.27119">
        <ele>351.4</ele>
        <time>2024-04-28T07:01:11Z</time>
      </trkpt>
      <trkpt lat="46.07008" lon="1.27128">
        <ele>351.4</ele>
        <time>2024-04-28T07:01:15Z</time>
      </trkpt>
      <trkpt lat="46.07019" lon="1.27132">
        <ele>351.4</ele>
        <time>2024-04-28T07:01:17Z</time>
      </trkpt>
      <trkpt lat="46.07052" lon="1.27147">
        <ele>351.6</ele>
        <time>2024-04-28T07:01:23Z</time>
      </trkpt>
      <trkpt lat="46.07095" lon="1.27166">
        <ele>352</ele>
        <time>2024-04-28T07:01:30Z</time>
      </trkpt>
      <trkpt lat="46.07111" lon="1.27173">
        <ele>352.2</ele>
        <time>2024-04-28T07:01:33Z</time>
      </trkpt>
      <trkpt lat="46.07117" lon="1.27174">
        <ele>352.2</ele>
        <time>2024-04-28T07:01:34Z</time>
      </trkpt>
      <trkpt lat="46.07123" lon="1.27174">
        <ele>352.2</ele>
        <time>2024-04-28T07:01:35Z</time>
      </trkpt>
      <trkpt lat="46.07147" lon="1.2717">
        <ele>352.4</ele>
        <time>2024-04-28T07:01:39Z</time>
      </trkpt>
      <trkpt lat="46.07179" lon="1.2716">
        <ele>351.8</ele>
        <time>2024-04-28T07:01:44Z</time>
      </trkpt>
      <trkpt lat="46.07227" lon="1.27143">
        <ele>351.4</ele>
        <time>2024-04-28T07:01:51Z</time>
      </trkpt>
      <trkpt lat="46.07276" lon="1.27125">
        <ele>352.6</ele>
        <time>2024-04-28T07:01:59Z</time>
      </trkpt>
      <trkpt lat="46.07292" lon="1.27118">
        <ele>353.6</ele>
        <time>2024-04-28T07:02:03Z</time>
      </trkpt>
      <trkpt lat="46.07295" lon="1.27116">
        <ele>354</ele>
        <time>2024-04-28T07:02:04Z</time>
      </trkpt>
      <trkpt lat="46.07308" lon="1.27112">
        <ele>354.6</ele>
        <time>2024-04-28T07:02:08Z</time>
      </trkpt>
      <trkpt lat="46.07315" lon="1.27109">
        <ele>355.6</ele>
        <time>2024-04-28T07:02:10Z</time>
      </trkpt>
      <trkpt lat="46.07318" lon="1.27108">
        <ele>356</ele>
        <time>2024-04-28T07:02:11Z</time>
      </trkpt>
      <trkpt lat="46.07335" lon="1.27096">
        <ele>357.2</ele>
        <time>2024-04-28T07:02:17Z</time>
      </trkpt>
      <trkpt lat="46.0734" lon="1.27077">
        <ele>357.8</ele>
        <time>2024-04-28T07:02:21Z</time>
      </trkpt>
      <trkpt lat="46.07336" lon="1.27047">
        <ele>357.8</ele>
        <time>2024-04-28T07:02:26Z</time>
      </trkpt>
      <trkpt lat="46.07328" lon="1.27001">
        <ele>356.6</ele>
        <time>2024-04-28T07:02:32Z</time>
      </trkpt>
      <trkpt lat="46.07325" lon="1.26984">
        <ele>355.8</ele>
        <time>2024-04-28T07:02:34Z</time>
      </trkpt>
      <trkpt lat="46.07321" lon="1.26959">
        <ele>354.6</ele>
        <time>2024-04-28T07:02:37Z</time>
      </trkpt>
      <trkpt lat="46.0732" lon="1.26951">
        <ele>354.8</ele>
        <time>2024-04-28T07:02:38Z</time>
      </trkpt>
      <trkpt lat="46.07314" lon="1.26916">
        <ele>355.2</ele>
        <time>2024-04-28T07:02:43Z</time>
      </trkpt>
      <trkpt lat="46.0731" lon="1.26896">
        <ele>353.6</ele>
        <time>2024-04-28T07:02:46Z</time>
      </trkpt>
      <trkpt lat="46.07304" lon="1.2687">
        <ele>352.6</ele>
        <time>2024-04-28T07:02:50Z</time>
      </trkpt>
      <trkpt lat="46.07288" lon="1.26837">
        <ele>353.2</ele>
        <time>2024-04-28T07:02:55Z</time>
      </trkpt>
      <trkpt lat="46.07263" lon="1.26792">
        <ele>353.4</ele>
        <time>2024-04-28T07:03:02Z</time>
      </trkpt>
      <trkpt lat="46.07242" lon="1.26764">
        <ele>353</ele>
        <time>2024-04-28T07:03:08Z</time>
      </trkpt>
      <trkpt lat="46.0722" lon="1.26745">
        <ele>352.8</ele>
        <time>2024-04-28T07:03:13Z</time>
      </trkpt>
      <trkpt lat="46.0721" lon="1.26737">
        <ele>352.8</ele>
        <time>2024-04-28T07:03:15Z</time>
      </trkpt>
      <trkpt lat="46.072" lon="1.26729">
        <ele>352.6</ele>
        <time>2024-04-28T07:03:17Z</time>
      </trkpt>
      <trkpt lat="46.07195" lon="1.26723">
        <ele>352.4</ele>
        <time>2024-04-28T07:03:18Z</time>
      </trkpt>
      <trkpt lat="46.07191" lon="1.26718">
        <ele>352.2</ele>
        <time>2024-04-28T07:03:19Z</time>
      </trkpt>
      <trkpt lat="46.07186" lon="1.26704">
        <ele>352</ele>
        <time>2024-04-28T07:03:21Z</time>
      </trkpt>
      <trkpt lat="46.07185" lon="1.26697">
        <ele>352</ele>
        <time>2024-04-28T07:03:22Z</time>
      </trkpt>
      <trkpt lat="46.07185" lon="1.2668">
        <ele>351.6</ele>
        <time>2024-04-28T07:03:25Z</time>
      </trkpt>
      <trkpt lat="46.07186" lon="1.26673">
        <ele>351.4</ele>
        <time>2024-04-28T07:03:26Z</time>
      </trkpt>
      <trkpt lat="46.07188" lon="1.26659">
        <ele>351</ele>
        <time>2024-04-28T07:03:28Z</time>
      </trkpt>
      <trkpt lat="46.07191" lon="1.26643">
        <ele>350.2</ele>
        <time>2024-04-28T07:03:30Z</time>
      </trkpt>
      <trkpt lat="46.07195" lon="1.26616">
        <ele>349.2</ele>
        <time>2024-04-28T07:03:33Z</time>
      </trkpt>
      <trkpt lat="46.07196" lon="1.26607">
        <ele>348.8</ele>
        <time>2024-04-28T07:03:34Z</time>
      </trkpt>
      <trkpt lat="46.07196" lon="1.26598">
        <ele>348.6</ele>
        <time>2024-04-28T07:03:35Z</time>
      </trkpt>
      <trkpt lat="46.07198" lon="1.26584">
        <ele>348</ele>
        <time>2024-04-28T07:03:37Z</time>
      </trkpt>
      <trkpt lat="46.07202" lon="1.26563">
        <ele>347</ele>
        <time>2024-04-28T07:03:40Z</time>
      </trkpt>
      <trkpt lat="46.07213" lon="1.26513">
        <ele>346.2</ele>
        <time>2024-04-28T07:03:45Z</time>
      </trkpt>
      <trkpt lat="46.07218" lon="1.26481">
        <ele>345.8</ele>
        <time>2024-04-28T07:03:49Z</time>
      </trkpt>
      <trkpt lat="46.0722" lon="1.26468">
        <ele>345.6</ele>
        <time>2024-04-28T07:03:51Z</time>
      </trkpt>
      <trkpt lat="46.07224" lon="1.26437">
        <ele>344.6</ele>
        <time>2024-04-28T07:03:56Z</time>
      </trkpt>
      <trkpt lat="46.07226" lon="1.26406">
        <ele>343.8</ele>
        <time>2024-04-28T07:04:00Z</time>
      </trkpt>
      <trkpt lat="46.07227" lon="1.26397">
        <ele>343.4</ele>
        <time>2024-04-28T07:04:01Z</time>
      </trkpt>
      <trkpt lat="46.07234" lon="1.26349">
        <ele>342.2</ele>
        <time>2024-04-28T07:04:06Z</time>
      </trkpt>
      <trkpt lat="46.07237" lon="1.26329">
        <ele>342</ele>
        <time>2024-04-28T07:04:08Z</time>
      </trkpt>
      <trkpt lat="46.07247" lon="1.26267">
        <ele>341.4</ele>
        <time>2024-04-28T07:04:14Z</time>
      </trkpt>
      <trkpt lat="46.07253" lon="1.26228">
        <ele>341</ele>
        <time>2024-04-28T07:04:18Z</time>
      </trkpt>
      <trkpt lat="46.07257" lon="1.26211">
        <ele>340.2</ele>
        <time>2024-04-28T07:04:20Z</time>
      </trkpt>
      <trkpt lat="46.07259" lon="1.26202">
        <ele>339.8</ele>
        <time>2024-04-28T07:04:21Z</time>
      </trkpt>
      <trkpt lat="46.07259" lon="1.26193">
        <ele>339.4</ele>
        <time>2024-04-28T07:04:22Z</time>
      </trkpt>
      <trkpt lat="46.07261" lon="1.26175">
        <ele>338.2</ele>
        <time>2024-04-28T07:04:24Z</time>
      </trkpt>
      <trkpt lat="46.07262" lon="1.26167">
        <ele>337.8</ele>
        <time>2024-04-28T07:04:25Z</time>
      </trkpt>
      <trkpt lat="46.07263" lon="1.26144">
        <ele>337.2</ele>
        <time>2024-04-28T07:04:28Z</time>
      </trkpt>
      <trkpt lat="46.07263" lon="1.26138">
        <ele>336.6</ele>
        <time>2024-04-28T07:04:29Z</time>
      </trkpt>
      <trkpt lat="46.07264" lon="1.26133">
        <ele>336.2</ele>
        <time>2024-04-28T07:04:30Z</time>
      </trkpt>
      <trkpt lat="46.07265" lon="1.26121">
        <ele>335.2</ele>
        <time>2024-04-28T07:04:33Z</time>
      </trkpt>
      <trkpt lat="46.07265" lon="1.26116">
        <ele>334.6</ele>
        <time>2024-04-28T07:04:35Z</time>
      </trkpt>
      <trkpt lat="46.07266" lon="1.26112">
        <ele>334.2</ele>
        <time>2024-04-28T07:04:37Z</time>
      </trkpt>
      <trkpt lat="46.07266" lon="1.26111">
        <ele>334.2</ele>
        <time>2024-04-28T07:04:38Z</time>
      </trkpt>
      <trkpt lat="46.07266" lon="1.26105">
        <ele>333.8</ele>
        <time>2024-04-28T07:04:41Z</time>
      </trkpt>
      <trkpt lat="46.07266" lon="1.26103">
        <ele>333.8</ele>
        <time>2024-04-28T07:04:42Z</time>
      </trkpt>
      <trkpt lat="46.07267" lon="1.26094">
        <ele>333.4</ele>
        <time>2024-04-28T07:04:47Z</time>
      </trkpt>
      <trkpt lat="46.07268" lon="1.26089">
        <ele>333.2</ele>
        <time>2024-04-28T07:04:49Z</time>
      </trkpt>
      <trkpt lat="46.07269" lon="1.26076">
        <ele>333</ele>
        <time>2024-04-28T07:04:53Z</time>
      </trkpt>
      <trkpt lat="46.07271" lon="1.26052">
        <ele>332.6</ele>
        <time>2024-04-28T07:04:59Z</time>
      </trkpt>
      <trkpt lat="46.0728" lon="1.26021">
        <ele>332.2</ele>
        <time>2024-04-28T07:05:06Z</time>
      </trkpt>
      <trkpt lat="46.07286" lon="1.26006">
        <ele>331.6</ele>
        <time>2024-04-28T07:05:11Z</time>
      </trkpt>
      <trkpt lat="46.07293" lon="1.2599">
        <ele>331.8</ele>
        <time>2024-04-28T07:05:16Z</time>
      </trkpt>
      <trkpt lat="46.07306" lon="1.25956">
        <ele>331.8</ele>
        <time>2024-04-28T07:05:24Z</time>
      </trkpt>
      <trkpt lat="46.07316" lon="1.25927">
        <ele>332.8</ele>
        <time>2024-04-28T07:05:30Z</time>
      </trkpt>
      <trkpt lat="46.07328" lon="1.25901">
        <ele>333.2</ele>
        <time>2024-04-28T07:05:36Z</time>
      </trkpt>
      <trkpt lat="46.07332" lon="1.25893">
        <ele>333.4</ele>
        <time>2024-04-28T07:05:38Z</time>
      </trkpt>
      <trkpt lat="46.07341" lon="1.25869">
        <ele>334.6</ele>
        <time>2024-04-28T07:05:45Z</time>
      </trkpt>
      <trkpt lat="46.07345" lon="1.2586">
        <ele>335.6</ele>
        <time>2024-04-28T07:05:48Z</time>
      </trkpt>
      <trkpt lat="46.07352" lon="1.25846">
        <ele>336.8</ele>
        <time>2024-04-28T07:05:53Z</time>
      </trkpt>
      <trkpt lat="46.07361" lon="1.25825">
        <ele>337.4</ele>
        <time>2024-04-28T07:05:59Z</time>
      </trkpt>
      <trkpt lat="46.0737" lon="1.25798">
        <ele>337.4</ele>
        <time>2024-04-28T07:06:04Z</time>
      </trkpt>
      <trkpt lat="46.07381" lon="1.25744">
        <ele>337.4</ele>
        <time>2024-04-28T07:06:12Z</time>
      </trkpt>
      <trkpt lat="46.07386" lon="1.25707">
        <ele>337.4</ele>
        <time>2024-04-28T07:06:18Z</time>
      </trkpt>
      <trkpt lat="46.07392" lon="1.25663">
        <ele>337</ele>
        <time>2024-04-28T07:06:26Z</time>
      </trkpt>
      <trkpt lat="46.07395" lon="1.25637">
        <ele>337.8</ele>
        <time>2024-04-28T07:06:32Z</time>
      </trkpt>
      <trkpt lat="46.07396" lon="1.25633">
        <ele>337.8</ele>
        <time>2024-04-28T07:06:33Z</time>
      </trkpt>
      <trkpt lat="46.07396" lon="1.25593">
        <ele>338.6</ele>
        <time>2024-04-28T07:06:41Z</time>
      </trkpt>
      <trkpt lat="46.07396" lon="1.25588">
        <ele>339</ele>
        <time>2024-04-28T07:06:42Z</time>
      </trkpt>
      <trkpt lat="46.07394" lon="1.25551">
        <ele>338.8</ele>
        <time>2024-04-28T07:06:49Z</time>
      </trkpt>
      <trkpt lat="46.07392" lon="1.25502">
        <ele>338.8</ele>
        <time>2024-04-28T07:06:58Z</time>
      </trkpt>
      <trkpt lat="46.07391" lon="1.25484">
        <ele>339</ele>
        <time>2024-04-28T07:07:01Z</time>
      </trkpt>
      <trkpt lat="46.07392" lon="1.25468">
        <ele>338.8</ele>
        <time>2024-04-28T07:07:04Z</time>
      </trkpt>
      <trkpt lat="46.07395" lon="1.25442">
        <ele>338.6</ele>
        <time>2024-04-28T07:07:10Z</time>
      </trkpt>
      <trkpt lat="46.07399" lon="1.25414">
        <ele>338.8</ele>
        <time>2024-04-28T07:07:17Z</time>
      </trkpt>
      <trkpt lat="46.07399" lon="1.25391">
        <ele>339.2</ele>
        <time>2024-04-28T07:07:22Z</time>
      </trkpt>
      <trkpt lat="46.07401" lon="1.25362">
        <ele>339.2</ele>
        <time>2024-04-28T07:07:28Z</time>
      </trkpt>
      <trkpt lat="46.07407" lon="1.25332">
        <ele>339.6</ele>
        <time>2024-04-28T07:07:34Z</time>
      </trkpt>
      <trkpt lat="46.07411" lon="1.25309">
        <ele>339.2</ele>
        <time>2024-04-28T07:07:40Z</time>
      </trkpt>
      <trkpt lat="46.0741" lon="1.25289">
        <ele>339</ele>
        <time>2024-04-28T07:07:46Z</time>
      </trkpt>
      <trkpt lat="46.07409" lon="1.25272">
        <ele>339.2</ele>
        <time>2024-04-28T07:07:49Z</time>
      </trkpt>
      <trkpt lat="46.0741" lon="1.25261">
        <ele>339.2</ele>
        <time>2024-04-28T07:07:51Z</time>
      </trkpt>
      <trkpt lat="46.07413" lon="1.25224">
        <ele>338.4</ele>
        <time>2024-04-28T07:07:57Z</time>
      </trkpt>
      <trkpt lat="46.07413" lon="1.25211">
        <ele>338</ele>
        <time>2024-04-28T07:07:59Z</time>
      </trkpt>
      <trkpt lat="46.07414" lon="1.25197">
        <ele>337.6</ele>
        <time>2024-04-28T07:08:01Z</time>
      </trkpt>
      <trkpt lat="46.07415" lon="1.25184">
        <ele>337</ele>
        <time>2024-04-28T07:08:03Z</time>
      </trkpt>
      <trkpt lat="46.07417" lon="1.25177">
        <ele>336.6</ele>
        <time>2024-04-28T07:08:04Z</time>
      </trkpt>
      <trkpt lat="46.0742" lon="1.25169">
        <ele>336.2</ele>
        <time>2024-04-28T07:08:05Z</time>
      </trkpt>
      <trkpt lat="46.07428" lon="1.25146">
        <ele>336</ele>
        <time>2024-04-28T07:08:08Z</time>
      </trkpt>
      <trkpt lat="46.07431" lon="1.25137">
        <ele>335.4</ele>
        <time>2024-04-28T07:08:09Z</time>
      </trkpt>
      <trkpt lat="46.07441" lon="1.25116">
        <ele>334.4</ele>
        <time>2024-04-28T07:08:12Z</time>
      </trkpt>
      <trkpt lat="46.07448" lon="1.25101">
        <ele>333.6</ele>
        <time>2024-04-28T07:08:14Z</time>
      </trkpt>
      <trkpt lat="46.07452" lon="1.25091">
        <ele>333.2</ele>
        <time>2024-04-28T07:08:15Z</time>
      </trkpt>
      <trkpt lat="46.07461" lon="1.25075">
        <ele>331.4</ele>
        <time>2024-04-28T07:08:17Z</time>
      </trkpt>
      <trkpt lat="46.0747" lon="1.2506">
        <ele>329.8</ele>
        <time>2024-04-28T07:08:19Z</time>
      </trkpt>
      <trkpt lat="46.07473" lon="1.25054">
        <ele>328.8</ele>
        <time>2024-04-28T07:08:20Z</time>
      </trkpt>
      <trkpt lat="46.07476" lon="1.2505">
        <ele>328.2</ele>
        <time>2024-04-28T07:08:21Z</time>
      </trkpt>
      <trkpt lat="46.07478" lon="1.25042">
        <ele>327.2</ele>
        <time>2024-04-28T07:08:23Z</time>
      </trkpt>
      <trkpt lat="46.07479" lon="1.25038">
        <ele>326</ele>
        <time>2024-04-28T07:08:24Z</time>
      </trkpt>
      <trkpt lat="46.0748" lon="1.25029">
        <ele>324.8</ele>
        <time>2024-04-28T07:08:26Z</time>
      </trkpt>
      <trkpt lat="46.0748" lon="1.25019">
        <ele>324</ele>
        <time>2024-04-28T07:08:28Z</time>
      </trkpt>
      <trkpt lat="46.07479" lon="1.25015">
        <ele>323.6</ele>
        <time>2024-04-28T07:08:29Z</time>
      </trkpt>
      <trkpt lat="46.07478" lon="1.25008">
        <ele>323.4</ele>
        <time>2024-04-28T07:08:30Z</time>
      </trkpt>
      <trkpt lat="46.07474" lon="1.24997">
        <ele>322.2</ele>
        <time>2024-04-28T07:08:32Z</time>
      </trkpt>
      <trkpt lat="46.0747" lon="1.24992">
        <ele>321</ele>
        <time>2024-04-28T07:08:33Z</time>
      </trkpt>
      <trkpt lat="46.07463" lon="1.24982">
        <ele>320.2</ele>
        <time>2024-04-28T07:08:35Z</time>
      </trkpt>
      <trkpt lat="46.0746" lon="1.24976">
        <ele>319.8</ele>
        <time>2024-04-28T07:08:36Z</time>
      </trkpt>
      <trkpt lat="46.07457" lon="1.2497">
        <ele>319.2</ele>
        <time>2024-04-28T07:08:37Z</time>
      </trkpt>
      <trkpt lat="46.07456" lon="1.24961">
        <ele>318.8</ele>
        <time>2024-04-28T07:08:38Z</time>
      </trkpt>
      <trkpt lat="46.07455" lon="1.24938">
        <ele>317.8</ele>
        <time>2024-04-28T07:08:41Z</time>
      </trkpt>
      <trkpt lat="46.07454" lon="1.2493">
        <ele>317.8</ele>
        <time>2024-04-28T07:08:42Z</time>
      </trkpt>
      <trkpt lat="46.0745" lon="1.24908">
        <ele>316.4</ele>
        <time>2024-04-28T07:08:45Z</time>
      </trkpt>
      <trkpt lat="46.07449" lon="1.24901">
        <ele>315.2</ele>
        <time>2024-04-28T07:08:46Z</time>
      </trkpt>
      <trkpt lat="46.07448" lon="1.24894">
        <ele>314.4</ele>
        <time>2024-04-28T07:08:47Z</time>
      </trkpt>
      <trkpt lat="46.07446" lon="1.24888">
        <ele>313.8</ele>
        <time>2024-04-28T07:08:48Z</time>
      </trkpt>
      <trkpt lat="46.07443" lon="1.24878">
        <ele>312.4</ele>
        <time>2024-04-28T07:08:50Z</time>
      </trkpt>
      <trkpt lat="46.07442" lon="1.24871">
        <ele>312</ele>
        <time>2024-04-28T07:08:51Z</time>
      </trkpt>
      <trkpt lat="46.07438" lon="1.24859">
        <ele>311.4</ele>
        <time>2024-04-28T07:08:54Z</time>
      </trkpt>
      <trkpt lat="46.07435" lon="1.24846">
        <ele>310.8</ele>
        <time>2024-04-28T07:08:57Z</time>
      </trkpt>
      <trkpt lat="46.07433" lon="1.24833">
        <ele>310.2</ele>
        <time>2024-04-28T07:09:01Z</time>
      </trkpt>
      <trkpt lat="46.07431" lon="1.24827">
        <ele>310</ele>
        <time>2024-04-28T07:09:03Z</time>
      </trkpt>
      <trkpt lat="46.07428" lon="1.24821">
        <ele>309.8</ele>
        <time>2024-04-28T07:09:06Z</time>
      </trkpt>
      <trkpt lat="46.07422" lon="1.24806">
        <ele>309.8</ele>
        <time>2024-04-28T07:09:13Z</time>
      </trkpt>
      <trkpt lat="46.07419" lon="1.24795">
        <ele>310.2</ele>
        <time>2024-04-28T07:09:19Z</time>
      </trkpt>
      <trkpt lat="46.07418" lon="1.24789">
        <ele>310.2</ele>
        <time>2024-04-28T07:09:23Z</time>
      </trkpt>
      <trkpt lat="46.07415" lon="1.24767">
        <ele>310.4</ele>
        <time>2024-04-28T07:09:32Z</time>
      </trkpt>
      <trkpt lat="46.07408" lon="1.24747">
        <ele>311.4</ele>
        <time>2024-04-28T07:09:38Z</time>
      </trkpt>
      <trkpt lat="46.07391" lon="1.24722">
        <ele>312.2</ele>
        <time>2024-04-28T07:09:45Z</time>
      </trkpt>
      <trkpt lat="46.07372" lon="1.24695">
        <ele>312.2</ele>
        <time>2024-04-28T07:09:51Z</time>
      </trkpt>
      <trkpt lat="46.07355" lon="1.24672">
        <ele>312.4</ele>
        <time>2024-04-28T07:09:56Z</time>
      </trkpt>
      <trkpt lat="46.07341" lon="1.24656">
        <ele>312.6</ele>
        <time>2024-04-28T07:10:00Z</time>
      </trkpt>
      <trkpt lat="46.07337" lon="1.24652">
        <ele>312.8</ele>
        <time>2024-04-28T07:10:01Z</time>
      </trkpt>
      <trkpt lat="46.07318" lon="1.2463">
        <ele>312.8</ele>
        <time>2024-04-28T07:10:07Z</time>
      </trkpt>
      <trkpt lat="46.07289" lon="1.24604">
        <ele>313.2</ele>
        <time>2024-04-28T07:10:16Z</time>
      </trkpt>
      <trkpt lat="46.07285" lon="1.24602">
        <ele>313.4</ele>
        <time>2024-04-28T07:10:17Z</time>
      </trkpt>
      <trkpt lat="46.07264" lon="1.24595">
        <ele>314.4</ele>
        <time>2024-04-28T07:10:23Z</time>
      </trkpt>
      <trkpt lat="46.07257" lon="1.24594">
        <ele>314.6</ele>
        <time>2024-04-28T07:10:25Z</time>
      </trkpt>
      <trkpt lat="46.07233" lon="1.2459">
        <ele>315.4</ele>
        <time>2024-04-28T07:10:32Z</time>
      </trkpt>
      <trkpt lat="46.0723" lon="1.24589">
        <ele>315.6</ele>
        <time>2024-04-28T07:10:33Z</time>
      </trkpt>
      <trkpt lat="46.07212" lon="1.24586">
        <ele>316.8</ele>
        <time>2024-04-28T07:10:38Z</time>
      </trkpt>
      <trkpt lat="46.07203" lon="1.24584">
        <ele>317.4</ele>
        <time>2024-04-28T07:10:41Z</time>
      </trkpt>
      <trkpt lat="46.07188" lon="1.24578">
        <ele>318</ele>
        <time>2024-04-28T07:10:46Z</time>
      </trkpt>
      <trkpt lat="46.07178" lon="1.24574">
        <ele>318.8</ele>
        <time>2024-04-28T07:10:50Z</time>
      </trkpt>
      <trkpt lat="46.07175" lon="1.24573">
        <ele>319</ele>
        <time>2024-04-28T07:10:51Z</time>
      </trkpt>
      <trkpt lat="46.07158" lon="1.24569">
        <ele>320.2</ele>
        <time>2024-04-28T07:10:58Z</time>
      </trkpt>
      <trkpt lat="46.07153" lon="1.24569">
        <ele>320.6</ele>
        <time>2024-04-28T07:11:00Z</time>
      </trkpt>
      <trkpt lat="46.07148" lon="1.24569">
        <ele>321.2</ele>
        <time>2024-04-28T07:11:01Z</time>
      </trkpt>
      <trkpt lat="46.07136" lon="1.24568">
        <ele>322.4</ele>
        <time>2024-04-28T07:11:07Z</time>
      </trkpt>
      <trkpt lat="46.07134" lon="1.24568">
        <ele>322.4</ele>
        <time>2024-04-28T07:11:08Z</time>
      </trkpt>
      <trkpt lat="46.07117" lon="1.24568">
        <ele>323.4</ele>
        <time>2024-04-28T07:11:15Z</time>
      </trkpt>
      <trkpt lat="46.0711" lon="1.24568">
        <ele>324.2</ele>
        <time>2024-04-28T07:11:18Z</time>
      </trkpt>
      <trkpt lat="46.07105" lon="1.24568">
        <ele>324.6</ele>
        <time>2024-04-28T07:11:20Z</time>
      </trkpt>
      <trkpt lat="46.07094" lon="1.24573">
        <ele>325.2</ele>
        <time>2024-04-28T07:11:25Z</time>
      </trkpt>
      <trkpt lat="46.07092" lon="1.24592">
        <ele>325.6</ele>
        <time>2024-04-28T07:11:30Z</time>
      </trkpt>
      <trkpt lat="46.07096" lon="1.24624">
        <ele>326.6</ele>
        <time>2024-04-28T07:11:38Z</time>
      </trkpt>
      <trkpt lat="46.07097" lon="1.24628">
        <ele>326.8</ele>
        <time>2024-04-28T07:11:39Z</time>
      </trkpt>
      <trkpt lat="46.07098" lon="1.24653">
        <ele>327.4</ele>
        <time>2024-04-28T07:11:45Z</time>
      </trkpt>
      <trkpt lat="46.07098" lon="1.24661">
        <ele>327.8</ele>
        <time>2024-04-28T07:11:47Z</time>
      </trkpt>
      <trkpt lat="46.07098" lon="1.24679">
        <ele>328.2</ele>
        <time>2024-04-28T07:11:52Z</time>
      </trkpt>
      <trkpt lat="46.07097" lon="1.24702">
        <ele>328.6</ele>
        <time>2024-04-28T07:11:58Z</time>
      </trkpt>
      <trkpt lat="46.07097" lon="1.24711">
        <ele>328.8</ele>
        <time>2024-04-28T07:12:00Z</time>
      </trkpt>
      <trkpt lat="46.07101" lon="1.2473">
        <ele>328.4</ele>
        <time>2024-04-28T07:12:04Z</time>
      </trkpt>
      <trkpt lat="46.07106" lon="1.24744">
        <ele>327.6</ele>
        <time>2024-04-28T07:12:07Z</time>
      </trkpt>
      <trkpt lat="46.0711" lon="1.24752">
        <ele>327.4</ele>
        <time>2024-04-28T07:12:09Z</time>
      </trkpt>
      <trkpt lat="46.07117" lon="1.24775">
        <ele>326.8</ele>
        <time>2024-04-28T07:12:14Z</time>
      </trkpt>
      <trkpt lat="46.07125" lon="1.24789">
        <ele>326.4</ele>
        <time>2024-04-28T07:12:17Z</time>
      </trkpt>
      <trkpt lat="46.07131" lon="1.248">
        <ele>326.2</ele>
        <time>2024-04-28T07:12:19Z</time>
      </trkpt>
      <trkpt lat="46.07138" lon="1.24812">
        <ele>326</ele>
        <time>2024-04-28T07:12:21Z</time>
      </trkpt>
      <trkpt lat="46.07149" lon="1.24829">
        <ele>325.8</ele>
        <time>2024-04-28T07:12:24Z</time>
      </trkpt>
      <trkpt lat="46.0715" lon="1.24835">
        <ele>325.8</ele>
        <time>2024-04-28T07:12:25Z</time>
      </trkpt>
      <trkpt lat="46.07153" lon="1.2484">
        <ele>325.2</ele>
        <time>2024-04-28T07:12:26Z</time>
      </trkpt>
      <trkpt lat="46.07159" lon="1.24858">
        <ele>324.6</ele>
        <time>2024-04-28T07:12:30Z</time>
      </trkpt>
      <trkpt lat="46.07167" lon="1.24888">
        <ele>325</ele>
        <time>2024-04-28T07:12:36Z</time>
      </trkpt>
      <trkpt lat="46.07171" lon="1.24913">
        <ele>326</ele>
        <time>2024-04-28T07:12:42Z</time>
      </trkpt>
      <trkpt lat="46.07172" lon="1.24924">
        <ele>326.6</ele>
        <time>2024-04-28T07:12:46Z</time>
      </trkpt>
      <trkpt lat="46.07172" lon="1.24931">
        <ele>327.4</ele>
        <time>2024-04-28T07:12:49Z</time>
      </trkpt>
      <trkpt lat="46.07172" lon="1.24935">
        <ele>327.8</ele>
        <time>2024-04-28T07:12:51Z</time>
      </trkpt>
      <trkpt lat="46.07171" lon="1.24943">
        <ele>328.8</ele>
        <time>2024-04-28T07:12:55Z</time>
      </trkpt>
      <trkpt lat="46.07171" lon="1.24945">
        <ele>328.8</ele>
        <time>2024-04-28T07:12:56Z</time>
      </trkpt>
      <trkpt lat="46.07167" lon="1.24958">
        <ele>328.8</ele>
        <time>2024-04-28T07:13:00Z</time>
      </trkpt>
      <trkpt lat="46.07161" lon="1.24968">
        <ele>329.2</ele>
        <time>2024-04-28T07:13:03Z</time>
      </trkpt>
      <trkpt lat="46.07153" lon="1.24978">
        <ele>328.4</ele>
        <time>2024-04-28T07:13:06Z</time>
      </trkpt>
      <trkpt lat="46.07146" lon="1.24988">
        <ele>327.6</ele>
        <time>2024-04-28T07:13:09Z</time>
      </trkpt>
      <trkpt lat="46.07136" lon="1.25005">
        <ele>326.4</ele>
        <time>2024-04-28T07:13:13Z</time>
      </trkpt>
      <trkpt lat="46.07133" lon="1.2501">
        <ele>326</ele>
        <time>2024-04-28T07:13:14Z</time>
      </trkpt>
      <trkpt lat="46.07128" lon="1.25025">
        <ele>325.6</ele>
        <time>2024-04-28T07:13:16Z</time>
      </trkpt>
      <trkpt lat="46.07123" lon="1.25039">
        <ele>324.6</ele>
        <time>2024-04-28T07:13:18Z</time>
      </trkpt>
      <trkpt lat="46.07119" lon="1.25051">
        <ele>324</ele>
        <time>2024-04-28T07:13:20Z</time>
      </trkpt>
      <trkpt lat="46.07114" lon="1.25072">
        <ele>323.4</ele>
        <time>2024-04-28T07:13:23Z</time>
      </trkpt>
      <trkpt lat="46.0711" lon="1.25086">
        <ele>322.8</ele>
        <time>2024-04-28T07:13:25Z</time>
      </trkpt>
      <trkpt lat="46.07103" lon="1.25097">
        <ele>322.4</ele>
        <time>2024-04-28T07:13:27Z</time>
      </trkpt>
      <trkpt lat="46.07083" lon="1.25116">
        <ele>321.8</ele>
        <time>2024-04-28T07:13:32Z</time>
      </trkpt>
      <trkpt lat="46.07077" lon="1.25122">
        <ele>321.4</ele>
        <time>2024-04-28T07:13:34Z</time>
      </trkpt>
      <trkpt lat="46.07071" lon="1.25127">
        <ele>321.4</ele>
        <time>2024-04-28T07:13:36Z</time>
      </trkpt>
      <trkpt lat="46.07066" lon="1.25132">
        <ele>321.2</ele>
        <time>2024-04-28T07:13:39Z</time>
      </trkpt>
      <trkpt lat="46.07052" lon="1.25141">
        <ele>321</ele>
        <time>2024-04-28T07:13:45Z</time>
      </trkpt>
      <trkpt lat="46.07034" lon="1.25144">
        <ele>321.4</ele>
        <time>2024-04-28T07:13:51Z</time>
      </trkpt>
      <trkpt lat="46.07021" lon="1.2514">
        <ele>322</ele>
        <time>2024-04-28T07:13:56Z</time>
      </trkpt>
      <trkpt lat="46.07005" lon="1.25134">
        <ele>321.8</ele>
        <time>2024-04-28T07:14:02Z</time>
      </trkpt>
      <trkpt lat="46.06983" lon="1.25129">
        <ele>321.8</ele>
        <time>2024-04-28T07:14:10Z</time>
      </trkpt>
      <trkpt lat="46.06966" lon="1.25123">
        <ele>321.6</ele>
        <time>2024-04-28T07:14:17Z</time>
      </trkpt>
      <trkpt lat="46.06949" lon="1.25122">
        <ele>321.8</ele>
        <time>2024-04-28T07:14:23Z</time>
      </trkpt>
      <trkpt lat="46.06927" lon="1.25122">
        <ele>322.2</ele>
        <time>2024-04-28T07:14:29Z</time>
      </trkpt>
      <trkpt lat="46.06902" lon="1.25124">
        <ele>322</ele>
        <time>2024-04-28T07:14:36Z</time>
      </trkpt>
      <trkpt lat="46.06884" lon="1.25135">
        <ele>321.8</ele>
        <time>2024-04-28T07:14:42Z</time>
      </trkpt>
      <trkpt lat="46.06868" lon="1.2515">
        <ele>322.4</ele>
        <time>2024-04-28T07:14:48Z</time>
      </trkpt>
      <trkpt lat="46.0685" lon="1.25169">
        <ele>323</ele>
        <time>2024-04-28T07:14:55Z</time>
      </trkpt>
      <trkpt lat="46.06843" lon="1.2518">
        <ele>323.6</ele>
        <time>2024-04-28T07:14:58Z</time>
      </trkpt>
      <trkpt lat="46.06836" lon="1.25191">
        <ele>323.8</ele>
        <time>2024-04-28T07:15:02Z</time>
      </trkpt>
      <trkpt lat="46.06828" lon="1.25212">
        <ele>324.8</ele>
        <time>2024-04-28T07:15:10Z</time>
      </trkpt>
      <trkpt lat="46.06823" lon="1.25236">
        <ele>325.2</ele>
        <time>2024-04-28T07:15:15Z</time>
      </trkpt>
      <trkpt lat="46.06819" lon="1.25251">
        <ele>325</ele>
        <time>2024-04-28T07:15:17Z</time>
      </trkpt>
      <trkpt lat="46.06815" lon="1.25261">
        <ele>324.8</ele>
        <time>2024-04-28T07:15:19Z</time>
      </trkpt>
      <trkpt lat="46.06814" lon="1.25268">
        <ele>324.8</ele>
        <time>2024-04-28T07:15:20Z</time>
      </trkpt>
      <trkpt lat="46.06809" lon="1.25287">
        <ele>325.2</ele>
        <time>2024-04-28T07:15:24Z</time>
      </trkpt>
      <trkpt lat="46.06805" lon="1.25304">
        <ele>326</ele>
        <time>2024-04-28T07:15:28Z</time>
      </trkpt>
      <trkpt lat="46.06803" lon="1.25323">
        <ele>326.6</ele>
        <time>2024-04-28T07:15:32Z</time>
      </trkpt>
      <trkpt lat="46.06801" lon="1.25332">
        <ele>327</ele>
        <time>2024-04-28T07:15:34Z</time>
      </trkpt>
      <trkpt lat="46.06798" lon="1.25359">
        <ele>328</ele>
        <time>2024-04-28T07:15:40Z</time>
      </trkpt>
      <trkpt lat="46.06797" lon="1.25364">
        <ele>328.4</ele>
        <time>2024-04-28T07:15:41Z</time>
      </trkpt>
      <trkpt lat="46.06795" lon="1.25379">
        <ele>329</ele>
        <time>2024-04-28T07:15:44Z</time>
      </trkpt>
      <trkpt lat="46.06793" lon="1.25409">
        <ele>330.2</ele>
        <time>2024-04-28T07:15:50Z</time>
      </trkpt>
      <trkpt lat="46.06786" lon="1.25432">
        <ele>330.4</ele>
        <time>2024-04-28T07:15:55Z</time>
      </trkpt>
      <trkpt lat="46.06776" lon="1.25438">
        <ele>331.2</ele>
        <time>2024-04-28T07:15:59Z</time>
      </trkpt>
      <trkpt lat="46.06773" lon="1.25438">
        <ele>331.4</ele>
        <time>2024-04-28T07:16:00Z</time>
      </trkpt>
      <trkpt lat="46.06765" lon="1.25436">
        <ele>332.4</ele>
        <time>2024-04-28T07:16:03Z</time>
      </trkpt>
      <trkpt lat="46.06756" lon="1.25431">
        <ele>333.2</ele>
        <time>2024-04-28T07:16:07Z</time>
      </trkpt>
      <trkpt lat="46.06754" lon="1.25429">
        <ele>333.6</ele>
        <time>2024-04-28T07:16:08Z</time>
      </trkpt>
      <trkpt lat="46.06744" lon="1.25416">
        <ele>334.6</ele>
        <time>2024-04-28T07:16:14Z</time>
      </trkpt>
      <trkpt lat="46.06743" lon="1.25414">
        <ele>334.8</ele>
        <time>2024-04-28T07:16:15Z</time>
      </trkpt>
      <trkpt lat="46.06738" lon="1.25405">
        <ele>335.8</ele>
        <time>2024-04-28T07:16:19Z</time>
      </trkpt>
      <trkpt lat="46.06732" lon="1.25394">
        <ele>337</ele>
        <time>2024-04-28T07:16:24Z</time>
      </trkpt>
      <trkpt lat="46.06731" lon="1.25392">
        <ele>337.4</ele>
        <time>2024-04-28T07:16:25Z</time>
      </trkpt>
      <trkpt lat="46.06728" lon="1.25386">
        <ele>338.2</ele>
        <time>2024-04-28T07:16:28Z</time>
      </trkpt>
      <trkpt lat="46.06723" lon="1.25375">
        <ele>339.2</ele>
        <time>2024-04-28T07:16:33Z</time>
      </trkpt>
      <trkpt lat="46.06722" lon="1.25373">
        <ele>339.6</ele>
        <time>2024-04-28T07:16:34Z</time>
      </trkpt>
      <trkpt lat="46.0672" lon="1.2536">
        <ele>340.6</ele>
        <time>2024-04-28T07:16:39Z</time>
      </trkpt>
      <trkpt lat="46.06719" lon="1.25357">
        <ele>340.8</ele>
        <time>2024-04-28T07:16:40Z</time>
      </trkpt>
      <trkpt lat="46.06719" lon="1.25342">
        <ele>341.6</ele>
        <time>2024-04-28T07:16:45Z</time>
      </trkpt>
      <trkpt lat="46.0672" lon="1.25331">
        <ele>342.4</ele>
        <time>2024-04-28T07:16:48Z</time>
      </trkpt>
      <trkpt lat="46.0672" lon="1.25325">
        <ele>342.8</ele>
        <time>2024-04-28T07:16:50Z</time>
      </trkpt>
      <trkpt lat="46.06722" lon="1.25305">
        <ele>343.4</ele>
        <time>2024-04-28T07:16:56Z</time>
      </trkpt>
      <trkpt lat="46.06723" lon="1.25296">
        <ele>344.2</ele>
        <time>2024-04-28T07:17:00Z</time>
      </trkpt>
      <trkpt lat="46.06721" lon="1.25286">
        <ele>344.8</ele>
        <time>2024-04-28T07:17:04Z</time>
      </trkpt>
      <trkpt lat="46.06718" lon="1.25276">
        <ele>345.2</ele>
        <time>2024-04-28T07:17:08Z</time>
      </trkpt>
      <trkpt lat="46.06715" lon="1.25267">
        <ele>346</ele>
        <time>2024-04-28T07:17:11Z</time>
      </trkpt>
      <trkpt lat="46.06715" lon="1.25261">
        <ele>346.4</ele>
        <time>2024-04-28T07:17:13Z</time>
      </trkpt>
      <trkpt lat="46.06713" lon="1.25251">
        <ele>347.4</ele>
        <time>2024-04-28T07:17:17Z</time>
      </trkpt>
      <trkpt lat="46.06712" lon="1.25248">
        <ele>347.8</ele>
        <time>2024-04-28T07:17:18Z</time>
      </trkpt>
      <trkpt lat="46.0671" lon="1.25242">
        <ele>348.6</ele>
        <time>2024-04-28T07:17:21Z</time>
      </trkpt>
      <trkpt lat="46.06708" lon="1.25227">
        <ele>349.6</ele>
        <time>2024-04-28T07:17:26Z</time>
      </trkpt>
      <trkpt lat="46.06708" lon="1.25223">
        <ele>349.8</ele>
        <time>2024-04-28T07:17:27Z</time>
      </trkpt>
      <trkpt lat="46.06704" lon="1.25205">
        <ele>350.8</ele>
        <time>2024-04-28T07:17:33Z</time>
      </trkpt>
      <trkpt lat="46.06703" lon="1.25186">
        <ele>351</ele>
        <time>2024-04-28T07:17:38Z</time>
      </trkpt>
      <trkpt lat="46.06698" lon="1.25161">
        <ele>350.2</ele>
        <time>2024-04-28T07:17:44Z</time>
      </trkpt>
      <trkpt lat="46.06697" lon="1.25156">
        <ele>349.6</ele>
        <time>2024-04-28T07:17:45Z</time>
      </trkpt>
      <trkpt lat="46.06694" lon="1.25139">
        <ele>348.4</ele>
        <time>2024-04-28T07:17:48Z</time>
      </trkpt>
      <trkpt lat="46.0669" lon="1.25126">
        <ele>348</ele>
        <time>2024-04-28T07:17:50Z</time>
      </trkpt>
      <trkpt lat="46.06687" lon="1.25109">
        <ele>347.8</ele>
        <time>2024-04-28T07:17:52Z</time>
      </trkpt>
      <trkpt lat="46.06686" lon="1.25088">
        <ele>347.2</ele>
        <time>2024-04-28T07:17:54Z</time>
      </trkpt>
      <trkpt lat="46.06684" lon="1.25031">
        <ele>346</ele>
        <time>2024-04-28T07:17:59Z</time>
      </trkpt>
      <trkpt lat="46.06684" lon="1.25023">
        <ele>346</ele>
        <time>2024-04-28T07:18:00Z</time>
      </trkpt>
      <trkpt lat="46.06684" lon="1.25006">
        <ele>345.8</ele>
        <time>2024-04-28T07:18:02Z</time>
      </trkpt>
      <trkpt lat="46.06682" lon="1.24994">
        <ele>345.6</ele>
        <time>2024-04-28T07:18:04Z</time>
      </trkpt>
      <trkpt lat="46.0668" lon="1.24988">
        <ele>345.6</ele>
        <time>2024-04-28T07:18:05Z</time>
      </trkpt>
      <trkpt lat="46.06677" lon="1.24984">
        <ele>345.6</ele>
        <time>2024-04-28T07:18:06Z</time>
      </trkpt>
      <trkpt lat="46.06666" lon="1.24974">
        <ele>345.6</ele>
        <time>2024-04-28T07:18:09Z</time>
      </trkpt>
      <trkpt lat="46.06658" lon="1.24967">
        <ele>345.6</ele>
        <time>2024-04-28T07:18:11Z</time>
      </trkpt>
      <trkpt lat="46.06646" lon="1.24959">
        <ele>345.4</ele>
        <time>2024-04-28T07:18:14Z</time>
      </trkpt>
      <trkpt lat="46.06622" lon="1.24942">
        <ele>345.2</ele>
        <time>2024-04-28T07:18:20Z</time>
      </trkpt>
      <trkpt lat="46.06611" lon="1.24932">
        <ele>345.8</ele>
        <time>2024-04-28T07:18:23Z</time>
      </trkpt>
      <trkpt lat="46.06603" lon="1.24928">
        <ele>346.2</ele>
        <time>2024-04-28T07:18:25Z</time>
      </trkpt>
      <trkpt lat="46.06599" lon="1.24926">
        <ele>346.2</ele>
        <time>2024-04-28T07:18:26Z</time>
      </trkpt>
      <trkpt lat="46.06591" lon="1.24923">
        <ele>346.4</ele>
        <time>2024-04-28T07:18:28Z</time>
      </trkpt>
      <trkpt lat="46.06569" lon="1.24919">
        <ele>347</ele>
        <time>2024-04-28T07:18:33Z</time>
      </trkpt>
      <trkpt lat="46.06565" lon="1.24918">
        <ele>347.2</ele>
        <time>2024-04-28T07:18:34Z</time>
      </trkpt>
      <trkpt lat="46.06551" lon="1.24916">
        <ele>347.6</ele>
        <time>2024-04-28T07:18:38Z</time>
      </trkpt>
      <trkpt lat="46.0654" lon="1.24912">
        <ele>348.4</ele>
        <time>2024-04-28T07:18:42Z</time>
      </trkpt>
      <trkpt lat="46.06531" lon="1.2491">
        <ele>349.2</ele>
        <time>2024-04-28T07:18:45Z</time>
      </trkpt>
      <trkpt lat="46.06529" lon="1.24909">
        <ele>349.4</ele>
        <time>2024-04-28T07:18:46Z</time>
      </trkpt>
      <trkpt lat="46.0652" lon="1.24903">
        <ele>349.6</ele>
        <time>2024-04-28T07:18:50Z</time>
      </trkpt>
      <trkpt lat="46.06502" lon="1.24889">
        <ele>350.6</ele>
        <time>2024-04-28T07:18:56Z</time>
      </trkpt>
      <trkpt lat="46.06499" lon="1.24887">
        <ele>351</ele>
        <time>2024-04-28T07:18:57Z</time>
      </trkpt>
      <trkpt lat="46.06476" lon="1.2487">
        <ele>351.4</ele>
        <time>2024-04-28T07:19:05Z</time>
      </trkpt>
      <trkpt lat="46.06449" lon="1.24853">
        <ele>351.6</ele>
        <time>2024-04-28T07:19:12Z</time>
      </trkpt>
      <trkpt lat="46.06444" lon="1.24846">
        <ele>351.6</ele>
        <time>2024-04-28T07:19:14Z</time>
      </trkpt>
      <trkpt lat="46.06432" lon="1.24826">
        <ele>352.6</ele>
        <time>2024-04-28T07:19:20Z</time>
      </trkpt>
      <trkpt lat="46.0643" lon="1.24823">
        <ele>353.2</ele>
        <time>2024-04-28T07:19:21Z</time>
      </trkpt>
      <trkpt lat="46.06425" lon="1.24807">
        <ele>353.8</ele>
        <time>2024-04-28T07:19:27Z</time>
      </trkpt>
      <trkpt lat="46.06416" lon="1.24798">
        <ele>354.4</ele>
        <time>2024-04-28T07:19:31Z</time>
      </trkpt>
      <trkpt lat="46.06413" lon="1.24796">
        <ele>354.4</ele>
        <time>2024-04-28T07:19:32Z</time>
      </trkpt>
      <trkpt lat="46.06394" lon="1.24777">
        <ele>354.6</ele>
        <time>2024-04-28T07:19:38Z</time>
      </trkpt>
      <trkpt lat="46.06369" lon="1.2475">
        <ele>354.4</ele>
        <time>2024-04-28T07:19:46Z</time>
      </trkpt>
      <trkpt lat="46.06344" lon="1.24722">
        <ele>355.2</ele>
        <time>2024-04-28T07:19:54Z</time>
      </trkpt>
      <trkpt lat="46.06341" lon="1.24719">
        <ele>355.4</ele>
        <time>2024-04-28T07:19:55Z</time>
      </trkpt>
      <trkpt lat="46.06325" lon="1.24702">
        <ele>355.8</ele>
        <time>2024-04-28T07:20:01Z</time>
      </trkpt>
      <trkpt lat="46.06319" lon="1.24681">
        <ele>356.4</ele>
        <time>2024-04-28T07:20:06Z</time>
      </trkpt>
      <trkpt lat="46.0632" lon="1.24657">
        <ele>356.6</ele>
        <time>2024-04-28T07:20:12Z</time>
      </trkpt>
      <trkpt lat="46.06316" lon="1.24632">
        <ele>357</ele>
        <time>2024-04-28T07:20:18Z</time>
      </trkpt>
      <trkpt lat="46.06307" lon="1.24607">
        <ele>357.4</ele>
        <time>2024-04-28T07:20:25Z</time>
      </trkpt>
      <trkpt lat="46.06305" lon="1.24604">
        <ele>357.6</ele>
        <time>2024-04-28T07:20:26Z</time>
      </trkpt>
      <trkpt lat="46.06291" lon="1.24585">
        <ele>358.6</ele>
        <time>2024-04-28T07:20:33Z</time>
      </trkpt>
      <trkpt lat="46.06287" lon="1.24578">
        <ele>359</ele>
        <time>2024-04-28T07:20:35Z</time>
      </trkpt>
      <trkpt lat="46.06278" lon="1.24559">
        <ele>359.8</ele>
        <time>2024-04-28T07:20:41Z</time>
      </trkpt>
      <trkpt lat="46.06278" lon="1.24556">
        <ele>359.8</ele>
        <time>2024-04-28T07:20:42Z</time>
      </trkpt>
      <trkpt lat="46.06275" lon="1.24535">
        <ele>360.6</ele>
        <time>2024-04-28T07:20:48Z</time>
      </trkpt>
      <trkpt lat="46.06275" lon="1.24527">
        <ele>360.8</ele>
        <time>2024-04-28T07:20:50Z</time>
      </trkpt>
      <trkpt lat="46.06275" lon="1.24513">
        <ele>361.4</ele>
        <time>2024-04-28T07:20:54Z</time>
      </trkpt>
      <trkpt lat="46.06275" lon="1.24501">
        <ele>361.8</ele>
        <time>2024-04-28T07:20:57Z</time>
      </trkpt>
      <trkpt lat="46.06273" lon="1.24484">
        <ele>362.4</ele>
        <time>2024-04-28T07:21:01Z</time>
      </trkpt>
      <trkpt lat="46.06269" lon="1.24454">
        <ele>362.6</ele>
        <time>2024-04-28T07:21:08Z</time>
      </trkpt>
      <trkpt lat="46.06267" lon="1.24445">
        <ele>363</ele>
        <time>2024-04-28T07:21:10Z</time>
      </trkpt>
      <trkpt lat="46.06263" lon="1.2442">
        <ele>363.2</ele>
        <time>2024-04-28T07:21:15Z</time>
      </trkpt>
      <trkpt lat="46.06258" lon="1.24383">
        <ele>363.4</ele>
        <time>2024-04-28T07:21:23Z</time>
      </trkpt>
      <trkpt lat="46.06253" lon="1.2436">
        <ele>363.2</ele>
        <time>2024-04-28T07:21:28Z</time>
      </trkpt>
      <trkpt lat="46.06239" lon="1.24346">
        <ele>363.4</ele>
        <time>2024-04-28T07:21:33Z</time>
      </trkpt>
      <trkpt lat="46.06218" lon="1.2433">
        <ele>364</ele>
        <time>2024-04-28T07:21:39Z</time>
      </trkpt>
      <trkpt lat="46.06209" lon="1.24319">
        <ele>363.8</ele>
        <time>2024-04-28T07:21:43Z</time>
      </trkpt>
      <trkpt lat="46.06209" lon="1.24316">
        <ele>363.6</ele>
        <time>2024-04-28T07:21:44Z</time>
      </trkpt>
      <trkpt lat="46.06213" lon="1.24291">
        <ele>363.8</ele>
        <time>2024-04-28T07:21:49Z</time>
      </trkpt>
      <trkpt lat="46.0622" lon="1.24252">
        <ele>365</ele>
        <time>2024-04-28T07:21:56Z</time>
      </trkpt>
      <trkpt lat="46.0622" lon="1.24244">
        <ele>365.2</ele>
        <time>2024-04-28T07:21:57Z</time>
      </trkpt>
      <trkpt lat="46.06217" lon="1.24217">
        <ele>365.2</ele>
        <time>2024-04-28T07:22:01Z</time>
      </trkpt>
      <trkpt lat="46.06212" lon="1.24198">
        <ele>365.2</ele>
        <time>2024-04-28T07:22:04Z</time>
      </trkpt>
      <trkpt lat="46.06204" lon="1.2418">
        <ele>365.2</ele>
        <time>2024-04-28T07:22:07Z</time>
      </trkpt>
      <trkpt lat="46.06178" lon="1.24137">
        <ele>365.6</ele>
        <time>2024-04-28T07:22:15Z</time>
      </trkpt>
      <trkpt lat="46.06152" lon="1.24103">
        <ele>366.2</ele>
        <time>2024-04-28T07:22:22Z</time>
      </trkpt>
      <trkpt lat="46.06122" lon="1.24069">
        <ele>366.6</ele>
        <time>2024-04-28T07:22:30Z</time>
      </trkpt>
      <trkpt lat="46.06106" lon="1.24051">
        <ele>366.4</ele>
        <time>2024-04-28T07:22:34Z</time>
      </trkpt>
      <trkpt lat="46.06094" lon="1.24038">
        <ele>366.4</ele>
        <time>2024-04-28T07:22:37Z</time>
      </trkpt>
      <trkpt lat="46.06091" lon="1.24034">
        <ele>366.6</ele>
        <time>2024-04-28T07:22:38Z</time>
      </trkpt>
      <trkpt lat="46.06079" lon="1.24008">
        <ele>366.6</ele>
        <time>2024-04-28T07:22:42Z</time>
      </trkpt>
      <trkpt lat="46.0607" lon="1.23967">
        <ele>366.8</ele>
        <time>2024-04-28T07:22:48Z</time>
      </trkpt>
      <trkpt lat="46.06061" lon="1.23912">
        <ele>367</ele>
        <time>2024-04-28T07:22:56Z</time>
      </trkpt>
      <trkpt lat="46.06058" lon="1.23898">
        <ele>367.2</ele>
        <time>2024-04-28T07:22:58Z</time>
      </trkpt>
      <trkpt lat="46.06052" lon="1.23859">
        <ele>367.8</ele>
        <time>2024-04-28T07:23:03Z</time>
      </trkpt>
      <trkpt lat="46.06049" lon="1.23845">
        <ele>368</ele>
        <time>2024-04-28T07:23:05Z</time>
      </trkpt>
      <trkpt lat="46.06041" lon="1.23818">
        <ele>368.4</ele>
        <time>2024-04-28T07:23:09Z</time>
      </trkpt>
      <trkpt lat="46.06025" lon="1.23764">
        <ele>368.4</ele>
        <time>2024-04-28T07:23:18Z</time>
      </trkpt>
      <trkpt lat="46.06009" lon="1.2372">
        <ele>369</ele>
        <time>2024-04-28T07:23:27Z</time>
      </trkpt>
      <trkpt lat="46.06003" lon="1.23692">
        <ele>369.4</ele>
        <time>2024-04-28T07:23:33Z</time>
      </trkpt>
      <trkpt lat="46.05999" lon="1.23669">
        <ele>370.6</ele>
        <time>2024-04-28T07:23:39Z</time>
      </trkpt>
      <trkpt lat="46.05988" lon="1.23647">
        <ele>371.8</ele>
        <time>2024-04-28T07:23:45Z</time>
      </trkpt>
      <trkpt lat="46.05975" lon="1.23624">
        <ele>372.6</ele>
        <time>2024-04-28T07:23:51Z</time>
      </trkpt>
      <trkpt lat="46.05966" lon="1.23615">
        <ele>373</ele>
        <time>2024-04-28T07:23:55Z</time>
      </trkpt>
      <trkpt lat="46.05959" lon="1.2361">
        <ele>373</ele>
        <time>2024-04-28T07:23:58Z</time>
      </trkpt>
      <trkpt lat="46.05947" lon="1.23597">
        <ele>373.6</ele>
        <time>2024-04-28T07:24:05Z</time>
      </trkpt>
      <trkpt lat="46.05939" lon="1.23593">
        <ele>374</ele>
        <time>2024-04-28T07:24:08Z</time>
      </trkpt>
      <trkpt lat="46.05931" lon="1.23589">
        <ele>374.6</ele>
        <time>2024-04-28T07:24:11Z</time>
      </trkpt>
      <trkpt lat="46.05926" lon="1.23586">
        <ele>375</ele>
        <time>2024-04-28T07:24:13Z</time>
      </trkpt>
      <trkpt lat="46.05914" lon="1.2358">
        <ele>376.2</ele>
        <time>2024-04-28T07:24:18Z</time>
      </trkpt>
      <trkpt lat="46.05911" lon="1.23579">
        <ele>376.4</ele>
        <time>2024-04-28T07:24:19Z</time>
      </trkpt>
      <trkpt lat="46.05903" lon="1.23573">
        <ele>377.2</ele>
        <time>2024-04-28T07:24:23Z</time>
      </trkpt>
      <trkpt lat="46.05895" lon="1.23569">
        <ele>378</ele>
        <time>2024-04-28T07:24:27Z</time>
      </trkpt>
      <trkpt lat="46.0589" lon="1.23567">
        <ele>378.6</ele>
        <time>2024-04-28T07:24:29Z</time>
      </trkpt>
      <trkpt lat="46.05881" lon="1.23562">
        <ele>380</ele>
        <time>2024-04-28T07:24:34Z</time>
      </trkpt>
      <trkpt lat="46.05871" lon="1.23556">
        <ele>381</ele>
        <time>2024-04-28T07:24:39Z</time>
      </trkpt>
      <trkpt lat="46.0586" lon="1.23548">
        <ele>382</ele>
        <time>2024-04-28T07:24:45Z</time>
      </trkpt>
      <trkpt lat="46.05853" lon="1.2354">
        <ele>383</ele>
        <time>2024-04-28T07:24:49Z</time>
      </trkpt>
      <trkpt lat="46.0585" lon="1.23536">
        <ele>383.2</ele>
        <time>2024-04-28T07:24:51Z</time>
      </trkpt>
      <trkpt lat="46.05847" lon="1.23526">
        <ele>384</ele>
        <time>2024-04-28T07:24:55Z</time>
      </trkpt>
      <trkpt lat="46.0585" lon="1.23519">
        <ele>384.4</ele>
        <time>2024-04-28T07:24:58Z</time>
      </trkpt>
      <trkpt lat="46.05852" lon="1.23514">
        <ele>384.6</ele>
        <time>2024-04-28T07:25:00Z</time>
      </trkpt>
      <trkpt lat="46.05863" lon="1.23489">
        <ele>385.2</ele>
        <time>2024-04-28T07:25:09Z</time>
      </trkpt>
      <trkpt lat="46.05865" lon="1.23486">
        <ele>385.4</ele>
        <time>2024-04-28T07:25:10Z</time>
      </trkpt>
      <trkpt lat="46.05879" lon="1.23456">
        <ele>386.4</ele>
        <time>2024-04-28T07:25:19Z</time>
      </trkpt>
      <trkpt lat="46.05883" lon="1.2345">
        <ele>386.4</ele>
        <time>2024-04-28T07:25:21Z</time>
      </trkpt>
      <trkpt lat="46.0589" lon="1.23435">
        <ele>386.8</ele>
        <time>2024-04-28T07:25:26Z</time>
      </trkpt>
      <trkpt lat="46.05903" lon="1.23409">
        <ele>387.4</ele>
        <time>2024-04-28T07:25:34Z</time>
      </trkpt>
      <trkpt lat="46.05905" lon="1.23406">
        <ele>387.6</ele>
        <time>2024-04-28T07:25:35Z</time>
      </trkpt>
      <trkpt lat="46.05912" lon="1.23389">
        <ele>388.6</ele>
        <time>2024-04-28T07:25:41Z</time>
      </trkpt>
      <trkpt lat="46.05917" lon="1.23378">
        <ele>389.2</ele>
        <time>2024-04-28T07:25:45Z</time>
      </trkpt>
      <trkpt lat="46.05919" lon="1.23374">
        <ele>389.6</ele>
        <time>2024-04-28T07:25:47Z</time>
      </trkpt>
      <trkpt lat="46.05926" lon="1.23364">
        <ele>390.6</ele>
        <time>2024-04-28T07:25:52Z</time>
      </trkpt>
      <trkpt lat="46.05927" lon="1.23362">
        <ele>390.8</ele>
        <time>2024-04-28T07:25:53Z</time>
      </trkpt>
      <trkpt lat="46.05937" lon="1.23349">
        <ele>391.8</ele>
        <time>2024-04-28T07:25:59Z</time>
      </trkpt>
      <trkpt lat="46.05942" lon="1.23345">
        <ele>392</ele>
        <time>2024-04-28T07:26:01Z</time>
      </trkpt>
      <trkpt lat="46.05947" lon="1.2333">
        <ele>392.6</ele>
        <time>2024-04-28T07:26:06Z</time>
      </trkpt>
      <trkpt lat="46.05946" lon="1.23327">
        <ele>393</ele>
        <time>2024-04-28T07:26:07Z</time>
      </trkpt>
      <trkpt lat="46.05945" lon="1.23324">
        <ele>393.2</ele>
        <time>2024-04-28T07:26:08Z</time>
      </trkpt>
      <trkpt lat="46.05941" lon="1.23318">
        <ele>393.6</ele>
        <time>2024-04-28T07:26:10Z</time>
      </trkpt>
      <trkpt lat="46.05937" lon="1.23309">
        <ele>394.4</ele>
        <time>2024-04-28T07:26:13Z</time>
      </trkpt>
      <trkpt lat="46.05933" lon="1.23301">
        <ele>395.6</ele>
        <time>2024-04-28T07:26:16Z</time>
      </trkpt>
      <trkpt lat="46.05932" lon="1.23299">
        <ele>396</ele>
        <time>2024-04-28T07:26:17Z</time>
      </trkpt>
      <trkpt lat="46.05929" lon="1.23293">
        <ele>396.6</ele>
        <time>2024-04-28T07:26:19Z</time>
      </trkpt>
      <trkpt lat="46.05928" lon="1.23291">
        <ele>396.6</ele>
        <time>2024-04-28T07:26:20Z</time>
      </trkpt>
      <trkpt lat="46.05919" lon="1.23275">
        <ele>398</ele>
        <time>2024-04-28T07:26:27Z</time>
      </trkpt>
      <trkpt lat="46.05915" lon="1.23266">
        <ele>399</ele>
        <time>2024-04-28T07:26:31Z</time>
      </trkpt>
      <trkpt lat="46.05911" lon="1.23258">
        <ele>399.8</ele>
        <time>2024-04-28T07:26:35Z</time>
      </trkpt>
      <trkpt lat="46.05906" lon="1.2325">
        <ele>400.2</ele>
        <time>2024-04-28T07:26:39Z</time>
      </trkpt>
      <trkpt lat="46.05904" lon="1.23247">
        <ele>400.6</ele>
        <time>2024-04-28T07:26:41Z</time>
      </trkpt>
      <trkpt lat="46.05903" lon="1.23241">
        <ele>401.2</ele>
        <time>2024-04-28T07:26:44Z</time>
      </trkpt>
      <trkpt lat="46.05901" lon="1.23236">
        <ele>401.6</ele>
        <time>2024-04-28T07:26:47Z</time>
      </trkpt>
      <trkpt lat="46.05898" lon="1.23228">
        <ele>402.2</ele>
        <time>2024-04-28T07:26:51Z</time>
      </trkpt>
      <trkpt lat="46.05895" lon="1.23222">
        <ele>402.4</ele>
        <time>2024-04-28T07:26:54Z</time>
      </trkpt>
      <trkpt lat="46.05887" lon="1.23207">
        <ele>403.2</ele>
        <time>2024-04-28T07:27:01Z</time>
      </trkpt>
      <trkpt lat="46.05884" lon="1.23202">
        <ele>403.4</ele>
        <time>2024-04-28T07:27:03Z</time>
      </trkpt>
      <trkpt lat="46.05877" lon="1.23193">
        <ele>404.4</ele>
        <time>2024-04-28T07:27:07Z</time>
      </trkpt>
      <trkpt lat="46.05873" lon="1.23185">
        <ele>405.2</ele>
        <time>2024-04-28T07:27:10Z</time>
      </trkpt>
      <trkpt lat="46.05869" lon="1.23179">
        <ele>405.4</ele>
        <time>2024-04-28T07:27:12Z</time>
      </trkpt>
      <trkpt lat="46.05858" lon="1.23168">
        <ele>406.2</ele>
        <time>2024-04-28T07:27:18Z</time>
      </trkpt>
      <trkpt lat="46.05851" lon="1.23162">
        <ele>406.6</ele>
        <time>2024-04-28T07:27:22Z</time>
      </trkpt>
      <trkpt lat="46.05845" lon="1.23156">
        <ele>407</ele>
        <time>2024-04-28T07:27:25Z</time>
      </trkpt>
      <trkpt lat="46.05836" lon="1.23147">
        <ele>407.6</ele>
        <time>2024-04-28T07:27:29Z</time>
      </trkpt>
      <trkpt lat="46.05829" lon="1.23141">
        <ele>408</ele>
        <time>2024-04-28T07:27:32Z</time>
      </trkpt>
      <trkpt lat="46.05821" lon="1.23133">
        <ele>408.6</ele>
        <time>2024-04-28T07:27:36Z</time>
      </trkpt>
      <trkpt lat="46.05818" lon="1.23128">
        <ele>408.8</ele>
        <time>2024-04-28T07:27:38Z</time>
      </trkpt>
      <trkpt lat="46.05802" lon="1.23115">
        <ele>409.4</ele>
        <time>2024-04-28T07:27:44Z</time>
      </trkpt>
      <trkpt lat="46.0578" lon="1.23101">
        <ele>409</ele>
        <time>2024-04-28T07:27:51Z</time>
      </trkpt>
      <trkpt lat="46.05752" lon="1.23093">
        <ele>408.8</ele>
        <time>2024-04-28T07:27:59Z</time>
      </trkpt>
      <trkpt lat="46.05729" lon="1.23088">
        <ele>409.8</ele>
        <time>2024-04-28T07:28:06Z</time>
      </trkpt>
      <trkpt lat="46.05722" lon="1.23087">
        <ele>409.8</ele>
        <time>2024-04-28T07:28:08Z</time>
      </trkpt>
      <trkpt lat="46.05681" lon="1.2308">
        <ele>410.6</ele>
        <time>2024-04-28T07:28:20Z</time>
      </trkpt>
      <trkpt lat="46.05668" lon="1.23078">
        <ele>411</ele>
        <time>2024-04-28T07:28:24Z</time>
      </trkpt>
      <trkpt lat="46.05658" lon="1.23079">
        <ele>410.6</ele>
        <time>2024-04-28T07:28:27Z</time>
      </trkpt>
      <trkpt lat="46.05656" lon="1.23083">
        <ele>410.6</ele>
        <time>2024-04-28T07:28:28Z</time>
      </trkpt>
      <trkpt lat="46.05655" lon="1.231">
        <ele>410.6</ele>
        <time>2024-04-28T07:28:32Z</time>
      </trkpt>
      <trkpt lat="46.05653" lon="1.23125">
        <ele>410</ele>
        <time>2024-04-28T07:28:37Z</time>
      </trkpt>
      <trkpt lat="46.05651" lon="1.23129">
        <ele>409.8</ele>
        <time>2024-04-28T07:28:38Z</time>
      </trkpt>
      <trkpt lat="46.05645" lon="1.23133">
        <ele>409.8</ele>
        <time>2024-04-28T07:28:40Z</time>
      </trkpt>
      <trkpt lat="46.05642" lon="1.23132">
        <ele>409.8</ele>
        <time>2024-04-28T07:28:41Z</time>
      </trkpt>
      <trkpt lat="46.05616" lon="1.23127">
        <ele>410.2</ele>
        <time>2024-04-28T07:28:48Z</time>
      </trkpt>
      <trkpt lat="46.05608" lon="1.23117">
        <ele>410</ele>
        <time>2024-04-28T07:28:51Z</time>
      </trkpt>
      <trkpt lat="46.05599" lon="1.23094">
        <ele>411</ele>
        <time>2024-04-28T07:28:56Z</time>
      </trkpt>
      <trkpt lat="46.05596" lon="1.23085">
        <ele>411.4</ele>
        <time>2024-04-28T07:28:58Z</time>
      </trkpt>
      <trkpt lat="46.05584" lon="1.23058">
        <ele>411.6</ele>
        <time>2024-04-28T07:29:03Z</time>
      </trkpt>
      <trkpt lat="46.05575" lon="1.23044">
        <ele>411.2</ele>
        <time>2024-04-28T07:29:06Z</time>
      </trkpt>
      <trkpt lat="46.05552" lon="1.23007">
        <ele>410.6</ele>
        <time>2024-04-28T07:29:14Z</time>
      </trkpt>
      <trkpt lat="46.05529" lon="1.22972">
        <ele>409.8</ele>
        <time>2024-04-28T07:29:21Z</time>
      </trkpt>
      <trkpt lat="46.05526" lon="1.22967">
        <ele>409.6</ele>
        <time>2024-04-28T07:29:22Z</time>
      </trkpt>
      <trkpt lat="46.05511" lon="1.22942">
        <ele>408.6</ele>
        <time>2024-04-28T07:29:26Z</time>
      </trkpt>
      <trkpt lat="46.055" lon="1.22922">
        <ele>407.6</ele>
        <time>2024-04-28T07:29:29Z</time>
      </trkpt>
      <trkpt lat="46.05491" lon="1.22908">
        <ele>406.6</ele>
        <time>2024-04-28T07:29:31Z</time>
      </trkpt>
      <trkpt lat="46.05485" lon="1.22901">
        <ele>405.6</ele>
        <time>2024-04-28T07:29:32Z</time>
      </trkpt>
      <trkpt lat="46.05473" lon="1.22889">
        <ele>404.2</ele>
        <time>2024-04-28T07:29:34Z</time>
      </trkpt>
      <trkpt lat="46.05461" lon="1.22875">
        <ele>403</ele>
        <time>2024-04-28T07:29:36Z</time>
      </trkpt>
      <trkpt lat="46.05443" lon="1.22851">
        <ele>402.2</ele>
        <time>2024-04-28T07:29:39Z</time>
      </trkpt>
      <trkpt lat="46.05437" lon="1.22843">
        <ele>402</ele>
        <time>2024-04-28T07:29:40Z</time>
      </trkpt>
      <trkpt lat="46.0542" lon="1.22818">
        <ele>400.6</ele>
        <time>2024-04-28T07:29:43Z</time>
      </trkpt>
      <trkpt lat="46.05415" lon="1.2281">
        <ele>399.6</ele>
        <time>2024-04-28T07:29:44Z</time>
      </trkpt>
      <trkpt lat="46.05409" lon="1.22803">
        <ele>398.6</ele>
        <time>2024-04-28T07:29:45Z</time>
      </trkpt>
      <trkpt lat="46.05404" lon="1.22796">
        <ele>397</ele>
        <time>2024-04-28T07:29:46Z</time>
      </trkpt>
      <trkpt lat="46.05399" lon="1.22789">
        <ele>395.8</ele>
        <time>2024-04-28T07:29:47Z</time>
      </trkpt>
      <trkpt lat="46.05387" lon="1.22772">
        <ele>394.6</ele>
        <time>2024-04-28T07:29:49Z</time>
      </trkpt>
      <trkpt lat="46.0538" lon="1.22762">
        <ele>393.6</ele>
        <time>2024-04-28T07:29:50Z</time>
      </trkpt>
      <trkpt lat="46.05367" lon="1.22743">
        <ele>391.8</ele>
        <time>2024-04-28T07:29:52Z</time>
      </trkpt>
      <trkpt lat="46.05341" lon="1.22706">
        <ele>390.8</ele>
        <time>2024-04-28T07:29:56Z</time>
      </trkpt>
      <trkpt lat="46.05329" lon="1.22689">
        <ele>389.2</ele>
        <time>2024-04-28T07:29:58Z</time>
      </trkpt>
      <trkpt lat="46.05322" lon="1.22681">
        <ele>388.2</ele>
        <time>2024-04-28T07:29:59Z</time>
      </trkpt>
      <trkpt lat="46.05309" lon="1.22667">
        <ele>386.6</ele>
        <time>2024-04-28T07:30:01Z</time>
      </trkpt>
      <trkpt lat="46.05295" lon="1.22652">
        <ele>385.4</ele>
        <time>2024-04-28T07:30:03Z</time>
      </trkpt>
      <trkpt lat="46.05281" lon="1.22639">
        <ele>384.2</ele>
        <time>2024-04-28T07:30:05Z</time>
      </trkpt>
      <trkpt lat="46.05268" lon="1.22628">
        <ele>382.6</ele>
        <time>2024-04-28T07:30:07Z</time>
      </trkpt>
      <trkpt lat="46.05256" lon="1.22618">
        <ele>381.2</ele>
        <time>2024-04-28T07:30:09Z</time>
      </trkpt>
      <trkpt lat="46.05251" lon="1.22613">
        <ele>380</ele>
        <time>2024-04-28T07:30:10Z</time>
      </trkpt>
      <trkpt lat="46.05246" lon="1.22608">
        <ele>378.8</ele>
        <time>2024-04-28T07:30:11Z</time>
      </trkpt>
      <trkpt lat="46.05242" lon="1.22604">
        <ele>377.6</ele>
        <time>2024-04-28T07:30:12Z</time>
      </trkpt>
      <trkpt lat="46.05238" lon="1.22599">
        <ele>376.6</ele>
        <time>2024-04-28T07:30:13Z</time>
      </trkpt>
      <trkpt lat="46.05235" lon="1.22594">
        <ele>375</ele>
        <time>2024-04-28T07:30:14Z</time>
      </trkpt>
      <trkpt lat="46.05231" lon="1.22588">
        <ele>373.6</ele>
        <time>2024-04-28T07:30:15Z</time>
      </trkpt>
      <trkpt lat="46.05229" lon="1.22581">
        <ele>372.4</ele>
        <time>2024-04-28T07:30:16Z</time>
      </trkpt>
      <trkpt lat="46.05227" lon="1.22572">
        <ele>371.4</ele>
        <time>2024-04-28T07:30:17Z</time>
      </trkpt>
      <trkpt lat="46.05225" lon="1.22562">
        <ele>370.4</ele>
        <time>2024-04-28T07:30:18Z</time>
      </trkpt>
      <trkpt lat="46.0522" lon="1.22528">
        <ele>368.6</ele>
        <time>2024-04-28T07:30:21Z</time>
      </trkpt>
      <trkpt lat="46.05219" lon="1.22517">
        <ele>367.2</ele>
        <time>2024-04-28T07:30:22Z</time>
      </trkpt>
      <trkpt lat="46.05218" lon="1.22506">
        <ele>365.8</ele>
        <time>2024-04-28T07:30:23Z</time>
      </trkpt>
      <trkpt lat="46.05217" lon="1.22487">
        <ele>364</ele>
        <time>2024-04-28T07:30:25Z</time>
      </trkpt>
      <trkpt lat="46.05217" lon="1.22479">
        <ele>362.8</ele>
        <time>2024-04-28T07:30:26Z</time>
      </trkpt>
      <trkpt lat="46.05217" lon="1.22471">
        <ele>361.6</ele>
        <time>2024-04-28T07:30:27Z</time>
      </trkpt>
      <trkpt lat="46.05216" lon="1.22453">
        <ele>360.4</ele>
        <time>2024-04-28T07:30:29Z</time>
      </trkpt>
      <trkpt lat="46.0521" lon="1.22436">
        <ele>359.8</ele>
        <time>2024-04-28T07:30:31Z</time>
      </trkpt>
      <trkpt lat="46.05207" lon="1.22421">
        <ele>359.2</ele>
        <time>2024-04-28T07:30:33Z</time>
      </trkpt>
      <trkpt lat="46.05202" lon="1.224">
        <ele>358.8</ele>
        <time>2024-04-28T07:30:36Z</time>
      </trkpt>
      <trkpt lat="46.05199" lon="1.22384">
        <ele>358</ele>
        <time>2024-04-28T07:30:38Z</time>
      </trkpt>
      <trkpt lat="46.05194" lon="1.2235">
        <ele>357.2</ele>
        <time>2024-04-28T07:30:43Z</time>
      </trkpt>
      <trkpt lat="46.05192" lon="1.22329">
        <ele>356.8</ele>
        <time>2024-04-28T07:30:46Z</time>
      </trkpt>
      <trkpt lat="46.05192" lon="1.22321">
        <ele>356.2</ele>
        <time>2024-04-28T07:30:48Z</time>
      </trkpt>
      <trkpt lat="46.05192" lon="1.22317">
        <ele>355.6</ele>
        <time>2024-04-28T07:30:49Z</time>
      </trkpt>
      <trkpt lat="46.0519" lon="1.22316">
        <ele>355</ele>
        <time>2024-04-28T07:30:51Z</time>
      </trkpt>
      <trkpt lat="46.05189" lon="1.22322">
        <ele>354.8</ele>
        <time>2024-04-28T07:30:53Z</time>
      </trkpt>
      <trkpt lat="46.0519" lon="1.22329">
        <ele>354.6</ele>
        <time>2024-04-28T07:30:55Z</time>
      </trkpt>
      <trkpt lat="46.05192" lon="1.22351">
        <ele>355.4</ele>
        <time>2024-04-28T07:30:59Z</time>
      </trkpt>
      <trkpt lat="46.05201" lon="1.22395">
        <ele>356.6</ele>
        <time>2024-04-28T07:31:06Z</time>
      </trkpt>
      <trkpt lat="46.05201" lon="1.224">
        <ele>356.8</ele>
        <time>2024-04-28T07:31:07Z</time>
      </trkpt>
      <trkpt lat="46.05203" lon="1.2241">
        <ele>357</ele>
        <time>2024-04-28T07:31:09Z</time>
      </trkpt>
      <trkpt lat="46.05208" lon="1.22419">
        <ele>357.4</ele>
        <time>2024-04-28T07:31:11Z</time>
      </trkpt>
      <trkpt lat="46.0521" lon="1.22425">
        <ele>357.6</ele>
        <time>2024-04-28T07:31:12Z</time>
      </trkpt>
      <trkpt lat="46.05211" lon="1.2243">
        <ele>357.6</ele>
        <time>2024-04-28T07:31:13Z</time>
      </trkpt>
      <trkpt lat="46.05212" lon="1.22435">
        <ele>357.8</ele>
        <time>2024-04-28T07:31:14Z</time>
      </trkpt>
      <trkpt lat="46.05212" lon="1.2244">
        <ele>357.8</ele>
        <time>2024-04-28T07:31:15Z</time>
      </trkpt>
      <trkpt lat="46.05213" lon="1.22444">
        <ele>357.8</ele>
        <time>2024-04-28T07:31:16Z</time>
      </trkpt>
      <trkpt lat="46.05208" lon="1.22471">
        <ele>358.4</ele>
        <time>2024-04-28T07:31:22Z</time>
      </trkpt>
      <trkpt lat="46.05204" lon="1.22481">
        <ele>358.8</ele>
        <time>2024-04-28T07:31:24Z</time>
      </trkpt>
      <trkpt lat="46.05197" lon="1.22497">
        <ele>359.2</ele>
        <time>2024-04-28T07:31:27Z</time>
      </trkpt>
      <trkpt lat="46.05182" lon="1.22519">
        <ele>359.8</ele>
        <time>2024-04-28T07:31:33Z</time>
      </trkpt>
      <trkpt lat="46.05177" lon="1.22523">
        <ele>359.8</ele>
        <time>2024-04-28T07:31:35Z</time>
      </trkpt>
      <trkpt lat="46.05165" lon="1.22536">
        <ele>361</ele>
        <time>2024-04-28T07:31:41Z</time>
      </trkpt>
      <trkpt lat="46.05157" lon="1.22541">
        <ele>362.2</ele>
        <time>2024-04-28T07:31:44Z</time>
      </trkpt>
      <trkpt lat="46.05148" lon="1.22549">
        <ele>363</ele>
        <time>2024-04-28T07:31:48Z</time>
      </trkpt>
      <trkpt lat="46.05146" lon="1.22551">
        <ele>363.2</ele>
        <time>2024-04-28T07:31:49Z</time>
      </trkpt>
      <trkpt lat="46.05135" lon="1.22561">
        <ele>364.4</ele>
        <time>2024-04-28T07:31:56Z</time>
      </trkpt>
      <trkpt lat="46.05128" lon="1.22571">
        <ele>365.4</ele>
        <time>2024-04-28T07:32:03Z</time>
      </trkpt>
      <trkpt lat="46.05126" lon="1.22576">
        <ele>366.6</ele>
        <time>2024-04-28T07:32:07Z</time>
      </trkpt>
      <trkpt lat="46.05123" lon="1.22584">
        <ele>367</ele>
        <time>2024-04-28T07:32:11Z</time>
      </trkpt>
      <trkpt lat="46.0512" lon="1.22597">
        <ele>367.6</ele>
        <time>2024-04-28T07:32:16Z</time>
      </trkpt>
      <trkpt lat="46.05119" lon="1.226">
        <ele>367.6</ele>
        <time>2024-04-28T07:32:17Z</time>
      </trkpt>
      <trkpt lat="46.05117" lon="1.2262">
        <ele>368.4</ele>
        <time>2024-04-28T07:32:24Z</time>
      </trkpt>
      <trkpt lat="46.05117" lon="1.22623">
        <ele>368.6</ele>
        <time>2024-04-28T07:32:25Z</time>
      </trkpt>
      <trkpt lat="46.0512" lon="1.22629">
        <ele>369.8</ele>
        <time>2024-04-28T07:32:29Z</time>
      </trkpt>
      <trkpt lat="46.05123" lon="1.22632">
        <ele>370.4</ele>
        <time>2024-04-28T07:32:31Z</time>
      </trkpt>
      <trkpt lat="46.05127" lon="1.22633">
        <ele>370.8</ele>
        <time>2024-04-28T07:32:33Z</time>
      </trkpt>
      <trkpt lat="46.05136" lon="1.22636">
        <ele>371.8</ele>
        <time>2024-04-28T07:32:37Z</time>
      </trkpt>
      <trkpt lat="46.05139" lon="1.22636">
        <ele>372.2</ele>
        <time>2024-04-28T07:32:39Z</time>
      </trkpt>
      <trkpt lat="46.05146" lon="1.22636">
        <ele>372.8</ele>
        <time>2024-04-28T07:32:42Z</time>
      </trkpt>
      <trkpt lat="46.05155" lon="1.22637">
        <ele>373.4</ele>
        <time>2024-04-28T07:32:47Z</time>
      </trkpt>
      <trkpt lat="46.0517" lon="1.2264">
        <ele>373.8</ele>
        <time>2024-04-28T07:32:54Z</time>
      </trkpt>
      <trkpt lat="46.05187" lon="1.2265">
        <ele>374.6</ele>
        <time>2024-04-28T07:33:02Z</time>
      </trkpt>
      <trkpt lat="46.05196" lon="1.22656">
        <ele>374.8</ele>
        <time>2024-04-28T07:33:06Z</time>
      </trkpt>
      <trkpt lat="46.05205" lon="1.22661">
        <ele>375.6</ele>
        <time>2024-04-28T07:33:10Z</time>
      </trkpt>
      <trkpt lat="46.0521" lon="1.22665">
        <ele>376</ele>
        <time>2024-04-28T07:33:13Z</time>
      </trkpt>
      <trkpt lat="46.05216" lon="1.22671">
        <ele>376.4</ele>
        <time>2024-04-28T07:33:17Z</time>
      </trkpt>
      <trkpt lat="46.05222" lon="1.22679">
        <ele>377.2</ele>
        <time>2024-04-28T07:33:21Z</time>
      </trkpt>
      <trkpt lat="46.05228" lon="1.22689">
        <ele>378.2</ele>
        <time>2024-04-28T07:33:26Z</time>
      </trkpt>
      <trkpt lat="46.05229" lon="1.22691">
        <ele>378.4</ele>
        <time>2024-04-28T07:33:27Z</time>
      </trkpt>
      <trkpt lat="46.05236" lon="1.22703">
        <ele>379.4</ele>
        <time>2024-04-28T07:33:32Z</time>
      </trkpt>
      <trkpt lat="46.05237" lon="1.22706">
        <ele>379.8</ele>
        <time>2024-04-28T07:33:33Z</time>
      </trkpt>
      <trkpt lat="46.05243" lon="1.22721">
        <ele>380.4</ele>
        <time>2024-04-28T07:33:38Z</time>
      </trkpt>
      <trkpt lat="46.05245" lon="1.22727">
        <ele>380.6</ele>
        <time>2024-04-28T07:33:40Z</time>
      </trkpt>
      <trkpt lat="46.05251" lon="1.22747">
        <ele>380.8</ele>
        <time>2024-04-28T07:33:47Z</time>
      </trkpt>
      <trkpt lat="46.0526" lon="1.22767">
        <ele>381.6</ele>
        <time>2024-04-28T07:33:54Z</time>
      </trkpt>
      <trkpt lat="46.05272" lon="1.22791">
        <ele>382.8</ele>
        <time>2024-04-28T07:34:03Z</time>
      </trkpt>
      <trkpt lat="46.05282" lon="1.22806">
        <ele>383.8</ele>
        <time>2024-04-28T07:34:10Z</time>
      </trkpt>
      <trkpt lat="46.05283" lon="1.22808">
        <ele>383.8</ele>
        <time>2024-04-28T07:34:11Z</time>
      </trkpt>
      <trkpt lat="46.05294" lon="1.22822">
        <ele>384.6</ele>
        <time>2024-04-28T07:34:17Z</time>
      </trkpt>
      <trkpt lat="46.053" lon="1.22831">
        <ele>385</ele>
        <time>2024-04-28T07:34:21Z</time>
      </trkpt>
      <trkpt lat="46.05306" lon="1.22841">
        <ele>385.6</ele>
        <time>2024-04-28T07:34:26Z</time>
      </trkpt>
      <trkpt lat="46.05308" lon="1.22846">
        <ele>386.4</ele>
        <time>2024-04-28T07:34:29Z</time>
      </trkpt>
      <trkpt lat="46.05312" lon="1.22858">
        <ele>387.2</ele>
        <time>2024-04-28T07:34:34Z</time>
      </trkpt>
      <trkpt lat="46.05313" lon="1.22864">
        <ele>387.6</ele>
        <time>2024-04-28T07:34:36Z</time>
      </trkpt>
      <trkpt lat="46.05314" lon="1.22875">
        <ele>388.6</ele>
        <time>2024-04-28T07:34:40Z</time>
      </trkpt>
      <trkpt lat="46.05315" lon="1.22878">
        <ele>388.6</ele>
        <time>2024-04-28T07:34:41Z</time>
      </trkpt>
      <trkpt lat="46.05315" lon="1.22892">
        <ele>389.2</ele>
        <time>2024-04-28T07:34:46Z</time>
      </trkpt>
      <trkpt lat="46.05318" lon="1.22897">
        <ele>389.6</ele>
        <time>2024-04-28T07:34:48Z</time>
      </trkpt>
      <trkpt lat="46.05321" lon="1.22911">
        <ele>390.2</ele>
        <time>2024-04-28T07:34:53Z</time>
      </trkpt>
      <trkpt lat="46.05326" lon="1.22926">
        <ele>390.6</ele>
        <time>2024-04-28T07:34:58Z</time>
      </trkpt>
      <trkpt lat="46.05327" lon="1.22929">
        <ele>390.6</ele>
        <time>2024-04-28T07:34:59Z</time>
      </trkpt>
      <trkpt lat="46.05331" lon="1.22943">
        <ele>391.2</ele>
        <time>2024-04-28T07:35:06Z</time>
      </trkpt>
      <trkpt lat="46.05333" lon="1.22949">
        <ele>390.8</ele>
        <time>2024-04-28T07:35:16Z</time>
      </trkpt>
      <trkpt lat="46.05332" lon="1.22951">
        <ele>391</ele>
        <time>2024-04-28T07:35:33Z</time>
      </trkpt>
      <trkpt lat="46.05332" lon="1.22952">
        <ele>390.8</ele>
        <time>2024-04-28T07:35:50Z</time>
      </trkpt>
      <trkpt lat="46.05333" lon="1.22953">
        <ele>390.6</ele>
        <time>2024-04-28T07:36:42Z</time>
      </trkpt>
      <trkpt lat="46.05333" lon="1.22956">
        <ele>390.6</ele>
        <time>2024-04-28T07:37:17Z</time>
      </trkpt>
      <trkpt lat="46.05332" lon="1.22958">
        <ele>390.6</ele>
        <time>2024-04-28T07:37:19Z</time>
      </trkpt>
      <trkpt lat="46.05331" lon="1.22961">
        <ele>390.6</ele>
        <time>2024-04-28T07:37:21Z</time>
      </trkpt>
      <trkpt lat="46.0533" lon="1.22962">
        <ele>390.6</ele>
        <time>2024-04-28T07:37:22Z</time>
      </trkpt>
      <trkpt lat="46.0532" lon="1.22974">
        <ele>391.4</ele>
        <time>2024-04-28T07:37:28Z</time>
      </trkpt>
      <trkpt lat="46.05316" lon="1.22978">
        <ele>391.6</ele>
        <time>2024-04-28T07:37:30Z</time>
      </trkpt>
      <trkpt lat="46.05304" lon="1.22987">
        <ele>391.8</ele>
        <time>2024-04-28T07:37:35Z</time>
      </trkpt>
      <trkpt lat="46.05289" lon="1.23001">
        <ele>392.6</ele>
        <time>2024-04-28T07:37:41Z</time>
      </trkpt>
      <trkpt lat="46.05284" lon="1.23004">
        <ele>393</ele>
        <time>2024-04-28T07:37:43Z</time>
      </trkpt>
      <trkpt lat="46.05278" lon="1.23009">
        <ele>394</ele>
        <time>2024-04-28T07:37:46Z</time>
      </trkpt>
      <trkpt lat="46.05272" lon="1.23016">
        <ele>394.2</ele>
        <time>2024-04-28T07:37:50Z</time>
      </trkpt>
      <trkpt lat="46.05265" lon="1.23023">
        <ele>395</ele>
        <time>2024-04-28T07:37:54Z</time>
      </trkpt>
      <trkpt lat="46.0526" lon="1.23029">
        <ele>395.6</ele>
        <time>2024-04-28T07:37:58Z</time>
      </trkpt>
      <trkpt lat="46.05254" lon="1.2304">
        <ele>396</ele>
        <time>2024-04-28T07:38:03Z</time>
      </trkpt>
      <trkpt lat="46.05249" lon="1.23047">
        <ele>397</ele>
        <time>2024-04-28T07:38:07Z</time>
      </trkpt>
      <trkpt lat="46.05248" lon="1.23049">
        <ele>397.2</ele>
        <time>2024-04-28T07:38:08Z</time>
      </trkpt>
      <trkpt lat="46.05243" lon="1.23057">
        <ele>398.2</ele>
        <time>2024-04-28T07:38:13Z</time>
      </trkpt>
      <trkpt lat="46.05241" lon="1.23058">
        <ele>398.4</ele>
        <time>2024-04-28T07:38:14Z</time>
      </trkpt>
      <trkpt lat="46.05236" lon="1.23065">
        <ele>399.2</ele>
        <time>2024-04-28T07:38:18Z</time>
      </trkpt>
      <trkpt lat="46.05234" lon="1.23069">
        <ele>399.8</ele>
        <time>2024-04-28T07:38:21Z</time>
      </trkpt>
      <trkpt lat="46.05229" lon="1.23075">
        <ele>400.4</ele>
        <time>2024-04-28T07:38:25Z</time>
      </trkpt>
      <trkpt lat="46.05227" lon="1.23077">
        <ele>400.8</ele>
        <time>2024-04-28T07:38:27Z</time>
      </trkpt>
      <trkpt lat="46.05223" lon="1.2308">
        <ele>401.4</ele>
        <time>2024-04-28T07:38:30Z</time>
      </trkpt>
      <trkpt lat="46.05217" lon="1.23087">
        <ele>402.6</ele>
        <time>2024-04-28T07:38:35Z</time>
      </trkpt>
      <trkpt lat="46.05207" lon="1.23098">
        <ele>403.4</ele>
        <time>2024-04-28T07:38:44Z</time>
      </trkpt>
      <trkpt lat="46.05205" lon="1.23099">
        <ele>403.6</ele>
        <time>2024-04-28T07:38:45Z</time>
      </trkpt>
      <trkpt lat="46.05199" lon="1.23105">
        <ele>404.6</ele>
        <time>2024-04-28T07:38:49Z</time>
      </trkpt>
      <trkpt lat="46.05197" lon="1.23106">
        <ele>404.8</ele>
        <time>2024-04-28T07:38:50Z</time>
      </trkpt>
      <trkpt lat="46.05195" lon="1.23109">
        <ele>405.2</ele>
        <time>2024-04-28T07:38:52Z</time>
      </trkpt>
      <trkpt lat="46.0519" lon="1.23114">
        <ele>405.8</ele>
        <time>2024-04-28T07:38:56Z</time>
      </trkpt>
      <trkpt lat="46.05189" lon="1.23115">
        <ele>406</ele>
        <time>2024-04-28T07:38:57Z</time>
      </trkpt>
      <trkpt lat="46.05183" lon="1.23121">
        <ele>407</ele>
        <time>2024-04-28T07:39:02Z</time>
      </trkpt>
      <trkpt lat="46.05182" lon="1.23122">
        <ele>407.2</ele>
        <time>2024-04-28T07:39:03Z</time>
      </trkpt>
      <trkpt lat="46.05173" lon="1.23131">
        <ele>408.2</ele>
        <time>2024-04-28T07:39:09Z</time>
      </trkpt>
      <trkpt lat="46.05168" lon="1.23135">
        <ele>408.8</ele>
        <time>2024-04-28T07:39:11Z</time>
      </trkpt>
      <trkpt lat="46.05158" lon="1.23142">
        <ele>409.2</ele>
        <time>2024-04-28T07:39:15Z</time>
      </trkpt>
      <trkpt lat="46.05147" lon="1.23149">
        <ele>409.4</ele>
        <time>2024-04-28T07:39:19Z</time>
      </trkpt>
      <trkpt lat="46.05125" lon="1.23158">
        <ele>409.4</ele>
        <time>2024-04-28T07:39:25Z</time>
      </trkpt>
      <trkpt lat="46.05096" lon="1.23162">
        <ele>408.6</ele>
        <time>2024-04-28T07:39:32Z</time>
      </trkpt>
      <trkpt lat="46.05065" lon="1.23176">
        <ele>408.4</ele>
        <time>2024-04-28T07:39:39Z</time>
      </trkpt>
      <trkpt lat="46.05052" lon="1.23182">
        <ele>408.6</ele>
        <time>2024-04-28T07:39:42Z</time>
      </trkpt>
      <trkpt lat="46.05044" lon="1.23187">
        <ele>408.2</ele>
        <time>2024-04-28T07:39:44Z</time>
      </trkpt>
      <trkpt lat="46.05036" lon="1.23195">
        <ele>407.8</ele>
        <time>2024-04-28T07:39:46Z</time>
      </trkpt>
      <trkpt lat="46.05031" lon="1.23206">
        <ele>407.6</ele>
        <time>2024-04-28T07:39:48Z</time>
      </trkpt>
      <trkpt lat="46.05026" lon="1.2322">
        <ele>407.2</ele>
        <time>2024-04-28T07:39:50Z</time>
      </trkpt>
      <trkpt lat="46.05025" lon="1.23227">
        <ele>406.2</ele>
        <time>2024-04-28T07:39:51Z</time>
      </trkpt>
      <trkpt lat="46.05019" lon="1.23252">
        <ele>405</ele>
        <time>2024-04-28T07:39:54Z</time>
      </trkpt>
      <trkpt lat="46.05018" lon="1.23262">
        <ele>404.8</ele>
        <time>2024-04-28T07:39:55Z</time>
      </trkpt>
      <trkpt lat="46.05013" lon="1.23293">
        <ele>403.6</ele>
        <time>2024-04-28T07:39:58Z</time>
      </trkpt>
      <trkpt lat="46.05011" lon="1.23322">
        <ele>402.8</ele>
        <time>2024-04-28T07:40:01Z</time>
      </trkpt>
      <trkpt lat="46.05011" lon="1.2334">
        <ele>402.6</ele>
        <time>2024-04-28T07:40:03Z</time>
      </trkpt>
      <trkpt lat="46.05011" lon="1.23375">
        <ele>401.4</ele>
        <time>2024-04-28T07:40:07Z</time>
      </trkpt>
      <trkpt lat="46.0501" lon="1.23383">
        <ele>401</ele>
        <time>2024-04-28T07:40:08Z</time>
      </trkpt>
      <trkpt lat="46.0501" lon="1.23389">
        <ele>400</ele>
        <time>2024-04-28T07:40:09Z</time>
      </trkpt>
      <trkpt lat="46.05008" lon="1.23396">
        <ele>399.2</ele>
        <time>2024-04-28T07:40:10Z</time>
      </trkpt>
      <trkpt lat="46.05008" lon="1.23401">
        <ele>398.2</ele>
        <time>2024-04-28T07:40:11Z</time>
      </trkpt>
      <trkpt lat="46.05007" lon="1.23406">
        <ele>397.4</ele>
        <time>2024-04-28T07:40:12Z</time>
      </trkpt>
      <trkpt lat="46.05008" lon="1.23411">
        <ele>397</ele>
        <time>2024-04-28T07:40:13Z</time>
      </trkpt>
      <trkpt lat="46.05015" lon="1.23424">
        <ele>396.8</ele>
        <time>2024-04-28T07:40:16Z</time>
      </trkpt>
      <trkpt lat="46.05033" lon="1.23456">
        <ele>396.8</ele>
        <time>2024-04-28T07:40:22Z</time>
      </trkpt>
      <trkpt lat="46.05058" lon="1.23491">
        <ele>397</ele>
        <time>2024-04-28T07:40:28Z</time>
      </trkpt>
      <trkpt lat="46.05098" lon="1.23536">
        <ele>395.8</ele>
        <time>2024-04-28T07:40:36Z</time>
      </trkpt>
      <trkpt lat="46.05103" lon="1.23541">
        <ele>395.4</ele>
        <time>2024-04-28T07:40:37Z</time>
      </trkpt>
      <trkpt lat="46.05113" lon="1.23549">
        <ele>394.8</ele>
        <time>2024-04-28T07:40:39Z</time>
      </trkpt>
      <trkpt lat="46.05118" lon="1.23552">
        <ele>394.8</ele>
        <time>2024-04-28T07:40:40Z</time>
      </trkpt>
      <trkpt lat="46.0513" lon="1.23558">
        <ele>394.8</ele>
        <time>2024-04-28T07:40:42Z</time>
      </trkpt>
      <trkpt lat="46.05141" lon="1.23566">
        <ele>394.8</ele>
        <time>2024-04-28T07:40:44Z</time>
      </trkpt>
      <trkpt lat="46.05154" lon="1.23584">
        <ele>394.6</ele>
        <time>2024-04-28T07:40:47Z</time>
      </trkpt>
      <trkpt lat="46.0516" lon="1.23608">
        <ele>394.4</ele>
        <time>2024-04-28T07:40:50Z</time>
      </trkpt>
      <trkpt lat="46.05169" lon="1.23619">
        <ele>394.2</ele>
        <time>2024-04-28T07:40:52Z</time>
      </trkpt>
      <trkpt lat="46.05174" lon="1.23622">
        <ele>394.2</ele>
        <time>2024-04-28T07:40:53Z</time>
      </trkpt>
      <trkpt lat="46.05209" lon="1.23637">
        <ele>393.6</ele>
        <time>2024-04-28T07:40:59Z</time>
      </trkpt>
      <trkpt lat="46.05249" lon="1.23651">
        <ele>393.8</ele>
        <time>2024-04-28T07:41:05Z</time>
      </trkpt>
      <trkpt lat="46.05288" lon="1.23669">
        <ele>393.6</ele>
        <time>2024-04-28T07:41:11Z</time>
      </trkpt>
      <trkpt lat="46.05329" lon="1.23686">
        <ele>392.8</ele>
        <time>2024-04-28T07:41:17Z</time>
      </trkpt>
      <trkpt lat="46.05337" lon="1.2369">
        <ele>392.4</ele>
        <time>2024-04-28T07:41:18Z</time>
      </trkpt>
      <trkpt lat="46.05359" lon="1.23699">
        <ele>391.2</ele>
        <time>2024-04-28T07:41:21Z</time>
      </trkpt>
      <trkpt lat="46.05373" lon="1.23702">
        <ele>390.6</ele>
        <time>2024-04-28T07:41:23Z</time>
      </trkpt>
      <trkpt lat="46.05388" lon="1.23705">
        <ele>390</ele>
        <time>2024-04-28T07:41:25Z</time>
      </trkpt>
      <trkpt lat="46.05411" lon="1.23703">
        <ele>389.6</ele>
        <time>2024-04-28T07:41:28Z</time>
      </trkpt>
      <trkpt lat="46.0545" lon="1.23689">
        <ele>389</ele>
        <time>2024-04-28T07:41:33Z</time>
      </trkpt>
      <trkpt lat="46.05489" lon="1.23668">
        <ele>388</ele>
        <time>2024-04-28T07:41:38Z</time>
      </trkpt>
      <trkpt lat="46.05507" lon="1.23659">
        <ele>387.6</ele>
        <time>2024-04-28T07:41:40Z</time>
      </trkpt>
      <trkpt lat="46.05534" lon="1.23645">
        <ele>386.8</ele>
        <time>2024-04-28T07:41:43Z</time>
      </trkpt>
      <trkpt lat="46.05551" lon="1.23636">
        <ele>385.2</ele>
        <time>2024-04-28T07:41:45Z</time>
      </trkpt>
      <trkpt lat="46.05559" lon="1.23632">
        <ele>384.6</ele>
        <time>2024-04-28T07:41:46Z</time>
      </trkpt>
      <trkpt lat="46.05565" lon="1.23629">
        <ele>383.6</ele>
        <time>2024-04-28T07:41:47Z</time>
      </trkpt>
      <trkpt lat="46.05569" lon="1.23628">
        <ele>382.2</ele>
        <time>2024-04-28T07:41:48Z</time>
      </trkpt>
      <trkpt lat="46.05572" lon="1.23629">
        <ele>380.8</ele>
        <time>2024-04-28T07:41:49Z</time>
      </trkpt>
      <trkpt lat="46.05573" lon="1.23635">
        <ele>380.4</ele>
        <time>2024-04-28T07:41:51Z</time>
      </trkpt>
      <trkpt lat="46.05572" lon="1.23637">
        <ele>380.2</ele>
        <time>2024-04-28T07:41:52Z</time>
      </trkpt>
      <trkpt lat="46.05563" lon="1.23652">
        <ele>380.2</ele>
        <time>2024-04-28T07:41:57Z</time>
      </trkpt>
      <trkpt lat="46.05561" lon="1.23657">
        <ele>380.4</ele>
        <time>2024-04-28T07:41:58Z</time>
      </trkpt>
      <trkpt lat="46.05556" lon="1.23671">
        <ele>380.6</ele>
        <time>2024-04-28T07:42:01Z</time>
      </trkpt>
      <trkpt lat="46.05554" lon="1.23676">
        <ele>380.6</ele>
        <time>2024-04-28T07:42:02Z</time>
      </trkpt>
      <trkpt lat="46.05551" lon="1.23681">
        <ele>380.6</ele>
        <time>2024-04-28T07:42:03Z</time>
      </trkpt>
      <trkpt lat="46.05546" lon="1.23698">
        <ele>380.4</ele>
        <time>2024-04-28T07:42:07Z</time>
      </trkpt>
      <trkpt lat="46.05541" lon="1.23733">
        <ele>380.6</ele>
        <time>2024-04-28T07:42:14Z</time>
      </trkpt>
      <trkpt lat="46.05541" lon="1.23748">
        <ele>380.8</ele>
        <time>2024-04-28T07:42:17Z</time>
      </trkpt>
      <trkpt lat="46.05544" lon="1.23758">
        <ele>380.4</ele>
        <time>2024-04-28T07:42:19Z</time>
      </trkpt>
      <trkpt lat="46.05548" lon="1.23776">
        <ele>379.6</ele>
        <time>2024-04-28T07:42:22Z</time>
      </trkpt>
      <trkpt lat="46.0555" lon="1.23791">
        <ele>379.2</ele>
        <time>2024-04-28T07:42:24Z</time>
      </trkpt>
      <trkpt lat="46.05552" lon="1.23806">
        <ele>379</ele>
        <time>2024-04-28T07:42:26Z</time>
      </trkpt>
      <trkpt lat="46.05555" lon="1.23819">
        <ele>378.4</ele>
        <time>2024-04-28T07:42:28Z</time>
      </trkpt>
      <trkpt lat="46.05556" lon="1.23826">
        <ele>378</ele>
        <time>2024-04-28T07:42:29Z</time>
      </trkpt>
      <trkpt lat="46.05558" lon="1.23833">
        <ele>377.6</ele>
        <time>2024-04-28T07:42:30Z</time>
      </trkpt>
      <trkpt lat="46.05558" lon="1.2384">
        <ele>376.8</ele>
        <time>2024-04-28T07:42:31Z</time>
      </trkpt>
      <trkpt lat="46.05559" lon="1.23856">
        <ele>375.2</ele>
        <time>2024-04-28T07:42:33Z</time>
      </trkpt>
      <trkpt lat="46.0556" lon="1.23864">
        <ele>374.2</ele>
        <time>2024-04-28T07:42:34Z</time>
      </trkpt>
      <trkpt lat="46.05559" lon="1.23873">
        <ele>373.6</ele>
        <time>2024-04-28T07:42:35Z</time>
      </trkpt>
      <trkpt lat="46.0556" lon="1.2388">
        <ele>373</ele>
        <time>2024-04-28T07:42:36Z</time>
      </trkpt>
      <trkpt lat="46.05563" lon="1.23887">
        <ele>372.6</ele>
        <time>2024-04-28T07:42:37Z</time>
      </trkpt>
      <trkpt lat="46.05566" lon="1.23894">
        <ele>372</ele>
        <time>2024-04-28T07:42:38Z</time>
      </trkpt>
      <trkpt lat="46.05572" lon="1.23908">
        <ele>370.4</ele>
        <time>2024-04-28T07:42:40Z</time>
      </trkpt>
      <trkpt lat="46.05577" lon="1.23922">
        <ele>369.4</ele>
        <time>2024-04-28T07:42:42Z</time>
      </trkpt>
      <trkpt lat="46.05578" lon="1.23928">
        <ele>368.4</ele>
        <time>2024-04-28T07:42:43Z</time>
      </trkpt>
      <trkpt lat="46.05578" lon="1.23936">
        <ele>367.8</ele>
        <time>2024-04-28T07:42:44Z</time>
      </trkpt>
      <trkpt lat="46.05579" lon="1.23952">
        <ele>366.4</ele>
        <time>2024-04-28T07:42:46Z</time>
      </trkpt>
      <trkpt lat="46.05581" lon="1.2396">
        <ele>365.2</ele>
        <time>2024-04-28T07:42:47Z</time>
      </trkpt>
      <trkpt lat="46.05585" lon="1.23968">
        <ele>364.4</ele>
        <time>2024-04-28T07:42:48Z</time>
      </trkpt>
      <trkpt lat="46.0559" lon="1.23978">
        <ele>363.6</ele>
        <time>2024-04-28T07:42:49Z</time>
      </trkpt>
      <trkpt lat="46.05603" lon="1.24004">
        <ele>362.6</ele>
        <time>2024-04-28T07:42:52Z</time>
      </trkpt>
      <trkpt lat="46.05607" lon="1.24012">
        <ele>362.2</ele>
        <time>2024-04-28T07:42:53Z</time>
      </trkpt>
      <trkpt lat="46.05611" lon="1.24028">
        <ele>361.4</ele>
        <time>2024-04-28T07:42:55Z</time>
      </trkpt>
      <trkpt lat="46.0561" lon="1.2405">
        <ele>361.4</ele>
        <time>2024-04-28T07:42:58Z</time>
      </trkpt>
      <trkpt lat="46.05606" lon="1.24066">
        <ele>361.4</ele>
        <time>2024-04-28T07:43:00Z</time>
      </trkpt>
      <trkpt lat="46.05597" lon="1.24086">
        <ele>361.4</ele>
        <time>2024-04-28T07:43:02Z</time>
      </trkpt>
      <trkpt lat="46.05582" lon="1.24122">
        <ele>360.2</ele>
        <time>2024-04-28T07:43:06Z</time>
      </trkpt>
      <trkpt lat="46.05575" lon="1.24131">
        <ele>360.2</ele>
        <time>2024-04-28T07:43:07Z</time>
      </trkpt>
      <trkpt lat="46.0557" lon="1.24137">
        <ele>360</ele>
        <time>2024-04-28T07:43:08Z</time>
      </trkpt>
      <trkpt lat="46.05558" lon="1.2415">
        <ele>359.4</ele>
        <time>2024-04-28T07:43:11Z</time>
      </trkpt>
      <trkpt lat="46.05556" lon="1.24153">
        <ele>359</ele>
        <time>2024-04-28T07:43:12Z</time>
      </trkpt>
      <trkpt lat="46.05547" lon="1.2417">
        <ele>358.6</ele>
        <time>2024-04-28T07:43:16Z</time>
      </trkpt>
      <trkpt lat="46.05533" lon="1.24192">
        <ele>359</ele>
        <time>2024-04-28T07:43:21Z</time>
      </trkpt>
      <trkpt lat="46.05525" lon="1.24205">
        <ele>359.4</ele>
        <time>2024-04-28T07:43:24Z</time>
      </trkpt>
      <trkpt lat="46.0552" lon="1.24215">
        <ele>360</ele>
        <time>2024-04-28T07:43:26Z</time>
      </trkpt>
      <trkpt lat="46.05518" lon="1.2422">
        <ele>360.2</ele>
        <time>2024-04-28T07:43:27Z</time>
      </trkpt>
      <trkpt lat="46.05516" lon="1.24233">
        <ele>359.8</ele>
        <time>2024-04-28T07:43:29Z</time>
      </trkpt>
      <trkpt lat="46.05516" lon="1.24241">
        <ele>359.4</ele>
        <time>2024-04-28T07:43:30Z</time>
      </trkpt>
      <trkpt lat="46.05517" lon="1.2425">
        <ele>359</ele>
        <time>2024-04-28T07:43:31Z</time>
      </trkpt>
      <trkpt lat="46.05518" lon="1.24265">
        <ele>358.2</ele>
        <time>2024-04-28T07:43:33Z</time>
      </trkpt>
      <trkpt lat="46.05517" lon="1.24274">
        <ele>357.6</ele>
        <time>2024-04-28T07:43:34Z</time>
      </trkpt>
      <trkpt lat="46.05517" lon="1.24292">
        <ele>357.2</ele>
        <time>2024-04-28T07:43:36Z</time>
      </trkpt>
      <trkpt lat="46.05516" lon="1.24302">
        <ele>356.4</ele>
        <time>2024-04-28T07:43:37Z</time>
      </trkpt>
      <trkpt lat="46.05517" lon="1.24311">
        <ele>356.6</ele>
        <time>2024-04-28T07:43:38Z</time>
      </trkpt>
      <trkpt lat="46.05519" lon="1.24335">
        <ele>355</ele>
        <time>2024-04-28T07:43:41Z</time>
      </trkpt>
      <trkpt lat="46.0552" lon="1.24351">
        <ele>353.6</ele>
        <time>2024-04-28T07:43:43Z</time>
      </trkpt>
      <trkpt lat="46.05519" lon="1.2438">
        <ele>352</ele>
        <time>2024-04-28T07:43:46Z</time>
      </trkpt>
      <trkpt lat="46.0552" lon="1.24389">
        <ele>350.8</ele>
        <time>2024-04-28T07:43:47Z</time>
      </trkpt>
      <trkpt lat="46.0552" lon="1.24397">
        <ele>349.4</ele>
        <time>2024-04-28T07:43:48Z</time>
      </trkpt>
      <trkpt lat="46.05518" lon="1.24421">
        <ele>348</ele>
        <time>2024-04-28T07:43:51Z</time>
      </trkpt>
      <trkpt lat="46.05512" lon="1.24443">
        <ele>346.8</ele>
        <time>2024-04-28T07:43:54Z</time>
      </trkpt>
      <trkpt lat="46.05507" lon="1.24463">
        <ele>345.6</ele>
        <time>2024-04-28T07:43:57Z</time>
      </trkpt>
      <trkpt lat="46.05506" lon="1.24469">
        <ele>345.4</ele>
        <time>2024-04-28T07:43:58Z</time>
      </trkpt>
      <trkpt lat="46.05504" lon="1.24483">
        <ele>345.2</ele>
        <time>2024-04-28T07:44:00Z</time>
      </trkpt>
      <trkpt lat="46.05497" lon="1.2452">
        <ele>344.6</ele>
        <time>2024-04-28T07:44:04Z</time>
      </trkpt>
      <trkpt lat="46.05494" lon="1.24529">
        <ele>344.2</ele>
        <time>2024-04-28T07:44:05Z</time>
      </trkpt>
      <trkpt lat="46.05487" lon="1.24557">
        <ele>343.4</ele>
        <time>2024-04-28T07:44:09Z</time>
      </trkpt>
      <trkpt lat="46.05487" lon="1.24564">
        <ele>343.2</ele>
        <time>2024-04-28T07:44:10Z</time>
      </trkpt>
      <trkpt lat="46.05485" lon="1.2457">
        <ele>343.6</ele>
        <time>2024-04-28T07:44:11Z</time>
      </trkpt>
      <trkpt lat="46.05482" lon="1.24584">
        <ele>344</ele>
        <time>2024-04-28T07:44:13Z</time>
      </trkpt>
      <trkpt lat="46.0548" lon="1.24596">
        <ele>344.4</ele>
        <time>2024-04-28T07:44:15Z</time>
      </trkpt>
      <trkpt lat="46.05477" lon="1.24619">
        <ele>345.2</ele>
        <time>2024-04-28T07:44:20Z</time>
      </trkpt>
      <trkpt lat="46.05476" lon="1.24627">
        <ele>345.8</ele>
        <time>2024-04-28T07:44:22Z</time>
      </trkpt>
      <trkpt lat="46.05473" lon="1.24638">
        <ele>346.8</ele>
        <time>2024-04-28T07:44:25Z</time>
      </trkpt>
      <trkpt lat="46.05472" lon="1.24641">
        <ele>347.2</ele>
        <time>2024-04-28T07:44:26Z</time>
      </trkpt>
      <trkpt lat="46.05471" lon="1.24652">
        <ele>348.2</ele>
        <time>2024-04-28T07:44:30Z</time>
      </trkpt>
      <trkpt lat="46.05471" lon="1.24659">
        <ele>348.6</ele>
        <time>2024-04-28T07:44:32Z</time>
      </trkpt>
      <trkpt lat="46.0547" lon="1.24669">
        <ele>349.4</ele>
        <time>2024-04-28T07:44:35Z</time>
      </trkpt>
      <trkpt lat="46.0547" lon="1.24679">
        <ele>349.6</ele>
        <time>2024-04-28T07:44:38Z</time>
      </trkpt>
      <trkpt lat="46.05475" lon="1.24696">
        <ele>349.6</ele>
        <time>2024-04-28T07:44:43Z</time>
      </trkpt>
      <trkpt lat="46.05479" lon="1.24725">
        <ele>349.2</ele>
        <time>2024-04-28T07:44:47Z</time>
      </trkpt>
      <trkpt lat="46.05484" lon="1.24756">
        <ele>348.8</ele>
        <time>2024-04-28T07:44:51Z</time>
      </trkpt>
      <trkpt lat="46.05487" lon="1.24774">
        <ele>348.6</ele>
        <time>2024-04-28T07:44:53Z</time>
      </trkpt>
      <trkpt lat="46.05491" lon="1.24816">
        <ele>348.6</ele>
        <time>2024-04-28T07:44:59Z</time>
      </trkpt>
      <trkpt lat="46.05491" lon="1.24821">
        <ele>348.8</ele>
        <time>2024-04-28T07:45:00Z</time>
      </trkpt>
      <trkpt lat="46.05496" lon="1.24846">
        <ele>349</ele>
        <time>2024-04-28T07:45:05Z</time>
      </trkpt>
      <trkpt lat="46.05495" lon="1.24852">
        <ele>349.2</ele>
        <time>2024-04-28T07:45:06Z</time>
      </trkpt>
      <trkpt lat="46.05498" lon="1.24897">
        <ele>350</ele>
        <time>2024-04-28T07:45:13Z</time>
      </trkpt>
      <trkpt lat="46.05499" lon="1.24917">
        <ele>350.4</ele>
        <time>2024-04-28T07:45:17Z</time>
      </trkpt>
      <trkpt lat="46.055" lon="1.24926">
        <ele>350.8</ele>
        <time>2024-04-28T07:45:19Z</time>
      </trkpt>
      <trkpt lat="46.055" lon="1.24942">
        <ele>351.4</ele>
        <time>2024-04-28T07:45:23Z</time>
      </trkpt>
      <trkpt lat="46.05499" lon="1.24956">
        <ele>352.2</ele>
        <time>2024-04-28T07:45:27Z</time>
      </trkpt>
      <trkpt lat="46.05499" lon="1.24966">
        <ele>352.6</ele>
        <time>2024-04-28T07:45:30Z</time>
      </trkpt>
      <trkpt lat="46.055" lon="1.24985">
        <ele>353.6</ele>
        <time>2024-04-28T07:45:36Z</time>
      </trkpt>
      <trkpt lat="46.055" lon="1.24988">
        <ele>353.8</ele>
        <time>2024-04-28T07:45:37Z</time>
      </trkpt>
      <trkpt lat="46.055" lon="1.25001">
        <ele>355.2</ele>
        <time>2024-04-28T07:45:41Z</time>
      </trkpt>
      <trkpt lat="46.055" lon="1.25008">
        <ele>355.6</ele>
        <time>2024-04-28T07:45:43Z</time>
      </trkpt>
      <trkpt lat="46.05498" lon="1.25018">
        <ele>356.2</ele>
        <time>2024-04-28T07:45:46Z</time>
      </trkpt>
      <trkpt lat="46.05494" lon="1.25028">
        <ele>356.8</ele>
        <time>2024-04-28T07:45:49Z</time>
      </trkpt>
      <trkpt lat="46.05494" lon="1.25032">
        <ele>357.4</ele>
        <time>2024-04-28T07:45:50Z</time>
      </trkpt>
      <trkpt lat="46.05489" lon="1.2505">
        <ele>358.2</ele>
        <time>2024-04-28T07:45:55Z</time>
      </trkpt>
      <trkpt lat="46.05482" lon="1.25074">
        <ele>357.6</ele>
        <time>2024-04-28T07:46:00Z</time>
      </trkpt>
      <trkpt lat="46.05475" lon="1.25094">
        <ele>356.8</ele>
        <time>2024-04-28T07:46:03Z</time>
      </trkpt>
      <trkpt lat="46.0547" lon="1.25109">
        <ele>356.4</ele>
        <time>2024-04-28T07:46:05Z</time>
      </trkpt>
      <trkpt lat="46.05468" lon="1.25117">
        <ele>356</ele>
        <time>2024-04-28T07:46:06Z</time>
      </trkpt>
      <trkpt lat="46.05459" lon="1.25165">
        <ele>355.2</ele>
        <time>2024-04-28T07:46:12Z</time>
      </trkpt>
      <trkpt lat="46.05457" lon="1.25174">
        <ele>355</ele>
        <time>2024-04-28T07:46:13Z</time>
      </trkpt>
      <trkpt lat="46.0545" lon="1.25208">
        <ele>354.4</ele>
        <time>2024-04-28T07:46:17Z</time>
      </trkpt>
      <trkpt lat="46.05441" lon="1.25244">
        <ele>354</ele>
        <time>2024-04-28T07:46:21Z</time>
      </trkpt>
      <trkpt lat="46.05434" lon="1.25268">
        <ele>354</ele>
        <time>2024-04-28T07:46:24Z</time>
      </trkpt>
      <trkpt lat="46.05419" lon="1.25307">
        <ele>354.2</ele>
        <time>2024-04-28T07:46:30Z</time>
      </trkpt>
      <trkpt lat="46.05414" lon="1.25316">
        <ele>354</ele>
        <time>2024-04-28T07:46:32Z</time>
      </trkpt>
      <trkpt lat="46.05409" lon="1.2532">
        <ele>354</ele>
        <time>2024-04-28T07:46:34Z</time>
      </trkpt>
      <trkpt lat="46.05407" lon="1.25319">
        <ele>353.8</ele>
        <time>2024-04-28T07:46:35Z</time>
      </trkpt>
      <trkpt lat="46.05397" lon="1.25314">
        <ele>353.6</ele>
        <time>2024-04-28T07:46:39Z</time>
      </trkpt>
      <trkpt lat="46.05378" lon="1.25302">
        <ele>353.6</ele>
        <time>2024-04-28T07:46:45Z</time>
      </trkpt>
      <trkpt lat="46.05361" lon="1.25287">
        <ele>353.8</ele>
        <time>2024-04-28T07:46:52Z</time>
      </trkpt>
      <trkpt lat="46.05345" lon="1.25276">
        <ele>353.8</ele>
        <time>2024-04-28T07:46:56Z</time>
      </trkpt>
      <trkpt lat="46.05335" lon="1.25272">
        <ele>353.8</ele>
        <time>2024-04-28T07:46:58Z</time>
      </trkpt>
      <trkpt lat="46.05325" lon="1.25268">
        <ele>353.4</ele>
        <time>2024-04-28T07:47:00Z</time>
      </trkpt>
      <trkpt lat="46.05308" lon="1.25267">
        <ele>353.2</ele>
        <time>2024-04-28T07:47:03Z</time>
      </trkpt>
      <trkpt lat="46.05303" lon="1.25267">
        <ele>353.2</ele>
        <time>2024-04-28T07:47:04Z</time>
      </trkpt>
      <trkpt lat="46.05293" lon="1.25269">
        <ele>352.8</ele>
        <time>2024-04-28T07:47:06Z</time>
      </trkpt>
      <trkpt lat="46.05278" lon="1.25274">
        <ele>353</ele>
        <time>2024-04-28T07:47:09Z</time>
      </trkpt>
      <trkpt lat="46.0526" lon="1.25286">
        <ele>353</ele>
        <time>2024-04-28T07:47:13Z</time>
      </trkpt>
      <trkpt lat="46.05251" lon="1.25293">
        <ele>353</ele>
        <time>2024-04-28T07:47:15Z</time>
      </trkpt>
      <trkpt lat="46.05233" lon="1.25312">
        <ele>353</ele>
        <time>2024-04-28T07:47:20Z</time>
      </trkpt>
      <trkpt lat="46.0523" lon="1.25316">
        <ele>352.8</ele>
        <time>2024-04-28T07:47:21Z</time>
      </trkpt>
      <trkpt lat="46.05227" lon="1.25321">
        <ele>352.6</ele>
        <time>2024-04-28T07:47:22Z</time>
      </trkpt>
      <trkpt lat="46.05219" lon="1.25325">
        <ele>352.4</ele>
        <time>2024-04-28T07:47:24Z</time>
      </trkpt>
      <trkpt lat="46.05203" lon="1.25318">
        <ele>352.4</ele>
        <time>2024-04-28T07:47:28Z</time>
      </trkpt>
      <trkpt lat="46.05158" lon="1.25297">
        <ele>352.6</ele>
        <time>2024-04-28T07:47:39Z</time>
      </trkpt>
      <trkpt lat="46.05148" lon="1.25297">
        <ele>352.8</ele>
        <time>2024-04-28T07:47:43Z</time>
      </trkpt>
      <trkpt lat="46.05138" lon="1.25306">
        <ele>354</ele>
        <time>2024-04-28T07:47:49Z</time>
      </trkpt>
      <trkpt lat="46.05135" lon="1.25312">
        <ele>355.2</ele>
        <time>2024-04-28T07:47:51Z</time>
      </trkpt>
      <trkpt lat="46.0513" lon="1.25324">
        <ele>356</ele>
        <time>2024-04-28T07:47:55Z</time>
      </trkpt>
      <trkpt lat="46.05125" lon="1.25337">
        <ele>356</ele>
        <time>2024-04-28T07:48:00Z</time>
      </trkpt>
      <trkpt lat="46.05122" lon="1.25344">
        <ele>356</ele>
        <time>2024-04-28T07:48:02Z</time>
      </trkpt>
      <trkpt lat="46.05113" lon="1.25361">
        <ele>355.8</ele>
        <time>2024-04-28T07:48:06Z</time>
      </trkpt>
      <trkpt lat="46.05108" lon="1.2537">
        <ele>355.8</ele>
        <time>2024-04-28T07:48:08Z</time>
      </trkpt>
      <trkpt lat="46.05104" lon="1.25381">
        <ele>355.2</ele>
        <time>2024-04-28T07:48:11Z</time>
      </trkpt>
      <trkpt lat="46.05103" lon="1.25386">
        <ele>354.8</ele>
        <time>2024-04-28T07:48:13Z</time>
      </trkpt>
      <trkpt lat="46.05101" lon="1.25398">
        <ele>354</ele>
        <time>2024-04-28T07:48:16Z</time>
      </trkpt>
      <trkpt lat="46.05101" lon="1.25403">
        <ele>353.6</ele>
        <time>2024-04-28T07:48:17Z</time>
      </trkpt>
      <trkpt lat="46.051" lon="1.25409">
        <ele>352.8</ele>
        <time>2024-04-28T07:48:18Z</time>
      </trkpt>
      <trkpt lat="46.05099" lon="1.25414">
        <ele>352.2</ele>
        <time>2024-04-28T07:48:19Z</time>
      </trkpt>
      <trkpt lat="46.05094" lon="1.25425">
        <ele>351.6</ele>
        <time>2024-04-28T07:48:21Z</time>
      </trkpt>
      <trkpt lat="46.05088" lon="1.25436">
        <ele>350.4</ele>
        <time>2024-04-28T07:48:23Z</time>
      </trkpt>
      <trkpt lat="46.05085" lon="1.2544">
        <ele>349</ele>
        <time>2024-04-28T07:48:24Z</time>
      </trkpt>
      <trkpt lat="46.05078" lon="1.25447">
        <ele>348</ele>
        <time>2024-04-28T07:48:26Z</time>
      </trkpt>
      <trkpt lat="46.05064" lon="1.25455">
        <ele>347</ele>
        <time>2024-04-28T07:48:29Z</time>
      </trkpt>
      <trkpt lat="46.05054" lon="1.25461">
        <ele>346.2</ele>
        <time>2024-04-28T07:48:31Z</time>
      </trkpt>
      <trkpt lat="46.05049" lon="1.25463">
        <ele>345.6</ele>
        <time>2024-04-28T07:48:32Z</time>
      </trkpt>
      <trkpt lat="46.05039" lon="1.25469">
        <ele>344.2</ele>
        <time>2024-04-28T07:48:34Z</time>
      </trkpt>
      <trkpt lat="46.05034" lon="1.25472">
        <ele>343</ele>
        <time>2024-04-28T07:48:35Z</time>
      </trkpt>
      <trkpt lat="46.05029" lon="1.25475">
        <ele>342</ele>
        <time>2024-04-28T07:48:36Z</time>
      </trkpt>
      <trkpt lat="46.05025" lon="1.25475">
        <ele>341</ele>
        <time>2024-04-28T07:48:37Z</time>
      </trkpt>
      <trkpt lat="46.0502" lon="1.25476">
        <ele>340.2</ele>
        <time>2024-04-28T07:48:38Z</time>
      </trkpt>
      <trkpt lat="46.05013" lon="1.25478">
        <ele>339.4</ele>
        <time>2024-04-28T07:48:39Z</time>
      </trkpt>
      <trkpt lat="46.05007" lon="1.25478">
        <ele>338.6</ele>
        <time>2024-04-28T07:48:40Z</time>
      </trkpt>
      <trkpt lat="46.05001" lon="1.25478">
        <ele>338</ele>
        <time>2024-04-28T07:48:41Z</time>
      </trkpt>
      <trkpt lat="46.04996" lon="1.25478">
        <ele>337</ele>
        <time>2024-04-28T07:48:42Z</time>
      </trkpt>
      <trkpt lat="46.04992" lon="1.25479">
        <ele>336.4</ele>
        <time>2024-04-28T07:48:43Z</time>
      </trkpt>
      <trkpt lat="46.04989" lon="1.2548">
        <ele>336.2</ele>
        <time>2024-04-28T07:48:44Z</time>
      </trkpt>
      <trkpt lat="46.04987" lon="1.25482">
        <ele>336</ele>
        <time>2024-04-28T07:48:45Z</time>
      </trkpt>
      <trkpt lat="46.04983" lon="1.25491">
        <ele>335.2</ele>
        <time>2024-04-28T07:48:48Z</time>
      </trkpt>
      <trkpt lat="46.04979" lon="1.25495">
        <ele>335</ele>
        <time>2024-04-28T07:48:49Z</time>
      </trkpt>
      <trkpt lat="46.04966" lon="1.25508">
        <ele>334.4</ele>
        <time>2024-04-28T07:48:52Z</time>
      </trkpt>
      <trkpt lat="46.04944" lon="1.25521">
        <ele>334.4</ele>
        <time>2024-04-28T07:48:56Z</time>
      </trkpt>
      <trkpt lat="46.04923" lon="1.25531">
        <ele>334.6</ele>
        <time>2024-04-28T07:49:01Z</time>
      </trkpt>
      <trkpt lat="46.04912" lon="1.25541">
        <ele>335.4</ele>
        <time>2024-04-28T07:49:06Z</time>
      </trkpt>
      <trkpt lat="46.04907" lon="1.25546">
        <ele>336</ele>
        <time>2024-04-28T07:49:09Z</time>
      </trkpt>
      <trkpt lat="46.04902" lon="1.25551">
        <ele>336.6</ele>
        <time>2024-04-28T07:49:12Z</time>
      </trkpt>
      <trkpt lat="46.04898" lon="1.25555">
        <ele>337.6</ele>
        <time>2024-04-28T07:49:14Z</time>
      </trkpt>
      <trkpt lat="46.04886" lon="1.25571">
        <ele>338.4</ele>
        <time>2024-04-28T07:49:19Z</time>
      </trkpt>
      <trkpt lat="46.04884" lon="1.25573">
        <ele>338.2</ele>
        <time>2024-04-28T07:49:20Z</time>
      </trkpt>
      <trkpt lat="46.04871" lon="1.2558">
        <ele>337</ele>
        <time>2024-04-28T07:49:23Z</time>
      </trkpt>
      <trkpt lat="46.04866" lon="1.25584">
        <ele>336.4</ele>
        <time>2024-04-28T07:49:24Z</time>
      </trkpt>
      <trkpt lat="46.04852" lon="1.25593">
        <ele>335.2</ele>
        <time>2024-04-28T07:49:27Z</time>
      </trkpt>
      <trkpt lat="46.04843" lon="1.25606">
        <ele>333.8</ele>
        <time>2024-04-28T07:49:30Z</time>
      </trkpt>
      <trkpt lat="46.0484" lon="1.25613">
        <ele>332.6</ele>
        <time>2024-04-28T07:49:32Z</time>
      </trkpt>
      <trkpt lat="46.04841" lon="1.25614">
        <ele>332.2</ele>
        <time>2024-04-28T07:49:33Z</time>
      </trkpt>
      <trkpt lat="46.0485" lon="1.2562">
        <ele>331.6</ele>
        <time>2024-04-28T07:49:37Z</time>
      </trkpt>
      <trkpt lat="46.04852" lon="1.25623">
        <ele>331.6</ele>
        <time>2024-04-28T07:49:38Z</time>
      </trkpt>
      <trkpt lat="46.04859" lon="1.25626">
        <ele>331.4</ele>
        <time>2024-04-28T07:49:40Z</time>
      </trkpt>
      <trkpt lat="46.04866" lon="1.25631">
        <ele>331.6</ele>
        <time>2024-04-28T07:49:42Z</time>
      </trkpt>
      <trkpt lat="46.04874" lon="1.25635">
        <ele>331.6</ele>
        <time>2024-04-28T07:49:44Z</time>
      </trkpt>
      <trkpt lat="46.04887" lon="1.25645">
        <ele>331.6</ele>
        <time>2024-04-28T07:49:47Z</time>
      </trkpt>
      <trkpt lat="46.04913" lon="1.25672">
        <ele>330.4</ele>
        <time>2024-04-28T07:49:52Z</time>
      </trkpt>
      <trkpt lat="46.04952" lon="1.25709">
        <ele>329.2</ele>
        <time>2024-04-28T07:49:57Z</time>
      </trkpt>
      <trkpt lat="46.04969" lon="1.25726">
        <ele>328.2</ele>
        <time>2024-04-28T07:49:59Z</time>
      </trkpt>
      <trkpt lat="46.04994" lon="1.25751">
        <ele>326.8</ele>
        <time>2024-04-28T07:50:02Z</time>
      </trkpt>
      <trkpt lat="46.05009" lon="1.25767">
        <ele>326</ele>
        <time>2024-04-28T07:50:04Z</time>
      </trkpt>
      <trkpt lat="46.05024" lon="1.25782">
        <ele>325.6</ele>
        <time>2024-04-28T07:50:06Z</time>
      </trkpt>
      <trkpt lat="46.05052" lon="1.25811">
        <ele>325.2</ele>
        <time>2024-04-28T07:50:10Z</time>
      </trkpt>
      <trkpt lat="46.05088" lon="1.25851">
        <ele>325</ele>
        <time>2024-04-28T07:50:16Z</time>
      </trkpt>
      <trkpt lat="46.05128" lon="1.25893">
        <ele>326</ele>
        <time>2024-04-28T07:50:23Z</time>
      </trkpt>
      <trkpt lat="46.05143" lon="1.25913">
        <ele>326.2</ele>
        <time>2024-04-28T07:50:26Z</time>
      </trkpt>
      <trkpt lat="46.0515" lon="1.25928">
        <ele>326</ele>
        <time>2024-04-28T07:50:28Z</time>
      </trkpt>
      <trkpt lat="46.05158" lon="1.25955">
        <ele>326.2</ele>
        <time>2024-04-28T07:50:31Z</time>
      </trkpt>
      <trkpt lat="46.05162" lon="1.25976">
        <ele>326</ele>
        <time>2024-04-28T07:50:33Z</time>
      </trkpt>
      <trkpt lat="46.0518" lon="1.26049">
        <ele>325.8</ele>
        <time>2024-04-28T07:50:40Z</time>
      </trkpt>
      <trkpt lat="46.05198" lon="1.26108">
        <ele>324.6</ele>
        <time>2024-04-28T07:50:46Z</time>
      </trkpt>
      <trkpt lat="46.05204" lon="1.26127">
        <ele>324.2</ele>
        <time>2024-04-28T07:50:48Z</time>
      </trkpt>
      <trkpt lat="46.05215" lon="1.26166">
        <ele>323.6</ele>
        <time>2024-04-28T07:50:52Z</time>
      </trkpt>
      <trkpt lat="46.05217" lon="1.26175">
        <ele>323.4</ele>
        <time>2024-04-28T07:50:53Z</time>
      </trkpt>
      <trkpt lat="46.05228" lon="1.26223">
        <ele>323</ele>
        <time>2024-04-28T07:50:59Z</time>
      </trkpt>
      <trkpt lat="46.05234" lon="1.26247">
        <ele>322.8</ele>
        <time>2024-04-28T07:51:04Z</time>
      </trkpt>
      <trkpt lat="46.05235" lon="1.2625">
        <ele>322.6</ele>
        <time>2024-04-28T07:51:05Z</time>
      </trkpt>
      <trkpt lat="46.05236" lon="1.26256">
        <ele>322.6</ele>
        <time>2024-04-28T07:51:07Z</time>
      </trkpt>
      <trkpt lat="46.05237" lon="1.26258">
        <ele>322.6</ele>
        <time>2024-04-28T07:51:09Z</time>
      </trkpt>
      <trkpt lat="46.05238" lon="1.26258">
        <ele>322.6</ele>
        <time>2024-04-28T07:51:16Z</time>
      </trkpt>
      <trkpt lat="46.05238" lon="1.26258">
        <ele>322.6</ele>
        <time>2024-04-28T07:51:17Z</time>
      </trkpt>
      <trkpt lat="46.05239" lon="1.26258">
        <ele>322.6</ele>
        <time>2024-04-28T07:51:25Z</time>
      </trkpt>
      <trkpt lat="46.05239" lon="1.26258">
        <ele>322</ele>
        <time>2024-04-28T07:51:49Z</time>
      </trkpt>
      <trkpt lat="46.05239" lon="1.26258">
        <ele>322.2</ele>
        <time>2024-04-28T07:52:12Z</time>
      </trkpt>
      <trkpt lat="46.05239" lon="1.26258">
        <ele>322.4</ele>
        <time>2024-04-28T07:53:27Z</time>
      </trkpt>
      <trkpt lat="46.05239" lon="1.26258">
        <ele>322.4</ele>
        <time>2024-04-28T07:54:38Z</time>
      </trkpt>
      <trkpt lat="46.05239" lon="1.26258">
        <ele>322.4</ele>
        <time>2024-04-28T07:55:04Z</time>
      </trkpt>
      <trkpt lat="46.05239" lon="1.26258">
        <ele>322.4</ele>
        <time>2024-04-28T07:55:32Z</time>
      </trkpt>
      <trkpt lat="46.05239" lon="1.26258">
        <ele>322.4</ele>
        <time>2024-04-28T07:56:00Z</time>
      </trkpt>
      <trkpt lat="46.05239" lon="1.26258">
        <ele>322.4</ele>
        <time>2024-04-28T07:56:13Z</time>
      </trkpt>
      <trkpt lat="46.05239" lon="1.26258">
        <ele>322.4</ele>
        <time>2024-04-28T07:56:44Z</time>
      </trkpt>
      <trkpt lat="46.05239" lon="1.26258">
        <ele>322.4</ele>
        <time>2024-04-28T07:57:05Z</time>
      </trkpt>
      <trkpt lat="46.05239" lon="1.26258">
        <ele>322.4</ele>
        <time>2024-04-28T07:57:26Z</time>
      </trkpt>
      <trkpt lat="46.05239" lon="1.26258">
        <ele>322.4</ele>
        <time>2024-04-28T07:58:01Z</time>
      </trkpt>
      <trkpt lat="46.05239" lon="1.26258">
        <ele>322.4</ele>
        <time>2024-04-28T07:58:03Z</time>
      </trkpt>
      <trkpt lat="46.05241" lon="1.26259">
        <ele>322.4</ele>
        <time>2024-04-28T07:58:33Z</time>
      </trkpt>
      <trkpt lat="46.05241" lon="1.26259">
        <ele>322.4</ele>
        <time>2024-04-28T07:58:34Z</time>
      </trkpt>
      <trkpt lat="46.05239" lon="1.26263">
        <ele>322.4</ele>
        <time>2024-04-28T07:58:41Z</time>
      </trkpt>
      <trkpt lat="46.05237" lon="1.26261">
        <ele>322.4</ele>
        <time>2024-04-28T07:58:54Z</time>
      </trkpt>
      <trkpt lat="46.05232" lon="1.26256">
        <ele>322.4</ele>
        <time>2024-04-28T07:59:00Z</time>
      </trkpt>
      <trkpt lat="46.05225" lon="1.26251">
        <ele>322.4</ele>
        <time>2024-04-28T07:59:05Z</time>
      </trkpt>
      <trkpt lat="46.0521" lon="1.26244">
        <ele>324</ele>
        <time>2024-04-28T07:59:12Z</time>
      </trkpt>
      <trkpt lat="46.05199" lon="1.2624">
        <ele>325</ele>
        <time>2024-04-28T07:59:17Z</time>
      </trkpt>
      <trkpt lat="46.05196" lon="1.26239">
        <ele>325</ele>
        <time>2024-04-28T07:59:18Z</time>
      </trkpt>
      <trkpt lat="46.05175" lon="1.26237">
        <ele>326</ele>
        <time>2024-04-28T07:59:26Z</time>
      </trkpt>
      <trkpt lat="46.05173" lon="1.26237">
        <ele>326.2</ele>
        <time>2024-04-28T07:59:27Z</time>
      </trkpt>
      <trkpt lat="46.05157" lon="1.26236">
        <ele>327.2</ele>
        <time>2024-04-28T07:59:33Z</time>
      </trkpt>
      <trkpt lat="46.05149" lon="1.26236">
        <ele>327.6</ele>
        <time>2024-04-28T07:59:36Z</time>
      </trkpt>
      <trkpt lat="46.05144" lon="1.26236">
        <ele>327.6</ele>
        <time>2024-04-28T07:59:38Z</time>
      </trkpt>
      <trkpt lat="46.05129" lon="1.26236">
        <ele>328.2</ele>
        <time>2024-04-28T07:59:44Z</time>
      </trkpt>
      <trkpt lat="46.05126" lon="1.26236">
        <ele>328.2</ele>
        <time>2024-04-28T07:59:45Z</time>
      </trkpt>
      <trkpt lat="46.05112" lon="1.26239">
        <ele>329.4</ele>
        <time>2024-04-28T07:59:51Z</time>
      </trkpt>
      <trkpt lat="46.05106" lon="1.26243">
        <ele>329.8</ele>
        <time>2024-04-28T07:59:54Z</time>
      </trkpt>
      <trkpt lat="46.05094" lon="1.2625">
        <ele>330.4</ele>
        <time>2024-04-28T07:59:59Z</time>
      </trkpt>
      <trkpt lat="46.05087" lon="1.26253">
        <ele>330.6</ele>
        <time>2024-04-28T08:00:02Z</time>
      </trkpt>
      <trkpt lat="46.05078" lon="1.26256">
        <ele>331.6</ele>
        <time>2024-04-28T08:00:06Z</time>
      </trkpt>
      <trkpt lat="46.05067" lon="1.26258">
        <ele>332.2</ele>
        <time>2024-04-28T08:00:10Z</time>
      </trkpt>
      <trkpt lat="46.05057" lon="1.26261">
        <ele>332.6</ele>
        <time>2024-04-28T08:00:14Z</time>
      </trkpt>
      <trkpt lat="46.05047" lon="1.26266">
        <ele>333.4</ele>
        <time>2024-04-28T08:00:18Z</time>
      </trkpt>
      <trkpt lat="46.05039" lon="1.2627">
        <ele>333.8</ele>
        <time>2024-04-28T08:00:21Z</time>
      </trkpt>
      <trkpt lat="46.05024" lon="1.26276">
        <ele>334.2</ele>
        <time>2024-04-28T08:00:26Z</time>
      </trkpt>
      <trkpt lat="46.05005" lon="1.26281">
        <ele>335</ele>
        <time>2024-04-28T08:00:32Z</time>
      </trkpt>
      <trkpt lat="46.04984" lon="1.26287">
        <ele>334.8</ele>
        <time>2024-04-28T08:00:39Z</time>
      </trkpt>
      <trkpt lat="46.04966" lon="1.26298">
        <ele>335.4</ele>
        <time>2024-04-28T08:00:45Z</time>
      </trkpt>
      <trkpt lat="46.04954" lon="1.26306">
        <ele>336.2</ele>
        <time>2024-04-28T08:00:49Z</time>
      </trkpt>
      <trkpt lat="46.04942" lon="1.26307">
        <ele>336.8</ele>
        <time>2024-04-28T08:00:53Z</time>
      </trkpt>
      <trkpt lat="46.04928" lon="1.26304">
        <ele>337.2</ele>
        <time>2024-04-28T08:00:58Z</time>
      </trkpt>
      <trkpt lat="46.04926" lon="1.26303">
        <ele>337.6</ele>
        <time>2024-04-28T08:00:59Z</time>
      </trkpt>
      <trkpt lat="46.0491" lon="1.26299">
        <ele>338.4</ele>
        <time>2024-04-28T08:01:05Z</time>
      </trkpt>
      <trkpt lat="46.04905" lon="1.26297">
        <ele>338.6</ele>
        <time>2024-04-28T08:01:07Z</time>
      </trkpt>
      <trkpt lat="46.04891" lon="1.2629">
        <ele>339.4</ele>
        <time>2024-04-28T08:01:13Z</time>
      </trkpt>
      <trkpt lat="46.04885" lon="1.26288">
        <ele>339.8</ele>
        <time>2024-04-28T08:01:15Z</time>
      </trkpt>
      <trkpt lat="46.04867" lon="1.26281">
        <ele>340.2</ele>
        <time>2024-04-28T08:01:21Z</time>
      </trkpt>
      <trkpt lat="46.04862" lon="1.26278">
        <ele>340.6</ele>
        <time>2024-04-28T08:01:23Z</time>
      </trkpt>
      <trkpt lat="46.04845" lon="1.26271">
        <ele>340.8</ele>
        <time>2024-04-28T08:01:29Z</time>
      </trkpt>
      <trkpt lat="46.04833" lon="1.26263">
        <ele>341.2</ele>
        <time>2024-04-28T08:01:34Z</time>
      </trkpt>
      <trkpt lat="46.04825" lon="1.26256">
        <ele>341.6</ele>
        <time>2024-04-28T08:01:38Z</time>
      </trkpt>
      <trkpt lat="46.04817" lon="1.2625">
        <ele>342</ele>
        <time>2024-04-28T08:01:41Z</time>
      </trkpt>
      <trkpt lat="46.04804" lon="1.26241">
        <ele>342.6</ele>
        <time>2024-04-28T08:01:46Z</time>
      </trkpt>
      <trkpt lat="46.048" lon="1.26235">
        <ele>342.8</ele>
        <time>2024-04-28T08:01:48Z</time>
      </trkpt>
      <trkpt lat="46.04789" lon="1.26218">
        <ele>343.4</ele>
        <time>2024-04-28T08:01:54Z</time>
      </trkpt>
      <trkpt lat="46.04784" lon="1.26212">
        <ele>343.8</ele>
        <time>2024-04-28T08:01:56Z</time>
      </trkpt>
      <trkpt lat="46.04773" lon="1.26197">
        <ele>344.2</ele>
        <time>2024-04-28T08:02:01Z</time>
      </trkpt>
      <trkpt lat="46.04754" lon="1.26182">
        <ele>344.8</ele>
        <time>2024-04-28T08:02:08Z</time>
      </trkpt>
      <trkpt lat="46.04751" lon="1.2618">
        <ele>344.8</ele>
        <time>2024-04-28T08:02:09Z</time>
      </trkpt>
      <trkpt lat="46.04729" lon="1.26165">
        <ele>345.8</ele>
        <time>2024-04-28T08:02:17Z</time>
      </trkpt>
      <trkpt lat="46.04715" lon="1.26151">
        <ele>347</ele>
        <time>2024-04-28T08:02:24Z</time>
      </trkpt>
      <trkpt lat="46.04712" lon="1.26147">
        <ele>347.6</ele>
        <time>2024-04-28T08:02:26Z</time>
      </trkpt>
      <trkpt lat="46.04707" lon="1.26141">
        <ele>348.2</ele>
        <time>2024-04-28T08:02:29Z</time>
      </trkpt>
      <trkpt lat="46.047" lon="1.26131">
        <ele>349</ele>
        <time>2024-04-28T08:02:34Z</time>
      </trkpt>
      <trkpt lat="46.04698" lon="1.26127">
        <ele>349.4</ele>
        <time>2024-04-28T08:02:36Z</time>
      </trkpt>
      <trkpt lat="46.04693" lon="1.2612">
        <ele>350.4</ele>
        <time>2024-04-28T08:02:39Z</time>
      </trkpt>
      <trkpt lat="46.04687" lon="1.26112">
        <ele>351.4</ele>
        <time>2024-04-28T08:02:43Z</time>
      </trkpt>
      <trkpt lat="46.04686" lon="1.26109">
        <ele>351.6</ele>
        <time>2024-04-28T08:02:44Z</time>
      </trkpt>
      <trkpt lat="46.04674" lon="1.26099">
        <ele>352.4</ele>
        <time>2024-04-28T08:02:50Z</time>
      </trkpt>
      <trkpt lat="46.04667" lon="1.26095">
        <ele>352.6</ele>
        <time>2024-04-28T08:02:53Z</time>
      </trkpt>
      <trkpt lat="46.04659" lon="1.26091">
        <ele>353</ele>
        <time>2024-04-28T08:02:57Z</time>
      </trkpt>
      <trkpt lat="46.04642" lon="1.26077">
        <ele>353.6</ele>
        <time>2024-04-28T08:03:03Z</time>
      </trkpt>
      <trkpt lat="46.04627" lon="1.26063">
        <ele>353</ele>
        <time>2024-04-28T08:03:07Z</time>
      </trkpt>
      <trkpt lat="46.04617" lon="1.26052">
        <ele>352.6</ele>
        <time>2024-04-28T08:03:08Z</time>
      </trkpt>
      <trkpt lat="46.04617" lon="1.26052">
        <ele>352.6</ele>
        <time>2024-04-28T08:03:09Z</time>
      </trkpt>
      <trkpt lat="46.04607" lon="1.26044">
        <ele>352</ele>
        <time>2024-04-28T08:03:11Z</time>
      </trkpt>
      <trkpt lat="46.04602" lon="1.26043">
        <ele>351.2</ele>
        <time>2024-04-28T08:03:12Z</time>
      </trkpt>
      <trkpt lat="46.04598" lon="1.26044">
        <ele>350.6</ele>
        <time>2024-04-28T08:03:13Z</time>
      </trkpt>
      <trkpt lat="46.04593" lon="1.26045">
        <ele>350</ele>
        <time>2024-04-28T08:03:14Z</time>
      </trkpt>
      <trkpt lat="46.0458" lon="1.26047">
        <ele>349.4</ele>
        <time>2024-04-28T08:03:17Z</time>
      </trkpt>
      <trkpt lat="46.04564" lon="1.26049">
        <ele>350.4</ele>
        <time>2024-04-28T08:03:21Z</time>
      </trkpt>
      <trkpt lat="46.04557" lon="1.26052">
        <ele>351</ele>
        <time>2024-04-28T08:03:23Z</time>
      </trkpt>
      <trkpt lat="46.0455" lon="1.26054">
        <ele>351.2</ele>
        <time>2024-04-28T08:03:25Z</time>
      </trkpt>
      <trkpt lat="46.0454" lon="1.26057">
        <ele>352</ele>
        <time>2024-04-28T08:03:29Z</time>
      </trkpt>
      <trkpt lat="46.04535" lon="1.26058">
        <ele>352.4</ele>
        <time>2024-04-28T08:03:31Z</time>
      </trkpt>
      <trkpt lat="46.04522" lon="1.26058">
        <ele>353.8</ele>
        <time>2024-04-28T08:03:36Z</time>
      </trkpt>
      <trkpt lat="46.0452" lon="1.26057">
        <ele>354.2</ele>
        <time>2024-04-28T08:03:37Z</time>
      </trkpt>
      <trkpt lat="46.04514" lon="1.26057">
        <ele>355</ele>
        <time>2024-04-28T08:03:40Z</time>
      </trkpt>
      <trkpt lat="46.04509" lon="1.26062">
        <ele>355.4</ele>
        <time>2024-04-28T08:03:43Z</time>
      </trkpt>
      <trkpt lat="46.04506" lon="1.26071">
        <ele>356.2</ele>
        <time>2024-04-28T08:03:47Z</time>
      </trkpt>
      <trkpt lat="46.04504" lon="1.26075">
        <ele>357.2</ele>
        <time>2024-04-28T08:03:49Z</time>
      </trkpt>
      <trkpt lat="46.04503" lon="1.26077">
        <ele>357.4</ele>
        <time>2024-04-28T08:03:50Z</time>
      </trkpt>
      <trkpt lat="46.04497" lon="1.26088">
        <ele>358.2</ele>
        <time>2024-04-28T08:03:56Z</time>
      </trkpt>
      <trkpt lat="46.04496" lon="1.2609">
        <ele>358.6</ele>
        <time>2024-04-28T08:03:57Z</time>
      </trkpt>
      <trkpt lat="46.04488" lon="1.261">
        <ele>359.8</ele>
        <time>2024-04-28T08:04:02Z</time>
      </trkpt>
      <trkpt lat="46.04486" lon="1.26102">
        <ele>360.2</ele>
        <time>2024-04-28T08:04:03Z</time>
      </trkpt>
      <trkpt lat="46.04476" lon="1.26111">
        <ele>361</ele>
        <time>2024-04-28T08:04:09Z</time>
      </trkpt>
      <trkpt lat="46.04474" lon="1.26113">
        <ele>361</ele>
        <time>2024-04-28T08:04:10Z</time>
      </trkpt>
      <trkpt lat="46.0446" lon="1.2613">
        <ele>361.4</ele>
        <time>2024-04-28T08:04:17Z</time>
      </trkpt>
      <trkpt lat="46.04449" lon="1.26143">
        <ele>362</ele>
        <time>2024-04-28T08:04:23Z</time>
      </trkpt>
      <trkpt lat="46.04447" lon="1.26145">
        <ele>362</ele>
        <time>2024-04-28T08:04:24Z</time>
      </trkpt>
      <trkpt lat="46.04434" lon="1.26156">
        <ele>362.4</ele>
        <time>2024-04-28T08:04:30Z</time>
      </trkpt>
      <trkpt lat="46.04418" lon="1.26168">
        <ele>363</ele>
        <time>2024-04-28T08:04:36Z</time>
      </trkpt>
      <trkpt lat="46.04415" lon="1.2617">
        <ele>363.2</ele>
        <time>2024-04-28T08:04:37Z</time>
      </trkpt>
      <trkpt lat="46.04401" lon="1.26179">
        <ele>364.2</ele>
        <time>2024-04-28T08:04:43Z</time>
      </trkpt>
      <trkpt lat="46.04383" lon="1.26186">
        <ele>364.6</ele>
        <time>2024-04-28T08:04:49Z</time>
      </trkpt>
      <trkpt lat="46.04369" lon="1.26195">
        <ele>365.2</ele>
        <time>2024-04-28T08:04:55Z</time>
      </trkpt>
      <trkpt lat="46.04355" lon="1.26201">
        <ele>366.2</ele>
        <time>2024-04-28T08:05:01Z</time>
      </trkpt>
      <trkpt lat="46.04353" lon="1.26202">
        <ele>366.4</ele>
        <time>2024-04-28T08:05:02Z</time>
      </trkpt>
      <trkpt lat="46.04338" lon="1.26208">
        <ele>366.8</ele>
        <time>2024-04-28T08:05:08Z</time>
      </trkpt>
      <trkpt lat="46.04325" lon="1.26212">
        <ele>367.4</ele>
        <time>2024-04-28T08:05:13Z</time>
      </trkpt>
      <trkpt lat="46.04322" lon="1.26213">
        <ele>367.6</ele>
        <time>2024-04-28T08:05:14Z</time>
      </trkpt>
      <trkpt lat="46.04308" lon="1.26219">
        <ele>367.6</ele>
        <time>2024-04-28T08:05:19Z</time>
      </trkpt>
      <trkpt lat="46.0429" lon="1.26236">
        <ele>368</ele>
        <time>2024-04-28T08:05:26Z</time>
      </trkpt>
      <trkpt lat="46.04276" lon="1.26255">
        <ele>368.2</ele>
        <time>2024-04-28T08:05:32Z</time>
      </trkpt>
      <trkpt lat="46.04274" lon="1.26257">
        <ele>368.4</ele>
        <time>2024-04-28T08:05:33Z</time>
      </trkpt>
      <trkpt lat="46.04259" lon="1.26274">
        <ele>369</ele>
        <time>2024-04-28T08:05:39Z</time>
      </trkpt>
      <trkpt lat="46.04241" lon="1.26289">
        <ele>369.6</ele>
        <time>2024-04-28T08:05:45Z</time>
      </trkpt>
      <trkpt lat="46.04234" lon="1.26296">
        <ele>369.6</ele>
        <time>2024-04-28T08:05:47Z</time>
      </trkpt>
      <trkpt lat="46.04221" lon="1.26305">
        <ele>369.8</ele>
        <time>2024-04-28T08:05:51Z</time>
      </trkpt>
      <trkpt lat="46.0421" lon="1.26312">
        <ele>370.6</ele>
        <time>2024-04-28T08:05:55Z</time>
      </trkpt>
      <trkpt lat="46.042" lon="1.26319">
        <ele>371</ele>
        <time>2024-04-28T08:05:58Z</time>
      </trkpt>
      <trkpt lat="46.04191" lon="1.26325">
        <ele>371.6</ele>
        <time>2024-04-28T08:06:01Z</time>
      </trkpt>
      <trkpt lat="46.04181" lon="1.2633">
        <ele>372.8</ele>
        <time>2024-04-28T08:06:05Z</time>
      </trkpt>
      <trkpt lat="46.04167" lon="1.26337">
        <ele>373.8</ele>
        <time>2024-04-28T08:06:10Z</time>
      </trkpt>
      <trkpt lat="46.04161" lon="1.2634">
        <ele>374</ele>
        <time>2024-04-28T08:06:12Z</time>
      </trkpt>
      <trkpt lat="46.04145" lon="1.26344">
        <ele>375</ele>
        <time>2024-04-28T08:06:18Z</time>
      </trkpt>
      <trkpt lat="46.04142" lon="1.26345">
        <ele>375.2</ele>
        <time>2024-04-28T08:06:20Z</time>
      </trkpt>
      <trkpt lat="46.0413" lon="1.26345">
        <ele>376</ele>
        <time>2024-04-28T08:06:27Z</time>
      </trkpt>
      <trkpt lat="46.04127" lon="1.26346">
        <ele>376.2</ele>
        <time>2024-04-28T08:06:28Z</time>
      </trkpt>
      <trkpt lat="46.04121" lon="1.26345">
        <ele>377.2</ele>
        <time>2024-04-28T08:06:31Z</time>
      </trkpt>
      <trkpt lat="46.04112" lon="1.26343">
        <ele>377.8</ele>
        <time>2024-04-28T08:06:36Z</time>
      </trkpt>
      <trkpt lat="46.04109" lon="1.26342">
        <ele>378.2</ele>
        <time>2024-04-28T08:06:38Z</time>
      </trkpt>
      <trkpt lat="46.041" lon="1.26339">
        <ele>379.2</ele>
        <time>2024-04-28T08:06:44Z</time>
      </trkpt>
      <trkpt lat="46.04096" lon="1.26337">
        <ele>379.6</ele>
        <time>2024-04-28T08:06:46Z</time>
      </trkpt>
      <trkpt lat="46.04087" lon="1.26333">
        <ele>380.6</ele>
        <time>2024-04-28T08:06:51Z</time>
      </trkpt>
      <trkpt lat="46.04084" lon="1.26331">
        <ele>380.8</ele>
        <time>2024-04-28T08:06:53Z</time>
      </trkpt>
      <trkpt lat="46.04078" lon="1.26326">
        <ele>381.6</ele>
        <time>2024-04-28T08:06:57Z</time>
      </trkpt>
      <trkpt lat="46.04071" lon="1.26323">
        <ele>382</ele>
        <time>2024-04-28T08:07:01Z</time>
      </trkpt>
      <trkpt lat="46.04066" lon="1.26319">
        <ele>382.4</ele>
        <time>2024-04-28T08:07:05Z</time>
      </trkpt>
      <trkpt lat="46.04062" lon="1.26315">
        <ele>382.4</ele>
        <time>2024-04-28T08:07:07Z</time>
      </trkpt>
      <trkpt lat="46.04057" lon="1.26308">
        <ele>382.8</ele>
        <time>2024-04-28T08:07:10Z</time>
      </trkpt>
      <trkpt lat="46.04054" lon="1.26307">
        <ele>382.8</ele>
        <time>2024-04-28T08:07:11Z</time>
      </trkpt>
      <trkpt lat="46.04049" lon="1.26305">
        <ele>383</ele>
        <time>2024-04-28T08:07:13Z</time>
      </trkpt>
      <trkpt lat="46.04036" lon="1.26297">
        <ele>383</ele>
        <time>2024-04-28T08:07:19Z</time>
      </trkpt>
      <trkpt lat="46.04018" lon="1.26286">
        <ele>383.8</ele>
        <time>2024-04-28T08:07:26Z</time>
      </trkpt>
      <trkpt lat="46.03996" lon="1.26275">
        <ele>384.8</ele>
        <time>2024-04-28T08:07:33Z</time>
      </trkpt>
      <trkpt lat="46.03994" lon="1.26273">
        <ele>385.2</ele>
        <time>2024-04-28T08:07:34Z</time>
      </trkpt>
      <trkpt lat="46.03988" lon="1.26269">
        <ele>385.6</ele>
        <time>2024-04-28T08:07:37Z</time>
      </trkpt>
      <trkpt lat="46.03983" lon="1.26268">
        <ele>385.8</ele>
        <time>2024-04-28T08:07:39Z</time>
      </trkpt>
      <trkpt lat="46.03968" lon="1.26261">
        <ele>386.2</ele>
        <time>2024-04-28T08:07:44Z</time>
      </trkpt>
      <trkpt lat="46.03963" lon="1.2626">
        <ele>386.8</ele>
        <time>2024-04-28T08:07:46Z</time>
      </trkpt>
      <trkpt lat="46.03956" lon="1.26259">
        <ele>387.2</ele>
        <time>2024-04-28T08:07:49Z</time>
      </trkpt>
      <trkpt lat="46.03944" lon="1.26255">
        <ele>388</ele>
        <time>2024-04-28T08:07:54Z</time>
      </trkpt>
      <trkpt lat="46.03941" lon="1.26255">
        <ele>388.2</ele>
        <time>2024-04-28T08:07:55Z</time>
      </trkpt>
      <trkpt lat="46.03926" lon="1.26252">
        <ele>389</ele>
        <time>2024-04-28T08:08:00Z</time>
      </trkpt>
      <trkpt lat="46.03917" lon="1.26251">
        <ele>389.4</ele>
        <time>2024-04-28T08:08:03Z</time>
      </trkpt>
      <trkpt lat="46.03909" lon="1.26249">
        <ele>389.4</ele>
        <time>2024-04-28T08:08:07Z</time>
      </trkpt>
      <trkpt lat="46.03887" lon="1.26239">
        <ele>389.8</ele>
        <time>2024-04-28T08:08:13Z</time>
      </trkpt>
      <trkpt lat="46.03853" lon="1.26222">
        <ele>388.8</ele>
        <time>2024-04-28T08:08:19Z</time>
      </trkpt>
      <trkpt lat="46.03846" lon="1.26219">
        <ele>387.8</ele>
        <time>2024-04-28T08:08:20Z</time>
      </trkpt>
      <trkpt lat="46.03833" lon="1.26216">
        <ele>386.8</ele>
        <time>2024-04-28T08:08:22Z</time>
      </trkpt>
      <trkpt lat="46.03828" lon="1.26213">
        <ele>386.4</ele>
        <time>2024-04-28T08:08:23Z</time>
      </trkpt>
      <trkpt lat="46.03824" lon="1.26209">
        <ele>385.8</ele>
        <time>2024-04-28T08:08:24Z</time>
      </trkpt>
      <trkpt lat="46.03821" lon="1.26204">
        <ele>385.2</ele>
        <time>2024-04-28T08:08:25Z</time>
      </trkpt>
      <trkpt lat="46.0382" lon="1.26193">
        <ele>384</ele>
        <time>2024-04-28T08:08:27Z</time>
      </trkpt>
      <trkpt lat="46.03824" lon="1.2618">
        <ele>382.8</ele>
        <time>2024-04-28T08:08:30Z</time>
      </trkpt>
      <trkpt lat="46.03825" lon="1.26176">
        <ele>382.8</ele>
        <time>2024-04-28T08:08:31Z</time>
      </trkpt>
      <trkpt lat="46.03825" lon="1.26159">
        <ele>382.4</ele>
        <time>2024-04-28T08:08:34Z</time>
      </trkpt>
      <trkpt lat="46.03823" lon="1.26153">
        <ele>382.2</ele>
        <time>2024-04-28T08:08:35Z</time>
      </trkpt>
      <trkpt lat="46.03818" lon="1.26142">
        <ele>382.4</ele>
        <time>2024-04-28T08:08:37Z</time>
      </trkpt>
      <trkpt lat="46.03809" lon="1.2613">
        <ele>382.8</ele>
        <time>2024-04-28T08:08:40Z</time>
      </trkpt>
      <trkpt lat="46.03791" lon="1.26104">
        <ele>384.2</ele>
        <time>2024-04-28T08:08:47Z</time>
      </trkpt>
      <trkpt lat="46.03778" lon="1.26091">
        <ele>385.4</ele>
        <time>2024-04-28T08:08:52Z</time>
      </trkpt>
      <trkpt lat="46.03774" lon="1.26087">
        <ele>386.2</ele>
        <time>2024-04-28T08:08:54Z</time>
      </trkpt>
      <trkpt lat="46.03769" lon="1.26083">
        <ele>386.8</ele>
        <time>2024-04-28T08:08:56Z</time>
      </trkpt>
      <trkpt lat="46.0376" lon="1.26077">
        <ele>387.4</ele>
        <time>2024-04-28T08:09:00Z</time>
      </trkpt>
      <trkpt lat="46.03755" lon="1.26074">
        <ele>387.8</ele>
        <time>2024-04-28T08:09:02Z</time>
      </trkpt>
      <trkpt lat="46.03742" lon="1.2607">
        <ele>388.4</ele>
        <time>2024-04-28T08:09:07Z</time>
      </trkpt>
      <trkpt lat="46.0372" lon="1.26064">
        <ele>388.2</ele>
        <time>2024-04-28T08:09:13Z</time>
      </trkpt>
      <trkpt lat="46.03716" lon="1.26064">
        <ele>388.2</ele>
        <time>2024-04-28T08:09:14Z</time>
      </trkpt>
      <trkpt lat="46.037" lon="1.26064">
        <ele>388.2</ele>
        <time>2024-04-28T08:09:19Z</time>
      </trkpt>
      <trkpt lat="46.03686" lon="1.26065">
        <ele>389</ele>
        <time>2024-04-28T08:09:25Z</time>
      </trkpt>
      <trkpt lat="46.0368" lon="1.26066">
        <ele>389.2</ele>
        <time>2024-04-28T08:09:27Z</time>
      </trkpt>
      <trkpt lat="46.03668" lon="1.26068">
        <ele>390</ele>
        <time>2024-04-28T08:09:30Z</time>
      </trkpt>
      <trkpt lat="46.03656" lon="1.26072">
        <ele>389.8</ele>
        <time>2024-04-28T08:09:33Z</time>
      </trkpt>
      <trkpt lat="46.0363" lon="1.26077">
        <ele>389.6</ele>
        <time>2024-04-28T08:09:38Z</time>
      </trkpt>
      <trkpt lat="46.03618" lon="1.26076">
        <ele>389.4</ele>
        <time>2024-04-28T08:09:40Z</time>
      </trkpt>
      <trkpt lat="46.03602" lon="1.26073">
        <ele>388.8</ele>
        <time>2024-04-28T08:09:43Z</time>
      </trkpt>
      <trkpt lat="46.03597" lon="1.26071">
        <ele>388.6</ele>
        <time>2024-04-28T08:09:44Z</time>
      </trkpt>
      <trkpt lat="46.03564" lon="1.2606">
        <ele>389.4</ele>
        <time>2024-04-28T08:09:51Z</time>
      </trkpt>
      <trkpt lat="46.03558" lon="1.26059">
        <ele>389.4</ele>
        <time>2024-04-28T08:09:52Z</time>
      </trkpt>
      <trkpt lat="46.03539" lon="1.26052">
        <ele>389.4</ele>
        <time>2024-04-28T08:09:55Z</time>
      </trkpt>
      <trkpt lat="46.03532" lon="1.26049">
        <ele>389</ele>
        <time>2024-04-28T08:09:56Z</time>
      </trkpt>
      <trkpt lat="46.03526" lon="1.26044">
        <ele>388.6</ele>
        <time>2024-04-28T08:09:57Z</time>
      </trkpt>
      <trkpt lat="46.03514" lon="1.2603">
        <ele>387.4</ele>
        <time>2024-04-28T08:09:59Z</time>
      </trkpt>
      <trkpt lat="46.03472" lon="1.25971">
        <ele>386.6</ele>
        <time>2024-04-28T08:10:07Z</time>
      </trkpt>
      <trkpt lat="46.03467" lon="1.25965">
        <ele>386.2</ele>
        <time>2024-04-28T08:10:08Z</time>
      </trkpt>
      <trkpt lat="46.03458" lon="1.25951">
        <ele>385.8</ele>
        <time>2024-04-28T08:10:10Z</time>
      </trkpt>
      <trkpt lat="46.03452" lon="1.25936">
        <ele>385.8</ele>
        <time>2024-04-28T08:10:12Z</time>
      </trkpt>
      <trkpt lat="46.03441" lon="1.25903">
        <ele>385.6</ele>
        <time>2024-04-28T08:10:17Z</time>
      </trkpt>
      <trkpt lat="46.03443" lon="1.25891">
        <ele>385.4</ele>
        <time>2024-04-28T08:10:19Z</time>
      </trkpt>
      <trkpt lat="46.03445" lon="1.25887">
        <ele>385.4</ele>
        <time>2024-04-28T08:10:20Z</time>
      </trkpt>
      <trkpt lat="46.03448" lon="1.25885">
        <ele>385.2</ele>
        <time>2024-04-28T08:10:21Z</time>
      </trkpt>
      <trkpt lat="46.03451" lon="1.25883">
        <ele>384.8</ele>
        <time>2024-04-28T08:10:22Z</time>
      </trkpt>
      <trkpt lat="46.03456" lon="1.25883">
        <ele>384.2</ele>
        <time>2024-04-28T08:10:23Z</time>
      </trkpt>
      <trkpt lat="46.0346" lon="1.25881">
        <ele>383.8</ele>
        <time>2024-04-28T08:10:24Z</time>
      </trkpt>
      <trkpt lat="46.03486" lon="1.25872">
        <ele>383.6</ele>
        <time>2024-04-28T08:10:29Z</time>
      </trkpt>
      <trkpt lat="46.03511" lon="1.25859">
        <ele>383.6</ele>
        <time>2024-04-28T08:10:35Z</time>
      </trkpt>
      <trkpt lat="46.0352" lon="1.25854">
        <ele>383.8</ele>
        <time>2024-04-28T08:10:37Z</time>
      </trkpt>
      <trkpt lat="46.03524" lon="1.25851">
        <ele>383.6</ele>
        <time>2024-04-28T08:10:38Z</time>
      </trkpt>
      <trkpt lat="46.03531" lon="1.25847">
        <ele>383.6</ele>
        <time>2024-04-28T08:10:40Z</time>
      </trkpt>
      <trkpt lat="46.03556" lon="1.2584">
        <ele>383.8</ele>
        <time>2024-04-28T08:10:45Z</time>
      </trkpt>
      <trkpt lat="46.03589" lon="1.25831">
        <ele>382.6</ele>
        <time>2024-04-28T08:10:51Z</time>
      </trkpt>
      <trkpt lat="46.03629" lon="1.25824">
        <ele>381.4</ele>
        <time>2024-04-28T08:10:56Z</time>
      </trkpt>
      <trkpt lat="46.03683" lon="1.25814">
        <ele>380.2</ele>
        <time>2024-04-28T08:11:03Z</time>
      </trkpt>
      <trkpt lat="46.03722" lon="1.25808">
        <ele>379</ele>
        <time>2024-04-28T08:11:08Z</time>
      </trkpt>
      <trkpt lat="46.03764" lon="1.25804">
        <ele>378</ele>
        <time>2024-04-28T08:11:13Z</time>
      </trkpt>
      <trkpt lat="46.03788" lon="1.258">
        <ele>376.2</ele>
        <time>2024-04-28T08:11:16Z</time>
      </trkpt>
      <trkpt lat="46.03807" lon="1.25797">
        <ele>375.4</ele>
        <time>2024-04-28T08:11:18Z</time>
      </trkpt>
      <trkpt lat="46.03815" lon="1.25795">
        <ele>375.2</ele>
        <time>2024-04-28T08:11:19Z</time>
      </trkpt>
      <trkpt lat="46.03849" lon="1.2579">
        <ele>374.2</ele>
        <time>2024-04-28T08:11:23Z</time>
      </trkpt>
      <trkpt lat="46.03856" lon="1.2579">
        <ele>373.8</ele>
        <time>2024-04-28T08:11:24Z</time>
      </trkpt>
      <trkpt lat="46.03867" lon="1.25789">
        <ele>373</ele>
        <time>2024-04-28T08:11:26Z</time>
      </trkpt>
      <trkpt lat="46.03877" lon="1.25788">
        <ele>372</ele>
        <time>2024-04-28T08:11:28Z</time>
      </trkpt>
      <trkpt lat="46.03881" lon="1.25788">
        <ele>371.8</ele>
        <time>2024-04-28T08:11:29Z</time>
      </trkpt>
      <trkpt lat="46.03886" lon="1.25787">
        <ele>370.4</ele>
        <time>2024-04-28T08:11:31Z</time>
      </trkpt>
      <trkpt lat="46.03889" lon="1.25787">
        <ele>370.2</ele>
        <time>2024-04-28T08:11:32Z</time>
      </trkpt>
      <trkpt lat="46.03904" lon="1.25786">
        <ele>369.6</ele>
        <time>2024-04-28T08:11:36Z</time>
      </trkpt>
      <trkpt lat="46.03908" lon="1.25786">
        <ele>369.6</ele>
        <time>2024-04-28T08:11:37Z</time>
      </trkpt>
      <trkpt lat="46.03913" lon="1.25786">
        <ele>369.4</ele>
        <time>2024-04-28T08:11:38Z</time>
      </trkpt>
      <trkpt lat="46.03938" lon="1.25789">
        <ele>368</ele>
        <time>2024-04-28T08:11:42Z</time>
      </trkpt>
      <trkpt lat="46.03962" lon="1.25791">
        <ele>367.2</ele>
        <time>2024-04-28T08:11:46Z</time>
      </trkpt>
      <trkpt lat="46.03967" lon="1.25792">
        <ele>366.4</ele>
        <time>2024-04-28T08:11:47Z</time>
      </trkpt>
      <trkpt lat="46.03971" lon="1.25794">
        <ele>365.8</ele>
        <time>2024-04-28T08:11:48Z</time>
      </trkpt>
      <trkpt lat="46.03974" lon="1.25797">
        <ele>365.2</ele>
        <time>2024-04-28T08:11:49Z</time>
      </trkpt>
      <trkpt lat="46.03984" lon="1.25805">
        <ele>364.6</ele>
        <time>2024-04-28T08:11:51Z</time>
      </trkpt>
      <trkpt lat="46.03989" lon="1.25809">
        <ele>364</ele>
        <time>2024-04-28T08:11:52Z</time>
      </trkpt>
      <trkpt lat="46.04009" lon="1.2582">
        <ele>362.8</ele>
        <time>2024-04-28T08:11:55Z</time>
      </trkpt>
      <trkpt lat="46.04017" lon="1.25822">
        <ele>362.6</ele>
        <time>2024-04-28T08:11:56Z</time>
      </trkpt>
      <trkpt lat="46.04033" lon="1.25827">
        <ele>361.6</ele>
        <time>2024-04-28T08:11:58Z</time>
      </trkpt>
      <trkpt lat="46.04059" lon="1.25832">
        <ele>360</ele>
        <time>2024-04-28T08:12:01Z</time>
      </trkpt>
      <trkpt lat="46.0407" lon="1.25833">
        <ele>358.4</ele>
        <time>2024-04-28T08:12:03Z</time>
      </trkpt>
      <trkpt lat="46.04083" lon="1.25833">
        <ele>357.4</ele>
        <time>2024-04-28T08:12:05Z</time>
      </trkpt>
      <trkpt lat="46.04102" lon="1.25829">
        <ele>356.2</ele>
        <time>2024-04-28T08:12:08Z</time>
      </trkpt>
      <trkpt lat="46.04115" lon="1.25824">
        <ele>355</ele>
        <time>2024-04-28T08:12:10Z</time>
      </trkpt>
      <trkpt lat="46.04129" lon="1.25817">
        <ele>353.2</ele>
        <time>2024-04-28T08:12:12Z</time>
      </trkpt>
      <trkpt lat="46.04134" lon="1.25813">
        <ele>352</ele>
        <time>2024-04-28T08:12:13Z</time>
      </trkpt>
      <trkpt lat="46.0414" lon="1.25809">
        <ele>350.8</ele>
        <time>2024-04-28T08:12:14Z</time>
      </trkpt>
      <trkpt lat="46.04145" lon="1.25804">
        <ele>350.2</ele>
        <time>2024-04-28T08:12:15Z</time>
      </trkpt>
      <trkpt lat="46.04152" lon="1.25801">
        <ele>349.6</ele>
        <time>2024-04-28T08:12:16Z</time>
      </trkpt>
      <trkpt lat="46.04173" lon="1.25789">
        <ele>348.8</ele>
        <time>2024-04-28T08:12:19Z</time>
      </trkpt>
      <trkpt lat="46.04179" lon="1.25786">
        <ele>347.6</ele>
        <time>2024-04-28T08:12:20Z</time>
      </trkpt>
      <trkpt lat="46.04193" lon="1.25779">
        <ele>346.8</ele>
        <time>2024-04-28T08:12:23Z</time>
      </trkpt>
      <trkpt lat="46.04198" lon="1.25778">
        <ele>346.2</ele>
        <time>2024-04-28T08:12:24Z</time>
      </trkpt>
      <trkpt lat="46.04202" lon="1.25776">
        <ele>345</ele>
        <time>2024-04-28T08:12:25Z</time>
      </trkpt>
      <trkpt lat="46.04209" lon="1.25772">
        <ele>344</ele>
        <time>2024-04-28T08:12:27Z</time>
      </trkpt>
      <trkpt lat="46.04213" lon="1.25766">
        <ele>343.6</ele>
        <time>2024-04-28T08:12:29Z</time>
      </trkpt>
      <trkpt lat="46.04216" lon="1.25762">
        <ele>342.6</ele>
        <time>2024-04-28T08:12:31Z</time>
      </trkpt>
      <trkpt lat="46.04221" lon="1.25755">
        <ele>343.2</ele>
        <time>2024-04-28T08:12:34Z</time>
      </trkpt>
      <trkpt lat="46.04232" lon="1.25742">
        <ele>343.6</ele>
        <time>2024-04-28T08:12:38Z</time>
      </trkpt>
      <trkpt lat="46.04235" lon="1.25733">
        <ele>343.6</ele>
        <time>2024-04-28T08:12:40Z</time>
      </trkpt>
      <trkpt lat="46.04236" lon="1.25728">
        <ele>343.4</ele>
        <time>2024-04-28T08:12:41Z</time>
      </trkpt>
      <trkpt lat="46.04235" lon="1.25717">
        <ele>343.2</ele>
        <time>2024-04-28T08:12:43Z</time>
      </trkpt>
      <trkpt lat="46.04233" lon="1.25713">
        <ele>343.2</ele>
        <time>2024-04-28T08:12:44Z</time>
      </trkpt>
      <trkpt lat="46.0422" lon="1.25695">
        <ele>343.8</ele>
        <time>2024-04-28T08:12:49Z</time>
      </trkpt>
      <trkpt lat="46.04211" lon="1.25682">
        <ele>344.4</ele>
        <time>2024-04-28T08:12:54Z</time>
      </trkpt>
      <trkpt lat="46.04208" lon="1.25678">
        <ele>344.8</ele>
        <time>2024-04-28T08:12:56Z</time>
      </trkpt>
      <trkpt lat="46.04195" lon="1.25667">
        <ele>346.2</ele>
        <time>2024-04-28T08:13:01Z</time>
      </trkpt>
      <trkpt lat="46.04192" lon="1.25665">
        <ele>346.6</ele>
        <time>2024-04-28T08:13:04Z</time>
      </trkpt>
      <trkpt lat="46.0419" lon="1.25664">
        <ele>347.2</ele>
        <time>2024-04-28T08:13:05Z</time>
      </trkpt>
      <trkpt lat="46.04188" lon="1.25663">
        <ele>347.8</ele>
        <time>2024-04-28T08:13:07Z</time>
      </trkpt>
      <trkpt lat="46.04184" lon="1.25661">
        <ele>348.2</ele>
        <time>2024-04-28T08:13:09Z</time>
      </trkpt>
      <trkpt lat="46.04183" lon="1.2566">
        <ele>348.4</ele>
        <time>2024-04-28T08:13:10Z</time>
      </trkpt>
      <trkpt lat="46.04178" lon="1.25656">
        <ele>349.4</ele>
        <time>2024-04-28T08:13:13Z</time>
      </trkpt>
      <trkpt lat="46.04176" lon="1.25655">
        <ele>349.4</ele>
        <time>2024-04-28T08:13:14Z</time>
      </trkpt>
      <trkpt lat="46.04165" lon="1.25644">
        <ele>350.6</ele>
        <time>2024-04-28T08:13:20Z</time>
      </trkpt>
      <trkpt lat="46.04164" lon="1.25642">
        <ele>351.2</ele>
        <time>2024-04-28T08:13:22Z</time>
      </trkpt>
      <trkpt lat="46.04159" lon="1.25637">
        <ele>351.6</ele>
        <time>2024-04-28T08:13:26Z</time>
      </trkpt>
      <trkpt lat="46.04158" lon="1.25635">
        <ele>351.8</ele>
        <time>2024-04-28T08:13:27Z</time>
      </trkpt>
      <trkpt lat="46.04148" lon="1.25625">
        <ele>352.2</ele>
        <time>2024-04-28T08:13:34Z</time>
      </trkpt>
      <trkpt lat="46.04146" lon="1.25623">
        <ele>352.2</ele>
        <time>2024-04-28T08:13:35Z</time>
      </trkpt>
      <trkpt lat="46.0414" lon="1.25614">
        <ele>351.8</ele>
        <time>2024-04-28T08:13:39Z</time>
      </trkpt>
      <trkpt lat="46.04137" lon="1.2561">
        <ele>351.6</ele>
        <time>2024-04-28T08:13:40Z</time>
      </trkpt>
      <trkpt lat="46.04133" lon="1.25605">
        <ele>351.4</ele>
        <time>2024-04-28T08:13:41Z</time>
      </trkpt>
      <trkpt lat="46.04123" lon="1.25594">
        <ele>351</ele>
        <time>2024-04-28T08:13:44Z</time>
      </trkpt>
      <trkpt lat="46.04116" lon="1.25588">
        <ele>350.8</ele>
        <time>2024-04-28T08:13:46Z</time>
      </trkpt>
      <trkpt lat="46.04112" lon="1.25585">
        <ele>350.8</ele>
        <time>2024-04-28T08:13:47Z</time>
      </trkpt>
      <trkpt lat="46.04106" lon="1.25581">
        <ele>350.8</ele>
        <time>2024-04-28T08:13:49Z</time>
      </trkpt>
      <trkpt lat="46.04102" lon="1.25579">
        <ele>350.8</ele>
        <time>2024-04-28T08:13:50Z</time>
      </trkpt>
      <trkpt lat="46.04099" lon="1.25576">
        <ele>350.6</ele>
        <time>2024-04-28T08:13:51Z</time>
      </trkpt>
      <trkpt lat="46.04093" lon="1.25566">
        <ele>350.6</ele>
        <time>2024-04-28T08:13:53Z</time>
      </trkpt>
      <trkpt lat="46.04085" lon="1.25555">
        <ele>350.6</ele>
        <time>2024-04-28T08:13:55Z</time>
      </trkpt>
      <trkpt lat="46.04079" lon="1.25546">
        <ele>350.4</ele>
        <time>2024-04-28T08:13:57Z</time>
      </trkpt>
      <trkpt lat="46.04072" lon="1.25538">
        <ele>350.6</ele>
        <time>2024-04-28T08:13:59Z</time>
      </trkpt>
      <trkpt lat="46.04067" lon="1.25534">
        <ele>350.6</ele>
        <time>2024-04-28T08:14:00Z</time>
      </trkpt>
      <trkpt lat="46.04063" lon="1.25529">
        <ele>350.6</ele>
        <time>2024-04-28T08:14:01Z</time>
      </trkpt>
      <trkpt lat="46.0404" lon="1.25514">
        <ele>350.8</ele>
        <time>2024-04-28T08:14:05Z</time>
      </trkpt>
      <trkpt lat="46.04013" lon="1.25496">
        <ele>350.4</ele>
        <time>2024-04-28T08:14:09Z</time>
      </trkpt>
      <trkpt lat="46.04002" lon="1.25486">
        <ele>350.2</ele>
        <time>2024-04-28T08:14:11Z</time>
      </trkpt>
      <trkpt lat="46.03987" lon="1.25472">
        <ele>350</ele>
        <time>2024-04-28T08:14:14Z</time>
      </trkpt>
      <trkpt lat="46.03976" lon="1.25458">
        <ele>349.8</ele>
        <time>2024-04-28T08:14:17Z</time>
      </trkpt>
      <trkpt lat="46.03962" lon="1.25442">
        <ele>350.6</ele>
        <time>2024-04-28T08:14:21Z</time>
      </trkpt>
      <trkpt lat="46.03955" lon="1.25437">
        <ele>350.6</ele>
        <time>2024-04-28T08:14:23Z</time>
      </trkpt>
      <trkpt lat="46.03949" lon="1.25432">
        <ele>350.6</ele>
        <time>2024-04-28T08:14:25Z</time>
      </trkpt>
      <trkpt lat="46.03941" lon="1.25427">
        <ele>350.6</ele>
        <time>2024-04-28T08:14:27Z</time>
      </trkpt>
      <trkpt lat="46.03934" lon="1.25421">
        <ele>350.8</ele>
        <time>2024-04-28T08:14:29Z</time>
      </trkpt>
      <trkpt lat="46.0393" lon="1.25418">
        <ele>350.8</ele>
        <time>2024-04-28T08:14:30Z</time>
      </trkpt>
      <trkpt lat="46.03909" lon="1.25403">
        <ele>351.6</ele>
        <time>2024-04-28T08:14:36Z</time>
      </trkpt>
      <trkpt lat="46.03901" lon="1.25399">
        <ele>351.8</ele>
        <time>2024-04-28T08:14:39Z</time>
      </trkpt>
      <trkpt lat="46.03886" lon="1.25391">
        <ele>352.8</ele>
        <time>2024-04-28T08:14:44Z</time>
      </trkpt>
      <trkpt lat="46.03881" lon="1.25389">
        <ele>353</ele>
        <time>2024-04-28T08:14:45Z</time>
      </trkpt>
      <trkpt lat="46.03865" lon="1.2538">
        <ele>353.2</ele>
        <time>2024-04-28T08:14:50Z</time>
      </trkpt>
      <trkpt lat="46.03862" lon="1.25378">
        <ele>353</ele>
        <time>2024-04-28T08:14:51Z</time>
      </trkpt>
      <trkpt lat="46.03848" lon="1.2537">
        <ele>352.8</ele>
        <time>2024-04-28T08:14:54Z</time>
      </trkpt>
      <trkpt lat="46.03839" lon="1.25367">
        <ele>352.6</ele>
        <time>2024-04-28T08:14:56Z</time>
      </trkpt>
      <trkpt lat="46.03831" lon="1.25369">
        <ele>352.6</ele>
        <time>2024-04-28T08:14:58Z</time>
      </trkpt>
      <trkpt lat="46.03823" lon="1.25375">
        <ele>352.2</ele>
        <time>2024-04-28T08:15:00Z</time>
      </trkpt>
      <trkpt lat="46.03821" lon="1.25379">
        <ele>352</ele>
        <time>2024-04-28T08:15:01Z</time>
      </trkpt>
      <trkpt lat="46.03817" lon="1.25387">
        <ele>351.8</ele>
        <time>2024-04-28T08:15:03Z</time>
      </trkpt>
      <trkpt lat="46.03814" lon="1.25395">
        <ele>351.6</ele>
        <time>2024-04-28T08:15:05Z</time>
      </trkpt>
      <trkpt lat="46.03807" lon="1.25405">
        <ele>351.6</ele>
        <time>2024-04-28T08:15:08Z</time>
      </trkpt>
      <trkpt lat="46.03799" lon="1.25408">
        <ele>351.4</ele>
        <time>2024-04-28T08:15:10Z</time>
      </trkpt>
      <trkpt lat="46.03782" lon="1.25419">
        <ele>351.6</ele>
        <time>2024-04-28T08:15:14Z</time>
      </trkpt>
      <trkpt lat="46.03769" lon="1.25438">
        <ele>350.8</ele>
        <time>2024-04-28T08:15:17Z</time>
      </trkpt>
      <trkpt lat="46.0376" lon="1.25454">
        <ele>349</ele>
        <time>2024-04-28T08:15:19Z</time>
      </trkpt>
      <trkpt lat="46.03751" lon="1.2547">
        <ele>348</ele>
        <time>2024-04-28T08:15:21Z</time>
      </trkpt>
      <trkpt lat="46.03739" lon="1.25486">
        <ele>347.4</ele>
        <time>2024-04-28T08:15:23Z</time>
      </trkpt>
      <trkpt lat="46.03727" lon="1.25498">
        <ele>347.2</ele>
        <time>2024-04-28T08:15:25Z</time>
      </trkpt>
      <trkpt lat="46.03715" lon="1.25502">
        <ele>347.2</ele>
        <time>2024-04-28T08:15:27Z</time>
      </trkpt>
      <trkpt lat="46.03709" lon="1.25501">
        <ele>347.2</ele>
        <time>2024-04-28T08:15:28Z</time>
      </trkpt>
      <trkpt lat="46.03704" lon="1.25498">
        <ele>347.2</ele>
        <time>2024-04-28T08:15:29Z</time>
      </trkpt>
      <trkpt lat="46.03696" lon="1.25489">
        <ele>347</ele>
        <time>2024-04-28T08:15:31Z</time>
      </trkpt>
      <trkpt lat="46.03682" lon="1.25472">
        <ele>347.6</ele>
        <time>2024-04-28T08:15:36Z</time>
      </trkpt>
      <trkpt lat="46.03671" lon="1.2546">
        <ele>349</ele>
        <time>2024-04-28T08:15:41Z</time>
      </trkpt>
      <trkpt lat="46.03665" lon="1.25453">
        <ele>350</ele>
        <time>2024-04-28T08:15:44Z</time>
      </trkpt>
      <trkpt lat="46.03663" lon="1.25451">
        <ele>350.4</ele>
        <time>2024-04-28T08:15:45Z</time>
      </trkpt>
      <trkpt lat="46.03657" lon="1.25444">
        <ele>351.4</ele>
        <time>2024-04-28T08:15:48Z</time>
      </trkpt>
      <trkpt lat="46.03648" lon="1.25436">
        <ele>352.4</ele>
        <time>2024-04-28T08:15:53Z</time>
      </trkpt>
      <trkpt lat="46.03638" lon="1.25434">
        <ele>353.4</ele>
        <time>2024-04-28T08:15:58Z</time>
      </trkpt>
      <trkpt lat="46.03636" lon="1.25434">
        <ele>353.6</ele>
        <time>2024-04-28T08:15:59Z</time>
      </trkpt>
      <trkpt lat="46.03626" lon="1.25435">
        <ele>354.6</ele>
        <time>2024-04-28T08:16:04Z</time>
      </trkpt>
      <trkpt lat="46.03619" lon="1.25438">
        <ele>355</ele>
        <time>2024-04-28T08:16:07Z</time>
      </trkpt>
      <trkpt lat="46.03611" lon="1.25443">
        <ele>355.6</ele>
        <time>2024-04-28T08:16:11Z</time>
      </trkpt>
      <trkpt lat="46.03602" lon="1.25448">
        <ele>356.2</ele>
        <time>2024-04-28T08:16:15Z</time>
      </trkpt>
      <trkpt lat="46.03597" lon="1.25451">
        <ele>356.8</ele>
        <time>2024-04-28T08:16:17Z</time>
      </trkpt>
      <trkpt lat="46.03579" lon="1.2546">
        <ele>357</ele>
        <time>2024-04-28T08:16:23Z</time>
      </trkpt>
      <trkpt lat="46.03549" lon="1.25471">
        <ele>356</ele>
        <time>2024-04-28T08:16:30Z</time>
      </trkpt>
      <trkpt lat="46.03543" lon="1.25472">
        <ele>355.6</ele>
        <time>2024-04-28T08:16:31Z</time>
      </trkpt>
      <trkpt lat="46.03518" lon="1.25474">
        <ele>355</ele>
        <time>2024-04-28T08:16:36Z</time>
      </trkpt>
      <trkpt lat="46.035" lon="1.25476">
        <ele>355.6</ele>
        <time>2024-04-28T08:16:41Z</time>
      </trkpt>
      <trkpt lat="46.03482" lon="1.25473">
        <ele>356.8</ele>
        <time>2024-04-28T08:16:47Z</time>
      </trkpt>
      <trkpt lat="46.0346" lon="1.25467">
        <ele>357.2</ele>
        <time>2024-04-28T08:16:55Z</time>
      </trkpt>
      <trkpt lat="46.03452" lon="1.25466">
        <ele>358</ele>
        <time>2024-04-28T08:17:00Z</time>
      </trkpt>
      <trkpt lat="46.03444" lon="1.25465">
        <ele>359.4</ele>
        <time>2024-04-28T08:17:05Z</time>
      </trkpt>
      <trkpt lat="46.03436" lon="1.25464">
        <ele>360</ele>
        <time>2024-04-28T08:17:09Z</time>
      </trkpt>
      <trkpt lat="46.03425" lon="1.25461">
        <ele>360.4</ele>
        <time>2024-04-28T08:17:14Z</time>
      </trkpt>
      <trkpt lat="46.0342" lon="1.25461">
        <ele>360.6</ele>
        <time>2024-04-28T08:17:16Z</time>
      </trkpt>
      <trkpt lat="46.034" lon="1.25457">
        <ele>361.2</ele>
        <time>2024-04-28T08:17:25Z</time>
      </trkpt>
      <trkpt lat="46.03398" lon="1.25457">
        <ele>361.6</ele>
        <time>2024-04-28T08:17:26Z</time>
      </trkpt>
      <trkpt lat="46.03388" lon="1.25453">
        <ele>362.6</ele>
        <time>2024-04-28T08:17:32Z</time>
      </trkpt>
      <trkpt lat="46.03381" lon="1.25448">
        <ele>363.8</ele>
        <time>2024-04-28T08:17:36Z</time>
      </trkpt>
      <trkpt lat="46.03375" lon="1.25444">
        <ele>364.8</ele>
        <time>2024-04-28T08:17:39Z</time>
      </trkpt>
      <trkpt lat="46.03373" lon="1.25443">
        <ele>365</ele>
        <time>2024-04-28T08:17:40Z</time>
      </trkpt>
      <trkpt lat="46.03367" lon="1.25441">
        <ele>365.8</ele>
        <time>2024-04-28T08:17:43Z</time>
      </trkpt>
      <trkpt lat="46.03359" lon="1.25437">
        <ele>366.6</ele>
        <time>2024-04-28T08:17:48Z</time>
      </trkpt>
      <trkpt lat="46.03353" lon="1.25434">
        <ele>367</ele>
        <time>2024-04-28T08:17:51Z</time>
      </trkpt>
      <trkpt lat="46.03346" lon="1.25431">
        <ele>367.6</ele>
        <time>2024-04-28T08:17:55Z</time>
      </trkpt>
      <trkpt lat="46.03342" lon="1.2543">
        <ele>368.2</ele>
        <time>2024-04-28T08:17:57Z</time>
      </trkpt>
      <trkpt lat="46.03329" lon="1.25425">
        <ele>369</ele>
        <time>2024-04-28T08:18:04Z</time>
      </trkpt>
      <trkpt lat="46.03326" lon="1.25423">
        <ele>369.2</ele>
        <time>2024-04-28T08:18:06Z</time>
      </trkpt>
      <trkpt lat="46.03317" lon="1.25419">
        <ele>369.8</ele>
        <time>2024-04-28T08:18:11Z</time>
      </trkpt>
      <trkpt lat="46.03314" lon="1.25419">
        <ele>370.4</ele>
        <time>2024-04-28T08:18:13Z</time>
      </trkpt>
      <trkpt lat="46.03304" lon="1.25415">
        <ele>371.2</ele>
        <time>2024-04-28T08:18:19Z</time>
      </trkpt>
      <trkpt lat="46.03301" lon="1.25414">
        <ele>371.4</ele>
        <time>2024-04-28T08:18:21Z</time>
      </trkpt>
      <trkpt lat="46.0329" lon="1.25411">
        <ele>372.4</ele>
        <time>2024-04-28T08:18:27Z</time>
      </trkpt>
      <trkpt lat="46.03289" lon="1.25411">
        <ele>372.6</ele>
        <time>2024-04-28T08:18:28Z</time>
      </trkpt>
      <trkpt lat="46.03282" lon="1.2541">
        <ele>373.4</ele>
        <time>2024-04-28T08:18:32Z</time>
      </trkpt>
      <trkpt lat="46.03277" lon="1.25409">
        <ele>374</ele>
        <time>2024-04-28T08:18:35Z</time>
      </trkpt>
      <trkpt lat="46.03271" lon="1.25407">
        <ele>374.6</ele>
        <time>2024-04-28T08:18:39Z</time>
      </trkpt>
      <trkpt lat="46.03266" lon="1.25406">
        <ele>375.4</ele>
        <time>2024-04-28T08:18:43Z</time>
      </trkpt>
      <trkpt lat="46.03263" lon="1.25406">
        <ele>375.6</ele>
        <time>2024-04-28T08:18:45Z</time>
      </trkpt>
      <trkpt lat="46.03256" lon="1.25403">
        <ele>376.6</ele>
        <time>2024-04-28T08:18:49Z</time>
      </trkpt>
      <trkpt lat="46.03254" lon="1.25403">
        <ele>376.8</ele>
        <time>2024-04-28T08:18:50Z</time>
      </trkpt>
      <trkpt lat="46.03244" lon="1.25399">
        <ele>377.8</ele>
        <time>2024-04-28T08:18:55Z</time>
      </trkpt>
      <trkpt lat="46.03238" lon="1.25397">
        <ele>378</ele>
        <time>2024-04-28T08:18:58Z</time>
      </trkpt>
      <trkpt lat="46.03224" lon="1.25388">
        <ele>378.6</ele>
        <time>2024-04-28T08:19:06Z</time>
      </trkpt>
      <trkpt lat="46.03213" lon="1.25382">
        <ele>378.6</ele>
        <time>2024-04-28T08:19:11Z</time>
      </trkpt>
      <trkpt lat="46.03208" lon="1.2538">
        <ele>378.8</ele>
        <time>2024-04-28T08:19:15Z</time>
      </trkpt>
      <trkpt lat="46.03206" lon="1.25381">
        <ele>378.8</ele>
        <time>2024-04-28T08:19:16Z</time>
      </trkpt>
      <trkpt lat="46.03194" lon="1.25392">
        <ele>379.4</ele>
        <time>2024-04-28T08:19:22Z</time>
      </trkpt>
      <trkpt lat="46.03185" lon="1.25408">
        <ele>379.8</ele>
        <time>2024-04-28T08:19:28Z</time>
      </trkpt>
      <trkpt lat="46.03182" lon="1.25414">
        <ele>380</ele>
        <time>2024-04-28T08:19:30Z</time>
      </trkpt>
      <trkpt lat="46.03174" lon="1.25432">
        <ele>380.8</ele>
        <time>2024-04-28T08:19:36Z</time>
      </trkpt>
      <trkpt lat="46.03173" lon="1.25435">
        <ele>381</ele>
        <time>2024-04-28T08:19:37Z</time>
      </trkpt>
      <trkpt lat="46.03168" lon="1.25447">
        <ele>382.2</ele>
        <time>2024-04-28T08:19:42Z</time>
      </trkpt>
      <trkpt lat="46.03166" lon="1.25452">
        <ele>382.4</ele>
        <time>2024-04-28T08:19:44Z</time>
      </trkpt>
      <trkpt lat="46.0316" lon="1.25468">
        <ele>383.6</ele>
        <time>2024-04-28T08:19:50Z</time>
      </trkpt>
      <trkpt lat="46.03156" lon="1.25478">
        <ele>384.8</ele>
        <time>2024-04-28T08:19:54Z</time>
      </trkpt>
      <trkpt lat="46.0315" lon="1.25496">
        <ele>385.8</ele>
        <time>2024-04-28T08:20:01Z</time>
      </trkpt>
      <trkpt lat="46.03149" lon="1.25499">
        <ele>386.2</ele>
        <time>2024-04-28T08:20:02Z</time>
      </trkpt>
      <trkpt lat="46.03147" lon="1.25511">
        <ele>387</ele>
        <time>2024-04-28T08:20:06Z</time>
      </trkpt>
      <trkpt lat="46.03146" lon="1.25522">
        <ele>387.4</ele>
        <time>2024-04-28T08:20:10Z</time>
      </trkpt>
      <trkpt lat="46.03146" lon="1.25531">
        <ele>388</ele>
        <time>2024-04-28T08:20:14Z</time>
      </trkpt>
      <trkpt lat="46.03146" lon="1.25542">
        <ele>389</ele>
        <time>2024-04-28T08:20:18Z</time>
      </trkpt>
      <trkpt lat="46.03147" lon="1.25545">
        <ele>389.2</ele>
        <time>2024-04-28T08:20:19Z</time>
      </trkpt>
      <trkpt lat="46.03147" lon="1.25567">
        <ele>390</ele>
        <time>2024-04-28T08:20:27Z</time>
      </trkpt>
      <trkpt lat="46.03147" lon="1.25573">
        <ele>390.2</ele>
        <time>2024-04-28T08:20:29Z</time>
      </trkpt>
      <trkpt lat="46.03146" lon="1.25589">
        <ele>391.2</ele>
        <time>2024-04-28T08:20:34Z</time>
      </trkpt>
      <trkpt lat="46.03146" lon="1.25595">
        <ele>391.4</ele>
        <time>2024-04-28T08:20:36Z</time>
      </trkpt>
      <trkpt lat="46.03145" lon="1.25624">
        <ele>392.2</ele>
        <time>2024-04-28T08:20:44Z</time>
      </trkpt>
      <trkpt lat="46.03145" lon="1.25628">
        <ele>392.2</ele>
        <time>2024-04-28T08:20:45Z</time>
      </trkpt>
      <trkpt lat="46.03142" lon="1.25656">
        <ele>393.2</ele>
        <time>2024-04-28T08:20:52Z</time>
      </trkpt>
      <trkpt lat="46.03141" lon="1.25668">
        <ele>393.4</ele>
        <time>2024-04-28T08:20:55Z</time>
      </trkpt>
      <trkpt lat="46.03141" lon="1.25682">
        <ele>393.4</ele>
        <time>2024-04-28T08:20:58Z</time>
      </trkpt>
      <trkpt lat="46.03138" lon="1.25724">
        <ele>392.8</ele>
        <time>2024-04-28T08:21:05Z</time>
      </trkpt>
      <trkpt lat="46.03136" lon="1.25764">
        <ele>392.4</ele>
        <time>2024-04-28T08:21:10Z</time>
      </trkpt>
      <trkpt lat="46.03136" lon="1.25773">
        <ele>392.2</ele>
        <time>2024-04-28T08:21:11Z</time>
      </trkpt>
      <trkpt lat="46.03136" lon="1.25782">
        <ele>392.2</ele>
        <time>2024-04-28T08:21:12Z</time>
      </trkpt>
      <trkpt lat="46.03138" lon="1.25823">
        <ele>391.8</ele>
        <time>2024-04-28T08:21:17Z</time>
      </trkpt>
      <trkpt lat="46.03141" lon="1.25854">
        <ele>392.4</ele>
        <time>2024-04-28T08:21:22Z</time>
      </trkpt>
      <trkpt lat="46.03143" lon="1.25872">
        <ele>393.4</ele>
        <time>2024-04-28T08:21:26Z</time>
      </trkpt>
      <trkpt lat="46.03146" lon="1.25892">
        <ele>393.8</ele>
        <time>2024-04-28T08:21:30Z</time>
      </trkpt>
      <trkpt lat="46.03145" lon="1.25923">
        <ele>393.2</ele>
        <time>2024-04-28T08:21:35Z</time>
      </trkpt>
      <trkpt lat="46.03145" lon="1.25958">
        <ele>392.4</ele>
        <time>2024-04-28T08:21:40Z</time>
      </trkpt>
      <trkpt lat="46.03144" lon="1.25966">
        <ele>392</ele>
        <time>2024-04-28T08:21:41Z</time>
      </trkpt>
      <trkpt lat="46.03137" lon="1.26013">
        <ele>391</ele>
        <time>2024-04-28T08:21:46Z</time>
      </trkpt>
      <trkpt lat="46.03136" lon="1.26024">
        <ele>390.4</ele>
        <time>2024-04-28T08:21:47Z</time>
      </trkpt>
      <trkpt lat="46.03132" lon="1.2607">
        <ele>389.8</ele>
        <time>2024-04-28T08:21:51Z</time>
      </trkpt>
      <trkpt lat="46.03132" lon="1.26094">
        <ele>388.4</ele>
        <time>2024-04-28T08:21:53Z</time>
      </trkpt>
      <trkpt lat="46.03133" lon="1.26155">
        <ele>387.2</ele>
        <time>2024-04-28T08:21:58Z</time>
      </trkpt>
      <trkpt lat="46.03132" lon="1.26178">
        <ele>386.4</ele>
        <time>2024-04-28T08:22:00Z</time>
      </trkpt>
      <trkpt lat="46.03131" lon="1.26188">
        <ele>386</ele>
        <time>2024-04-28T08:22:01Z</time>
      </trkpt>
      <trkpt lat="46.03127" lon="1.26217">
        <ele>385.4</ele>
        <time>2024-04-28T08:22:04Z</time>
      </trkpt>
      <trkpt lat="46.03125" lon="1.26224">
        <ele>385.4</ele>
        <time>2024-04-28T08:22:05Z</time>
      </trkpt>
      <trkpt lat="46.0312" lon="1.26237">
        <ele>385.4</ele>
        <time>2024-04-28T08:22:07Z</time>
      </trkpt>
      <trkpt lat="46.03113" lon="1.26253">
        <ele>385.4</ele>
        <time>2024-04-28T08:22:10Z</time>
      </trkpt>
      <trkpt lat="46.03111" lon="1.26259">
        <ele>385.6</ele>
        <time>2024-04-28T08:22:11Z</time>
      </trkpt>
      <trkpt lat="46.031" lon="1.2628">
        <ele>385.4</ele>
        <time>2024-04-28T08:22:14Z</time>
      </trkpt>
      <trkpt lat="46.03093" lon="1.26294">
        <ele>384.6</ele>
        <time>2024-04-28T08:22:16Z</time>
      </trkpt>
      <trkpt lat="46.03087" lon="1.26309">
        <ele>382.6</ele>
        <time>2024-04-28T08:22:18Z</time>
      </trkpt>
      <trkpt lat="46.03084" lon="1.26317">
        <ele>381.4</ele>
        <time>2024-04-28T08:22:19Z</time>
      </trkpt>
      <trkpt lat="46.0308" lon="1.26325">
        <ele>380.8</ele>
        <time>2024-04-28T08:22:20Z</time>
      </trkpt>
      <trkpt lat="46.03076" lon="1.26332">
        <ele>380.4</ele>
        <time>2024-04-28T08:22:21Z</time>
      </trkpt>
      <trkpt lat="46.03072" lon="1.26338">
        <ele>380.2</ele>
        <time>2024-04-28T08:22:22Z</time>
      </trkpt>
      <trkpt lat="46.03067" lon="1.26342">
        <ele>380.2</ele>
        <time>2024-04-28T08:22:23Z</time>
      </trkpt>
      <trkpt lat="46.03055" lon="1.26359">
        <ele>379.6</ele>
        <time>2024-04-28T08:22:26Z</time>
      </trkpt>
      <trkpt lat="46.03052" lon="1.26367">
        <ele>379.2</ele>
        <time>2024-04-28T08:22:27Z</time>
      </trkpt>
      <trkpt lat="46.0305" lon="1.26375">
        <ele>378.6</ele>
        <time>2024-04-28T08:22:28Z</time>
      </trkpt>
      <trkpt lat="46.03048" lon="1.26386">
        <ele>376.8</ele>
        <time>2024-04-28T08:22:29Z</time>
      </trkpt>
      <trkpt lat="46.03048" lon="1.26396">
        <ele>375.8</ele>
        <time>2024-04-28T08:22:30Z</time>
      </trkpt>
      <trkpt lat="46.03051" lon="1.26416">
        <ele>375</ele>
        <time>2024-04-28T08:22:32Z</time>
      </trkpt>
      <trkpt lat="46.03054" lon="1.26423">
        <ele>374.6</ele>
        <time>2024-04-28T08:22:33Z</time>
      </trkpt>
      <trkpt lat="46.03075" lon="1.2646">
        <ele>374.2</ele>
        <time>2024-04-28T08:22:39Z</time>
      </trkpt>
      <trkpt lat="46.03088" lon="1.26477">
        <ele>374.4</ele>
        <time>2024-04-28T08:22:43Z</time>
      </trkpt>
      <trkpt lat="46.03091" lon="1.2648">
        <ele>374.8</ele>
        <time>2024-04-28T08:22:44Z</time>
      </trkpt>
      <trkpt lat="46.03093" lon="1.26482">
        <ele>375.2</ele>
        <time>2024-04-28T08:22:45Z</time>
      </trkpt>
      <trkpt lat="46.03096" lon="1.26485">
        <ele>375.6</ele>
        <time>2024-04-28T08:22:46Z</time>
      </trkpt>
      <trkpt lat="46.03099" lon="1.26489">
        <ele>375.6</ele>
        <time>2024-04-28T08:22:47Z</time>
      </trkpt>
      <trkpt lat="46.0311" lon="1.26505">
        <ele>376</ele>
        <time>2024-04-28T08:22:51Z</time>
      </trkpt>
      <trkpt lat="46.03122" lon="1.26523">
        <ele>375.8</ele>
        <time>2024-04-28T08:22:55Z</time>
      </trkpt>
      <trkpt lat="46.03128" lon="1.26532">
        <ele>375.6</ele>
        <time>2024-04-28T08:22:57Z</time>
      </trkpt>
      <trkpt lat="46.03135" lon="1.26543">
        <ele>375.2</ele>
        <time>2024-04-28T08:22:59Z</time>
      </trkpt>
      <trkpt lat="46.03141" lon="1.26557">
        <ele>374.6</ele>
        <time>2024-04-28T08:23:01Z</time>
      </trkpt>
      <trkpt lat="46.03143" lon="1.26564">
        <ele>374.4</ele>
        <time>2024-04-28T08:23:02Z</time>
      </trkpt>
      <trkpt lat="46.03151" lon="1.26592">
        <ele>374.2</ele>
        <time>2024-04-28T08:23:06Z</time>
      </trkpt>
      <trkpt lat="46.03152" lon="1.26599">
        <ele>374</ele>
        <time>2024-04-28T08:23:07Z</time>
      </trkpt>
      <trkpt lat="46.03153" lon="1.26607">
        <ele>374</ele>
        <time>2024-04-28T08:23:08Z</time>
      </trkpt>
      <trkpt lat="46.03152" lon="1.26631">
        <ele>373.2</ele>
        <time>2024-04-28T08:23:11Z</time>
      </trkpt>
      <trkpt lat="46.03151" lon="1.2664">
        <ele>373</ele>
        <time>2024-04-28T08:23:12Z</time>
      </trkpt>
      <trkpt lat="46.03149" lon="1.26658">
        <ele>372</ele>
        <time>2024-04-28T08:23:14Z</time>
      </trkpt>
      <trkpt lat="46.03145" lon="1.26674">
        <ele>371.4</ele>
        <time>2024-04-28T08:23:16Z</time>
      </trkpt>
      <trkpt lat="46.03143" lon="1.26683">
        <ele>371</ele>
        <time>2024-04-28T08:23:17Z</time>
      </trkpt>
      <trkpt lat="46.03141" lon="1.2669">
        <ele>370.4</ele>
        <time>2024-04-28T08:23:18Z</time>
      </trkpt>
      <trkpt lat="46.03139" lon="1.26697">
        <ele>370</ele>
        <time>2024-04-28T08:23:19Z</time>
      </trkpt>
      <trkpt lat="46.03139" lon="1.26709">
        <ele>369.4</ele>
        <time>2024-04-28T08:23:21Z</time>
      </trkpt>
      <trkpt lat="46.0314" lon="1.26715">
        <ele>369.4</ele>
        <time>2024-04-28T08:23:22Z</time>
      </trkpt>
      <trkpt lat="46.03141" lon="1.2672">
        <ele>369.2</ele>
        <time>2024-04-28T08:23:23Z</time>
      </trkpt>
      <trkpt lat="46.03142" lon="1.2673">
        <ele>368.4</ele>
        <time>2024-04-28T08:23:25Z</time>
      </trkpt>
      <trkpt lat="46.03143" lon="1.26741">
        <ele>367</ele>
        <time>2024-04-28T08:23:27Z</time>
      </trkpt>
      <trkpt lat="46.03147" lon="1.26758">
        <ele>365.8</ele>
        <time>2024-04-28T08:23:30Z</time>
      </trkpt>
      <trkpt lat="46.03149" lon="1.26771">
        <ele>365.4</ele>
        <time>2024-04-28T08:23:32Z</time>
      </trkpt>
      <trkpt lat="46.03152" lon="1.268">
        <ele>365.2</ele>
        <time>2024-04-28T08:23:36Z</time>
      </trkpt>
      <trkpt lat="46.03152" lon="1.26831">
        <ele>364.6</ele>
        <time>2024-04-28T08:23:40Z</time>
      </trkpt>
      <trkpt lat="46.03151" lon="1.26848">
        <ele>364</ele>
        <time>2024-04-28T08:23:42Z</time>
      </trkpt>
      <trkpt lat="46.03152" lon="1.26864">
        <ele>363.4</ele>
        <time>2024-04-28T08:23:44Z</time>
      </trkpt>
      <trkpt lat="46.03151" lon="1.2687">
        <ele>363.4</ele>
        <time>2024-04-28T08:23:45Z</time>
      </trkpt>
      <trkpt lat="46.03148" lon="1.26873">
        <ele>363</ele>
        <time>2024-04-28T08:23:46Z</time>
      </trkpt>
      <trkpt lat="46.03132" lon="1.26881">
        <ele>362.8</ele>
        <time>2024-04-28T08:23:50Z</time>
      </trkpt>
      <trkpt lat="46.03127" lon="1.26883">
        <ele>362.4</ele>
        <time>2024-04-28T08:23:51Z</time>
      </trkpt>
      <trkpt lat="46.0311" lon="1.26883">
        <ele>361.6</ele>
        <time>2024-04-28T08:23:54Z</time>
      </trkpt>
      <trkpt lat="46.03104" lon="1.26884">
        <ele>360.6</ele>
        <time>2024-04-28T08:23:55Z</time>
      </trkpt>
      <trkpt lat="46.0309" lon="1.26883">
        <ele>359.2</ele>
        <time>2024-04-28T08:23:57Z</time>
      </trkpt>
      <trkpt lat="46.03077" lon="1.26883">
        <ele>357.4</ele>
        <time>2024-04-28T08:23:59Z</time>
      </trkpt>
      <trkpt lat="46.0307" lon="1.26885">
        <ele>356.8</ele>
        <time>2024-04-28T08:24:00Z</time>
      </trkpt>
      <trkpt lat="46.03065" lon="1.26887">
        <ele>356.4</ele>
        <time>2024-04-28T08:24:01Z</time>
      </trkpt>
      <trkpt lat="46.03051" lon="1.26892">
        <ele>354.8</ele>
        <time>2024-04-28T08:24:03Z</time>
      </trkpt>
      <trkpt lat="46.03045" lon="1.26896">
        <ele>354.4</ele>
        <time>2024-04-28T08:24:04Z</time>
      </trkpt>
      <trkpt lat="46.03039" lon="1.26901">
        <ele>354.2</ele>
        <time>2024-04-28T08:24:05Z</time>
      </trkpt>
      <trkpt lat="46.03028" lon="1.26915">
        <ele>353.4</ele>
        <time>2024-04-28T08:24:07Z</time>
      </trkpt>
      <trkpt lat="46.03023" lon="1.26935">
        <ele>352.4</ele>
        <time>2024-04-28T08:24:09Z</time>
      </trkpt>
      <trkpt lat="46.03022" lon="1.26946">
        <ele>352.2</ele>
        <time>2024-04-28T08:24:10Z</time>
      </trkpt>
      <trkpt lat="46.03021" lon="1.26957">
        <ele>351.8</ele>
        <time>2024-04-28T08:24:11Z</time>
      </trkpt>
      <trkpt lat="46.03015" lon="1.26992">
        <ele>351.4</ele>
        <time>2024-04-28T08:24:14Z</time>
      </trkpt>
      <trkpt lat="46.03013" lon="1.27003">
        <ele>351.2</ele>
        <time>2024-04-28T08:24:15Z</time>
      </trkpt>
      <trkpt lat="46.03009" lon="1.27013">
        <ele>351</ele>
        <time>2024-04-28T08:24:16Z</time>
      </trkpt>
      <trkpt lat="46.03004" lon="1.27023">
        <ele>350.8</ele>
        <time>2024-04-28T08:24:17Z</time>
      </trkpt>
      <trkpt lat="46.02994" lon="1.27037">
        <ele>351</ele>
        <time>2024-04-28T08:24:19Z</time>
      </trkpt>
      <trkpt lat="46.02984" lon="1.27046">
        <ele>351.4</ele>
        <time>2024-04-28T08:24:21Z</time>
      </trkpt>
      <trkpt lat="46.02965" lon="1.27054">
        <ele>351.6</ele>
        <time>2024-04-28T08:24:25Z</time>
      </trkpt>
      <trkpt lat="46.02961" lon="1.27056">
        <ele>351.6</ele>
        <time>2024-04-28T08:24:26Z</time>
      </trkpt>
      <trkpt lat="46.02942" lon="1.27062">
        <ele>352.2</ele>
        <time>2024-04-28T08:24:31Z</time>
      </trkpt>
      <trkpt lat="46.02933" lon="1.27066">
        <ele>353</ele>
        <time>2024-04-28T08:24:34Z</time>
      </trkpt>
      <trkpt lat="46.0293" lon="1.27067">
        <ele>353.4</ele>
        <time>2024-04-28T08:24:35Z</time>
      </trkpt>
      <trkpt lat="46.02919" lon="1.2707">
        <ele>354.2</ele>
        <time>2024-04-28T08:24:39Z</time>
      </trkpt>
      <trkpt lat="46.02907" lon="1.27071">
        <ele>354.4</ele>
        <time>2024-04-28T08:24:43Z</time>
      </trkpt>
      <trkpt lat="46.02899" lon="1.27067">
        <ele>355</ele>
        <time>2024-04-28T08:24:46Z</time>
      </trkpt>
      <trkpt lat="46.02895" lon="1.27062">
        <ele>355</ele>
        <time>2024-04-28T08:24:48Z</time>
      </trkpt>
      <trkpt lat="46.02887" lon="1.27057">
        <ele>355.6</ele>
        <time>2024-04-28T08:24:52Z</time>
      </trkpt>
      <trkpt lat="46.02881" lon="1.27049">
        <ele>356.6</ele>
        <time>2024-04-28T08:24:56Z</time>
      </trkpt>
      <trkpt lat="46.02877" lon="1.27046">
        <ele>356.8</ele>
        <time>2024-04-28T08:24:58Z</time>
      </trkpt>
      <trkpt lat="46.02868" lon="1.27037">
        <ele>357.8</ele>
        <time>2024-04-28T08:25:04Z</time>
      </trkpt>
      <trkpt lat="46.02863" lon="1.27032">
        <ele>358</ele>
        <time>2024-04-28T08:25:07Z</time>
      </trkpt>
      <trkpt lat="46.02847" lon="1.27018">
        <ele>358.8</ele>
        <time>2024-04-28T08:25:15Z</time>
      </trkpt>
      <trkpt lat="46.02828" lon="1.27001">
        <ele>359.6</ele>
        <time>2024-04-28T08:25:24Z</time>
      </trkpt>
      <trkpt lat="46.02821" lon="1.26994">
        <ele>360</ele>
        <time>2024-04-28T08:25:28Z</time>
      </trkpt>
      <trkpt lat="46.02816" lon="1.26988">
        <ele>360.4</ele>
        <time>2024-04-28T08:25:31Z</time>
      </trkpt>
      <trkpt lat="46.0281" lon="1.26982">
        <ele>361</ele>
        <time>2024-04-28T08:25:34Z</time>
      </trkpt>
      <trkpt lat="46.028" lon="1.26965">
        <ele>362</ele>
        <time>2024-04-28T08:25:41Z</time>
      </trkpt>
      <trkpt lat="46.02798" lon="1.26963">
        <ele>362</ele>
        <time>2024-04-28T08:25:42Z</time>
      </trkpt>
      <trkpt lat="46.02793" lon="1.26952">
        <ele>363.4</ele>
        <time>2024-04-28T08:25:47Z</time>
      </trkpt>
      <trkpt lat="46.02791" lon="1.26948">
        <ele>363.6</ele>
        <time>2024-04-28T08:25:49Z</time>
      </trkpt>
      <trkpt lat="46.02785" lon="1.26932">
        <ele>364.4</ele>
        <time>2024-04-28T08:25:56Z</time>
      </trkpt>
      <trkpt lat="46.02779" lon="1.26914">
        <ele>365</ele>
        <time>2024-04-28T08:26:04Z</time>
      </trkpt>
      <trkpt lat="46.02777" lon="1.26906">
        <ele>365.6</ele>
        <time>2024-04-28T08:26:07Z</time>
      </trkpt>
      <trkpt lat="46.02774" lon="1.26897">
        <ele>366.2</ele>
        <time>2024-04-28T08:26:11Z</time>
      </trkpt>
      <trkpt lat="46.02773" lon="1.26893">
        <ele>366.6</ele>
        <time>2024-04-28T08:26:13Z</time>
      </trkpt>
      <trkpt lat="46.02767" lon="1.26882">
        <ele>367.2</ele>
        <time>2024-04-28T08:26:18Z</time>
      </trkpt>
      <trkpt lat="46.02762" lon="1.26874">
        <ele>367.8</ele>
        <time>2024-04-28T08:26:22Z</time>
      </trkpt>
      <trkpt lat="46.02756" lon="1.26871">
        <ele>368</ele>
        <time>2024-04-28T08:26:25Z</time>
      </trkpt>
      <trkpt lat="46.0274" lon="1.26867">
        <ele>368.6</ele>
        <time>2024-04-28T08:26:32Z</time>
      </trkpt>
      <trkpt lat="46.02738" lon="1.26867">
        <ele>368.8</ele>
        <time>2024-04-28T08:26:33Z</time>
      </trkpt>
      <trkpt lat="46.02722" lon="1.26865">
        <ele>370</ele>
        <time>2024-04-28T08:26:39Z</time>
      </trkpt>
      <trkpt lat="46.02719" lon="1.26865">
        <ele>370.2</ele>
        <time>2024-04-28T08:26:40Z</time>
      </trkpt>
      <trkpt lat="46.02703" lon="1.26864">
        <ele>371.2</ele>
        <time>2024-04-28T08:26:46Z</time>
      </trkpt>
      <trkpt lat="46.0269" lon="1.26863">
        <ele>371.6</ele>
        <time>2024-04-28T08:26:50Z</time>
      </trkpt>
      <trkpt lat="46.02663" lon="1.26863">
        <ele>371.6</ele>
        <time>2024-04-28T08:26:58Z</time>
      </trkpt>
      <trkpt lat="46.02634" lon="1.26865">
        <ele>370.8</ele>
        <time>2024-04-28T08:27:06Z</time>
      </trkpt>
      <trkpt lat="46.02626" lon="1.26869">
        <ele>370.6</ele>
        <time>2024-04-28T08:27:09Z</time>
      </trkpt>
      <trkpt lat="46.02621" lon="1.26882">
        <ele>370.2</ele>
        <time>2024-04-28T08:27:12Z</time>
      </trkpt>
      <trkpt lat="46.02619" lon="1.26888">
        <ele>370.2</ele>
        <time>2024-04-28T08:27:13Z</time>
      </trkpt>
      <trkpt lat="46.02603" lon="1.26942">
        <ele>371.2</ele>
        <time>2024-04-28T08:27:23Z</time>
      </trkpt>
      <trkpt lat="46.02601" lon="1.26947">
        <ele>371.4</ele>
        <time>2024-04-28T08:27:24Z</time>
      </trkpt>
      <trkpt lat="46.0259" lon="1.26983">
        <ele>371.8</ele>
        <time>2024-04-28T08:27:31Z</time>
      </trkpt>
      <trkpt lat="46.02583" lon="1.27013">
        <ele>372.4</ele>
        <time>2024-04-28T08:27:37Z</time>
      </trkpt>
      <trkpt lat="46.02575" lon="1.27049">
        <ele>372.4</ele>
        <time>2024-04-28T08:27:45Z</time>
      </trkpt>
      <trkpt lat="46.02575" lon="1.27053">
        <ele>372.6</ele>
        <time>2024-04-28T08:27:46Z</time>
      </trkpt>
      <trkpt lat="46.02567" lon="1.27092">
        <ele>373.2</ele>
        <time>2024-04-28T08:27:55Z</time>
      </trkpt>
      <trkpt lat="46.02563" lon="1.27114">
        <ele>373.6</ele>
        <time>2024-04-28T08:28:00Z</time>
      </trkpt>
      <trkpt lat="46.02559" lon="1.2713">
        <ele>374</ele>
        <time>2024-04-28T08:28:04Z</time>
      </trkpt>
      <trkpt lat="46.02555" lon="1.27135">
        <ele>374.2</ele>
        <time>2024-04-28T08:28:06Z</time>
      </trkpt>
      <trkpt lat="46.02552" lon="1.27135">
        <ele>374.4</ele>
        <time>2024-04-28T08:28:07Z</time>
      </trkpt>
      <trkpt lat="46.02538" lon="1.2713">
        <ele>374.6</ele>
        <time>2024-04-28T08:28:11Z</time>
      </trkpt>
      <trkpt lat="46.02531" lon="1.2713">
        <ele>374.6</ele>
        <time>2024-04-28T08:28:13Z</time>
      </trkpt>
      <trkpt lat="46.02506" lon="1.27131">
        <ele>374.4</ele>
        <time>2024-04-28T08:28:19Z</time>
      </trkpt>
      <trkpt lat="46.02481" lon="1.2713">
        <ele>373.8</ele>
        <time>2024-04-28T08:28:25Z</time>
      </trkpt>
      <trkpt lat="46.0247" lon="1.2713">
        <ele>373.4</ele>
        <time>2024-04-28T08:28:27Z</time>
      </trkpt>
      <trkpt lat="46.02452" lon="1.27131">
        <ele>372.8</ele>
        <time>2024-04-28T08:28:30Z</time>
      </trkpt>
      <trkpt lat="46.02437" lon="1.27135">
        <ele>372</ele>
        <time>2024-04-28T08:28:32Z</time>
      </trkpt>
      <trkpt lat="46.02422" lon="1.27142">
        <ele>371.4</ele>
        <time>2024-04-28T08:28:34Z</time>
      </trkpt>
      <trkpt lat="46.02408" lon="1.2715">
        <ele>371</ele>
        <time>2024-04-28T08:28:36Z</time>
      </trkpt>
      <trkpt lat="46.02392" lon="1.2716">
        <ele>369</ele>
        <time>2024-04-28T08:28:38Z</time>
      </trkpt>
      <trkpt lat="46.02384" lon="1.27165">
        <ele>367.8</ele>
        <time>2024-04-28T08:28:39Z</time>
      </trkpt>
      <trkpt lat="46.02377" lon="1.27171">
        <ele>367</ele>
        <time>2024-04-28T08:28:40Z</time>
      </trkpt>
      <trkpt lat="46.02372" lon="1.27175">
        <ele>365.8</ele>
        <time>2024-04-28T08:28:41Z</time>
      </trkpt>
      <trkpt lat="46.02367" lon="1.27178">
        <ele>365</ele>
        <time>2024-04-28T08:28:42Z</time>
      </trkpt>
      <trkpt lat="46.02363" lon="1.27181">
        <ele>364.6</ele>
        <time>2024-04-28T08:28:43Z</time>
      </trkpt>
      <trkpt lat="46.02358" lon="1.27187">
        <ele>363.2</ele>
        <time>2024-04-28T08:28:45Z</time>
      </trkpt>
      <trkpt lat="46.02355" lon="1.27192">
        <ele>362.4</ele>
        <time>2024-04-28T08:28:47Z</time>
      </trkpt>
      <trkpt lat="46.02351" lon="1.27197">
        <ele>362.2</ele>
        <time>2024-04-28T08:28:48Z</time>
      </trkpt>
      <trkpt lat="46.02336" lon="1.27206">
        <ele>362.4</ele>
        <time>2024-04-28T08:28:52Z</time>
      </trkpt>
      <trkpt lat="46.02318" lon="1.27205">
        <ele>362.8</ele>
        <time>2024-04-28T08:28:58Z</time>
      </trkpt>
      <trkpt lat="46.0231" lon="1.27206">
        <ele>363.2</ele>
        <time>2024-04-28T08:29:02Z</time>
      </trkpt>
      <trkpt lat="46.02304" lon="1.27206">
        <ele>363.6</ele>
        <time>2024-04-28T08:29:04Z</time>
      </trkpt>
      <trkpt lat="46.0229" lon="1.27208">
        <ele>364.2</ele>
        <time>2024-04-28T08:29:09Z</time>
      </trkpt>
      <trkpt lat="46.02276" lon="1.2721">
        <ele>364.4</ele>
        <time>2024-04-28T08:29:13Z</time>
      </trkpt>
      <trkpt lat="46.0227" lon="1.2721">
        <ele>364.8</ele>
        <time>2024-04-28T08:29:15Z</time>
      </trkpt>
      <trkpt lat="46.02257" lon="1.27214">
        <ele>365.4</ele>
        <time>2024-04-28T08:29:20Z</time>
      </trkpt>
      <trkpt lat="46.02254" lon="1.27215">
        <ele>365.6</ele>
        <time>2024-04-28T08:29:21Z</time>
      </trkpt>
      <trkpt lat="46.02238" lon="1.27218">
        <ele>366.4</ele>
        <time>2024-04-28T08:29:26Z</time>
      </trkpt>
      <trkpt lat="46.02229" lon="1.27218">
        <ele>367.2</ele>
        <time>2024-04-28T08:29:29Z</time>
      </trkpt>
      <trkpt lat="46.02223" lon="1.27219">
        <ele>367.6</ele>
        <time>2024-04-28T08:29:31Z</time>
      </trkpt>
      <trkpt lat="46.02207" lon="1.27216">
        <ele>368.4</ele>
        <time>2024-04-28T08:29:36Z</time>
      </trkpt>
      <trkpt lat="46.02205" lon="1.27215">
        <ele>368.8</ele>
        <time>2024-04-28T08:29:37Z</time>
      </trkpt>
      <trkpt lat="46.02186" lon="1.27208">
        <ele>369.4</ele>
        <time>2024-04-28T08:29:43Z</time>
      </trkpt>
      <trkpt lat="46.02155" lon="1.27191">
        <ele>369.2</ele>
        <time>2024-04-28T08:29:50Z</time>
      </trkpt>
      <trkpt lat="46.02122" lon="1.27173">
        <ele>369.2</ele>
        <time>2024-04-28T08:29:58Z</time>
      </trkpt>
      <trkpt lat="46.02092" lon="1.2716">
        <ele>369.6</ele>
        <time>2024-04-28T08:30:05Z</time>
      </trkpt>
      <trkpt lat="46.02088" lon="1.27159">
        <ele>369.8</ele>
        <time>2024-04-28T08:30:06Z</time>
      </trkpt>
      <trkpt lat="46.02069" lon="1.27154">
        <ele>370.2</ele>
        <time>2024-04-28T08:30:11Z</time>
      </trkpt>
      <trkpt lat="46.02057" lon="1.27149">
        <ele>370.6</ele>
        <time>2024-04-28T08:30:16Z</time>
      </trkpt>
      <trkpt lat="46.02044" lon="1.27142">
        <ele>370.8</ele>
        <time>2024-04-28T08:30:21Z</time>
      </trkpt>
      <trkpt lat="46.02041" lon="1.27141">
        <ele>371</ele>
        <time>2024-04-28T08:30:22Z</time>
      </trkpt>
      <trkpt lat="46.02019" lon="1.27134">
        <ele>371.2</ele>
        <time>2024-04-28T08:30:29Z</time>
      </trkpt>
      <trkpt lat="46.02004" lon="1.27126">
        <ele>372</ele>
        <time>2024-04-28T08:30:34Z</time>
      </trkpt>
      <trkpt lat="46.01992" lon="1.27122">
        <ele>372.2</ele>
        <time>2024-04-28T08:30:37Z</time>
      </trkpt>
      <trkpt lat="46.01972" lon="1.27115">
        <ele>373</ele>
        <time>2024-04-28T08:30:44Z</time>
      </trkpt>
      <trkpt lat="46.0197" lon="1.27114">
        <ele>373.2</ele>
        <time>2024-04-28T08:30:45Z</time>
      </trkpt>
      <trkpt lat="46.01953" lon="1.27111">
        <ele>373.8</ele>
        <time>2024-04-28T08:30:51Z</time>
      </trkpt>
      <trkpt lat="46.0195" lon="1.27111">
        <ele>374.2</ele>
        <time>2024-04-28T08:30:52Z</time>
      </trkpt>
      <trkpt lat="46.01936" lon="1.27104">
        <ele>374.6</ele>
        <time>2024-04-28T08:30:56Z</time>
      </trkpt>
      <trkpt lat="46.01904" lon="1.27078">
        <ele>373.8</ele>
        <time>2024-04-28T08:31:03Z</time>
      </trkpt>
      <trkpt lat="46.01885" lon="1.27056">
        <ele>372.8</ele>
        <time>2024-04-28T08:31:07Z</time>
      </trkpt>
      <trkpt lat="46.01881" lon="1.27052">
        <ele>371.6</ele>
        <time>2024-04-28T08:31:08Z</time>
      </trkpt>
      <trkpt lat="46.01878" lon="1.27048">
        <ele>371</ele>
        <time>2024-04-28T08:31:09Z</time>
      </trkpt>
      <trkpt lat="46.01875" lon="1.27043">
        <ele>370.4</ele>
        <time>2024-04-28T08:31:10Z</time>
      </trkpt>
      <trkpt lat="46.01873" lon="1.27038">
        <ele>370</ele>
        <time>2024-04-28T08:31:11Z</time>
      </trkpt>
      <trkpt lat="46.0187" lon="1.27025">
        <ele>369.4</ele>
        <time>2024-04-28T08:31:13Z</time>
      </trkpt>
      <trkpt lat="46.01864" lon="1.27004">
        <ele>368.4</ele>
        <time>2024-04-28T08:31:16Z</time>
      </trkpt>
      <trkpt lat="46.01855" lon="1.26966">
        <ele>367.4</ele>
        <time>2024-04-28T08:31:20Z</time>
      </trkpt>
      <trkpt lat="46.01854" lon="1.26955">
        <ele>366.8</ele>
        <time>2024-04-28T08:31:21Z</time>
      </trkpt>
      <trkpt lat="46.01854" lon="1.26943">
        <ele>366.2</ele>
        <time>2024-04-28T08:31:22Z</time>
      </trkpt>
      <trkpt lat="46.01854" lon="1.26905">
        <ele>365</ele>
        <time>2024-04-28T08:31:25Z</time>
      </trkpt>
      <trkpt lat="46.01852" lon="1.26892">
        <ele>364.6</ele>
        <time>2024-04-28T08:31:26Z</time>
      </trkpt>
      <trkpt lat="46.01846" lon="1.26857">
        <ele>363.8</ele>
        <time>2024-04-28T08:31:29Z</time>
      </trkpt>
      <trkpt lat="46.01843" lon="1.26848">
        <ele>363.4</ele>
        <time>2024-04-28T08:31:30Z</time>
      </trkpt>
      <trkpt lat="46.01834" lon="1.26835">
        <ele>361.6</ele>
        <time>2024-04-28T08:31:32Z</time>
      </trkpt>
      <trkpt lat="46.01829" lon="1.26832">
        <ele>360.8</ele>
        <time>2024-04-28T08:31:33Z</time>
      </trkpt>
      <trkpt lat="46.01823" lon="1.26829">
        <ele>360.4</ele>
        <time>2024-04-28T08:31:34Z</time>
      </trkpt>
      <trkpt lat="46.01806" lon="1.26821">
        <ele>359.2</ele>
        <time>2024-04-28T08:31:37Z</time>
      </trkpt>
      <trkpt lat="46.01796" lon="1.26814">
        <ele>358.8</ele>
        <time>2024-04-28T08:31:39Z</time>
      </trkpt>
      <trkpt lat="46.0179" lon="1.26811">
        <ele>358.8</ele>
        <time>2024-04-28T08:31:40Z</time>
      </trkpt>
      <trkpt lat="46.01771" lon="1.26806">
        <ele>358.4</ele>
        <time>2024-04-28T08:31:43Z</time>
      </trkpt>
      <trkpt lat="46.01756" lon="1.26803">
        <ele>358.4</ele>
        <time>2024-04-28T08:31:45Z</time>
      </trkpt>
      <trkpt lat="46.01741" lon="1.268">
        <ele>358</ele>
        <time>2024-04-28T08:31:47Z</time>
      </trkpt>
      <trkpt lat="46.01733" lon="1.26797">
        <ele>357.8</ele>
        <time>2024-04-28T08:31:48Z</time>
      </trkpt>
      <trkpt lat="46.0171" lon="1.26789">
        <ele>357</ele>
        <time>2024-04-28T08:31:51Z</time>
      </trkpt>
      <trkpt lat="46.01703" lon="1.26792">
        <ele>355.8</ele>
        <time>2024-04-28T08:31:52Z</time>
      </trkpt>
      <trkpt lat="46.01696" lon="1.26797">
        <ele>355</ele>
        <time>2024-04-28T08:31:53Z</time>
      </trkpt>
      <trkpt lat="46.0169" lon="1.26804">
        <ele>354.4</ele>
        <time>2024-04-28T08:31:54Z</time>
      </trkpt>
      <trkpt lat="46.01685" lon="1.26814">
        <ele>354</ele>
        <time>2024-04-28T08:31:55Z</time>
      </trkpt>
      <trkpt lat="46.01676" lon="1.26833">
        <ele>352.8</ele>
        <time>2024-04-28T08:31:57Z</time>
      </trkpt>
      <trkpt lat="46.01671" lon="1.26842">
        <ele>352</ele>
        <time>2024-04-28T08:31:58Z</time>
      </trkpt>
      <trkpt lat="46.01664" lon="1.26849">
        <ele>351.4</ele>
        <time>2024-04-28T08:31:59Z</time>
      </trkpt>
      <trkpt lat="46.0165" lon="1.26863">
        <ele>350.2</ele>
        <time>2024-04-28T08:32:01Z</time>
      </trkpt>
      <trkpt lat="46.01638" lon="1.26879">
        <ele>349.2</ele>
        <time>2024-04-28T08:32:03Z</time>
      </trkpt>
      <trkpt lat="46.01632" lon="1.26887">
        <ele>348.6</ele>
        <time>2024-04-28T08:32:04Z</time>
      </trkpt>
      <trkpt lat="46.01603" lon="1.26932">
        <ele>348.4</ele>
        <time>2024-04-28T08:32:10Z</time>
      </trkpt>
      <trkpt lat="46.01582" lon="1.26958">
        <ele>350.2</ele>
        <time>2024-04-28T08:32:15Z</time>
      </trkpt>
      <trkpt lat="46.01574" lon="1.26966">
        <ele>350.4</ele>
        <time>2024-04-28T08:32:17Z</time>
      </trkpt>
      <trkpt lat="46.01563" lon="1.26975">
        <ele>351</ele>
        <time>2024-04-28T08:32:20Z</time>
      </trkpt>
      <trkpt lat="46.01555" lon="1.26982">
        <ele>351.4</ele>
        <time>2024-04-28T08:32:22Z</time>
      </trkpt>
      <trkpt lat="46.01536" lon="1.26998">
        <ele>352</ele>
        <time>2024-04-28T08:32:27Z</time>
      </trkpt>
      <trkpt lat="46.01514" lon="1.27019">
        <ele>352.4</ele>
        <time>2024-04-28T08:32:33Z</time>
      </trkpt>
      <trkpt lat="46.01511" lon="1.27022">
        <ele>352.4</ele>
        <time>2024-04-28T08:32:34Z</time>
      </trkpt>
      <trkpt lat="46.01509" lon="1.27026">
        <ele>352.4</ele>
        <time>2024-04-28T08:32:35Z</time>
      </trkpt>
      <trkpt lat="46.01498" lon="1.27042">
        <ele>352.8</ele>
        <time>2024-04-28T08:32:39Z</time>
      </trkpt>
      <trkpt lat="46.0149" lon="1.2705">
        <ele>353.4</ele>
        <time>2024-04-28T08:32:42Z</time>
      </trkpt>
      <trkpt lat="46.01487" lon="1.27052">
        <ele>353.4</ele>
        <time>2024-04-28T08:32:43Z</time>
      </trkpt>
      <trkpt lat="46.01473" lon="1.27062">
        <ele>354.4</ele>
        <time>2024-04-28T08:32:48Z</time>
      </trkpt>
      <trkpt lat="46.0147" lon="1.27064">
        <ele>354.8</ele>
        <time>2024-04-28T08:32:49Z</time>
      </trkpt>
      <trkpt lat="46.01451" lon="1.27075">
        <ele>355.6</ele>
        <time>2024-04-28T08:32:56Z</time>
      </trkpt>
      <trkpt lat="46.01428" lon="1.27083">
        <ele>356.4</ele>
        <time>2024-04-28T08:33:04Z</time>
      </trkpt>
      <trkpt lat="46.01419" lon="1.27085">
        <ele>356.6</ele>
        <time>2024-04-28T08:33:07Z</time>
      </trkpt>
      <trkpt lat="46.01408" lon="1.27089">
        <ele>357</ele>
        <time>2024-04-28T08:33:11Z</time>
      </trkpt>
      <trkpt lat="46.01393" lon="1.27095">
        <ele>357.6</ele>
        <time>2024-04-28T08:33:17Z</time>
      </trkpt>
      <trkpt lat="46.01391" lon="1.27096">
        <ele>357.6</ele>
        <time>2024-04-28T08:33:18Z</time>
      </trkpt>
      <trkpt lat="46.01383" lon="1.27099">
        <ele>359</ele>
        <time>2024-04-28T08:33:23Z</time>
      </trkpt>
      <trkpt lat="46.01378" lon="1.271">
        <ele>359.8</ele>
        <time>2024-04-28T08:33:26Z</time>
      </trkpt>
      <trkpt lat="46.01372" lon="1.27101">
        <ele>360</ele>
        <time>2024-04-28T08:33:28Z</time>
      </trkpt>
      <trkpt lat="46.01362" lon="1.27104">
        <ele>360.6</ele>
        <time>2024-04-28T08:33:33Z</time>
      </trkpt>
      <trkpt lat="46.01354" lon="1.27108">
        <ele>361.2</ele>
        <time>2024-04-28T08:33:38Z</time>
      </trkpt>
      <trkpt lat="46.01351" lon="1.2711">
        <ele>361.4</ele>
        <time>2024-04-28T08:33:40Z</time>
      </trkpt>
      <trkpt lat="46.01336" lon="1.27115">
        <ele>362.2</ele>
        <time>2024-04-28T08:33:46Z</time>
      </trkpt>
      <trkpt lat="46.01327" lon="1.27121">
        <ele>363.2</ele>
        <time>2024-04-28T08:33:53Z</time>
      </trkpt>
      <trkpt lat="46.01313" lon="1.27131">
        <ele>364.4</ele>
        <time>2024-04-28T08:34:00Z</time>
      </trkpt>
      <trkpt lat="46.01311" lon="1.27133">
        <ele>364.4</ele>
        <time>2024-04-28T08:34:01Z</time>
      </trkpt>
      <trkpt lat="46.01296" lon="1.2714">
        <ele>365</ele>
        <time>2024-04-28T08:34:07Z</time>
      </trkpt>
      <trkpt lat="46.01281" lon="1.27152">
        <ele>365.4</ele>
        <time>2024-04-28T08:34:13Z</time>
      </trkpt>
      <trkpt lat="46.01278" lon="1.27154">
        <ele>365.4</ele>
        <time>2024-04-28T08:34:14Z</time>
      </trkpt>
      <trkpt lat="46.0126" lon="1.27166">
        <ele>365.8</ele>
        <time>2024-04-28T08:34:21Z</time>
      </trkpt>
      <trkpt lat="46.0125" lon="1.27172">
        <ele>366.6</ele>
        <time>2024-04-28T08:34:26Z</time>
      </trkpt>
      <trkpt lat="46.01248" lon="1.27174">
        <ele>366.8</ele>
        <time>2024-04-28T08:34:27Z</time>
      </trkpt>
      <trkpt lat="46.01235" lon="1.2718">
        <ele>367.4</ele>
        <time>2024-04-28T08:34:33Z</time>
      </trkpt>
      <trkpt lat="46.01231" lon="1.27181">
        <ele>367.6</ele>
        <time>2024-04-28T08:34:34Z</time>
      </trkpt>
      <trkpt lat="46.01209" lon="1.27185">
        <ele>367.6</ele>
        <time>2024-04-28T08:34:40Z</time>
      </trkpt>
      <trkpt lat="46.01203" lon="1.27186">
        <ele>367.8</ele>
        <time>2024-04-28T08:34:41Z</time>
      </trkpt>
      <trkpt lat="46.01187" lon="1.27187">
        <ele>367.8</ele>
        <time>2024-04-28T08:34:44Z</time>
      </trkpt>
      <trkpt lat="46.01165" lon="1.27191">
        <ele>367.4</ele>
        <time>2024-04-28T08:34:48Z</time>
      </trkpt>
      <trkpt lat="46.01133" lon="1.27205">
        <ele>367</ele>
        <time>2024-04-28T08:34:54Z</time>
      </trkpt>
      <trkpt lat="46.01121" lon="1.27209">
        <ele>366.6</ele>
        <time>2024-04-28T08:34:56Z</time>
      </trkpt>
      <trkpt lat="46.011" lon="1.27216">
        <ele>366.4</ele>
        <time>2024-04-28T08:35:00Z</time>
      </trkpt>
      <trkpt lat="46.01095" lon="1.27216">
        <ele>366.4</ele>
        <time>2024-04-28T08:35:01Z</time>
      </trkpt>
      <trkpt lat="46.01078" lon="1.27217">
        <ele>365.6</ele>
        <time>2024-04-28T08:35:05Z</time>
      </trkpt>
      <trkpt lat="46.01062" lon="1.27217">
        <ele>365.2</ele>
        <time>2024-04-28T08:35:09Z</time>
      </trkpt>
      <trkpt lat="46.01053" lon="1.27214">
        <ele>365</ele>
        <time>2024-04-28T08:35:11Z</time>
      </trkpt>
      <trkpt lat="46.01049" lon="1.27213">
        <ele>365</ele>
        <time>2024-04-28T08:35:12Z</time>
      </trkpt>
      <trkpt lat="46.01022" lon="1.27198">
        <ele>365</ele>
        <time>2024-04-28T08:35:19Z</time>
      </trkpt>
      <trkpt lat="46.01013" lon="1.27195">
        <ele>364.4</ele>
        <time>2024-04-28T08:35:21Z</time>
      </trkpt>
      <trkpt lat="46.01003" lon="1.27191">
        <ele>364.2</ele>
        <time>2024-04-28T08:35:24Z</time>
      </trkpt>
      <trkpt lat="46.00988" lon="1.27182">
        <ele>364.2</ele>
        <time>2024-04-28T08:35:28Z</time>
      </trkpt>
      <trkpt lat="46.00983" lon="1.27178">
        <ele>364</ele>
        <time>2024-04-28T08:35:29Z</time>
      </trkpt>
      <trkpt lat="46.00979" lon="1.27173">
        <ele>363.6</ele>
        <time>2024-04-28T08:35:30Z</time>
      </trkpt>
      <trkpt lat="46.00975" lon="1.2717">
        <ele>363.2</ele>
        <time>2024-04-28T08:35:31Z</time>
      </trkpt>
      <trkpt lat="46.00959" lon="1.27157">
        <ele>363</ele>
        <time>2024-04-28T08:35:34Z</time>
      </trkpt>
      <trkpt lat="46.00949" lon="1.27148">
        <ele>362.8</ele>
        <time>2024-04-28T08:35:36Z</time>
      </trkpt>
      <trkpt lat="46.00938" lon="1.27137">
        <ele>362</ele>
        <time>2024-04-28T08:35:38Z</time>
      </trkpt>
      <trkpt lat="46.00931" lon="1.27132">
        <ele>361.8</ele>
        <time>2024-04-28T08:35:39Z</time>
      </trkpt>
      <trkpt lat="46.00894" lon="1.27107">
        <ele>360.8</ele>
        <time>2024-04-28T08:35:43Z</time>
      </trkpt>
      <trkpt lat="46.00883" lon="1.27101">
        <ele>360.6</ele>
        <time>2024-04-28T08:35:44Z</time>
      </trkpt>
      <trkpt lat="46.0086" lon="1.27084">
        <ele>359.2</ele>
        <time>2024-04-28T08:35:47Z</time>
      </trkpt>
      <trkpt lat="46.00838" lon="1.27067">
        <ele>358.2</ele>
        <time>2024-04-28T08:35:50Z</time>
      </trkpt>
      <trkpt lat="46.00824" lon="1.27055">
        <ele>357.6</ele>
        <time>2024-04-28T08:35:52Z</time>
      </trkpt>
      <trkpt lat="46.00796" lon="1.27034">
        <ele>357</ele>
        <time>2024-04-28T08:35:56Z</time>
      </trkpt>
      <trkpt lat="46.00774" lon="1.27018">
        <ele>355.8</ele>
        <time>2024-04-28T08:35:59Z</time>
      </trkpt>
      <trkpt lat="46.00752" lon="1.27003">
        <ele>354.4</ele>
        <time>2024-04-28T08:36:02Z</time>
      </trkpt>
      <trkpt lat="46.0073" lon="1.26989">
        <ele>353.2</ele>
        <time>2024-04-28T08:36:05Z</time>
      </trkpt>
      <trkpt lat="46.00684" lon="1.26968">
        <ele>351.8</ele>
        <time>2024-04-28T08:36:11Z</time>
      </trkpt>
      <trkpt lat="46.00653" lon="1.26965">
        <ele>350.8</ele>
        <time>2024-04-28T08:36:15Z</time>
      </trkpt>
      <trkpt lat="46.00636" lon="1.26967">
        <ele>350.4</ele>
        <time>2024-04-28T08:36:17Z</time>
      </trkpt>
      <trkpt lat="46.0062" lon="1.26969">
        <ele>349.2</ele>
        <time>2024-04-28T08:36:19Z</time>
      </trkpt>
      <trkpt lat="46.00596" lon="1.26973">
        <ele>348</ele>
        <time>2024-04-28T08:36:22Z</time>
      </trkpt>
      <trkpt lat="46.00582" lon="1.26977">
        <ele>347.2</ele>
        <time>2024-04-28T08:36:24Z</time>
      </trkpt>
      <trkpt lat="46.00575" lon="1.26979">
        <ele>345.8</ele>
        <time>2024-04-28T08:36:25Z</time>
      </trkpt>
      <trkpt lat="46.00562" lon="1.2698">
        <ele>344.6</ele>
        <time>2024-04-28T08:36:27Z</time>
      </trkpt>
      <trkpt lat="46.0055" lon="1.26981">
        <ele>343</ele>
        <time>2024-04-28T08:36:29Z</time>
      </trkpt>
      <trkpt lat="46.00544" lon="1.26986">
        <ele>342.2</ele>
        <time>2024-04-28T08:36:31Z</time>
      </trkpt>
      <trkpt lat="46.00542" lon="1.26989">
        <ele>342</ele>
        <time>2024-04-28T08:36:32Z</time>
      </trkpt>
      <trkpt lat="46.00542" lon="1.26991">
        <ele>342</ele>
        <time>2024-04-28T08:36:33Z</time>
      </trkpt>
      <trkpt lat="46.00542" lon="1.26998">
        <ele>342</ele>
        <time>2024-04-28T08:36:36Z</time>
      </trkpt>
      <trkpt lat="46.00544" lon="1.27008">
        <ele>343</ele>
        <time>2024-04-28T08:36:42Z</time>
      </trkpt>
      <trkpt lat="46.00544" lon="1.27012">
        <ele>343.2</ele>
        <time>2024-04-28T08:36:44Z</time>
      </trkpt>
      <trkpt lat="46.00545" lon="1.2702">
        <ele>344.2</ele>
        <time>2024-04-28T08:36:48Z</time>
      </trkpt>
      <trkpt lat="46.00545" lon="1.27021">
        <ele>344.4</ele>
        <time>2024-04-28T08:36:49Z</time>
      </trkpt>
      <trkpt lat="46.00545" lon="1.27023">
        <ele>344.6</ele>
        <time>2024-04-28T08:36:51Z</time>
      </trkpt>
      <trkpt lat="46.00545" lon="1.27032">
        <ele>345</ele>
        <time>2024-04-28T08:36:58Z</time>
      </trkpt>
      <trkpt lat="46.00546" lon="1.27034">
        <ele>345.2</ele>
        <time>2024-04-28T08:37:00Z</time>
      </trkpt>
      <trkpt lat="46.00546" lon="1.2704">
        <ele>345.6</ele>
        <time>2024-04-28T08:37:06Z</time>
      </trkpt>
      <trkpt lat="46.00546" lon="1.27046">
        <ele>345.8</ele>
        <time>2024-04-28T08:37:12Z</time>
      </trkpt>
      <trkpt lat="46.00545" lon="1.27052">
        <ele>346.2</ele>
        <time>2024-04-28T08:37:17Z</time>
      </trkpt>
      <trkpt lat="46.00544" lon="1.27055">
        <ele>346.4</ele>
        <time>2024-04-28T08:37:21Z</time>
      </trkpt>
      <trkpt lat="46.00543" lon="1.27067">
        <ele>346.8</ele>
        <time>2024-04-28T08:37:28Z</time>
      </trkpt>
      <trkpt lat="46.00542" lon="1.27072">
        <ele>347.4</ele>
        <time>2024-04-28T08:37:31Z</time>
      </trkpt>
      <trkpt lat="46.00542" lon="1.27074">
        <ele>347.6</ele>
        <time>2024-04-28T08:37:32Z</time>
      </trkpt>
      <trkpt lat="46.0054" lon="1.27083">
        <ele>348.4</ele>
        <time>2024-04-28T08:37:36Z</time>
      </trkpt>
      <trkpt lat="46.0054" lon="1.27085">
        <ele>348.8</ele>
        <time>2024-04-28T08:37:37Z</time>
      </trkpt>
      <trkpt lat="46.00539" lon="1.27093">
        <ele>349.4</ele>
        <time>2024-04-28T08:37:40Z</time>
      </trkpt>
      <trkpt lat="46.00537" lon="1.27101">
        <ele>350.2</ele>
        <time>2024-04-28T08:37:45Z</time>
      </trkpt>
      <trkpt lat="46.00537" lon="1.27103">
        <ele>350.6</ele>
        <time>2024-04-28T08:37:46Z</time>
      </trkpt>
      <trkpt lat="46.00533" lon="1.27114">
        <ele>351.8</ele>
        <time>2024-04-28T08:37:52Z</time>
      </trkpt>
      <trkpt lat="46.00532" lon="1.27117">
        <ele>352.2</ele>
        <time>2024-04-28T08:37:54Z</time>
      </trkpt>
      <trkpt lat="46.00529" lon="1.27128">
        <ele>352.8</ele>
        <time>2024-04-28T08:38:00Z</time>
      </trkpt>
      <trkpt lat="46.00527" lon="1.27133">
        <ele>353.2</ele>
        <time>2024-04-28T08:38:03Z</time>
      </trkpt>
      <trkpt lat="46.00524" lon="1.27139">
        <ele>353.8</ele>
        <time>2024-04-28T08:38:08Z</time>
      </trkpt>
      <trkpt lat="46.00523" lon="1.27142">
        <ele>354</ele>
        <time>2024-04-28T08:38:11Z</time>
      </trkpt>
      <trkpt lat="46.00523" lon="1.27143">
        <ele>354.2</ele>
        <time>2024-04-28T08:38:12Z</time>
      </trkpt>
      <trkpt lat="46.00519" lon="1.27153">
        <ele>355</ele>
        <time>2024-04-28T08:38:18Z</time>
      </trkpt>
      <trkpt lat="46.00514" lon="1.2717">
        <ele>356</ele>
        <time>2024-04-28T08:38:27Z</time>
      </trkpt>
      <trkpt lat="46.00512" lon="1.27189">
        <ele>356.4</ele>
        <time>2024-04-28T08:38:33Z</time>
      </trkpt>
      <trkpt lat="46.0051" lon="1.2722">
        <ele>355.4</ele>
        <time>2024-04-28T08:38:38Z</time>
      </trkpt>
      <trkpt lat="46.0051" lon="1.27227">
        <ele>354.8</ele>
        <time>2024-04-28T08:38:39Z</time>
      </trkpt>
      <trkpt lat="46.0051" lon="1.27236">
        <ele>354.4</ele>
        <time>2024-04-28T08:38:40Z</time>
      </trkpt>
      <trkpt lat="46.0051" lon="1.27252">
        <ele>353.8</ele>
        <time>2024-04-28T08:38:42Z</time>
      </trkpt>
      <trkpt lat="46.0051" lon="1.2727">
        <ele>353</ele>
        <time>2024-04-28T08:38:44Z</time>
      </trkpt>
      <trkpt lat="46.00511" lon="1.27279">
        <ele>352.6</ele>
        <time>2024-04-28T08:38:45Z</time>
      </trkpt>
      <trkpt lat="46.00512" lon="1.27309">
        <ele>351</ele>
        <time>2024-04-28T08:38:49Z</time>
      </trkpt>
      <trkpt lat="46.00514" lon="1.27344">
        <ele>350.4</ele>
        <time>2024-04-28T08:38:54Z</time>
      </trkpt>
      <trkpt lat="46.00517" lon="1.27362">
        <ele>350.2</ele>
        <time>2024-04-28T08:38:57Z</time>
      </trkpt>
      <trkpt lat="46.00518" lon="1.27369">
        <ele>350</ele>
        <time>2024-04-28T08:38:58Z</time>
      </trkpt>
      <trkpt lat="46.0052" lon="1.27376">
        <ele>349.8</ele>
        <time>2024-04-28T08:38:59Z</time>
      </trkpt>
      <trkpt lat="46.00521" lon="1.27383">
        <ele>349.6</ele>
        <time>2024-04-28T08:39:00Z</time>
      </trkpt>
      <trkpt lat="46.00524" lon="1.27405">
        <ele>349</ele>
        <time>2024-04-28T08:39:03Z</time>
      </trkpt>
      <trkpt lat="46.00526" lon="1.27424">
        <ele>348.6</ele>
        <time>2024-04-28T08:39:05Z</time>
      </trkpt>
      <trkpt lat="46.00528" lon="1.27442">
        <ele>348.4</ele>
        <time>2024-04-28T08:39:07Z</time>
      </trkpt>
      <trkpt lat="46.00528" lon="1.27468">
        <ele>348.8</ele>
        <time>2024-04-28T08:39:10Z</time>
      </trkpt>
      <trkpt lat="46.00529" lon="1.27502">
        <ele>349.2</ele>
        <time>2024-04-28T08:39:14Z</time>
      </trkpt>
      <trkpt lat="46.00528" lon="1.27516">
        <ele>349.4</ele>
        <time>2024-04-28T08:39:16Z</time>
      </trkpt>
      <trkpt lat="46.0053" lon="1.27532">
        <ele>349.6</ele>
        <time>2024-04-28T08:39:19Z</time>
      </trkpt>
      <trkpt lat="46.00532" lon="1.27534">
        <ele>349.6</ele>
        <time>2024-04-28T08:39:20Z</time>
      </trkpt>
      <trkpt lat="46.00535" lon="1.27534">
        <ele>349.8</ele>
        <time>2024-04-28T08:39:21Z</time>
      </trkpt>
      <trkpt lat="46.00544" lon="1.27529">
        <ele>349.6</ele>
        <time>2024-04-28T08:39:24Z</time>
      </trkpt>
      <trkpt lat="46.00555" lon="1.27524">
        <ele>350</ele>
        <time>2024-04-28T08:39:27Z</time>
      </trkpt>
      <trkpt lat="46.00572" lon="1.27516">
        <ele>350.2</ele>
        <time>2024-04-28T08:39:31Z</time>
      </trkpt>
      <trkpt lat="46.0058" lon="1.27514">
        <ele>350.2</ele>
        <time>2024-04-28T08:39:33Z</time>
      </trkpt>
      <trkpt lat="46.00597" lon="1.27511">
        <ele>350.8</ele>
        <time>2024-04-28T08:39:37Z</time>
      </trkpt>
      <trkpt lat="46.0061" lon="1.2751">
        <ele>351</ele>
        <time>2024-04-28T08:39:40Z</time>
      </trkpt>
      <trkpt lat="46.00614" lon="1.2751">
        <ele>351.2</ele>
        <time>2024-04-28T08:39:41Z</time>
      </trkpt>
      <trkpt lat="46.00619" lon="1.27511">
        <ele>351.2</ele>
        <time>2024-04-28T08:39:42Z</time>
      </trkpt>
      <trkpt lat="46.00623" lon="1.27513">
        <ele>351.4</ele>
        <time>2024-04-28T08:39:43Z</time>
      </trkpt>
      <trkpt lat="46.00628" lon="1.27516">
        <ele>351.4</ele>
        <time>2024-04-28T08:39:44Z</time>
      </trkpt>
      <trkpt lat="46.00636" lon="1.27523">
        <ele>351.4</ele>
        <time>2024-04-28T08:39:46Z</time>
      </trkpt>
      <trkpt lat="46.00644" lon="1.27531">
        <ele>351.2</ele>
        <time>2024-04-28T08:39:48Z</time>
      </trkpt>
      <trkpt lat="46.00664" lon="1.2756">
        <ele>351.8</ele>
        <time>2024-04-28T08:39:54Z</time>
      </trkpt>
      <trkpt lat="46.0067" lon="1.27569">
        <ele>352</ele>
        <time>2024-04-28T08:39:56Z</time>
      </trkpt>
      <trkpt lat="46.00676" lon="1.27576">
        <ele>352.2</ele>
        <time>2024-04-28T08:39:58Z</time>
      </trkpt>
      <trkpt lat="46.00679" lon="1.27579">
        <ele>352.4</ele>
        <time>2024-04-28T08:39:59Z</time>
      </trkpt>
      <trkpt lat="46.00683" lon="1.27582">
        <ele>352.4</ele>
        <time>2024-04-28T08:40:00Z</time>
      </trkpt>
      <trkpt lat="46.00705" lon="1.27591">
        <ele>353</ele>
        <time>2024-04-28T08:40:07Z</time>
      </trkpt>
      <trkpt lat="46.00708" lon="1.27592">
        <ele>353.4</ele>
        <time>2024-04-28T08:40:08Z</time>
      </trkpt>
      <trkpt lat="46.00726" lon="1.27595">
        <ele>354.4</ele>
        <time>2024-04-28T08:40:14Z</time>
      </trkpt>
      <trkpt lat="46.00729" lon="1.27595">
        <ele>354.6</ele>
        <time>2024-04-28T08:40:15Z</time>
      </trkpt>
      <trkpt lat="46.00743" lon="1.27594">
        <ele>355.4</ele>
        <time>2024-04-28T08:40:20Z</time>
      </trkpt>
      <trkpt lat="46.00746" lon="1.27593">
        <ele>355.8</ele>
        <time>2024-04-28T08:40:21Z</time>
      </trkpt>
      <trkpt lat="46.00769" lon="1.27592">
        <ele>356.4</ele>
        <time>2024-04-28T08:40:28Z</time>
      </trkpt>
      <trkpt lat="46.00782" lon="1.27591">
        <ele>356.8</ele>
        <time>2024-04-28T08:40:32Z</time>
      </trkpt>
      <trkpt lat="46.00794" lon="1.27591">
        <ele>357</ele>
        <time>2024-04-28T08:40:36Z</time>
      </trkpt>
      <trkpt lat="46.00815" lon="1.27592">
        <ele>357.8</ele>
        <time>2024-04-28T08:40:43Z</time>
      </trkpt>
      <trkpt lat="46.00818" lon="1.27592">
        <ele>358</ele>
        <time>2024-04-28T08:40:44Z</time>
      </trkpt>
      <trkpt lat="46.00846" lon="1.27596">
        <ele>358.8</ele>
        <time>2024-04-28T08:40:52Z</time>
      </trkpt>
      <trkpt lat="46.00856" lon="1.27596">
        <ele>359</ele>
        <time>2024-04-28T08:40:55Z</time>
      </trkpt>
      <trkpt lat="46.00867" lon="1.27598">
        <ele>359.4</ele>
        <time>2024-04-28T08:40:59Z</time>
      </trkpt>
      <trkpt lat="46.00878" lon="1.276">
        <ele>360</ele>
        <time>2024-04-28T08:41:03Z</time>
      </trkpt>
      <trkpt lat="46.00885" lon="1.27601">
        <ele>360.6</ele>
        <time>2024-04-28T08:41:06Z</time>
      </trkpt>
      <trkpt lat="46.00892" lon="1.27603">
        <ele>361.2</ele>
        <time>2024-04-28T08:41:09Z</time>
      </trkpt>
      <trkpt lat="46.009" lon="1.27606">
        <ele>362.2</ele>
        <time>2024-04-28T08:41:13Z</time>
      </trkpt>
      <trkpt lat="46.00902" lon="1.27608">
        <ele>362.2</ele>
        <time>2024-04-28T08:41:14Z</time>
      </trkpt>
      <trkpt lat="46.00902" lon="1.27614">
        <ele>362.4</ele>
        <time>2024-04-28T08:41:16Z</time>
      </trkpt>
      <trkpt lat="46.00896" lon="1.27639">
        <ele>362.2</ele>
        <time>2024-04-28T08:41:22Z</time>
      </trkpt>
      <trkpt lat="46.00888" lon="1.27658">
        <ele>361.2</ele>
        <time>2024-04-28T08:41:26Z</time>
      </trkpt>
      <trkpt lat="46.00881" lon="1.27674">
        <ele>361</ele>
        <time>2024-04-28T08:41:29Z</time>
      </trkpt>
      <trkpt lat="46.00863" lon="1.27713">
        <ele>360.4</ele>
        <time>2024-04-28T08:41:36Z</time>
      </trkpt>
      <trkpt lat="46.00855" lon="1.27731">
        <ele>360.6</ele>
        <time>2024-04-28T08:41:40Z</time>
      </trkpt>
      <trkpt lat="46.00854" lon="1.27735">
        <ele>360.6</ele>
        <time>2024-04-28T08:41:41Z</time>
      </trkpt>
      <trkpt lat="46.00844" lon="1.27759">
        <ele>361</ele>
        <time>2024-04-28T08:41:47Z</time>
      </trkpt>
      <trkpt lat="46.00833" lon="1.27788">
        <ele>361.4</ele>
        <time>2024-04-28T08:41:54Z</time>
      </trkpt>
      <trkpt lat="46.0082" lon="1.27818">
        <ele>361.4</ele>
        <time>2024-04-28T08:42:00Z</time>
      </trkpt>
      <trkpt lat="46.0081" lon="1.27834">
        <ele>361.2</ele>
        <time>2024-04-28T08:42:03Z</time>
      </trkpt>
      <trkpt lat="46.00803" lon="1.27843">
        <ele>360.6</ele>
        <time>2024-04-28T08:42:05Z</time>
      </trkpt>
      <trkpt lat="46.00799" lon="1.27847">
        <ele>360.2</ele>
        <time>2024-04-28T08:42:06Z</time>
      </trkpt>
      <trkpt lat="46.00796" lon="1.27851">
        <ele>359.2</ele>
        <time>2024-04-28T08:42:07Z</time>
      </trkpt>
      <trkpt lat="46.00794" lon="1.27855">
        <ele>358.2</ele>
        <time>2024-04-28T08:42:08Z</time>
      </trkpt>
      <trkpt lat="46.00793" lon="1.2786">
        <ele>356.6</ele>
        <time>2024-04-28T08:42:09Z</time>
      </trkpt>
      <trkpt lat="46.00793" lon="1.27866">
        <ele>355.6</ele>
        <time>2024-04-28T08:42:10Z</time>
      </trkpt>
      <trkpt lat="46.00795" lon="1.27872">
        <ele>354.8</ele>
        <time>2024-04-28T08:42:11Z</time>
      </trkpt>
      <trkpt lat="46.00799" lon="1.27883">
        <ele>354.2</ele>
        <time>2024-04-28T08:42:13Z</time>
      </trkpt>
      <trkpt lat="46.00801" lon="1.27893">
        <ele>353.8</ele>
        <time>2024-04-28T08:42:15Z</time>
      </trkpt>
      <trkpt lat="46.00804" lon="1.27901">
        <ele>353.6</ele>
        <time>2024-04-28T08:42:17Z</time>
      </trkpt>
      <trkpt lat="46.00817" lon="1.2793">
        <ele>353.4</ele>
        <time>2024-04-28T08:42:23Z</time>
      </trkpt>
      <trkpt lat="46.00835" lon="1.27972">
        <ele>353.2</ele>
        <time>2024-04-28T08:42:30Z</time>
      </trkpt>
      <trkpt lat="46.00842" lon="1.27987">
        <ele>352.4</ele>
        <time>2024-04-28T08:42:32Z</time>
      </trkpt>
      <trkpt lat="46.00855" lon="1.28013">
        <ele>351</ele>
        <time>2024-04-28T08:42:36Z</time>
      </trkpt>
      <trkpt lat="46.00865" lon="1.28043">
        <ele>350.8</ele>
        <time>2024-04-28T08:42:40Z</time>
      </trkpt>
      <trkpt lat="46.00869" lon="1.2806">
        <ele>350.8</ele>
        <time>2024-04-28T08:42:42Z</time>
      </trkpt>
      <trkpt lat="46.00879" lon="1.28088">
        <ele>348.8</ele>
        <time>2024-04-28T08:42:45Z</time>
      </trkpt>
      <trkpt lat="46.00884" lon="1.28098">
        <ele>347.6</ele>
        <time>2024-04-28T08:42:46Z</time>
      </trkpt>
      <trkpt lat="46.00889" lon="1.28108">
        <ele>347</ele>
        <time>2024-04-28T08:42:47Z</time>
      </trkpt>
      <trkpt lat="46.00894" lon="1.28118">
        <ele>346.6</ele>
        <time>2024-04-28T08:42:48Z</time>
      </trkpt>
      <trkpt lat="46.00898" lon="1.28127">
        <ele>346.2</ele>
        <time>2024-04-28T08:42:49Z</time>
      </trkpt>
      <trkpt lat="46.00899" lon="1.28136">
        <ele>345.2</ele>
        <time>2024-04-28T08:42:50Z</time>
      </trkpt>
      <trkpt lat="46.00901" lon="1.28146">
        <ele>344.4</ele>
        <time>2024-04-28T08:42:51Z</time>
      </trkpt>
      <trkpt lat="46.00909" lon="1.28183">
        <ele>343.2</ele>
        <time>2024-04-28T08:42:55Z</time>
      </trkpt>
      <trkpt lat="46.0091" lon="1.282">
        <ele>343.2</ele>
        <time>2024-04-28T08:42:57Z</time>
      </trkpt>
      <trkpt lat="46.00908" lon="1.28222">
        <ele>341.8</ele>
        <time>2024-04-28T08:43:01Z</time>
      </trkpt>
      <trkpt lat="46.00903" lon="1.28239">
        <ele>340.8</ele>
        <time>2024-04-28T08:43:05Z</time>
      </trkpt>
      <trkpt lat="46.00901" lon="1.28244">
        <ele>340.8</ele>
        <time>2024-04-28T08:43:06Z</time>
      </trkpt>
      <trkpt lat="46.00897" lon="1.28254">
        <ele>341.2</ele>
        <time>2024-04-28T08:43:08Z</time>
      </trkpt>
      <trkpt lat="46.00887" lon="1.28276">
        <ele>341.4</ele>
        <time>2024-04-28T08:43:13Z</time>
      </trkpt>
      <trkpt lat="46.0087" lon="1.28303">
        <ele>341.2</ele>
        <time>2024-04-28T08:43:20Z</time>
      </trkpt>
      <trkpt lat="46.00863" lon="1.28313">
        <ele>341.2</ele>
        <time>2024-04-28T08:43:23Z</time>
      </trkpt>
      <trkpt lat="46.00855" lon="1.28321">
        <ele>341.4</ele>
        <time>2024-04-28T08:43:26Z</time>
      </trkpt>
      <trkpt lat="46.00833" lon="1.28343">
        <ele>342</ele>
        <time>2024-04-28T08:43:33Z</time>
      </trkpt>
      <trkpt lat="46.0083" lon="1.28346">
        <ele>341.6</ele>
        <time>2024-04-28T08:43:34Z</time>
      </trkpt>
      <trkpt lat="46.00811" lon="1.28367">
        <ele>340.8</ele>
        <time>2024-04-28T08:43:38Z</time>
      </trkpt>
      <trkpt lat="46.00806" lon="1.28373">
        <ele>340.4</ele>
        <time>2024-04-28T08:43:39Z</time>
      </trkpt>
      <trkpt lat="46.00801" lon="1.28378">
        <ele>339.4</ele>
        <time>2024-04-28T08:43:40Z</time>
      </trkpt>
      <trkpt lat="46.00792" lon="1.2839">
        <ele>338.2</ele>
        <time>2024-04-28T08:43:42Z</time>
      </trkpt>
      <trkpt lat="46.00788" lon="1.28395">
        <ele>337.8</ele>
        <time>2024-04-28T08:43:43Z</time>
      </trkpt>
      <trkpt lat="46.00776" lon="1.28405">
        <ele>337.2</ele>
        <time>2024-04-28T08:43:45Z</time>
      </trkpt>
      <trkpt lat="46.00758" lon="1.28423">
        <ele>336.4</ele>
        <time>2024-04-28T08:43:48Z</time>
      </trkpt>
      <trkpt lat="46.00748" lon="1.28438">
        <ele>335.8</ele>
        <time>2024-04-28T08:43:50Z</time>
      </trkpt>
      <trkpt lat="46.00743" lon="1.28444">
        <ele>335.8</ele>
        <time>2024-04-28T08:43:51Z</time>
      </trkpt>
      <trkpt lat="46.00737" lon="1.28452">
        <ele>335.6</ele>
        <time>2024-04-28T08:43:52Z</time>
      </trkpt>
      <trkpt lat="46.0073" lon="1.28457">
        <ele>335</ele>
        <time>2024-04-28T08:43:53Z</time>
      </trkpt>
      <trkpt lat="46.00723" lon="1.28464">
        <ele>334.6</ele>
        <time>2024-04-28T08:43:54Z</time>
      </trkpt>
      <trkpt lat="46.00717" lon="1.2847">
        <ele>333.8</ele>
        <time>2024-04-28T08:43:55Z</time>
      </trkpt>
      <trkpt lat="46.00712" lon="1.28476">
        <ele>333.2</ele>
        <time>2024-04-28T08:43:56Z</time>
      </trkpt>
      <trkpt lat="46.00707" lon="1.28483">
        <ele>332.8</ele>
        <time>2024-04-28T08:43:57Z</time>
      </trkpt>
      <trkpt lat="46.00703" lon="1.28492">
        <ele>332.2</ele>
        <time>2024-04-28T08:43:58Z</time>
      </trkpt>
      <trkpt lat="46.00696" lon="1.28504">
        <ele>331</ele>
        <time>2024-04-28T08:44:00Z</time>
      </trkpt>
      <trkpt lat="46.00686" lon="1.28509">
        <ele>329.6</ele>
        <time>2024-04-28T08:44:01Z</time>
      </trkpt>
      <trkpt lat="46.0068" lon="1.28513">
        <ele>329.2</ele>
        <time>2024-04-28T08:44:03Z</time>
      </trkpt>
      <trkpt lat="46.00676" lon="1.28515">
        <ele>328.6</ele>
        <time>2024-04-28T08:44:04Z</time>
      </trkpt>
      <trkpt lat="46.00669" lon="1.2852">
        <ele>327.8</ele>
        <time>2024-04-28T08:44:06Z</time>
      </trkpt>
      <trkpt lat="46.00667" lon="1.28525">
        <ele>326.6</ele>
        <time>2024-04-28T08:44:07Z</time>
      </trkpt>
      <trkpt lat="46.00665" lon="1.28531">
        <ele>325.8</ele>
        <time>2024-04-28T08:44:08Z</time>
      </trkpt>
      <trkpt lat="46.00665" lon="1.28537">
        <ele>325.2</ele>
        <time>2024-04-28T08:44:09Z</time>
      </trkpt>
      <trkpt lat="46.00666" lon="1.28543">
        <ele>324.8</ele>
        <time>2024-04-28T08:44:10Z</time>
      </trkpt>
      <trkpt lat="46.00672" lon="1.28562">
        <ele>324.2</ele>
        <time>2024-04-28T08:44:13Z</time>
      </trkpt>
      <trkpt lat="46.00675" lon="1.28578">
        <ele>324</ele>
        <time>2024-04-28T08:44:15Z</time>
      </trkpt>
      <trkpt lat="46.00684" lon="1.28627">
        <ele>324.2</ele>
        <time>2024-04-28T08:44:21Z</time>
      </trkpt>
      <trkpt lat="46.00682" lon="1.28638">
        <ele>324.2</ele>
        <time>2024-04-28T08:44:23Z</time>
      </trkpt>
      <trkpt lat="46.00679" lon="1.28642">
        <ele>324.2</ele>
        <time>2024-04-28T08:44:24Z</time>
      </trkpt>
      <trkpt lat="46.00675" lon="1.28647">
        <ele>324.2</ele>
        <time>2024-04-28T08:44:25Z</time>
      </trkpt>
      <trkpt lat="46.00667" lon="1.28663">
        <ele>323.6</ele>
        <time>2024-04-28T08:44:28Z</time>
      </trkpt>
      <trkpt lat="46.00663" lon="1.28673">
        <ele>323</ele>
        <time>2024-04-28T08:44:30Z</time>
      </trkpt>
      <trkpt lat="46.00657" lon="1.2869">
        <ele>322</ele>
        <time>2024-04-28T08:44:33Z</time>
      </trkpt>
      <trkpt lat="46.00655" lon="1.28696">
        <ele>321.6</ele>
        <time>2024-04-28T08:44:34Z</time>
      </trkpt>
      <trkpt lat="46.00645" lon="1.28708">
        <ele>321.2</ele>
        <time>2024-04-28T08:44:37Z</time>
      </trkpt>
      <trkpt lat="46.00639" lon="1.28715">
        <ele>321.2</ele>
        <time>2024-04-28T08:44:39Z</time>
      </trkpt>
      <trkpt lat="46.00623" lon="1.28722">
        <ele>321.4</ele>
        <time>2024-04-28T08:44:44Z</time>
      </trkpt>
      <trkpt lat="46.00605" lon="1.2872">
        <ele>322</ele>
        <time>2024-04-28T08:44:50Z</time>
      </trkpt>
      <trkpt lat="46.0059" lon="1.28714">
        <ele>323</ele>
        <time>2024-04-28T08:44:56Z</time>
      </trkpt>
      <trkpt lat="46.0058" lon="1.2871">
        <ele>323.8</ele>
        <time>2024-04-28T08:45:01Z</time>
      </trkpt>
      <trkpt lat="46.00579" lon="1.28709">
        <ele>324.2</ele>
        <time>2024-04-28T08:45:02Z</time>
      </trkpt>
      <trkpt lat="46.00573" lon="1.28707">
        <ele>325.2</ele>
        <time>2024-04-28T08:45:05Z</time>
      </trkpt>
      <trkpt lat="46.00568" lon="1.28709">
        <ele>325.8</ele>
        <time>2024-04-28T08:45:08Z</time>
      </trkpt>
      <trkpt lat="46.00561" lon="1.2871">
        <ele>326.6</ele>
        <time>2024-04-28T08:45:13Z</time>
      </trkpt>
      <trkpt lat="46.00557" lon="1.28711">
        <ele>327.4</ele>
        <time>2024-04-28T08:45:15Z</time>
      </trkpt>
      <trkpt lat="46.00556" lon="1.28712">
        <ele>327.8</ele>
        <time>2024-04-28T08:45:16Z</time>
      </trkpt>
      <trkpt lat="46.00543" lon="1.28715">
        <ele>329</ele>
        <time>2024-04-28T08:45:23Z</time>
      </trkpt>
      <trkpt lat="46.00527" lon="1.2872">
        <ele>330</ele>
        <time>2024-04-28T08:45:31Z</time>
      </trkpt>
      <trkpt lat="46.00524" lon="1.28721">
        <ele>330</ele>
        <time>2024-04-28T08:45:32Z</time>
      </trkpt>
      <trkpt lat="46.00509" lon="1.28728">
        <ele>330</ele>
        <time>2024-04-28T08:45:39Z</time>
      </trkpt>
      <trkpt lat="46.00495" lon="1.28746">
        <ele>330.2</ele>
        <time>2024-04-28T08:45:47Z</time>
      </trkpt>
      <trkpt lat="46.00487" lon="1.28762">
        <ele>330.6</ele>
        <time>2024-04-28T08:45:53Z</time>
      </trkpt>
      <trkpt lat="46.00481" lon="1.28779">
        <ele>330.4</ele>
        <time>2024-04-28T08:45:59Z</time>
      </trkpt>
      <trkpt lat="46.00476" lon="1.28804">
        <ele>330.8</ele>
        <time>2024-04-28T08:46:06Z</time>
      </trkpt>
      <trkpt lat="46.00471" lon="1.28818">
        <ele>331</ele>
        <time>2024-04-28T08:46:09Z</time>
      </trkpt>
      <trkpt lat="46.00466" lon="1.28831">
        <ele>331.4</ele>
        <time>2024-04-28T08:46:12Z</time>
      </trkpt>
      <trkpt lat="46.0046" lon="1.28855">
        <ele>332</ele>
        <time>2024-04-28T08:46:19Z</time>
      </trkpt>
      <trkpt lat="46.00459" lon="1.28857">
        <ele>332.2</ele>
        <time>2024-04-28T08:46:20Z</time>
      </trkpt>
      <trkpt lat="46.00458" lon="1.28859">
        <ele>332.2</ele>
        <time>2024-04-28T08:46:21Z</time>
      </trkpt>
      <trkpt lat="46.00457" lon="1.28871">
        <ele>333.4</ele>
        <time>2024-04-28T08:46:26Z</time>
      </trkpt>
      <trkpt lat="46.00457" lon="1.28878">
        <ele>334.6</ele>
        <time>2024-04-28T08:46:29Z</time>
      </trkpt>
      <trkpt lat="46.0046" lon="1.28888">
        <ele>335.6</ele>
        <time>2024-04-28T08:46:34Z</time>
      </trkpt>
      <trkpt lat="46.00461" lon="1.28894">
        <ele>337</ele>
        <time>2024-04-28T08:46:37Z</time>
      </trkpt>
      <trkpt lat="46.00464" lon="1.28902">
        <ele>337.6</ele>
        <time>2024-04-28T08:46:41Z</time>
      </trkpt>
      <trkpt lat="46.00464" lon="1.28905">
        <ele>338.2</ele>
        <time>2024-04-28T08:46:42Z</time>
      </trkpt>
      <trkpt lat="46.00464" lon="1.28914">
        <ele>339.4</ele>
        <time>2024-04-28T08:46:47Z</time>
      </trkpt>
      <trkpt lat="46.00463" lon="1.28915">
        <ele>339.8</ele>
        <time>2024-04-28T08:46:48Z</time>
      </trkpt>
      <trkpt lat="46.00463" lon="1.28923">
        <ele>340.4</ele>
        <time>2024-04-28T08:46:53Z</time>
      </trkpt>
      <trkpt lat="46.00464" lon="1.2893">
        <ele>341.2</ele>
        <time>2024-04-28T08:46:57Z</time>
      </trkpt>
      <trkpt lat="46.00465" lon="1.28934">
        <ele>341.6</ele>
        <time>2024-04-28T08:46:59Z</time>
      </trkpt>
      <trkpt lat="46.00466" lon="1.28945">
        <ele>342.8</ele>
        <time>2024-04-28T08:47:05Z</time>
      </trkpt>
      <trkpt lat="46.00466" lon="1.2895">
        <ele>343.8</ele>
        <time>2024-04-28T08:47:09Z</time>
      </trkpt>
      <trkpt lat="46.00467" lon="1.28957">
        <ele>345</ele>
        <time>2024-04-28T08:47:14Z</time>
      </trkpt>
      <trkpt lat="46.00469" lon="1.28967">
        <ele>346</ele>
        <time>2024-04-28T08:47:20Z</time>
      </trkpt>
      <trkpt lat="46.00471" lon="1.28971">
        <ele>346.4</ele>
        <time>2024-04-28T08:47:22Z</time>
      </trkpt>
      <trkpt lat="46.00476" lon="1.2898">
        <ele>347.4</ele>
        <time>2024-04-28T08:47:27Z</time>
      </trkpt>
      <trkpt lat="46.0048" lon="1.28986">
        <ele>348.4</ele>
        <time>2024-04-28T08:47:31Z</time>
      </trkpt>
      <trkpt lat="46.00483" lon="1.28988">
        <ele>349</ele>
        <time>2024-04-28T08:47:34Z</time>
      </trkpt>
      <trkpt lat="46.00488" lon="1.28994">
        <ele>349.6</ele>
        <time>2024-04-28T08:47:38Z</time>
      </trkpt>
      <trkpt lat="46.00491" lon="1.29002">
        <ele>350.6</ele>
        <time>2024-04-28T08:47:44Z</time>
      </trkpt>
      <trkpt lat="46.0049" lon="1.29005">
        <ele>351</ele>
        <time>2024-04-28T08:47:46Z</time>
      </trkpt>
      <trkpt lat="46.00486" lon="1.29007">
        <ele>351.6</ele>
        <time>2024-04-28T08:47:49Z</time>
      </trkpt>
      <trkpt lat="46.00482" lon="1.29009">
        <ele>351.6</ele>
        <time>2024-04-28T08:47:51Z</time>
      </trkpt>
      <trkpt lat="46.0048" lon="1.29011">
        <ele>351.6</ele>
        <time>2024-04-28T08:47:52Z</time>
      </trkpt>
      <trkpt lat="46.00473" lon="1.29018">
        <ele>351.6</ele>
        <time>2024-04-28T08:47:57Z</time>
      </trkpt>
      <trkpt lat="46.00465" lon="1.29031">
        <ele>352.6</ele>
        <time>2024-04-28T08:48:05Z</time>
      </trkpt>
      <trkpt lat="46.00464" lon="1.29033">
        <ele>352.8</ele>
        <time>2024-04-28T08:48:06Z</time>
      </trkpt>
      <trkpt lat="46.00458" lon="1.29039">
        <ele>354</ele>
        <time>2024-04-28T08:48:11Z</time>
      </trkpt>
      <trkpt lat="46.00455" lon="1.29042">
        <ele>354.2</ele>
        <time>2024-04-28T08:48:13Z</time>
      </trkpt>
      <trkpt lat="46.00449" lon="1.29048">
        <ele>355</ele>
        <time>2024-04-28T08:48:18Z</time>
      </trkpt>
      <trkpt lat="46.00444" lon="1.29053">
        <ele>355.6</ele>
        <time>2024-04-28T08:48:22Z</time>
      </trkpt>
      <trkpt lat="46.0044" lon="1.29059">
        <ele>356</ele>
        <time>2024-04-28T08:48:25Z</time>
      </trkpt>
      <trkpt lat="46.00436" lon="1.29063">
        <ele>356.8</ele>
        <time>2024-04-28T08:48:28Z</time>
      </trkpt>
      <trkpt lat="46.00431" lon="1.29068">
        <ele>357.4</ele>
        <time>2024-04-28T08:48:31Z</time>
      </trkpt>
      <trkpt lat="46.00426" lon="1.29074">
        <ele>358</ele>
        <time>2024-04-28T08:48:35Z</time>
      </trkpt>
      <trkpt lat="46.00422" lon="1.2908">
        <ele>358.4</ele>
        <time>2024-04-28T08:48:38Z</time>
      </trkpt>
      <trkpt lat="46.00416" lon="1.29088">
        <ele>358.8</ele>
        <time>2024-04-28T08:48:42Z</time>
      </trkpt>
      <trkpt lat="46.00408" lon="1.29097">
        <ele>359.6</ele>
        <time>2024-04-28T08:48:48Z</time>
      </trkpt>
      <trkpt lat="46.00404" lon="1.29102">
        <ele>359.8</ele>
        <time>2024-04-28T08:48:51Z</time>
      </trkpt>
      <trkpt lat="46.00387" lon="1.29111">
        <ele>360.2</ele>
        <time>2024-04-28T08:48:58Z</time>
      </trkpt>
      <trkpt lat="46.00375" lon="1.29117">
        <ele>360.6</ele>
        <time>2024-04-28T08:49:04Z</time>
      </trkpt>
      <trkpt lat="46.00373" lon="1.29117">
        <ele>360.8</ele>
        <time>2024-04-28T08:49:05Z</time>
      </trkpt>
      <trkpt lat="46.00362" lon="1.2912">
        <ele>361.8</ele>
        <time>2024-04-28T08:49:11Z</time>
      </trkpt>
      <trkpt lat="46.0036" lon="1.29121">
        <ele>362</ele>
        <time>2024-04-28T08:49:12Z</time>
      </trkpt>
      <trkpt lat="46.00347" lon="1.29128">
        <ele>363.2</ele>
        <time>2024-04-28T08:49:19Z</time>
      </trkpt>
      <trkpt lat="46.00336" lon="1.29136">
        <ele>364.4</ele>
        <time>2024-04-28T08:49:26Z</time>
      </trkpt>
      <trkpt lat="46.00334" lon="1.29137">
        <ele>364.4</ele>
        <time>2024-04-28T08:49:27Z</time>
      </trkpt>
      <trkpt lat="46.00328" lon="1.2915">
        <ele>365.4</ele>
        <time>2024-04-28T08:49:33Z</time>
      </trkpt>
      <trkpt lat="46.00328" lon="1.29153">
        <ele>365.6</ele>
        <time>2024-04-28T08:49:34Z</time>
      </trkpt>
      <trkpt lat="46.00326" lon="1.29163">
        <ele>366.4</ele>
        <time>2024-04-28T08:49:39Z</time>
      </trkpt>
      <trkpt lat="46.00326" lon="1.29165">
        <ele>366.4</ele>
        <time>2024-04-28T08:49:40Z</time>
      </trkpt>
      <trkpt lat="46.00321" lon="1.29175">
        <ele>366.6</ele>
        <time>2024-04-28T08:49:46Z</time>
      </trkpt>
      <trkpt lat="46.00321" lon="1.29177">
        <ele>366.8</ele>
        <time>2024-04-28T08:49:47Z</time>
      </trkpt>
      <trkpt lat="46.00318" lon="1.29184">
        <ele>367.2</ele>
        <time>2024-04-28T08:49:50Z</time>
      </trkpt>
      <trkpt lat="46.00318" lon="1.29187">
        <ele>367.2</ele>
        <time>2024-04-28T08:49:51Z</time>
      </trkpt>
      <trkpt lat="46.00316" lon="1.29189">
        <ele>367.2</ele>
        <time>2024-04-28T08:49:52Z</time>
      </trkpt>
      <trkpt lat="46.00311" lon="1.292">
        <ele>367.4</ele>
        <time>2024-04-28T08:49:56Z</time>
      </trkpt>
      <trkpt lat="46.00295" lon="1.2922">
        <ele>367.6</ele>
        <time>2024-04-28T08:50:04Z</time>
      </trkpt>
      <trkpt lat="46.00291" lon="1.29227">
        <ele>367.6</ele>
        <time>2024-04-28T08:50:06Z</time>
      </trkpt>
      <trkpt lat="46.00286" lon="1.29237">
        <ele>367.8</ele>
        <time>2024-04-28T08:50:09Z</time>
      </trkpt>
      <trkpt lat="46.00272" lon="1.29253">
        <ele>368</ele>
        <time>2024-04-28T08:50:15Z</time>
      </trkpt>
      <trkpt lat="46.00257" lon="1.29265">
        <ele>368.2</ele>
        <time>2024-04-28T08:50:21Z</time>
      </trkpt>
      <trkpt lat="46.00244" lon="1.29271">
        <ele>368</ele>
        <time>2024-04-28T08:50:25Z</time>
      </trkpt>
      <trkpt lat="46.0024" lon="1.29272">
        <ele>367.8</ele>
        <time>2024-04-28T08:50:26Z</time>
      </trkpt>
      <trkpt lat="46.00236" lon="1.29273">
        <ele>367.2</ele>
        <time>2024-04-28T08:50:27Z</time>
      </trkpt>
      <trkpt lat="46.00222" lon="1.29279">
        <ele>367</ele>
        <time>2024-04-28T08:50:30Z</time>
      </trkpt>
      <trkpt lat="46.00218" lon="1.2928">
        <ele>367</ele>
        <time>2024-04-28T08:50:31Z</time>
      </trkpt>
      <trkpt lat="46.00213" lon="1.29284">
        <ele>367</ele>
        <time>2024-04-28T08:50:32Z</time>
      </trkpt>
      <trkpt lat="46.00206" lon="1.29291">
        <ele>367.2</ele>
        <time>2024-04-28T08:50:34Z</time>
      </trkpt>
      <trkpt lat="46.00203" lon="1.29295">
        <ele>367.2</ele>
        <time>2024-04-28T08:50:35Z</time>
      </trkpt>
      <trkpt lat="46.00183" lon="1.29313">
        <ele>367.4</ele>
        <time>2024-04-28T08:50:41Z</time>
      </trkpt>
      <trkpt lat="46.00166" lon="1.29325">
        <ele>368.8</ele>
        <time>2024-04-28T08:50:47Z</time>
      </trkpt>
      <trkpt lat="46.00147" lon="1.29339">
        <ele>370</ele>
        <time>2024-04-28T08:50:54Z</time>
      </trkpt>
      <trkpt lat="46.0013" lon="1.2935">
        <ele>371</ele>
        <time>2024-04-28T08:51:00Z</time>
      </trkpt>
      <trkpt lat="46.00128" lon="1.29351">
        <ele>371</ele>
        <time>2024-04-28T08:51:01Z</time>
      </trkpt>
      <trkpt lat="46.00124" lon="1.29356">
        <ele>371.8</ele>
        <time>2024-04-28T08:51:04Z</time>
      </trkpt>
      <trkpt lat="46.00123" lon="1.29357">
        <ele>372</ele>
        <time>2024-04-28T08:51:05Z</time>
      </trkpt>
      <trkpt lat="46.0012" lon="1.2936">
        <ele>372.6</ele>
        <time>2024-04-28T08:51:07Z</time>
      </trkpt>
      <trkpt lat="46.00117" lon="1.29363">
        <ele>373.2</ele>
        <time>2024-04-28T08:51:09Z</time>
      </trkpt>
      <trkpt lat="46.00111" lon="1.29369">
        <ele>374.2</ele>
        <time>2024-04-28T08:51:14Z</time>
      </trkpt>
      <trkpt lat="46.0011" lon="1.29369">
        <ele>374.4</ele>
        <time>2024-04-28T08:51:15Z</time>
      </trkpt>
      <trkpt lat="46.00109" lon="1.2937">
        <ele>374.6</ele>
        <time>2024-04-28T08:51:16Z</time>
      </trkpt>
      <trkpt lat="46.00107" lon="1.29381">
        <ele>374.8</ele>
        <time>2024-04-28T08:51:21Z</time>
      </trkpt>
      <trkpt lat="46.00105" lon="1.2939">
        <ele>375.4</ele>
        <time>2024-04-28T08:51:27Z</time>
      </trkpt>
      <trkpt lat="46.00105" lon="1.29393">
        <ele>375.6</ele>
        <time>2024-04-28T08:51:28Z</time>
      </trkpt>
      <trkpt lat="46.00101" lon="1.29405">
        <ele>376.4</ele>
        <time>2024-04-28T08:51:35Z</time>
      </trkpt>
      <trkpt lat="46.001" lon="1.29407">
        <ele>376.6</ele>
        <time>2024-04-28T08:51:36Z</time>
      </trkpt>
      <trkpt lat="46.00096" lon="1.29413">
        <ele>377</ele>
        <time>2024-04-28T08:51:39Z</time>
      </trkpt>
      <trkpt lat="46.00095" lon="1.29417">
        <ele>377.8</ele>
        <time>2024-04-28T08:51:41Z</time>
      </trkpt>
      <trkpt lat="46.00094" lon="1.29421">
        <ele>378.6</ele>
        <time>2024-04-28T08:51:43Z</time>
      </trkpt>
      <trkpt lat="46.00094" lon="1.29423">
        <ele>378.8</ele>
        <time>2024-04-28T08:51:44Z</time>
      </trkpt>
      <trkpt lat="46.00094" lon="1.29425">
        <ele>379</ele>
        <time>2024-04-28T08:51:45Z</time>
      </trkpt>
      <trkpt lat="46.00096" lon="1.29429">
        <ele>379.2</ele>
        <time>2024-04-28T08:51:47Z</time>
      </trkpt>
      <trkpt lat="46.00097" lon="1.29429">
        <ele>380.2</ele>
        <time>2024-04-28T08:51:50Z</time>
      </trkpt>
      <trkpt lat="46.00102" lon="1.2943">
        <ele>381.4</ele>
        <time>2024-04-28T08:51:57Z</time>
      </trkpt>
      <trkpt lat="46.00103" lon="1.2943">
        <ele>381.6</ele>
        <time>2024-04-28T08:51:59Z</time>
      </trkpt>
      <trkpt lat="46.00105" lon="1.29431">
        <ele>382</ele>
        <time>2024-04-28T08:52:02Z</time>
      </trkpt>
      <trkpt lat="46.00106" lon="1.29431">
        <ele>382.6</ele>
        <time>2024-04-28T08:52:04Z</time>
      </trkpt>
      <trkpt lat="46.00112" lon="1.29433">
        <ele>383.4</ele>
        <time>2024-04-28T08:52:10Z</time>
      </trkpt>
      <trkpt lat="46.00113" lon="1.29433">
        <ele>383.6</ele>
        <time>2024-04-28T08:52:11Z</time>
      </trkpt>
      <trkpt lat="46.00115" lon="1.29434">
        <ele>383.8</ele>
        <time>2024-04-28T08:52:13Z</time>
      </trkpt>
      <trkpt lat="46.00117" lon="1.29435">
        <ele>383.8</ele>
        <time>2024-04-28T08:52:14Z</time>
      </trkpt>
      <trkpt lat="46.00125" lon="1.2944">
        <ele>385</ele>
        <time>2024-04-28T08:52:20Z</time>
      </trkpt>
      <trkpt lat="46.00132" lon="1.29449">
        <ele>386</ele>
        <time>2024-04-28T08:52:27Z</time>
      </trkpt>
      <trkpt lat="46.00133" lon="1.2945">
        <ele>386</ele>
        <time>2024-04-28T08:52:28Z</time>
      </trkpt>
      <trkpt lat="46.00141" lon="1.29457">
        <ele>387</ele>
        <time>2024-04-28T08:52:36Z</time>
      </trkpt>
      <trkpt lat="46.00146" lon="1.29459">
        <ele>387.8</ele>
        <time>2024-04-28T08:52:40Z</time>
      </trkpt>
      <trkpt lat="46.00147" lon="1.29459">
        <ele>388.2</ele>
        <time>2024-04-28T08:52:41Z</time>
      </trkpt>
      <trkpt lat="46.00152" lon="1.2946">
        <ele>389.2</ele>
        <time>2024-04-28T08:52:47Z</time>
      </trkpt>
      <trkpt lat="46.00157" lon="1.29459">
        <ele>390</ele>
        <time>2024-04-28T08:52:52Z</time>
      </trkpt>
      <trkpt lat="46.00158" lon="1.29458">
        <ele>390</ele>
        <time>2024-04-28T08:52:53Z</time>
      </trkpt>
      <trkpt lat="46.0017" lon="1.29461">
        <ele>390.4</ele>
        <time>2024-04-28T08:53:01Z</time>
      </trkpt>
      <trkpt lat="46.00172" lon="1.29462">
        <ele>390.6</ele>
        <time>2024-04-28T08:53:02Z</time>
      </trkpt>
      <trkpt lat="46.00181" lon="1.29468">
        <ele>391.4</ele>
        <time>2024-04-28T08:53:08Z</time>
      </trkpt>
      <trkpt lat="46.00182" lon="1.29469">
        <ele>391.6</ele>
        <time>2024-04-28T08:53:09Z</time>
      </trkpt>
      <trkpt lat="46.00194" lon="1.29475">
        <ele>392.6</ele>
        <time>2024-04-28T08:53:17Z</time>
      </trkpt>
      <trkpt lat="46.00202" lon="1.29479">
        <ele>393.2</ele>
        <time>2024-04-28T08:53:23Z</time>
      </trkpt>
      <trkpt lat="46.00206" lon="1.29481">
        <ele>393.6</ele>
        <time>2024-04-28T08:53:26Z</time>
      </trkpt>
      <trkpt lat="46.00212" lon="1.29489">
        <ele>394</ele>
        <time>2024-04-28T08:53:31Z</time>
      </trkpt>
      <trkpt lat="46.00218" lon="1.29494">
        <ele>394.6</ele>
        <time>2024-04-28T08:53:35Z</time>
      </trkpt>
      <trkpt lat="46.00221" lon="1.29495">
        <ele>395.2</ele>
        <time>2024-04-28T08:53:38Z</time>
      </trkpt>
      <trkpt lat="46.00223" lon="1.29495">
        <ele>395.4</ele>
        <time>2024-04-28T08:53:39Z</time>
      </trkpt>
      <trkpt lat="46.00225" lon="1.29492">
        <ele>395.6</ele>
        <time>2024-04-28T08:53:41Z</time>
      </trkpt>
      <trkpt lat="46.00227" lon="1.2949">
        <ele>395.4</ele>
        <time>2024-04-28T08:53:42Z</time>
      </trkpt>
      <trkpt lat="46.0023" lon="1.29487">
        <ele>395.2</ele>
        <time>2024-04-28T08:53:43Z</time>
      </trkpt>
      <trkpt lat="46.00237" lon="1.29477">
        <ele>394.4</ele>
        <time>2024-04-28T08:53:45Z</time>
      </trkpt>
      <trkpt lat="46.0024" lon="1.2947">
        <ele>394.2</ele>
        <time>2024-04-28T08:53:46Z</time>
      </trkpt>
      <trkpt lat="46.00248" lon="1.29459">
        <ele>393.4</ele>
        <time>2024-04-28T08:53:48Z</time>
      </trkpt>
      <trkpt lat="46.00255" lon="1.29454">
        <ele>392.8</ele>
        <time>2024-04-28T08:53:50Z</time>
      </trkpt>
      <trkpt lat="46.0026" lon="1.29451">
        <ele>392.2</ele>
        <time>2024-04-28T08:53:52Z</time>
      </trkpt>
      <trkpt lat="46.00263" lon="1.2945">
        <ele>392</ele>
        <time>2024-04-28T08:53:53Z</time>
      </trkpt>
      <trkpt lat="46.0027" lon="1.29449">
        <ele>391.6</ele>
        <time>2024-04-28T08:53:55Z</time>
      </trkpt>
      <trkpt lat="46.00282" lon="1.29449">
        <ele>391.2</ele>
        <time>2024-04-28T08:53:58Z</time>
      </trkpt>
      <trkpt lat="46.00288" lon="1.29445">
        <ele>391.4</ele>
        <time>2024-04-28T08:54:00Z</time>
      </trkpt>
      <trkpt lat="46.00305" lon="1.29447">
        <ele>393.4</ele>
        <time>2024-04-28T08:54:07Z</time>
      </trkpt>
      <trkpt lat="46.00324" lon="1.2945">
        <ele>394.6</ele>
        <time>2024-04-28T08:54:14Z</time>
      </trkpt>
      <trkpt lat="46.00329" lon="1.29455">
        <ele>395.6</ele>
        <time>2024-04-28T08:54:17Z</time>
      </trkpt>
      <trkpt lat="46.00332" lon="1.2946">
        <ele>396</ele>
        <time>2024-04-28T08:54:19Z</time>
      </trkpt>
      <trkpt lat="46.00333" lon="1.29463">
        <ele>396.4</ele>
        <time>2024-04-28T08:54:21Z</time>
      </trkpt>
      <trkpt lat="46.00333" lon="1.29466">
        <ele>396.6</ele>
        <time>2024-04-28T08:54:23Z</time>
      </trkpt>
      <trkpt lat="46.00332" lon="1.2947">
        <ele>397</ele>
        <time>2024-04-28T08:54:25Z</time>
      </trkpt>
      <trkpt lat="46.00332" lon="1.29475">
        <ele>397.8</ele>
        <time>2024-04-28T08:54:28Z</time>
      </trkpt>
      <trkpt lat="46.00332" lon="1.29482">
        <ele>398.8</ele>
        <time>2024-04-28T08:54:32Z</time>
      </trkpt>
      <trkpt lat="46.0033" lon="1.29493">
        <ele>399.6</ele>
        <time>2024-04-28T08:54:39Z</time>
      </trkpt>
      <trkpt lat="46.0033" lon="1.29497">
        <ele>399.8</ele>
        <time>2024-04-28T08:54:40Z</time>
      </trkpt>
      <trkpt lat="46.00327" lon="1.29503">
        <ele>401.2</ele>
        <time>2024-04-28T08:54:45Z</time>
      </trkpt>
      <trkpt lat="46.00326" lon="1.29508">
        <ele>401.6</ele>
        <time>2024-04-28T08:54:48Z</time>
      </trkpt>
      <trkpt lat="46.00325" lon="1.29514">
        <ele>402.2</ele>
        <time>2024-04-28T08:54:52Z</time>
      </trkpt>
      <trkpt lat="46.00324" lon="1.29518">
        <ele>402.4</ele>
        <time>2024-04-28T08:54:54Z</time>
      </trkpt>
      <trkpt lat="46.00319" lon="1.2953">
        <ele>403.2</ele>
        <time>2024-04-28T08:55:00Z</time>
      </trkpt>
      <trkpt lat="46.00318" lon="1.29533">
        <ele>403.4</ele>
        <time>2024-04-28T08:55:01Z</time>
      </trkpt>
      <trkpt lat="46.00316" lon="1.29543">
        <ele>404.4</ele>
        <time>2024-04-28T08:55:05Z</time>
      </trkpt>
      <trkpt lat="46.00315" lon="1.29553">
        <ele>405</ele>
        <time>2024-04-28T08:55:09Z</time>
      </trkpt>
      <trkpt lat="46.00315" lon="1.29558">
        <ele>405.4</ele>
        <time>2024-04-28T08:55:11Z</time>
      </trkpt>
      <trkpt lat="46.00317" lon="1.29572">
        <ele>406.4</ele>
        <time>2024-04-28T08:55:17Z</time>
      </trkpt>
      <trkpt lat="46.00322" lon="1.29586">
        <ele>407.4</ele>
        <time>2024-04-28T08:55:23Z</time>
      </trkpt>
      <trkpt lat="46.00324" lon="1.29592">
        <ele>408</ele>
        <time>2024-04-28T08:55:26Z</time>
      </trkpt>
      <trkpt lat="46.00327" lon="1.296">
        <ele>408.6</ele>
        <time>2024-04-28T08:55:29Z</time>
      </trkpt>
      <trkpt lat="46.00331" lon="1.29607">
        <ele>409</ele>
        <time>2024-04-28T08:55:33Z</time>
      </trkpt>
      <trkpt lat="46.00338" lon="1.29615">
        <ele>409.6</ele>
        <time>2024-04-28T08:55:37Z</time>
      </trkpt>
      <trkpt lat="46.00343" lon="1.29621">
        <ele>410</ele>
        <time>2024-04-28T08:55:41Z</time>
      </trkpt>
      <trkpt lat="46.00351" lon="1.29627">
        <ele>410.6</ele>
        <time>2024-04-28T08:55:45Z</time>
      </trkpt>
      <trkpt lat="46.00359" lon="1.29634">
        <ele>411</ele>
        <time>2024-04-28T08:55:49Z</time>
      </trkpt>
      <trkpt lat="46.00374" lon="1.29645">
        <ele>411.6</ele>
        <time>2024-04-28T08:55:55Z</time>
      </trkpt>
      <trkpt lat="46.00385" lon="1.2966">
        <ele>412</ele>
        <time>2024-04-28T08:56:01Z</time>
      </trkpt>
      <trkpt lat="46.00396" lon="1.29681">
        <ele>412</ele>
        <time>2024-04-28T08:56:06Z</time>
      </trkpt>
      <trkpt lat="46.00401" lon="1.29703">
        <ele>411.8</ele>
        <time>2024-04-28T08:56:11Z</time>
      </trkpt>
      <trkpt lat="46.00403" lon="1.29708">
        <ele>411.4</ele>
        <time>2024-04-28T08:56:13Z</time>
      </trkpt>
      <trkpt lat="46.00409" lon="1.29712">
        <ele>410.8</ele>
        <time>2024-04-28T08:56:15Z</time>
      </trkpt>
      <trkpt lat="46.00413" lon="1.29713">
        <ele>410.2</ele>
        <time>2024-04-28T08:56:16Z</time>
      </trkpt>
      <trkpt lat="46.00425" lon="1.29718">
        <ele>409</ele>
        <time>2024-04-28T08:56:19Z</time>
      </trkpt>
      <trkpt lat="46.00434" lon="1.29723">
        <ele>408.6</ele>
        <time>2024-04-28T08:56:21Z</time>
      </trkpt>
      <trkpt lat="46.00452" lon="1.29733">
        <ele>408.4</ele>
        <time>2024-04-28T08:56:25Z</time>
      </trkpt>
      <trkpt lat="46.00456" lon="1.29736">
        <ele>408.4</ele>
        <time>2024-04-28T08:56:26Z</time>
      </trkpt>
      <trkpt lat="46.00463" lon="1.29742">
        <ele>408</ele>
        <time>2024-04-28T08:56:28Z</time>
      </trkpt>
      <trkpt lat="46.00477" lon="1.29753">
        <ele>407.6</ele>
        <time>2024-04-28T08:56:32Z</time>
      </trkpt>
      <trkpt lat="46.00496" lon="1.29771">
        <ele>407.2</ele>
        <time>2024-04-28T08:56:38Z</time>
      </trkpt>
      <trkpt lat="46.00503" lon="1.29788">
        <ele>407</ele>
        <time>2024-04-28T08:56:42Z</time>
      </trkpt>
      <trkpt lat="46.00507" lon="1.29797">
        <ele>406.6</ele>
        <time>2024-04-28T08:56:44Z</time>
      </trkpt>
      <trkpt lat="46.00515" lon="1.29817">
        <ele>406</ele>
        <time>2024-04-28T08:56:48Z</time>
      </trkpt>
      <trkpt lat="46.00517" lon="1.29821">
        <ele>405.8</ele>
        <time>2024-04-28T08:56:49Z</time>
      </trkpt>
      <trkpt lat="46.00521" lon="1.29824">
        <ele>405.2</ele>
        <time>2024-04-28T08:56:50Z</time>
      </trkpt>
      <trkpt lat="46.00528" lon="1.29833">
        <ele>404.4</ele>
        <time>2024-04-28T08:56:52Z</time>
      </trkpt>
      <trkpt lat="46.00531" lon="1.29839">
        <ele>404.2</ele>
        <time>2024-04-28T08:56:53Z</time>
      </trkpt>
      <trkpt lat="46.00537" lon="1.29851">
        <ele>403.2</ele>
        <time>2024-04-28T08:56:55Z</time>
      </trkpt>
      <trkpt lat="46.00541" lon="1.29856">
        <ele>402</ele>
        <time>2024-04-28T08:56:56Z</time>
      </trkpt>
      <trkpt lat="46.00548" lon="1.29861">
        <ele>400.8</ele>
        <time>2024-04-28T08:56:58Z</time>
      </trkpt>
      <trkpt lat="46.00556" lon="1.2986">
        <ele>399.4</ele>
        <time>2024-04-28T08:57:01Z</time>
      </trkpt>
      <trkpt lat="46.00558" lon="1.29858">
        <ele>399.2</ele>
        <time>2024-04-28T08:57:02Z</time>
      </trkpt>
      <trkpt lat="46.00563" lon="1.29846">
        <ele>398.6</ele>
        <time>2024-04-28T08:57:05Z</time>
      </trkpt>
      <trkpt lat="46.00565" lon="1.2984">
        <ele>398.2</ele>
        <time>2024-04-28T08:57:06Z</time>
      </trkpt>
      <trkpt lat="46.00567" lon="1.29833">
        <ele>397.8</ele>
        <time>2024-04-28T08:57:07Z</time>
      </trkpt>
      <trkpt lat="46.00573" lon="1.29813">
        <ele>396.6</ele>
        <time>2024-04-28T08:57:10Z</time>
      </trkpt>
      <trkpt lat="46.00578" lon="1.29808">
        <ele>396</ele>
        <time>2024-04-28T08:57:11Z</time>
      </trkpt>
      <trkpt lat="46.00584" lon="1.29804">
        <ele>395.4</ele>
        <time>2024-04-28T08:57:12Z</time>
      </trkpt>
      <trkpt lat="46.00596" lon="1.29796">
        <ele>394.8</ele>
        <time>2024-04-28T08:57:14Z</time>
      </trkpt>
      <trkpt lat="46.00604" lon="1.29793">
        <ele>394.4</ele>
        <time>2024-04-28T08:57:15Z</time>
      </trkpt>
      <trkpt lat="46.00611" lon="1.29789">
        <ele>394</ele>
        <time>2024-04-28T08:57:16Z</time>
      </trkpt>
      <trkpt lat="46.00625" lon="1.2978">
        <ele>392.8</ele>
        <time>2024-04-28T08:57:18Z</time>
      </trkpt>
      <trkpt lat="46.00646" lon="1.29771">
        <ele>391.8</ele>
        <time>2024-04-28T08:57:21Z</time>
      </trkpt>
      <trkpt lat="46.00661" lon="1.2977">
        <ele>390.8</ele>
        <time>2024-04-28T08:57:23Z</time>
      </trkpt>
      <trkpt lat="46.00669" lon="1.29769">
        <ele>390.6</ele>
        <time>2024-04-28T08:57:24Z</time>
      </trkpt>
      <trkpt lat="46.00685" lon="1.29763">
        <ele>389.2</ele>
        <time>2024-04-28T08:57:26Z</time>
      </trkpt>
      <trkpt lat="46.00692" lon="1.29758">
        <ele>388.8</ele>
        <time>2024-04-28T08:57:27Z</time>
      </trkpt>
      <trkpt lat="46.00699" lon="1.29753">
        <ele>388.6</ele>
        <time>2024-04-28T08:57:28Z</time>
      </trkpt>
      <trkpt lat="46.0071" lon="1.29741">
        <ele>388.2</ele>
        <time>2024-04-28T08:57:30Z</time>
      </trkpt>
      <trkpt lat="46.00714" lon="1.29735">
        <ele>388</ele>
        <time>2024-04-28T08:57:31Z</time>
      </trkpt>
      <trkpt lat="46.00728" lon="1.2971">
        <ele>387.4</ele>
        <time>2024-04-28T08:57:36Z</time>
      </trkpt>
      <trkpt lat="46.00739" lon="1.29686">
        <ele>387.8</ele>
        <time>2024-04-28T08:57:42Z</time>
      </trkpt>
      <trkpt lat="46.0074" lon="1.29661">
        <ele>388</ele>
        <time>2024-04-28T08:57:47Z</time>
      </trkpt>
      <trkpt lat="46.00739" lon="1.29649">
        <ele>387.8</ele>
        <time>2024-04-28T08:57:49Z</time>
      </trkpt>
      <trkpt lat="46.00737" lon="1.29639">
        <ele>387.8</ele>
        <time>2024-04-28T08:57:51Z</time>
      </trkpt>
      <trkpt lat="46.00735" lon="1.29635">
        <ele>387.6</ele>
        <time>2024-04-28T08:57:52Z</time>
      </trkpt>
      <trkpt lat="46.00727" lon="1.29623">
        <ele>387</ele>
        <time>2024-04-28T08:57:55Z</time>
      </trkpt>
      <trkpt lat="46.00725" lon="1.29618">
        <ele>386.8</ele>
        <time>2024-04-28T08:57:56Z</time>
      </trkpt>
      <trkpt lat="46.00722" lon="1.2961">
        <ele>386.4</ele>
        <time>2024-04-28T08:57:58Z</time>
      </trkpt>
      <trkpt lat="46.00721" lon="1.29601">
        <ele>386.2</ele>
        <time>2024-04-28T08:58:00Z</time>
      </trkpt>
      <trkpt lat="46.00717" lon="1.29585">
        <ele>386.2</ele>
        <time>2024-04-28T08:58:03Z</time>
      </trkpt>
      <trkpt lat="46.00714" lon="1.29574">
        <ele>385.8</ele>
        <time>2024-04-28T08:58:05Z</time>
      </trkpt>
      <trkpt lat="46.00714" lon="1.29569">
        <ele>385.6</ele>
        <time>2024-04-28T08:58:06Z</time>
      </trkpt>
      <trkpt lat="46.00715" lon="1.29558">
        <ele>385.4</ele>
        <time>2024-04-28T08:58:08Z</time>
      </trkpt>
      <trkpt lat="46.00717" lon="1.29545">
        <ele>384.6</ele>
        <time>2024-04-28T08:58:10Z</time>
      </trkpt>
      <trkpt lat="46.00719" lon="1.29533">
        <ele>383.4</ele>
        <time>2024-04-28T08:58:12Z</time>
      </trkpt>
      <trkpt lat="46.00721" lon="1.2952">
        <ele>383.2</ele>
        <time>2024-04-28T08:58:14Z</time>
      </trkpt>
      <trkpt lat="46.00723" lon="1.29506">
        <ele>382.2</ele>
        <time>2024-04-28T08:58:16Z</time>
      </trkpt>
      <trkpt lat="46.00726" lon="1.29478">
        <ele>381.2</ele>
        <time>2024-04-28T08:58:19Z</time>
      </trkpt>
      <trkpt lat="46.00727" lon="1.29469">
        <ele>381</ele>
        <time>2024-04-28T08:58:20Z</time>
      </trkpt>
      <trkpt lat="46.00728" lon="1.29461">
        <ele>380.2</ele>
        <time>2024-04-28T08:58:21Z</time>
      </trkpt>
      <trkpt lat="46.0073" lon="1.29454">
        <ele>378.6</ele>
        <time>2024-04-28T08:58:22Z</time>
      </trkpt>
      <trkpt lat="46.00732" lon="1.29447">
        <ele>377.6</ele>
        <time>2024-04-28T08:58:23Z</time>
      </trkpt>
      <trkpt lat="46.00734" lon="1.29441">
        <ele>376.4</ele>
        <time>2024-04-28T08:58:24Z</time>
      </trkpt>
      <trkpt lat="46.00742" lon="1.29418">
        <ele>374.6</ele>
        <time>2024-04-28T08:58:28Z</time>
      </trkpt>
      <trkpt lat="46.00744" lon="1.29413">
        <ele>373.6</ele>
        <time>2024-04-28T08:58:29Z</time>
      </trkpt>
      <trkpt lat="46.00746" lon="1.29408">
        <ele>372.8</ele>
        <time>2024-04-28T08:58:30Z</time>
      </trkpt>
      <trkpt lat="46.00749" lon="1.29404">
        <ele>372.2</ele>
        <time>2024-04-28T08:58:31Z</time>
      </trkpt>
      <trkpt lat="46.00752" lon="1.29397">
        <ele>371.2</ele>
        <time>2024-04-28T08:58:33Z</time>
      </trkpt>
      <trkpt lat="46.00754" lon="1.29394">
        <ele>370.4</ele>
        <time>2024-04-28T08:58:34Z</time>
      </trkpt>
      <trkpt lat="46.00756" lon="1.2939">
        <ele>370</ele>
        <time>2024-04-28T08:58:35Z</time>
      </trkpt>
      <trkpt lat="46.00758" lon="1.29387">
        <ele>369</ele>
        <time>2024-04-28T08:58:36Z</time>
      </trkpt>
      <trkpt lat="46.00764" lon="1.29382">
        <ele>367.4</ele>
        <time>2024-04-28T08:58:38Z</time>
      </trkpt>
      <trkpt lat="46.0077" lon="1.2938">
        <ele>366.6</ele>
        <time>2024-04-28T08:58:40Z</time>
      </trkpt>
      <trkpt lat="46.00775" lon="1.29379">
        <ele>366</ele>
        <time>2024-04-28T08:58:41Z</time>
      </trkpt>
      <trkpt lat="46.00778" lon="1.29377">
        <ele>364.8</ele>
        <time>2024-04-28T08:58:42Z</time>
      </trkpt>
      <trkpt lat="46.00785" lon="1.29371">
        <ele>363.6</ele>
        <time>2024-04-28T08:58:44Z</time>
      </trkpt>
      <trkpt lat="46.00788" lon="1.29371">
        <ele>363</ele>
        <time>2024-04-28T08:58:45Z</time>
      </trkpt>
      <trkpt lat="46.00796" lon="1.29372">
        <ele>362.4</ele>
        <time>2024-04-28T08:58:47Z</time>
      </trkpt>
      <trkpt lat="46.00816" lon="1.29376">
        <ele>361.6</ele>
        <time>2024-04-28T08:58:51Z</time>
      </trkpt>
      <trkpt lat="46.0082" lon="1.29379">
        <ele>361.4</ele>
        <time>2024-04-28T08:58:52Z</time>
      </trkpt>
      <trkpt lat="46.00831" lon="1.29383">
        <ele>361.2</ele>
        <time>2024-04-28T08:58:54Z</time>
      </trkpt>
      <trkpt lat="46.00851" lon="1.29397">
        <ele>360.4</ele>
        <time>2024-04-28T08:58:58Z</time>
      </trkpt>
      <trkpt lat="46.00882" lon="1.29422">
        <ele>359.8</ele>
        <time>2024-04-28T08:59:03Z</time>
      </trkpt>
      <trkpt lat="46.00887" lon="1.29429">
        <ele>359.6</ele>
        <time>2024-04-28T08:59:04Z</time>
      </trkpt>
      <trkpt lat="46.00891" lon="1.29437">
        <ele>359.2</ele>
        <time>2024-04-28T08:59:05Z</time>
      </trkpt>
      <trkpt lat="46.00895" lon="1.29454">
        <ele>358.4</ele>
        <time>2024-04-28T08:59:07Z</time>
      </trkpt>
      <trkpt lat="46.00896" lon="1.29463">
        <ele>358</ele>
        <time>2024-04-28T08:59:08Z</time>
      </trkpt>
      <trkpt lat="46.00899" lon="1.29484">
        <ele>356.4</ele>
        <time>2024-04-28T08:59:10Z</time>
      </trkpt>
      <trkpt lat="46.009" lon="1.29497">
        <ele>355.2</ele>
        <time>2024-04-28T08:59:11Z</time>
      </trkpt>
      <trkpt lat="46.00902" lon="1.2951">
        <ele>353.8</ele>
        <time>2024-04-28T08:59:12Z</time>
      </trkpt>
      <trkpt lat="46.00904" lon="1.29523">
        <ele>352.8</ele>
        <time>2024-04-28T08:59:13Z</time>
      </trkpt>
      <trkpt lat="46.00906" lon="1.29536">
        <ele>351.2</ele>
        <time>2024-04-28T08:59:14Z</time>
      </trkpt>
      <trkpt lat="46.00916" lon="1.29558">
        <ele>347.8</ele>
        <time>2024-04-28T08:59:16Z</time>
      </trkpt>
      <trkpt lat="46.00923" lon="1.29566">
        <ele>346.4</ele>
        <time>2024-04-28T08:59:17Z</time>
      </trkpt>
      <trkpt lat="46.00931" lon="1.29572">
        <ele>344.6</ele>
        <time>2024-04-28T08:59:18Z</time>
      </trkpt>
      <trkpt lat="46.00937" lon="1.29575">
        <ele>342.8</ele>
        <time>2024-04-28T08:59:19Z</time>
      </trkpt>
      <trkpt lat="46.00945" lon="1.29575">
        <ele>341</ele>
        <time>2024-04-28T08:59:20Z</time>
      </trkpt>
      <trkpt lat="46.00955" lon="1.29573">
        <ele>339.4</ele>
        <time>2024-04-28T08:59:22Z</time>
      </trkpt>
      <trkpt lat="46.00965" lon="1.29566">
        <ele>338.2</ele>
        <time>2024-04-28T08:59:24Z</time>
      </trkpt>
      <trkpt lat="46.00967" lon="1.29563">
        <ele>338</ele>
        <time>2024-04-28T08:59:25Z</time>
      </trkpt>
      <trkpt lat="46.00969" lon="1.29545">
        <ele>338</ele>
        <time>2024-04-28T08:59:31Z</time>
      </trkpt>
      <trkpt lat="46.00973" lon="1.29522">
        <ele>338.8</ele>
        <time>2024-04-28T08:59:38Z</time>
      </trkpt>
      <trkpt lat="46.00974" lon="1.29511">
        <ele>339.4</ele>
        <time>2024-04-28T08:59:42Z</time>
      </trkpt>
      <trkpt lat="46.00974" lon="1.29501">
        <ele>340</ele>
        <time>2024-04-28T08:59:45Z</time>
      </trkpt>
      <trkpt lat="46.00976" lon="1.29493">
        <ele>340.6</ele>
        <time>2024-04-28T08:59:48Z</time>
      </trkpt>
      <trkpt lat="46.00979" lon="1.2948">
        <ele>341.6</ele>
        <time>2024-04-28T08:59:53Z</time>
      </trkpt>
      <trkpt lat="46.00982" lon="1.29464">
        <ele>342.8</ele>
        <time>2024-04-28T08:59:59Z</time>
      </trkpt>
      <trkpt lat="46.00983" lon="1.29456">
        <ele>343.6</ele>
        <time>2024-04-28T09:00:02Z</time>
      </trkpt>
      <trkpt lat="46.00984" lon="1.29451">
        <ele>343.8</ele>
        <time>2024-04-28T09:00:04Z</time>
      </trkpt>
      <trkpt lat="46.00985" lon="1.2944">
        <ele>344.6</ele>
        <time>2024-04-28T09:00:08Z</time>
      </trkpt>
      <trkpt lat="46.00986" lon="1.29428">
        <ele>344.8</ele>
        <time>2024-04-28T09:00:12Z</time>
      </trkpt>
      <trkpt lat="46.00988" lon="1.29415">
        <ele>346</ele>
        <time>2024-04-28T09:00:17Z</time>
      </trkpt>
      <trkpt lat="46.0099" lon="1.29398">
        <ele>347</ele>
        <time>2024-04-28T09:00:23Z</time>
      </trkpt>
      <trkpt lat="46.00991" lon="1.29392">
        <ele>347.2</ele>
        <time>2024-04-28T09:00:25Z</time>
      </trkpt>
      <trkpt lat="46.00992" lon="1.29377">
        <ele>348</ele>
        <time>2024-04-28T09:00:30Z</time>
      </trkpt>
      <trkpt lat="46.00993" lon="1.29362">
        <ele>348.4</ele>
        <time>2024-04-28T09:00:35Z</time>
      </trkpt>
      <trkpt lat="46.00995" lon="1.29343">
        <ele>349.2</ele>
        <time>2024-04-28T09:00:41Z</time>
      </trkpt>
      <trkpt lat="46.00995" lon="1.2934">
        <ele>349.4</ele>
        <time>2024-04-28T09:00:42Z</time>
      </trkpt>
      <trkpt lat="46.01001" lon="1.2932">
        <ele>350.2</ele>
        <time>2024-04-28T09:00:49Z</time>
      </trkpt>
      <trkpt lat="46.01012" lon="1.2931">
        <ele>351</ele>
        <time>2024-04-28T09:00:56Z</time>
      </trkpt>
      <trkpt lat="46.01016" lon="1.2931">
        <ele>351.2</ele>
        <time>2024-04-28T09:00:57Z</time>
      </trkpt>
      <trkpt lat="46.01024" lon="1.29309">
        <ele>352.2</ele>
        <time>2024-04-28T09:01:03Z</time>
      </trkpt>
      <trkpt lat="46.01025" lon="1.29309">
        <ele>352.4</ele>
        <time>2024-04-28T09:01:04Z</time>
      </trkpt>
      <trkpt lat="46.01036" lon="1.2931">
        <ele>353.2</ele>
        <time>2024-04-28T09:01:11Z</time>
      </trkpt>
      <trkpt lat="46.01037" lon="1.29311">
        <ele>353.4</ele>
        <time>2024-04-28T09:01:12Z</time>
      </trkpt>
      <trkpt lat="46.01048" lon="1.29315">
        <ele>354.4</ele>
        <time>2024-04-28T09:01:19Z</time>
      </trkpt>
      <trkpt lat="46.01051" lon="1.29317">
        <ele>354.6</ele>
        <time>2024-04-28T09:01:21Z</time>
      </trkpt>
      <trkpt lat="46.01061" lon="1.29321">
        <ele>355.6</ele>
        <time>2024-04-28T09:01:27Z</time>
      </trkpt>
      <trkpt lat="46.01071" lon="1.29324">
        <ele>356.2</ele>
        <time>2024-04-28T09:01:34Z</time>
      </trkpt>
      <trkpt lat="46.01076" lon="1.29325">
        <ele>356.6</ele>
        <time>2024-04-28T09:01:37Z</time>
      </trkpt>
      <trkpt lat="46.01083" lon="1.29327">
        <ele>356.8</ele>
        <time>2024-04-28T09:01:41Z</time>
      </trkpt>
      <trkpt lat="46.01097" lon="1.29329">
        <ele>357.8</ele>
        <time>2024-04-28T09:01:50Z</time>
      </trkpt>
      <trkpt lat="46.01108" lon="1.29333">
        <ele>358.8</ele>
        <time>2024-04-28T09:01:58Z</time>
      </trkpt>
      <trkpt lat="46.01118" lon="1.29336">
        <ele>360</ele>
        <time>2024-04-28T09:02:05Z</time>
      </trkpt>
      <trkpt lat="46.01128" lon="1.29338">
        <ele>361.2</ele>
        <time>2024-04-28T09:02:12Z</time>
      </trkpt>
      <trkpt lat="46.0113" lon="1.29338">
        <ele>361.4</ele>
        <time>2024-04-28T09:02:13Z</time>
      </trkpt>
      <trkpt lat="46.01138" lon="1.2934">
        <ele>362.6</ele>
        <time>2024-04-28T09:02:18Z</time>
      </trkpt>
      <trkpt lat="46.01141" lon="1.2934">
        <ele>363.2</ele>
        <time>2024-04-28T09:02:20Z</time>
      </trkpt>
      <trkpt lat="46.01147" lon="1.29341">
        <ele>363.8</ele>
        <time>2024-04-28T09:02:24Z</time>
      </trkpt>
      <trkpt lat="46.01153" lon="1.29343">
        <ele>364.2</ele>
        <time>2024-04-28T09:02:28Z</time>
      </trkpt>
      <trkpt lat="46.01165" lon="1.29345">
        <ele>364.8</ele>
        <time>2024-04-28T09:02:35Z</time>
      </trkpt>
      <trkpt lat="46.01176" lon="1.29346">
        <ele>365.8</ele>
        <time>2024-04-28T09:02:41Z</time>
      </trkpt>
      <trkpt lat="46.01178" lon="1.29347">
        <ele>365.8</ele>
        <time>2024-04-28T09:02:42Z</time>
      </trkpt>
      <trkpt lat="46.01191" lon="1.29353">
        <ele>366.4</ele>
        <time>2024-04-28T09:02:49Z</time>
      </trkpt>
      <trkpt lat="46.01207" lon="1.29358">
        <ele>366.8</ele>
        <time>2024-04-28T09:02:55Z</time>
      </trkpt>
      <trkpt lat="46.01213" lon="1.29361">
        <ele>367</ele>
        <time>2024-04-28T09:02:57Z</time>
      </trkpt>
      <trkpt lat="46.01225" lon="1.2937">
        <ele>367.4</ele>
        <time>2024-04-28T09:03:01Z</time>
      </trkpt>
      <trkpt lat="46.01236" lon="1.29391">
        <ele>367.6</ele>
        <time>2024-04-28T09:03:06Z</time>
      </trkpt>
      <trkpt lat="46.01238" lon="1.29414">
        <ele>368</ele>
        <time>2024-04-28T09:03:11Z</time>
      </trkpt>
      <trkpt lat="46.01238" lon="1.29418">
        <ele>368.2</ele>
        <time>2024-04-28T09:03:12Z</time>
      </trkpt>
      <trkpt lat="46.01231" lon="1.29444">
        <ele>368.8</ele>
        <time>2024-04-28T09:03:19Z</time>
      </trkpt>
      <trkpt lat="46.01226" lon="1.29459">
        <ele>369.2</ele>
        <time>2024-04-28T09:03:23Z</time>
      </trkpt>
      <trkpt lat="46.01223" lon="1.29469">
        <ele>369.4</ele>
        <time>2024-04-28T09:03:26Z</time>
      </trkpt>
      <trkpt lat="46.01221" lon="1.29491">
        <ele>370</ele>
        <time>2024-04-28T09:03:33Z</time>
      </trkpt>
      <trkpt lat="46.01219" lon="1.29501">
        <ele>370.4</ele>
        <time>2024-04-28T09:03:36Z</time>
      </trkpt>
      <trkpt lat="46.01218" lon="1.29514">
        <ele>371.4</ele>
        <time>2024-04-28T09:03:40Z</time>
      </trkpt>
      <trkpt lat="46.01218" lon="1.29517">
        <ele>371.8</ele>
        <time>2024-04-28T09:03:41Z</time>
      </trkpt>
      <trkpt lat="46.01218" lon="1.2952">
        <ele>371.8</ele>
        <time>2024-04-28T09:03:42Z</time>
      </trkpt>
      <trkpt lat="46.01217" lon="1.29536">
        <ele>372.6</ele>
        <time>2024-04-28T09:03:47Z</time>
      </trkpt>
      <trkpt lat="46.01218" lon="1.29546">
        <ele>373.6</ele>
        <time>2024-04-28T09:03:50Z</time>
      </trkpt>
      <trkpt lat="46.01218" lon="1.29549">
        <ele>373.8</ele>
        <time>2024-04-28T09:03:51Z</time>
      </trkpt>
      <trkpt lat="46.0122" lon="1.29572">
        <ele>374.8</ele>
        <time>2024-04-28T09:03:59Z</time>
      </trkpt>
      <trkpt lat="46.01223" lon="1.29593">
        <ele>375.2</ele>
        <time>2024-04-28T09:04:07Z</time>
      </trkpt>
      <trkpt lat="46.01225" lon="1.29601">
        <ele>375.8</ele>
        <time>2024-04-28T09:04:10Z</time>
      </trkpt>
      <trkpt lat="46.01227" lon="1.29612">
        <ele>376.4</ele>
        <time>2024-04-28T09:04:15Z</time>
      </trkpt>
      <trkpt lat="46.0123" lon="1.29624">
        <ele>377</ele>
        <time>2024-04-28T09:04:20Z</time>
      </trkpt>
      <trkpt lat="46.01233" lon="1.29631">
        <ele>377.4</ele>
        <time>2024-04-28T09:04:23Z</time>
      </trkpt>
      <trkpt lat="46.01237" lon="1.29634">
        <ele>378.2</ele>
        <time>2024-04-28T09:04:26Z</time>
      </trkpt>
      <trkpt lat="46.01238" lon="1.29635">
        <ele>378.2</ele>
        <time>2024-04-28T09:04:27Z</time>
      </trkpt>
      <trkpt lat="46.0124" lon="1.29635">
        <ele>378.4</ele>
        <time>2024-04-28T09:04:28Z</time>
      </trkpt>
      <trkpt lat="46.0125" lon="1.29632">
        <ele>378.2</ele>
        <time>2024-04-28T09:04:34Z</time>
      </trkpt>
      <trkpt lat="46.01264" lon="1.29629">
        <ele>378.2</ele>
        <time>2024-04-28T09:04:40Z</time>
      </trkpt>
      <trkpt lat="46.01281" lon="1.29627">
        <ele>378.2</ele>
        <time>2024-04-28T09:04:46Z</time>
      </trkpt>
      <trkpt lat="46.01301" lon="1.29625">
        <ele>379</ele>
        <time>2024-04-28T09:04:53Z</time>
      </trkpt>
      <trkpt lat="46.01303" lon="1.29624">
        <ele>379.4</ele>
        <time>2024-04-28T09:04:54Z</time>
      </trkpt>
      <trkpt lat="46.01313" lon="1.29628">
        <ele>379.8</ele>
        <time>2024-04-28T09:04:59Z</time>
      </trkpt>
      <trkpt lat="46.01326" lon="1.29638">
        <ele>380.6</ele>
        <time>2024-04-28T09:05:05Z</time>
      </trkpt>
      <trkpt lat="46.01336" lon="1.29647">
        <ele>381.6</ele>
        <time>2024-04-28T09:05:11Z</time>
      </trkpt>
      <trkpt lat="46.01338" lon="1.29648">
        <ele>382</ele>
        <time>2024-04-28T09:05:12Z</time>
      </trkpt>
      <trkpt lat="46.01347" lon="1.29658">
        <ele>382.6</ele>
        <time>2024-04-28T09:05:18Z</time>
      </trkpt>
      <trkpt lat="46.01347" lon="1.2966">
        <ele>382.6</ele>
        <time>2024-04-28T09:05:19Z</time>
      </trkpt>
      <trkpt lat="46.01347" lon="1.29661">
        <ele>382.8</ele>
        <time>2024-04-28T09:05:20Z</time>
      </trkpt>
      <trkpt lat="46.01347" lon="1.29667">
        <ele>383.4</ele>
        <time>2024-04-28T09:05:24Z</time>
      </trkpt>
      <trkpt lat="46.01347" lon="1.2967">
        <ele>383.8</ele>
        <time>2024-04-28T09:05:26Z</time>
      </trkpt>
      <trkpt lat="46.01345" lon="1.29678">
        <ele>384.8</ele>
        <time>2024-04-28T09:05:32Z</time>
      </trkpt>
      <trkpt lat="46.01345" lon="1.2968">
        <ele>385</ele>
        <time>2024-04-28T09:05:33Z</time>
      </trkpt>
      <trkpt lat="46.01344" lon="1.29692">
        <ele>386</ele>
        <time>2024-04-28T09:05:39Z</time>
      </trkpt>
      <trkpt lat="46.01344" lon="1.29696">
        <ele>386.4</ele>
        <time>2024-04-28T09:05:41Z</time>
      </trkpt>
      <trkpt lat="46.01342" lon="1.29709">
        <ele>387</ele>
        <time>2024-04-28T09:05:48Z</time>
      </trkpt>
      <trkpt lat="46.01342" lon="1.29711">
        <ele>387.2</ele>
        <time>2024-04-28T09:05:49Z</time>
      </trkpt>
      <trkpt lat="46.0134" lon="1.29722">
        <ele>387.4</ele>
        <time>2024-04-28T09:05:53Z</time>
      </trkpt>
      <trkpt lat="46.0134" lon="1.29728">
        <ele>387.6</ele>
        <time>2024-04-28T09:05:55Z</time>
      </trkpt>
      <trkpt lat="46.01339" lon="1.29735">
        <ele>388.2</ele>
        <time>2024-04-28T09:05:57Z</time>
      </trkpt>
      <trkpt lat="46.01338" lon="1.29747">
        <ele>388.4</ele>
        <time>2024-04-28T09:06:01Z</time>
      </trkpt>
      <trkpt lat="46.01335" lon="1.29764">
        <ele>388.6</ele>
        <time>2024-04-28T09:06:06Z</time>
      </trkpt>
      <trkpt lat="46.01336" lon="1.2977">
        <ele>388.6</ele>
        <time>2024-04-28T09:06:07Z</time>
      </trkpt>
      <trkpt lat="46.01338" lon="1.29793">
        <ele>389.2</ele>
        <time>2024-04-28T09:06:12Z</time>
      </trkpt>
      <trkpt lat="46.01339" lon="1.29797">
        <ele>389.4</ele>
        <time>2024-04-28T09:06:13Z</time>
      </trkpt>
      <trkpt lat="46.01346" lon="1.29812">
        <ele>389.6</ele>
        <time>2024-04-28T09:06:18Z</time>
      </trkpt>
      <trkpt lat="46.01348" lon="1.29816">
        <ele>389.6</ele>
        <time>2024-04-28T09:06:20Z</time>
      </trkpt>
      <trkpt lat="46.01352" lon="1.29821">
        <ele>389.4</ele>
        <time>2024-04-28T09:06:24Z</time>
      </trkpt>
      <trkpt lat="46.01364" lon="1.29835">
        <ele>389.8</ele>
        <time>2024-04-28T09:06:31Z</time>
      </trkpt>
      <trkpt lat="46.0137" lon="1.29857">
        <ele>390.2</ele>
        <time>2024-04-28T09:06:37Z</time>
      </trkpt>
      <trkpt lat="46.01375" lon="1.29876">
        <ele>391.2</ele>
        <time>2024-04-28T09:06:42Z</time>
      </trkpt>
      <trkpt lat="46.01376" lon="1.29883">
        <ele>391.6</ele>
        <time>2024-04-28T09:06:44Z</time>
      </trkpt>
      <trkpt lat="46.01377" lon="1.29894">
        <ele>392</ele>
        <time>2024-04-28T09:06:48Z</time>
      </trkpt>
      <trkpt lat="46.01376" lon="1.29896">
        <ele>392.2</ele>
        <time>2024-04-28T09:06:49Z</time>
      </trkpt>
      <trkpt lat="46.01374" lon="1.29898">
        <ele>392.4</ele>
        <time>2024-04-28T09:06:50Z</time>
      </trkpt>
      <trkpt lat="46.01364" lon="1.29907">
        <ele>392.8</ele>
        <time>2024-04-28T09:06:55Z</time>
      </trkpt>
      <trkpt lat="46.01357" lon="1.29914">
        <ele>393.6</ele>
        <time>2024-04-28T09:06:59Z</time>
      </trkpt>
      <trkpt lat="46.01351" lon="1.29919">
        <ele>394</ele>
        <time>2024-04-28T09:07:02Z</time>
      </trkpt>
      <trkpt lat="46.01338" lon="1.29923">
        <ele>394</ele>
        <time>2024-04-28T09:07:07Z</time>
      </trkpt>
      <trkpt lat="46.01329" lon="1.29928">
        <ele>394.2</ele>
        <time>2024-04-28T09:07:10Z</time>
      </trkpt>
      <trkpt lat="46.01326" lon="1.29933">
        <ele>394.4</ele>
        <time>2024-04-28T09:07:12Z</time>
      </trkpt>
      <trkpt lat="46.01325" lon="1.29939">
        <ele>394.6</ele>
        <time>2024-04-28T09:07:14Z</time>
      </trkpt>
      <trkpt lat="46.01321" lon="1.29949">
        <ele>395.6</ele>
        <time>2024-04-28T09:07:18Z</time>
      </trkpt>
      <trkpt lat="46.0132" lon="1.29951">
        <ele>395.8</ele>
        <time>2024-04-28T09:07:19Z</time>
      </trkpt>
      <trkpt lat="46.01319" lon="1.29953">
        <ele>395.8</ele>
        <time>2024-04-28T09:07:20Z</time>
      </trkpt>
      <trkpt lat="46.0131" lon="1.29962">
        <ele>396.6</ele>
        <time>2024-04-28T09:07:25Z</time>
      </trkpt>
      <trkpt lat="46.01309" lon="1.29964">
        <ele>396.8</ele>
        <time>2024-04-28T09:07:26Z</time>
      </trkpt>
      <trkpt lat="46.01305" lon="1.29977">
        <ele>397.4</ele>
        <time>2024-04-28T09:07:31Z</time>
      </trkpt>
      <trkpt lat="46.01303" lon="1.29986">
        <ele>397.8</ele>
        <time>2024-04-28T09:07:34Z</time>
      </trkpt>
      <trkpt lat="46.01303" lon="1.29997">
        <ele>399</ele>
        <time>2024-04-28T09:07:39Z</time>
      </trkpt>
      <trkpt lat="46.01306" lon="1.3001">
        <ele>400</ele>
        <time>2024-04-28T09:07:45Z</time>
      </trkpt>
      <trkpt lat="46.01306" lon="1.30011">
        <ele>400.2</ele>
        <time>2024-04-28T09:07:46Z</time>
      </trkpt>
      <trkpt lat="46.01308" lon="1.30012">
        <ele>400.4</ele>
        <time>2024-04-28T09:07:48Z</time>
      </trkpt>
      <trkpt lat="46.01315" lon="1.30013">
        <ele>400.6</ele>
        <time>2024-04-28T09:07:53Z</time>
      </trkpt>
      <trkpt lat="46.01321" lon="1.30013">
        <ele>401</ele>
        <time>2024-04-28T09:07:57Z</time>
      </trkpt>
      <trkpt lat="46.01325" lon="1.30013">
        <ele>401</ele>
        <time>2024-04-28T09:07:59Z</time>
      </trkpt>
      <trkpt lat="46.01336" lon="1.30016">
        <ele>400.8</ele>
        <time>2024-04-28T09:08:05Z</time>
      </trkpt>
      <trkpt lat="46.01345" lon="1.30024">
        <ele>401</ele>
        <time>2024-04-28T09:08:09Z</time>
      </trkpt>
      <trkpt lat="46.01346" lon="1.30026">
        <ele>401</ele>
        <time>2024-04-28T09:08:10Z</time>
      </trkpt>
      <trkpt lat="46.01346" lon="1.30028">
        <ele>401.2</ele>
        <time>2024-04-28T09:08:11Z</time>
      </trkpt>
      <trkpt lat="46.01344" lon="1.30035">
        <ele>402.2</ele>
        <time>2024-04-28T09:08:15Z</time>
      </trkpt>
      <trkpt lat="46.01339" lon="1.30043">
        <ele>403.4</ele>
        <time>2024-04-28T09:08:20Z</time>
      </trkpt>
      <trkpt lat="46.01339" lon="1.30046">
        <ele>403.6</ele>
        <time>2024-04-28T09:08:21Z</time>
      </trkpt>
      <trkpt lat="46.01339" lon="1.30048">
        <ele>404</ele>
        <time>2024-04-28T09:08:22Z</time>
      </trkpt>
      <trkpt lat="46.01339" lon="1.30058">
        <ele>404.4</ele>
        <time>2024-04-28T09:08:26Z</time>
      </trkpt>
      <trkpt lat="46.01339" lon="1.3006">
        <ele>404.6</ele>
        <time>2024-04-28T09:08:27Z</time>
      </trkpt>
      <trkpt lat="46.01339" lon="1.30065">
        <ele>405.2</ele>
        <time>2024-04-28T09:08:29Z</time>
      </trkpt>
      <trkpt lat="46.0134" lon="1.3007">
        <ele>405.6</ele>
        <time>2024-04-28T09:08:31Z</time>
      </trkpt>
      <trkpt lat="46.0134" lon="1.30088">
        <ele>406.4</ele>
        <time>2024-04-28T09:08:38Z</time>
      </trkpt>
      <trkpt lat="46.0134" lon="1.3009">
        <ele>406.6</ele>
        <time>2024-04-28T09:08:39Z</time>
      </trkpt>
      <trkpt lat="46.0134" lon="1.301">
        <ele>407.6</ele>
        <time>2024-04-28T09:08:44Z</time>
      </trkpt>
      <trkpt lat="46.01341" lon="1.30109">
        <ele>408.2</ele>
        <time>2024-04-28T09:08:48Z</time>
      </trkpt>
      <trkpt lat="46.01341" lon="1.30114">
        <ele>408.6</ele>
        <time>2024-04-28T09:08:50Z</time>
      </trkpt>
      <trkpt lat="46.01343" lon="1.30128">
        <ele>409.6</ele>
        <time>2024-04-28T09:08:56Z</time>
      </trkpt>
      <trkpt lat="46.01344" lon="1.3013">
        <ele>409.6</ele>
        <time>2024-04-28T09:08:57Z</time>
      </trkpt>
      <trkpt lat="46.01346" lon="1.30143">
        <ele>410.6</ele>
        <time>2024-04-28T09:09:03Z</time>
      </trkpt>
      <trkpt lat="46.01347" lon="1.30147">
        <ele>411</ele>
        <time>2024-04-28T09:09:05Z</time>
      </trkpt>
      <trkpt lat="46.01347" lon="1.3016">
        <ele>411.6</ele>
        <time>2024-04-28T09:09:11Z</time>
      </trkpt>
      <trkpt lat="46.01347" lon="1.30163">
        <ele>411.8</ele>
        <time>2024-04-28T09:09:12Z</time>
      </trkpt>
      <trkpt lat="46.01347" lon="1.30167">
        <ele>412.2</ele>
        <time>2024-04-28T09:09:14Z</time>
      </trkpt>
      <trkpt lat="46.01348" lon="1.30181">
        <ele>412.8</ele>
        <time>2024-04-28T09:09:20Z</time>
      </trkpt>
      <trkpt lat="46.01348" lon="1.30189">
        <ele>413</ele>
        <time>2024-04-28T09:09:23Z</time>
      </trkpt>
      <trkpt lat="46.01351" lon="1.30213">
        <ele>413.8</ele>
        <time>2024-04-28T09:09:32Z</time>
      </trkpt>
      <trkpt lat="46.01353" lon="1.30233">
        <ele>414.4</ele>
        <time>2024-04-28T09:09:38Z</time>
      </trkpt>
      <trkpt lat="46.01357" lon="1.3024">
        <ele>414.6</ele>
        <time>2024-04-28T09:09:41Z</time>
      </trkpt>
      <trkpt lat="46.01359" lon="1.30241">
        <ele>414.6</ele>
        <time>2024-04-28T09:09:42Z</time>
      </trkpt>
      <trkpt lat="46.01373" lon="1.30244">
        <ele>414.8</ele>
        <time>2024-04-28T09:09:47Z</time>
      </trkpt>
      <trkpt lat="46.01378" lon="1.30257">
        <ele>415</ele>
        <time>2024-04-28T09:09:51Z</time>
      </trkpt>
      <trkpt lat="46.01378" lon="1.3026">
        <ele>415</ele>
        <time>2024-04-28T09:09:52Z</time>
      </trkpt>
      <trkpt lat="46.01374" lon="1.30269">
        <ele>415</ele>
        <time>2024-04-28T09:09:55Z</time>
      </trkpt>
      <trkpt lat="46.01372" lon="1.30271">
        <ele>415</ele>
        <time>2024-04-28T09:09:56Z</time>
      </trkpt>
      <trkpt lat="46.01363" lon="1.30277">
        <ele>414.6</ele>
        <time>2024-04-28T09:09:59Z</time>
      </trkpt>
      <trkpt lat="46.01355" lon="1.30287">
        <ele>413.8</ele>
        <time>2024-04-28T09:10:02Z</time>
      </trkpt>
      <trkpt lat="46.01354" lon="1.30292">
        <ele>413.6</ele>
        <time>2024-04-28T09:10:03Z</time>
      </trkpt>
      <trkpt lat="46.01354" lon="1.30299">
        <ele>413.4</ele>
        <time>2024-04-28T09:10:04Z</time>
      </trkpt>
      <trkpt lat="46.01356" lon="1.30306">
        <ele>412.6</ele>
        <time>2024-04-28T09:10:05Z</time>
      </trkpt>
      <trkpt lat="46.01358" lon="1.30314">
        <ele>412.2</ele>
        <time>2024-04-28T09:10:06Z</time>
      </trkpt>
      <trkpt lat="46.01362" lon="1.30328">
        <ele>411.6</ele>
        <time>2024-04-28T09:10:08Z</time>
      </trkpt>
      <trkpt lat="46.01364" lon="1.30342">
        <ele>410.2</ele>
        <time>2024-04-28T09:10:10Z</time>
      </trkpt>
      <trkpt lat="46.01365" lon="1.30349">
        <ele>409.8</ele>
        <time>2024-04-28T09:10:11Z</time>
      </trkpt>
      <trkpt lat="46.01367" lon="1.30385">
        <ele>409</ele>
        <time>2024-04-28T09:10:15Z</time>
      </trkpt>
      <trkpt lat="46.01366" lon="1.30403">
        <ele>407.8</ele>
        <time>2024-04-28T09:10:17Z</time>
      </trkpt>
      <trkpt lat="46.01363" lon="1.30421">
        <ele>406.2</ele>
        <time>2024-04-28T09:10:19Z</time>
      </trkpt>
      <trkpt lat="46.01357" lon="1.30429">
        <ele>405.6</ele>
        <time>2024-04-28T09:10:20Z</time>
      </trkpt>
      <trkpt lat="46.01351" lon="1.30436">
        <ele>405</ele>
        <time>2024-04-28T09:10:21Z</time>
      </trkpt>
      <trkpt lat="46.01344" lon="1.3044">
        <ele>404.8</ele>
        <time>2024-04-28T09:10:22Z</time>
      </trkpt>
      <trkpt lat="46.0133" lon="1.30449">
        <ele>403.6</ele>
        <time>2024-04-28T09:10:24Z</time>
      </trkpt>
      <trkpt lat="46.01327" lon="1.30452">
        <ele>402.6</ele>
        <time>2024-04-28T09:10:25Z</time>
      </trkpt>
      <trkpt lat="46.01325" lon="1.30454">
        <ele>401.4</ele>
        <time>2024-04-28T09:10:26Z</time>
      </trkpt>
      <trkpt lat="46.01323" lon="1.30458">
        <ele>401</ele>
        <time>2024-04-28T09:10:27Z</time>
      </trkpt>
      <trkpt lat="46.01324" lon="1.30465">
        <ele>400.4</ele>
        <time>2024-04-28T09:10:29Z</time>
      </trkpt>
      <trkpt lat="46.01324" lon="1.30468">
        <ele>400.2</ele>
        <time>2024-04-28T09:10:30Z</time>
      </trkpt>
      <trkpt lat="46.01331" lon="1.3049">
        <ele>401.2</ele>
        <time>2024-04-28T09:10:37Z</time>
      </trkpt>
      <trkpt lat="46.01333" lon="1.30501">
        <ele>401.4</ele>
        <time>2024-04-28T09:10:40Z</time>
      </trkpt>
      <trkpt lat="46.01334" lon="1.30511">
        <ele>401.6</ele>
        <time>2024-04-28T09:10:42Z</time>
      </trkpt>
      <trkpt lat="46.01341" lon="1.30537">
        <ele>401.8</ele>
        <time>2024-04-28T09:10:48Z</time>
      </trkpt>
      <trkpt lat="46.01356" lon="1.30556">
        <ele>401.2</ele>
        <time>2024-04-28T09:10:54Z</time>
      </trkpt>
      <trkpt lat="46.01361" lon="1.30561">
        <ele>401</ele>
        <time>2024-04-28T09:10:56Z</time>
      </trkpt>
      <trkpt lat="46.01368" lon="1.30568">
        <ele>400.4</ele>
        <time>2024-04-28T09:10:59Z</time>
      </trkpt>
      <trkpt lat="46.0137" lon="1.3057">
        <ele>400.2</ele>
        <time>2024-04-28T09:11:00Z</time>
      </trkpt>
      <trkpt lat="46.01391" lon="1.30575">
        <ele>399.6</ele>
        <time>2024-04-28T09:11:07Z</time>
      </trkpt>
      <trkpt lat="46.01404" lon="1.30575">
        <ele>399.4</ele>
        <time>2024-04-28T09:11:10Z</time>
      </trkpt>
      <trkpt lat="46.01408" lon="1.30574">
        <ele>399.2</ele>
        <time>2024-04-28T09:11:11Z</time>
      </trkpt>
      <trkpt lat="46.01424" lon="1.3057">
        <ele>398.4</ele>
        <time>2024-04-28T09:11:14Z</time>
      </trkpt>
      <trkpt lat="46.01429" lon="1.30569">
        <ele>398.4</ele>
        <time>2024-04-28T09:11:15Z</time>
      </trkpt>
      <trkpt lat="46.01438" lon="1.30567">
        <ele>397.8</ele>
        <time>2024-04-28T09:11:17Z</time>
      </trkpt>
      <trkpt lat="46.01448" lon="1.30563">
        <ele>397.6</ele>
        <time>2024-04-28T09:11:19Z</time>
      </trkpt>
      <trkpt lat="46.01452" lon="1.30561">
        <ele>397</ele>
        <time>2024-04-28T09:11:20Z</time>
      </trkpt>
      <trkpt lat="46.01456" lon="1.30561">
        <ele>396.4</ele>
        <time>2024-04-28T09:11:21Z</time>
      </trkpt>
      <trkpt lat="46.0146" lon="1.30562">
        <ele>395.6</ele>
        <time>2024-04-28T09:11:22Z</time>
      </trkpt>
      <trkpt lat="46.01463" lon="1.30566">
        <ele>394.8</ele>
        <time>2024-04-28T09:11:23Z</time>
      </trkpt>
      <trkpt lat="46.01466" lon="1.3057">
        <ele>393.6</ele>
        <time>2024-04-28T09:11:24Z</time>
      </trkpt>
      <trkpt lat="46.01471" lon="1.30575">
        <ele>392.8</ele>
        <time>2024-04-28T09:11:25Z</time>
      </trkpt>
      <trkpt lat="46.01474" lon="1.3058">
        <ele>392</ele>
        <time>2024-04-28T09:11:26Z</time>
      </trkpt>
      <trkpt lat="46.01475" lon="1.30585">
        <ele>391.2</ele>
        <time>2024-04-28T09:11:27Z</time>
      </trkpt>
      <trkpt lat="46.01477" lon="1.30591">
        <ele>390.6</ele>
        <time>2024-04-28T09:11:28Z</time>
      </trkpt>
      <trkpt lat="46.01479" lon="1.30597">
        <ele>389.2</ele>
        <time>2024-04-28T09:11:29Z</time>
      </trkpt>
      <trkpt lat="46.0149" lon="1.30611">
        <ele>387.8</ele>
        <time>2024-04-28T09:11:31Z</time>
      </trkpt>
      <trkpt lat="46.01495" lon="1.30618">
        <ele>387.4</ele>
        <time>2024-04-28T09:11:32Z</time>
      </trkpt>
      <trkpt lat="46.015" lon="1.30624">
        <ele>386.4</ele>
        <time>2024-04-28T09:11:33Z</time>
      </trkpt>
      <trkpt lat="46.01506" lon="1.30629">
        <ele>385.4</ele>
        <time>2024-04-28T09:11:34Z</time>
      </trkpt>
      <trkpt lat="46.01517" lon="1.30637">
        <ele>383.4</ele>
        <time>2024-04-28T09:11:36Z</time>
      </trkpt>
      <trkpt lat="46.01528" lon="1.30638">
        <ele>382</ele>
        <time>2024-04-28T09:11:38Z</time>
      </trkpt>
      <trkpt lat="46.01535" lon="1.30638">
        <ele>380.8</ele>
        <time>2024-04-28T09:11:39Z</time>
      </trkpt>
      <trkpt lat="46.01542" lon="1.30638">
        <ele>380.2</ele>
        <time>2024-04-28T09:11:40Z</time>
      </trkpt>
      <trkpt lat="46.01551" lon="1.30638">
        <ele>379.8</ele>
        <time>2024-04-28T09:11:41Z</time>
      </trkpt>
      <trkpt lat="46.01564" lon="1.30637">
        <ele>378.6</ele>
        <time>2024-04-28T09:11:43Z</time>
      </trkpt>
      <trkpt lat="46.01569" lon="1.30635">
        <ele>376.8</ele>
        <time>2024-04-28T09:11:44Z</time>
      </trkpt>
      <trkpt lat="46.01573" lon="1.30634">
        <ele>375.8</ele>
        <time>2024-04-28T09:11:45Z</time>
      </trkpt>
      <trkpt lat="46.01577" lon="1.30633">
        <ele>375</ele>
        <time>2024-04-28T09:11:46Z</time>
      </trkpt>
      <trkpt lat="46.0158" lon="1.30632">
        <ele>374.4</ele>
        <time>2024-04-28T09:11:47Z</time>
      </trkpt>
      <trkpt lat="46.01584" lon="1.30631">
        <ele>374.2</ele>
        <time>2024-04-28T09:11:48Z</time>
      </trkpt>
      <trkpt lat="46.01588" lon="1.3063">
        <ele>374</ele>
        <time>2024-04-28T09:11:49Z</time>
      </trkpt>
      <trkpt lat="46.0159" lon="1.30628">
        <ele>373.4</ele>
        <time>2024-04-28T09:11:50Z</time>
      </trkpt>
      <trkpt lat="46.01592" lon="1.30621">
        <ele>372.2</ele>
        <time>2024-04-28T09:11:52Z</time>
      </trkpt>
      <trkpt lat="46.01593" lon="1.30618">
        <ele>372</ele>
        <time>2024-04-28T09:11:53Z</time>
      </trkpt>
      <trkpt lat="46.01591" lon="1.3061">
        <ele>371</ele>
        <time>2024-04-28T09:11:55Z</time>
      </trkpt>
      <trkpt lat="46.01588" lon="1.30601">
        <ele>370.4</ele>
        <time>2024-04-28T09:11:57Z</time>
      </trkpt>
      <trkpt lat="46.01587" lon="1.30597">
        <ele>370.4</ele>
        <time>2024-04-28T09:11:58Z</time>
      </trkpt>
      <trkpt lat="46.01587" lon="1.30592">
        <ele>370.2</ele>
        <time>2024-04-28T09:11:59Z</time>
      </trkpt>
      <trkpt lat="46.01588" lon="1.30582">
        <ele>369.8</ele>
        <time>2024-04-28T09:12:01Z</time>
      </trkpt>
      <trkpt lat="46.01592" lon="1.30575">
        <ele>369.4</ele>
        <time>2024-04-28T09:12:03Z</time>
      </trkpt>
      <trkpt lat="46.01598" lon="1.3057">
        <ele>368.4</ele>
        <time>2024-04-28T09:12:05Z</time>
      </trkpt>
      <trkpt lat="46.01606" lon="1.30566">
        <ele>367.2</ele>
        <time>2024-04-28T09:12:07Z</time>
      </trkpt>
      <trkpt lat="46.01616" lon="1.30562">
        <ele>366.4</ele>
        <time>2024-04-28T09:12:09Z</time>
      </trkpt>
      <trkpt lat="46.0162" lon="1.3056">
        <ele>366</ele>
        <time>2024-04-28T09:12:10Z</time>
      </trkpt>
      <trkpt lat="46.01625" lon="1.30559">
        <ele>365.2</ele>
        <time>2024-04-28T09:12:11Z</time>
      </trkpt>
      <trkpt lat="46.01631" lon="1.30559">
        <ele>364.8</ele>
        <time>2024-04-28T09:12:12Z</time>
      </trkpt>
      <trkpt lat="46.01638" lon="1.30559">
        <ele>363.8</ele>
        <time>2024-04-28T09:12:13Z</time>
      </trkpt>
      <trkpt lat="46.01645" lon="1.3056">
        <ele>363.2</ele>
        <time>2024-04-28T09:12:14Z</time>
      </trkpt>
      <trkpt lat="46.01675" lon="1.30565">
        <ele>362.4</ele>
        <time>2024-04-28T09:12:19Z</time>
      </trkpt>
      <trkpt lat="46.01687" lon="1.30567">
        <ele>362.2</ele>
        <time>2024-04-28T09:12:21Z</time>
      </trkpt>
      <trkpt lat="46.01707" lon="1.30569">
        <ele>361.4</ele>
        <time>2024-04-28T09:12:25Z</time>
      </trkpt>
      <trkpt lat="46.01721" lon="1.30573">
        <ele>360.8</ele>
        <time>2024-04-28T09:12:28Z</time>
      </trkpt>
      <trkpt lat="46.01725" lon="1.30575">
        <ele>360.4</ele>
        <time>2024-04-28T09:12:29Z</time>
      </trkpt>
      <trkpt lat="46.01736" lon="1.30579">
        <ele>360</ele>
        <time>2024-04-28T09:12:31Z</time>
      </trkpt>
      <trkpt lat="46.01746" lon="1.30576">
        <ele>359.8</ele>
        <time>2024-04-28T09:12:34Z</time>
      </trkpt>
      <trkpt lat="46.01749" lon="1.30575">
        <ele>359.8</ele>
        <time>2024-04-28T09:12:35Z</time>
      </trkpt>
      <trkpt lat="46.01761" lon="1.30567">
        <ele>359.8</ele>
        <time>2024-04-28T09:12:39Z</time>
      </trkpt>
      <trkpt lat="46.01771" lon="1.30555">
        <ele>361</ele>
        <time>2024-04-28T09:12:43Z</time>
      </trkpt>
      <trkpt lat="46.0178" lon="1.30543">
        <ele>361.4</ele>
        <time>2024-04-28T09:12:48Z</time>
      </trkpt>
      <trkpt lat="46.01781" lon="1.3054">
        <ele>362</ele>
        <time>2024-04-28T09:12:49Z</time>
      </trkpt>
      <trkpt lat="46.01789" lon="1.30521">
        <ele>363</ele>
        <time>2024-04-28T09:12:56Z</time>
      </trkpt>
      <trkpt lat="46.0179" lon="1.30518">
        <ele>363.2</ele>
        <time>2024-04-28T09:12:57Z</time>
      </trkpt>
      <trkpt lat="46.01791" lon="1.30507">
        <ele>364</ele>
        <time>2024-04-28T09:13:02Z</time>
      </trkpt>
      <trkpt lat="46.01791" lon="1.30505">
        <ele>364.2</ele>
        <time>2024-04-28T09:13:03Z</time>
      </trkpt>
      <trkpt lat="46.01787" lon="1.30493">
        <ele>364.8</ele>
        <time>2024-04-28T09:13:09Z</time>
      </trkpt>
      <trkpt lat="46.01786" lon="1.3049">
        <ele>365.2</ele>
        <time>2024-04-28T09:13:11Z</time>
      </trkpt>
      <trkpt lat="46.01782" lon="1.30484">
        <ele>366.4</ele>
        <time>2024-04-28T09:13:15Z</time>
      </trkpt>
      <trkpt lat="46.01781" lon="1.30483">
        <ele>366.6</ele>
        <time>2024-04-28T09:13:16Z</time>
      </trkpt>
      <trkpt lat="46.01777" lon="1.30477">
        <ele>367.4</ele>
        <time>2024-04-28T09:13:20Z</time>
      </trkpt>
      <trkpt lat="46.01775" lon="1.30473">
        <ele>368.6</ele>
        <time>2024-04-28T09:13:23Z</time>
      </trkpt>
      <trkpt lat="46.01774" lon="1.30471">
        <ele>369</ele>
        <time>2024-04-28T09:13:25Z</time>
      </trkpt>
      <trkpt lat="46.01771" lon="1.30468">
        <ele>369.8</ele>
        <time>2024-04-28T09:13:28Z</time>
      </trkpt>
      <trkpt lat="46.01767" lon="1.30463">
        <ele>370.8</ele>
        <time>2024-04-28T09:13:32Z</time>
      </trkpt>
      <trkpt lat="46.01766" lon="1.30461">
        <ele>371.2</ele>
        <time>2024-04-28T09:13:34Z</time>
      </trkpt>
      <trkpt lat="46.01766" lon="1.30459">
        <ele>371.4</ele>
        <time>2024-04-28T09:13:35Z</time>
      </trkpt>
      <trkpt lat="46.01765" lon="1.30457">
        <ele>371.6</ele>
        <time>2024-04-28T09:13:37Z</time>
      </trkpt>
      <trkpt lat="46.01764" lon="1.30454">
        <ele>371.8</ele>
        <time>2024-04-28T09:13:39Z</time>
      </trkpt>
      <trkpt lat="46.01763" lon="1.30449">
        <ele>372.6</ele>
        <time>2024-04-28T09:13:42Z</time>
      </trkpt>
      <trkpt lat="46.0176" lon="1.30444">
        <ele>373</ele>
        <time>2024-04-28T09:13:45Z</time>
      </trkpt>
      <trkpt lat="46.01758" lon="1.30432">
        <ele>374.4</ele>
        <time>2024-04-28T09:13:53Z</time>
      </trkpt>
      <trkpt lat="46.01758" lon="1.30431">
        <ele>374.6</ele>
        <time>2024-04-28T09:13:54Z</time>
      </trkpt>
      <trkpt lat="46.01757" lon="1.30418">
        <ele>375.4</ele>
        <time>2024-04-28T09:14:01Z</time>
      </trkpt>
      <trkpt lat="46.01756" lon="1.30414">
        <ele>375.6</ele>
        <time>2024-04-28T09:14:04Z</time>
      </trkpt>
      <trkpt lat="46.01753" lon="1.30405">
        <ele>376.4</ele>
        <time>2024-04-28T09:14:09Z</time>
      </trkpt>
      <trkpt lat="46.01749" lon="1.30392">
        <ele>377.2</ele>
        <time>2024-04-28T09:14:16Z</time>
      </trkpt>
      <trkpt lat="46.01747" lon="1.30389">
        <ele>377.4</ele>
        <time>2024-04-28T09:14:18Z</time>
      </trkpt>
      <trkpt lat="46.01744" lon="1.30384">
        <ele>378.6</ele>
        <time>2024-04-28T09:14:22Z</time>
      </trkpt>
      <trkpt lat="46.0174" lon="1.30375">
        <ele>379.6</ele>
        <time>2024-04-28T09:14:28Z</time>
      </trkpt>
      <trkpt lat="46.0174" lon="1.30374">
        <ele>379.8</ele>
        <time>2024-04-28T09:14:29Z</time>
      </trkpt>
      <trkpt lat="46.01738" lon="1.30362">
        <ele>381</ele>
        <time>2024-04-28T09:14:37Z</time>
      </trkpt>
      <trkpt lat="46.01737" lon="1.30361">
        <ele>381.2</ele>
        <time>2024-04-28T09:14:38Z</time>
      </trkpt>
      <trkpt lat="46.01737" lon="1.30352">
        <ele>381.8</ele>
        <time>2024-04-28T09:14:42Z</time>
      </trkpt>
      <trkpt lat="46.01737" lon="1.30351">
        <ele>382</ele>
        <time>2024-04-28T09:14:43Z</time>
      </trkpt>
      <trkpt lat="46.01738" lon="1.30339">
        <ele>383</ele>
        <time>2024-04-28T09:14:49Z</time>
      </trkpt>
      <trkpt lat="46.01739" lon="1.30338">
        <ele>383.2</ele>
        <time>2024-04-28T09:14:50Z</time>
      </trkpt>
      <trkpt lat="46.01741" lon="1.30328">
        <ele>384.2</ele>
        <time>2024-04-28T09:14:56Z</time>
      </trkpt>
      <trkpt lat="46.01743" lon="1.30322">
        <ele>384.8</ele>
        <time>2024-04-28T09:15:01Z</time>
      </trkpt>
      <trkpt lat="46.01745" lon="1.30318">
        <ele>385.6</ele>
        <time>2024-04-28T09:15:04Z</time>
      </trkpt>
      <trkpt lat="46.01746" lon="1.30316">
        <ele>385.8</ele>
        <time>2024-04-28T09:15:05Z</time>
      </trkpt>
      <trkpt lat="46.01747" lon="1.30314">
        <ele>385.8</ele>
        <time>2024-04-28T09:15:06Z</time>
      </trkpt>
      <trkpt lat="46.01748" lon="1.30313">
        <ele>386</ele>
        <time>2024-04-28T09:15:07Z</time>
      </trkpt>
      <trkpt lat="46.0175" lon="1.3031">
        <ele>386.6</ele>
        <time>2024-04-28T09:15:10Z</time>
      </trkpt>
      <trkpt lat="46.01757" lon="1.30306">
        <ele>387.4</ele>
        <time>2024-04-28T09:15:16Z</time>
      </trkpt>
      <trkpt lat="46.01758" lon="1.30306">
        <ele>387.8</ele>
        <time>2024-04-28T09:15:17Z</time>
      </trkpt>
      <trkpt lat="46.01764" lon="1.30304">
        <ele>388.8</ele>
        <time>2024-04-28T09:15:22Z</time>
      </trkpt>
      <trkpt lat="46.01767" lon="1.30303">
        <ele>389.4</ele>
        <time>2024-04-28T09:15:24Z</time>
      </trkpt>
      <trkpt lat="46.01771" lon="1.30302">
        <ele>390</ele>
        <time>2024-04-28T09:15:27Z</time>
      </trkpt>
      <trkpt lat="46.0178" lon="1.30295">
        <ele>391</ele>
        <time>2024-04-28T09:15:35Z</time>
      </trkpt>
      <trkpt lat="46.01784" lon="1.30291">
        <ele>391.6</ele>
        <time>2024-04-28T09:15:39Z</time>
      </trkpt>
      <trkpt lat="46.01786" lon="1.30288">
        <ele>392</ele>
        <time>2024-04-28T09:15:42Z</time>
      </trkpt>
      <trkpt lat="46.01787" lon="1.30279">
        <ele>393.2</ele>
        <time>2024-04-28T09:15:49Z</time>
      </trkpt>
      <trkpt lat="46.01787" lon="1.30278">
        <ele>393.6</ele>
        <time>2024-04-28T09:15:50Z</time>
      </trkpt>
      <trkpt lat="46.01789" lon="1.30273">
        <ele>394.2</ele>
        <time>2024-04-28T09:15:53Z</time>
      </trkpt>
      <trkpt lat="46.0179" lon="1.30262">
        <ele>395.4</ele>
        <time>2024-04-28T09:16:01Z</time>
      </trkpt>
      <trkpt lat="46.01791" lon="1.30256">
        <ele>396.2</ele>
        <time>2024-04-28T09:16:04Z</time>
      </trkpt>
      <trkpt lat="46.01791" lon="1.30253">
        <ele>396.4</ele>
        <time>2024-04-28T09:16:05Z</time>
      </trkpt>
      <trkpt lat="46.0179" lon="1.30248">
        <ele>396.6</ele>
        <time>2024-04-28T09:16:06Z</time>
      </trkpt>
      <trkpt lat="46.01787" lon="1.30234">
        <ele>397</ele>
        <time>2024-04-28T09:16:13Z</time>
      </trkpt>
      <trkpt lat="46.01786" lon="1.30225">
        <ele>397.6</ele>
        <time>2024-04-28T09:16:17Z</time>
      </trkpt>
      <trkpt lat="46.01785" lon="1.30218">
        <ele>398.2</ele>
        <time>2024-04-28T09:16:20Z</time>
      </trkpt>
      <trkpt lat="46.01783" lon="1.3021">
        <ele>398.6</ele>
        <time>2024-04-28T09:16:23Z</time>
      </trkpt>
      <trkpt lat="46.01778" lon="1.30195">
        <ele>399</ele>
        <time>2024-04-28T09:16:28Z</time>
      </trkpt>
      <trkpt lat="46.01772" lon="1.30173">
        <ele>399.6</ele>
        <time>2024-04-28T09:16:34Z</time>
      </trkpt>
      <trkpt lat="46.01771" lon="1.30169">
        <ele>399.8</ele>
        <time>2024-04-28T09:16:35Z</time>
      </trkpt>
      <trkpt lat="46.01763" lon="1.30141">
        <ele>399.6</ele>
        <time>2024-04-28T09:16:42Z</time>
      </trkpt>
      <trkpt lat="46.01759" lon="1.3012">
        <ele>399.2</ele>
        <time>2024-04-28T09:16:46Z</time>
      </trkpt>
      <trkpt lat="46.01759" lon="1.30116">
        <ele>399.2</ele>
        <time>2024-04-28T09:16:47Z</time>
      </trkpt>
      <trkpt lat="46.01761" lon="1.30113">
        <ele>399.2</ele>
        <time>2024-04-28T09:16:48Z</time>
      </trkpt>
      <trkpt lat="46.01766" lon="1.3011">
        <ele>399</ele>
        <time>2024-04-28T09:16:50Z</time>
      </trkpt>
      <trkpt lat="46.01771" lon="1.3011">
        <ele>398.6</ele>
        <time>2024-04-28T09:16:52Z</time>
      </trkpt>
      <trkpt lat="46.0178" lon="1.30112">
        <ele>398.6</ele>
        <time>2024-04-28T09:16:55Z</time>
      </trkpt>
      <trkpt lat="46.01783" lon="1.30111">
        <ele>398.8</ele>
        <time>2024-04-28T09:16:56Z</time>
      </trkpt>
      <trkpt lat="46.01789" lon="1.30106">
        <ele>398.8</ele>
        <time>2024-04-28T09:16:58Z</time>
      </trkpt>
      <trkpt lat="46.01791" lon="1.30085">
        <ele>398.4</ele>
        <time>2024-04-28T09:17:03Z</time>
      </trkpt>
      <trkpt lat="46.01789" lon="1.30074">
        <ele>398.2</ele>
        <time>2024-04-28T09:17:05Z</time>
      </trkpt>
      <trkpt lat="46.0179" lon="1.30061">
        <ele>397.8</ele>
        <time>2024-04-28T09:17:07Z</time>
      </trkpt>
      <trkpt lat="46.0179" lon="1.30055">
        <ele>397.4</ele>
        <time>2024-04-28T09:17:08Z</time>
      </trkpt>
      <trkpt lat="46.01786" lon="1.30015">
        <ele>396.2</ele>
        <time>2024-04-28T09:17:13Z</time>
      </trkpt>
      <trkpt lat="46.01785" lon="1.30008">
        <ele>396</ele>
        <time>2024-04-28T09:17:14Z</time>
      </trkpt>
      <trkpt lat="46.0178" lon="1.29993">
        <ele>395.8</ele>
        <time>2024-04-28T09:17:16Z</time>
      </trkpt>
      <trkpt lat="46.01772" lon="1.29981">
        <ele>395.6</ele>
        <time>2024-04-28T09:17:18Z</time>
      </trkpt>
      <trkpt lat="46.01761" lon="1.29976">
        <ele>395.2</ele>
        <time>2024-04-28T09:17:20Z</time>
      </trkpt>
      <trkpt lat="46.01752" lon="1.29974">
        <ele>394.8</ele>
        <time>2024-04-28T09:17:22Z</time>
      </trkpt>
      <trkpt lat="46.01739" lon="1.29971">
        <ele>394</ele>
        <time>2024-04-28T09:17:25Z</time>
      </trkpt>
      <trkpt lat="46.01735" lon="1.2997">
        <ele>393.6</ele>
        <time>2024-04-28T09:17:26Z</time>
      </trkpt>
      <trkpt lat="46.01727" lon="1.2997">
        <ele>393</ele>
        <time>2024-04-28T09:17:28Z</time>
      </trkpt>
      <trkpt lat="46.01723" lon="1.2997">
        <ele>392.8</ele>
        <time>2024-04-28T09:17:29Z</time>
      </trkpt>
      <trkpt lat="46.01712" lon="1.29967">
        <ele>392</ele>
        <time>2024-04-28T09:17:31Z</time>
      </trkpt>
      <trkpt lat="46.01708" lon="1.29963">
        <ele>391.4</ele>
        <time>2024-04-28T09:17:32Z</time>
      </trkpt>
      <trkpt lat="46.01704" lon="1.29958">
        <ele>391</ele>
        <time>2024-04-28T09:17:33Z</time>
      </trkpt>
      <trkpt lat="46.01694" lon="1.29946">
        <ele>390.4</ele>
        <time>2024-04-28T09:17:35Z</time>
      </trkpt>
      <trkpt lat="46.0169" lon="1.29941">
        <ele>390</ele>
        <time>2024-04-28T09:17:36Z</time>
      </trkpt>
      <trkpt lat="46.01685" lon="1.29938">
        <ele>389.4</ele>
        <time>2024-04-28T09:17:37Z</time>
      </trkpt>
      <trkpt lat="46.0168" lon="1.29937">
        <ele>388.8</ele>
        <time>2024-04-28T09:17:38Z</time>
      </trkpt>
      <trkpt lat="46.0167" lon="1.29935">
        <ele>387.6</ele>
        <time>2024-04-28T09:17:40Z</time>
      </trkpt>
      <trkpt lat="46.01666" lon="1.29936">
        <ele>387.4</ele>
        <time>2024-04-28T09:17:41Z</time>
      </trkpt>
      <trkpt lat="46.01654" lon="1.29936">
        <ele>387.2</ele>
        <time>2024-04-28T09:17:44Z</time>
      </trkpt>
      <trkpt lat="46.01645" lon="1.29935">
        <ele>387</ele>
        <time>2024-04-28T09:17:46Z</time>
      </trkpt>
      <trkpt lat="46.01641" lon="1.29934">
        <ele>386.8</ele>
        <time>2024-04-28T09:17:47Z</time>
      </trkpt>
      <trkpt lat="46.01636" lon="1.29933">
        <ele>386.6</ele>
        <time>2024-04-28T09:17:48Z</time>
      </trkpt>
      <trkpt lat="46.01632" lon="1.29932">
        <ele>386.4</ele>
        <time>2024-04-28T09:17:49Z</time>
      </trkpt>
      <trkpt lat="46.01628" lon="1.2993">
        <ele>386</ele>
        <time>2024-04-28T09:17:50Z</time>
      </trkpt>
      <trkpt lat="46.01624" lon="1.29926">
        <ele>385.6</ele>
        <time>2024-04-28T09:17:51Z</time>
      </trkpt>
      <trkpt lat="46.0162" lon="1.2992">
        <ele>385.2</ele>
        <time>2024-04-28T09:17:52Z</time>
      </trkpt>
      <trkpt lat="46.01609" lon="1.299">
        <ele>383.8</ele>
        <time>2024-04-28T09:17:55Z</time>
      </trkpt>
      <trkpt lat="46.01606" lon="1.29893">
        <ele>383.6</ele>
        <time>2024-04-28T09:17:56Z</time>
      </trkpt>
      <trkpt lat="46.01596" lon="1.29872">
        <ele>382.8</ele>
        <time>2024-04-28T09:17:59Z</time>
      </trkpt>
      <trkpt lat="46.01592" lon="1.29865">
        <ele>382.6</ele>
        <time>2024-04-28T09:18:00Z</time>
      </trkpt>
      <trkpt lat="46.01584" lon="1.29854">
        <ele>382.4</ele>
        <time>2024-04-28T09:18:02Z</time>
      </trkpt>
      <trkpt lat="46.01574" lon="1.2984">
        <ele>381.8</ele>
        <time>2024-04-28T09:18:05Z</time>
      </trkpt>
      <trkpt lat="46.01571" lon="1.29833">
        <ele>381.6</ele>
        <time>2024-04-28T09:18:06Z</time>
      </trkpt>
      <trkpt lat="46.01569" lon="1.29827">
        <ele>381.2</ele>
        <time>2024-04-28T09:18:07Z</time>
      </trkpt>
      <trkpt lat="46.01558" lon="1.29804">
        <ele>380.8</ele>
        <time>2024-04-28T09:18:11Z</time>
      </trkpt>
      <trkpt lat="46.01552" lon="1.29792">
        <ele>380.4</ele>
        <time>2024-04-28T09:18:13Z</time>
      </trkpt>
      <trkpt lat="46.01537" lon="1.29759">
        <ele>379.8</ele>
        <time>2024-04-28T09:18:18Z</time>
      </trkpt>
      <trkpt lat="46.01529" lon="1.29743">
        <ele>379.4</ele>
        <time>2024-04-28T09:18:21Z</time>
      </trkpt>
      <trkpt lat="46.01526" lon="1.29732">
        <ele>379</ele>
        <time>2024-04-28T09:18:24Z</time>
      </trkpt>
      <trkpt lat="46.01528" lon="1.29722">
        <ele>378.2</ele>
        <time>2024-04-28T09:18:27Z</time>
      </trkpt>
      <trkpt lat="46.01528" lon="1.29719">
        <ele>378</ele>
        <time>2024-04-28T09:18:28Z</time>
      </trkpt>
      <trkpt lat="46.01526" lon="1.29717">
        <ele>377.8</ele>
        <time>2024-04-28T09:18:29Z</time>
      </trkpt>
      <trkpt lat="46.01521" lon="1.29714">
        <ele>377.4</ele>
        <time>2024-04-28T09:18:31Z</time>
      </trkpt>
      <trkpt lat="46.01519" lon="1.29717">
        <ele>377.2</ele>
        <time>2024-04-28T09:18:33Z</time>
      </trkpt>
      <trkpt lat="46.01521" lon="1.2973">
        <ele>377.8</ele>
        <time>2024-04-28T09:18:39Z</time>
      </trkpt>
      <trkpt lat="46.01518" lon="1.29735">
        <ele>378</ele>
        <time>2024-04-28T09:18:44Z</time>
      </trkpt>
      <trkpt lat="46.01516" lon="1.29738">
        <ele>378.2</ele>
        <time>2024-04-28T09:18:46Z</time>
      </trkpt>
      <trkpt lat="46.01509" lon="1.29753">
        <ele>379.4</ele>
        <time>2024-04-28T09:18:51Z</time>
      </trkpt>
      <trkpt lat="46.01504" lon="1.29764">
        <ele>380.2</ele>
        <time>2024-04-28T09:18:57Z</time>
      </trkpt>
      <trkpt lat="46.01505" lon="1.29763">
        <ele>380</ele>
        <time>2024-04-28T09:19:00Z</time>
      </trkpt>
      <trkpt lat="46.01507" lon="1.29757">
        <ele>379.6</ele>
        <time>2024-04-28T09:19:03Z</time>
      </trkpt>
      <trkpt lat="46.01516" lon="1.29741">
        <ele>379.2</ele>
        <time>2024-04-28T09:19:08Z</time>
      </trkpt>
      <trkpt lat="46.01521" lon="1.29736">
        <ele>378.8</ele>
        <time>2024-04-28T09:19:11Z</time>
      </trkpt>
      <trkpt lat="46.01523" lon="1.29737">
        <ele>378.8</ele>
        <time>2024-04-28T09:19:12Z</time>
      </trkpt>
      <trkpt lat="46.01529" lon="1.29748">
        <ele>378.6</ele>
        <time>2024-04-28T09:19:16Z</time>
      </trkpt>
      <trkpt lat="46.01541" lon="1.29776">
        <ele>378.8</ele>
        <time>2024-04-28T09:19:22Z</time>
      </trkpt>
      <trkpt lat="46.01543" lon="1.29781">
        <ele>379</ele>
        <time>2024-04-28T09:19:23Z</time>
      </trkpt>
      <trkpt lat="46.01545" lon="1.29791">
        <ele>379.4</ele>
        <time>2024-04-28T09:19:25Z</time>
      </trkpt>
      <trkpt lat="46.01548" lon="1.298">
        <ele>379.6</ele>
        <time>2024-04-28T09:19:27Z</time>
      </trkpt>
      <trkpt lat="46.0155" lon="1.29804">
        <ele>380</ele>
        <time>2024-04-28T09:19:28Z</time>
      </trkpt>
      <trkpt lat="46.01555" lon="1.29818">
        <ele>380.4</ele>
        <time>2024-04-28T09:19:31Z</time>
      </trkpt>
      <trkpt lat="46.01562" lon="1.29831">
        <ele>380.6</ele>
        <time>2024-04-28T09:19:34Z</time>
      </trkpt>
      <trkpt lat="46.01565" lon="1.29838">
        <ele>380.6</ele>
        <time>2024-04-28T09:19:36Z</time>
      </trkpt>
      <trkpt lat="46.01571" lon="1.29852">
        <ele>380.6</ele>
        <time>2024-04-28T09:19:39Z</time>
      </trkpt>
      <trkpt lat="46.01572" lon="1.29857">
        <ele>380.8</ele>
        <time>2024-04-28T09:19:40Z</time>
      </trkpt>
      <trkpt lat="46.0158" lon="1.29874">
        <ele>381.2</ele>
        <time>2024-04-28T09:19:44Z</time>
      </trkpt>
      <trkpt lat="46.01587" lon="1.29888">
        <ele>381.4</ele>
        <time>2024-04-28T09:19:48Z</time>
      </trkpt>
      <trkpt lat="46.0159" lon="1.29892">
        <ele>381.6</ele>
        <time>2024-04-28T09:19:49Z</time>
      </trkpt>
      <trkpt lat="46.01598" lon="1.29909">
        <ele>382.6</ele>
        <time>2024-04-28T09:19:54Z</time>
      </trkpt>
      <trkpt lat="46.016" lon="1.29911">
        <ele>382.8</ele>
        <time>2024-04-28T09:19:55Z</time>
      </trkpt>
      <trkpt lat="46.0161" lon="1.29921">
        <ele>383.8</ele>
        <time>2024-04-28T09:19:59Z</time>
      </trkpt>
      <trkpt lat="46.01619" lon="1.29924">
        <ele>385</ele>
        <time>2024-04-28T09:20:01Z</time>
      </trkpt>
      <trkpt lat="46.01632" lon="1.29925">
        <ele>386.2</ele>
        <time>2024-04-28T09:20:07Z</time>
      </trkpt>
      <trkpt lat="46.01639" lon="1.29925">
        <ele>386.4</ele>
        <time>2024-04-28T09:20:09Z</time>
      </trkpt>
      <trkpt lat="46.01664" lon="1.29929">
        <ele>386.4</ele>
        <time>2024-04-28T09:20:15Z</time>
      </trkpt>
      <trkpt lat="46.01678" lon="1.29943">
        <ele>387</ele>
        <time>2024-04-28T09:20:20Z</time>
      </trkpt>
      <trkpt lat="46.01683" lon="1.2995">
        <ele>387.4</ele>
        <time>2024-04-28T09:20:22Z</time>
      </trkpt>
      <trkpt lat="46.01693" lon="1.29962">
        <ele>388.4</ele>
        <time>2024-04-28T09:20:26Z</time>
      </trkpt>
      <trkpt lat="46.01695" lon="1.29964">
        <ele>388.6</ele>
        <time>2024-04-28T09:20:27Z</time>
      </trkpt>
      <trkpt lat="46.0171" lon="1.29967">
        <ele>389.8</ele>
        <time>2024-04-28T09:20:33Z</time>
      </trkpt>
      <trkpt lat="46.01722" lon="1.29967">
        <ele>390.6</ele>
        <time>2024-04-28T09:20:38Z</time>
      </trkpt>
      <trkpt lat="46.01724" lon="1.29968">
        <ele>391</ele>
        <time>2024-04-28T09:20:39Z</time>
      </trkpt>
      <trkpt lat="46.01738" lon="1.29971">
        <ele>391.6</ele>
        <time>2024-04-28T09:20:44Z</time>
      </trkpt>
      <trkpt lat="46.01747" lon="1.29971">
        <ele>392</ele>
        <time>2024-04-28T09:20:47Z</time>
      </trkpt>
      <trkpt lat="46.01758" lon="1.29975">
        <ele>392.2</ele>
        <time>2024-04-28T09:20:50Z</time>
      </trkpt>
      <trkpt lat="46.01775" lon="1.29993">
        <ele>393.2</ele>
        <time>2024-04-28T09:20:55Z</time>
      </trkpt>
      <trkpt lat="46.01783" lon="1.30012">
        <ele>394</ele>
        <time>2024-04-28T09:21:00Z</time>
      </trkpt>
      <trkpt lat="46.01785" lon="1.3001">
        <ele>394.2</ele>
        <time>2024-04-28T09:21:02Z</time>
      </trkpt>
      <trkpt lat="46.0179" lon="1.30002">
        <ele>394.4</ele>
        <time>2024-04-28T09:21:05Z</time>
      </trkpt>
      <trkpt lat="46.01806" lon="1.29991">
        <ele>394.2</ele>
        <time>2024-04-28T09:21:12Z</time>
      </trkpt>
      <trkpt lat="46.01827" lon="1.29982">
        <ele>395</ele>
        <time>2024-04-28T09:21:20Z</time>
      </trkpt>
      <trkpt lat="46.01829" lon="1.29979">
        <ele>395.2</ele>
        <time>2024-04-28T09:21:21Z</time>
      </trkpt>
      <trkpt lat="46.0183" lon="1.29976">
        <ele>395.2</ele>
        <time>2024-04-28T09:21:22Z</time>
      </trkpt>
      <trkpt lat="46.01831" lon="1.29968">
        <ele>395.4</ele>
        <time>2024-04-28T09:21:24Z</time>
      </trkpt>
      <trkpt lat="46.01837" lon="1.29951">
        <ele>396</ele>
        <time>2024-04-28T09:21:30Z</time>
      </trkpt>
      <trkpt lat="46.01839" lon="1.29943">
        <ele>396.6</ele>
        <time>2024-04-28T09:21:33Z</time>
      </trkpt>
      <trkpt lat="46.0184" lon="1.29932">
        <ele>397.2</ele>
        <time>2024-04-28T09:21:37Z</time>
      </trkpt>
      <trkpt lat="46.01842" lon="1.29924">
        <ele>397.6</ele>
        <time>2024-04-28T09:21:40Z</time>
      </trkpt>
      <trkpt lat="46.01845" lon="1.29916">
        <ele>398</ele>
        <time>2024-04-28T09:21:43Z</time>
      </trkpt>
      <trkpt lat="46.01849" lon="1.29911">
        <ele>398.8</ele>
        <time>2024-04-28T09:21:45Z</time>
      </trkpt>
      <trkpt lat="46.01856" lon="1.29904">
        <ele>399</ele>
        <time>2024-04-28T09:21:48Z</time>
      </trkpt>
      <trkpt lat="46.01876" lon="1.29887">
        <ele>399</ele>
        <time>2024-04-28T09:21:55Z</time>
      </trkpt>
      <trkpt lat="46.01888" lon="1.29875">
        <ele>398.6</ele>
        <time>2024-04-28T09:21:58Z</time>
      </trkpt>
      <trkpt lat="46.01894" lon="1.29866">
        <ele>398.2</ele>
        <time>2024-04-28T09:22:00Z</time>
      </trkpt>
      <trkpt lat="46.01903" lon="1.29853">
        <ele>397.4</ele>
        <time>2024-04-28T09:22:03Z</time>
      </trkpt>
      <trkpt lat="46.01912" lon="1.2984">
        <ele>396.2</ele>
        <time>2024-04-28T09:22:06Z</time>
      </trkpt>
      <trkpt lat="46.01927" lon="1.29805">
        <ele>395.4</ele>
        <time>2024-04-28T09:22:12Z</time>
      </trkpt>
      <trkpt lat="46.01928" lon="1.29799">
        <ele>395</ele>
        <time>2024-04-28T09:22:13Z</time>
      </trkpt>
      <trkpt lat="46.01929" lon="1.29794">
        <ele>394.6</ele>
        <time>2024-04-28T09:22:14Z</time>
      </trkpt>
      <trkpt lat="46.01932" lon="1.29785">
        <ele>393.2</ele>
        <time>2024-04-28T09:22:16Z</time>
      </trkpt>
      <trkpt lat="46.01934" lon="1.29785">
        <ele>392.4</ele>
        <time>2024-04-28T09:22:17Z</time>
      </trkpt>
      <trkpt lat="46.01935" lon="1.29785">
        <ele>391.8</ele>
        <time>2024-04-28T09:22:18Z</time>
      </trkpt>
      <trkpt lat="46.01938" lon="1.29789">
        <ele>391</ele>
        <time>2024-04-28T09:22:20Z</time>
      </trkpt>
      <trkpt lat="46.0194" lon="1.29791">
        <ele>389.8</ele>
        <time>2024-04-28T09:22:21Z</time>
      </trkpt>
      <trkpt lat="46.01944" lon="1.29793">
        <ele>388.6</ele>
        <time>2024-04-28T09:22:22Z</time>
      </trkpt>
      <trkpt lat="46.01948" lon="1.298">
        <ele>387.6</ele>
        <time>2024-04-28T09:22:24Z</time>
      </trkpt>
      <trkpt lat="46.01952" lon="1.2981">
        <ele>386.4</ele>
        <time>2024-04-28T09:22:26Z</time>
      </trkpt>
      <trkpt lat="46.01954" lon="1.29816">
        <ele>386</ele>
        <time>2024-04-28T09:22:27Z</time>
      </trkpt>
      <trkpt lat="46.01961" lon="1.29826">
        <ele>384.4</ele>
        <time>2024-04-28T09:22:29Z</time>
      </trkpt>
      <trkpt lat="46.0197" lon="1.29842">
        <ele>383.4</ele>
        <time>2024-04-28T09:22:32Z</time>
      </trkpt>
      <trkpt lat="46.01973" lon="1.29848">
        <ele>382.8</ele>
        <time>2024-04-28T09:22:33Z</time>
      </trkpt>
      <trkpt lat="46.01979" lon="1.29854">
        <ele>382.2</ele>
        <time>2024-04-28T09:22:34Z</time>
      </trkpt>
      <trkpt lat="46.01984" lon="1.29861">
        <ele>381.2</ele>
        <time>2024-04-28T09:22:35Z</time>
      </trkpt>
      <trkpt lat="46.01988" lon="1.29868">
        <ele>380</ele>
        <time>2024-04-28T09:22:36Z</time>
      </trkpt>
      <trkpt lat="46.01992" lon="1.29875">
        <ele>379</ele>
        <time>2024-04-28T09:22:37Z</time>
      </trkpt>
      <trkpt lat="46.01998" lon="1.29886">
        <ele>377.2</ele>
        <time>2024-04-28T09:22:39Z</time>
      </trkpt>
      <trkpt lat="46.02001" lon="1.29895">
        <ele>376.2</ele>
        <time>2024-04-28T09:22:41Z</time>
      </trkpt>
      <trkpt lat="46.02001" lon="1.29898">
        <ele>376</ele>
        <time>2024-04-28T09:22:42Z</time>
      </trkpt>
      <trkpt lat="46.01999" lon="1.29905">
        <ele>374.8</ele>
        <time>2024-04-28T09:22:45Z</time>
      </trkpt>
      <trkpt lat="46.01996" lon="1.2991">
        <ele>373.6</ele>
        <time>2024-04-28T09:22:47Z</time>
      </trkpt>
      <trkpt lat="46.01992" lon="1.29914">
        <ele>372.8</ele>
        <time>2024-04-28T09:22:49Z</time>
      </trkpt>
      <trkpt lat="46.01991" lon="1.29921">
        <ele>372.4</ele>
        <time>2024-04-28T09:22:51Z</time>
      </trkpt>
      <trkpt lat="46.01992" lon="1.29933">
        <ele>371.2</ele>
        <time>2024-04-28T09:22:53Z</time>
      </trkpt>
      <trkpt lat="46.01996" lon="1.29949">
        <ele>370.4</ele>
        <time>2024-04-28T09:22:55Z</time>
      </trkpt>
      <trkpt lat="46.01998" lon="1.29958">
        <ele>370</ele>
        <time>2024-04-28T09:22:56Z</time>
      </trkpt>
      <trkpt lat="46.01999" lon="1.29968">
        <ele>369</ele>
        <time>2024-04-28T09:22:57Z</time>
      </trkpt>
      <trkpt lat="46.02003" lon="1.29984">
        <ele>367.8</ele>
        <time>2024-04-28T09:22:59Z</time>
      </trkpt>
      <trkpt lat="46.02005" lon="1.2999">
        <ele>367.4</ele>
        <time>2024-04-28T09:23:00Z</time>
      </trkpt>
      <trkpt lat="46.02008" lon="1.30005">
        <ele>367.2</ele>
        <time>2024-04-28T09:23:02Z</time>
      </trkpt>
      <trkpt lat="46.0201" lon="1.30011">
        <ele>367</ele>
        <time>2024-04-28T09:23:03Z</time>
      </trkpt>
      <trkpt lat="46.02012" lon="1.30018">
        <ele>366.8</ele>
        <time>2024-04-28T09:23:04Z</time>
      </trkpt>
      <trkpt lat="46.02023" lon="1.3005">
        <ele>365.2</ele>
        <time>2024-04-28T09:23:09Z</time>
      </trkpt>
      <trkpt lat="46.02026" lon="1.30054">
        <ele>365</ele>
        <time>2024-04-28T09:23:10Z</time>
      </trkpt>
      <trkpt lat="46.02034" lon="1.3006">
        <ele>364.2</ele>
        <time>2024-04-28T09:23:12Z</time>
      </trkpt>
      <trkpt lat="46.02039" lon="1.30063">
        <ele>363.8</ele>
        <time>2024-04-28T09:23:13Z</time>
      </trkpt>
      <trkpt lat="46.02043" lon="1.30065">
        <ele>363.2</ele>
        <time>2024-04-28T09:23:14Z</time>
      </trkpt>
      <trkpt lat="46.02052" lon="1.30075">
        <ele>362</ele>
        <time>2024-04-28T09:23:16Z</time>
      </trkpt>
      <trkpt lat="46.02057" lon="1.30081">
        <ele>361.2</ele>
        <time>2024-04-28T09:23:17Z</time>
      </trkpt>
      <trkpt lat="46.02062" lon="1.30088">
        <ele>360.6</ele>
        <time>2024-04-28T09:23:18Z</time>
      </trkpt>
      <trkpt lat="46.02073" lon="1.30111">
        <ele>359</ele>
        <time>2024-04-28T09:23:21Z</time>
      </trkpt>
      <trkpt lat="46.02075" lon="1.30117">
        <ele>358.2</ele>
        <time>2024-04-28T09:23:22Z</time>
      </trkpt>
      <trkpt lat="46.02079" lon="1.30121">
        <ele>357.4</ele>
        <time>2024-04-28T09:23:23Z</time>
      </trkpt>
      <trkpt lat="46.02083" lon="1.30123">
        <ele>356.6</ele>
        <time>2024-04-28T09:23:24Z</time>
      </trkpt>
      <trkpt lat="46.02088" lon="1.30125">
        <ele>356.2</ele>
        <time>2024-04-28T09:23:25Z</time>
      </trkpt>
      <trkpt lat="46.02093" lon="1.30125">
        <ele>355.6</ele>
        <time>2024-04-28T09:23:26Z</time>
      </trkpt>
      <trkpt lat="46.02102" lon="1.30126">
        <ele>354.6</ele>
        <time>2024-04-28T09:23:27Z</time>
      </trkpt>
      <trkpt lat="46.02107" lon="1.30128">
        <ele>354</ele>
        <time>2024-04-28T09:23:29Z</time>
      </trkpt>
      <trkpt lat="46.02112" lon="1.30132">
        <ele>353.8</ele>
        <time>2024-04-28T09:23:30Z</time>
      </trkpt>
      <trkpt lat="46.02118" lon="1.30136">
        <ele>353.4</ele>
        <time>2024-04-28T09:23:31Z</time>
      </trkpt>
      <trkpt lat="46.0213" lon="1.30147">
        <ele>352.6</ele>
        <time>2024-04-28T09:23:33Z</time>
      </trkpt>
      <trkpt lat="46.02136" lon="1.30153">
        <ele>352</ele>
        <time>2024-04-28T09:23:34Z</time>
      </trkpt>
      <trkpt lat="46.02147" lon="1.30168">
        <ele>350.6</ele>
        <time>2024-04-28T09:23:36Z</time>
      </trkpt>
      <trkpt lat="46.02159" lon="1.30185">
        <ele>349.4</ele>
        <time>2024-04-28T09:23:38Z</time>
      </trkpt>
      <trkpt lat="46.02165" lon="1.30194">
        <ele>349.2</ele>
        <time>2024-04-28T09:23:39Z</time>
      </trkpt>
      <trkpt lat="46.02185" lon="1.30222">
        <ele>348.2</ele>
        <time>2024-04-28T09:23:42Z</time>
      </trkpt>
      <trkpt lat="46.02204" lon="1.3025">
        <ele>347.6</ele>
        <time>2024-04-28T09:23:45Z</time>
      </trkpt>
      <trkpt lat="46.02217" lon="1.30268">
        <ele>347.2</ele>
        <time>2024-04-28T09:23:47Z</time>
      </trkpt>
      <trkpt lat="46.02239" lon="1.30299">
        <ele>346.4</ele>
        <time>2024-04-28T09:23:51Z</time>
      </trkpt>
      <trkpt lat="46.0227" lon="1.30348">
        <ele>346.6</ele>
        <time>2024-04-28T09:23:58Z</time>
      </trkpt>
      <trkpt lat="46.02305" lon="1.30402">
        <ele>348.4</ele>
        <time>2024-04-28T09:24:07Z</time>
      </trkpt>
      <trkpt lat="46.02326" lon="1.30431">
        <ele>349</ele>
        <time>2024-04-28T09:24:13Z</time>
      </trkpt>
      <trkpt lat="46.0233" lon="1.30436">
        <ele>349.2</ele>
        <time>2024-04-28T09:24:14Z</time>
      </trkpt>
      <trkpt lat="46.02336" lon="1.30445">
        <ele>349.4</ele>
        <time>2024-04-28T09:24:16Z</time>
      </trkpt>
      <trkpt lat="46.02354" lon="1.30472">
        <ele>350</ele>
        <time>2024-04-28T09:24:22Z</time>
      </trkpt>
      <trkpt lat="46.02357" lon="1.30477">
        <ele>350.2</ele>
        <time>2024-04-28T09:24:23Z</time>
      </trkpt>
      <trkpt lat="46.02368" lon="1.30496">
        <ele>350.4</ele>
        <time>2024-04-28T09:24:27Z</time>
      </trkpt>
      <trkpt lat="46.02371" lon="1.30501">
        <ele>350.4</ele>
        <time>2024-04-28T09:24:28Z</time>
      </trkpt>
      <trkpt lat="46.02388" lon="1.30527">
        <ele>351</ele>
        <time>2024-04-28T09:24:34Z</time>
      </trkpt>
      <trkpt lat="46.024" lon="1.30546">
        <ele>351.2</ele>
        <time>2024-04-28T09:24:40Z</time>
      </trkpt>
      <trkpt lat="46.02404" lon="1.30552">
        <ele>351.4</ele>
        <time>2024-04-28T09:24:46Z</time>
      </trkpt>
      <trkpt lat="46.02404" lon="1.30551">
        <ele>351.4</ele>
        <time>2024-04-28T09:24:47Z</time>
      </trkpt>
      <trkpt lat="46.02403" lon="1.30548">
        <ele>351.4</ele>
        <time>2024-04-28T09:24:50Z</time>
      </trkpt>
      <trkpt lat="46.02402" lon="1.30547">
        <ele>351.4</ele>
        <time>2024-04-28T09:24:51Z</time>
      </trkpt>
      <trkpt lat="46.02399" lon="1.30547">
        <ele>351.2</ele>
        <time>2024-04-28T09:24:54Z</time>
      </trkpt>
      <trkpt lat="46.02399" lon="1.30547">
        <ele>351</ele>
        <time>2024-04-28T09:24:57Z</time>
      </trkpt>
      <trkpt lat="46.02399" lon="1.30547">
        <ele>350.2</ele>
        <time>2024-04-28T09:25:15Z</time>
      </trkpt>
      <trkpt lat="46.02398" lon="1.30545">
        <ele>350.2</ele>
        <time>2024-04-28T09:25:30Z</time>
      </trkpt>
      <trkpt lat="46.02398" lon="1.30545">
        <ele>350.2</ele>
        <time>2024-04-28T09:25:40Z</time>
      </trkpt>
      <trkpt lat="46.02395" lon="1.3054">
        <ele>350.2</ele>
        <time>2024-04-28T09:25:47Z</time>
      </trkpt>
      <trkpt lat="46.02386" lon="1.30528">
        <ele>350.2</ele>
        <time>2024-04-28T09:25:52Z</time>
      </trkpt>
      <trkpt lat="46.02372" lon="1.30506">
        <ele>350.2</ele>
        <time>2024-04-28T09:25:59Z</time>
      </trkpt>
      <trkpt lat="46.02359" lon="1.30488">
        <ele>350</ele>
        <time>2024-04-28T09:26:05Z</time>
      </trkpt>
      <trkpt lat="46.02344" lon="1.30464">
        <ele>349.8</ele>
        <time>2024-04-28T09:26:11Z</time>
      </trkpt>
      <trkpt lat="46.02324" lon="1.30432">
        <ele>349.6</ele>
        <time>2024-04-28T09:26:18Z</time>
      </trkpt>
      <trkpt lat="46.02318" lon="1.30422">
        <ele>349.2</ele>
        <time>2024-04-28T09:26:20Z</time>
      </trkpt>
      <trkpt lat="46.02298" lon="1.3039">
        <ele>348.8</ele>
        <time>2024-04-28T09:26:26Z</time>
      </trkpt>
      <trkpt lat="46.02288" lon="1.30374">
        <ele>348</ele>
        <time>2024-04-28T09:26:29Z</time>
      </trkpt>
      <trkpt lat="46.02262" lon="1.30337">
        <ele>347.6</ele>
        <time>2024-04-28T09:26:36Z</time>
      </trkpt>
      <trkpt lat="46.02248" lon="1.30316">
        <ele>347</ele>
        <time>2024-04-28T09:26:40Z</time>
      </trkpt>
      <trkpt lat="46.02234" lon="1.30294">
        <ele>346.4</ele>
        <time>2024-04-28T09:26:44Z</time>
      </trkpt>
      <trkpt lat="46.02223" lon="1.30279">
        <ele>345.8</ele>
        <time>2024-04-28T09:26:47Z</time>
      </trkpt>
      <trkpt lat="46.02207" lon="1.30258">
        <ele>345.6</ele>
        <time>2024-04-28T09:26:51Z</time>
      </trkpt>
      <trkpt lat="46.02179" lon="1.30216">
        <ele>347</ele>
        <time>2024-04-28T09:26:59Z</time>
      </trkpt>
      <trkpt lat="46.02165" lon="1.30193">
        <ele>347.8</ele>
        <time>2024-04-28T09:27:04Z</time>
      </trkpt>
      <trkpt lat="46.0216" lon="1.30184">
        <ele>348.2</ele>
        <time>2024-04-28T09:27:06Z</time>
      </trkpt>
      <trkpt lat="46.02158" lon="1.3018">
        <ele>348.2</ele>
        <time>2024-04-28T09:27:07Z</time>
      </trkpt>
      <trkpt lat="46.02146" lon="1.30157">
        <ele>349</ele>
        <time>2024-04-28T09:27:13Z</time>
      </trkpt>
      <trkpt lat="46.02148" lon="1.3015">
        <ele>349.4</ele>
        <time>2024-04-28T09:27:15Z</time>
      </trkpt>
      <trkpt lat="46.0215" lon="1.30148">
        <ele>349.8</ele>
        <time>2024-04-28T09:27:16Z</time>
      </trkpt>
      <trkpt lat="46.02166" lon="1.30146">
        <ele>350.6</ele>
        <time>2024-04-28T09:27:21Z</time>
      </trkpt>
      <trkpt lat="46.02185" lon="1.30144">
        <ele>351.6</ele>
        <time>2024-04-28T09:27:27Z</time>
      </trkpt>
      <trkpt lat="46.02191" lon="1.30144">
        <ele>351.8</ele>
        <time>2024-04-28T09:27:29Z</time>
      </trkpt>
      <trkpt lat="46.02221" lon="1.30143">
        <ele>351.4</ele>
        <time>2024-04-28T09:27:36Z</time>
      </trkpt>
      <trkpt lat="46.02232" lon="1.30142">
        <ele>350.6</ele>
        <time>2024-04-28T09:27:38Z</time>
      </trkpt>
      <trkpt lat="46.02237" lon="1.30141">
        <ele>350.2</ele>
        <time>2024-04-28T09:27:39Z</time>
      </trkpt>
      <trkpt lat="46.02249" lon="1.30136">
        <ele>349.8</ele>
        <time>2024-04-28T09:27:41Z</time>
      </trkpt>
      <trkpt lat="46.02253" lon="1.30131">
        <ele>349.2</ele>
        <time>2024-04-28T09:27:42Z</time>
      </trkpt>
      <trkpt lat="46.02256" lon="1.30125">
        <ele>349</ele>
        <time>2024-04-28T09:27:43Z</time>
      </trkpt>
      <trkpt lat="46.02263" lon="1.30106">
        <ele>348.8</ele>
        <time>2024-04-28T09:27:46Z</time>
      </trkpt>
      <trkpt lat="46.02269" lon="1.30084">
        <ele>348.8</ele>
        <time>2024-04-28T09:27:49Z</time>
      </trkpt>
      <trkpt lat="46.02272" lon="1.30076">
        <ele>348.4</ele>
        <time>2024-04-28T09:27:50Z</time>
      </trkpt>
      <trkpt lat="46.02276" lon="1.30068">
        <ele>348</ele>
        <time>2024-04-28T09:27:51Z</time>
      </trkpt>
      <trkpt lat="46.02292" lon="1.30038">
        <ele>346.8</ele>
        <time>2024-04-28T09:27:55Z</time>
      </trkpt>
      <trkpt lat="46.02295" lon="1.30031">
        <ele>346.6</ele>
        <time>2024-04-28T09:27:56Z</time>
      </trkpt>
      <trkpt lat="46.02299" lon="1.30018">
        <ele>345.8</ele>
        <time>2024-04-28T09:27:58Z</time>
      </trkpt>
      <trkpt lat="46.02302" lon="1.30012">
        <ele>345.2</ele>
        <time>2024-04-28T09:28:00Z</time>
      </trkpt>
      <trkpt lat="46.02304" lon="1.30011">
        <ele>345</ele>
        <time>2024-04-28T09:28:01Z</time>
      </trkpt>
      <trkpt lat="46.02306" lon="1.30012">
        <ele>344.6</ele>
        <time>2024-04-28T09:28:03Z</time>
      </trkpt>
      <trkpt lat="46.02315" lon="1.30019">
        <ele>344.4</ele>
        <time>2024-04-28T09:28:07Z</time>
      </trkpt>
      <trkpt lat="46.02329" lon="1.30029">
        <ele>343.4</ele>
        <time>2024-04-28T09:28:12Z</time>
      </trkpt>
      <trkpt lat="46.02332" lon="1.30031">
        <ele>343.4</ele>
        <time>2024-04-28T09:28:13Z</time>
      </trkpt>
      <trkpt lat="46.02335" lon="1.30033">
        <ele>342.4</ele>
        <time>2024-04-28T09:28:14Z</time>
      </trkpt>
      <trkpt lat="46.02339" lon="1.30034">
        <ele>342</ele>
        <time>2024-04-28T09:28:15Z</time>
      </trkpt>
      <trkpt lat="46.02352" lon="1.30038">
        <ele>340.6</ele>
        <time>2024-04-28T09:28:18Z</time>
      </trkpt>
      <trkpt lat="46.02362" lon="1.3004">
        <ele>339.4</ele>
        <time>2024-04-28T09:28:20Z</time>
      </trkpt>
      <trkpt lat="46.02367" lon="1.30043">
        <ele>339.4</ele>
        <time>2024-04-28T09:28:21Z</time>
      </trkpt>
      <trkpt lat="46.02375" lon="1.3005">
        <ele>339</ele>
        <time>2024-04-28T09:28:23Z</time>
      </trkpt>
      <trkpt lat="46.02388" lon="1.3007">
        <ele>338.2</ele>
        <time>2024-04-28T09:28:27Z</time>
      </trkpt>
      <trkpt lat="46.02392" lon="1.30074">
        <ele>338.2</ele>
        <time>2024-04-28T09:28:28Z</time>
      </trkpt>
      <trkpt lat="46.02395" lon="1.30076">
        <ele>338</ele>
        <time>2024-04-28T09:28:29Z</time>
      </trkpt>
      <trkpt lat="46.02402" lon="1.30078">
        <ele>337.8</ele>
        <time>2024-04-28T09:28:31Z</time>
      </trkpt>
      <trkpt lat="46.02405" lon="1.30077">
        <ele>337.8</ele>
        <time>2024-04-28T09:28:32Z</time>
      </trkpt>
      <trkpt lat="46.02418" lon="1.30064">
        <ele>339</ele>
        <time>2024-04-28T09:28:37Z</time>
      </trkpt>
      <trkpt lat="46.02425" lon="1.30052">
        <ele>339.4</ele>
        <time>2024-04-28T09:28:40Z</time>
      </trkpt>
      <trkpt lat="46.02432" lon="1.30043">
        <ele>340.4</ele>
        <time>2024-04-28T09:28:43Z</time>
      </trkpt>
      <trkpt lat="46.02435" lon="1.3004">
        <ele>340.8</ele>
        <time>2024-04-28T09:28:44Z</time>
      </trkpt>
      <trkpt lat="46.02441" lon="1.30033">
        <ele>341.6</ele>
        <time>2024-04-28T09:28:48Z</time>
      </trkpt>
      <trkpt lat="46.02447" lon="1.30028">
        <ele>342</ele>
        <time>2024-04-28T09:28:50Z</time>
      </trkpt>
      <trkpt lat="46.02451" lon="1.30023">
        <ele>342.2</ele>
        <time>2024-04-28T09:28:52Z</time>
      </trkpt>
      <trkpt lat="46.0246" lon="1.30007">
        <ele>343</ele>
        <time>2024-04-28T09:28:58Z</time>
      </trkpt>
      <trkpt lat="46.02464" lon="1.30001">
        <ele>343.6</ele>
        <time>2024-04-28T09:29:01Z</time>
      </trkpt>
      <trkpt lat="46.02466" lon="1.3">
        <ele>343.8</ele>
        <time>2024-04-28T09:29:02Z</time>
      </trkpt>
      <trkpt lat="46.02468" lon="1.29999">
        <ele>344.2</ele>
        <time>2024-04-28T09:29:03Z</time>
      </trkpt>
      <trkpt lat="46.02475" lon="1.29998">
        <ele>345.2</ele>
        <time>2024-04-28T09:29:07Z</time>
      </trkpt>
      <trkpt lat="46.02478" lon="1.29998">
        <ele>345.8</ele>
        <time>2024-04-28T09:29:09Z</time>
      </trkpt>
      <trkpt lat="46.0248" lon="1.29998">
        <ele>346.4</ele>
        <time>2024-04-28T09:29:11Z</time>
      </trkpt>
      <trkpt lat="46.02485" lon="1.29999">
        <ele>347.4</ele>
        <time>2024-04-28T09:29:15Z</time>
      </trkpt>
      <trkpt lat="46.02488" lon="1.3">
        <ele>347.8</ele>
        <time>2024-04-28T09:29:17Z</time>
      </trkpt>
      <trkpt lat="46.02492" lon="1.30001">
        <ele>348.4</ele>
        <time>2024-04-28T09:29:20Z</time>
      </trkpt>
      <trkpt lat="46.02497" lon="1.30001">
        <ele>349.8</ele>
        <time>2024-04-28T09:29:23Z</time>
      </trkpt>
      <trkpt lat="46.02498" lon="1.30001">
        <ele>350.2</ele>
        <time>2024-04-28T09:29:24Z</time>
      </trkpt>
      <trkpt lat="46.02499" lon="1.3">
        <ele>350.4</ele>
        <time>2024-04-28T09:29:25Z</time>
      </trkpt>
      <trkpt lat="46.02501" lon="1.29999">
        <ele>351</ele>
        <time>2024-04-28T09:29:27Z</time>
      </trkpt>
      <trkpt lat="46.02506" lon="1.29994">
        <ele>351.8</ele>
        <time>2024-04-28T09:29:32Z</time>
      </trkpt>
      <trkpt lat="46.02507" lon="1.29993">
        <ele>352.2</ele>
        <time>2024-04-28T09:29:33Z</time>
      </trkpt>
      <trkpt lat="46.02511" lon="1.29986">
        <ele>353</ele>
        <time>2024-04-28T09:29:39Z</time>
      </trkpt>
      <trkpt lat="46.02513" lon="1.29985">
        <ele>353</ele>
        <time>2024-04-28T09:29:40Z</time>
      </trkpt>
      <trkpt lat="46.02517" lon="1.29983">
        <ele>353.4</ele>
        <time>2024-04-28T09:29:43Z</time>
      </trkpt>
      <trkpt lat="46.02521" lon="1.29982">
        <ele>353.6</ele>
        <time>2024-04-28T09:29:46Z</time>
      </trkpt>
      <trkpt lat="46.02522" lon="1.29982">
        <ele>353.8</ele>
        <time>2024-04-28T09:29:47Z</time>
      </trkpt>
      <trkpt lat="46.02527" lon="1.29984">
        <ele>354.4</ele>
        <time>2024-04-28T09:29:52Z</time>
      </trkpt>
      <trkpt lat="46.02528" lon="1.29985">
        <ele>354.8</ele>
        <time>2024-04-28T09:29:53Z</time>
      </trkpt>
      <trkpt lat="46.02532" lon="1.29987">
        <ele>355.2</ele>
        <time>2024-04-28T09:29:56Z</time>
      </trkpt>
      <trkpt lat="46.02534" lon="1.29988">
        <ele>355.4</ele>
        <time>2024-04-28T09:29:58Z</time>
      </trkpt>
      <trkpt lat="46.02537" lon="1.2999">
        <ele>355.6</ele>
        <time>2024-04-28T09:30:00Z</time>
      </trkpt>
      <trkpt lat="46.02547" lon="1.29996">
        <ele>356.4</ele>
        <time>2024-04-28T09:30:07Z</time>
      </trkpt>
      <trkpt lat="46.02551" lon="1.29998">
        <ele>357</ele>
        <time>2024-04-28T09:30:10Z</time>
      </trkpt>
      <trkpt lat="46.02556" lon="1.3">
        <ele>357.6</ele>
        <time>2024-04-28T09:30:13Z</time>
      </trkpt>
      <trkpt lat="46.02564" lon="1.30003">
        <ele>358.2</ele>
        <time>2024-04-28T09:30:18Z</time>
      </trkpt>
      <trkpt lat="46.02565" lon="1.30003">
        <ele>358.6</ele>
        <time>2024-04-28T09:30:19Z</time>
      </trkpt>
      <trkpt lat="46.02575" lon="1.29998">
        <ele>359.2</ele>
        <time>2024-04-28T09:30:25Z</time>
      </trkpt>
      <trkpt lat="46.02588" lon="1.29995">
        <ele>359.4</ele>
        <time>2024-04-28T09:30:31Z</time>
      </trkpt>
      <trkpt lat="46.02591" lon="1.29996">
        <ele>359.6</ele>
        <time>2024-04-28T09:30:32Z</time>
      </trkpt>
      <trkpt lat="46.02603" lon="1.30004">
        <ele>360.2</ele>
        <time>2024-04-28T09:30:37Z</time>
      </trkpt>
      <trkpt lat="46.02615" lon="1.30012">
        <ele>360.6</ele>
        <time>2024-04-28T09:30:42Z</time>
      </trkpt>
      <trkpt lat="46.02617" lon="1.30014">
        <ele>360.4</ele>
        <time>2024-04-28T09:30:43Z</time>
      </trkpt>
      <trkpt lat="46.02633" lon="1.30027">
        <ele>359.4</ele>
        <time>2024-04-28T09:30:49Z</time>
      </trkpt>
      <trkpt lat="46.02633" lon="1.30033">
        <ele>358.4</ele>
        <time>2024-04-28T09:30:51Z</time>
      </trkpt>
      <trkpt lat="46.02631" lon="1.30037">
        <ele>358</ele>
        <time>2024-04-28T09:30:52Z</time>
      </trkpt>
      <trkpt lat="46.02618" lon="1.30058">
        <ele>358.6</ele>
        <time>2024-04-28T09:30:59Z</time>
      </trkpt>
      <trkpt lat="46.02605" lon="1.30083">
        <ele>357.4</ele>
        <time>2024-04-28T09:31:04Z</time>
      </trkpt>
      <trkpt lat="46.02595" lon="1.30105">
        <ele>356.4</ele>
        <time>2024-04-28T09:31:08Z</time>
      </trkpt>
      <trkpt lat="46.02592" lon="1.3011">
        <ele>356.2</ele>
        <time>2024-04-28T09:31:09Z</time>
      </trkpt>
      <trkpt lat="46.02589" lon="1.30115">
        <ele>356</ele>
        <time>2024-04-28T09:31:10Z</time>
      </trkpt>
      <trkpt lat="46.02584" lon="1.30126">
        <ele>355</ele>
        <time>2024-04-28T09:31:12Z</time>
      </trkpt>
      <trkpt lat="46.02581" lon="1.30135">
        <ele>353.8</ele>
        <time>2024-04-28T09:31:14Z</time>
      </trkpt>
      <trkpt lat="46.0258" lon="1.30139">
        <ele>353.4</ele>
        <time>2024-04-28T09:31:15Z</time>
      </trkpt>
      <trkpt lat="46.02574" lon="1.30147">
        <ele>352.6</ele>
        <time>2024-04-28T09:31:18Z</time>
      </trkpt>
      <trkpt lat="46.02572" lon="1.30151">
        <ele>351.4</ele>
        <time>2024-04-28T09:31:20Z</time>
      </trkpt>
      <trkpt lat="46.02571" lon="1.30152">
        <ele>351</ele>
        <time>2024-04-28T09:31:21Z</time>
      </trkpt>
      <trkpt lat="46.0257" lon="1.30154">
        <ele>349.8</ele>
        <time>2024-04-28T09:31:23Z</time>
      </trkpt>
      <trkpt lat="46.02568" lon="1.30156">
        <ele>348.8</ele>
        <time>2024-04-28T09:31:27Z</time>
      </trkpt>
      <trkpt lat="46.02567" lon="1.30159">
        <ele>348.2</ele>
        <time>2024-04-28T09:31:31Z</time>
      </trkpt>
      <trkpt lat="46.02565" lon="1.30163">
        <ele>348</ele>
        <time>2024-04-28T09:31:37Z</time>
      </trkpt>
      <trkpt lat="46.02565" lon="1.30165">
        <ele>347.6</ele>
        <time>2024-04-28T09:31:39Z</time>
      </trkpt>
      <trkpt lat="46.02564" lon="1.30168">
        <ele>346.6</ele>
        <time>2024-04-28T09:31:43Z</time>
      </trkpt>
      <trkpt lat="46.02563" lon="1.30172">
        <ele>345.4</ele>
        <time>2024-04-28T09:31:47Z</time>
      </trkpt>
      <trkpt lat="46.02561" lon="1.30175">
        <ele>344.4</ele>
        <time>2024-04-28T09:31:52Z</time>
      </trkpt>
      <trkpt lat="46.0256" lon="1.30177">
        <ele>343.4</ele>
        <time>2024-04-28T09:31:55Z</time>
      </trkpt>
      <trkpt lat="46.02558" lon="1.3018">
        <ele>342.4</ele>
        <time>2024-04-28T09:31:59Z</time>
      </trkpt>
      <trkpt lat="46.02557" lon="1.30183">
        <ele>341.6</ele>
        <time>2024-04-28T09:32:05Z</time>
      </trkpt>
      <trkpt lat="46.02555" lon="1.30186">
        <ele>341.4</ele>
        <time>2024-04-28T09:32:08Z</time>
      </trkpt>
      <trkpt lat="46.02555" lon="1.3019">
        <ele>341.4</ele>
        <time>2024-04-28T09:32:10Z</time>
      </trkpt>
      <trkpt lat="46.02556" lon="1.30192">
        <ele>341.2</ele>
        <time>2024-04-28T09:32:11Z</time>
      </trkpt>
      <trkpt lat="46.02557" lon="1.30194">
        <ele>341</ele>
        <time>2024-04-28T09:32:12Z</time>
      </trkpt>
      <trkpt lat="46.02571" lon="1.302">
        <ele>340.6</ele>
        <time>2024-04-28T09:32:16Z</time>
      </trkpt>
      <trkpt lat="46.02575" lon="1.30199">
        <ele>340.6</ele>
        <time>2024-04-28T09:32:17Z</time>
      </trkpt>
      <trkpt lat="46.02584" lon="1.30197">
        <ele>340</ele>
        <time>2024-04-28T09:32:19Z</time>
      </trkpt>
      <trkpt lat="46.02592" lon="1.30196">
        <ele>339.8</ele>
        <time>2024-04-28T09:32:21Z</time>
      </trkpt>
      <trkpt lat="46.02599" lon="1.30202">
        <ele>339</ele>
        <time>2024-04-28T09:32:23Z</time>
      </trkpt>
      <trkpt lat="46.026" lon="1.30208">
        <ele>338.8</ele>
        <time>2024-04-28T09:32:24Z</time>
      </trkpt>
      <trkpt lat="46.02601" lon="1.30224">
        <ele>338.2</ele>
        <time>2024-04-28T09:32:27Z</time>
      </trkpt>
      <trkpt lat="46.02601" lon="1.30233">
        <ele>338.2</ele>
        <time>2024-04-28T09:32:29Z</time>
      </trkpt>
      <trkpt lat="46.02597" lon="1.3025">
        <ele>339</ele>
        <time>2024-04-28T09:32:35Z</time>
      </trkpt>
      <trkpt lat="46.02597" lon="1.30257">
        <ele>339.8</ele>
        <time>2024-04-28T09:32:38Z</time>
      </trkpt>
      <trkpt lat="46.026" lon="1.30265">
        <ele>340.8</ele>
        <time>2024-04-28T09:32:42Z</time>
      </trkpt>
      <trkpt lat="46.02604" lon="1.30271">
        <ele>342.2</ele>
        <time>2024-04-28T09:32:46Z</time>
      </trkpt>
      <trkpt lat="46.0261" lon="1.30274">
        <ele>343.6</ele>
        <time>2024-04-28T09:32:50Z</time>
      </trkpt>
      <trkpt lat="46.02617" lon="1.30275">
        <ele>344.6</ele>
        <time>2024-04-28T09:32:55Z</time>
      </trkpt>
      <trkpt lat="46.02622" lon="1.30275">
        <ele>345.8</ele>
        <time>2024-04-28T09:32:58Z</time>
      </trkpt>
      <trkpt lat="46.02627" lon="1.30275">
        <ele>346.2</ele>
        <time>2024-04-28T09:33:01Z</time>
      </trkpt>
      <trkpt lat="46.0263" lon="1.30276">
        <ele>346.8</ele>
        <time>2024-04-28T09:33:03Z</time>
      </trkpt>
      <trkpt lat="46.02641" lon="1.30277">
        <ele>347.4</ele>
        <time>2024-04-28T09:33:09Z</time>
      </trkpt>
      <trkpt lat="46.02647" lon="1.30278">
        <ele>347.8</ele>
        <time>2024-04-28T09:33:12Z</time>
      </trkpt>
      <trkpt lat="46.02657" lon="1.30282">
        <ele>348.6</ele>
        <time>2024-04-28T09:33:17Z</time>
      </trkpt>
      <trkpt lat="46.02662" lon="1.30283">
        <ele>348.8</ele>
        <time>2024-04-28T09:33:20Z</time>
      </trkpt>
      <trkpt lat="46.02669" lon="1.30285">
        <ele>349.2</ele>
        <time>2024-04-28T09:33:24Z</time>
      </trkpt>
      <trkpt lat="46.02683" lon="1.30288">
        <ele>350</ele>
        <time>2024-04-28T09:33:32Z</time>
      </trkpt>
      <trkpt lat="46.02686" lon="1.3029">
        <ele>350.2</ele>
        <time>2024-04-28T09:33:35Z</time>
      </trkpt>
      <trkpt lat="46.02689" lon="1.30291">
        <ele>351.2</ele>
        <time>2024-04-28T09:33:38Z</time>
      </trkpt>
      <trkpt lat="46.02691" lon="1.30291">
        <ele>351.4</ele>
        <time>2024-04-28T09:33:39Z</time>
      </trkpt>
      <trkpt lat="46.02696" lon="1.30292">
        <ele>352.2</ele>
        <time>2024-04-28T09:33:42Z</time>
      </trkpt>
      <trkpt lat="46.02703" lon="1.30294">
        <ele>353</ele>
        <time>2024-04-28T09:33:47Z</time>
      </trkpt>
      <trkpt lat="46.02706" lon="1.30295">
        <ele>353.2</ele>
        <time>2024-04-28T09:33:49Z</time>
      </trkpt>
      <trkpt lat="46.02714" lon="1.30292">
        <ele>353.8</ele>
        <time>2024-04-28T09:33:54Z</time>
      </trkpt>
      <trkpt lat="46.02727" lon="1.30282">
        <ele>354.4</ele>
        <time>2024-04-28T09:34:00Z</time>
      </trkpt>
      <trkpt lat="46.0273" lon="1.30281">
        <ele>354.4</ele>
        <time>2024-04-28T09:34:01Z</time>
      </trkpt>
      <trkpt lat="46.02752" lon="1.30268">
        <ele>354.8</ele>
        <time>2024-04-28T09:34:09Z</time>
      </trkpt>
      <trkpt lat="46.02776" lon="1.30249">
        <ele>354.2</ele>
        <time>2024-04-28T09:34:16Z</time>
      </trkpt>
      <trkpt lat="46.02783" lon="1.30242">
        <ele>353.8</ele>
        <time>2024-04-28T09:34:18Z</time>
      </trkpt>
      <trkpt lat="46.02791" lon="1.30236">
        <ele>353.6</ele>
        <time>2024-04-28T09:34:20Z</time>
      </trkpt>
      <trkpt lat="46.02798" lon="1.3023">
        <ele>353.4</ele>
        <time>2024-04-28T09:34:22Z</time>
      </trkpt>
      <trkpt lat="46.02814" lon="1.30219">
        <ele>352.4</ele>
        <time>2024-04-28T09:34:27Z</time>
      </trkpt>
      <trkpt lat="46.02819" lon="1.30215">
        <ele>352.2</ele>
        <time>2024-04-28T09:34:29Z</time>
      </trkpt>
      <trkpt lat="46.02828" lon="1.30205">
        <ele>352.2</ele>
        <time>2024-04-28T09:34:32Z</time>
      </trkpt>
      <trkpt lat="46.02845" lon="1.30186">
        <ele>352.2</ele>
        <time>2024-04-28T09:34:37Z</time>
      </trkpt>
      <trkpt lat="46.02859" lon="1.30166">
        <ele>352</ele>
        <time>2024-04-28T09:34:41Z</time>
      </trkpt>
      <trkpt lat="46.02867" lon="1.30155">
        <ele>351.6</ele>
        <time>2024-04-28T09:34:43Z</time>
      </trkpt>
      <trkpt lat="46.02875" lon="1.30142">
        <ele>351.2</ele>
        <time>2024-04-28T09:34:45Z</time>
      </trkpt>
      <trkpt lat="46.02888" lon="1.30121">
        <ele>350.8</ele>
        <time>2024-04-28T09:34:48Z</time>
      </trkpt>
      <trkpt lat="46.02897" lon="1.30107">
        <ele>350</ele>
        <time>2024-04-28T09:34:50Z</time>
      </trkpt>
      <trkpt lat="46.02905" lon="1.30093">
        <ele>348.6</ele>
        <time>2024-04-28T09:34:52Z</time>
      </trkpt>
      <trkpt lat="46.02911" lon="1.30081">
        <ele>346.8</ele>
        <time>2024-04-28T09:34:54Z</time>
      </trkpt>
      <trkpt lat="46.02914" lon="1.30075">
        <ele>346.4</ele>
        <time>2024-04-28T09:34:55Z</time>
      </trkpt>
      <trkpt lat="46.0292" lon="1.30067">
        <ele>345.2</ele>
        <time>2024-04-28T09:34:57Z</time>
      </trkpt>
      <trkpt lat="46.02924" lon="1.30063">
        <ele>344.6</ele>
        <time>2024-04-28T09:34:58Z</time>
      </trkpt>
      <trkpt lat="46.02926" lon="1.3006">
        <ele>343.8</ele>
        <time>2024-04-28T09:34:59Z</time>
      </trkpt>
      <trkpt lat="46.02928" lon="1.30057">
        <ele>343.4</ele>
        <time>2024-04-28T09:35:00Z</time>
      </trkpt>
      <trkpt lat="46.02928" lon="1.30055">
        <ele>343</ele>
        <time>2024-04-28T09:35:01Z</time>
      </trkpt>
      <trkpt lat="46.02928" lon="1.30052">
        <ele>342.4</ele>
        <time>2024-04-28T09:35:02Z</time>
      </trkpt>
      <trkpt lat="46.02928" lon="1.3005">
        <ele>342</ele>
        <time>2024-04-28T09:35:03Z</time>
      </trkpt>
      <trkpt lat="46.02928" lon="1.30048">
        <ele>341.2</ele>
        <time>2024-04-28T09:35:04Z</time>
      </trkpt>
      <trkpt lat="46.02929" lon="1.30047">
        <ele>340.6</ele>
        <time>2024-04-28T09:35:05Z</time>
      </trkpt>
      <trkpt lat="46.02931" lon="1.30047">
        <ele>340</ele>
        <time>2024-04-28T09:35:06Z</time>
      </trkpt>
      <trkpt lat="46.02933" lon="1.30048">
        <ele>339.6</ele>
        <time>2024-04-28T09:35:07Z</time>
      </trkpt>
      <trkpt lat="46.02934" lon="1.3005">
        <ele>339</ele>
        <time>2024-04-28T09:35:08Z</time>
      </trkpt>
      <trkpt lat="46.02936" lon="1.30052">
        <ele>338.4</ele>
        <time>2024-04-28T09:35:09Z</time>
      </trkpt>
      <trkpt lat="46.02937" lon="1.30054">
        <ele>338</ele>
        <time>2024-04-28T09:35:10Z</time>
      </trkpt>
      <trkpt lat="46.02943" lon="1.30066">
        <ele>336.6</ele>
        <time>2024-04-28T09:35:14Z</time>
      </trkpt>
      <trkpt lat="46.02944" lon="1.3007">
        <ele>335.6</ele>
        <time>2024-04-28T09:35:15Z</time>
      </trkpt>
      <trkpt lat="46.02946" lon="1.30073">
        <ele>334.6</ele>
        <time>2024-04-28T09:35:16Z</time>
      </trkpt>
      <trkpt lat="46.02947" lon="1.30079">
        <ele>333</ele>
        <time>2024-04-28T09:35:18Z</time>
      </trkpt>
      <trkpt lat="46.02948" lon="1.30087">
        <ele>331.4</ele>
        <time>2024-04-28T09:35:20Z</time>
      </trkpt>
      <trkpt lat="46.02948" lon="1.3009">
        <ele>330.8</ele>
        <time>2024-04-28T09:35:21Z</time>
      </trkpt>
      <trkpt lat="46.02947" lon="1.30094">
        <ele>330.2</ele>
        <time>2024-04-28T09:35:22Z</time>
      </trkpt>
      <trkpt lat="46.02945" lon="1.30101">
        <ele>330</ele>
        <time>2024-04-28T09:35:24Z</time>
      </trkpt>
      <trkpt lat="46.02943" lon="1.30107">
        <ele>329.6</ele>
        <time>2024-04-28T09:35:26Z</time>
      </trkpt>
      <trkpt lat="46.02937" lon="1.30118">
        <ele>329.2</ele>
        <time>2024-04-28T09:35:30Z</time>
      </trkpt>
      <trkpt lat="46.02936" lon="1.3012">
        <ele>329.8</ele>
        <time>2024-04-28T09:35:31Z</time>
      </trkpt>
      <trkpt lat="46.02931" lon="1.30124">
        <ele>330.4</ele>
        <time>2024-04-28T09:35:33Z</time>
      </trkpt>
      <trkpt lat="46.02924" lon="1.30137">
        <ele>331.2</ele>
        <time>2024-04-28T09:35:37Z</time>
      </trkpt>
      <trkpt lat="46.02921" lon="1.30148">
        <ele>331.4</ele>
        <time>2024-04-28T09:35:40Z</time>
      </trkpt>
      <trkpt lat="46.02916" lon="1.30155">
        <ele>331.4</ele>
        <time>2024-04-28T09:35:42Z</time>
      </trkpt>
      <trkpt lat="46.02915" lon="1.30158">
        <ele>331.4</ele>
        <time>2024-04-28T09:35:43Z</time>
      </trkpt>
      <trkpt lat="46.02912" lon="1.30167">
        <ele>331.4</ele>
        <time>2024-04-28T09:35:45Z</time>
      </trkpt>
      <trkpt lat="46.02912" lon="1.30171">
        <ele>331.6</ele>
        <time>2024-04-28T09:35:46Z</time>
      </trkpt>
      <trkpt lat="46.02913" lon="1.30183">
        <ele>331.8</ele>
        <time>2024-04-28T09:35:48Z</time>
      </trkpt>
      <trkpt lat="46.02916" lon="1.30203">
        <ele>331.6</ele>
        <time>2024-04-28T09:35:52Z</time>
      </trkpt>
      <trkpt lat="46.02922" lon="1.3021">
        <ele>331.8</ele>
        <time>2024-04-28T09:35:56Z</time>
      </trkpt>
      <trkpt lat="46.02924" lon="1.30211">
        <ele>331.8</ele>
        <time>2024-04-28T09:35:57Z</time>
      </trkpt>
      <trkpt lat="46.02935" lon="1.30211">
        <ele>332.4</ele>
        <time>2024-04-28T09:36:02Z</time>
      </trkpt>
      <trkpt lat="46.0294" lon="1.30211">
        <ele>332.4</ele>
        <time>2024-04-28T09:36:04Z</time>
      </trkpt>
      <trkpt lat="46.02954" lon="1.30212">
        <ele>332.8</ele>
        <time>2024-04-28T09:36:09Z</time>
      </trkpt>
      <trkpt lat="46.02967" lon="1.30198">
        <ele>332.8</ele>
        <time>2024-04-28T09:36:15Z</time>
      </trkpt>
      <trkpt lat="46.0297" lon="1.30194">
        <ele>332.8</ele>
        <time>2024-04-28T09:36:16Z</time>
      </trkpt>
      <trkpt lat="46.0298" lon="1.30181">
        <ele>332.4</ele>
        <time>2024-04-28T09:36:19Z</time>
      </trkpt>
      <trkpt lat="46.02982" lon="1.30178">
        <ele>332.2</ele>
        <time>2024-04-28T09:36:20Z</time>
      </trkpt>
      <trkpt lat="46.02991" lon="1.30168">
        <ele>332.2</ele>
        <time>2024-04-28T09:36:23Z</time>
      </trkpt>
      <trkpt lat="46.02996" lon="1.30162">
        <ele>332</ele>
        <time>2024-04-28T09:36:25Z</time>
      </trkpt>
      <trkpt lat="46.03007" lon="1.30151">
        <ele>331.6</ele>
        <time>2024-04-28T09:36:28Z</time>
      </trkpt>
      <trkpt lat="46.0301" lon="1.30147">
        <ele>331.4</ele>
        <time>2024-04-28T09:36:29Z</time>
      </trkpt>
      <trkpt lat="46.03013" lon="1.30142">
        <ele>331.2</ele>
        <time>2024-04-28T09:36:30Z</time>
      </trkpt>
      <trkpt lat="46.03016" lon="1.30131">
        <ele>331.2</ele>
        <time>2024-04-28T09:36:32Z</time>
      </trkpt>
      <trkpt lat="46.03018" lon="1.30118">
        <ele>331.6</ele>
        <time>2024-04-28T09:36:35Z</time>
      </trkpt>
      <trkpt lat="46.03026" lon="1.30099">
        <ele>332.8</ele>
        <time>2024-04-28T09:36:41Z</time>
      </trkpt>
      <trkpt lat="46.03029" lon="1.30094">
        <ele>333.8</ele>
        <time>2024-04-28T09:36:43Z</time>
      </trkpt>
      <trkpt lat="46.03034" lon="1.30086">
        <ele>335</ele>
        <time>2024-04-28T09:36:46Z</time>
      </trkpt>
      <trkpt lat="46.03035" lon="1.30084">
        <ele>335.2</ele>
        <time>2024-04-28T09:36:47Z</time>
      </trkpt>
      <trkpt lat="46.03039" lon="1.30077">
        <ele>336.2</ele>
        <time>2024-04-28T09:36:50Z</time>
      </trkpt>
      <trkpt lat="46.03041" lon="1.30071">
        <ele>336.6</ele>
        <time>2024-04-28T09:36:53Z</time>
      </trkpt>
      <trkpt lat="46.03049" lon="1.30062">
        <ele>336.6</ele>
        <time>2024-04-28T09:36:59Z</time>
      </trkpt>
      <trkpt lat="46.03055" lon="1.3006">
        <ele>337.2</ele>
        <time>2024-04-28T09:37:02Z</time>
      </trkpt>
      <trkpt lat="46.03057" lon="1.3006">
        <ele>337.4</ele>
        <time>2024-04-28T09:37:03Z</time>
      </trkpt>
      <trkpt lat="46.0306" lon="1.30061">
        <ele>337.6</ele>
        <time>2024-04-28T09:37:05Z</time>
      </trkpt>
      <trkpt lat="46.03065" lon="1.30065">
        <ele>338.2</ele>
        <time>2024-04-28T09:37:09Z</time>
      </trkpt>
      <trkpt lat="46.03072" lon="1.30068">
        <ele>339.2</ele>
        <time>2024-04-28T09:37:13Z</time>
      </trkpt>
      <trkpt lat="46.03078" lon="1.30071">
        <ele>340.2</ele>
        <time>2024-04-28T09:37:17Z</time>
      </trkpt>
      <trkpt lat="46.03083" lon="1.30074">
        <ele>340.6</ele>
        <time>2024-04-28T09:37:20Z</time>
      </trkpt>
      <trkpt lat="46.03086" lon="1.30076">
        <ele>341.8</ele>
        <time>2024-04-28T09:37:23Z</time>
      </trkpt>
      <trkpt lat="46.03092" lon="1.3008">
        <ele>342.6</ele>
        <time>2024-04-28T09:37:28Z</time>
      </trkpt>
      <trkpt lat="46.03094" lon="1.30081">
        <ele>343</ele>
        <time>2024-04-28T09:37:29Z</time>
      </trkpt>
      <trkpt lat="46.03101" lon="1.30088">
        <ele>344</ele>
        <time>2024-04-28T09:37:35Z</time>
      </trkpt>
      <trkpt lat="46.03102" lon="1.30089">
        <ele>344</ele>
        <time>2024-04-28T09:37:36Z</time>
      </trkpt>
      <trkpt lat="46.03111" lon="1.30095">
        <ele>344.4</ele>
        <time>2024-04-28T09:37:41Z</time>
      </trkpt>
      <trkpt lat="46.03122" lon="1.30105">
        <ele>345</ele>
        <time>2024-04-28T09:37:48Z</time>
      </trkpt>
      <trkpt lat="46.03128" lon="1.30111">
        <ele>345.6</ele>
        <time>2024-04-28T09:37:52Z</time>
      </trkpt>
      <trkpt lat="46.0313" lon="1.30116">
        <ele>346.2</ele>
        <time>2024-04-28T09:37:55Z</time>
      </trkpt>
      <trkpt lat="46.03133" lon="1.30121">
        <ele>346.6</ele>
        <time>2024-04-28T09:37:59Z</time>
      </trkpt>
      <trkpt lat="46.03133" lon="1.30123">
        <ele>346.8</ele>
        <time>2024-04-28T09:38:00Z</time>
      </trkpt>
      <trkpt lat="46.03133" lon="1.30131">
        <ele>347.6</ele>
        <time>2024-04-28T09:38:04Z</time>
      </trkpt>
      <trkpt lat="46.03133" lon="1.30137">
        <ele>348.8</ele>
        <time>2024-04-28T09:38:07Z</time>
      </trkpt>
      <trkpt lat="46.03134" lon="1.30145">
        <ele>350</ele>
        <time>2024-04-28T09:38:11Z</time>
      </trkpt>
      <trkpt lat="46.03133" lon="1.30158">
        <ele>351</ele>
        <time>2024-04-28T09:38:17Z</time>
      </trkpt>
      <trkpt lat="46.03133" lon="1.3016">
        <ele>351.2</ele>
        <time>2024-04-28T09:38:18Z</time>
      </trkpt>
      <trkpt lat="46.0313" lon="1.30176">
        <ele>352.4</ele>
        <time>2024-04-28T09:38:25Z</time>
      </trkpt>
      <trkpt lat="46.03129" lon="1.30181">
        <ele>352.6</ele>
        <time>2024-04-28T09:38:27Z</time>
      </trkpt>
      <trkpt lat="46.03127" lon="1.30189">
        <ele>353.4</ele>
        <time>2024-04-28T09:38:31Z</time>
      </trkpt>
      <trkpt lat="46.03125" lon="1.30199">
        <ele>353.8</ele>
        <time>2024-04-28T09:38:35Z</time>
      </trkpt>
      <trkpt lat="46.03124" lon="1.30208">
        <ele>354.4</ele>
        <time>2024-04-28T09:38:39Z</time>
      </trkpt>
      <trkpt lat="46.03122" lon="1.30217">
        <ele>355.4</ele>
        <time>2024-04-28T09:38:43Z</time>
      </trkpt>
      <trkpt lat="46.03121" lon="1.30224">
        <ele>356</ele>
        <time>2024-04-28T09:38:46Z</time>
      </trkpt>
      <trkpt lat="46.0312" lon="1.30231">
        <ele>356.6</ele>
        <time>2024-04-28T09:38:49Z</time>
      </trkpt>
      <trkpt lat="46.03119" lon="1.30236">
        <ele>356.8</ele>
        <time>2024-04-28T09:38:51Z</time>
      </trkpt>
      <trkpt lat="46.03114" lon="1.30248">
        <ele>357.8</ele>
        <time>2024-04-28T09:38:56Z</time>
      </trkpt>
      <trkpt lat="46.03111" lon="1.30252">
        <ele>358.2</ele>
        <time>2024-04-28T09:38:59Z</time>
      </trkpt>
      <trkpt lat="46.0311" lon="1.30256">
        <ele>358.8</ele>
        <time>2024-04-28T09:39:02Z</time>
      </trkpt>
      <trkpt lat="46.03106" lon="1.30262">
        <ele>359.6</ele>
        <time>2024-04-28T09:39:06Z</time>
      </trkpt>
      <trkpt lat="46.03104" lon="1.30264">
        <ele>359.8</ele>
        <time>2024-04-28T09:39:07Z</time>
      </trkpt>
      <trkpt lat="46.03095" lon="1.30271">
        <ele>360.4</ele>
        <time>2024-04-28T09:39:13Z</time>
      </trkpt>
      <trkpt lat="46.03089" lon="1.30276">
        <ele>360.8</ele>
        <time>2024-04-28T09:39:18Z</time>
      </trkpt>
      <trkpt lat="46.03088" lon="1.30277">
        <ele>361</ele>
        <time>2024-04-28T09:39:19Z</time>
      </trkpt>
      <trkpt lat="46.03081" lon="1.30282">
        <ele>361.8</ele>
        <time>2024-04-28T09:39:25Z</time>
      </trkpt>
      <trkpt lat="46.03077" lon="1.30286">
        <ele>362.2</ele>
        <time>2024-04-28T09:39:28Z</time>
      </trkpt>
      <trkpt lat="46.03072" lon="1.3029">
        <ele>363</ele>
        <time>2024-04-28T09:39:32Z</time>
      </trkpt>
      <trkpt lat="46.03068" lon="1.30295">
        <ele>363.4</ele>
        <time>2024-04-28T09:39:35Z</time>
      </trkpt>
      <trkpt lat="46.03065" lon="1.30298">
        <ele>364.2</ele>
        <time>2024-04-28T09:39:38Z</time>
      </trkpt>
      <trkpt lat="46.03057" lon="1.30304">
        <ele>365</ele>
        <time>2024-04-28T09:39:44Z</time>
      </trkpt>
      <trkpt lat="46.03055" lon="1.30306">
        <ele>365.2</ele>
        <time>2024-04-28T09:39:46Z</time>
      </trkpt>
      <trkpt lat="46.03053" lon="1.30308">
        <ele>365.2</ele>
        <time>2024-04-28T09:39:47Z</time>
      </trkpt>
      <trkpt lat="46.03049" lon="1.30313">
        <ele>366</ele>
        <time>2024-04-28T09:39:51Z</time>
      </trkpt>
      <trkpt lat="46.03048" lon="1.30314">
        <ele>366.2</ele>
        <time>2024-04-28T09:39:52Z</time>
      </trkpt>
      <trkpt lat="46.0304" lon="1.30323">
        <ele>367</ele>
        <time>2024-04-28T09:39:58Z</time>
      </trkpt>
      <trkpt lat="46.03036" lon="1.30327">
        <ele>367.4</ele>
        <time>2024-04-28T09:40:02Z</time>
      </trkpt>
      <trkpt lat="46.03032" lon="1.3033">
        <ele>367.8</ele>
        <time>2024-04-28T09:40:05Z</time>
      </trkpt>
      <trkpt lat="46.03028" lon="1.30335">
        <ele>368.4</ele>
        <time>2024-04-28T09:40:08Z</time>
      </trkpt>
      <trkpt lat="46.03025" lon="1.30341">
        <ele>369</ele>
        <time>2024-04-28T09:40:11Z</time>
      </trkpt>
      <trkpt lat="46.03024" lon="1.30348">
        <ele>369.4</ele>
        <time>2024-04-28T09:40:14Z</time>
      </trkpt>
      <trkpt lat="46.03025" lon="1.30353">
        <ele>369.8</ele>
        <time>2024-04-28T09:40:17Z</time>
      </trkpt>
      <trkpt lat="46.03026" lon="1.30354">
        <ele>370.4</ele>
        <time>2024-04-28T09:40:19Z</time>
      </trkpt>
      <trkpt lat="46.03034" lon="1.30357">
        <ele>371.4</ele>
        <time>2024-04-28T09:40:25Z</time>
      </trkpt>
      <trkpt lat="46.03036" lon="1.30358">
        <ele>371.4</ele>
        <time>2024-04-28T09:40:26Z</time>
      </trkpt>
      <trkpt lat="46.03047" lon="1.30367">
        <ele>372.2</ele>
        <time>2024-04-28T09:40:33Z</time>
      </trkpt>
      <trkpt lat="46.03054" lon="1.30373">
        <ele>372.6</ele>
        <time>2024-04-28T09:40:37Z</time>
      </trkpt>
      <trkpt lat="46.03059" lon="1.30381">
        <ele>373</ele>
        <time>2024-04-28T09:40:41Z</time>
      </trkpt>
      <trkpt lat="46.03063" lon="1.304">
        <ele>373.4</ele>
        <time>2024-04-28T09:40:48Z</time>
      </trkpt>
      <trkpt lat="46.03064" lon="1.30406">
        <ele>373.6</ele>
        <time>2024-04-28T09:40:50Z</time>
      </trkpt>
      <trkpt lat="46.03064" lon="1.30411">
        <ele>374</ele>
        <time>2024-04-28T09:40:52Z</time>
      </trkpt>
      <trkpt lat="46.03062" lon="1.30415">
        <ele>374.2</ele>
        <time>2024-04-28T09:40:54Z</time>
      </trkpt>
      <trkpt lat="46.03054" lon="1.30424">
        <ele>374.8</ele>
        <time>2024-04-28T09:40:58Z</time>
      </trkpt>
      <trkpt lat="46.0305" lon="1.30429">
        <ele>375</ele>
        <time>2024-04-28T09:41:00Z</time>
      </trkpt>
      <trkpt lat="46.03032" lon="1.30441">
        <ele>375.6</ele>
        <time>2024-04-28T09:41:06Z</time>
      </trkpt>
      <trkpt lat="46.03006" lon="1.30451">
        <ele>375.4</ele>
        <time>2024-04-28T09:41:12Z</time>
      </trkpt>
      <trkpt lat="46.02988" lon="1.30461">
        <ele>375.8</ele>
        <time>2024-04-28T09:41:17Z</time>
      </trkpt>
      <trkpt lat="46.02983" lon="1.30467">
        <ele>376.2</ele>
        <time>2024-04-28T09:41:19Z</time>
      </trkpt>
      <trkpt lat="46.02977" lon="1.30486">
        <ele>376.4</ele>
        <time>2024-04-28T09:41:24Z</time>
      </trkpt>
      <trkpt lat="46.02978" lon="1.30497">
        <ele>377</ele>
        <time>2024-04-28T09:41:27Z</time>
      </trkpt>
      <trkpt lat="46.02979" lon="1.30508">
        <ele>377.4</ele>
        <time>2024-04-28T09:41:30Z</time>
      </trkpt>
      <trkpt lat="46.0298" lon="1.3052">
        <ele>378</ele>
        <time>2024-04-28T09:41:33Z</time>
      </trkpt>
      <trkpt lat="46.02981" lon="1.3054">
        <ele>379.2</ele>
        <time>2024-04-28T09:41:38Z</time>
      </trkpt>
      <trkpt lat="46.02983" lon="1.30572">
        <ele>380.2</ele>
        <time>2024-04-28T09:41:46Z</time>
      </trkpt>
      <trkpt lat="46.02987" lon="1.30597">
        <ele>381</ele>
        <time>2024-04-28T09:41:53Z</time>
      </trkpt>
      <trkpt lat="46.02989" lon="1.30601">
        <ele>381.4</ele>
        <time>2024-04-28T09:41:55Z</time>
      </trkpt>
      <trkpt lat="46.02995" lon="1.30608">
        <ele>382</ele>
        <time>2024-04-28T09:41:59Z</time>
      </trkpt>
      <trkpt lat="46.03002" lon="1.30615">
        <ele>382.6</ele>
        <time>2024-04-28T09:42:02Z</time>
      </trkpt>
      <trkpt lat="46.03009" lon="1.30624">
        <ele>383</ele>
        <time>2024-04-28T09:42:06Z</time>
      </trkpt>
      <trkpt lat="46.03019" lon="1.30642">
        <ele>382.6</ele>
        <time>2024-04-28T09:42:12Z</time>
      </trkpt>
      <trkpt lat="46.03028" lon="1.30669">
        <ele>382.8</ele>
        <time>2024-04-28T09:42:17Z</time>
      </trkpt>
      <trkpt lat="46.03032" lon="1.30678">
        <ele>382.2</ele>
        <time>2024-04-28T09:42:19Z</time>
      </trkpt>
      <trkpt lat="46.03037" lon="1.30683">
        <ele>381.6</ele>
        <time>2024-04-28T09:42:21Z</time>
      </trkpt>
      <trkpt lat="46.03043" lon="1.30683">
        <ele>381.2</ele>
        <time>2024-04-28T09:42:23Z</time>
      </trkpt>
      <trkpt lat="46.03046" lon="1.30683">
        <ele>381.2</ele>
        <time>2024-04-28T09:42:24Z</time>
      </trkpt>
      <trkpt lat="46.03057" lon="1.30679">
        <ele>381</ele>
        <time>2024-04-28T09:42:27Z</time>
      </trkpt>
      <trkpt lat="46.03065" lon="1.30677">
        <ele>381.2</ele>
        <time>2024-04-28T09:42:29Z</time>
      </trkpt>
      <trkpt lat="46.03074" lon="1.30679">
        <ele>381.4</ele>
        <time>2024-04-28T09:42:31Z</time>
      </trkpt>
      <trkpt lat="46.0308" lon="1.30685">
        <ele>381.4</ele>
        <time>2024-04-28T09:42:33Z</time>
      </trkpt>
      <trkpt lat="46.03086" lon="1.30694">
        <ele>381.4</ele>
        <time>2024-04-28T09:42:35Z</time>
      </trkpt>
      <trkpt lat="46.03093" lon="1.3071">
        <ele>380.8</ele>
        <time>2024-04-28T09:42:38Z</time>
      </trkpt>
      <trkpt lat="46.03094" lon="1.30714">
        <ele>380.8</ele>
        <time>2024-04-28T09:42:39Z</time>
      </trkpt>
      <trkpt lat="46.03093" lon="1.30717">
        <ele>380.6</ele>
        <time>2024-04-28T09:42:40Z</time>
      </trkpt>
      <trkpt lat="46.03088" lon="1.30719">
        <ele>380.4</ele>
        <time>2024-04-28T09:42:42Z</time>
      </trkpt>
      <trkpt lat="46.03068" lon="1.30723">
        <ele>379.4</ele>
        <time>2024-04-28T09:42:47Z</time>
      </trkpt>
      <trkpt lat="46.03063" lon="1.30723">
        <ele>379.2</ele>
        <time>2024-04-28T09:42:48Z</time>
      </trkpt>
      <trkpt lat="46.03035" lon="1.30725">
        <ele>378.4</ele>
        <time>2024-04-28T09:42:53Z</time>
      </trkpt>
      <trkpt lat="46.03023" lon="1.30725">
        <ele>377.6</ele>
        <time>2024-04-28T09:42:55Z</time>
      </trkpt>
      <trkpt lat="46.0301" lon="1.30726">
        <ele>376.8</ele>
        <time>2024-04-28T09:42:57Z</time>
      </trkpt>
      <trkpt lat="46.02989" lon="1.30727">
        <ele>375.6</ele>
        <time>2024-04-28T09:43:00Z</time>
      </trkpt>
      <trkpt lat="46.02981" lon="1.30729">
        <ele>375.2</ele>
        <time>2024-04-28T09:43:01Z</time>
      </trkpt>
      <trkpt lat="46.02965" lon="1.3073">
        <ele>374.4</ele>
        <time>2024-04-28T09:43:03Z</time>
      </trkpt>
      <trkpt lat="46.02947" lon="1.30733">
        <ele>373.2</ele>
        <time>2024-04-28T09:43:05Z</time>
      </trkpt>
      <trkpt lat="46.02928" lon="1.30735">
        <ele>372.2</ele>
        <time>2024-04-28T09:43:07Z</time>
      </trkpt>
      <trkpt lat="46.02918" lon="1.30736">
        <ele>371.4</ele>
        <time>2024-04-28T09:43:08Z</time>
      </trkpt>
      <trkpt lat="46.02898" lon="1.30738">
        <ele>369.8</ele>
        <time>2024-04-28T09:43:10Z</time>
      </trkpt>
      <trkpt lat="46.02877" lon="1.30741">
        <ele>368.4</ele>
        <time>2024-04-28T09:43:12Z</time>
      </trkpt>
      <trkpt lat="46.02866" lon="1.30742">
        <ele>367.6</ele>
        <time>2024-04-28T09:43:13Z</time>
      </trkpt>
      <trkpt lat="46.02856" lon="1.30743">
        <ele>367.2</ele>
        <time>2024-04-28T09:43:14Z</time>
      </trkpt>
      <trkpt lat="46.02825" lon="1.30747">
        <ele>365.6</ele>
        <time>2024-04-28T09:43:17Z</time>
      </trkpt>
      <trkpt lat="46.02805" lon="1.30749">
        <ele>364.2</ele>
        <time>2024-04-28T09:43:19Z</time>
      </trkpt>
      <trkpt lat="46.02796" lon="1.3075">
        <ele>363.4</ele>
        <time>2024-04-28T09:43:20Z</time>
      </trkpt>
      <trkpt lat="46.02786" lon="1.30751">
        <ele>362.8</ele>
        <time>2024-04-28T09:43:21Z</time>
      </trkpt>
      <trkpt lat="46.0276" lon="1.30754">
        <ele>361.8</ele>
        <time>2024-04-28T09:43:24Z</time>
      </trkpt>
      <trkpt lat="46.02743" lon="1.30755">
        <ele>361.2</ele>
        <time>2024-04-28T09:43:26Z</time>
      </trkpt>
      <trkpt lat="46.02728" lon="1.30757">
        <ele>360.8</ele>
        <time>2024-04-28T09:43:28Z</time>
      </trkpt>
      <trkpt lat="46.02698" lon="1.3076">
        <ele>359.6</ele>
        <time>2024-04-28T09:43:32Z</time>
      </trkpt>
      <trkpt lat="46.02683" lon="1.3076">
        <ele>359.6</ele>
        <time>2024-04-28T09:43:34Z</time>
      </trkpt>
      <trkpt lat="46.02633" lon="1.30754">
        <ele>358.4</ele>
        <time>2024-04-28T09:43:41Z</time>
      </trkpt>
      <trkpt lat="46.02625" lon="1.30753">
        <ele>358.2</ele>
        <time>2024-04-28T09:43:42Z</time>
      </trkpt>
      <trkpt lat="46.02575" lon="1.30732">
        <ele>358</ele>
        <time>2024-04-28T09:43:49Z</time>
      </trkpt>
      <trkpt lat="46.02554" lon="1.3072">
        <ele>357.4</ele>
        <time>2024-04-28T09:43:52Z</time>
      </trkpt>
      <trkpt lat="46.02543" lon="1.30713">
        <ele>356.8</ele>
        <time>2024-04-28T09:43:54Z</time>
      </trkpt>
      <trkpt lat="46.02538" lon="1.3071">
        <ele>356.4</ele>
        <time>2024-04-28T09:43:55Z</time>
      </trkpt>
      <trkpt lat="46.02528" lon="1.30704">
        <ele>355.4</ele>
        <time>2024-04-28T09:43:58Z</time>
      </trkpt>
      <trkpt lat="46.02521" lon="1.30699">
        <ele>355.4</ele>
        <time>2024-04-28T09:44:00Z</time>
      </trkpt>
      <trkpt lat="46.02505" lon="1.30685">
        <ele>355.4</ele>
        <time>2024-04-28T09:44:04Z</time>
      </trkpt>
      <trkpt lat="46.02475" lon="1.30656">
        <ele>355.2</ele>
        <time>2024-04-28T09:44:10Z</time>
      </trkpt>
      <trkpt lat="46.02439" lon="1.30608">
        <ele>354.4</ele>
        <time>2024-04-28T09:44:17Z</time>
      </trkpt>
      <trkpt lat="46.02433" lon="1.30601">
        <ele>354.2</ele>
        <time>2024-04-28T09:44:18Z</time>
      </trkpt>
      <trkpt lat="46.02403" lon="1.30555">
        <ele>353.2</ele>
        <time>2024-04-28T09:44:24Z</time>
      </trkpt>
      <trkpt lat="46.02394" lon="1.3054">
        <ele>352.6</ele>
        <time>2024-04-28T09:44:26Z</time>
      </trkpt>
      <trkpt lat="46.02385" lon="1.30526">
        <ele>352</ele>
        <time>2024-04-28T09:44:28Z</time>
      </trkpt>
      <trkpt lat="46.02362" lon="1.30493">
        <ele>351.2</ele>
        <time>2024-04-28T09:44:33Z</time>
      </trkpt>
      <trkpt lat="46.02349" lon="1.30472">
        <ele>351</ele>
        <time>2024-04-28T09:44:36Z</time>
      </trkpt>
      <trkpt lat="46.02327" lon="1.30437">
        <ele>350.2</ele>
        <time>2024-04-28T09:44:41Z</time>
      </trkpt>
      <trkpt lat="46.02313" lon="1.30415">
        <ele>349.8</ele>
        <time>2024-04-28T09:44:44Z</time>
      </trkpt>
      <trkpt lat="46.02298" lon="1.30393">
        <ele>349.6</ele>
        <time>2024-04-28T09:44:47Z</time>
      </trkpt>
      <trkpt lat="46.02279" lon="1.30364">
        <ele>348.8</ele>
        <time>2024-04-28T09:44:51Z</time>
      </trkpt>
      <trkpt lat="46.02264" lon="1.30344">
        <ele>347.8</ele>
        <time>2024-04-28T09:44:54Z</time>
      </trkpt>
      <trkpt lat="46.0226" lon="1.30337">
        <ele>347.6</ele>
        <time>2024-04-28T09:44:55Z</time>
      </trkpt>
      <trkpt lat="46.02226" lon="1.30285">
        <ele>346.6</ele>
        <time>2024-04-28T09:45:02Z</time>
      </trkpt>
      <trkpt lat="46.02221" lon="1.30277">
        <ele>346.6</ele>
        <time>2024-04-28T09:45:03Z</time>
      </trkpt>
      <trkpt lat="46.02183" lon="1.30218">
        <ele>346.2</ele>
        <time>2024-04-28T09:45:11Z</time>
      </trkpt>
      <trkpt lat="46.0216" lon="1.30183">
        <ele>346.8</ele>
        <time>2024-04-28T09:45:17Z</time>
      </trkpt>
      <trkpt lat="46.02146" lon="1.3016">
        <ele>347.8</ele>
        <time>2024-04-28T09:45:23Z</time>
      </trkpt>
      <trkpt lat="46.02137" lon="1.30147">
        <ele>348.8</ele>
        <time>2024-04-28T09:45:27Z</time>
      </trkpt>
      <trkpt lat="46.02129" lon="1.3014">
        <ele>349.4</ele>
        <time>2024-04-28T09:45:30Z</time>
      </trkpt>
      <trkpt lat="46.02124" lon="1.30139">
        <ele>349.8</ele>
        <time>2024-04-28T09:45:32Z</time>
      </trkpt>
      <trkpt lat="46.02122" lon="1.3014">
        <ele>350</ele>
        <time>2024-04-28T09:45:33Z</time>
      </trkpt>
      <trkpt lat="46.02117" lon="1.30141">
        <ele>350.6</ele>
        <time>2024-04-28T09:45:35Z</time>
      </trkpt>
      <trkpt lat="46.02114" lon="1.30141">
        <ele>351</ele>
        <time>2024-04-28T09:45:37Z</time>
      </trkpt>
      <trkpt lat="46.02108" lon="1.30142">
        <ele>352</ele>
        <time>2024-04-28T09:45:41Z</time>
      </trkpt>
      <trkpt lat="46.02105" lon="1.30143">
        <ele>352.2</ele>
        <time>2024-04-28T09:45:43Z</time>
      </trkpt>
      <trkpt lat="46.02099" lon="1.30142">
        <ele>353.2</ele>
        <time>2024-04-28T09:45:47Z</time>
      </trkpt>
      <trkpt lat="46.02096" lon="1.30137">
        <ele>354</ele>
        <time>2024-04-28T09:45:50Z</time>
      </trkpt>
      <trkpt lat="46.02093" lon="1.30132">
        <ele>354.4</ele>
        <time>2024-04-28T09:45:53Z</time>
      </trkpt>
      <trkpt lat="46.02088" lon="1.30124">
        <ele>355</ele>
        <time>2024-04-28T09:45:57Z</time>
      </trkpt>
      <trkpt lat="46.02084" lon="1.30119">
        <ele>355.4</ele>
        <time>2024-04-28T09:45:59Z</time>
      </trkpt>
      <trkpt lat="46.0208" lon="1.30113">
        <ele>356</ele>
        <time>2024-04-28T09:46:02Z</time>
      </trkpt>
      <trkpt lat="46.02078" lon="1.3011">
        <ele>356.4</ele>
        <time>2024-04-28T09:46:04Z</time>
      </trkpt>
      <trkpt lat="46.0207" lon="1.30102">
        <ele>357.8</ele>
        <time>2024-04-28T09:46:09Z</time>
      </trkpt>
      <trkpt lat="46.0206" lon="1.30096">
        <ele>358.8</ele>
        <time>2024-04-28T09:46:15Z</time>
      </trkpt>
      <trkpt lat="46.02058" lon="1.30095">
        <ele>359.2</ele>
        <time>2024-04-28T09:46:16Z</time>
      </trkpt>
      <trkpt lat="46.02053" lon="1.30092">
        <ele>360</ele>
        <time>2024-04-28T09:46:19Z</time>
      </trkpt>
      <trkpt lat="46.0205" lon="1.30089">
        <ele>360.4</ele>
        <time>2024-04-28T09:46:21Z</time>
      </trkpt>
      <trkpt lat="46.02046" lon="1.30085">
        <ele>361.2</ele>
        <time>2024-04-28T09:46:24Z</time>
      </trkpt>
      <trkpt lat="46.0204" lon="1.3008">
        <ele>362</ele>
        <time>2024-04-28T09:46:28Z</time>
      </trkpt>
      <trkpt lat="46.02035" lon="1.30075">
        <ele>362.4</ele>
        <time>2024-04-28T09:46:31Z</time>
      </trkpt>
      <trkpt lat="46.02029" lon="1.30067">
        <ele>362.8</ele>
        <time>2024-04-28T09:46:35Z</time>
      </trkpt>
      <trkpt lat="46.02024" lon="1.30055">
        <ele>363.4</ele>
        <time>2024-04-28T09:46:39Z</time>
      </trkpt>
      <trkpt lat="46.02022" lon="1.3005">
        <ele>363.6</ele>
        <time>2024-04-28T09:46:41Z</time>
      </trkpt>
      <trkpt lat="46.02019" lon="1.30041">
        <ele>363.8</ele>
        <time>2024-04-28T09:46:45Z</time>
      </trkpt>
      <trkpt lat="46.02018" lon="1.30035">
        <ele>363.8</ele>
        <time>2024-04-28T09:46:47Z</time>
      </trkpt>
      <trkpt lat="46.02016" lon="1.30026">
        <ele>364.4</ele>
        <time>2024-04-28T09:46:50Z</time>
      </trkpt>
      <trkpt lat="46.02013" lon="1.30014">
        <ele>365</ele>
        <time>2024-04-28T09:46:54Z</time>
      </trkpt>
      <trkpt lat="46.0201" lon="1.30001">
        <ele>365.6</ele>
        <time>2024-04-28T09:46:59Z</time>
      </trkpt>
      <trkpt lat="46.02008" lon="1.29996">
        <ele>365.8</ele>
        <time>2024-04-28T09:47:01Z</time>
      </trkpt>
      <trkpt lat="46.02006" lon="1.29992">
        <ele>366.6</ele>
        <time>2024-04-28T09:47:03Z</time>
      </trkpt>
      <trkpt lat="46.02001" lon="1.29979">
        <ele>367.6</ele>
        <time>2024-04-28T09:47:07Z</time>
      </trkpt>
      <trkpt lat="46.01998" lon="1.29959">
        <ele>368.8</ele>
        <time>2024-04-28T09:47:13Z</time>
      </trkpt>
      <trkpt lat="46.01999" lon="1.29956">
        <ele>369</ele>
        <time>2024-04-28T09:47:14Z</time>
      </trkpt>
      <trkpt lat="46.02003" lon="1.29946">
        <ele>369.8</ele>
        <time>2024-04-28T09:47:19Z</time>
      </trkpt>
      <trkpt lat="46.02005" lon="1.29943">
        <ele>369.8</ele>
        <time>2024-04-28T09:47:21Z</time>
      </trkpt>
      <trkpt lat="46.02006" lon="1.29939">
        <ele>370.6</ele>
        <time>2024-04-28T09:47:24Z</time>
      </trkpt>
      <trkpt lat="46.02006" lon="1.29937">
        <ele>370.8</ele>
        <time>2024-04-28T09:47:25Z</time>
      </trkpt>
      <trkpt lat="46.02007" lon="1.29934">
        <ele>371.2</ele>
        <time>2024-04-28T09:47:27Z</time>
      </trkpt>
      <trkpt lat="46.02008" lon="1.29932">
        <ele>372</ele>
        <time>2024-04-28T09:47:28Z</time>
      </trkpt>
      <trkpt lat="46.02011" lon="1.29921">
        <ele>373</ele>
        <time>2024-04-28T09:47:33Z</time>
      </trkpt>
      <trkpt lat="46.02011" lon="1.29919">
        <ele>373.2</ele>
        <time>2024-04-28T09:47:34Z</time>
      </trkpt>
      <trkpt lat="46.02011" lon="1.29906">
        <ele>374.2</ele>
        <time>2024-04-28T09:47:39Z</time>
      </trkpt>
      <trkpt lat="46.0201" lon="1.299">
        <ele>374.6</ele>
        <time>2024-04-28T09:47:41Z</time>
      </trkpt>
      <trkpt lat="46.02007" lon="1.2989">
        <ele>375.4</ele>
        <time>2024-04-28T09:47:45Z</time>
      </trkpt>
      <trkpt lat="46.02005" lon="1.29883">
        <ele>375.8</ele>
        <time>2024-04-28T09:47:48Z</time>
      </trkpt>
      <trkpt lat="46.02003" lon="1.29878">
        <ele>376.4</ele>
        <time>2024-04-28T09:47:51Z</time>
      </trkpt>
      <trkpt lat="46.02001" lon="1.29872">
        <ele>377.6</ele>
        <time>2024-04-28T09:47:54Z</time>
      </trkpt>
      <trkpt lat="46.01999" lon="1.29866">
        <ele>377.8</ele>
        <time>2024-04-28T09:47:57Z</time>
      </trkpt>
      <trkpt lat="46.01996" lon="1.29858">
        <ele>378.8</ele>
        <time>2024-04-28T09:48:02Z</time>
      </trkpt>
      <trkpt lat="46.01994" lon="1.29854">
        <ele>379.2</ele>
        <time>2024-04-28T09:48:04Z</time>
      </trkpt>
      <trkpt lat="46.01989" lon="1.29845">
        <ele>379.8</ele>
        <time>2024-04-28T09:48:09Z</time>
      </trkpt>
      <trkpt lat="46.01988" lon="1.29842">
        <ele>380</ele>
        <time>2024-04-28T09:48:10Z</time>
      </trkpt>
      <trkpt lat="46.01981" lon="1.29826">
        <ele>380.4</ele>
        <time>2024-04-28T09:48:17Z</time>
      </trkpt>
      <trkpt lat="46.01976" lon="1.29816">
        <ele>381</ele>
        <time>2024-04-28T09:48:21Z</time>
      </trkpt>
      <trkpt lat="46.01974" lon="1.29812">
        <ele>381.4</ele>
        <time>2024-04-28T09:48:23Z</time>
      </trkpt>
      <trkpt lat="46.0197" lon="1.29801">
        <ele>382.4</ele>
        <time>2024-04-28T09:48:28Z</time>
      </trkpt>
      <trkpt lat="46.01968" lon="1.29795">
        <ele>383</ele>
        <time>2024-04-28T09:48:31Z</time>
      </trkpt>
      <trkpt lat="46.01969" lon="1.29793">
        <ele>383.4</ele>
        <time>2024-04-28T09:48:32Z</time>
      </trkpt>
      <trkpt lat="46.01967" lon="1.29789">
        <ele>384</ele>
        <time>2024-04-28T09:48:35Z</time>
      </trkpt>
      <trkpt lat="46.01964" lon="1.29785">
        <ele>384.4</ele>
        <time>2024-04-28T09:48:37Z</time>
      </trkpt>
      <trkpt lat="46.01963" lon="1.29784">
        <ele>384.8</ele>
        <time>2024-04-28T09:48:38Z</time>
      </trkpt>
      <trkpt lat="46.0196" lon="1.2978">
        <ele>385.4</ele>
        <time>2024-04-28T09:48:41Z</time>
      </trkpt>
      <trkpt lat="46.01955" lon="1.29772">
        <ele>386.2</ele>
        <time>2024-04-28T09:48:46Z</time>
      </trkpt>
      <trkpt lat="46.01954" lon="1.2977">
        <ele>386.4</ele>
        <time>2024-04-28T09:48:47Z</time>
      </trkpt>
      <trkpt lat="46.01948" lon="1.29763">
        <ele>387.6</ele>
        <time>2024-04-28T09:48:51Z</time>
      </trkpt>
      <trkpt lat="46.01944" lon="1.29761">
        <ele>388.4</ele>
        <time>2024-04-28T09:48:54Z</time>
      </trkpt>
      <trkpt lat="46.01941" lon="1.2976">
        <ele>388.8</ele>
        <time>2024-04-28T09:48:56Z</time>
      </trkpt>
      <trkpt lat="46.01936" lon="1.29758">
        <ele>390</ele>
        <time>2024-04-28T09:49:02Z</time>
      </trkpt>
      <trkpt lat="46.0193" lon="1.29764">
        <ele>391.4</ele>
        <time>2024-04-28T09:49:10Z</time>
      </trkpt>
      <trkpt lat="46.01928" lon="1.29766">
        <ele>391.8</ele>
        <time>2024-04-28T09:49:11Z</time>
      </trkpt>
      <trkpt lat="46.01923" lon="1.29778">
        <ele>392.4</ele>
        <time>2024-04-28T09:49:17Z</time>
      </trkpt>
      <trkpt lat="46.01923" lon="1.2978">
        <ele>392.6</ele>
        <time>2024-04-28T09:49:18Z</time>
      </trkpt>
      <trkpt lat="46.01916" lon="1.29796">
        <ele>393.4</ele>
        <time>2024-04-28T09:49:24Z</time>
      </trkpt>
      <trkpt lat="46.01915" lon="1.29801">
        <ele>393.6</ele>
        <time>2024-04-28T09:49:26Z</time>
      </trkpt>
      <trkpt lat="46.01909" lon="1.29822">
        <ele>394.6</ele>
        <time>2024-04-28T09:49:33Z</time>
      </trkpt>
      <trkpt lat="46.01909" lon="1.29826">
        <ele>394.6</ele>
        <time>2024-04-28T09:49:34Z</time>
      </trkpt>
      <trkpt lat="46.01905" lon="1.29841">
        <ele>395.4</ele>
        <time>2024-04-28T09:49:39Z</time>
      </trkpt>
      <trkpt lat="46.01895" lon="1.29855">
        <ele>395.8</ele>
        <time>2024-04-28T09:49:44Z</time>
      </trkpt>
      <trkpt lat="46.0189" lon="1.29861">
        <ele>396.6</ele>
        <time>2024-04-28T09:49:46Z</time>
      </trkpt>
      <trkpt lat="46.01886" lon="1.29864">
        <ele>396.8</ele>
        <time>2024-04-28T09:49:48Z</time>
      </trkpt>
      <trkpt lat="46.01871" lon="1.29876">
        <ele>397.6</ele>
        <time>2024-04-28T09:49:54Z</time>
      </trkpt>
      <trkpt lat="46.01856" lon="1.29891">
        <ele>397.8</ele>
        <time>2024-04-28T09:50:00Z</time>
      </trkpt>
      <trkpt lat="46.01855" lon="1.29894">
        <ele>398</ele>
        <time>2024-04-28T09:50:01Z</time>
      </trkpt>
      <trkpt lat="46.01852" lon="1.29905">
        <ele>397.8</ele>
        <time>2024-04-28T09:50:04Z</time>
      </trkpt>
      <trkpt lat="46.0185" lon="1.29915">
        <ele>397</ele>
        <time>2024-04-28T09:50:06Z</time>
      </trkpt>
      <trkpt lat="46.01848" lon="1.29922">
        <ele>396</ele>
        <time>2024-04-28T09:50:07Z</time>
      </trkpt>
      <trkpt lat="46.01844" lon="1.29939">
        <ele>395</ele>
        <time>2024-04-28T09:50:09Z</time>
      </trkpt>
      <trkpt lat="46.01842" lon="1.29946">
        <ele>394.8</ele>
        <time>2024-04-28T09:50:10Z</time>
      </trkpt>
      <trkpt lat="46.01837" lon="1.29961">
        <ele>394.6</ele>
        <time>2024-04-28T09:50:12Z</time>
      </trkpt>
      <trkpt lat="46.01817" lon="1.29976">
        <ele>394.4</ele>
        <time>2024-04-28T09:50:16Z</time>
      </trkpt>
      <trkpt lat="46.01801" lon="1.29983">
        <ele>394.2</ele>
        <time>2024-04-28T09:50:19Z</time>
      </trkpt>
      <trkpt lat="46.01793" lon="1.29991">
        <ele>394.2</ele>
        <time>2024-04-28T09:50:21Z</time>
      </trkpt>
      <trkpt lat="46.0179" lon="1.29996">
        <ele>393.6</ele>
        <time>2024-04-28T09:50:22Z</time>
      </trkpt>
      <trkpt lat="46.01788" lon="1.3">
        <ele>393.4</ele>
        <time>2024-04-28T09:50:23Z</time>
      </trkpt>
      <trkpt lat="46.01787" lon="1.30006">
        <ele>393.2</ele>
        <time>2024-04-28T09:50:24Z</time>
      </trkpt>
      <trkpt lat="46.0179" lon="1.30042">
        <ele>394</ele>
        <time>2024-04-28T09:50:30Z</time>
      </trkpt>
      <trkpt lat="46.01792" lon="1.30062">
        <ele>394.6</ele>
        <time>2024-04-28T09:50:33Z</time>
      </trkpt>
      <trkpt lat="46.01794" lon="1.30072">
        <ele>394.8</ele>
        <time>2024-04-28T09:50:35Z</time>
      </trkpt>
      <trkpt lat="46.01795" lon="1.30095">
        <ele>396</ele>
        <time>2024-04-28T09:50:40Z</time>
      </trkpt>
      <trkpt lat="46.0179" lon="1.30102">
        <ele>396.6</ele>
        <time>2024-04-28T09:50:43Z</time>
      </trkpt>
      <trkpt lat="46.01788" lon="1.30102">
        <ele>396.6</ele>
        <time>2024-04-28T09:50:44Z</time>
      </trkpt>
      <trkpt lat="46.01773" lon="1.30098">
        <ele>397</ele>
        <time>2024-04-28T09:50:49Z</time>
      </trkpt>
      <trkpt lat="46.01767" lon="1.301">
        <ele>397</ele>
        <time>2024-04-28T09:50:51Z</time>
      </trkpt>
      <trkpt lat="46.01765" lon="1.30104">
        <ele>397.2</ele>
        <time>2024-04-28T09:50:52Z</time>
      </trkpt>
      <trkpt lat="46.01765" lon="1.30108">
        <ele>397</ele>
        <time>2024-04-28T09:50:53Z</time>
      </trkpt>
      <trkpt lat="46.01767" lon="1.30124">
        <ele>397</ele>
        <time>2024-04-28T09:50:56Z</time>
      </trkpt>
      <trkpt lat="46.01772" lon="1.30152">
        <ele>398</ele>
        <time>2024-04-28T09:51:01Z</time>
      </trkpt>
      <trkpt lat="46.01773" lon="1.30163">
        <ele>398.2</ele>
        <time>2024-04-28T09:51:03Z</time>
      </trkpt>
      <trkpt lat="46.01773" lon="1.30168">
        <ele>398.2</ele>
        <time>2024-04-28T09:51:04Z</time>
      </trkpt>
      <trkpt lat="46.01775" lon="1.30184">
        <ele>398</ele>
        <time>2024-04-28T09:51:07Z</time>
      </trkpt>
      <trkpt lat="46.01776" lon="1.30202">
        <ele>397.8</ele>
        <time>2024-04-28T09:51:10Z</time>
      </trkpt>
      <trkpt lat="46.01777" lon="1.30209">
        <ele>397.6</ele>
        <time>2024-04-28T09:51:11Z</time>
      </trkpt>
      <trkpt lat="46.0178" lon="1.30223">
        <ele>396.8</ele>
        <time>2024-04-28T09:51:13Z</time>
      </trkpt>
      <trkpt lat="46.01782" lon="1.30235">
        <ele>396.2</ele>
        <time>2024-04-28T09:51:15Z</time>
      </trkpt>
      <trkpt lat="46.01784" lon="1.30239">
        <ele>395.8</ele>
        <time>2024-04-28T09:51:16Z</time>
      </trkpt>
      <trkpt lat="46.01785" lon="1.30242">
        <ele>395.4</ele>
        <time>2024-04-28T09:51:17Z</time>
      </trkpt>
      <trkpt lat="46.01785" lon="1.30243">
        <ele>394.6</ele>
        <time>2024-04-28T09:51:18Z</time>
      </trkpt>
      <trkpt lat="46.01785" lon="1.30245">
        <ele>394</ele>
        <time>2024-04-28T09:51:19Z</time>
      </trkpt>
      <trkpt lat="46.01784" lon="1.30246">
        <ele>393.6</ele>
        <time>2024-04-28T09:51:20Z</time>
      </trkpt>
      <trkpt lat="46.01784" lon="1.30246">
        <ele>393.2</ele>
        <time>2024-04-28T09:51:22Z</time>
      </trkpt>
      <trkpt lat="46.01783" lon="1.30247">
        <ele>393.2</ele>
        <time>2024-04-28T09:51:24Z</time>
      </trkpt>
      <trkpt lat="46.01781" lon="1.30245">
        <ele>393.4</ele>
        <time>2024-04-28T09:51:26Z</time>
      </trkpt>
      <trkpt lat="46.01777" lon="1.30242">
        <ele>394.8</ele>
        <time>2024-04-28T09:51:30Z</time>
      </trkpt>
      <trkpt lat="46.01772" lon="1.3024">
        <ele>396.4</ele>
        <time>2024-04-28T09:51:33Z</time>
      </trkpt>
      <trkpt lat="46.0177" lon="1.30241">
        <ele>396.8</ele>
        <time>2024-04-28T09:51:34Z</time>
      </trkpt>
      <trkpt lat="46.01765" lon="1.30241">
        <ele>397.6</ele>
        <time>2024-04-28T09:51:36Z</time>
      </trkpt>
      <trkpt lat="46.01756" lon="1.30242">
        <ele>398.2</ele>
        <time>2024-04-28T09:51:40Z</time>
      </trkpt>
      <trkpt lat="46.01749" lon="1.30243">
        <ele>398.8</ele>
        <time>2024-04-28T09:51:43Z</time>
      </trkpt>
      <trkpt lat="46.01744" lon="1.30244">
        <ele>399.6</ele>
        <time>2024-04-28T09:51:46Z</time>
      </trkpt>
      <trkpt lat="46.0174" lon="1.30245">
        <ele>400</ele>
        <time>2024-04-28T09:51:48Z</time>
      </trkpt>
      <trkpt lat="46.01732" lon="1.30249">
        <ele>401</ele>
        <time>2024-04-28T09:51:53Z</time>
      </trkpt>
      <trkpt lat="46.0173" lon="1.30249">
        <ele>401.2</ele>
        <time>2024-04-28T09:51:54Z</time>
      </trkpt>
      <trkpt lat="46.01719" lon="1.30257">
        <ele>402</ele>
        <time>2024-04-28T09:52:00Z</time>
      </trkpt>
      <trkpt lat="46.01711" lon="1.30258">
        <ele>402.4</ele>
        <time>2024-04-28T09:52:04Z</time>
      </trkpt>
      <trkpt lat="46.01706" lon="1.30259">
        <ele>403</ele>
        <time>2024-04-28T09:52:07Z</time>
      </trkpt>
      <trkpt lat="46.01702" lon="1.30255">
        <ele>403.6</ele>
        <time>2024-04-28T09:52:10Z</time>
      </trkpt>
      <trkpt lat="46.01696" lon="1.30253">
        <ele>404.6</ele>
        <time>2024-04-28T09:52:13Z</time>
      </trkpt>
      <trkpt lat="46.01692" lon="1.30251">
        <ele>404.8</ele>
        <time>2024-04-28T09:52:15Z</time>
      </trkpt>
      <trkpt lat="46.0168" lon="1.30248">
        <ele>405.6</ele>
        <time>2024-04-28T09:52:20Z</time>
      </trkpt>
      <trkpt lat="46.01674" lon="1.30249">
        <ele>406</ele>
        <time>2024-04-28T09:52:22Z</time>
      </trkpt>
      <trkpt lat="46.01662" lon="1.30254">
        <ele>406.6</ele>
        <time>2024-04-28T09:52:27Z</time>
      </trkpt>
      <trkpt lat="46.01657" lon="1.30259">
        <ele>407</ele>
        <time>2024-04-28T09:52:29Z</time>
      </trkpt>
      <trkpt lat="46.0165" lon="1.30266">
        <ele>407.6</ele>
        <time>2024-04-28T09:52:32Z</time>
      </trkpt>
      <trkpt lat="46.01643" lon="1.30275">
        <ele>408.4</ele>
        <time>2024-04-28T09:52:36Z</time>
      </trkpt>
      <trkpt lat="46.01639" lon="1.30279">
        <ele>408.8</ele>
        <time>2024-04-28T09:52:38Z</time>
      </trkpt>
      <trkpt lat="46.01628" lon="1.30293">
        <ele>409.8</ele>
        <time>2024-04-28T09:52:44Z</time>
      </trkpt>
      <trkpt lat="46.01615" lon="1.30306">
        <ele>410.6</ele>
        <time>2024-04-28T09:52:51Z</time>
      </trkpt>
      <trkpt lat="46.01608" lon="1.3031">
        <ele>411</ele>
        <time>2024-04-28T09:52:55Z</time>
      </trkpt>
      <trkpt lat="46.016" lon="1.30315">
        <ele>411.6</ele>
        <time>2024-04-28T09:53:00Z</time>
      </trkpt>
      <trkpt lat="46.01597" lon="1.30317">
        <ele>412</ele>
        <time>2024-04-28T09:53:02Z</time>
      </trkpt>
      <trkpt lat="46.01594" lon="1.30322">
        <ele>413.2</ele>
        <time>2024-04-28T09:53:05Z</time>
      </trkpt>
      <trkpt lat="46.01592" lon="1.30324">
        <ele>413.4</ele>
        <time>2024-04-28T09:53:07Z</time>
      </trkpt>
      <trkpt lat="46.0158" lon="1.30337">
        <ele>414.2</ele>
        <time>2024-04-28T09:53:14Z</time>
      </trkpt>
      <trkpt lat="46.01578" lon="1.30339">
        <ele>414.4</ele>
        <time>2024-04-28T09:53:15Z</time>
      </trkpt>
      <trkpt lat="46.0157" lon="1.30339">
        <ele>415.2</ele>
        <time>2024-04-28T09:53:19Z</time>
      </trkpt>
      <trkpt lat="46.01566" lon="1.30337">
        <ele>416</ele>
        <time>2024-04-28T09:53:21Z</time>
      </trkpt>
      <trkpt lat="46.0156" lon="1.30335">
        <ele>416.6</ele>
        <time>2024-04-28T09:53:23Z</time>
      </trkpt>
      <trkpt lat="46.01551" lon="1.30334">
        <ele>417.2</ele>
        <time>2024-04-28T09:53:27Z</time>
      </trkpt>
      <trkpt lat="46.0155" lon="1.30334">
        <ele>417.2</ele>
        <time>2024-04-28T09:53:28Z</time>
      </trkpt>
      <trkpt lat="46.01549" lon="1.30335">
        <ele>417.2</ele>
        <time>2024-04-28T09:53:32Z</time>
      </trkpt>
      <trkpt lat="46.01555" lon="1.30346">
        <ele>416.8</ele>
        <time>2024-04-28T09:53:38Z</time>
      </trkpt>
      <trkpt lat="46.01556" lon="1.30348">
        <ele>416.6</ele>
        <time>2024-04-28T09:53:39Z</time>
      </trkpt>
      <trkpt lat="46.01561" lon="1.30348">
        <ele>416.2</ele>
        <time>2024-04-28T09:53:41Z</time>
      </trkpt>
      <trkpt lat="46.01564" lon="1.30346">
        <ele>415.6</ele>
        <time>2024-04-28T09:53:42Z</time>
      </trkpt>
      <trkpt lat="46.01566" lon="1.30344">
        <ele>415.2</ele>
        <time>2024-04-28T09:53:43Z</time>
      </trkpt>
      <trkpt lat="46.01576" lon="1.30335">
        <ele>413.6</ele>
        <time>2024-04-28T09:53:47Z</time>
      </trkpt>
      <trkpt lat="46.0158" lon="1.30332">
        <ele>413.2</ele>
        <time>2024-04-28T09:53:48Z</time>
      </trkpt>
      <trkpt lat="46.0159" lon="1.30325">
        <ele>412.8</ele>
        <time>2024-04-28T09:53:50Z</time>
      </trkpt>
      <trkpt lat="46.016" lon="1.30314">
        <ele>412</ele>
        <time>2024-04-28T09:53:52Z</time>
      </trkpt>
      <trkpt lat="46.01615" lon="1.30295">
        <ele>410.6</ele>
        <time>2024-04-28T09:53:55Z</time>
      </trkpt>
      <trkpt lat="46.01632" lon="1.30274">
        <ele>409.6</ele>
        <time>2024-04-28T09:53:58Z</time>
      </trkpt>
      <trkpt lat="46.01637" lon="1.30269">
        <ele>409.4</ele>
        <time>2024-04-28T09:53:59Z</time>
      </trkpt>
      <trkpt lat="46.01642" lon="1.30265">
        <ele>409.2</ele>
        <time>2024-04-28T09:54:00Z</time>
      </trkpt>
      <trkpt lat="46.01655" lon="1.30261">
        <ele>408.4</ele>
        <time>2024-04-28T09:54:02Z</time>
      </trkpt>
      <trkpt lat="46.01661" lon="1.30261">
        <ele>407.8</ele>
        <time>2024-04-28T09:54:03Z</time>
      </trkpt>
      <trkpt lat="46.01671" lon="1.30264">
        <ele>406.4</ele>
        <time>2024-04-28T09:54:05Z</time>
      </trkpt>
      <trkpt lat="46.01675" lon="1.30267">
        <ele>405.8</ele>
        <time>2024-04-28T09:54:06Z</time>
      </trkpt>
      <trkpt lat="46.01685" lon="1.30271">
        <ele>405.4</ele>
        <time>2024-04-28T09:54:08Z</time>
      </trkpt>
      <trkpt lat="46.0169" lon="1.3027">
        <ele>405.2</ele>
        <time>2024-04-28T09:54:09Z</time>
      </trkpt>
      <trkpt lat="46.01695" lon="1.30267">
        <ele>404.4</ele>
        <time>2024-04-28T09:54:10Z</time>
      </trkpt>
      <trkpt lat="46.017" lon="1.30263">
        <ele>404</ele>
        <time>2024-04-28T09:54:11Z</time>
      </trkpt>
      <trkpt lat="46.01712" lon="1.30254">
        <ele>403.2</ele>
        <time>2024-04-28T09:54:13Z</time>
      </trkpt>
      <trkpt lat="46.01719" lon="1.30252">
        <ele>402.4</ele>
        <time>2024-04-28T09:54:14Z</time>
      </trkpt>
      <trkpt lat="46.01725" lon="1.3025">
        <ele>401.8</ele>
        <time>2024-04-28T09:54:15Z</time>
      </trkpt>
      <trkpt lat="46.01733" lon="1.30249">
        <ele>401.2</ele>
        <time>2024-04-28T09:54:16Z</time>
      </trkpt>
      <trkpt lat="46.01747" lon="1.30248">
        <ele>400.4</ele>
        <time>2024-04-28T09:54:18Z</time>
      </trkpt>
      <trkpt lat="46.01751" lon="1.30249">
        <ele>400.2</ele>
        <time>2024-04-28T09:54:19Z</time>
      </trkpt>
      <trkpt lat="46.01755" lon="1.30252">
        <ele>398.4</ele>
        <time>2024-04-28T09:54:20Z</time>
      </trkpt>
      <trkpt lat="46.01762" lon="1.30256">
        <ele>396.4</ele>
        <time>2024-04-28T09:54:22Z</time>
      </trkpt>
      <trkpt lat="46.01767" lon="1.30263">
        <ele>395.2</ele>
        <time>2024-04-28T09:54:24Z</time>
      </trkpt>
      <trkpt lat="46.01772" lon="1.3027">
        <ele>394.2</ele>
        <time>2024-04-28T09:54:26Z</time>
      </trkpt>
      <trkpt lat="46.01772" lon="1.30273">
        <ele>393</ele>
        <time>2024-04-28T09:54:27Z</time>
      </trkpt>
      <trkpt lat="46.01772" lon="1.30277">
        <ele>392</ele>
        <time>2024-04-28T09:54:28Z</time>
      </trkpt>
      <trkpt lat="46.01769" lon="1.3028">
        <ele>391.6</ele>
        <time>2024-04-28T09:54:29Z</time>
      </trkpt>
      <trkpt lat="46.01766" lon="1.30284">
        <ele>391.2</ele>
        <time>2024-04-28T09:54:30Z</time>
      </trkpt>
      <trkpt lat="46.01762" lon="1.30286">
        <ele>390.4</ele>
        <time>2024-04-28T09:54:31Z</time>
      </trkpt>
      <trkpt lat="46.01759" lon="1.30287">
        <ele>388.2</ele>
        <time>2024-04-28T09:54:32Z</time>
      </trkpt>
      <trkpt lat="46.01751" lon="1.30292">
        <ele>386.4</ele>
        <time>2024-04-28T09:54:35Z</time>
      </trkpt>
      <trkpt lat="46.01747" lon="1.30301">
        <ele>385.4</ele>
        <time>2024-04-28T09:54:37Z</time>
      </trkpt>
      <trkpt lat="46.01744" lon="1.30309">
        <ele>385</ele>
        <time>2024-04-28T09:54:38Z</time>
      </trkpt>
      <trkpt lat="46.0174" lon="1.30324">
        <ele>383.6</ele>
        <time>2024-04-28T09:54:40Z</time>
      </trkpt>
      <trkpt lat="46.01739" lon="1.30332">
        <ele>382.8</ele>
        <time>2024-04-28T09:54:41Z</time>
      </trkpt>
      <trkpt lat="46.0174" lon="1.30337">
        <ele>382.2</ele>
        <time>2024-04-28T09:54:42Z</time>
      </trkpt>
      <trkpt lat="46.01744" lon="1.30359">
        <ele>380.6</ele>
        <time>2024-04-28T09:54:45Z</time>
      </trkpt>
      <trkpt lat="46.01748" lon="1.30378">
        <ele>378.4</ele>
        <time>2024-04-28T09:54:47Z</time>
      </trkpt>
      <trkpt lat="46.01749" lon="1.30389">
        <ele>377</ele>
        <time>2024-04-28T09:54:48Z</time>
      </trkpt>
      <trkpt lat="46.01751" lon="1.30399">
        <ele>376</ele>
        <time>2024-04-28T09:54:49Z</time>
      </trkpt>
      <trkpt lat="46.01754" lon="1.30409">
        <ele>375.4</ele>
        <time>2024-04-28T09:54:50Z</time>
      </trkpt>
      <trkpt lat="46.0176" lon="1.30436">
        <ele>373.6</ele>
        <time>2024-04-28T09:54:53Z</time>
      </trkpt>
      <trkpt lat="46.01763" lon="1.30443">
        <ele>372.4</ele>
        <time>2024-04-28T09:54:54Z</time>
      </trkpt>
      <trkpt lat="46.01766" lon="1.30449">
        <ele>371.2</ele>
        <time>2024-04-28T09:54:55Z</time>
      </trkpt>
      <trkpt lat="46.01773" lon="1.30462">
        <ele>370</ele>
        <time>2024-04-28T09:54:57Z</time>
      </trkpt>
      <trkpt lat="46.01777" lon="1.30469">
        <ele>369</ele>
        <time>2024-04-28T09:54:58Z</time>
      </trkpt>
      <trkpt lat="46.01781" lon="1.30477">
        <ele>367.2</ele>
        <time>2024-04-28T09:54:59Z</time>
      </trkpt>
      <trkpt lat="46.01784" lon="1.30483">
        <ele>365.6</ele>
        <time>2024-04-28T09:55:00Z</time>
      </trkpt>
      <trkpt lat="46.01786" lon="1.30489">
        <ele>364.6</ele>
        <time>2024-04-28T09:55:01Z</time>
      </trkpt>
      <trkpt lat="46.01787" lon="1.30496">
        <ele>363.8</ele>
        <time>2024-04-28T09:55:02Z</time>
      </trkpt>
      <trkpt lat="46.01787" lon="1.30504">
        <ele>363.2</ele>
        <time>2024-04-28T09:55:03Z</time>
      </trkpt>
      <trkpt lat="46.01786" lon="1.30513">
        <ele>362.8</ele>
        <time>2024-04-28T09:55:04Z</time>
      </trkpt>
      <trkpt lat="46.01784" lon="1.30531">
        <ele>362.4</ele>
        <time>2024-04-28T09:55:06Z</time>
      </trkpt>
      <trkpt lat="46.01782" lon="1.3054">
        <ele>362</ele>
        <time>2024-04-28T09:55:07Z</time>
      </trkpt>
      <trkpt lat="46.01776" lon="1.30558">
        <ele>360.8</ele>
        <time>2024-04-28T09:55:09Z</time>
      </trkpt>
      <trkpt lat="46.01773" lon="1.30565">
        <ele>360</ele>
        <time>2024-04-28T09:55:10Z</time>
      </trkpt>
      <trkpt lat="46.01768" lon="1.3057">
        <ele>359.6</ele>
        <time>2024-04-28T09:55:11Z</time>
      </trkpt>
      <trkpt lat="46.01763" lon="1.30574">
        <ele>359.2</ele>
        <time>2024-04-28T09:55:12Z</time>
      </trkpt>
      <trkpt lat="46.01759" lon="1.30575">
        <ele>358.6</ele>
        <time>2024-04-28T09:55:13Z</time>
      </trkpt>
      <trkpt lat="46.01755" lon="1.30575">
        <ele>358.2</ele>
        <time>2024-04-28T09:55:14Z</time>
      </trkpt>
      <trkpt lat="46.01745" lon="1.30571">
        <ele>358</ele>
        <time>2024-04-28T09:55:17Z</time>
      </trkpt>
      <trkpt lat="46.0172" lon="1.30563">
        <ele>358.6</ele>
        <time>2024-04-28T09:55:23Z</time>
      </trkpt>
      <trkpt lat="46.0171" lon="1.30559">
        <ele>359</ele>
        <time>2024-04-28T09:55:26Z</time>
      </trkpt>
      <trkpt lat="46.01702" lon="1.30557">
        <ele>359.2</ele>
        <time>2024-04-28T09:55:28Z</time>
      </trkpt>
      <trkpt lat="46.01692" lon="1.30553">
        <ele>359.8</ele>
        <time>2024-04-28T09:55:32Z</time>
      </trkpt>
      <trkpt lat="46.01689" lon="1.30552">
        <ele>360</ele>
        <time>2024-04-28T09:55:33Z</time>
      </trkpt>
      <trkpt lat="46.01686" lon="1.30551">
        <ele>360.4</ele>
        <time>2024-04-28T09:55:34Z</time>
      </trkpt>
      <trkpt lat="46.01666" lon="1.30546">
        <ele>361</ele>
        <time>2024-04-28T09:55:39Z</time>
      </trkpt>
      <trkpt lat="46.01656" lon="1.30544">
        <ele>361.4</ele>
        <time>2024-04-28T09:55:42Z</time>
      </trkpt>
      <trkpt lat="46.0165" lon="1.30545">
        <ele>361.8</ele>
        <time>2024-04-28T09:55:44Z</time>
      </trkpt>
      <trkpt lat="46.01642" lon="1.30545">
        <ele>362.4</ele>
        <time>2024-04-28T09:55:47Z</time>
      </trkpt>
      <trkpt lat="46.01633" lon="1.30546">
        <ele>362.8</ele>
        <time>2024-04-28T09:55:51Z</time>
      </trkpt>
      <trkpt lat="46.01627" lon="1.3055">
        <ele>363.6</ele>
        <time>2024-04-28T09:55:54Z</time>
      </trkpt>
      <trkpt lat="46.01614" lon="1.30557">
        <ele>364.6</ele>
        <time>2024-04-28T09:55:59Z</time>
      </trkpt>
      <trkpt lat="46.01606" lon="1.30569">
        <ele>365.6</ele>
        <time>2024-04-28T09:56:04Z</time>
      </trkpt>
      <trkpt lat="46.01605" lon="1.30571">
        <ele>366</ele>
        <time>2024-04-28T09:56:05Z</time>
      </trkpt>
      <trkpt lat="46.01603" lon="1.30577">
        <ele>366.6</ele>
        <time>2024-04-28T09:56:07Z</time>
      </trkpt>
      <trkpt lat="46.01602" lon="1.30589">
        <ele>367</ele>
        <time>2024-04-28T09:56:11Z</time>
      </trkpt>
      <trkpt lat="46.01606" lon="1.30604">
        <ele>368</ele>
        <time>2024-04-28T09:56:17Z</time>
      </trkpt>
      <trkpt lat="46.01606" lon="1.30607">
        <ele>368.2</ele>
        <time>2024-04-28T09:56:18Z</time>
      </trkpt>
      <trkpt lat="46.01609" lon="1.30618">
        <ele>368.4</ele>
        <time>2024-04-28T09:56:23Z</time>
      </trkpt>
      <trkpt lat="46.01608" lon="1.30623">
        <ele>369.2</ele>
        <time>2024-04-28T09:56:26Z</time>
      </trkpt>
      <trkpt lat="46.01604" lon="1.30626">
        <ele>370</ele>
        <time>2024-04-28T09:56:29Z</time>
      </trkpt>
      <trkpt lat="46.01601" lon="1.30627">
        <ele>370.4</ele>
        <time>2024-04-28T09:56:31Z</time>
      </trkpt>
      <trkpt lat="46.01595" lon="1.30629">
        <ele>371.4</ele>
        <time>2024-04-28T09:56:35Z</time>
      </trkpt>
      <trkpt lat="46.01594" lon="1.3063">
        <ele>371.6</ele>
        <time>2024-04-28T09:56:36Z</time>
      </trkpt>
      <trkpt lat="46.01587" lon="1.30636">
        <ele>372.8</ele>
        <time>2024-04-28T09:56:40Z</time>
      </trkpt>
      <trkpt lat="46.01582" lon="1.30637">
        <ele>373</ele>
        <time>2024-04-28T09:56:43Z</time>
      </trkpt>
      <trkpt lat="46.01574" lon="1.30639">
        <ele>373.8</ele>
        <time>2024-04-28T09:56:47Z</time>
      </trkpt>
      <trkpt lat="46.01568" lon="1.30642">
        <ele>374.8</ele>
        <time>2024-04-28T09:56:51Z</time>
      </trkpt>
      <trkpt lat="46.01566" lon="1.30643">
        <ele>375</ele>
        <time>2024-04-28T09:56:52Z</time>
      </trkpt>
      <trkpt lat="46.01558" lon="1.30644">
        <ele>376</ele>
        <time>2024-04-28T09:56:57Z</time>
      </trkpt>
      <trkpt lat="46.0155" lon="1.30646">
        <ele>377.2</ele>
        <time>2024-04-28T09:57:02Z</time>
      </trkpt>
      <trkpt lat="46.01548" lon="1.30645">
        <ele>377.4</ele>
        <time>2024-04-28T09:57:03Z</time>
      </trkpt>
      <trkpt lat="46.01541" lon="1.30643">
        <ele>378.4</ele>
        <time>2024-04-28T09:57:08Z</time>
      </trkpt>
      <trkpt lat="46.0154" lon="1.30642">
        <ele>378.6</ele>
        <time>2024-04-28T09:57:10Z</time>
      </trkpt>
      <trkpt lat="46.01536" lon="1.3064">
        <ele>379.4</ele>
        <time>2024-04-28T09:57:13Z</time>
      </trkpt>
      <trkpt lat="46.01533" lon="1.30637">
        <ele>380</ele>
        <time>2024-04-28T09:57:16Z</time>
      </trkpt>
      <trkpt lat="46.01532" lon="1.30637">
        <ele>380</ele>
        <time>2024-04-28T09:57:17Z</time>
      </trkpt>
      <trkpt lat="46.0153" lon="1.30634">
        <ele>380.6</ele>
        <time>2024-04-28T09:57:19Z</time>
      </trkpt>
      <trkpt lat="46.01524" lon="1.30628">
        <ele>381.6</ele>
        <time>2024-04-28T09:57:24Z</time>
      </trkpt>
      <trkpt lat="46.01521" lon="1.30622">
        <ele>382.6</ele>
        <time>2024-04-28T09:57:28Z</time>
      </trkpt>
      <trkpt lat="46.0152" lon="1.3062">
        <ele>383.2</ele>
        <time>2024-04-28T09:57:30Z</time>
      </trkpt>
      <trkpt lat="46.01519" lon="1.30617">
        <ele>383.4</ele>
        <time>2024-04-28T09:57:32Z</time>
      </trkpt>
      <trkpt lat="46.01518" lon="1.30613">
        <ele>383.8</ele>
        <time>2024-04-28T09:57:34Z</time>
      </trkpt>
      <trkpt lat="46.01515" lon="1.30607">
        <ele>384.4</ele>
        <time>2024-04-28T09:57:37Z</time>
      </trkpt>
      <trkpt lat="46.01512" lon="1.306">
        <ele>385</ele>
        <time>2024-04-28T09:57:41Z</time>
      </trkpt>
      <trkpt lat="46.01511" lon="1.30595">
        <ele>385.8</ele>
        <time>2024-04-28T09:57:44Z</time>
      </trkpt>
      <trkpt lat="46.01511" lon="1.30593">
        <ele>386.2</ele>
        <time>2024-04-28T09:57:45Z</time>
      </trkpt>
      <trkpt lat="46.0151" lon="1.30587">
        <ele>386.8</ele>
        <time>2024-04-28T09:57:49Z</time>
      </trkpt>
      <trkpt lat="46.01507" lon="1.30583">
        <ele>387.2</ele>
        <time>2024-04-28T09:57:51Z</time>
      </trkpt>
      <trkpt lat="46.01502" lon="1.30574">
        <ele>388.6</ele>
        <time>2024-04-28T09:57:57Z</time>
      </trkpt>
      <trkpt lat="46.015" lon="1.30571">
        <ele>389</ele>
        <time>2024-04-28T09:57:59Z</time>
      </trkpt>
      <trkpt lat="46.01495" lon="1.30567">
        <ele>390</ele>
        <time>2024-04-28T09:58:03Z</time>
      </trkpt>
      <trkpt lat="46.01489" lon="1.30567">
        <ele>390.6</ele>
        <time>2024-04-28T09:58:07Z</time>
      </trkpt>
      <trkpt lat="46.01487" lon="1.30568">
        <ele>391</ele>
        <time>2024-04-28T09:58:09Z</time>
      </trkpt>
      <trkpt lat="46.01483" lon="1.3057">
        <ele>392.2</ele>
        <time>2024-04-28T09:58:12Z</time>
      </trkpt>
      <trkpt lat="46.01479" lon="1.3057">
        <ele>392.4</ele>
        <time>2024-04-28T09:58:14Z</time>
      </trkpt>
      <trkpt lat="46.0147" lon="1.30571">
        <ele>393.2</ele>
        <time>2024-04-28T09:58:19Z</time>
      </trkpt>
      <trkpt lat="46.01466" lon="1.30572">
        <ele>393.4</ele>
        <time>2024-04-28T09:58:21Z</time>
      </trkpt>
      <trkpt lat="46.01453" lon="1.30575">
        <ele>394.2</ele>
        <time>2024-04-28T09:58:28Z</time>
      </trkpt>
      <trkpt lat="46.01448" lon="1.30575">
        <ele>394.4</ele>
        <time>2024-04-28T09:58:30Z</time>
      </trkpt>
      <trkpt lat="46.01442" lon="1.30576">
        <ele>395.4</ele>
        <time>2024-04-28T09:58:34Z</time>
      </trkpt>
      <trkpt lat="46.01436" lon="1.30576">
        <ele>396</ele>
        <time>2024-04-28T09:58:37Z</time>
      </trkpt>
      <trkpt lat="46.01424" lon="1.30578">
        <ele>396.4</ele>
        <time>2024-04-28T09:58:42Z</time>
      </trkpt>
      <trkpt lat="46.01418" lon="1.30577">
        <ele>396.6</ele>
        <time>2024-04-28T09:58:44Z</time>
      </trkpt>
      <trkpt lat="46.014" lon="1.30574">
        <ele>397</ele>
        <time>2024-04-28T09:58:50Z</time>
      </trkpt>
      <trkpt lat="46.01373" lon="1.30563">
        <ele>397.6</ele>
        <time>2024-04-28T09:58:58Z</time>
      </trkpt>
      <trkpt lat="46.01356" lon="1.30554">
        <ele>398.4</ele>
        <time>2024-04-28T09:59:04Z</time>
      </trkpt>
      <trkpt lat="46.01352" lon="1.30549">
        <ele>398.8</ele>
        <time>2024-04-28T09:59:06Z</time>
      </trkpt>
      <trkpt lat="46.01347" lon="1.30537">
        <ele>399.6</ele>
        <time>2024-04-28T09:59:10Z</time>
      </trkpt>
      <trkpt lat="46.01341" lon="1.30517">
        <ele>399.6</ele>
        <time>2024-04-28T09:59:15Z</time>
      </trkpt>
      <trkpt lat="46.0133" lon="1.30501">
        <ele>399.4</ele>
        <time>2024-04-28T09:59:19Z</time>
      </trkpt>
      <trkpt lat="46.0132" lon="1.3049">
        <ele>398.2</ele>
        <time>2024-04-28T09:59:23Z</time>
      </trkpt>
      <trkpt lat="46.01314" lon="1.30489">
        <ele>398.2</ele>
        <time>2024-04-28T09:59:25Z</time>
      </trkpt>
      <trkpt lat="46.0131" lon="1.30494">
        <ele>397.8</ele>
        <time>2024-04-28T09:59:27Z</time>
      </trkpt>
      <trkpt lat="46.01301" lon="1.30499">
        <ele>397.6</ele>
        <time>2024-04-28T09:59:30Z</time>
      </trkpt>
      <trkpt lat="46.01298" lon="1.30499">
        <ele>397.6</ele>
        <time>2024-04-28T09:59:31Z</time>
      </trkpt>
      <trkpt lat="46.01285" lon="1.30494">
        <ele>397.2</ele>
        <time>2024-04-28T09:59:35Z</time>
      </trkpt>
      <trkpt lat="46.01281" lon="1.30493">
        <ele>396.6</ele>
        <time>2024-04-28T09:59:36Z</time>
      </trkpt>
      <trkpt lat="46.01272" lon="1.30491">
        <ele>395.6</ele>
        <time>2024-04-28T09:59:38Z</time>
      </trkpt>
      <trkpt lat="46.01266" lon="1.30487">
        <ele>395</ele>
        <time>2024-04-28T09:59:40Z</time>
      </trkpt>
      <trkpt lat="46.01263" lon="1.30487">
        <ele>394.8</ele>
        <time>2024-04-28T09:59:41Z</time>
      </trkpt>
      <trkpt lat="46.01261" lon="1.30486">
        <ele>394.4</ele>
        <time>2024-04-28T09:59:42Z</time>
      </trkpt>
      <trkpt lat="46.01248" lon="1.30489">
        <ele>394</ele>
        <time>2024-04-28T09:59:45Z</time>
      </trkpt>
      <trkpt lat="46.01244" lon="1.30491">
        <ele>394</ele>
        <time>2024-04-28T09:59:46Z</time>
      </trkpt>
      <trkpt lat="46.01234" lon="1.30497">
        <ele>394</ele>
        <time>2024-04-28T09:59:48Z</time>
      </trkpt>
      <trkpt lat="46.0123" lon="1.30502">
        <ele>394</ele>
        <time>2024-04-28T09:59:49Z</time>
      </trkpt>
      <trkpt lat="46.01223" lon="1.30511">
        <ele>393.8</ele>
        <time>2024-04-28T09:59:51Z</time>
      </trkpt>
      <trkpt lat="46.0122" lon="1.30516">
        <ele>393</ele>
        <time>2024-04-28T09:59:52Z</time>
      </trkpt>
      <trkpt lat="46.01213" lon="1.30526">
        <ele>391.8</ele>
        <time>2024-04-28T09:59:54Z</time>
      </trkpt>
      <trkpt lat="46.01206" lon="1.30535">
        <ele>390.8</ele>
        <time>2024-04-28T09:59:56Z</time>
      </trkpt>
      <trkpt lat="46.01203" lon="1.30539">
        <ele>390.2</ele>
        <time>2024-04-28T09:59:57Z</time>
      </trkpt>
      <trkpt lat="46.01195" lon="1.30548">
        <ele>388.4</ele>
        <time>2024-04-28T09:59:59Z</time>
      </trkpt>
      <trkpt lat="46.01184" lon="1.30551">
        <ele>387</ele>
        <time>2024-04-28T10:00:01Z</time>
      </trkpt>
      <trkpt lat="46.01173" lon="1.30552">
        <ele>386.6</ele>
        <time>2024-04-28T10:00:03Z</time>
      </trkpt>
      <trkpt lat="46.01162" lon="1.30557">
        <ele>386.4</ele>
        <time>2024-04-28T10:00:05Z</time>
      </trkpt>
      <trkpt lat="46.01157" lon="1.30561">
        <ele>386</ele>
        <time>2024-04-28T10:00:06Z</time>
      </trkpt>
      <trkpt lat="46.01146" lon="1.30569">
        <ele>385.8</ele>
        <time>2024-04-28T10:00:08Z</time>
      </trkpt>
      <trkpt lat="46.01134" lon="1.30585">
        <ele>385</ele>
        <time>2024-04-28T10:00:11Z</time>
      </trkpt>
      <trkpt lat="46.01123" lon="1.306">
        <ele>384.8</ele>
        <time>2024-04-28T10:00:14Z</time>
      </trkpt>
      <trkpt lat="46.01102" lon="1.3063">
        <ele>385</ele>
        <time>2024-04-28T10:00:21Z</time>
      </trkpt>
      <trkpt lat="46.01083" lon="1.30651">
        <ele>385.4</ele>
        <time>2024-04-28T10:00:26Z</time>
      </trkpt>
      <trkpt lat="46.01075" lon="1.30658">
        <ele>385.4</ele>
        <time>2024-04-28T10:00:28Z</time>
      </trkpt>
      <trkpt lat="46.01051" lon="1.30675">
        <ele>385.4</ele>
        <time>2024-04-28T10:00:34Z</time>
      </trkpt>
      <trkpt lat="46.01034" lon="1.30685">
        <ele>386</ele>
        <time>2024-04-28T10:00:38Z</time>
      </trkpt>
      <trkpt lat="46.0103" lon="1.30687">
        <ele>386.2</ele>
        <time>2024-04-28T10:00:39Z</time>
      </trkpt>
      <trkpt lat="46.01023" lon="1.30692">
        <ele>386.6</ele>
        <time>2024-04-28T10:00:41Z</time>
      </trkpt>
      <trkpt lat="46.01005" lon="1.30706">
        <ele>386.8</ele>
        <time>2024-04-28T10:00:47Z</time>
      </trkpt>
      <trkpt lat="46.00996" lon="1.30711">
        <ele>387.2</ele>
        <time>2024-04-28T10:00:50Z</time>
      </trkpt>
      <trkpt lat="46.00988" lon="1.30716">
        <ele>387.8</ele>
        <time>2024-04-28T10:00:53Z</time>
      </trkpt>
      <trkpt lat="46.00976" lon="1.30723">
        <ele>388.2</ele>
        <time>2024-04-28T10:00:58Z</time>
      </trkpt>
      <trkpt lat="46.00974" lon="1.30725">
        <ele>388.4</ele>
        <time>2024-04-28T10:00:59Z</time>
      </trkpt>
      <trkpt lat="46.00968" lon="1.30726">
        <ele>389</ele>
        <time>2024-04-28T10:01:02Z</time>
      </trkpt>
      <trkpt lat="46.00967" lon="1.30725">
        <ele>389</ele>
        <time>2024-04-28T10:01:03Z</time>
      </trkpt>
      <trkpt lat="46.00962" lon="1.30718">
        <ele>388.2</ele>
        <time>2024-04-28T10:01:07Z</time>
      </trkpt>
      <trkpt lat="46.0096" lon="1.30718">
        <ele>387.6</ele>
        <time>2024-04-28T10:01:09Z</time>
      </trkpt>
      <trkpt lat="46.00959" lon="1.30718">
        <ele>387.4</ele>
        <time>2024-04-28T10:01:11Z</time>
      </trkpt>
      <trkpt lat="46.00956" lon="1.30717">
        <ele>387.4</ele>
        <time>2024-04-28T10:01:22Z</time>
      </trkpt>
      <trkpt lat="46.00955" lon="1.30717">
        <ele>387.2</ele>
        <time>2024-04-28T10:01:37Z</time>
      </trkpt>
      <trkpt lat="46.00954" lon="1.30717">
        <ele>387.2</ele>
        <time>2024-04-28T10:01:55Z</time>
      </trkpt>
      <trkpt lat="46.00954" lon="1.30717">
        <ele>387.2</ele>
        <time>2024-04-28T10:01:57Z</time>
      </trkpt>
      <trkpt lat="46.00954" lon="1.30717">
        <ele>387.2</ele>
        <time>2024-04-28T10:02:12Z</time>
      </trkpt>
      <trkpt lat="46.00954" lon="1.30718">
        <ele>387.4</ele>
        <time>2024-04-28T10:02:21Z</time>
      </trkpt>
      <trkpt lat="46.00952" lon="1.3072">
        <ele>387.4</ele>
        <time>2024-04-28T10:02:35Z</time>
      </trkpt>
      <trkpt lat="46.00953" lon="1.30718">
        <ele>387.4</ele>
        <time>2024-04-28T10:02:48Z</time>
      </trkpt>
      <trkpt lat="46.00952" lon="1.30721">
        <ele>387.4</ele>
        <time>2024-04-28T10:03:01Z</time>
      </trkpt>
      <trkpt lat="46.00951" lon="1.30725">
        <ele>387.4</ele>
        <time>2024-04-28T10:03:12Z</time>
      </trkpt>
      <trkpt lat="46.00955" lon="1.30725">
        <ele>387.4</ele>
        <time>2024-04-28T10:03:23Z</time>
      </trkpt>
      <trkpt lat="46.00955" lon="1.30725">
        <ele>387.4</ele>
        <time>2024-04-28T10:03:28Z</time>
      </trkpt>
      <trkpt lat="46.00954" lon="1.30726">
        <ele>387.4</ele>
        <time>2024-04-28T10:03:46Z</time>
      </trkpt>
      <trkpt lat="46.00954" lon="1.30726">
        <ele>387.4</ele>
        <time>2024-04-28T10:04:06Z</time>
      </trkpt>
      <trkpt lat="46.00954" lon="1.30725">
        <ele>387.4</ele>
        <time>2024-04-28T10:04:25Z</time>
      </trkpt>
      <trkpt lat="46.00954" lon="1.30725">
        <ele>387.4</ele>
        <time>2024-04-28T10:04:44Z</time>
      </trkpt>
      <trkpt lat="46.00954" lon="1.30725">
        <ele>387.4</ele>
        <time>2024-04-28T10:05:23Z</time>
      </trkpt>
      <trkpt lat="46.00953" lon="1.30727">
        <ele>387.4</ele>
        <time>2024-04-28T10:07:03Z</time>
      </trkpt>
      <trkpt lat="46.00953" lon="1.30727">
        <ele>387.4</ele>
        <time>2024-04-28T10:07:44Z</time>
      </trkpt>
      <trkpt lat="46.00954" lon="1.30726">
        <ele>387.4</ele>
        <time>2024-04-28T10:07:48Z</time>
      </trkpt>
      <trkpt lat="46.00955" lon="1.30727">
        <ele>387.4</ele>
        <time>2024-04-28T10:07:51Z</time>
      </trkpt>
      <trkpt lat="46.00956" lon="1.30731">
        <ele>387.6</ele>
        <time>2024-04-28T10:07:59Z</time>
      </trkpt>
      <trkpt lat="46.00957" lon="1.30735">
        <ele>387.6</ele>
        <time>2024-04-28T10:08:01Z</time>
      </trkpt>
      <trkpt lat="46.00957" lon="1.3074">
        <ele>388</ele>
        <time>2024-04-28T10:08:03Z</time>
      </trkpt>
      <trkpt lat="46.00955" lon="1.30742">
        <ele>388.8</ele>
        <time>2024-04-28T10:08:04Z</time>
      </trkpt>
      <trkpt lat="46.00951" lon="1.30746">
        <ele>389.6</ele>
        <time>2024-04-28T10:08:05Z</time>
      </trkpt>
      <trkpt lat="46.00949" lon="1.30749">
        <ele>390</ele>
        <time>2024-04-28T10:08:07Z</time>
      </trkpt>
      <trkpt lat="46.00937" lon="1.30768">
        <ele>391</ele>
        <time>2024-04-28T10:08:13Z</time>
      </trkpt>
      <trkpt lat="46.00926" lon="1.30781">
        <ele>391.8</ele>
        <time>2024-04-28T10:08:18Z</time>
      </trkpt>
      <trkpt lat="46.00916" lon="1.30791">
        <ele>392.2</ele>
        <time>2024-04-28T10:08:23Z</time>
      </trkpt>
      <trkpt lat="46.0091" lon="1.30795">
        <ele>392.6</ele>
        <time>2024-04-28T10:08:25Z</time>
      </trkpt>
      <trkpt lat="46.00885" lon="1.30813">
        <ele>393</ele>
        <time>2024-04-28T10:08:32Z</time>
      </trkpt>
      <trkpt lat="46.00865" lon="1.30833">
        <ele>392.6</ele>
        <time>2024-04-28T10:08:37Z</time>
      </trkpt>
      <trkpt lat="46.00856" lon="1.30841">
        <ele>392.6</ele>
        <time>2024-04-28T10:08:39Z</time>
      </trkpt>
      <trkpt lat="46.00843" lon="1.30851">
        <ele>392.2</ele>
        <time>2024-04-28T10:08:42Z</time>
      </trkpt>
      <trkpt lat="46.0083" lon="1.30861">
        <ele>391.2</ele>
        <time>2024-04-28T10:08:45Z</time>
      </trkpt>
      <trkpt lat="46.0082" lon="1.30868">
        <ele>390.8</ele>
        <time>2024-04-28T10:08:47Z</time>
      </trkpt>
      <trkpt lat="46.00814" lon="1.30872">
        <ele>390.6</ele>
        <time>2024-04-28T10:08:48Z</time>
      </trkpt>
      <trkpt lat="46.00785" lon="1.3089">
        <ele>390</ele>
        <time>2024-04-28T10:08:53Z</time>
      </trkpt>
      <trkpt lat="46.00757" lon="1.30912">
        <ele>388.8</ele>
        <time>2024-04-28T10:08:58Z</time>
      </trkpt>
      <trkpt lat="46.00746" lon="1.30922">
        <ele>387.6</ele>
        <time>2024-04-28T10:09:00Z</time>
      </trkpt>
      <trkpt lat="46.00733" lon="1.30928">
        <ele>386.8</ele>
        <time>2024-04-28T10:09:02Z</time>
      </trkpt>
      <trkpt lat="46.00725" lon="1.3093">
        <ele>386.6</ele>
        <time>2024-04-28T10:09:03Z</time>
      </trkpt>
      <trkpt lat="46.00697" lon="1.30939">
        <ele>385</ele>
        <time>2024-04-28T10:09:06Z</time>
      </trkpt>
      <trkpt lat="46.00678" lon="1.30943">
        <ele>383.8</ele>
        <time>2024-04-28T10:09:08Z</time>
      </trkpt>
      <trkpt lat="46.00664" lon="1.30946">
        <ele>382.4</ele>
        <time>2024-04-28T10:09:10Z</time>
      </trkpt>
      <trkpt lat="46.00656" lon="1.30949">
        <ele>380.8</ele>
        <time>2024-04-28T10:09:12Z</time>
      </trkpt>
      <trkpt lat="46.00654" lon="1.30952">
        <ele>379.6</ele>
        <time>2024-04-28T10:09:13Z</time>
      </trkpt>
      <trkpt lat="46.00652" lon="1.30956">
        <ele>379</ele>
        <time>2024-04-28T10:09:14Z</time>
      </trkpt>
      <trkpt lat="46.00651" lon="1.30966">
        <ele>378.6</ele>
        <time>2024-04-28T10:09:16Z</time>
      </trkpt>
      <trkpt lat="46.00645" lon="1.30972">
        <ele>378.6</ele>
        <time>2024-04-28T10:09:18Z</time>
      </trkpt>
      <trkpt lat="46.0064" lon="1.30972">
        <ele>378.6</ele>
        <time>2024-04-28T10:09:19Z</time>
      </trkpt>
      <trkpt lat="46.00635" lon="1.30971">
        <ele>378.6</ele>
        <time>2024-04-28T10:09:20Z</time>
      </trkpt>
      <trkpt lat="46.00617" lon="1.30966">
        <ele>377.4</ele>
        <time>2024-04-28T10:09:23Z</time>
      </trkpt>
      <trkpt lat="46.00607" lon="1.30969">
        <ele>376.2</ele>
        <time>2024-04-28T10:09:25Z</time>
      </trkpt>
      <trkpt lat="46.00601" lon="1.3097">
        <ele>375.4</ele>
        <time>2024-04-28T10:09:26Z</time>
      </trkpt>
      <trkpt lat="46.00595" lon="1.30972">
        <ele>375</ele>
        <time>2024-04-28T10:09:27Z</time>
      </trkpt>
      <trkpt lat="46.00584" lon="1.30971">
        <ele>374</ele>
        <time>2024-04-28T10:09:29Z</time>
      </trkpt>
      <trkpt lat="46.0058" lon="1.3097">
        <ele>373.4</ele>
        <time>2024-04-28T10:09:30Z</time>
      </trkpt>
      <trkpt lat="46.00575" lon="1.30969">
        <ele>371.8</ele>
        <time>2024-04-28T10:09:31Z</time>
      </trkpt>
      <trkpt lat="46.00566" lon="1.30968">
        <ele>369.8</ele>
        <time>2024-04-28T10:09:33Z</time>
      </trkpt>
      <trkpt lat="46.00556" lon="1.30967">
        <ele>368.4</ele>
        <time>2024-04-28T10:09:35Z</time>
      </trkpt>
      <trkpt lat="46.00553" lon="1.30966">
        <ele>367.8</ele>
        <time>2024-04-28T10:09:36Z</time>
      </trkpt>
      <trkpt lat="46.00551" lon="1.30966">
        <ele>367.4</ele>
        <time>2024-04-28T10:09:37Z</time>
      </trkpt>
      <trkpt lat="46.00545" lon="1.30963">
        <ele>366.4</ele>
        <time>2024-04-28T10:09:41Z</time>
      </trkpt>
      <trkpt lat="46.00544" lon="1.30962">
        <ele>366.2</ele>
        <time>2024-04-28T10:09:42Z</time>
      </trkpt>
      <trkpt lat="46.00542" lon="1.30962">
        <ele>366</ele>
        <time>2024-04-28T10:09:47Z</time>
      </trkpt>
      <trkpt lat="46.0054" lon="1.30966">
        <ele>365.8</ele>
        <time>2024-04-28T10:09:54Z</time>
      </trkpt>
      <trkpt lat="46.00539" lon="1.30966">
        <ele>365.8</ele>
        <time>2024-04-28T10:09:56Z</time>
      </trkpt>
      <trkpt lat="46.00533" lon="1.30963">
        <ele>365.6</ele>
        <time>2024-04-28T10:10:08Z</time>
      </trkpt>
      <trkpt lat="46.00531" lon="1.30956">
        <ele>366</ele>
        <time>2024-04-28T10:10:18Z</time>
      </trkpt>
      <trkpt lat="46.0053" lon="1.30953">
        <ele>366</ele>
        <time>2024-04-28T10:10:19Z</time>
      </trkpt>
      <trkpt lat="46.00528" lon="1.30944">
        <ele>367.2</ele>
        <time>2024-04-28T10:10:23Z</time>
      </trkpt>
      <trkpt lat="46.00525" lon="1.30938">
        <ele>368.2</ele>
        <time>2024-04-28T10:10:26Z</time>
      </trkpt>
      <trkpt lat="46.00524" lon="1.30936">
        <ele>368.4</ele>
        <time>2024-04-28T10:10:27Z</time>
      </trkpt>
      <trkpt lat="46.00523" lon="1.30931">
        <ele>369</ele>
        <time>2024-04-28T10:10:30Z</time>
      </trkpt>
      <trkpt lat="46.00523" lon="1.30929">
        <ele>369.4</ele>
        <time>2024-04-28T10:10:32Z</time>
      </trkpt>
      <trkpt lat="46.00522" lon="1.30928">
        <ele>369.6</ele>
        <time>2024-04-28T10:10:33Z</time>
      </trkpt>
      <trkpt lat="46.0052" lon="1.30925">
        <ele>370.2</ele>
        <time>2024-04-28T10:10:35Z</time>
      </trkpt>
      <trkpt lat="46.00519" lon="1.30924">
        <ele>370.6</ele>
        <time>2024-04-28T10:10:36Z</time>
      </trkpt>
      <trkpt lat="46.00515" lon="1.30925">
        <ele>371.8</ele>
        <time>2024-04-28T10:10:40Z</time>
      </trkpt>
      <trkpt lat="46.00512" lon="1.3093">
        <ele>372.4</ele>
        <time>2024-04-28T10:10:45Z</time>
      </trkpt>
      <trkpt lat="46.0051" lon="1.30935">
        <ele>372.8</ele>
        <time>2024-04-28T10:10:48Z</time>
      </trkpt>
      <trkpt lat="46.00509" lon="1.30938">
        <ele>373.2</ele>
        <time>2024-04-28T10:10:50Z</time>
      </trkpt>
      <trkpt lat="46.00506" lon="1.30945">
        <ele>374</ele>
        <time>2024-04-28T10:10:56Z</time>
      </trkpt>
      <trkpt lat="46.00503" lon="1.30946">
        <ele>375</ele>
        <time>2024-04-28T10:11:00Z</time>
      </trkpt>
      <trkpt lat="46.00503" lon="1.30945">
        <ele>375.2</ele>
        <time>2024-04-28T10:11:01Z</time>
      </trkpt>
      <trkpt lat="46.00503" lon="1.30945">
        <ele>375.6</ele>
        <time>2024-04-28T10:11:02Z</time>
      </trkpt>
      <trkpt lat="46.00502" lon="1.30942">
        <ele>375.8</ele>
        <time>2024-04-28T10:11:04Z</time>
      </trkpt>
      <trkpt lat="46.00501" lon="1.30938">
        <ele>376.4</ele>
        <time>2024-04-28T10:11:07Z</time>
      </trkpt>
      <trkpt lat="46.005" lon="1.30932">
        <ele>376.8</ele>
        <time>2024-04-28T10:11:11Z</time>
      </trkpt>
      <trkpt lat="46.005" lon="1.30925">
        <ele>377.4</ele>
        <time>2024-04-28T10:11:15Z</time>
      </trkpt>
      <trkpt lat="46.00495" lon="1.30913">
        <ele>378.6</ele>
        <time>2024-04-28T10:11:22Z</time>
      </trkpt>
      <trkpt lat="46.00493" lon="1.30911">
        <ele>378.8</ele>
        <time>2024-04-28T10:11:23Z</time>
      </trkpt>
      <trkpt lat="46.00485" lon="1.30899">
        <ele>379.6</ele>
        <time>2024-04-28T10:11:28Z</time>
      </trkpt>
      <trkpt lat="46.00483" lon="1.30896">
        <ele>379.8</ele>
        <time>2024-04-28T10:11:29Z</time>
      </trkpt>
      <trkpt lat="46.00469" lon="1.30883">
        <ele>380</ele>
        <time>2024-04-28T10:11:35Z</time>
      </trkpt>
      <trkpt lat="46.00453" lon="1.30877">
        <ele>379.8</ele>
        <time>2024-04-28T10:11:40Z</time>
      </trkpt>
      <trkpt lat="46.00452" lon="1.30878">
        <ele>379.8</ele>
        <time>2024-04-28T10:11:41Z</time>
      </trkpt>
      <trkpt lat="46.00449" lon="1.30884">
        <ele>380</ele>
        <time>2024-04-28T10:11:44Z</time>
      </trkpt>
      <trkpt lat="46.00444" lon="1.30892">
        <ele>380.8</ele>
        <time>2024-04-28T10:11:49Z</time>
      </trkpt>
      <trkpt lat="46.00442" lon="1.30896">
        <ele>381.6</ele>
        <time>2024-04-28T10:11:52Z</time>
      </trkpt>
      <trkpt lat="46.00441" lon="1.30897">
        <ele>381.8</ele>
        <time>2024-04-28T10:11:53Z</time>
      </trkpt>
      <trkpt lat="46.00436" lon="1.309">
        <ele>383</ele>
        <time>2024-04-28T10:11:56Z</time>
      </trkpt>
      <trkpt lat="46.00435" lon="1.309">
        <ele>383.6</ele>
        <time>2024-04-28T10:11:58Z</time>
      </trkpt>
      <trkpt lat="46.00431" lon="1.30901">
        <ele>384.2</ele>
        <time>2024-04-28T10:12:01Z</time>
      </trkpt>
      <trkpt lat="46.00425" lon="1.30902">
        <ele>384.8</ele>
        <time>2024-04-28T10:12:04Z</time>
      </trkpt>
      <trkpt lat="46.0042" lon="1.30903">
        <ele>385.2</ele>
        <time>2024-04-28T10:12:06Z</time>
      </trkpt>
      <trkpt lat="46.00409" lon="1.3091">
        <ele>385.8</ele>
        <time>2024-04-28T10:12:11Z</time>
      </trkpt>
      <trkpt lat="46.00405" lon="1.30915">
        <ele>386.2</ele>
        <time>2024-04-28T10:12:14Z</time>
      </trkpt>
      <trkpt lat="46.00401" lon="1.30927">
        <ele>387.2</ele>
        <time>2024-04-28T10:12:19Z</time>
      </trkpt>
      <trkpt lat="46.004" lon="1.3093">
        <ele>387.4</ele>
        <time>2024-04-28T10:12:20Z</time>
      </trkpt>
      <trkpt lat="46.00396" lon="1.30948">
        <ele>388.4</ele>
        <time>2024-04-28T10:12:26Z</time>
      </trkpt>
      <trkpt lat="46.00391" lon="1.30969">
        <ele>389.4</ele>
        <time>2024-04-28T10:12:33Z</time>
      </trkpt>
      <trkpt lat="46.00391" lon="1.30981">
        <ele>390.4</ele>
        <time>2024-04-28T10:12:37Z</time>
      </trkpt>
      <trkpt lat="46.00391" lon="1.30986">
        <ele>390.8</ele>
        <time>2024-04-28T10:12:39Z</time>
      </trkpt>
      <trkpt lat="46.00392" lon="1.30998">
        <ele>391</ele>
        <time>2024-04-28T10:12:43Z</time>
      </trkpt>
      <trkpt lat="46.00391" lon="1.31003">
        <ele>391.6</ele>
        <time>2024-04-28T10:12:45Z</time>
      </trkpt>
      <trkpt lat="46.00389" lon="1.31006">
        <ele>391.6</ele>
        <time>2024-04-28T10:12:46Z</time>
      </trkpt>
      <trkpt lat="46.00378" lon="1.31025">
        <ele>392.2</ele>
        <time>2024-04-28T10:12:52Z</time>
      </trkpt>
      <trkpt lat="46.00367" lon="1.31047">
        <ele>392.4</ele>
        <time>2024-04-28T10:12:58Z</time>
      </trkpt>
      <trkpt lat="46.0037" lon="1.31062">
        <ele>392.2</ele>
        <time>2024-04-28T10:13:02Z</time>
      </trkpt>
      <trkpt lat="46.00376" lon="1.31077">
        <ele>392</ele>
        <time>2024-04-28T10:13:07Z</time>
      </trkpt>
      <trkpt lat="46.00383" lon="1.31093">
        <ele>392.6</ele>
        <time>2024-04-28T10:13:11Z</time>
      </trkpt>
      <trkpt lat="46.00391" lon="1.31109">
        <ele>393</ele>
        <time>2024-04-28T10:13:15Z</time>
      </trkpt>
      <trkpt lat="46.00398" lon="1.31119">
        <ele>393.6</ele>
        <time>2024-04-28T10:13:18Z</time>
      </trkpt>
      <trkpt lat="46.00407" lon="1.3113">
        <ele>394.8</ele>
        <time>2024-04-28T10:13:21Z</time>
      </trkpt>
      <trkpt lat="46.00415" lon="1.31151">
        <ele>396</ele>
        <time>2024-04-28T10:13:25Z</time>
      </trkpt>
      <trkpt lat="46.00418" lon="1.31158">
        <ele>396.2</ele>
        <time>2024-04-28T10:13:27Z</time>
      </trkpt>
      <trkpt lat="46.00426" lon="1.31177">
        <ele>396.4</ele>
        <time>2024-04-28T10:13:32Z</time>
      </trkpt>
      <trkpt lat="46.00428" lon="1.3118">
        <ele>396.2</ele>
        <time>2024-04-28T10:13:33Z</time>
      </trkpt>
      <trkpt lat="46.00435" lon="1.31196">
        <ele>396.4</ele>
        <time>2024-04-28T10:13:38Z</time>
      </trkpt>
      <trkpt lat="46.00444" lon="1.31207">
        <ele>396</ele>
        <time>2024-04-28T10:13:43Z</time>
      </trkpt>
      <trkpt lat="46.00451" lon="1.31228">
        <ele>395.6</ele>
        <time>2024-04-28T10:13:49Z</time>
      </trkpt>
      <trkpt lat="46.00456" lon="1.31238">
        <ele>395.4</ele>
        <time>2024-04-28T10:13:53Z</time>
      </trkpt>
      <trkpt lat="46.00456" lon="1.3124">
        <ele>395.4</ele>
        <time>2024-04-28T10:13:54Z</time>
      </trkpt>
      <trkpt lat="46.00462" lon="1.31259">
        <ele>395.6</ele>
        <time>2024-04-28T10:14:00Z</time>
      </trkpt>
      <trkpt lat="46.00465" lon="1.31269">
        <ele>395.6</ele>
        <time>2024-04-28T10:14:03Z</time>
      </trkpt>
      <trkpt lat="46.0047" lon="1.31281">
        <ele>395.6</ele>
        <time>2024-04-28T10:14:06Z</time>
      </trkpt>
      <trkpt lat="46.00482" lon="1.313">
        <ele>397</ele>
        <time>2024-04-28T10:14:11Z</time>
      </trkpt>
      <trkpt lat="46.00484" lon="1.31303">
        <ele>397.2</ele>
        <time>2024-04-28T10:14:12Z</time>
      </trkpt>
      <trkpt lat="46.00489" lon="1.3132">
        <ele>398.2</ele>
        <time>2024-04-28T10:14:16Z</time>
      </trkpt>
      <trkpt lat="46.0049" lon="1.31326">
        <ele>398.2</ele>
        <time>2024-04-28T10:14:17Z</time>
      </trkpt>
      <trkpt lat="46.00491" lon="1.3133">
        <ele>398.4</ele>
        <time>2024-04-28T10:14:18Z</time>
      </trkpt>
      <trkpt lat="46.00498" lon="1.31354">
        <ele>398.8</ele>
        <time>2024-04-28T10:14:24Z</time>
      </trkpt>
      <trkpt lat="46.00506" lon="1.31373">
        <ele>398.8</ele>
        <time>2024-04-28T10:14:30Z</time>
      </trkpt>
      <trkpt lat="46.00517" lon="1.31392">
        <ele>398.4</ele>
        <time>2024-04-28T10:14:34Z</time>
      </trkpt>
      <trkpt lat="46.0052" lon="1.31411">
        <ele>398.2</ele>
        <time>2024-04-28T10:14:38Z</time>
      </trkpt>
      <trkpt lat="46.00518" lon="1.31422">
        <ele>398</ele>
        <time>2024-04-28T10:14:40Z</time>
      </trkpt>
      <trkpt lat="46.00517" lon="1.31442">
        <ele>398.4</ele>
        <time>2024-04-28T10:14:43Z</time>
      </trkpt>
      <trkpt lat="46.00514" lon="1.3146">
        <ele>398.6</ele>
        <time>2024-04-28T10:14:46Z</time>
      </trkpt>
      <trkpt lat="46.00511" lon="1.3147">
        <ele>398.6</ele>
        <time>2024-04-28T10:14:48Z</time>
      </trkpt>
      <trkpt lat="46.00493" lon="1.31499">
        <ele>398.8</ele>
        <time>2024-04-28T10:14:55Z</time>
      </trkpt>
      <trkpt lat="46.0049" lon="1.31503">
        <ele>398.8</ele>
        <time>2024-04-28T10:14:56Z</time>
      </trkpt>
      <trkpt lat="46.00486" lon="1.31506">
        <ele>399</ele>
        <time>2024-04-28T10:14:57Z</time>
      </trkpt>
      <trkpt lat="46.00471" lon="1.31518">
        <ele>399.4</ele>
        <time>2024-04-28T10:15:02Z</time>
      </trkpt>
      <trkpt lat="46.00469" lon="1.31519">
        <ele>399.6</ele>
        <time>2024-04-28T10:15:03Z</time>
      </trkpt>
      <trkpt lat="46.00457" lon="1.31529">
        <ele>400.2</ele>
        <time>2024-04-28T10:15:08Z</time>
      </trkpt>
      <trkpt lat="46.00455" lon="1.3153">
        <ele>400.6</ele>
        <time>2024-04-28T10:15:09Z</time>
      </trkpt>
      <trkpt lat="46.00444" lon="1.31537">
        <ele>401.8</ele>
        <time>2024-04-28T10:15:13Z</time>
      </trkpt>
      <trkpt lat="46.00442" lon="1.31539">
        <ele>402</ele>
        <time>2024-04-28T10:15:14Z</time>
      </trkpt>
      <trkpt lat="46.00428" lon="1.31554">
        <ele>402.4</ele>
        <time>2024-04-28T10:15:20Z</time>
      </trkpt>
      <trkpt lat="46.00425" lon="1.31559">
        <ele>402.8</ele>
        <time>2024-04-28T10:15:22Z</time>
      </trkpt>
      <trkpt lat="46.00417" lon="1.31569">
        <ele>403.4</ele>
        <time>2024-04-28T10:15:26Z</time>
      </trkpt>
      <trkpt lat="46.00409" lon="1.31577">
        <ele>404</ele>
        <time>2024-04-28T10:15:30Z</time>
      </trkpt>
      <trkpt lat="46.00403" lon="1.31584">
        <ele>404.2</ele>
        <time>2024-04-28T10:15:33Z</time>
      </trkpt>
      <trkpt lat="46.00395" lon="1.31592">
        <ele>405.2</ele>
        <time>2024-04-28T10:15:37Z</time>
      </trkpt>
      <trkpt lat="46.00391" lon="1.31595">
        <ele>405.6</ele>
        <time>2024-04-28T10:15:39Z</time>
      </trkpt>
      <trkpt lat="46.0038" lon="1.31602">
        <ele>406.2</ele>
        <time>2024-04-28T10:15:44Z</time>
      </trkpt>
      <trkpt lat="46.00374" lon="1.31604">
        <ele>406.6</ele>
        <time>2024-04-28T10:15:47Z</time>
      </trkpt>
      <trkpt lat="46.00365" lon="1.31607">
        <ele>407.2</ele>
        <time>2024-04-28T10:15:52Z</time>
      </trkpt>
      <trkpt lat="46.00358" lon="1.31611">
        <ele>408</ele>
        <time>2024-04-28T10:15:55Z</time>
      </trkpt>
      <trkpt lat="46.00355" lon="1.31612">
        <ele>408.4</ele>
        <time>2024-04-28T10:15:56Z</time>
      </trkpt>
      <trkpt lat="46.00353" lon="1.31613">
        <ele>408.6</ele>
        <time>2024-04-28T10:15:57Z</time>
      </trkpt>
      <trkpt lat="46.00344" lon="1.31614">
        <ele>409.2</ele>
        <time>2024-04-28T10:16:01Z</time>
      </trkpt>
      <trkpt lat="46.00329" lon="1.31613">
        <ele>409.4</ele>
        <time>2024-04-28T10:16:07Z</time>
      </trkpt>
      <trkpt lat="46.00321" lon="1.31603">
        <ele>410.4</ele>
        <time>2024-04-28T10:16:13Z</time>
      </trkpt>
      <trkpt lat="46.0032" lon="1.31601">
        <ele>410.4</ele>
        <time>2024-04-28T10:16:14Z</time>
      </trkpt>
      <trkpt lat="46.0032" lon="1.3159">
        <ele>411.2</ele>
        <time>2024-04-28T10:16:18Z</time>
      </trkpt>
      <trkpt lat="46.00321" lon="1.31587">
        <ele>411.6</ele>
        <time>2024-04-28T10:16:19Z</time>
      </trkpt>
      <trkpt lat="46.00317" lon="1.31574">
        <ele>412</ele>
        <time>2024-04-28T10:16:24Z</time>
      </trkpt>
      <trkpt lat="46.00315" lon="1.31569">
        <ele>412</ele>
        <time>2024-04-28T10:16:26Z</time>
      </trkpt>
      <trkpt lat="46.0031" lon="1.31559">
        <ele>412.2</ele>
        <time>2024-04-28T10:16:29Z</time>
      </trkpt>
      <trkpt lat="46.00301" lon="1.31541">
        <ele>412</ele>
        <time>2024-04-28T10:16:33Z</time>
      </trkpt>
      <trkpt lat="46.00296" lon="1.3153">
        <ele>412</ele>
        <time>2024-04-28T10:16:36Z</time>
      </trkpt>
      <trkpt lat="46.0029" lon="1.31523">
        <ele>411.6</ele>
        <time>2024-04-28T10:16:38Z</time>
      </trkpt>
      <trkpt lat="46.00273" lon="1.31505">
        <ele>411</ele>
        <time>2024-04-28T10:16:44Z</time>
      </trkpt>
      <trkpt lat="46.00271" lon="1.31504">
        <ele>411</ele>
        <time>2024-04-28T10:16:45Z</time>
      </trkpt>
      <trkpt lat="46.00261" lon="1.315">
        <ele>411</ele>
        <time>2024-04-28T10:16:48Z</time>
      </trkpt>
      <trkpt lat="46.00246" lon="1.31499">
        <ele>411.4</ele>
        <time>2024-04-28T10:16:52Z</time>
      </trkpt>
      <trkpt lat="46.00238" lon="1.31502">
        <ele>411.2</ele>
        <time>2024-04-28T10:16:54Z</time>
      </trkpt>
      <trkpt lat="46.00234" lon="1.31509">
        <ele>411.6</ele>
        <time>2024-04-28T10:16:56Z</time>
      </trkpt>
      <trkpt lat="46.00225" lon="1.3152">
        <ele>412</ele>
        <time>2024-04-28T10:17:01Z</time>
      </trkpt>
      <trkpt lat="46.00213" lon="1.3153">
        <ele>412.2</ele>
        <time>2024-04-28T10:17:06Z</time>
      </trkpt>
      <trkpt lat="46.00199" lon="1.31538">
        <ele>411.2</ele>
        <time>2024-04-28T10:17:10Z</time>
      </trkpt>
      <trkpt lat="46.00194" lon="1.3154">
        <ele>410.8</ele>
        <time>2024-04-28T10:17:11Z</time>
      </trkpt>
      <trkpt lat="46.0019" lon="1.31544">
        <ele>410.6</ele>
        <time>2024-04-28T10:17:12Z</time>
      </trkpt>
      <trkpt lat="46.00177" lon="1.31553">
        <ele>409.4</ele>
        <time>2024-04-28T10:17:15Z</time>
      </trkpt>
      <trkpt lat="46.00167" lon="1.3156">
        <ele>408.8</ele>
        <time>2024-04-28T10:17:17Z</time>
      </trkpt>
      <trkpt lat="46.00162" lon="1.31564">
        <ele>408.8</ele>
        <time>2024-04-28T10:17:18Z</time>
      </trkpt>
      <trkpt lat="46.00151" lon="1.31569">
        <ele>408.4</ele>
        <time>2024-04-28T10:17:20Z</time>
      </trkpt>
      <trkpt lat="46.00145" lon="1.31571">
        <ele>407.8</ele>
        <time>2024-04-28T10:17:21Z</time>
      </trkpt>
      <trkpt lat="46.0014" lon="1.31574">
        <ele>407.4</ele>
        <time>2024-04-28T10:17:22Z</time>
      </trkpt>
      <trkpt lat="46.00136" lon="1.31577">
        <ele>407</ele>
        <time>2024-04-28T10:17:23Z</time>
      </trkpt>
      <trkpt lat="46.00126" lon="1.31588">
        <ele>407</ele>
        <time>2024-04-28T10:17:26Z</time>
      </trkpt>
      <trkpt lat="46.00111" lon="1.3161">
        <ele>406.8</ele>
        <time>2024-04-28T10:17:30Z</time>
      </trkpt>
      <trkpt lat="46.00103" lon="1.31618">
        <ele>407</ele>
        <time>2024-04-28T10:17:32Z</time>
      </trkpt>
      <trkpt lat="46.0008" lon="1.31635">
        <ele>407.4</ele>
        <time>2024-04-28T10:17:37Z</time>
      </trkpt>
      <trkpt lat="46.00071" lon="1.3164">
        <ele>407.6</ele>
        <time>2024-04-28T10:17:39Z</time>
      </trkpt>
      <trkpt lat="46.00058" lon="1.31647">
        <ele>408.2</ele>
        <time>2024-04-28T10:17:42Z</time>
      </trkpt>
      <trkpt lat="46.00055" lon="1.3165">
        <ele>408.2</ele>
        <time>2024-04-28T10:17:43Z</time>
      </trkpt>
      <trkpt lat="46.00048" lon="1.31655">
        <ele>408.2</ele>
        <time>2024-04-28T10:17:45Z</time>
      </trkpt>
      <trkpt lat="46.00037" lon="1.31663">
        <ele>407</ele>
        <time>2024-04-28T10:17:48Z</time>
      </trkpt>
      <trkpt lat="46.00033" lon="1.31667">
        <ele>406.6</ele>
        <time>2024-04-28T10:17:49Z</time>
      </trkpt>
      <trkpt lat="46.00024" lon="1.31674">
        <ele>406</ele>
        <time>2024-04-28T10:17:51Z</time>
      </trkpt>
      <trkpt lat="46.00019" lon="1.31677">
        <ele>405.6</ele>
        <time>2024-04-28T10:17:52Z</time>
      </trkpt>
      <trkpt lat="46.00016" lon="1.31681">
        <ele>405.2</ele>
        <time>2024-04-28T10:17:53Z</time>
      </trkpt>
      <trkpt lat="46.00012" lon="1.31689">
        <ele>404.6</ele>
        <time>2024-04-28T10:17:55Z</time>
      </trkpt>
      <trkpt lat="46.0001" lon="1.31694">
        <ele>404.4</ele>
        <time>2024-04-28T10:17:56Z</time>
      </trkpt>
      <trkpt lat="46.00004" lon="1.31705">
        <ele>403.2</ele>
        <time>2024-04-28T10:17:58Z</time>
      </trkpt>
      <trkpt lat="45.99996" lon="1.31724">
        <ele>402.4</ele>
        <time>2024-04-28T10:18:01Z</time>
      </trkpt>
      <trkpt lat="45.99994" lon="1.31731">
        <ele>402</ele>
        <time>2024-04-28T10:18:02Z</time>
      </trkpt>
      <trkpt lat="45.9999" lon="1.31752">
        <ele>400.8</ele>
        <time>2024-04-28T10:18:05Z</time>
      </trkpt>
      <trkpt lat="45.9999" lon="1.31759">
        <ele>400.2</ele>
        <time>2024-04-28T10:18:06Z</time>
      </trkpt>
      <trkpt lat="45.99987" lon="1.31775">
        <ele>399.6</ele>
        <time>2024-04-28T10:18:08Z</time>
      </trkpt>
      <trkpt lat="45.9998" lon="1.31791">
        <ele>399.4</ele>
        <time>2024-04-28T10:18:10Z</time>
      </trkpt>
      <trkpt lat="45.99961" lon="1.3183">
        <ele>399</ele>
        <time>2024-04-28T10:18:15Z</time>
      </trkpt>
      <trkpt lat="45.99957" lon="1.31839">
        <ele>399</ele>
        <time>2024-04-28T10:18:16Z</time>
      </trkpt>
      <trkpt lat="45.99946" lon="1.31854">
        <ele>399</ele>
        <time>2024-04-28T10:18:18Z</time>
      </trkpt>
      <trkpt lat="45.99937" lon="1.31862">
        <ele>399</ele>
        <time>2024-04-28T10:18:20Z</time>
      </trkpt>
      <trkpt lat="45.99929" lon="1.31864">
        <ele>398.8</ele>
        <time>2024-04-28T10:18:22Z</time>
      </trkpt>
      <trkpt lat="45.99921" lon="1.31863">
        <ele>398.4</ele>
        <time>2024-04-28T10:18:24Z</time>
      </trkpt>
      <trkpt lat="45.99914" lon="1.31857">
        <ele>398</ele>
        <time>2024-04-28T10:18:26Z</time>
      </trkpt>
      <trkpt lat="45.99908" lon="1.31848">
        <ele>397.8</ele>
        <time>2024-04-28T10:18:28Z</time>
      </trkpt>
      <trkpt lat="45.99902" lon="1.31831">
        <ele>397.2</ele>
        <time>2024-04-28T10:18:31Z</time>
      </trkpt>
      <trkpt lat="45.99899" lon="1.31826">
        <ele>397.4</ele>
        <time>2024-04-28T10:18:32Z</time>
      </trkpt>
      <trkpt lat="45.99895" lon="1.31822">
        <ele>397.4</ele>
        <time>2024-04-28T10:18:33Z</time>
      </trkpt>
      <trkpt lat="45.99892" lon="1.31818">
        <ele>397.4</ele>
        <time>2024-04-28T10:18:34Z</time>
      </trkpt>
      <trkpt lat="45.99883" lon="1.31814">
        <ele>397.4</ele>
        <time>2024-04-28T10:18:36Z</time>
      </trkpt>
      <trkpt lat="45.99879" lon="1.31812">
        <ele>397.4</ele>
        <time>2024-04-28T10:18:37Z</time>
      </trkpt>
      <trkpt lat="45.99874" lon="1.31811">
        <ele>397.4</ele>
        <time>2024-04-28T10:18:38Z</time>
      </trkpt>
      <trkpt lat="45.99855" lon="1.3181">
        <ele>397.6</ele>
        <time>2024-04-28T10:18:42Z</time>
      </trkpt>
      <trkpt lat="45.99842" lon="1.31813">
        <ele>398.4</ele>
        <time>2024-04-28T10:18:45Z</time>
      </trkpt>
      <trkpt lat="45.99832" lon="1.31818">
        <ele>398.4</ele>
        <time>2024-04-28T10:18:48Z</time>
      </trkpt>
      <trkpt lat="45.99816" lon="1.31835">
        <ele>398.4</ele>
        <time>2024-04-28T10:18:52Z</time>
      </trkpt>
      <trkpt lat="45.99799" lon="1.31852">
        <ele>399.6</ele>
        <time>2024-04-28T10:18:57Z</time>
      </trkpt>
      <trkpt lat="45.99795" lon="1.31858">
        <ele>399.2</ele>
        <time>2024-04-28T10:18:59Z</time>
      </trkpt>
      <trkpt lat="45.99791" lon="1.31874">
        <ele>400</ele>
        <time>2024-04-28T10:19:03Z</time>
      </trkpt>
      <trkpt lat="45.99792" lon="1.31877">
        <ele>400</ele>
        <time>2024-04-28T10:19:04Z</time>
      </trkpt>
      <trkpt lat="45.99795" lon="1.31885">
        <ele>400.6</ele>
        <time>2024-04-28T10:19:07Z</time>
      </trkpt>
      <trkpt lat="45.99797" lon="1.31888">
        <ele>401</ele>
        <time>2024-04-28T10:19:09Z</time>
      </trkpt>
      <trkpt lat="45.99801" lon="1.31895">
        <ele>401.6</ele>
        <time>2024-04-28T10:19:13Z</time>
      </trkpt>
      <trkpt lat="45.99804" lon="1.319">
        <ele>402.4</ele>
        <time>2024-04-28T10:19:17Z</time>
      </trkpt>
      <trkpt lat="45.99804" lon="1.31903">
        <ele>402.8</ele>
        <time>2024-04-28T10:19:19Z</time>
      </trkpt>
      <trkpt lat="45.99808" lon="1.31909">
        <ele>403</ele>
        <time>2024-04-28T10:19:24Z</time>
      </trkpt>
      <trkpt lat="45.99814" lon="1.31918">
        <ele>403.8</ele>
        <time>2024-04-28T10:19:29Z</time>
      </trkpt>
      <trkpt lat="45.99817" lon="1.31923">
        <ele>404</ele>
        <time>2024-04-28T10:19:31Z</time>
      </trkpt>
      <trkpt lat="45.99822" lon="1.31933">
        <ele>405</ele>
        <time>2024-04-28T10:19:35Z</time>
      </trkpt>
      <trkpt lat="45.99829" lon="1.31944">
        <ele>405.8</ele>
        <time>2024-04-28T10:19:39Z</time>
      </trkpt>
      <trkpt lat="45.99831" lon="1.31946">
        <ele>405.8</ele>
        <time>2024-04-28T10:19:40Z</time>
      </trkpt>
      <trkpt lat="45.99833" lon="1.31949">
        <ele>406</ele>
        <time>2024-04-28T10:19:41Z</time>
      </trkpt>
      <trkpt lat="45.99845" lon="1.31964">
        <ele>407</ele>
        <time>2024-04-28T10:19:48Z</time>
      </trkpt>
      <trkpt lat="45.9985" lon="1.3197">
        <ele>407.4</ele>
        <time>2024-04-28T10:19:51Z</time>
      </trkpt>
      <trkpt lat="45.9986" lon="1.31985">
        <ele>407.6</ele>
        <time>2024-04-28T10:19:57Z</time>
      </trkpt>
      <trkpt lat="45.99869" lon="1.31996">
        <ele>408.2</ele>
        <time>2024-04-28T10:20:02Z</time>
      </trkpt>
      <trkpt lat="45.99872" lon="1.32">
        <ele>408.6</ele>
        <time>2024-04-28T10:20:04Z</time>
      </trkpt>
      <trkpt lat="45.99878" lon="1.32008">
        <ele>409.2</ele>
        <time>2024-04-28T10:20:07Z</time>
      </trkpt>
      <trkpt lat="45.99885" lon="1.32018">
        <ele>409.6</ele>
        <time>2024-04-28T10:20:11Z</time>
      </trkpt>
      <trkpt lat="45.99892" lon="1.32032">
        <ele>410.4</ele>
        <time>2024-04-28T10:20:17Z</time>
      </trkpt>
      <trkpt lat="45.99905" lon="1.32052">
        <ele>411.2</ele>
        <time>2024-04-28T10:20:26Z</time>
      </trkpt>
      <trkpt lat="45.99907" lon="1.32055">
        <ele>411.4</ele>
        <time>2024-04-28T10:20:28Z</time>
      </trkpt>
      <trkpt lat="45.99909" lon="1.32065">
        <ele>412.6</ele>
        <time>2024-04-28T10:20:33Z</time>
      </trkpt>
      <trkpt lat="45.99912" lon="1.32078">
        <ele>413.6</ele>
        <time>2024-04-28T10:20:38Z</time>
      </trkpt>
      <trkpt lat="45.99913" lon="1.32081">
        <ele>413.8</ele>
        <time>2024-04-28T10:20:39Z</time>
      </trkpt>
      <trkpt lat="45.99921" lon="1.32097">
        <ele>414.8</ele>
        <time>2024-04-28T10:20:47Z</time>
      </trkpt>
      <trkpt lat="45.99923" lon="1.32099">
        <ele>415.2</ele>
        <time>2024-04-28T10:20:49Z</time>
      </trkpt>
      <trkpt lat="45.99926" lon="1.32103">
        <ele>415.8</ele>
        <time>2024-04-28T10:20:52Z</time>
      </trkpt>
      <trkpt lat="45.99931" lon="1.32109">
        <ele>416.2</ele>
        <time>2024-04-28T10:20:55Z</time>
      </trkpt>
      <trkpt lat="45.99935" lon="1.32111">
        <ele>417</ele>
        <time>2024-04-28T10:20:57Z</time>
      </trkpt>
      <trkpt lat="45.99944" lon="1.32113">
        <ele>418</ele>
        <time>2024-04-28T10:21:03Z</time>
      </trkpt>
      <trkpt lat="45.99955" lon="1.32113">
        <ele>419</ele>
        <time>2024-04-28T10:21:11Z</time>
      </trkpt>
      <trkpt lat="45.99956" lon="1.32113">
        <ele>419.2</ele>
        <time>2024-04-28T10:21:12Z</time>
      </trkpt>
      <trkpt lat="45.99966" lon="1.32115">
        <ele>420.4</ele>
        <time>2024-04-28T10:21:18Z</time>
      </trkpt>
      <trkpt lat="45.99971" lon="1.32115">
        <ele>421</ele>
        <time>2024-04-28T10:21:21Z</time>
      </trkpt>
      <trkpt lat="45.99974" lon="1.32116">
        <ele>421.4</ele>
        <time>2024-04-28T10:21:23Z</time>
      </trkpt>
      <trkpt lat="45.99981" lon="1.32117">
        <ele>422.2</ele>
        <time>2024-04-28T10:21:29Z</time>
      </trkpt>
      <trkpt lat="45.99987" lon="1.32117">
        <ele>422.4</ele>
        <time>2024-04-28T10:21:33Z</time>
      </trkpt>
      <trkpt lat="45.99992" lon="1.32117">
        <ele>423.2</ele>
        <time>2024-04-28T10:21:36Z</time>
      </trkpt>
      <trkpt lat="45.99996" lon="1.32117">
        <ele>423.4</ele>
        <time>2024-04-28T10:21:38Z</time>
      </trkpt>
      <trkpt lat="46.00005" lon="1.32115">
        <ele>424.4</ele>
        <time>2024-04-28T10:21:43Z</time>
      </trkpt>
      <trkpt lat="46.0001" lon="1.3211">
        <ele>424.6</ele>
        <time>2024-04-28T10:21:46Z</time>
      </trkpt>
      <trkpt lat="46.00014" lon="1.32106">
        <ele>425.4</ele>
        <time>2024-04-28T10:21:49Z</time>
      </trkpt>
      <trkpt lat="46.00015" lon="1.32105">
        <ele>425.6</ele>
        <time>2024-04-28T10:21:50Z</time>
      </trkpt>
      <trkpt lat="46.00024" lon="1.32096">
        <ele>426.6</ele>
        <time>2024-04-28T10:21:57Z</time>
      </trkpt>
      <trkpt lat="46.00026" lon="1.32096">
        <ele>427</ele>
        <time>2024-04-28T10:21:58Z</time>
      </trkpt>
      <trkpt lat="46.00034" lon="1.3209">
        <ele>428</ele>
        <time>2024-04-28T10:22:04Z</time>
      </trkpt>
      <trkpt lat="46.00035" lon="1.32089">
        <ele>428.2</ele>
        <time>2024-04-28T10:22:05Z</time>
      </trkpt>
      <trkpt lat="46.00046" lon="1.32083">
        <ele>429</ele>
        <time>2024-04-28T10:22:12Z</time>
      </trkpt>
      <trkpt lat="46.00048" lon="1.32082">
        <ele>429.4</ele>
        <time>2024-04-28T10:22:13Z</time>
      </trkpt>
      <trkpt lat="46.00063" lon="1.32078">
        <ele>430.4</ele>
        <time>2024-04-28T10:22:20Z</time>
      </trkpt>
      <trkpt lat="46.00065" lon="1.32078">
        <ele>430.8</ele>
        <time>2024-04-28T10:22:21Z</time>
      </trkpt>
      <trkpt lat="46.00078" lon="1.32071">
        <ele>431.4</ele>
        <time>2024-04-28T10:22:28Z</time>
      </trkpt>
      <trkpt lat="46.00079" lon="1.32069">
        <ele>431.6</ele>
        <time>2024-04-28T10:22:29Z</time>
      </trkpt>
      <trkpt lat="46.00092" lon="1.3206">
        <ele>432.6</ele>
        <time>2024-04-28T10:22:35Z</time>
      </trkpt>
      <trkpt lat="46.00095" lon="1.32058">
        <ele>432.8</ele>
        <time>2024-04-28T10:22:36Z</time>
      </trkpt>
      <trkpt lat="46.00108" lon="1.3205">
        <ele>433.2</ele>
        <time>2024-04-28T10:22:41Z</time>
      </trkpt>
      <trkpt lat="46.00119" lon="1.32039">
        <ele>434</ele>
        <time>2024-04-28T10:22:47Z</time>
      </trkpt>
      <trkpt lat="46.00132" lon="1.32033">
        <ele>434.8</ele>
        <time>2024-04-28T10:22:54Z</time>
      </trkpt>
      <trkpt lat="46.00137" lon="1.32032">
        <ele>435</ele>
        <time>2024-04-28T10:22:56Z</time>
      </trkpt>
      <trkpt lat="46.00145" lon="1.32029">
        <ele>435.6</ele>
        <time>2024-04-28T10:23:00Z</time>
      </trkpt>
      <trkpt lat="46.00156" lon="1.3203">
        <ele>436</ele>
        <time>2024-04-28T10:23:05Z</time>
      </trkpt>
      <trkpt lat="46.00158" lon="1.32032">
        <ele>436</ele>
        <time>2024-04-28T10:23:06Z</time>
      </trkpt>
      <trkpt lat="46.00177" lon="1.32049">
        <ele>435.6</ele>
        <time>2024-04-28T10:23:12Z</time>
      </trkpt>
      <trkpt lat="46.00201" lon="1.32071">
        <ele>435.4</ele>
        <time>2024-04-28T10:23:19Z</time>
      </trkpt>
      <trkpt lat="46.0021" lon="1.32089">
        <ele>435</ele>
        <time>2024-04-28T10:23:24Z</time>
      </trkpt>
      <trkpt lat="46.00212" lon="1.32093">
        <ele>434.6</ele>
        <time>2024-04-28T10:23:25Z</time>
      </trkpt>
      <trkpt lat="46.00213" lon="1.32097">
        <ele>434.4</ele>
        <time>2024-04-28T10:23:26Z</time>
      </trkpt>
      <trkpt lat="46.00215" lon="1.32105">
        <ele>434</ele>
        <time>2024-04-28T10:23:28Z</time>
      </trkpt>
      <trkpt lat="46.00216" lon="1.32115">
        <ele>433.4</ele>
        <time>2024-04-28T10:23:30Z</time>
      </trkpt>
      <trkpt lat="46.00218" lon="1.32128">
        <ele>433</ele>
        <time>2024-04-28T10:23:32Z</time>
      </trkpt>
      <trkpt lat="46.00221" lon="1.32151">
        <ele>432.6</ele>
        <time>2024-04-28T10:23:35Z</time>
      </trkpt>
      <trkpt lat="46.00222" lon="1.32158">
        <ele>432.6</ele>
        <time>2024-04-28T10:23:36Z</time>
      </trkpt>
      <trkpt lat="46.00222" lon="1.3222">
        <ele>432.8</ele>
        <time>2024-04-28T10:23:43Z</time>
      </trkpt>
      <trkpt lat="46.00222" lon="1.32229">
        <ele>433</ele>
        <time>2024-04-28T10:23:44Z</time>
      </trkpt>
      <trkpt lat="46.00224" lon="1.32258">
        <ele>434</ele>
        <time>2024-04-28T10:23:48Z</time>
      </trkpt>
      <trkpt lat="46.00224" lon="1.32278">
        <ele>435.2</ele>
        <time>2024-04-28T10:23:51Z</time>
      </trkpt>
      <trkpt lat="46.00223" lon="1.3229">
        <ele>436</ele>
        <time>2024-04-28T10:23:53Z</time>
      </trkpt>
      <trkpt lat="46.00222" lon="1.32296">
        <ele>436.4</ele>
        <time>2024-04-28T10:23:54Z</time>
      </trkpt>
      <trkpt lat="46.00218" lon="1.32309">
        <ele>437</ele>
        <time>2024-04-28T10:23:57Z</time>
      </trkpt>
      <trkpt lat="46.00215" lon="1.32319">
        <ele>437.4</ele>
        <time>2024-04-28T10:23:59Z</time>
      </trkpt>
      <trkpt lat="46.00213" lon="1.32324">
        <ele>437.6</ele>
        <time>2024-04-28T10:24:00Z</time>
      </trkpt>
      <trkpt lat="46.00205" lon="1.32346">
        <ele>438.4</ele>
        <time>2024-04-28T10:24:05Z</time>
      </trkpt>
      <trkpt lat="46.00204" lon="1.32351">
        <ele>438.6</ele>
        <time>2024-04-28T10:24:06Z</time>
      </trkpt>
      <trkpt lat="46.00194" lon="1.32373">
        <ele>439.4</ele>
        <time>2024-04-28T10:24:12Z</time>
      </trkpt>
      <trkpt lat="46.00193" lon="1.32376">
        <ele>439.4</ele>
        <time>2024-04-28T10:24:13Z</time>
      </trkpt>
      <trkpt lat="46.00185" lon="1.32389">
        <ele>439.8</ele>
        <time>2024-04-28T10:24:17Z</time>
      </trkpt>
      <trkpt lat="46.0018" lon="1.32399">
        <ele>440</ele>
        <time>2024-04-28T10:24:20Z</time>
      </trkpt>
      <trkpt lat="46.00165" lon="1.32426">
        <ele>440.2</ele>
        <time>2024-04-28T10:24:27Z</time>
      </trkpt>
      <trkpt lat="46.0016" lon="1.32442">
        <ele>440.8</ele>
        <time>2024-04-28T10:24:31Z</time>
      </trkpt>
      <trkpt lat="46.00158" lon="1.32446">
        <ele>440.8</ele>
        <time>2024-04-28T10:24:32Z</time>
      </trkpt>
      <trkpt lat="46.00154" lon="1.32471">
        <ele>441.4</ele>
        <time>2024-04-28T10:24:38Z</time>
      </trkpt>
      <trkpt lat="46.00156" lon="1.32493">
        <ele>441.8</ele>
        <time>2024-04-28T10:24:43Z</time>
      </trkpt>
      <trkpt lat="46.00157" lon="1.32498">
        <ele>441.8</ele>
        <time>2024-04-28T10:24:44Z</time>
      </trkpt>
      <trkpt lat="46.00161" lon="1.32508">
        <ele>442.6</ele>
        <time>2024-04-28T10:24:48Z</time>
      </trkpt>
      <trkpt lat="46.00161" lon="1.32509">
        <ele>442.6</ele>
        <time>2024-04-28T10:24:49Z</time>
      </trkpt>
      <trkpt lat="46.00162" lon="1.3251">
        <ele>442.6</ele>
        <time>2024-04-28T10:24:50Z</time>
      </trkpt>
      <trkpt lat="46.00163" lon="1.32512">
        <ele>442.8</ele>
        <time>2024-04-28T10:24:51Z</time>
      </trkpt>
      <trkpt lat="46.00166" lon="1.32519">
        <ele>443.6</ele>
        <time>2024-04-28T10:24:56Z</time>
      </trkpt>
      <trkpt lat="46.00166" lon="1.32521">
        <ele>444.2</ele>
        <time>2024-04-28T10:24:57Z</time>
      </trkpt>
      <trkpt lat="46.00171" lon="1.32529">
        <ele>445.2</ele>
        <time>2024-04-28T10:25:01Z</time>
      </trkpt>
      <trkpt lat="46.00173" lon="1.32532">
        <ele>445.6</ele>
        <time>2024-04-28T10:25:03Z</time>
      </trkpt>
      <trkpt lat="46.00176" lon="1.32536">
        <ele>446.4</ele>
        <time>2024-04-28T10:25:05Z</time>
      </trkpt>
      <trkpt lat="46.00183" lon="1.32547">
        <ele>447.2</ele>
        <time>2024-04-28T10:25:09Z</time>
      </trkpt>
      <trkpt lat="46.00185" lon="1.32548">
        <ele>447.4</ele>
        <time>2024-04-28T10:25:10Z</time>
      </trkpt>
      <trkpt lat="46.00192" lon="1.32562">
        <ele>448.4</ele>
        <time>2024-04-28T10:25:15Z</time>
      </trkpt>
      <trkpt lat="46.00199" lon="1.32581">
        <ele>449.6</ele>
        <time>2024-04-28T10:25:22Z</time>
      </trkpt>
      <trkpt lat="46.00203" lon="1.32599">
        <ele>450.2</ele>
        <time>2024-04-28T10:25:28Z</time>
      </trkpt>
      <trkpt lat="46.00205" lon="1.32607">
        <ele>450.6</ele>
        <time>2024-04-28T10:25:31Z</time>
      </trkpt>
      <trkpt lat="46.00208" lon="1.32618">
        <ele>451</ele>
        <time>2024-04-28T10:25:35Z</time>
      </trkpt>
      <trkpt lat="46.00217" lon="1.32635">
        <ele>451.6</ele>
        <time>2024-04-28T10:25:41Z</time>
      </trkpt>
      <trkpt lat="46.00218" lon="1.32638">
        <ele>451.8</ele>
        <time>2024-04-28T10:25:42Z</time>
      </trkpt>
      <trkpt lat="46.00227" lon="1.32658">
        <ele>452</ele>
        <time>2024-04-28T10:25:48Z</time>
      </trkpt>
      <trkpt lat="46.00229" lon="1.32661">
        <ele>452</ele>
        <time>2024-04-28T10:25:49Z</time>
      </trkpt>
      <trkpt lat="46.00243" lon="1.32671">
        <ele>452.2</ele>
        <time>2024-04-28T10:25:54Z</time>
      </trkpt>
      <trkpt lat="46.00265" lon="1.3268">
        <ele>451.6</ele>
        <time>2024-04-28T10:26:00Z</time>
      </trkpt>
      <trkpt lat="46.00273" lon="1.32683">
        <ele>451.4</ele>
        <time>2024-04-28T10:26:02Z</time>
      </trkpt>
      <trkpt lat="46.00281" lon="1.32691">
        <ele>451</ele>
        <time>2024-04-28T10:26:05Z</time>
      </trkpt>
      <trkpt lat="46.00283" lon="1.32695">
        <ele>451</ele>
        <time>2024-04-28T10:26:06Z</time>
      </trkpt>
      <trkpt lat="46.00284" lon="1.32699">
        <ele>450.8</ele>
        <time>2024-04-28T10:26:07Z</time>
      </trkpt>
      <trkpt lat="46.00286" lon="1.32704">
        <ele>450.6</ele>
        <time>2024-04-28T10:26:08Z</time>
      </trkpt>
      <trkpt lat="46.00287" lon="1.3271">
        <ele>450.6</ele>
        <time>2024-04-28T10:26:09Z</time>
      </trkpt>
      <trkpt lat="46.00289" lon="1.32722">
        <ele>450</ele>
        <time>2024-04-28T10:26:11Z</time>
      </trkpt>
      <trkpt lat="46.00292" lon="1.32728">
        <ele>449.6</ele>
        <time>2024-04-28T10:26:12Z</time>
      </trkpt>
      <trkpt lat="46.00298" lon="1.32744">
        <ele>449.2</ele>
        <time>2024-04-28T10:26:15Z</time>
      </trkpt>
      <trkpt lat="46.00304" lon="1.32752">
        <ele>448.8</ele>
        <time>2024-04-28T10:26:17Z</time>
      </trkpt>
      <trkpt lat="46.00307" lon="1.32756">
        <ele>448.6</ele>
        <time>2024-04-28T10:26:18Z</time>
      </trkpt>
      <trkpt lat="46.00314" lon="1.3276">
        <ele>447.6</ele>
        <time>2024-04-28T10:26:20Z</time>
      </trkpt>
      <trkpt lat="46.0032" lon="1.32762">
        <ele>446.8</ele>
        <time>2024-04-28T10:26:21Z</time>
      </trkpt>
      <trkpt lat="46.00326" lon="1.32763">
        <ele>446.4</ele>
        <time>2024-04-28T10:26:22Z</time>
      </trkpt>
      <trkpt lat="46.00334" lon="1.32763">
        <ele>446.2</ele>
        <time>2024-04-28T10:26:23Z</time>
      </trkpt>
      <trkpt lat="46.00341" lon="1.32763">
        <ele>445.8</ele>
        <time>2024-04-28T10:26:24Z</time>
      </trkpt>
      <trkpt lat="46.00356" lon="1.3276">
        <ele>445.2</ele>
        <time>2024-04-28T10:26:26Z</time>
      </trkpt>
      <trkpt lat="46.00369" lon="1.32755">
        <ele>444.6</ele>
        <time>2024-04-28T10:26:28Z</time>
      </trkpt>
      <trkpt lat="46.00373" lon="1.32753">
        <ele>444.4</ele>
        <time>2024-04-28T10:26:29Z</time>
      </trkpt>
      <trkpt lat="46.0039" lon="1.32744">
        <ele>444</ele>
        <time>2024-04-28T10:26:32Z</time>
      </trkpt>
      <trkpt lat="46.004" lon="1.32738">
        <ele>443.6</ele>
        <time>2024-04-28T10:26:34Z</time>
      </trkpt>
      <trkpt lat="46.00414" lon="1.32727">
        <ele>443.4</ele>
        <time>2024-04-28T10:26:38Z</time>
      </trkpt>
      <trkpt lat="46.00417" lon="1.32724">
        <ele>443.4</ele>
        <time>2024-04-28T10:26:39Z</time>
      </trkpt>
      <trkpt lat="46.00439" lon="1.32712">
        <ele>442.6</ele>
        <time>2024-04-28T10:26:44Z</time>
      </trkpt>
      <trkpt lat="46.00444" lon="1.32709">
        <ele>442.2</ele>
        <time>2024-04-28T10:26:45Z</time>
      </trkpt>
      <trkpt lat="46.0046" lon="1.32696">
        <ele>441.4</ele>
        <time>2024-04-28T10:26:49Z</time>
      </trkpt>
      <trkpt lat="46.00464" lon="1.32693">
        <ele>441.2</ele>
        <time>2024-04-28T10:26:50Z</time>
      </trkpt>
      <trkpt lat="46.00469" lon="1.32689">
        <ele>441.2</ele>
        <time>2024-04-28T10:26:51Z</time>
      </trkpt>
      <trkpt lat="46.00475" lon="1.32683">
        <ele>441</ele>
        <time>2024-04-28T10:26:53Z</time>
      </trkpt>
      <trkpt lat="46.00489" lon="1.32673">
        <ele>440.2</ele>
        <time>2024-04-28T10:26:56Z</time>
      </trkpt>
      <trkpt lat="46.00494" lon="1.32669">
        <ele>440.2</ele>
        <time>2024-04-28T10:26:57Z</time>
      </trkpt>
      <trkpt lat="46.00512" lon="1.32659">
        <ele>439.2</ele>
        <time>2024-04-28T10:27:01Z</time>
      </trkpt>
      <trkpt lat="46.00521" lon="1.32654">
        <ele>437.8</ele>
        <time>2024-04-28T10:27:03Z</time>
      </trkpt>
      <trkpt lat="46.0053" lon="1.3265">
        <ele>436.8</ele>
        <time>2024-04-28T10:27:05Z</time>
      </trkpt>
      <trkpt lat="46.00536" lon="1.32643">
        <ele>436</ele>
        <time>2024-04-28T10:27:07Z</time>
      </trkpt>
      <trkpt lat="46.00538" lon="1.32636">
        <ele>436</ele>
        <time>2024-04-28T10:27:09Z</time>
      </trkpt>
      <trkpt lat="46.00538" lon="1.3263">
        <ele>436</ele>
        <time>2024-04-28T10:27:11Z</time>
      </trkpt>
      <trkpt lat="46.00532" lon="1.32619">
        <ele>436.4</ele>
        <time>2024-04-28T10:27:16Z</time>
      </trkpt>
      <trkpt lat="46.00523" lon="1.32607">
        <ele>436.4</ele>
        <time>2024-04-28T10:27:20Z</time>
      </trkpt>
      <trkpt lat="46.00515" lon="1.32602">
        <ele>436.2</ele>
        <time>2024-04-28T10:27:22Z</time>
      </trkpt>
      <trkpt lat="46.00502" lon="1.32601">
        <ele>435.8</ele>
        <time>2024-04-28T10:27:25Z</time>
      </trkpt>
      <trkpt lat="46.00491" lon="1.326">
        <ele>435.6</ele>
        <time>2024-04-28T10:27:27Z</time>
      </trkpt>
      <trkpt lat="46.00474" lon="1.32597">
        <ele>434.4</ele>
        <time>2024-04-28T10:27:30Z</time>
      </trkpt>
      <trkpt lat="46.00469" lon="1.32595">
        <ele>433.4</ele>
        <time>2024-04-28T10:27:31Z</time>
      </trkpt>
      <trkpt lat="46.0046" lon="1.32588">
        <ele>432.4</ele>
        <time>2024-04-28T10:27:33Z</time>
      </trkpt>
      <trkpt lat="46.00449" lon="1.32581">
        <ele>430.8</ele>
        <time>2024-04-28T10:27:35Z</time>
      </trkpt>
      <trkpt lat="46.0044" lon="1.32573">
        <ele>429.4</ele>
        <time>2024-04-28T10:27:37Z</time>
      </trkpt>
      <trkpt lat="46.00438" lon="1.32568">
        <ele>428.4</ele>
        <time>2024-04-28T10:27:38Z</time>
      </trkpt>
      <trkpt lat="46.00436" lon="1.32563">
        <ele>427.6</ele>
        <time>2024-04-28T10:27:39Z</time>
      </trkpt>
      <trkpt lat="46.00435" lon="1.32558">
        <ele>426.6</ele>
        <time>2024-04-28T10:27:40Z</time>
      </trkpt>
      <trkpt lat="46.00434" lon="1.32545">
        <ele>425.4</ele>
        <time>2024-04-28T10:27:42Z</time>
      </trkpt>
      <trkpt lat="46.00433" lon="1.32538">
        <ele>424.2</ele>
        <time>2024-04-28T10:27:43Z</time>
      </trkpt>
      <trkpt lat="46.00432" lon="1.3253">
        <ele>423.2</ele>
        <time>2024-04-28T10:27:44Z</time>
      </trkpt>
      <trkpt lat="46.00429" lon="1.32502">
        <ele>421.8</ele>
        <time>2024-04-28T10:27:47Z</time>
      </trkpt>
      <trkpt lat="46.00427" lon="1.32494">
        <ele>421.2</ele>
        <time>2024-04-28T10:27:48Z</time>
      </trkpt>
      <trkpt lat="46.00426" lon="1.32488">
        <ele>420.2</ele>
        <time>2024-04-28T10:27:49Z</time>
      </trkpt>
      <trkpt lat="46.00426" lon="1.32483">
        <ele>419.8</ele>
        <time>2024-04-28T10:27:50Z</time>
      </trkpt>
      <trkpt lat="46.00424" lon="1.32476">
        <ele>418.6</ele>
        <time>2024-04-28T10:27:51Z</time>
      </trkpt>
      <trkpt lat="46.00424" lon="1.3247">
        <ele>418.2</ele>
        <time>2024-04-28T10:27:52Z</time>
      </trkpt>
      <trkpt lat="46.00425" lon="1.32458">
        <ele>417.4</ele>
        <time>2024-04-28T10:27:54Z</time>
      </trkpt>
      <trkpt lat="46.00428" lon="1.32449">
        <ele>416.2</ele>
        <time>2024-04-28T10:27:56Z</time>
      </trkpt>
      <trkpt lat="46.00432" lon="1.32435">
        <ele>414.8</ele>
        <time>2024-04-28T10:27:58Z</time>
      </trkpt>
      <trkpt lat="46.00434" lon="1.32429">
        <ele>413.6</ele>
        <time>2024-04-28T10:27:59Z</time>
      </trkpt>
      <trkpt lat="46.00435" lon="1.32422">
        <ele>412.6</ele>
        <time>2024-04-28T10:28:00Z</time>
      </trkpt>
      <trkpt lat="46.00438" lon="1.32416">
        <ele>412</ele>
        <time>2024-04-28T10:28:01Z</time>
      </trkpt>
      <trkpt lat="46.00441" lon="1.32409">
        <ele>411.6</ele>
        <time>2024-04-28T10:28:02Z</time>
      </trkpt>
      <trkpt lat="46.0045" lon="1.32392">
        <ele>410.2</ele>
        <time>2024-04-28T10:28:04Z</time>
      </trkpt>
      <trkpt lat="46.00461" lon="1.32376">
        <ele>409.2</ele>
        <time>2024-04-28T10:28:06Z</time>
      </trkpt>
      <trkpt lat="46.00467" lon="1.32369">
        <ele>408.8</ele>
        <time>2024-04-28T10:28:07Z</time>
      </trkpt>
      <trkpt lat="46.00477" lon="1.32355">
        <ele>407.2</ele>
        <time>2024-04-28T10:28:09Z</time>
      </trkpt>
      <trkpt lat="46.00491" lon="1.32339">
        <ele>406.2</ele>
        <time>2024-04-28T10:28:12Z</time>
      </trkpt>
      <trkpt lat="46.00503" lon="1.32323">
        <ele>405.8</ele>
        <time>2024-04-28T10:28:15Z</time>
      </trkpt>
      <trkpt lat="46.00505" lon="1.32318">
        <ele>405.6</ele>
        <time>2024-04-28T10:28:16Z</time>
      </trkpt>
      <trkpt lat="46.00509" lon="1.32311">
        <ele>405.2</ele>
        <time>2024-04-28T10:28:18Z</time>
      </trkpt>
      <trkpt lat="46.0051" lon="1.32307">
        <ele>405.2</ele>
        <time>2024-04-28T10:28:19Z</time>
      </trkpt>
      <trkpt lat="46.00514" lon="1.32299">
        <ele>404.8</ele>
        <time>2024-04-28T10:28:22Z</time>
      </trkpt>
      <trkpt lat="46.00518" lon="1.32297">
        <ele>404.8</ele>
        <time>2024-04-28T10:28:24Z</time>
      </trkpt>
      <trkpt lat="46.00531" lon="1.32286">
        <ele>404.8</ele>
        <time>2024-04-28T10:28:30Z</time>
      </trkpt>
      <trkpt lat="46.00548" lon="1.32281">
        <ele>405</ele>
        <time>2024-04-28T10:28:36Z</time>
      </trkpt>
      <trkpt lat="46.00569" lon="1.3228">
        <ele>404.4</ele>
        <time>2024-04-28T10:28:41Z</time>
      </trkpt>
      <trkpt lat="46.00573" lon="1.32281">
        <ele>403.8</ele>
        <time>2024-04-28T10:28:42Z</time>
      </trkpt>
      <trkpt lat="46.00586" lon="1.32282">
        <ele>402.2</ele>
        <time>2024-04-28T10:28:45Z</time>
      </trkpt>
      <trkpt lat="46.00591" lon="1.32282">
        <ele>401.2</ele>
        <time>2024-04-28T10:28:46Z</time>
      </trkpt>
      <trkpt lat="46.00598" lon="1.3228">
        <ele>399.8</ele>
        <time>2024-04-28T10:28:48Z</time>
      </trkpt>
      <trkpt lat="46.00605" lon="1.32274">
        <ele>398.8</ele>
        <time>2024-04-28T10:28:50Z</time>
      </trkpt>
      <trkpt lat="46.00609" lon="1.3227">
        <ele>398.4</ele>
        <time>2024-04-28T10:28:51Z</time>
      </trkpt>
      <trkpt lat="46.00612" lon="1.32267">
        <ele>397.6</ele>
        <time>2024-04-28T10:28:52Z</time>
      </trkpt>
      <trkpt lat="46.00616" lon="1.32266">
        <ele>397</ele>
        <time>2024-04-28T10:28:53Z</time>
      </trkpt>
      <trkpt lat="46.0062" lon="1.32267">
        <ele>396.6</ele>
        <time>2024-04-28T10:28:54Z</time>
      </trkpt>
      <trkpt lat="46.00629" lon="1.32272">
        <ele>396</ele>
        <time>2024-04-28T10:28:57Z</time>
      </trkpt>
      <trkpt lat="46.00636" lon="1.32273">
        <ele>395.8</ele>
        <time>2024-04-28T10:28:59Z</time>
      </trkpt>
      <trkpt lat="46.00648" lon="1.32274">
        <ele>396</ele>
        <time>2024-04-28T10:29:04Z</time>
      </trkpt>
      <trkpt lat="46.00658" lon="1.32275">
        <ele>397.2</ele>
        <time>2024-04-28T10:29:09Z</time>
      </trkpt>
      <trkpt lat="46.00661" lon="1.32276">
        <ele>397.4</ele>
        <time>2024-04-28T10:29:10Z</time>
      </trkpt>
      <trkpt lat="46.00667" lon="1.32277">
        <ele>398.2</ele>
        <time>2024-04-28T10:29:13Z</time>
      </trkpt>
      <trkpt lat="46.00672" lon="1.32277">
        <ele>399</ele>
        <time>2024-04-28T10:29:16Z</time>
      </trkpt>
      <trkpt lat="46.00675" lon="1.32279">
        <ele>399.4</ele>
        <time>2024-04-28T10:29:18Z</time>
      </trkpt>
      <trkpt lat="46.00679" lon="1.3228">
        <ele>400.4</ele>
        <time>2024-04-28T10:29:21Z</time>
      </trkpt>
      <trkpt lat="46.00681" lon="1.32281">
        <ele>401</ele>
        <time>2024-04-28T10:29:23Z</time>
      </trkpt>
      <trkpt lat="46.00684" lon="1.32282">
        <ele>401.6</ele>
        <time>2024-04-28T10:29:25Z</time>
      </trkpt>
      <trkpt lat="46.00691" lon="1.32285">
        <ele>402.8</ele>
        <time>2024-04-28T10:29:30Z</time>
      </trkpt>
      <trkpt lat="46.00693" lon="1.32285">
        <ele>403.2</ele>
        <time>2024-04-28T10:29:31Z</time>
      </trkpt>
      <trkpt lat="46.00697" lon="1.32289">
        <ele>404</ele>
        <time>2024-04-28T10:29:36Z</time>
      </trkpt>
      <trkpt lat="46.00698" lon="1.3229">
        <ele>404.2</ele>
        <time>2024-04-28T10:29:37Z</time>
      </trkpt>
      <trkpt lat="46.00699" lon="1.32292">
        <ele>404.8</ele>
        <time>2024-04-28T10:29:39Z</time>
      </trkpt>
      <trkpt lat="46.007" lon="1.32294">
        <ele>405</ele>
        <time>2024-04-28T10:29:40Z</time>
      </trkpt>
      <trkpt lat="46.00701" lon="1.32295">
        <ele>405.4</ele>
        <time>2024-04-28T10:29:41Z</time>
      </trkpt>
      <trkpt lat="46.00703" lon="1.32298">
        <ele>406.2</ele>
        <time>2024-04-28T10:29:44Z</time>
      </trkpt>
      <trkpt lat="46.00704" lon="1.32299">
        <ele>406.4</ele>
        <time>2024-04-28T10:29:45Z</time>
      </trkpt>
      <trkpt lat="46.00706" lon="1.32301">
        <ele>406.8</ele>
        <time>2024-04-28T10:29:47Z</time>
      </trkpt>
      <trkpt lat="46.00708" lon="1.32304">
        <ele>407.6</ele>
        <time>2024-04-28T10:29:50Z</time>
      </trkpt>
      <trkpt lat="46.0071" lon="1.32307">
        <ele>408</ele>
        <time>2024-04-28T10:29:52Z</time>
      </trkpt>
      <trkpt lat="46.00711" lon="1.32308">
        <ele>408.4</ele>
        <time>2024-04-28T10:29:53Z</time>
      </trkpt>
      <trkpt lat="46.00713" lon="1.32313">
        <ele>408.6</ele>
        <time>2024-04-28T10:29:56Z</time>
      </trkpt>
      <trkpt lat="46.0072" lon="1.3233">
        <ele>409.8</ele>
        <time>2024-04-28T10:30:05Z</time>
      </trkpt>
      <trkpt lat="46.00725" lon="1.32343">
        <ele>410.8</ele>
        <time>2024-04-28T10:30:11Z</time>
      </trkpt>
      <trkpt lat="46.00726" lon="1.32346">
        <ele>411</ele>
        <time>2024-04-28T10:30:13Z</time>
      </trkpt>
      <trkpt lat="46.00728" lon="1.32352">
        <ele>411.8</ele>
        <time>2024-04-28T10:30:16Z</time>
      </trkpt>
      <trkpt lat="46.00736" lon="1.32364">
        <ele>412.4</ele>
        <time>2024-04-28T10:30:21Z</time>
      </trkpt>
      <trkpt lat="46.00747" lon="1.32371">
        <ele>412.6</ele>
        <time>2024-04-28T10:30:28Z</time>
      </trkpt>
      <trkpt lat="46.00748" lon="1.32371">
        <ele>412.8</ele>
        <time>2024-04-28T10:30:29Z</time>
      </trkpt>
      <trkpt lat="46.00755" lon="1.32372">
        <ele>413.8</ele>
        <time>2024-04-28T10:30:34Z</time>
      </trkpt>
      <trkpt lat="46.00756" lon="1.32372">
        <ele>414</ele>
        <time>2024-04-28T10:30:35Z</time>
      </trkpt>
      <trkpt lat="46.00761" lon="1.32371">
        <ele>414.8</ele>
        <time>2024-04-28T10:30:38Z</time>
      </trkpt>
      <trkpt lat="46.00768" lon="1.3237">
        <ele>415.6</ele>
        <time>2024-04-28T10:30:46Z</time>
      </trkpt>
      <trkpt lat="46.0077" lon="1.3237">
        <ele>416</ele>
        <time>2024-04-28T10:30:48Z</time>
      </trkpt>
      <trkpt lat="46.00771" lon="1.32371">
        <ele>416.2</ele>
        <time>2024-04-28T10:30:49Z</time>
      </trkpt>
      <trkpt lat="46.00777" lon="1.32375">
        <ele>417.6</ele>
        <time>2024-04-28T10:30:54Z</time>
      </trkpt>
      <trkpt lat="46.0078" lon="1.32376">
        <ele>418.2</ele>
        <time>2024-04-28T10:30:56Z</time>
      </trkpt>
      <trkpt lat="46.00783" lon="1.32377">
        <ele>418.6</ele>
        <time>2024-04-28T10:30:58Z</time>
      </trkpt>
      <trkpt lat="46.00791" lon="1.32381">
        <ele>419.6</ele>
        <time>2024-04-28T10:31:05Z</time>
      </trkpt>
      <trkpt lat="46.00794" lon="1.32382">
        <ele>420.2</ele>
        <time>2024-04-28T10:31:08Z</time>
      </trkpt>
      <trkpt lat="46.00801" lon="1.32385">
        <ele>420.8</ele>
        <time>2024-04-28T10:31:13Z</time>
      </trkpt>
      <trkpt lat="46.00811" lon="1.32388">
        <ele>422</ele>
        <time>2024-04-28T10:31:21Z</time>
      </trkpt>
      <trkpt lat="46.00813" lon="1.32388">
        <ele>422.4</ele>
        <time>2024-04-28T10:31:23Z</time>
      </trkpt>
      <trkpt lat="46.00818" lon="1.3239">
        <ele>423.2</ele>
        <time>2024-04-28T10:31:27Z</time>
      </trkpt>
      <trkpt lat="46.00827" lon="1.32392">
        <ele>423.6</ele>
        <time>2024-04-28T10:31:33Z</time>
      </trkpt>
      <trkpt lat="46.00833" lon="1.32392">
        <ele>424.4</ele>
        <time>2024-04-28T10:31:37Z</time>
      </trkpt>
      <trkpt lat="46.0084" lon="1.32393">
        <ele>425.4</ele>
        <time>2024-04-28T10:31:42Z</time>
      </trkpt>
      <trkpt lat="46.00842" lon="1.32394">
        <ele>425.6</ele>
        <time>2024-04-28T10:31:43Z</time>
      </trkpt>
      <trkpt lat="46.00848" lon="1.32396">
        <ele>426.6</ele>
        <time>2024-04-28T10:31:47Z</time>
      </trkpt>
      <trkpt lat="46.00854" lon="1.32399">
        <ele>427.6</ele>
        <time>2024-04-28T10:31:50Z</time>
      </trkpt>
      <trkpt lat="46.00857" lon="1.32402">
        <ele>428</ele>
        <time>2024-04-28T10:31:52Z</time>
      </trkpt>
      <trkpt lat="46.00861" lon="1.32411">
        <ele>428.4</ele>
        <time>2024-04-28T10:31:56Z</time>
      </trkpt>
      <trkpt lat="46.00863" lon="1.32415">
        <ele>428.6</ele>
        <time>2024-04-28T10:31:58Z</time>
      </trkpt>
      <trkpt lat="46.00865" lon="1.32416">
        <ele>428.6</ele>
        <time>2024-04-28T10:32:00Z</time>
      </trkpt>
      <trkpt lat="46.00866" lon="1.32415">
        <ele>428.8</ele>
        <time>2024-04-28T10:32:01Z</time>
      </trkpt>
      <trkpt lat="46.00868" lon="1.32414">
        <ele>429</ele>
        <time>2024-04-28T10:32:02Z</time>
      </trkpt>
      <trkpt lat="46.00871" lon="1.3241">
        <ele>429.8</ele>
        <time>2024-04-28T10:32:05Z</time>
      </trkpt>
      <trkpt lat="46.00872" lon="1.32409">
        <ele>430</ele>
        <time>2024-04-28T10:32:06Z</time>
      </trkpt>
      <trkpt lat="46.0088" lon="1.32405">
        <ele>430.8</ele>
        <time>2024-04-28T10:32:10Z</time>
      </trkpt>
      <trkpt lat="46.00884" lon="1.32405">
        <ele>431</ele>
        <time>2024-04-28T10:32:12Z</time>
      </trkpt>
      <trkpt lat="46.00898" lon="1.32407">
        <ele>431.8</ele>
        <time>2024-04-28T10:32:18Z</time>
      </trkpt>
      <trkpt lat="46.009" lon="1.32407">
        <ele>432</ele>
        <time>2024-04-28T10:32:19Z</time>
      </trkpt>
      <trkpt lat="46.00909" lon="1.32409">
        <ele>433.4</ele>
        <time>2024-04-28T10:32:24Z</time>
      </trkpt>
      <trkpt lat="46.00919" lon="1.32414">
        <ele>434.6</ele>
        <time>2024-04-28T10:32:30Z</time>
      </trkpt>
      <trkpt lat="46.00925" lon="1.32417">
        <ele>435</ele>
        <time>2024-04-28T10:32:33Z</time>
      </trkpt>
      <trkpt lat="46.00931" lon="1.32419">
        <ele>435.6</ele>
        <time>2024-04-28T10:32:37Z</time>
      </trkpt>
      <trkpt lat="46.0094" lon="1.32423">
        <ele>436.2</ele>
        <time>2024-04-28T10:32:41Z</time>
      </trkpt>
      <trkpt lat="46.00948" lon="1.32423">
        <ele>436.6</ele>
        <time>2024-04-28T10:32:45Z</time>
      </trkpt>
      <trkpt lat="46.00952" lon="1.32424">
        <ele>436.8</ele>
        <time>2024-04-28T10:32:47Z</time>
      </trkpt>
      <trkpt lat="46.00961" lon="1.32427">
        <ele>437.6</ele>
        <time>2024-04-28T10:32:52Z</time>
      </trkpt>
      <trkpt lat="46.00968" lon="1.3243">
        <ele>438.2</ele>
        <time>2024-04-28T10:32:56Z</time>
      </trkpt>
      <trkpt lat="46.00971" lon="1.32431">
        <ele>438.8</ele>
        <time>2024-04-28T10:32:58Z</time>
      </trkpt>
      <trkpt lat="46.00981" lon="1.32433">
        <ele>439.6</ele>
        <time>2024-04-28T10:33:04Z</time>
      </trkpt>
      <trkpt lat="46.00985" lon="1.32434">
        <ele>439.8</ele>
        <time>2024-04-28T10:33:06Z</time>
      </trkpt>
      <trkpt lat="46.00995" lon="1.32436">
        <ele>440.8</ele>
        <time>2024-04-28T10:33:13Z</time>
      </trkpt>
      <trkpt lat="46.00997" lon="1.32436">
        <ele>441</ele>
        <time>2024-04-28T10:33:14Z</time>
      </trkpt>
      <trkpt lat="46.01003" lon="1.32439">
        <ele>442.2</ele>
        <time>2024-04-28T10:33:20Z</time>
      </trkpt>
      <trkpt lat="46.0101" lon="1.32441">
        <ele>443.2</ele>
        <time>2024-04-28T10:33:26Z</time>
      </trkpt>
      <trkpt lat="46.01015" lon="1.32441">
        <ele>444</ele>
        <time>2024-04-28T10:33:30Z</time>
      </trkpt>
      <trkpt lat="46.01016" lon="1.32441">
        <ele>444.2</ele>
        <time>2024-04-28T10:33:31Z</time>
      </trkpt>
      <trkpt lat="46.01026" lon="1.32441">
        <ele>445.4</ele>
        <time>2024-04-28T10:33:38Z</time>
      </trkpt>
      <trkpt lat="46.01033" lon="1.32444">
        <ele>446.2</ele>
        <time>2024-04-28T10:33:43Z</time>
      </trkpt>
      <trkpt lat="46.01034" lon="1.32445">
        <ele>446.6</ele>
        <time>2024-04-28T10:33:44Z</time>
      </trkpt>
      <trkpt lat="46.01042" lon="1.32451">
        <ele>447.6</ele>
        <time>2024-04-28T10:33:51Z</time>
      </trkpt>
      <trkpt lat="46.01046" lon="1.32456">
        <ele>448.8</ele>
        <time>2024-04-28T10:33:56Z</time>
      </trkpt>
      <trkpt lat="46.01051" lon="1.32461">
        <ele>449.8</ele>
        <time>2024-04-28T10:34:01Z</time>
      </trkpt>
      <trkpt lat="46.0106" lon="1.32467">
        <ele>450.8</ele>
        <time>2024-04-28T10:34:08Z</time>
      </trkpt>
      <trkpt lat="46.01061" lon="1.32468">
        <ele>450.8</ele>
        <time>2024-04-28T10:34:09Z</time>
      </trkpt>
      <trkpt lat="46.01072" lon="1.32475">
        <ele>451.6</ele>
        <time>2024-04-28T10:34:19Z</time>
      </trkpt>
      <trkpt lat="46.01075" lon="1.32476">
        <ele>452</ele>
        <time>2024-04-28T10:34:21Z</time>
      </trkpt>
      <trkpt lat="46.01083" lon="1.32482">
        <ele>453.2</ele>
        <time>2024-04-28T10:34:28Z</time>
      </trkpt>
      <trkpt lat="46.01089" lon="1.32483">
        <ele>453.8</ele>
        <time>2024-04-28T10:34:32Z</time>
      </trkpt>
      <trkpt lat="46.01094" lon="1.32486">
        <ele>454.2</ele>
        <time>2024-04-28T10:34:35Z</time>
      </trkpt>
      <trkpt lat="46.01102" lon="1.32493">
        <ele>455</ele>
        <time>2024-04-28T10:34:41Z</time>
      </trkpt>
      <trkpt lat="46.01105" lon="1.32494">
        <ele>455.4</ele>
        <time>2024-04-28T10:34:43Z</time>
      </trkpt>
      <trkpt lat="46.01106" lon="1.32495">
        <ele>455.6</ele>
        <time>2024-04-28T10:34:44Z</time>
      </trkpt>
      <trkpt lat="46.01113" lon="1.32499">
        <ele>456.6</ele>
        <time>2024-04-28T10:34:49Z</time>
      </trkpt>
      <trkpt lat="46.01125" lon="1.32506">
        <ele>457.4</ele>
        <time>2024-04-28T10:34:57Z</time>
      </trkpt>
      <trkpt lat="46.01126" lon="1.32507">
        <ele>457.6</ele>
        <time>2024-04-28T10:34:58Z</time>
      </trkpt>
      <trkpt lat="46.01137" lon="1.3252">
        <ele>458.8</ele>
        <time>2024-04-28T10:35:08Z</time>
      </trkpt>
      <trkpt lat="46.01143" lon="1.32523">
        <ele>459</ele>
        <time>2024-04-28T10:35:11Z</time>
      </trkpt>
      <trkpt lat="46.01164" lon="1.32534">
        <ele>459.8</ele>
        <time>2024-04-28T10:35:18Z</time>
      </trkpt>
      <trkpt lat="46.01167" lon="1.32535">
        <ele>460</ele>
        <time>2024-04-28T10:35:19Z</time>
      </trkpt>
      <trkpt lat="46.01181" lon="1.3254">
        <ele>460.6</ele>
        <time>2024-04-28T10:35:24Z</time>
      </trkpt>
      <trkpt lat="46.01187" lon="1.32541">
        <ele>461</ele>
        <time>2024-04-28T10:35:27Z</time>
      </trkpt>
      <trkpt lat="46.01191" lon="1.32543">
        <ele>461.2</ele>
        <time>2024-04-28T10:35:29Z</time>
      </trkpt>
      <trkpt lat="46.01196" lon="1.32544">
        <ele>461.6</ele>
        <time>2024-04-28T10:35:31Z</time>
      </trkpt>
      <trkpt lat="46.01201" lon="1.32546">
        <ele>462</ele>
        <time>2024-04-28T10:35:34Z</time>
      </trkpt>
      <trkpt lat="46.01211" lon="1.32546">
        <ele>462.6</ele>
        <time>2024-04-28T10:35:38Z</time>
      </trkpt>
      <trkpt lat="46.01219" lon="1.32546">
        <ele>463.2</ele>
        <time>2024-04-28T10:35:42Z</time>
      </trkpt>
      <trkpt lat="46.01224" lon="1.32546">
        <ele>463.6</ele>
        <time>2024-04-28T10:35:45Z</time>
      </trkpt>
      <trkpt lat="46.0123" lon="1.32547">
        <ele>464.4</ele>
        <time>2024-04-28T10:35:48Z</time>
      </trkpt>
      <trkpt lat="46.01237" lon="1.32549">
        <ele>465</ele>
        <time>2024-04-28T10:35:51Z</time>
      </trkpt>
      <trkpt lat="46.0124" lon="1.32549">
        <ele>465.4</ele>
        <time>2024-04-28T10:35:53Z</time>
      </trkpt>
      <trkpt lat="46.01249" lon="1.32554">
        <ele>466.2</ele>
        <time>2024-04-28T10:35:58Z</time>
      </trkpt>
      <trkpt lat="46.0125" lon="1.32556">
        <ele>466.4</ele>
        <time>2024-04-28T10:35:59Z</time>
      </trkpt>
      <trkpt lat="46.01252" lon="1.32557">
        <ele>466.4</ele>
        <time>2024-04-28T10:36:00Z</time>
      </trkpt>
      <trkpt lat="46.01264" lon="1.32563">
        <ele>467.6</ele>
        <time>2024-04-28T10:36:06Z</time>
      </trkpt>
      <trkpt lat="46.01274" lon="1.32569">
        <ele>468.6</ele>
        <time>2024-04-28T10:36:13Z</time>
      </trkpt>
      <trkpt lat="46.01277" lon="1.32571">
        <ele>468.8</ele>
        <time>2024-04-28T10:36:14Z</time>
      </trkpt>
      <trkpt lat="46.01287" lon="1.32581">
        <ele>469.4</ele>
        <time>2024-04-28T10:36:21Z</time>
      </trkpt>
      <trkpt lat="46.01289" lon="1.32582">
        <ele>469.6</ele>
        <time>2024-04-28T10:36:22Z</time>
      </trkpt>
      <trkpt lat="46.01291" lon="1.32584">
        <ele>469.6</ele>
        <time>2024-04-28T10:36:23Z</time>
      </trkpt>
      <trkpt lat="46.01299" lon="1.32588">
        <ele>469.8</ele>
        <time>2024-04-28T10:36:26Z</time>
      </trkpt>
      <trkpt lat="46.01313" lon="1.32593">
        <ele>469.6</ele>
        <time>2024-04-28T10:36:30Z</time>
      </trkpt>
      <trkpt lat="46.0133" lon="1.32598">
        <ele>468.8</ele>
        <time>2024-04-28T10:36:35Z</time>
      </trkpt>
      <trkpt lat="46.01336" lon="1.32602">
        <ele>468.8</ele>
        <time>2024-04-28T10:36:37Z</time>
      </trkpt>
      <trkpt lat="46.0134" lon="1.32604">
        <ele>468.6</ele>
        <time>2024-04-28T10:36:38Z</time>
      </trkpt>
      <trkpt lat="46.01346" lon="1.32609">
        <ele>468.2</ele>
        <time>2024-04-28T10:36:40Z</time>
      </trkpt>
      <trkpt lat="46.01361" lon="1.32616">
        <ele>467.4</ele>
        <time>2024-04-28T10:36:43Z</time>
      </trkpt>
      <trkpt lat="46.01367" lon="1.32618">
        <ele>467.4</ele>
        <time>2024-04-28T10:36:44Z</time>
      </trkpt>
      <trkpt lat="46.01373" lon="1.32619">
        <ele>467.2</ele>
        <time>2024-04-28T10:36:45Z</time>
      </trkpt>
      <trkpt lat="46.01378" lon="1.32619">
        <ele>467</ele>
        <time>2024-04-28T10:36:46Z</time>
      </trkpt>
      <trkpt lat="46.01384" lon="1.32619">
        <ele>466.4</ele>
        <time>2024-04-28T10:36:47Z</time>
      </trkpt>
      <trkpt lat="46.0139" lon="1.32621">
        <ele>465.8</ele>
        <time>2024-04-28T10:36:48Z</time>
      </trkpt>
      <trkpt lat="46.01395" lon="1.32622">
        <ele>465.2</ele>
        <time>2024-04-28T10:36:49Z</time>
      </trkpt>
      <trkpt lat="46.01401" lon="1.32624">
        <ele>464.6</ele>
        <time>2024-04-28T10:36:50Z</time>
      </trkpt>
      <trkpt lat="46.01405" lon="1.32625">
        <ele>463.2</ele>
        <time>2024-04-28T10:36:51Z</time>
      </trkpt>
      <trkpt lat="46.01414" lon="1.3263">
        <ele>462.6</ele>
        <time>2024-04-28T10:36:53Z</time>
      </trkpt>
      <trkpt lat="46.01421" lon="1.3264">
        <ele>462.2</ele>
        <time>2024-04-28T10:36:55Z</time>
      </trkpt>
      <trkpt lat="46.01424" lon="1.32646">
        <ele>461.8</ele>
        <time>2024-04-28T10:36:56Z</time>
      </trkpt>
      <trkpt lat="46.01428" lon="1.32656">
        <ele>460.4</ele>
        <time>2024-04-28T10:36:58Z</time>
      </trkpt>
      <trkpt lat="46.01431" lon="1.32658">
        <ele>459.8</ele>
        <time>2024-04-28T10:36:59Z</time>
      </trkpt>
      <trkpt lat="46.01434" lon="1.3266">
        <ele>459</ele>
        <time>2024-04-28T10:37:00Z</time>
      </trkpt>
      <trkpt lat="46.01442" lon="1.32659">
        <ele>457.4</ele>
        <time>2024-04-28T10:37:02Z</time>
      </trkpt>
      <trkpt lat="46.01459" lon="1.32657">
        <ele>455.2</ele>
        <time>2024-04-28T10:37:05Z</time>
      </trkpt>
      <trkpt lat="46.01465" lon="1.32655">
        <ele>453.8</ele>
        <time>2024-04-28T10:37:06Z</time>
      </trkpt>
      <trkpt lat="46.01475" lon="1.32654">
        <ele>452.2</ele>
        <time>2024-04-28T10:37:08Z</time>
      </trkpt>
      <trkpt lat="46.01482" lon="1.3266">
        <ele>450.4</ele>
        <time>2024-04-28T10:37:10Z</time>
      </trkpt>
      <trkpt lat="46.01485" lon="1.32663">
        <ele>449.4</ele>
        <time>2024-04-28T10:37:11Z</time>
      </trkpt>
      <trkpt lat="46.01495" lon="1.32669">
        <ele>447.6</ele>
        <time>2024-04-28T10:37:13Z</time>
      </trkpt>
      <trkpt lat="46.01505" lon="1.3267">
        <ele>446.2</ele>
        <time>2024-04-28T10:37:15Z</time>
      </trkpt>
      <trkpt lat="46.0151" lon="1.3267">
        <ele>445.6</ele>
        <time>2024-04-28T10:37:16Z</time>
      </trkpt>
      <trkpt lat="46.01518" lon="1.32672">
        <ele>444.6</ele>
        <time>2024-04-28T10:37:18Z</time>
      </trkpt>
      <trkpt lat="46.01524" lon="1.32673">
        <ele>443.4</ele>
        <time>2024-04-28T10:37:20Z</time>
      </trkpt>
      <trkpt lat="46.0153" lon="1.32673">
        <ele>442.4</ele>
        <time>2024-04-28T10:37:22Z</time>
      </trkpt>
      <trkpt lat="46.01534" lon="1.32674">
        <ele>441.6</ele>
        <time>2024-04-28T10:37:23Z</time>
      </trkpt>
      <trkpt lat="46.01537" lon="1.32676">
        <ele>441.2</ele>
        <time>2024-04-28T10:37:24Z</time>
      </trkpt>
      <trkpt lat="46.01539" lon="1.32679">
        <ele>440.4</ele>
        <time>2024-04-28T10:37:25Z</time>
      </trkpt>
      <trkpt lat="46.01541" lon="1.32682">
        <ele>439.4</ele>
        <time>2024-04-28T10:37:26Z</time>
      </trkpt>
      <trkpt lat="46.01542" lon="1.32685">
        <ele>438.8</ele>
        <time>2024-04-28T10:37:27Z</time>
      </trkpt>
      <trkpt lat="46.01543" lon="1.32689">
        <ele>437.8</ele>
        <time>2024-04-28T10:37:28Z</time>
      </trkpt>
      <trkpt lat="46.01544" lon="1.32695">
        <ele>436.8</ele>
        <time>2024-04-28T10:37:30Z</time>
      </trkpt>
      <trkpt lat="46.01548" lon="1.32708">
        <ele>435.4</ele>
        <time>2024-04-28T10:37:33Z</time>
      </trkpt>
      <trkpt lat="46.01551" lon="1.32718">
        <ele>434.6</ele>
        <time>2024-04-28T10:37:35Z</time>
      </trkpt>
      <trkpt lat="46.01552" lon="1.32722">
        <ele>434.2</ele>
        <time>2024-04-28T10:37:36Z</time>
      </trkpt>
      <trkpt lat="46.01556" lon="1.32727">
        <ele>434</ele>
        <time>2024-04-28T10:37:37Z</time>
      </trkpt>
      <trkpt lat="46.01565" lon="1.32732">
        <ele>433.6</ele>
        <time>2024-04-28T10:37:39Z</time>
      </trkpt>
      <trkpt lat="46.01571" lon="1.32734">
        <ele>433.4</ele>
        <time>2024-04-28T10:37:40Z</time>
      </trkpt>
      <trkpt lat="46.01576" lon="1.32735">
        <ele>433.2</ele>
        <time>2024-04-28T10:37:41Z</time>
      </trkpt>
      <trkpt lat="46.01596" lon="1.32738">
        <ele>433</ele>
        <time>2024-04-28T10:37:44Z</time>
      </trkpt>
      <trkpt lat="46.0162" lon="1.3274">
        <ele>432.6</ele>
        <time>2024-04-28T10:37:49Z</time>
      </trkpt>
      <trkpt lat="46.01628" lon="1.32742">
        <ele>432.2</ele>
        <time>2024-04-28T10:37:51Z</time>
      </trkpt>
      <trkpt lat="46.01638" lon="1.32751">
        <ele>431.6</ele>
        <time>2024-04-28T10:37:55Z</time>
      </trkpt>
      <trkpt lat="46.01648" lon="1.32757">
        <ele>431</ele>
        <time>2024-04-28T10:37:58Z</time>
      </trkpt>
      <trkpt lat="46.01654" lon="1.32763">
        <ele>430.4</ele>
        <time>2024-04-28T10:38:00Z</time>
      </trkpt>
      <trkpt lat="46.01668" lon="1.32769">
        <ele>429.6</ele>
        <time>2024-04-28T10:38:03Z</time>
      </trkpt>
      <trkpt lat="46.01672" lon="1.3277">
        <ele>428.6</ele>
        <time>2024-04-28T10:38:04Z</time>
      </trkpt>
      <trkpt lat="46.01676" lon="1.32772">
        <ele>428</ele>
        <time>2024-04-28T10:38:05Z</time>
      </trkpt>
      <trkpt lat="46.01681" lon="1.32775">
        <ele>427</ele>
        <time>2024-04-28T10:38:06Z</time>
      </trkpt>
      <trkpt lat="46.01685" lon="1.32776">
        <ele>426.2</ele>
        <time>2024-04-28T10:38:07Z</time>
      </trkpt>
      <trkpt lat="46.01689" lon="1.32777">
        <ele>425.4</ele>
        <time>2024-04-28T10:38:08Z</time>
      </trkpt>
      <trkpt lat="46.01694" lon="1.32779">
        <ele>424.8</ele>
        <time>2024-04-28T10:38:09Z</time>
      </trkpt>
      <trkpt lat="46.017" lon="1.32781">
        <ele>423.8</ele>
        <time>2024-04-28T10:38:10Z</time>
      </trkpt>
      <trkpt lat="46.0171" lon="1.32784">
        <ele>421.6</ele>
        <time>2024-04-28T10:38:12Z</time>
      </trkpt>
      <trkpt lat="46.01718" lon="1.32791">
        <ele>420.2</ele>
        <time>2024-04-28T10:38:14Z</time>
      </trkpt>
      <trkpt lat="46.01721" lon="1.32797">
        <ele>419.4</ele>
        <time>2024-04-28T10:38:15Z</time>
      </trkpt>
      <trkpt lat="46.01723" lon="1.32802">
        <ele>418.4</ele>
        <time>2024-04-28T10:38:16Z</time>
      </trkpt>
      <trkpt lat="46.01726" lon="1.3281">
        <ele>417.6</ele>
        <time>2024-04-28T10:38:18Z</time>
      </trkpt>
      <trkpt lat="46.01727" lon="1.32815">
        <ele>417.4</ele>
        <time>2024-04-28T10:38:19Z</time>
      </trkpt>
      <trkpt lat="46.0173" lon="1.3282">
        <ele>416.4</ele>
        <time>2024-04-28T10:38:20Z</time>
      </trkpt>
      <trkpt lat="46.01734" lon="1.32832">
        <ele>415.4</ele>
        <time>2024-04-28T10:38:22Z</time>
      </trkpt>
      <trkpt lat="46.01735" lon="1.32838">
        <ele>414</ele>
        <time>2024-04-28T10:38:23Z</time>
      </trkpt>
      <trkpt lat="46.01737" lon="1.32844">
        <ele>412.6</ele>
        <time>2024-04-28T10:38:24Z</time>
      </trkpt>
      <trkpt lat="46.01739" lon="1.32851">
        <ele>411.6</ele>
        <time>2024-04-28T10:38:25Z</time>
      </trkpt>
      <trkpt lat="46.0174" lon="1.32858">
        <ele>410.4</ele>
        <time>2024-04-28T10:38:26Z</time>
      </trkpt>
      <trkpt lat="46.0174" lon="1.32871">
        <ele>408.6</ele>
        <time>2024-04-28T10:38:28Z</time>
      </trkpt>
      <trkpt lat="46.0174" lon="1.32878">
        <ele>407.4</ele>
        <time>2024-04-28T10:38:29Z</time>
      </trkpt>
      <trkpt lat="46.01742" lon="1.32892">
        <ele>407.2</ele>
        <time>2024-04-28T10:38:31Z</time>
      </trkpt>
      <trkpt lat="46.01744" lon="1.329">
        <ele>405.2</ele>
        <time>2024-04-28T10:38:32Z</time>
      </trkpt>
      <trkpt lat="46.01746" lon="1.32917">
        <ele>404.6</ele>
        <time>2024-04-28T10:38:34Z</time>
      </trkpt>
      <trkpt lat="46.01748" lon="1.32925">
        <ele>403.8</ele>
        <time>2024-04-28T10:38:35Z</time>
      </trkpt>
      <trkpt lat="46.0175" lon="1.32932">
        <ele>402.8</ele>
        <time>2024-04-28T10:38:36Z</time>
      </trkpt>
      <trkpt lat="46.01752" lon="1.32939">
        <ele>402</ele>
        <time>2024-04-28T10:38:37Z</time>
      </trkpt>
      <trkpt lat="46.0176" lon="1.32947">
        <ele>401.4</ele>
        <time>2024-04-28T10:38:38Z</time>
      </trkpt>
      <trkpt lat="46.01773" lon="1.32959">
        <ele>400.4</ele>
        <time>2024-04-28T10:38:40Z</time>
      </trkpt>
      <trkpt lat="46.01792" lon="1.3297">
        <ele>399.4</ele>
        <time>2024-04-28T10:38:42Z</time>
      </trkpt>
      <trkpt lat="46.018" lon="1.32972">
        <ele>398.4</ele>
        <time>2024-04-28T10:38:43Z</time>
      </trkpt>
      <trkpt lat="46.0182" lon="1.32975">
        <ele>397</ele>
        <time>2024-04-28T10:38:45Z</time>
      </trkpt>
      <trkpt lat="46.01829" lon="1.32977">
        <ele>396</ele>
        <time>2024-04-28T10:38:46Z</time>
      </trkpt>
      <trkpt lat="46.01837" lon="1.32979">
        <ele>394.6</ele>
        <time>2024-04-28T10:38:47Z</time>
      </trkpt>
      <trkpt lat="46.01844" lon="1.32982">
        <ele>393.6</ele>
        <time>2024-04-28T10:38:48Z</time>
      </trkpt>
      <trkpt lat="46.0185" lon="1.32986">
        <ele>392.8</ele>
        <time>2024-04-28T10:38:49Z</time>
      </trkpt>
      <trkpt lat="46.01853" lon="1.32991">
        <ele>391.4</ele>
        <time>2024-04-28T10:38:50Z</time>
      </trkpt>
      <trkpt lat="46.0186" lon="1.32996">
        <ele>390</ele>
        <time>2024-04-28T10:38:51Z</time>
      </trkpt>
      <trkpt lat="46.01864" lon="1.33002">
        <ele>389.2</ele>
        <time>2024-04-28T10:38:52Z</time>
      </trkpt>
      <trkpt lat="46.01868" lon="1.33008">
        <ele>388.2</ele>
        <time>2024-04-28T10:38:53Z</time>
      </trkpt>
      <trkpt lat="46.01867" lon="1.33013">
        <ele>387.6</ele>
        <time>2024-04-28T10:38:54Z</time>
      </trkpt>
      <trkpt lat="46.01866" lon="1.33019">
        <ele>387</ele>
        <time>2024-04-28T10:38:55Z</time>
      </trkpt>
      <trkpt lat="46.01864" lon="1.33026">
        <ele>386.6</ele>
        <time>2024-04-28T10:38:56Z</time>
      </trkpt>
      <trkpt lat="46.01856" lon="1.33037">
        <ele>386</ele>
        <time>2024-04-28T10:38:58Z</time>
      </trkpt>
      <trkpt lat="46.0185" lon="1.33042">
        <ele>385.4</ele>
        <time>2024-04-28T10:38:59Z</time>
      </trkpt>
      <trkpt lat="46.01832" lon="1.33052">
        <ele>384</ele>
        <time>2024-04-28T10:39:02Z</time>
      </trkpt>
      <trkpt lat="46.01826" lon="1.33056">
        <ele>383.6</ele>
        <time>2024-04-28T10:39:03Z</time>
      </trkpt>
      <trkpt lat="46.0182" lon="1.33062">
        <ele>383.2</ele>
        <time>2024-04-28T10:39:04Z</time>
      </trkpt>
      <trkpt lat="46.01811" lon="1.33073">
        <ele>382.8</ele>
        <time>2024-04-28T10:39:06Z</time>
      </trkpt>
      <trkpt lat="46.01806" lon="1.33087">
        <ele>382.6</ele>
        <time>2024-04-28T10:39:08Z</time>
      </trkpt>
      <trkpt lat="46.01806" lon="1.3311">
        <ele>382.2</ele>
        <time>2024-04-28T10:39:12Z</time>
      </trkpt>
      <trkpt lat="46.01808" lon="1.33122">
        <ele>381.6</ele>
        <time>2024-04-28T10:39:15Z</time>
      </trkpt>
      <trkpt lat="46.01811" lon="1.33136">
        <ele>381</ele>
        <time>2024-04-28T10:39:18Z</time>
      </trkpt>
      <trkpt lat="46.0181" lon="1.33142">
        <ele>380.6</ele>
        <time>2024-04-28T10:39:20Z</time>
      </trkpt>
      <trkpt lat="46.01808" lon="1.33146">
        <ele>380.4</ele>
        <time>2024-04-28T10:39:22Z</time>
      </trkpt>
      <trkpt lat="46.01804" lon="1.33162">
        <ele>379.8</ele>
        <time>2024-04-28T10:39:28Z</time>
      </trkpt>
      <trkpt lat="46.01806" lon="1.33175">
        <ele>379.8</ele>
        <time>2024-04-28T10:39:32Z</time>
      </trkpt>
      <trkpt lat="46.0181" lon="1.33195">
        <ele>380.4</ele>
        <time>2024-04-28T10:39:38Z</time>
      </trkpt>
      <trkpt lat="46.01812" lon="1.33224">
        <ele>381.6</ele>
        <time>2024-04-28T10:39:46Z</time>
      </trkpt>
      <trkpt lat="46.01814" lon="1.33235">
        <ele>382.6</ele>
        <time>2024-04-28T10:39:50Z</time>
      </trkpt>
      <trkpt lat="46.01816" lon="1.33245">
        <ele>383.2</ele>
        <time>2024-04-28T10:39:54Z</time>
      </trkpt>
      <trkpt lat="46.01821" lon="1.33255">
        <ele>384</ele>
        <time>2024-04-28T10:39:58Z</time>
      </trkpt>
      <trkpt lat="46.01823" lon="1.33261">
        <ele>384.6</ele>
        <time>2024-04-28T10:40:01Z</time>
      </trkpt>
      <trkpt lat="46.01825" lon="1.33266">
        <ele>385</ele>
        <time>2024-04-28T10:40:04Z</time>
      </trkpt>
      <trkpt lat="46.01828" lon="1.33275">
        <ele>385.8</ele>
        <time>2024-04-28T10:40:08Z</time>
      </trkpt>
      <trkpt lat="46.0183" lon="1.3328">
        <ele>386</ele>
        <time>2024-04-28T10:40:10Z</time>
      </trkpt>
      <trkpt lat="46.01835" lon="1.33292">
        <ele>387</ele>
        <time>2024-04-28T10:40:17Z</time>
      </trkpt>
      <trkpt lat="46.01836" lon="1.33294">
        <ele>387</ele>
        <time>2024-04-28T10:40:18Z</time>
      </trkpt>
      <trkpt lat="46.01843" lon="1.33306">
        <ele>387.8</ele>
        <time>2024-04-28T10:40:25Z</time>
      </trkpt>
      <trkpt lat="46.01844" lon="1.33308">
        <ele>388.2</ele>
        <time>2024-04-28T10:40:26Z</time>
      </trkpt>
      <trkpt lat="46.01851" lon="1.33317">
        <ele>389.2</ele>
        <time>2024-04-28T10:40:32Z</time>
      </trkpt>
      <trkpt lat="46.01856" lon="1.33321">
        <ele>389.2</ele>
        <time>2024-04-28T10:40:35Z</time>
      </trkpt>
      <trkpt lat="46.01863" lon="1.33324">
        <ele>389.4</ele>
        <time>2024-04-28T10:40:38Z</time>
      </trkpt>
      <trkpt lat="46.01868" lon="1.33325">
        <ele>389.4</ele>
        <time>2024-04-28T10:40:40Z</time>
      </trkpt>
      <trkpt lat="46.01885" lon="1.33325">
        <ele>389.8</ele>
        <time>2024-04-28T10:40:46Z</time>
      </trkpt>
      <trkpt lat="46.01915" lon="1.33327">
        <ele>389.4</ele>
        <time>2024-04-28T10:40:54Z</time>
      </trkpt>
      <trkpt lat="46.01952" lon="1.33332">
        <ele>389.2</ele>
        <time>2024-04-28T10:41:04Z</time>
      </trkpt>
      <trkpt lat="46.01978" lon="1.33326">
        <ele>390</ele>
        <time>2024-04-28T10:41:12Z</time>
      </trkpt>
      <trkpt lat="46.01986" lon="1.33324">
        <ele>390.2</ele>
        <time>2024-04-28T10:41:15Z</time>
      </trkpt>
      <trkpt lat="46.01989" lon="1.33323">
        <ele>390.4</ele>
        <time>2024-04-28T10:41:16Z</time>
      </trkpt>
      <trkpt lat="46.01998" lon="1.33319">
        <ele>390.4</ele>
        <time>2024-04-28T10:41:19Z</time>
      </trkpt>
      <trkpt lat="46.02019" lon="1.33305">
        <ele>390</ele>
        <time>2024-04-28T10:41:25Z</time>
      </trkpt>
      <trkpt lat="46.0204" lon="1.33285">
        <ele>390.2</ele>
        <time>2024-04-28T10:41:30Z</time>
      </trkpt>
      <trkpt lat="46.02048" lon="1.33275">
        <ele>390.2</ele>
        <time>2024-04-28T10:41:31Z</time>
      </trkpt>
      <trkpt lat="46.0205" lon="1.33269">
        <ele>390.2</ele>
        <time>2024-04-28T10:41:33Z</time>
      </trkpt>
      <trkpt lat="46.02054" lon="1.33248">
        <ele>390.2</ele>
        <time>2024-04-28T10:41:36Z</time>
      </trkpt>
      <trkpt lat="46.02056" lon="1.33206">
        <ele>389.2</ele>
        <time>2024-04-28T10:41:41Z</time>
      </trkpt>
      <trkpt lat="46.02057" lon="1.33198">
        <ele>389</ele>
        <time>2024-04-28T10:41:42Z</time>
      </trkpt>
      <trkpt lat="46.02057" lon="1.33172">
        <ele>388.4</ele>
        <time>2024-04-28T10:41:45Z</time>
      </trkpt>
      <trkpt lat="46.02057" lon="1.33164">
        <ele>387.8</ele>
        <time>2024-04-28T10:41:46Z</time>
      </trkpt>
      <trkpt lat="46.02057" lon="1.33158">
        <ele>386.8</ele>
        <time>2024-04-28T10:41:47Z</time>
      </trkpt>
      <trkpt lat="46.02058" lon="1.33153">
        <ele>386.4</ele>
        <time>2024-04-28T10:41:48Z</time>
      </trkpt>
      <trkpt lat="46.02059" lon="1.33147">
        <ele>386.2</ele>
        <time>2024-04-28T10:41:50Z</time>
      </trkpt>
      <trkpt lat="46.02061" lon="1.33146">
        <ele>386</ele>
        <time>2024-04-28T10:41:51Z</time>
      </trkpt>
      <trkpt lat="46.02071" lon="1.33151">
        <ele>386.4</ele>
        <time>2024-04-28T10:41:55Z</time>
      </trkpt>
      <trkpt lat="46.02071" lon="1.33151">
        <ele>387.4</ele>
        <time>2024-04-28T10:42:01Z</time>
      </trkpt>
      <trkpt lat="46.02102" lon="1.33148">
        <ele>387.6</ele>
        <time>2024-04-28T10:42:03Z</time>
      </trkpt>
      <trkpt lat="46.02107" lon="1.33147">
        <ele>388</ele>
        <time>2024-04-28T10:42:04Z</time>
      </trkpt>
      <trkpt lat="46.02111" lon="1.33144">
        <ele>388</ele>
        <time>2024-04-28T10:42:05Z</time>
      </trkpt>
      <trkpt lat="46.02126" lon="1.33134">
        <ele>388.4</ele>
        <time>2024-04-28T10:42:08Z</time>
      </trkpt>
      <trkpt lat="46.0213" lon="1.33132">
        <ele>388.6</ele>
        <time>2024-04-28T10:42:09Z</time>
      </trkpt>
      <trkpt lat="46.02145" lon="1.33123">
        <ele>388.8</ele>
        <time>2024-04-28T10:42:13Z</time>
      </trkpt>
      <trkpt lat="46.02173" lon="1.33105">
        <ele>388.8</ele>
        <time>2024-04-28T10:42:21Z</time>
      </trkpt>
      <trkpt lat="46.02189" lon="1.33095">
        <ele>389.8</ele>
        <time>2024-04-28T10:42:27Z</time>
      </trkpt>
      <trkpt lat="46.02199" lon="1.3309">
        <ele>391</ele>
        <time>2024-04-28T10:42:31Z</time>
      </trkpt>
      <trkpt lat="46.0221" lon="1.33081">
        <ele>392</ele>
        <time>2024-04-28T10:42:35Z</time>
      </trkpt>
      <trkpt lat="46.02213" lon="1.33078">
        <ele>392.2</ele>
        <time>2024-04-28T10:42:36Z</time>
      </trkpt>
      <trkpt lat="46.0223" lon="1.33065">
        <ele>393</ele>
        <time>2024-04-28T10:42:42Z</time>
      </trkpt>
      <trkpt lat="46.02244" lon="1.33052">
        <ele>393.4</ele>
        <time>2024-04-28T10:42:48Z</time>
      </trkpt>
      <trkpt lat="46.02256" lon="1.3304">
        <ele>393.2</ele>
        <time>2024-04-28T10:42:52Z</time>
      </trkpt>
      <trkpt lat="46.02265" lon="1.33033">
        <ele>392.8</ele>
        <time>2024-04-28T10:42:54Z</time>
      </trkpt>
      <trkpt lat="46.0228" lon="1.3302">
        <ele>392.4</ele>
        <time>2024-04-28T10:42:57Z</time>
      </trkpt>
      <trkpt lat="46.02285" lon="1.33015">
        <ele>392.2</ele>
        <time>2024-04-28T10:42:58Z</time>
      </trkpt>
      <trkpt lat="46.02292" lon="1.33002">
        <ele>391.6</ele>
        <time>2024-04-28T10:43:00Z</time>
      </trkpt>
      <trkpt lat="46.02295" lon="1.32995">
        <ele>391.4</ele>
        <time>2024-04-28T10:43:01Z</time>
      </trkpt>
      <trkpt lat="46.02303" lon="1.32966">
        <ele>391.2</ele>
        <time>2024-04-28T10:43:05Z</time>
      </trkpt>
      <trkpt lat="46.02303" lon="1.32959">
        <ele>391</ele>
        <time>2024-04-28T10:43:06Z</time>
      </trkpt>
      <trkpt lat="46.02303" lon="1.32952">
        <ele>391</ele>
        <time>2024-04-28T10:43:07Z</time>
      </trkpt>
      <trkpt lat="46.023" lon="1.32939">
        <ele>390.2</ele>
        <time>2024-04-28T10:43:09Z</time>
      </trkpt>
      <trkpt lat="46.02298" lon="1.32928">
        <ele>389.2</ele>
        <time>2024-04-28T10:43:11Z</time>
      </trkpt>
      <trkpt lat="46.02298" lon="1.32922">
        <ele>388.4</ele>
        <time>2024-04-28T10:43:12Z</time>
      </trkpt>
      <trkpt lat="46.02299" lon="1.32916">
        <ele>388</ele>
        <time>2024-04-28T10:43:13Z</time>
      </trkpt>
      <trkpt lat="46.023" lon="1.32913">
        <ele>387.8</ele>
        <time>2024-04-28T10:43:14Z</time>
      </trkpt>
      <trkpt lat="46.02302" lon="1.3291">
        <ele>387.6</ele>
        <time>2024-04-28T10:43:15Z</time>
      </trkpt>
      <trkpt lat="46.02316" lon="1.32897">
        <ele>387.6</ele>
        <time>2024-04-28T10:43:20Z</time>
      </trkpt>
      <trkpt lat="46.02325" lon="1.3289">
        <ele>388</ele>
        <time>2024-04-28T10:43:23Z</time>
      </trkpt>
      <trkpt lat="46.02331" lon="1.32877">
        <ele>387.8</ele>
        <time>2024-04-28T10:43:25Z</time>
      </trkpt>
      <trkpt lat="46.02334" lon="1.3287">
        <ele>387</ele>
        <time>2024-04-28T10:43:26Z</time>
      </trkpt>
      <trkpt lat="46.02337" lon="1.32865">
        <ele>386</ele>
        <time>2024-04-28T10:43:27Z</time>
      </trkpt>
      <trkpt lat="46.02343" lon="1.32858">
        <ele>385</ele>
        <time>2024-04-28T10:43:29Z</time>
      </trkpt>
      <trkpt lat="46.02346" lon="1.32856">
        <ele>384.4</ele>
        <time>2024-04-28T10:43:30Z</time>
      </trkpt>
      <trkpt lat="46.02349" lon="1.32853">
        <ele>384</ele>
        <time>2024-04-28T10:43:31Z</time>
      </trkpt>
      <trkpt lat="46.02356" lon="1.3285">
        <ele>383.4</ele>
        <time>2024-04-28T10:43:33Z</time>
      </trkpt>
      <trkpt lat="46.02359" lon="1.32849">
        <ele>383.2</ele>
        <time>2024-04-28T10:43:34Z</time>
      </trkpt>
      <trkpt lat="46.02368" lon="1.32845">
        <ele>382.4</ele>
        <time>2024-04-28T10:43:36Z</time>
      </trkpt>
      <trkpt lat="46.02391" lon="1.32838">
        <ele>381.8</ele>
        <time>2024-04-28T10:43:41Z</time>
      </trkpt>
      <trkpt lat="46.02395" lon="1.32837">
        <ele>381</ele>
        <time>2024-04-28T10:43:43Z</time>
      </trkpt>
      <trkpt lat="46.024" lon="1.32841">
        <ele>380.4</ele>
        <time>2024-04-28T10:43:46Z</time>
      </trkpt>
      <trkpt lat="46.02401" lon="1.32843">
        <ele>380.2</ele>
        <time>2024-04-28T10:43:47Z</time>
      </trkpt>
      <trkpt lat="46.02405" lon="1.32847">
        <ele>380</ele>
        <time>2024-04-28T10:43:49Z</time>
      </trkpt>
      <trkpt lat="46.02411" lon="1.32852">
        <ele>380</ele>
        <time>2024-04-28T10:43:51Z</time>
      </trkpt>
      <trkpt lat="46.02419" lon="1.32855">
        <ele>380</ele>
        <time>2024-04-28T10:43:53Z</time>
      </trkpt>
      <trkpt lat="46.02432" lon="1.32856">
        <ele>380.6</ele>
        <time>2024-04-28T10:43:55Z</time>
      </trkpt>
      <trkpt lat="46.0245" lon="1.32852">
        <ele>381</ele>
        <time>2024-04-28T10:43:59Z</time>
      </trkpt>
      <trkpt lat="46.02453" lon="1.32852">
        <ele>381</ele>
        <time>2024-04-28T10:44:00Z</time>
      </trkpt>
      <trkpt lat="46.02464" lon="1.32847">
        <ele>379.6</ele>
        <time>2024-04-28T10:44:03Z</time>
      </trkpt>
      <trkpt lat="46.02473" lon="1.32845">
        <ele>378.4</ele>
        <time>2024-04-28T10:44:05Z</time>
      </trkpt>
      <trkpt lat="46.02476" lon="1.32844">
        <ele>378</ele>
        <time>2024-04-28T10:44:06Z</time>
      </trkpt>
      <trkpt lat="46.02479" lon="1.32843">
        <ele>377.4</ele>
        <time>2024-04-28T10:44:07Z</time>
      </trkpt>
      <trkpt lat="46.02486" lon="1.32842">
        <ele>375.8</ele>
        <time>2024-04-28T10:44:10Z</time>
      </trkpt>
      <trkpt lat="46.02487" lon="1.32842">
        <ele>375.4</ele>
        <time>2024-04-28T10:44:11Z</time>
      </trkpt>
      <trkpt lat="46.02491" lon="1.32842">
        <ele>375.2</ele>
        <time>2024-04-28T10:44:12Z</time>
      </trkpt>
      <trkpt lat="46.02498" lon="1.3284">
        <ele>374.8</ele>
        <time>2024-04-28T10:44:14Z</time>
      </trkpt>
      <trkpt lat="46.02506" lon="1.32833">
        <ele>375.2</ele>
        <time>2024-04-28T10:44:18Z</time>
      </trkpt>
      <trkpt lat="46.0251" lon="1.32823">
        <ele>375.8</ele>
        <time>2024-04-28T10:44:23Z</time>
      </trkpt>
      <trkpt lat="46.02512" lon="1.32818">
        <ele>376</ele>
        <time>2024-04-28T10:44:25Z</time>
      </trkpt>
      <trkpt lat="46.02519" lon="1.32809">
        <ele>377</ele>
        <time>2024-04-28T10:44:29Z</time>
      </trkpt>
      <trkpt lat="46.02529" lon="1.328">
        <ele>378.2</ele>
        <time>2024-04-28T10:44:35Z</time>
      </trkpt>
      <trkpt lat="46.02531" lon="1.32799">
        <ele>378.4</ele>
        <time>2024-04-28T10:44:36Z</time>
      </trkpt>
      <trkpt lat="46.0254" lon="1.32792">
        <ele>379.2</ele>
        <time>2024-04-28T10:44:41Z</time>
      </trkpt>
      <trkpt lat="46.02544" lon="1.3279">
        <ele>380</ele>
        <time>2024-04-28T10:44:44Z</time>
      </trkpt>
      <trkpt lat="46.02545" lon="1.32789">
        <ele>380.2</ele>
        <time>2024-04-28T10:44:45Z</time>
      </trkpt>
      <trkpt lat="46.02548" lon="1.32786">
        <ele>380.6</ele>
        <time>2024-04-28T10:44:48Z</time>
      </trkpt>
      <trkpt lat="46.02552" lon="1.32783">
        <ele>381.4</ele>
        <time>2024-04-28T10:44:51Z</time>
      </trkpt>
      <trkpt lat="46.0256" lon="1.32777">
        <ele>382.6</ele>
        <time>2024-04-28T10:44:57Z</time>
      </trkpt>
      <trkpt lat="46.0257" lon="1.32772">
        <ele>383.8</ele>
        <time>2024-04-28T10:45:04Z</time>
      </trkpt>
      <trkpt lat="46.02572" lon="1.3277">
        <ele>384.4</ele>
        <time>2024-04-28T10:45:06Z</time>
      </trkpt>
      <trkpt lat="46.02575" lon="1.32768">
        <ele>385.2</ele>
        <time>2024-04-28T10:45:08Z</time>
      </trkpt>
      <trkpt lat="46.02585" lon="1.3276">
        <ele>386.2</ele>
        <time>2024-04-28T10:45:15Z</time>
      </trkpt>
      <trkpt lat="46.02589" lon="1.32756">
        <ele>386.4</ele>
        <time>2024-04-28T10:45:18Z</time>
      </trkpt>
      <trkpt lat="46.02595" lon="1.3275">
        <ele>387.2</ele>
        <time>2024-04-28T10:45:23Z</time>
      </trkpt>
      <trkpt lat="46.02611" lon="1.32738">
        <ele>387.6</ele>
        <time>2024-04-28T10:45:30Z</time>
      </trkpt>
      <trkpt lat="46.02626" lon="1.32727">
        <ele>387.4</ele>
        <time>2024-04-28T10:45:36Z</time>
      </trkpt>
      <trkpt lat="46.0264" lon="1.32722">
        <ele>387.6</ele>
        <time>2024-04-28T10:45:41Z</time>
      </trkpt>
      <trkpt lat="46.02658" lon="1.32715">
        <ele>387.2</ele>
        <time>2024-04-28T10:45:45Z</time>
      </trkpt>
      <trkpt lat="46.0267" lon="1.32709">
        <ele>386.6</ele>
        <time>2024-04-28T10:45:48Z</time>
      </trkpt>
      <trkpt lat="46.0268" lon="1.32708">
        <ele>386.4</ele>
        <time>2024-04-28T10:45:50Z</time>
      </trkpt>
      <trkpt lat="46.02685" lon="1.32706">
        <ele>386.2</ele>
        <time>2024-04-28T10:45:51Z</time>
      </trkpt>
      <trkpt lat="46.02695" lon="1.32702">
        <ele>386.2</ele>
        <time>2024-04-28T10:45:53Z</time>
      </trkpt>
      <trkpt lat="46.02705" lon="1.32696">
        <ele>386.2</ele>
        <time>2024-04-28T10:45:55Z</time>
      </trkpt>
      <trkpt lat="46.02709" lon="1.32693">
        <ele>386.2</ele>
        <time>2024-04-28T10:45:56Z</time>
      </trkpt>
      <trkpt lat="46.02717" lon="1.32687">
        <ele>386.2</ele>
        <time>2024-04-28T10:45:58Z</time>
      </trkpt>
      <trkpt lat="46.02726" lon="1.3268">
        <ele>387</ele>
        <time>2024-04-28T10:46:01Z</time>
      </trkpt>
      <trkpt lat="46.02731" lon="1.32679">
        <ele>387.2</ele>
        <time>2024-04-28T10:46:03Z</time>
      </trkpt>
      <trkpt lat="46.0274" lon="1.32679">
        <ele>387.4</ele>
        <time>2024-04-28T10:46:06Z</time>
      </trkpt>
      <trkpt lat="46.02747" lon="1.32681">
        <ele>387.8</ele>
        <time>2024-04-28T10:46:09Z</time>
      </trkpt>
      <trkpt lat="46.0275" lon="1.32682">
        <ele>388.6</ele>
        <time>2024-04-28T10:46:11Z</time>
      </trkpt>
      <trkpt lat="46.02756" lon="1.32685">
        <ele>389.8</ele>
        <time>2024-04-28T10:46:15Z</time>
      </trkpt>
      <trkpt lat="46.02764" lon="1.3269">
        <ele>390.6</ele>
        <time>2024-04-28T10:46:20Z</time>
      </trkpt>
      <trkpt lat="46.02766" lon="1.32691">
        <ele>390.8</ele>
        <time>2024-04-28T10:46:21Z</time>
      </trkpt>
      <trkpt lat="46.02773" lon="1.32696">
        <ele>391.8</ele>
        <time>2024-04-28T10:46:26Z</time>
      </trkpt>
      <trkpt lat="46.02774" lon="1.32696">
        <ele>391.8</ele>
        <time>2024-04-28T10:46:27Z</time>
      </trkpt>
      <trkpt lat="46.02776" lon="1.32697">
        <ele>392.2</ele>
        <time>2024-04-28T10:46:28Z</time>
      </trkpt>
      <trkpt lat="46.02779" lon="1.327">
        <ele>392.8</ele>
        <time>2024-04-28T10:46:30Z</time>
      </trkpt>
      <trkpt lat="46.02782" lon="1.32703">
        <ele>393.4</ele>
        <time>2024-04-28T10:46:33Z</time>
      </trkpt>
      <trkpt lat="46.02784" lon="1.32704">
        <ele>393.6</ele>
        <time>2024-04-28T10:46:34Z</time>
      </trkpt>
      <trkpt lat="46.02789" lon="1.32707">
        <ele>394.4</ele>
        <time>2024-04-28T10:46:38Z</time>
      </trkpt>
      <trkpt lat="46.02792" lon="1.32709">
        <ele>394.6</ele>
        <time>2024-04-28T10:46:40Z</time>
      </trkpt>
      <trkpt lat="46.02794" lon="1.3271">
        <ele>394.8</ele>
        <time>2024-04-28T10:46:41Z</time>
      </trkpt>
      <trkpt lat="46.02799" lon="1.32712">
        <ele>394.8</ele>
        <time>2024-04-28T10:46:43Z</time>
      </trkpt>
      <trkpt lat="46.02803" lon="1.32716">
        <ele>395.6</ele>
        <time>2024-04-28T10:46:46Z</time>
      </trkpt>
      <trkpt lat="46.02809" lon="1.32719">
        <ele>396.8</ele>
        <time>2024-04-28T10:46:50Z</time>
      </trkpt>
      <trkpt lat="46.02811" lon="1.3272">
        <ele>397</ele>
        <time>2024-04-28T10:46:51Z</time>
      </trkpt>
      <trkpt lat="46.02811" lon="1.3272">
        <ele>398</ele>
        <time>2024-04-28T10:47:00Z</time>
      </trkpt>
      <trkpt lat="46.02829" lon="1.32734">
        <ele>398.4</ele>
        <time>2024-04-28T10:47:03Z</time>
      </trkpt>
      <trkpt lat="46.02831" lon="1.32738">
        <ele>398.6</ele>
        <time>2024-04-28T10:47:06Z</time>
      </trkpt>
      <trkpt lat="46.02835" lon="1.32741">
        <ele>399</ele>
        <time>2024-04-28T10:47:09Z</time>
      </trkpt>
      <trkpt lat="46.02837" lon="1.32742">
        <ele>399.2</ele>
        <time>2024-04-28T10:47:10Z</time>
      </trkpt>
      <trkpt lat="46.02845" lon="1.32751">
        <ele>400</ele>
        <time>2024-04-28T10:47:16Z</time>
      </trkpt>
      <trkpt lat="46.02849" lon="1.32754">
        <ele>400.2</ele>
        <time>2024-04-28T10:47:17Z</time>
      </trkpt>
      <trkpt lat="46.02863" lon="1.32763">
        <ele>401.2</ele>
        <time>2024-04-28T10:47:25Z</time>
      </trkpt>
      <trkpt lat="46.02875" lon="1.3277">
        <ele>401.8</ele>
        <time>2024-04-28T10:47:30Z</time>
      </trkpt>
      <trkpt lat="46.02877" lon="1.3277">
        <ele>402.2</ele>
        <time>2024-04-28T10:47:31Z</time>
      </trkpt>
      <trkpt lat="46.02879" lon="1.3277">
        <ele>402.4</ele>
        <time>2024-04-28T10:47:32Z</time>
      </trkpt>
      <trkpt lat="46.0288" lon="1.32769">
        <ele>402.4</ele>
        <time>2024-04-28T10:47:33Z</time>
      </trkpt>
      <trkpt lat="46.0288" lon="1.32763">
        <ele>402.6</ele>
        <time>2024-04-28T10:47:35Z</time>
      </trkpt>
      <trkpt lat="46.02875" lon="1.32752">
        <ele>401.2</ele>
        <time>2024-04-28T10:47:38Z</time>
      </trkpt>
      <trkpt lat="46.02873" lon="1.32749">
        <ele>400</ele>
        <time>2024-04-28T10:47:39Z</time>
      </trkpt>
      <trkpt lat="46.0287" lon="1.32742">
        <ele>398.6</ele>
        <time>2024-04-28T10:47:41Z</time>
      </trkpt>
      <trkpt lat="46.02869" lon="1.32738">
        <ele>398</ele>
        <time>2024-04-28T10:47:42Z</time>
      </trkpt>
      <trkpt lat="46.02868" lon="1.32733">
        <ele>396.8</ele>
        <time>2024-04-28T10:47:43Z</time>
      </trkpt>
      <trkpt lat="46.02867" lon="1.32727">
        <ele>396</ele>
        <time>2024-04-28T10:47:44Z</time>
      </trkpt>
      <trkpt lat="46.02867" lon="1.32721">
        <ele>395.2</ele>
        <time>2024-04-28T10:47:45Z</time>
      </trkpt>
      <trkpt lat="46.02866" lon="1.32713">
        <ele>394</ele>
        <time>2024-04-28T10:47:47Z</time>
      </trkpt>
      <trkpt lat="46.02865" lon="1.3271">
        <ele>393.6</ele>
        <time>2024-04-28T10:47:48Z</time>
      </trkpt>
      <trkpt lat="46.02863" lon="1.32707">
        <ele>393.4</ele>
        <time>2024-04-28T10:47:49Z</time>
      </trkpt>
      <trkpt lat="46.0286" lon="1.327">
        <ele>393</ele>
        <time>2024-04-28T10:47:51Z</time>
      </trkpt>
      <trkpt lat="46.02858" lon="1.32692">
        <ele>391.4</ele>
        <time>2024-04-28T10:47:53Z</time>
      </trkpt>
      <trkpt lat="46.02856" lon="1.32687">
        <ele>390.6</ele>
        <time>2024-04-28T10:47:54Z</time>
      </trkpt>
      <trkpt lat="46.02854" lon="1.32683">
        <ele>389.4</ele>
        <time>2024-04-28T10:47:55Z</time>
      </trkpt>
      <trkpt lat="46.02852" lon="1.32679">
        <ele>388</ele>
        <time>2024-04-28T10:47:56Z</time>
      </trkpt>
      <trkpt lat="46.02847" lon="1.32671">
        <ele>386.6</ele>
        <time>2024-04-28T10:47:58Z</time>
      </trkpt>
      <trkpt lat="46.02845" lon="1.32667">
        <ele>385.4</ele>
        <time>2024-04-28T10:47:59Z</time>
      </trkpt>
      <trkpt lat="46.02844" lon="1.32664">
        <ele>384.8</ele>
        <time>2024-04-28T10:48:00Z</time>
      </trkpt>
      <trkpt lat="46.02842" lon="1.32661">
        <ele>384.2</ele>
        <time>2024-04-28T10:48:01Z</time>
      </trkpt>
      <trkpt lat="46.0284" lon="1.32659">
        <ele>383.8</ele>
        <time>2024-04-28T10:48:02Z</time>
      </trkpt>
      <trkpt lat="46.02837" lon="1.32653">
        <ele>382.4</ele>
        <time>2024-04-28T10:48:03Z</time>
      </trkpt>
      <trkpt lat="46.02834" lon="1.32646">
        <ele>380.8</ele>
        <time>2024-04-28T10:48:04Z</time>
      </trkpt>
      <trkpt lat="46.02827" lon="1.3263">
        <ele>379.4</ele>
        <time>2024-04-28T10:48:07Z</time>
      </trkpt>
      <trkpt lat="46.02824" lon="1.32625">
        <ele>378</ele>
        <time>2024-04-28T10:48:08Z</time>
      </trkpt>
      <trkpt lat="46.02822" lon="1.32619">
        <ele>377.2</ele>
        <time>2024-04-28T10:48:09Z</time>
      </trkpt>
      <trkpt lat="46.02819" lon="1.32612">
        <ele>376.8</ele>
        <time>2024-04-28T10:48:10Z</time>
      </trkpt>
      <trkpt lat="46.02816" lon="1.32606">
        <ele>375.8</ele>
        <time>2024-04-28T10:48:11Z</time>
      </trkpt>
      <trkpt lat="46.02815" lon="1.326">
        <ele>374.4</ele>
        <time>2024-04-28T10:48:12Z</time>
      </trkpt>
      <trkpt lat="46.02815" lon="1.32594">
        <ele>373.4</ele>
        <time>2024-04-28T10:48:13Z</time>
      </trkpt>
      <trkpt lat="46.02816" lon="1.32587">
        <ele>372.6</ele>
        <time>2024-04-28T10:48:14Z</time>
      </trkpt>
      <trkpt lat="46.02818" lon="1.32579">
        <ele>372</ele>
        <time>2024-04-28T10:48:15Z</time>
      </trkpt>
      <trkpt lat="46.02819" lon="1.32571">
        <ele>371</ele>
        <time>2024-04-28T10:48:16Z</time>
      </trkpt>
      <trkpt lat="46.0282" lon="1.32562">
        <ele>369.8</ele>
        <time>2024-04-28T10:48:17Z</time>
      </trkpt>
      <trkpt lat="46.02823" lon="1.32555">
        <ele>369</ele>
        <time>2024-04-28T10:48:18Z</time>
      </trkpt>
      <trkpt lat="46.02825" lon="1.32547">
        <ele>368.4</ele>
        <time>2024-04-28T10:48:19Z</time>
      </trkpt>
      <trkpt lat="46.02827" lon="1.3254">
        <ele>368</ele>
        <time>2024-04-28T10:48:20Z</time>
      </trkpt>
      <trkpt lat="46.0283" lon="1.32534">
        <ele>367.2</ele>
        <time>2024-04-28T10:48:21Z</time>
      </trkpt>
      <trkpt lat="46.02833" lon="1.32528">
        <ele>367</ele>
        <time>2024-04-28T10:48:22Z</time>
      </trkpt>
      <trkpt lat="46.02836" lon="1.32524">
        <ele>366.4</ele>
        <time>2024-04-28T10:48:23Z</time>
      </trkpt>
      <trkpt lat="46.02839" lon="1.32519">
        <ele>366.2</ele>
        <time>2024-04-28T10:48:24Z</time>
      </trkpt>
      <trkpt lat="46.02841" lon="1.32514">
        <ele>366</ele>
        <time>2024-04-28T10:48:25Z</time>
      </trkpt>
      <trkpt lat="46.02844" lon="1.32503">
        <ele>365.8</ele>
        <time>2024-04-28T10:48:27Z</time>
      </trkpt>
      <trkpt lat="46.02844" lon="1.32488">
        <ele>365.6</ele>
        <time>2024-04-28T10:48:31Z</time>
      </trkpt>
      <trkpt lat="46.02841" lon="1.32466">
        <ele>366</ele>
        <time>2024-04-28T10:48:38Z</time>
      </trkpt>
      <trkpt lat="46.02839" lon="1.32465">
        <ele>366.2</ele>
        <time>2024-04-28T10:48:39Z</time>
      </trkpt>
      <trkpt lat="46.02829" lon="1.32454">
        <ele>366.8</ele>
        <time>2024-04-28T10:48:44Z</time>
      </trkpt>
      <trkpt lat="46.02823" lon="1.32442">
        <ele>367.4</ele>
        <time>2024-04-28T10:48:48Z</time>
      </trkpt>
      <trkpt lat="46.02821" lon="1.32439">
        <ele>367.8</ele>
        <time>2024-04-28T10:48:49Z</time>
      </trkpt>
      <trkpt lat="46.02816" lon="1.32434">
        <ele>368.4</ele>
        <time>2024-04-28T10:48:51Z</time>
      </trkpt>
      <trkpt lat="46.02808" lon="1.32422">
        <ele>369</ele>
        <time>2024-04-28T10:48:56Z</time>
      </trkpt>
      <trkpt lat="46.028" lon="1.32411">
        <ele>369.4</ele>
        <time>2024-04-28T10:49:00Z</time>
      </trkpt>
      <trkpt lat="46.02792" lon="1.32401">
        <ele>369.6</ele>
        <time>2024-04-28T10:49:05Z</time>
      </trkpt>
      <trkpt lat="46.02781" lon="1.32388">
        <ele>370.2</ele>
        <time>2024-04-28T10:49:11Z</time>
      </trkpt>
      <trkpt lat="46.02778" lon="1.32384">
        <ele>370.4</ele>
        <time>2024-04-28T10:49:13Z</time>
      </trkpt>
      <trkpt lat="46.02771" lon="1.32379">
        <ele>371</ele>
        <time>2024-04-28T10:49:17Z</time>
      </trkpt>
      <trkpt lat="46.02767" lon="1.32375">
        <ele>371.6</ele>
        <time>2024-04-28T10:49:20Z</time>
      </trkpt>
      <trkpt lat="46.02755" lon="1.32368">
        <ele>372.6</ele>
        <time>2024-04-28T10:49:25Z</time>
      </trkpt>
      <trkpt lat="46.02753" lon="1.32367">
        <ele>372.8</ele>
        <time>2024-04-28T10:49:26Z</time>
      </trkpt>
      <trkpt lat="46.02742" lon="1.32363">
        <ele>373.4</ele>
        <time>2024-04-28T10:49:31Z</time>
      </trkpt>
      <trkpt lat="46.02737" lon="1.32361">
        <ele>373.6</ele>
        <time>2024-04-28T10:49:33Z</time>
      </trkpt>
      <trkpt lat="46.02727" lon="1.32359">
        <ele>374.4</ele>
        <time>2024-04-28T10:49:38Z</time>
      </trkpt>
      <trkpt lat="46.02717" lon="1.32354">
        <ele>374.6</ele>
        <time>2024-04-28T10:49:44Z</time>
      </trkpt>
      <trkpt lat="46.02715" lon="1.32352">
        <ele>374.6</ele>
        <time>2024-04-28T10:49:45Z</time>
      </trkpt>
      <trkpt lat="46.02708" lon="1.32337">
        <ele>375.6</ele>
        <time>2024-04-28T10:49:50Z</time>
      </trkpt>
      <trkpt lat="46.02703" lon="1.3233">
        <ele>375.8</ele>
        <time>2024-04-28T10:49:52Z</time>
      </trkpt>
      <trkpt lat="46.02694" lon="1.32314">
        <ele>376.2</ele>
        <time>2024-04-28T10:49:56Z</time>
      </trkpt>
      <trkpt lat="46.02685" lon="1.32284">
        <ele>376.8</ele>
        <time>2024-04-28T10:50:02Z</time>
      </trkpt>
      <trkpt lat="46.02679" lon="1.32244">
        <ele>376.2</ele>
        <time>2024-04-28T10:50:09Z</time>
      </trkpt>
      <trkpt lat="46.0267" lon="1.32202">
        <ele>374.8</ele>
        <time>2024-04-28T10:50:15Z</time>
      </trkpt>
      <trkpt lat="46.0266" lon="1.32159">
        <ele>373.8</ele>
        <time>2024-04-28T10:50:20Z</time>
      </trkpt>
      <trkpt lat="46.02659" lon="1.32149">
        <ele>373.6</ele>
        <time>2024-04-28T10:50:21Z</time>
      </trkpt>
      <trkpt lat="46.02652" lon="1.32106">
        <ele>373.4</ele>
        <time>2024-04-28T10:50:26Z</time>
      </trkpt>
      <trkpt lat="46.0265" lon="1.32091">
        <ele>373.2</ele>
        <time>2024-04-28T10:50:28Z</time>
      </trkpt>
      <trkpt lat="46.02643" lon="1.32068">
        <ele>373</ele>
        <time>2024-04-28T10:50:31Z</time>
      </trkpt>
      <trkpt lat="46.02639" lon="1.32061">
        <ele>373</ele>
        <time>2024-04-28T10:50:32Z</time>
      </trkpt>
      <trkpt lat="46.0263" lon="1.32046">
        <ele>372.6</ele>
        <time>2024-04-28T10:50:34Z</time>
      </trkpt>
      <trkpt lat="46.02626" lon="1.3204">
        <ele>372.2</ele>
        <time>2024-04-28T10:50:35Z</time>
      </trkpt>
      <trkpt lat="46.02619" lon="1.3203">
        <ele>371</ele>
        <time>2024-04-28T10:50:37Z</time>
      </trkpt>
      <trkpt lat="46.02617" lon="1.32026">
        <ele>370.2</ele>
        <time>2024-04-28T10:50:38Z</time>
      </trkpt>
      <trkpt lat="46.02617" lon="1.32026">
        <ele>368.8</ele>
        <time>2024-04-28T10:50:39Z</time>
      </trkpt>
      <trkpt lat="46.02619" lon="1.32012">
        <ele>368.2</ele>
        <time>2024-04-28T10:50:41Z</time>
      </trkpt>
      <trkpt lat="46.02619" lon="1.32008">
        <ele>367</ele>
        <time>2024-04-28T10:50:42Z</time>
      </trkpt>
      <trkpt lat="46.02618" lon="1.32002">
        <ele>366.6</ele>
        <time>2024-04-28T10:50:44Z</time>
      </trkpt>
      <trkpt lat="46.02617" lon="1.31998">
        <ele>365.8</ele>
        <time>2024-04-28T10:50:46Z</time>
      </trkpt>
      <trkpt lat="46.02617" lon="1.31992">
        <ele>364.6</ele>
        <time>2024-04-28T10:50:48Z</time>
      </trkpt>
      <trkpt lat="46.02614" lon="1.31985">
        <ele>364</ele>
        <time>2024-04-28T10:50:50Z</time>
      </trkpt>
      <trkpt lat="46.02612" lon="1.31975">
        <ele>363.6</ele>
        <time>2024-04-28T10:50:52Z</time>
      </trkpt>
      <trkpt lat="46.02612" lon="1.31966">
        <ele>362.6</ele>
        <time>2024-04-28T10:50:54Z</time>
      </trkpt>
      <trkpt lat="46.02612" lon="1.31961">
        <ele>362.2</ele>
        <time>2024-04-28T10:50:55Z</time>
      </trkpt>
      <trkpt lat="46.02613" lon="1.31957">
        <ele>361.6</ele>
        <time>2024-04-28T10:50:56Z</time>
      </trkpt>
      <trkpt lat="46.02613" lon="1.3195">
        <ele>360</ele>
        <time>2024-04-28T10:50:58Z</time>
      </trkpt>
      <trkpt lat="46.02613" lon="1.31947">
        <ele>359.4</ele>
        <time>2024-04-28T10:50:59Z</time>
      </trkpt>
      <trkpt lat="46.02613" lon="1.31943">
        <ele>358.8</ele>
        <time>2024-04-28T10:51:00Z</time>
      </trkpt>
      <trkpt lat="46.02613" lon="1.31932">
        <ele>357.8</ele>
        <time>2024-04-28T10:51:03Z</time>
      </trkpt>
      <trkpt lat="46.02612" lon="1.31925">
        <ele>357.6</ele>
        <time>2024-04-28T10:51:05Z</time>
      </trkpt>
      <trkpt lat="46.02611" lon="1.31923">
        <ele>357.6</ele>
        <time>2024-04-28T10:51:06Z</time>
      </trkpt>
      <trkpt lat="46.0261" lon="1.31921">
        <ele>357.4</ele>
        <time>2024-04-28T10:51:07Z</time>
      </trkpt>
      <trkpt lat="46.02605" lon="1.31917">
        <ele>356.8</ele>
        <time>2024-04-28T10:51:10Z</time>
      </trkpt>
      <trkpt lat="46.02603" lon="1.31915">
        <ele>356.2</ele>
        <time>2024-04-28T10:51:11Z</time>
      </trkpt>
      <trkpt lat="46.02602" lon="1.31913">
        <ele>356</ele>
        <time>2024-04-28T10:51:12Z</time>
      </trkpt>
      <trkpt lat="46.02601" lon="1.3191">
        <ele>355.4</ele>
        <time>2024-04-28T10:51:13Z</time>
      </trkpt>
      <trkpt lat="46.02601" lon="1.31907">
        <ele>354.8</ele>
        <time>2024-04-28T10:51:14Z</time>
      </trkpt>
      <trkpt lat="46.02601" lon="1.31904">
        <ele>354.2</ele>
        <time>2024-04-28T10:51:15Z</time>
      </trkpt>
      <trkpt lat="46.02609" lon="1.3189">
        <ele>353.2</ele>
        <time>2024-04-28T10:51:20Z</time>
      </trkpt>
      <trkpt lat="46.02622" lon="1.31866">
        <ele>353.4</ele>
        <time>2024-04-28T10:51:26Z</time>
      </trkpt>
      <trkpt lat="46.02624" lon="1.31854">
        <ele>353.4</ele>
        <time>2024-04-28T10:51:28Z</time>
      </trkpt>
      <trkpt lat="46.02626" lon="1.31844">
        <ele>353.4</ele>
        <time>2024-04-28T10:51:30Z</time>
      </trkpt>
      <trkpt lat="46.02626" lon="1.3184">
        <ele>353.4</ele>
        <time>2024-04-28T10:51:31Z</time>
      </trkpt>
      <trkpt lat="46.02625" lon="1.31821">
        <ele>354.4</ele>
        <time>2024-04-28T10:51:36Z</time>
      </trkpt>
      <trkpt lat="46.02626" lon="1.31818">
        <ele>354.6</ele>
        <time>2024-04-28T10:51:37Z</time>
      </trkpt>
      <trkpt lat="46.0263" lon="1.31815">
        <ele>355.2</ele>
        <time>2024-04-28T10:51:39Z</time>
      </trkpt>
      <trkpt lat="46.02634" lon="1.31812">
        <ele>356.2</ele>
        <time>2024-04-28T10:51:41Z</time>
      </trkpt>
      <trkpt lat="46.02639" lon="1.3181">
        <ele>356.4</ele>
        <time>2024-04-28T10:51:43Z</time>
      </trkpt>
      <trkpt lat="46.02645" lon="1.31811">
        <ele>356</ele>
        <time>2024-04-28T10:51:46Z</time>
      </trkpt>
      <trkpt lat="46.02659" lon="1.31808">
        <ele>356.8</ele>
        <time>2024-04-28T10:51:53Z</time>
      </trkpt>
      <trkpt lat="46.02673" lon="1.31793">
        <ele>357.2</ele>
        <time>2024-04-28T10:51:59Z</time>
      </trkpt>
      <trkpt lat="46.02684" lon="1.31781">
        <ele>357.4</ele>
        <time>2024-04-28T10:52:03Z</time>
      </trkpt>
      <trkpt lat="46.02693" lon="1.31773">
        <ele>358</ele>
        <time>2024-04-28T10:52:06Z</time>
      </trkpt>
      <trkpt lat="46.02702" lon="1.31761">
        <ele>358.4</ele>
        <time>2024-04-28T10:52:10Z</time>
      </trkpt>
      <trkpt lat="46.02709" lon="1.31751">
        <ele>358.6</ele>
        <time>2024-04-28T10:52:13Z</time>
      </trkpt>
      <trkpt lat="46.02716" lon="1.31734">
        <ele>359.6</ele>
        <time>2024-04-28T10:52:18Z</time>
      </trkpt>
      <trkpt lat="46.02718" lon="1.31732">
        <ele>359.6</ele>
        <time>2024-04-28T10:52:19Z</time>
      </trkpt>
      <trkpt lat="46.02725" lon="1.3171">
        <ele>360</ele>
        <time>2024-04-28T10:52:26Z</time>
      </trkpt>
      <trkpt lat="46.0273" lon="1.31701">
        <ele>360.6</ele>
        <time>2024-04-28T10:52:29Z</time>
      </trkpt>
      <trkpt lat="46.02735" lon="1.31692">
        <ele>361</ele>
        <time>2024-04-28T10:52:33Z</time>
      </trkpt>
      <trkpt lat="46.02741" lon="1.31682">
        <ele>361.8</ele>
        <time>2024-04-28T10:52:37Z</time>
      </trkpt>
      <trkpt lat="46.02744" lon="1.31679">
        <ele>362</ele>
        <time>2024-04-28T10:52:39Z</time>
      </trkpt>
      <trkpt lat="46.02748" lon="1.31672">
        <ele>362.8</ele>
        <time>2024-04-28T10:52:42Z</time>
      </trkpt>
      <trkpt lat="46.02753" lon="1.31663">
        <ele>363.8</ele>
        <time>2024-04-28T10:52:47Z</time>
      </trkpt>
      <trkpt lat="46.02754" lon="1.31662">
        <ele>364</ele>
        <time>2024-04-28T10:52:48Z</time>
      </trkpt>
      <trkpt lat="46.02757" lon="1.31658">
        <ele>364.6</ele>
        <time>2024-04-28T10:52:51Z</time>
      </trkpt>
      <trkpt lat="46.02759" lon="1.31655">
        <ele>365.2</ele>
        <time>2024-04-28T10:52:53Z</time>
      </trkpt>
      <trkpt lat="46.02762" lon="1.3165">
        <ele>365.6</ele>
        <time>2024-04-28T10:52:56Z</time>
      </trkpt>
      <trkpt lat="46.02769" lon="1.31639">
        <ele>366.2</ele>
        <time>2024-04-28T10:53:01Z</time>
      </trkpt>
      <trkpt lat="46.02775" lon="1.31626">
        <ele>367.2</ele>
        <time>2024-04-28T10:53:07Z</time>
      </trkpt>
      <trkpt lat="46.02777" lon="1.31623">
        <ele>367.4</ele>
        <time>2024-04-28T10:53:09Z</time>
      </trkpt>
      <trkpt lat="46.02782" lon="1.31615">
        <ele>368.4</ele>
        <time>2024-04-28T10:53:14Z</time>
      </trkpt>
      <trkpt lat="46.02783" lon="1.31613">
        <ele>368.6</ele>
        <time>2024-04-28T10:53:15Z</time>
      </trkpt>
      <trkpt lat="46.0279" lon="1.316">
        <ele>369.2</ele>
        <time>2024-04-28T10:53:20Z</time>
      </trkpt>
      <trkpt lat="46.02798" lon="1.3159">
        <ele>369.2</ele>
        <time>2024-04-28T10:53:25Z</time>
      </trkpt>
      <trkpt lat="46.02803" lon="1.31587">
        <ele>368.4</ele>
        <time>2024-04-28T10:53:28Z</time>
      </trkpt>
      <trkpt lat="46.02807" lon="1.31587">
        <ele>368</ele>
        <time>2024-04-28T10:53:30Z</time>
      </trkpt>
      <trkpt lat="46.02816" lon="1.31578">
        <ele>367.8</ele>
        <time>2024-04-28T10:53:36Z</time>
      </trkpt>
      <trkpt lat="46.02827" lon="1.31567">
        <ele>369.4</ele>
        <time>2024-04-28T10:53:43Z</time>
      </trkpt>
      <trkpt lat="46.0283" lon="1.31562">
        <ele>369.6</ele>
        <time>2024-04-28T10:53:46Z</time>
      </trkpt>
      <trkpt lat="46.02835" lon="1.31553">
        <ele>370.6</ele>
        <time>2024-04-28T10:53:50Z</time>
      </trkpt>
      <trkpt lat="46.02843" lon="1.31543">
        <ele>371.8</ele>
        <time>2024-04-28T10:53:55Z</time>
      </trkpt>
      <trkpt lat="46.02847" lon="1.31538">
        <ele>372</ele>
        <time>2024-04-28T10:53:57Z</time>
      </trkpt>
      <trkpt lat="46.02865" lon="1.31523">
        <ele>372.2</ele>
        <time>2024-04-28T10:54:03Z</time>
      </trkpt>
      <trkpt lat="46.02877" lon="1.31514">
        <ele>372</ele>
        <time>2024-04-28T10:54:06Z</time>
      </trkpt>
      <trkpt lat="46.02885" lon="1.31505">
        <ele>371.6</ele>
        <time>2024-04-28T10:54:08Z</time>
      </trkpt>
      <trkpt lat="46.02894" lon="1.31488">
        <ele>371.2</ele>
        <time>2024-04-28T10:54:11Z</time>
      </trkpt>
      <trkpt lat="46.02899" lon="1.31475">
        <ele>371</ele>
        <time>2024-04-28T10:54:13Z</time>
      </trkpt>
      <trkpt lat="46.02901" lon="1.31467">
        <ele>370.4</ele>
        <time>2024-04-28T10:54:14Z</time>
      </trkpt>
      <trkpt lat="46.02905" lon="1.31449">
        <ele>369.2</ele>
        <time>2024-04-28T10:54:16Z</time>
      </trkpt>
      <trkpt lat="46.02906" lon="1.31438">
        <ele>368.4</ele>
        <time>2024-04-28T10:54:17Z</time>
      </trkpt>
      <trkpt lat="46.02907" lon="1.31425">
        <ele>367.8</ele>
        <time>2024-04-28T10:54:18Z</time>
      </trkpt>
      <trkpt lat="46.02907" lon="1.31387">
        <ele>366.6</ele>
        <time>2024-04-28T10:54:21Z</time>
      </trkpt>
      <trkpt lat="46.02906" lon="1.31375">
        <ele>365.6</ele>
        <time>2024-04-28T10:54:22Z</time>
      </trkpt>
      <trkpt lat="46.02904" lon="1.31363">
        <ele>364.6</ele>
        <time>2024-04-28T10:54:23Z</time>
      </trkpt>
      <trkpt lat="46.02896" lon="1.3133">
        <ele>363.2</ele>
        <time>2024-04-28T10:54:26Z</time>
      </trkpt>
      <trkpt lat="46.02893" lon="1.31321">
        <ele>363</ele>
        <time>2024-04-28T10:54:27Z</time>
      </trkpt>
      <trkpt lat="46.02884" lon="1.31296">
        <ele>362</ele>
        <time>2024-04-28T10:54:30Z</time>
      </trkpt>
      <trkpt lat="46.0288" lon="1.31281">
        <ele>361.8</ele>
        <time>2024-04-28T10:54:32Z</time>
      </trkpt>
      <trkpt lat="46.02881" lon="1.3127">
        <ele>361.6</ele>
        <time>2024-04-28T10:54:34Z</time>
      </trkpt>
      <trkpt lat="46.02882" lon="1.31266">
        <ele>361.6</ele>
        <time>2024-04-28T10:54:35Z</time>
      </trkpt>
      <trkpt lat="46.02885" lon="1.31263">
        <ele>361.6</ele>
        <time>2024-04-28T10:54:36Z</time>
      </trkpt>
      <trkpt lat="46.02894" lon="1.31258">
        <ele>361.4</ele>
        <time>2024-04-28T10:54:38Z</time>
      </trkpt>
      <trkpt lat="46.02915" lon="1.31252">
        <ele>361</ele>
        <time>2024-04-28T10:54:42Z</time>
      </trkpt>
      <trkpt lat="46.02922" lon="1.31251">
        <ele>360.8</ele>
        <time>2024-04-28T10:54:43Z</time>
      </trkpt>
      <trkpt lat="46.02935" lon="1.31246">
        <ele>359.8</ele>
        <time>2024-04-28T10:54:45Z</time>
      </trkpt>
      <trkpt lat="46.02955" lon="1.31233">
        <ele>359.2</ele>
        <time>2024-04-28T10:54:48Z</time>
      </trkpt>
      <trkpt lat="46.02966" lon="1.31222">
        <ele>358.8</ele>
        <time>2024-04-28T10:54:50Z</time>
      </trkpt>
      <trkpt lat="46.0297" lon="1.31215">
        <ele>358.4</ele>
        <time>2024-04-28T10:54:51Z</time>
      </trkpt>
      <trkpt lat="46.02974" lon="1.31207">
        <ele>358.2</ele>
        <time>2024-04-28T10:54:52Z</time>
      </trkpt>
      <trkpt lat="46.02977" lon="1.31188">
        <ele>357.8</ele>
        <time>2024-04-28T10:54:54Z</time>
      </trkpt>
      <trkpt lat="46.02978" lon="1.31179">
        <ele>357.6</ele>
        <time>2024-04-28T10:54:55Z</time>
      </trkpt>
      <trkpt lat="46.02979" lon="1.31169">
        <ele>357.4</ele>
        <time>2024-04-28T10:54:56Z</time>
      </trkpt>
      <trkpt lat="46.02979" lon="1.3116">
        <ele>357.4</ele>
        <time>2024-04-28T10:54:57Z</time>
      </trkpt>
      <trkpt lat="46.02978" lon="1.31152">
        <ele>357.4</ele>
        <time>2024-04-28T10:54:58Z</time>
      </trkpt>
      <trkpt lat="46.02976" lon="1.31145">
        <ele>357.4</ele>
        <time>2024-04-28T10:54:59Z</time>
      </trkpt>
      <trkpt lat="46.02975" lon="1.3114">
        <ele>357.4</ele>
        <time>2024-04-28T10:55:00Z</time>
      </trkpt>
      <trkpt lat="46.0297" lon="1.31133">
        <ele>357.2</ele>
        <time>2024-04-28T10:55:02Z</time>
      </trkpt>
      <trkpt lat="46.02967" lon="1.3113">
        <ele>356.8</ele>
        <time>2024-04-28T10:55:03Z</time>
      </trkpt>
      <trkpt lat="46.02963" lon="1.31128">
        <ele>356.6</ele>
        <time>2024-04-28T10:55:04Z</time>
      </trkpt>
      <trkpt lat="46.02959" lon="1.31126">
        <ele>356.4</ele>
        <time>2024-04-28T10:55:05Z</time>
      </trkpt>
      <trkpt lat="46.02952" lon="1.31122">
        <ele>356.2</ele>
        <time>2024-04-28T10:55:07Z</time>
      </trkpt>
      <trkpt lat="46.02949" lon="1.3112">
        <ele>356.2</ele>
        <time>2024-04-28T10:55:08Z</time>
      </trkpt>
      <trkpt lat="46.02941" lon="1.31114">
        <ele>356.2</ele>
        <time>2024-04-28T10:55:11Z</time>
      </trkpt>
      <trkpt lat="46.02936" lon="1.31112">
        <ele>356</ele>
        <time>2024-04-28T10:55:13Z</time>
      </trkpt>
      <trkpt lat="46.0292" lon="1.311">
        <ele>355.4</ele>
        <time>2024-04-28T10:55:18Z</time>
      </trkpt>
      <trkpt lat="46.02916" lon="1.31097">
        <ele>355.4</ele>
        <time>2024-04-28T10:55:19Z</time>
      </trkpt>
      <trkpt lat="46.02912" lon="1.31093">
        <ele>355.2</ele>
        <time>2024-04-28T10:55:20Z</time>
      </trkpt>
      <trkpt lat="46.02904" lon="1.31078">
        <ele>355.2</ele>
        <time>2024-04-28T10:55:23Z</time>
      </trkpt>
      <trkpt lat="46.02887" lon="1.31048">
        <ele>355</ele>
        <time>2024-04-28T10:55:29Z</time>
      </trkpt>
      <trkpt lat="46.02875" lon="1.31025">
        <ele>354.4</ele>
        <time>2024-04-28T10:55:35Z</time>
      </trkpt>
      <trkpt lat="46.0287" lon="1.31003">
        <ele>355</ele>
        <time>2024-04-28T10:55:41Z</time>
      </trkpt>
      <trkpt lat="46.02867" lon="1.30991">
        <ele>354.2</ele>
        <time>2024-04-28T10:55:44Z</time>
      </trkpt>
      <trkpt lat="46.02866" lon="1.30983">
        <ele>353.6</ele>
        <time>2024-04-28T10:55:47Z</time>
      </trkpt>
      <trkpt lat="46.02864" lon="1.30981">
        <ele>353.6</ele>
        <time>2024-04-28T10:55:48Z</time>
      </trkpt>
      <trkpt lat="46.02857" lon="1.30971">
        <ele>354.4</ele>
        <time>2024-04-28T10:55:53Z</time>
      </trkpt>
      <trkpt lat="46.02848" lon="1.3095">
        <ele>354.2</ele>
        <time>2024-04-28T10:55:57Z</time>
      </trkpt>
      <trkpt lat="46.02844" lon="1.30928">
        <ele>353.6</ele>
        <time>2024-04-28T10:56:03Z</time>
      </trkpt>
      <trkpt lat="46.02839" lon="1.30904">
        <ele>353.4</ele>
        <time>2024-04-28T10:56:10Z</time>
      </trkpt>
      <trkpt lat="46.02828" lon="1.30876">
        <ele>353.6</ele>
        <time>2024-04-28T10:56:15Z</time>
      </trkpt>
      <trkpt lat="46.02819" lon="1.30851">
        <ele>353</ele>
        <time>2024-04-28T10:56:21Z</time>
      </trkpt>
      <trkpt lat="46.02805" lon="1.30829">
        <ele>353.4</ele>
        <time>2024-04-28T10:56:28Z</time>
      </trkpt>
      <trkpt lat="46.02798" lon="1.30817">
        <ele>354.2</ele>
        <time>2024-04-28T10:56:32Z</time>
      </trkpt>
      <trkpt lat="46.02794" lon="1.30812">
        <ele>354.2</ele>
        <time>2024-04-28T10:56:34Z</time>
      </trkpt>
      <trkpt lat="46.02784" lon="1.30796">
        <ele>354.8</ele>
        <time>2024-04-28T10:56:40Z</time>
      </trkpt>
      <trkpt lat="46.02781" lon="1.30793">
        <ele>355.2</ele>
        <time>2024-04-28T10:56:41Z</time>
      </trkpt>
      <trkpt lat="46.02768" lon="1.30773">
        <ele>355.8</ele>
        <time>2024-04-28T10:56:46Z</time>
      </trkpt>
      <trkpt lat="46.0275" lon="1.30732">
        <ele>355.2</ele>
        <time>2024-04-28T10:56:54Z</time>
      </trkpt>
      <trkpt lat="46.02742" lon="1.3071">
        <ele>356.2</ele>
        <time>2024-04-28T10:56:59Z</time>
      </trkpt>
      <trkpt lat="46.02737" lon="1.30698">
        <ele>357.2</ele>
        <time>2024-04-28T10:57:02Z</time>
      </trkpt>
      <trkpt lat="46.02733" lon="1.3069">
        <ele>357.4</ele>
        <time>2024-04-28T10:57:04Z</time>
      </trkpt>
      <trkpt lat="46.02722" lon="1.30675">
        <ele>357</ele>
        <time>2024-04-28T10:57:08Z</time>
      </trkpt>
      <trkpt lat="46.027" lon="1.30653">
        <ele>356.8</ele>
        <time>2024-04-28T10:57:15Z</time>
      </trkpt>
      <trkpt lat="46.0268" lon="1.30632">
        <ele>357.4</ele>
        <time>2024-04-28T10:57:22Z</time>
      </trkpt>
      <trkpt lat="46.02652" lon="1.30613">
        <ele>358</ele>
        <time>2024-04-28T10:57:30Z</time>
      </trkpt>
      <trkpt lat="46.02622" lon="1.30597">
        <ele>358</ele>
        <time>2024-04-28T10:57:36Z</time>
      </trkpt>
      <trkpt lat="46.02583" lon="1.30573">
        <ele>355.8</ele>
        <time>2024-04-28T10:57:43Z</time>
      </trkpt>
      <trkpt lat="46.02577" lon="1.3057">
        <ele>355.4</ele>
        <time>2024-04-28T10:57:44Z</time>
      </trkpt>
      <trkpt lat="46.02561" lon="1.3056">
        <ele>354.8</ele>
        <time>2024-04-28T10:57:47Z</time>
      </trkpt>
      <trkpt lat="46.02542" lon="1.3055">
        <ele>354</ele>
        <time>2024-04-28T10:57:51Z</time>
      </trkpt>
      <trkpt lat="46.02537" lon="1.30548">
        <ele>353.6</ele>
        <time>2024-04-28T10:57:52Z</time>
      </trkpt>
      <trkpt lat="46.02506" lon="1.3054">
        <ele>352.8</ele>
        <time>2024-04-28T10:57:58Z</time>
      </trkpt>
      <trkpt lat="46.02488" lon="1.30537">
        <ele>352.4</ele>
        <time>2024-04-28T10:58:01Z</time>
      </trkpt>
      <trkpt lat="46.02477" lon="1.30538">
        <ele>351.2</ele>
        <time>2024-04-28T10:58:03Z</time>
      </trkpt>
      <trkpt lat="46.02471" lon="1.3054">
        <ele>351</ele>
        <time>2024-04-28T10:58:04Z</time>
      </trkpt>
      <trkpt lat="46.02453" lon="1.30545">
        <ele>350</ele>
        <time>2024-04-28T10:58:07Z</time>
      </trkpt>
      <trkpt lat="46.0244" lon="1.30545">
        <ele>349.4</ele>
        <time>2024-04-28T10:58:09Z</time>
      </trkpt>
      <trkpt lat="46.02433" lon="1.30545">
        <ele>347.6</ele>
        <time>2024-04-28T10:58:10Z</time>
      </trkpt>
      <trkpt lat="46.02426" lon="1.30544">
        <ele>346.4</ele>
        <time>2024-04-28T10:58:11Z</time>
      </trkpt>
      <trkpt lat="46.02414" lon="1.30543">
        <ele>345.6</ele>
        <time>2024-04-28T10:58:13Z</time>
      </trkpt>
      <trkpt lat="46.02409" lon="1.30543">
        <ele>345.4</ele>
        <time>2024-04-28T10:58:14Z</time>
      </trkpt>
      <trkpt lat="46.02406" lon="1.30542">
        <ele>345.2</ele>
        <time>2024-04-28T10:58:15Z</time>
      </trkpt>
      <trkpt lat="46.02403" lon="1.3054">
        <ele>345.2</ele>
        <time>2024-04-28T10:58:16Z</time>
      </trkpt>
      <trkpt lat="46.02388" lon="1.30522">
        <ele>345.6</ele>
        <time>2024-04-28T10:58:21Z</time>
      </trkpt>
      <trkpt lat="46.02363" lon="1.30483">
        <ele>345.4</ele>
        <time>2024-04-28T10:58:28Z</time>
      </trkpt>
      <trkpt lat="46.02339" lon="1.30445">
        <ele>345.4</ele>
        <time>2024-04-28T10:58:34Z</time>
      </trkpt>
      <trkpt lat="46.02317" lon="1.30412">
        <ele>344.8</ele>
        <time>2024-04-28T10:58:39Z</time>
      </trkpt>
      <trkpt lat="46.02299" lon="1.30383">
        <ele>344.2</ele>
        <time>2024-04-28T10:58:43Z</time>
      </trkpt>
      <trkpt lat="46.02284" lon="1.30362">
        <ele>343.6</ele>
        <time>2024-04-28T10:58:46Z</time>
      </trkpt>
      <trkpt lat="46.02264" lon="1.30331">
        <ele>343.2</ele>
        <time>2024-04-28T10:58:50Z</time>
      </trkpt>
      <trkpt lat="46.02254" lon="1.30316">
        <ele>342.8</ele>
        <time>2024-04-28T10:58:52Z</time>
      </trkpt>
      <trkpt lat="46.02223" lon="1.3027">
        <ele>342</ele>
        <time>2024-04-28T10:58:58Z</time>
      </trkpt>
      <trkpt lat="46.02218" lon="1.30263">
        <ele>342</ele>
        <time>2024-04-28T10:58:59Z</time>
      </trkpt>
      <trkpt lat="46.02205" lon="1.30241">
        <ele>342</ele>
        <time>2024-04-28T10:59:02Z</time>
      </trkpt>
      <trkpt lat="46.02196" lon="1.30229">
        <ele>341.8</ele>
        <time>2024-04-28T10:59:04Z</time>
      </trkpt>
      <trkpt lat="46.02175" lon="1.30199">
        <ele>342</ele>
        <time>2024-04-28T10:59:10Z</time>
      </trkpt>
      <trkpt lat="46.02158" lon="1.30173">
        <ele>343</ele>
        <time>2024-04-28T10:59:17Z</time>
      </trkpt>
      <trkpt lat="46.02154" lon="1.30161">
        <ele>343.4</ele>
        <time>2024-04-28T10:59:20Z</time>
      </trkpt>
      <trkpt lat="46.02156" lon="1.30156">
        <ele>343.8</ele>
        <time>2024-04-28T10:59:22Z</time>
      </trkpt>
      <trkpt lat="46.02158" lon="1.30154">
        <ele>344.2</ele>
        <time>2024-04-28T10:59:23Z</time>
      </trkpt>
      <trkpt lat="46.0216" lon="1.30153">
        <ele>344.6</ele>
        <time>2024-04-28T10:59:24Z</time>
      </trkpt>
      <trkpt lat="46.02166" lon="1.30151">
        <ele>345</ele>
        <time>2024-04-28T10:59:26Z</time>
      </trkpt>
      <trkpt lat="46.02173" lon="1.30149">
        <ele>345.2</ele>
        <time>2024-04-28T10:59:28Z</time>
      </trkpt>
      <trkpt lat="46.0219" lon="1.30146">
        <ele>346.2</ele>
        <time>2024-04-28T10:59:33Z</time>
      </trkpt>
      <trkpt lat="46.02214" lon="1.30145">
        <ele>346.2</ele>
        <time>2024-04-28T10:59:39Z</time>
      </trkpt>
      <trkpt lat="46.02234" lon="1.30143">
        <ele>345.4</ele>
        <time>2024-04-28T10:59:43Z</time>
      </trkpt>
      <trkpt lat="46.02241" lon="1.30142">
        <ele>344.8</ele>
        <time>2024-04-28T10:59:44Z</time>
      </trkpt>
      <trkpt lat="46.02254" lon="1.30135">
        <ele>344.4</ele>
        <time>2024-04-28T10:59:46Z</time>
      </trkpt>
      <trkpt lat="46.02259" lon="1.30128">
        <ele>344.2</ele>
        <time>2024-04-28T10:59:47Z</time>
      </trkpt>
      <trkpt lat="46.02262" lon="1.30121">
        <ele>344.2</ele>
        <time>2024-04-28T10:59:48Z</time>
      </trkpt>
      <trkpt lat="46.02269" lon="1.30105">
        <ele>343.6</ele>
        <time>2024-04-28T10:59:50Z</time>
      </trkpt>
      <trkpt lat="46.02271" lon="1.30097">
        <ele>343.4</ele>
        <time>2024-04-28T10:59:51Z</time>
      </trkpt>
      <trkpt lat="46.02279" lon="1.3008">
        <ele>343</ele>
        <time>2024-04-28T10:59:53Z</time>
      </trkpt>
      <trkpt lat="46.02289" lon="1.30062">
        <ele>342.6</ele>
        <time>2024-04-28T10:59:55Z</time>
      </trkpt>
      <trkpt lat="46.02297" lon="1.30044">
        <ele>341.6</ele>
        <time>2024-04-28T10:59:57Z</time>
      </trkpt>
      <trkpt lat="46.02301" lon="1.30035">
        <ele>341.4</ele>
        <time>2024-04-28T10:59:58Z</time>
      </trkpt>
      <trkpt lat="46.02304" lon="1.30027">
        <ele>341.2</ele>
        <time>2024-04-28T10:59:59Z</time>
      </trkpt>
      <trkpt lat="46.02305" lon="1.30022">
        <ele>340.8</ele>
        <time>2024-04-28T11:00:00Z</time>
      </trkpt>
      <trkpt lat="46.02307" lon="1.30019">
        <ele>340.6</ele>
        <time>2024-04-28T11:00:01Z</time>
      </trkpt>
      <trkpt lat="46.02308" lon="1.30018">
        <ele>340</ele>
        <time>2024-04-28T11:00:02Z</time>
      </trkpt>
      <trkpt lat="46.02309" lon="1.30017">
        <ele>339.4</ele>
        <time>2024-04-28T11:00:04Z</time>
      </trkpt>
      <trkpt lat="46.02318" lon="1.30019">
        <ele>339</ele>
        <time>2024-04-28T11:00:08Z</time>
      </trkpt>
      <trkpt lat="46.02333" lon="1.30027">
        <ele>338</ele>
        <time>2024-04-28T11:00:13Z</time>
      </trkpt>
      <trkpt lat="46.02336" lon="1.30028">
        <ele>338</ele>
        <time>2024-04-28T11:00:14Z</time>
      </trkpt>
      <trkpt lat="46.02342" lon="1.3003">
        <ele>337.6</ele>
        <time>2024-04-28T11:00:16Z</time>
      </trkpt>
      <trkpt lat="46.0235" lon="1.3003">
        <ele>337.4</ele>
        <time>2024-04-28T11:00:18Z</time>
      </trkpt>
      <trkpt lat="46.02354" lon="1.30031">
        <ele>336.6</ele>
        <time>2024-04-28T11:00:19Z</time>
      </trkpt>
      <trkpt lat="46.02364" lon="1.30032">
        <ele>334.8</ele>
        <time>2024-04-28T11:00:21Z</time>
      </trkpt>
      <trkpt lat="46.02373" lon="1.30037">
        <ele>334.2</ele>
        <time>2024-04-28T11:00:23Z</time>
      </trkpt>
      <trkpt lat="46.02377" lon="1.3004">
        <ele>333.8</ele>
        <time>2024-04-28T11:00:24Z</time>
      </trkpt>
      <trkpt lat="46.02381" lon="1.30044">
        <ele>333.8</ele>
        <time>2024-04-28T11:00:25Z</time>
      </trkpt>
      <trkpt lat="46.02389" lon="1.30058">
        <ele>332.8</ele>
        <time>2024-04-28T11:00:28Z</time>
      </trkpt>
      <trkpt lat="46.02392" lon="1.30062">
        <ele>332.4</ele>
        <time>2024-04-28T11:00:29Z</time>
      </trkpt>
      <trkpt lat="46.02398" lon="1.30068">
        <ele>331.8</ele>
        <time>2024-04-28T11:00:32Z</time>
      </trkpt>
      <trkpt lat="46.02404" lon="1.30073">
        <ele>332</ele>
        <time>2024-04-28T11:00:36Z</time>
      </trkpt>
      <trkpt lat="46.02407" lon="1.30072">
        <ele>332</ele>
        <time>2024-04-28T11:00:37Z</time>
      </trkpt>
      <trkpt lat="46.02419" lon="1.30059">
        <ele>333</ele>
        <time>2024-04-28T11:00:42Z</time>
      </trkpt>
      <trkpt lat="46.02421" lon="1.30057">
        <ele>333.4</ele>
        <time>2024-04-28T11:00:43Z</time>
      </trkpt>
      <trkpt lat="46.0243" lon="1.30045">
        <ele>334</ele>
        <time>2024-04-28T11:00:47Z</time>
      </trkpt>
      <trkpt lat="46.02442" lon="1.30034">
        <ele>334.4</ele>
        <time>2024-04-28T11:00:52Z</time>
      </trkpt>
      <trkpt lat="46.02443" lon="1.30032">
        <ele>334.6</ele>
        <time>2024-04-28T11:00:53Z</time>
      </trkpt>
      <trkpt lat="46.02451" lon="1.30024">
        <ele>335.6</ele>
        <time>2024-04-28T11:00:58Z</time>
      </trkpt>
      <trkpt lat="46.02453" lon="1.30023">
        <ele>335.8</ele>
        <time>2024-04-28T11:00:59Z</time>
      </trkpt>
      <trkpt lat="46.02456" lon="1.30018">
        <ele>336.6</ele>
        <time>2024-04-28T11:01:02Z</time>
      </trkpt>
      <trkpt lat="46.0246" lon="1.30011">
        <ele>337.4</ele>
        <time>2024-04-28T11:01:06Z</time>
      </trkpt>
      <trkpt lat="46.02464" lon="1.30008">
        <ele>337.8</ele>
        <time>2024-04-28T11:01:09Z</time>
      </trkpt>
      <trkpt lat="46.02469" lon="1.30004">
        <ele>338.6</ele>
        <time>2024-04-28T11:01:13Z</time>
      </trkpt>
      <trkpt lat="46.0247" lon="1.30003">
        <ele>339</ele>
        <time>2024-04-28T11:01:14Z</time>
      </trkpt>
      <trkpt lat="46.02477" lon="1.3">
        <ele>340.2</ele>
        <time>2024-04-28T11:01:18Z</time>
      </trkpt>
      <trkpt lat="46.0248" lon="1.29999">
        <ele>340.6</ele>
        <time>2024-04-28T11:01:20Z</time>
      </trkpt>
      <trkpt lat="46.02484" lon="1.29997">
        <ele>341.4</ele>
        <time>2024-04-28T11:01:23Z</time>
      </trkpt>
      <trkpt lat="46.02489" lon="1.29998">
        <ele>342.6</ele>
        <time>2024-04-28T11:01:27Z</time>
      </trkpt>
      <trkpt lat="46.0249" lon="1.29998">
        <ele>343</ele>
        <time>2024-04-28T11:01:28Z</time>
      </trkpt>
      <trkpt lat="46.02492" lon="1.3">
        <ele>343.6</ele>
        <time>2024-04-28T11:01:30Z</time>
      </trkpt>
      <trkpt lat="46.02493" lon="1.3">
        <ele>343.8</ele>
        <time>2024-04-28T11:01:32Z</time>
      </trkpt>
      <trkpt lat="46.02496" lon="1.3">
        <ele>344.6</ele>
        <time>2024-04-28T11:01:35Z</time>
      </trkpt>
      <trkpt lat="46.02498" lon="1.29999">
        <ele>344.8</ele>
        <time>2024-04-28T11:01:36Z</time>
      </trkpt>
      <trkpt lat="46.025" lon="1.29997">
        <ele>345.4</ele>
        <time>2024-04-28T11:01:38Z</time>
      </trkpt>
      <trkpt lat="46.02501" lon="1.29996">
        <ele>345.6</ele>
        <time>2024-04-28T11:01:39Z</time>
      </trkpt>
      <trkpt lat="46.02506" lon="1.29989">
        <ele>346.6</ele>
        <time>2024-04-28T11:01:44Z</time>
      </trkpt>
      <trkpt lat="46.02507" lon="1.29988">
        <ele>346.8</ele>
        <time>2024-04-28T11:01:45Z</time>
      </trkpt>
      <trkpt lat="46.02508" lon="1.29986">
        <ele>347</ele>
        <time>2024-04-28T11:01:46Z</time>
      </trkpt>
      <trkpt lat="46.02514" lon="1.29982">
        <ele>347.4</ele>
        <time>2024-04-28T11:01:50Z</time>
      </trkpt>
      <trkpt lat="46.02518" lon="1.29982">
        <ele>347.6</ele>
        <time>2024-04-28T11:01:52Z</time>
      </trkpt>
      <trkpt lat="46.0252" lon="1.29982">
        <ele>347.8</ele>
        <time>2024-04-28T11:01:53Z</time>
      </trkpt>
      <trkpt lat="46.02527" lon="1.29985">
        <ele>348.8</ele>
        <time>2024-04-28T11:01:58Z</time>
      </trkpt>
      <trkpt lat="46.02529" lon="1.29986">
        <ele>349</ele>
        <time>2024-04-28T11:01:59Z</time>
      </trkpt>
      <trkpt lat="46.02538" lon="1.29991">
        <ele>350</ele>
        <time>2024-04-28T11:02:05Z</time>
      </trkpt>
      <trkpt lat="46.02539" lon="1.29991">
        <ele>350.2</ele>
        <time>2024-04-28T11:02:06Z</time>
      </trkpt>
      <trkpt lat="46.0255" lon="1.29996">
        <ele>351</ele>
        <time>2024-04-28T11:02:12Z</time>
      </trkpt>
      <trkpt lat="46.02553" lon="1.29998">
        <ele>351.4</ele>
        <time>2024-04-28T11:02:14Z</time>
      </trkpt>
      <trkpt lat="46.0256" lon="1.30002">
        <ele>352</ele>
        <time>2024-04-28T11:02:18Z</time>
      </trkpt>
      <trkpt lat="46.02565" lon="1.30003">
        <ele>352.4</ele>
        <time>2024-04-28T11:02:21Z</time>
      </trkpt>
      <trkpt lat="46.02578" lon="1.29996">
        <ele>353</ele>
        <time>2024-04-28T11:02:27Z</time>
      </trkpt>
      <trkpt lat="46.0258" lon="1.29995">
        <ele>353.4</ele>
        <time>2024-04-28T11:02:28Z</time>
      </trkpt>
      <trkpt lat="46.0259" lon="1.29997">
        <ele>353.6</ele>
        <time>2024-04-28T11:02:31Z</time>
      </trkpt>
      <trkpt lat="46.02606" lon="1.30009">
        <ele>354.2</ele>
        <time>2024-04-28T11:02:37Z</time>
      </trkpt>
      <trkpt lat="46.02614" lon="1.30015">
        <ele>354.4</ele>
        <time>2024-04-28T11:02:40Z</time>
      </trkpt>
      <trkpt lat="46.02627" lon="1.30025">
        <ele>354.2</ele>
        <time>2024-04-28T11:02:44Z</time>
      </trkpt>
      <trkpt lat="46.02633" lon="1.30032">
        <ele>353.4</ele>
        <time>2024-04-28T11:02:47Z</time>
      </trkpt>
      <trkpt lat="46.02632" lon="1.30034">
        <ele>353</ele>
        <time>2024-04-28T11:02:48Z</time>
      </trkpt>
      <trkpt lat="46.02623" lon="1.30051">
        <ele>352.2</ele>
        <time>2024-04-28T11:02:52Z</time>
      </trkpt>
      <trkpt lat="46.02611" lon="1.30074">
        <ele>352.2</ele>
        <time>2024-04-28T11:02:57Z</time>
      </trkpt>
      <trkpt lat="46.02593" lon="1.30112">
        <ele>351.2</ele>
        <time>2024-04-28T11:03:03Z</time>
      </trkpt>
      <trkpt lat="46.0259" lon="1.30119">
        <ele>350.8</ele>
        <time>2024-04-28T11:03:04Z</time>
      </trkpt>
      <trkpt lat="46.02581" lon="1.30138">
        <ele>350</ele>
        <time>2024-04-28T11:03:07Z</time>
      </trkpt>
      <trkpt lat="46.02577" lon="1.30147">
        <ele>348.2</ele>
        <time>2024-04-28T11:03:09Z</time>
      </trkpt>
      <trkpt lat="46.02574" lon="1.30154">
        <ele>347</ele>
        <time>2024-04-28T11:03:11Z</time>
      </trkpt>
      <trkpt lat="46.02569" lon="1.30163">
        <ele>345.6</ele>
        <time>2024-04-28T11:03:14Z</time>
      </trkpt>
      <trkpt lat="46.02567" lon="1.30167">
        <ele>344</ele>
        <time>2024-04-28T11:03:16Z</time>
      </trkpt>
      <trkpt lat="46.02567" lon="1.30168">
        <ele>342.8</ele>
        <time>2024-04-28T11:03:19Z</time>
      </trkpt>
      <trkpt lat="46.02566" lon="1.3017">
        <ele>342.2</ele>
        <time>2024-04-28T11:03:22Z</time>
      </trkpt>
      <trkpt lat="46.02566" lon="1.3017">
        <ele>341.8</ele>
        <time>2024-04-28T11:03:23Z</time>
      </trkpt>
      <trkpt lat="46.02565" lon="1.30171">
        <ele>341.6</ele>
        <time>2024-04-28T11:03:24Z</time>
      </trkpt>
      <trkpt lat="46.02564" lon="1.30174">
        <ele>341</ele>
        <time>2024-04-28T11:03:29Z</time>
      </trkpt>
      <trkpt lat="46.02564" lon="1.30176">
        <ele>340.8</ele>
        <time>2024-04-28T11:03:30Z</time>
      </trkpt>
      <trkpt lat="46.02563" lon="1.30178">
        <ele>339.8</ele>
        <time>2024-04-28T11:03:33Z</time>
      </trkpt>
      <trkpt lat="46.02561" lon="1.30181">
        <ele>338.8</ele>
        <time>2024-04-28T11:03:37Z</time>
      </trkpt>
      <trkpt lat="46.0256" lon="1.30184">
        <ele>337.6</ele>
        <time>2024-04-28T11:03:41Z</time>
      </trkpt>
      <trkpt lat="46.02559" lon="1.30185">
        <ele>336.8</ele>
        <time>2024-04-28T11:03:43Z</time>
      </trkpt>
      <trkpt lat="46.02559" lon="1.30186">
        <ele>336.6</ele>
        <time>2024-04-28T11:03:44Z</time>
      </trkpt>
      <trkpt lat="46.02559" lon="1.30195">
        <ele>335.6</ele>
        <time>2024-04-28T11:03:52Z</time>
      </trkpt>
      <trkpt lat="46.02562" lon="1.30196">
        <ele>335.2</ele>
        <time>2024-04-28T11:03:53Z</time>
      </trkpt>
      <trkpt lat="46.02574" lon="1.302">
        <ele>334.6</ele>
        <time>2024-04-28T11:03:56Z</time>
      </trkpt>
      <trkpt lat="46.02578" lon="1.30199">
        <ele>334.6</ele>
        <time>2024-04-28T11:03:57Z</time>
      </trkpt>
      <trkpt lat="46.02587" lon="1.30196">
        <ele>334.2</ele>
        <time>2024-04-28T11:03:59Z</time>
      </trkpt>
      <trkpt lat="46.02594" lon="1.30196">
        <ele>333.8</ele>
        <time>2024-04-28T11:04:01Z</time>
      </trkpt>
      <trkpt lat="46.02602" lon="1.30204">
        <ele>333.2</ele>
        <time>2024-04-28T11:04:05Z</time>
      </trkpt>
      <trkpt lat="46.02604" lon="1.30227">
        <ele>332.6</ele>
        <time>2024-04-28T11:04:11Z</time>
      </trkpt>
      <trkpt lat="46.02601" lon="1.30253">
        <ele>334</ele>
        <time>2024-04-28T11:04:17Z</time>
      </trkpt>
      <trkpt lat="46.02601" lon="1.30259">
        <ele>334.6</ele>
        <time>2024-04-28T11:04:19Z</time>
      </trkpt>
      <trkpt lat="46.02603" lon="1.30266">
        <ele>335.8</ele>
        <time>2024-04-28T11:04:22Z</time>
      </trkpt>
      <trkpt lat="46.02612" lon="1.30275">
        <ele>337.2</ele>
        <time>2024-04-28T11:04:28Z</time>
      </trkpt>
      <trkpt lat="46.02618" lon="1.30276">
        <ele>338.4</ele>
        <time>2024-04-28T11:04:32Z</time>
      </trkpt>
      <trkpt lat="46.02624" lon="1.30277">
        <ele>339.4</ele>
        <time>2024-04-28T11:04:35Z</time>
      </trkpt>
      <trkpt lat="46.02625" lon="1.30277">
        <ele>339.4</ele>
        <time>2024-04-28T11:04:36Z</time>
      </trkpt>
      <trkpt lat="46.02627" lon="1.30278">
        <ele>339.6</ele>
        <time>2024-04-28T11:04:37Z</time>
      </trkpt>
      <trkpt lat="46.02633" lon="1.30278">
        <ele>340.6</ele>
        <time>2024-04-28T11:04:40Z</time>
      </trkpt>
      <trkpt lat="46.02647" lon="1.3028">
        <ele>341.6</ele>
        <time>2024-04-28T11:04:47Z</time>
      </trkpt>
      <trkpt lat="46.02661" lon="1.30282">
        <ele>342.4</ele>
        <time>2024-04-28T11:04:54Z</time>
      </trkpt>
      <trkpt lat="46.02663" lon="1.30282">
        <ele>342.6</ele>
        <time>2024-04-28T11:04:55Z</time>
      </trkpt>
      <trkpt lat="46.02675" lon="1.30283">
        <ele>343.2</ele>
        <time>2024-04-28T11:05:02Z</time>
      </trkpt>
      <trkpt lat="46.0268" lon="1.30285">
        <ele>343.8</ele>
        <time>2024-04-28T11:05:05Z</time>
      </trkpt>
      <trkpt lat="46.02684" lon="1.30287">
        <ele>344.4</ele>
        <time>2024-04-28T11:05:08Z</time>
      </trkpt>
      <trkpt lat="46.02688" lon="1.3029">
        <ele>345.2</ele>
        <time>2024-04-28T11:05:11Z</time>
      </trkpt>
      <trkpt lat="46.02692" lon="1.3029">
        <ele>346</ele>
        <time>2024-04-28T11:05:14Z</time>
      </trkpt>
      <trkpt lat="46.02694" lon="1.3029">
        <ele>346.2</ele>
        <time>2024-04-28T11:05:16Z</time>
      </trkpt>
      <trkpt lat="46.02695" lon="1.3029">
        <ele>346.4</ele>
        <time>2024-04-28T11:05:17Z</time>
      </trkpt>
      <trkpt lat="46.02697" lon="1.30291">
        <ele>346.6</ele>
        <time>2024-04-28T11:05:18Z</time>
      </trkpt>
      <trkpt lat="46.02707" lon="1.30295">
        <ele>347.4</ele>
        <time>2024-04-28T11:05:24Z</time>
      </trkpt>
      <trkpt lat="46.02709" lon="1.30295">
        <ele>347.6</ele>
        <time>2024-04-28T11:05:25Z</time>
      </trkpt>
      <trkpt lat="46.02721" lon="1.30289">
        <ele>348.4</ele>
        <time>2024-04-28T11:05:30Z</time>
      </trkpt>
      <trkpt lat="46.02737" lon="1.30278">
        <ele>348.6</ele>
        <time>2024-04-28T11:05:36Z</time>
      </trkpt>
      <trkpt lat="46.02759" lon="1.30264">
        <ele>348.8</ele>
        <time>2024-04-28T11:05:42Z</time>
      </trkpt>
      <trkpt lat="46.02763" lon="1.30261">
        <ele>348.8</ele>
        <time>2024-04-28T11:05:43Z</time>
      </trkpt>
      <trkpt lat="46.02788" lon="1.30241">
        <ele>348.4</ele>
        <time>2024-04-28T11:05:49Z</time>
      </trkpt>
      <trkpt lat="46.02814" lon="1.3022">
        <ele>347.2</ele>
        <time>2024-04-28T11:05:55Z</time>
      </trkpt>
      <trkpt lat="46.02818" lon="1.30217">
        <ele>347</ele>
        <time>2024-04-28T11:05:56Z</time>
      </trkpt>
      <trkpt lat="46.0285" lon="1.30182">
        <ele>346.6</ele>
        <time>2024-04-28T11:06:04Z</time>
      </trkpt>
      <trkpt lat="46.02859" lon="1.30171">
        <ele>346.8</ele>
        <time>2024-04-28T11:06:06Z</time>
      </trkpt>
      <trkpt lat="46.02872" lon="1.3015">
        <ele>346.4</ele>
        <time>2024-04-28T11:06:09Z</time>
      </trkpt>
      <trkpt lat="46.02877" lon="1.30142">
        <ele>345.8</ele>
        <time>2024-04-28T11:06:10Z</time>
      </trkpt>
      <trkpt lat="46.02898" lon="1.30111">
        <ele>344.2</ele>
        <time>2024-04-28T11:06:14Z</time>
      </trkpt>
      <trkpt lat="46.02907" lon="1.30096">
        <ele>343.6</ele>
        <time>2024-04-28T11:06:16Z</time>
      </trkpt>
      <trkpt lat="46.02912" lon="1.30089">
        <ele>342.8</ele>
        <time>2024-04-28T11:06:17Z</time>
      </trkpt>
      <trkpt lat="46.02918" lon="1.30077">
        <ele>341.8</ele>
        <time>2024-04-28T11:06:19Z</time>
      </trkpt>
      <trkpt lat="46.02921" lon="1.30072">
        <ele>341.4</ele>
        <time>2024-04-28T11:06:20Z</time>
      </trkpt>
      <trkpt lat="46.02924" lon="1.30067">
        <ele>340.8</ele>
        <time>2024-04-28T11:06:21Z</time>
      </trkpt>
      <trkpt lat="46.0293" lon="1.30059">
        <ele>339</ele>
        <time>2024-04-28T11:06:23Z</time>
      </trkpt>
      <trkpt lat="46.02932" lon="1.30057">
        <ele>338.4</ele>
        <time>2024-04-28T11:06:24Z</time>
      </trkpt>
      <trkpt lat="46.02933" lon="1.30054">
        <ele>337.6</ele>
        <time>2024-04-28T11:06:25Z</time>
      </trkpt>
      <trkpt lat="46.02935" lon="1.30049">
        <ele>336.2</ele>
        <time>2024-04-28T11:06:27Z</time>
      </trkpt>
      <trkpt lat="46.02936" lon="1.30048">
        <ele>335.6</ele>
        <time>2024-04-28T11:06:28Z</time>
      </trkpt>
      <trkpt lat="46.02938" lon="1.30048">
        <ele>335</ele>
        <time>2024-04-28T11:06:29Z</time>
      </trkpt>
      <trkpt lat="46.02942" lon="1.30051">
        <ele>333.6</ele>
        <time>2024-04-28T11:06:31Z</time>
      </trkpt>
      <trkpt lat="46.02944" lon="1.30053">
        <ele>333</ele>
        <time>2024-04-28T11:06:32Z</time>
      </trkpt>
      <trkpt lat="46.02947" lon="1.30058">
        <ele>332.6</ele>
        <time>2024-04-28T11:06:34Z</time>
      </trkpt>
      <trkpt lat="46.02952" lon="1.30068">
        <ele>331.2</ele>
        <time>2024-04-28T11:06:37Z</time>
      </trkpt>
      <trkpt lat="46.02953" lon="1.30071">
        <ele>330.4</ele>
        <time>2024-04-28T11:06:38Z</time>
      </trkpt>
      <trkpt lat="46.02954" lon="1.30075">
        <ele>329.6</ele>
        <time>2024-04-28T11:06:39Z</time>
      </trkpt>
      <trkpt lat="46.02955" lon="1.30079">
        <ele>328.2</ele>
        <time>2024-04-28T11:06:40Z</time>
      </trkpt>
      <trkpt lat="46.02955" lon="1.30082">
        <ele>327</ele>
        <time>2024-04-28T11:06:41Z</time>
      </trkpt>
      <trkpt lat="46.02954" lon="1.30089">
        <ele>326</ele>
        <time>2024-04-28T11:06:43Z</time>
      </trkpt>
      <trkpt lat="46.02953" lon="1.30093">
        <ele>325.4</ele>
        <time>2024-04-28T11:06:44Z</time>
      </trkpt>
      <trkpt lat="46.02949" lon="1.30102">
        <ele>324.8</ele>
        <time>2024-04-28T11:06:47Z</time>
      </trkpt>
      <trkpt lat="46.02947" lon="1.30106">
        <ele>324.6</ele>
        <time>2024-04-28T11:06:48Z</time>
      </trkpt>
      <trkpt lat="46.02935" lon="1.30121">
        <ele>325.2</ele>
        <time>2024-04-28T11:06:53Z</time>
      </trkpt>
      <trkpt lat="46.02933" lon="1.30124">
        <ele>325.8</ele>
        <time>2024-04-28T11:06:54Z</time>
      </trkpt>
      <trkpt lat="46.02931" lon="1.30128">
        <ele>326.2</ele>
        <time>2024-04-28T11:06:55Z</time>
      </trkpt>
      <trkpt lat="46.02925" lon="1.30145">
        <ele>326.4</ele>
        <time>2024-04-28T11:06:58Z</time>
      </trkpt>
      <trkpt lat="46.02918" lon="1.3016">
        <ele>326.2</ele>
        <time>2024-04-28T11:07:01Z</time>
      </trkpt>
      <trkpt lat="46.02916" lon="1.30166">
        <ele>326.2</ele>
        <time>2024-04-28T11:07:02Z</time>
      </trkpt>
      <trkpt lat="46.02915" lon="1.30173">
        <ele>326.2</ele>
        <time>2024-04-28T11:07:03Z</time>
      </trkpt>
      <trkpt lat="46.02915" lon="1.30179">
        <ele>326.2</ele>
        <time>2024-04-28T11:07:04Z</time>
      </trkpt>
      <trkpt lat="46.02915" lon="1.30194">
        <ele>325.8</ele>
        <time>2024-04-28T11:07:06Z</time>
      </trkpt>
      <trkpt lat="46.02917" lon="1.30199">
        <ele>325.8</ele>
        <time>2024-04-28T11:07:07Z</time>
      </trkpt>
      <trkpt lat="46.02919" lon="1.30203">
        <ele>325.8</ele>
        <time>2024-04-28T11:07:08Z</time>
      </trkpt>
      <trkpt lat="46.02923" lon="1.30209">
        <ele>326.6</ele>
        <time>2024-04-28T11:07:10Z</time>
      </trkpt>
      <trkpt lat="46.02925" lon="1.30211">
        <ele>326.8</ele>
        <time>2024-04-28T11:07:11Z</time>
      </trkpt>
      <trkpt lat="46.02928" lon="1.30212">
        <ele>327</ele>
        <time>2024-04-28T11:07:12Z</time>
      </trkpt>
      <trkpt lat="46.02938" lon="1.30211">
        <ele>327.2</ele>
        <time>2024-04-28T11:07:15Z</time>
      </trkpt>
      <trkpt lat="46.02956" lon="1.30207">
        <ele>327.4</ele>
        <time>2024-04-28T11:07:21Z</time>
      </trkpt>
      <trkpt lat="46.02968" lon="1.30199">
        <ele>327.6</ele>
        <time>2024-04-28T11:07:25Z</time>
      </trkpt>
      <trkpt lat="46.02971" lon="1.30196">
        <ele>327.4</ele>
        <time>2024-04-28T11:07:26Z</time>
      </trkpt>
      <trkpt lat="46.02974" lon="1.30194">
        <ele>327.2</ele>
        <time>2024-04-28T11:07:27Z</time>
      </trkpt>
      <trkpt lat="46.02981" lon="1.30188">
        <ele>326</ele>
        <time>2024-04-28T11:07:32Z</time>
      </trkpt>
      <trkpt lat="46.02982" lon="1.30189">
        <ele>325.6</ele>
        <time>2024-04-28T11:07:34Z</time>
      </trkpt>
      <trkpt lat="46.02983" lon="1.30189">
        <ele>325.4</ele>
        <time>2024-04-28T11:07:43Z</time>
      </trkpt>
      <trkpt lat="46.02982" lon="1.30186">
        <ele>325</ele>
        <time>2024-04-28T11:07:58Z</time>
      </trkpt>
      <trkpt lat="46.02981" lon="1.30186">
        <ele>325</ele>
        <time>2024-04-28T11:08:14Z</time>
      </trkpt>
      <trkpt lat="46.02984" lon="1.30183">
        <ele>324.8</ele>
        <time>2024-04-28T11:08:30Z</time>
      </trkpt>
      <trkpt lat="46.02986" lon="1.30181">
        <ele>324.8</ele>
        <time>2024-04-28T11:08:44Z</time>
      </trkpt>
      <trkpt lat="46.02984" lon="1.30179">
        <ele>325</ele>
        <time>2024-04-28T11:09:02Z</time>
      </trkpt>
      <trkpt lat="46.02986" lon="1.30178">
        <ele>325</ele>
        <time>2024-04-28T11:09:14Z</time>
      </trkpt>
      <trkpt lat="46.02986" lon="1.30178">
        <ele>324.8</ele>
        <time>2024-04-28T11:09:25Z</time>
      </trkpt>
      <trkpt lat="46.02988" lon="1.30178">
        <ele>325.2</ele>
        <time>2024-04-28T11:09:33Z</time>
      </trkpt>
      <trkpt lat="46.02989" lon="1.30175">
        <ele>325</ele>
        <time>2024-04-28T11:09:48Z</time>
      </trkpt>
      <trkpt lat="46.02988" lon="1.30177">
        <ele>325</ele>
        <time>2024-04-28T11:10:07Z</time>
      </trkpt>
      <trkpt lat="46.02988" lon="1.30177">
        <ele>325</ele>
        <time>2024-04-28T11:10:09Z</time>
      </trkpt>
      <trkpt lat="46.02988" lon="1.30178">
        <ele>325</ele>
        <time>2024-04-28T11:10:23Z</time>
      </trkpt>
      <trkpt lat="46.02987" lon="1.30179">
        <ele>324.6</ele>
        <time>2024-04-28T11:10:42Z</time>
      </trkpt>
      <trkpt lat="46.02986" lon="1.30179">
        <ele>324.8</ele>
        <time>2024-04-28T11:10:50Z</time>
      </trkpt>
      <trkpt lat="46.02986" lon="1.30179">
        <ele>324.6</ele>
        <time>2024-04-28T11:10:58Z</time>
      </trkpt>
      <trkpt lat="46.0299" lon="1.30172">
        <ele>325</ele>
        <time>2024-04-28T11:11:11Z</time>
      </trkpt>
      <trkpt lat="46.03002" lon="1.3016">
        <ele>325.2</ele>
        <time>2024-04-28T11:11:18Z</time>
      </trkpt>
      <trkpt lat="46.03015" lon="1.30145">
        <ele>325.4</ele>
        <time>2024-04-28T11:11:24Z</time>
      </trkpt>
      <trkpt lat="46.03023" lon="1.30132">
        <ele>325.2</ele>
        <time>2024-04-28T11:11:29Z</time>
      </trkpt>
      <trkpt lat="46.03031" lon="1.30109">
        <ele>326.4</ele>
        <time>2024-04-28T11:11:37Z</time>
      </trkpt>
      <trkpt lat="46.03033" lon="1.30105">
        <ele>327</ele>
        <time>2024-04-28T11:11:39Z</time>
      </trkpt>
      <trkpt lat="46.03035" lon="1.30099">
        <ele>328.4</ele>
        <time>2024-04-28T11:11:41Z</time>
      </trkpt>
      <trkpt lat="46.03039" lon="1.30094">
        <ele>329.2</ele>
        <time>2024-04-28T11:11:43Z</time>
      </trkpt>
      <trkpt lat="46.0304" lon="1.30091">
        <ele>329.6</ele>
        <time>2024-04-28T11:11:44Z</time>
      </trkpt>
      <trkpt lat="46.03048" lon="1.30078">
        <ele>330.8</ele>
        <time>2024-04-28T11:11:48Z</time>
      </trkpt>
      <trkpt lat="46.03051" lon="1.30075">
        <ele>330.8</ele>
        <time>2024-04-28T11:11:49Z</time>
      </trkpt>
      <trkpt lat="46.03062" lon="1.30068">
        <ele>331.8</ele>
        <time>2024-04-28T11:11:54Z</time>
      </trkpt>
      <trkpt lat="46.03064" lon="1.30068">
        <ele>332</ele>
        <time>2024-04-28T11:11:55Z</time>
      </trkpt>
      <trkpt lat="46.03072" lon="1.30073">
        <ele>332.8</ele>
        <time>2024-04-28T11:11:59Z</time>
      </trkpt>
      <trkpt lat="46.03073" lon="1.30074">
        <ele>333</ele>
        <time>2024-04-28T11:12:00Z</time>
      </trkpt>
      <trkpt lat="46.03081" lon="1.30077">
        <ele>334.2</ele>
        <time>2024-04-28T11:12:04Z</time>
      </trkpt>
      <trkpt lat="46.03086" lon="1.30079">
        <ele>335</ele>
        <time>2024-04-28T11:12:07Z</time>
      </trkpt>
      <trkpt lat="46.03087" lon="1.3008">
        <ele>335.4</ele>
        <time>2024-04-28T11:12:08Z</time>
      </trkpt>
      <trkpt lat="46.03092" lon="1.30084">
        <ele>336.4</ele>
        <time>2024-04-28T11:12:11Z</time>
      </trkpt>
      <trkpt lat="46.03098" lon="1.30087">
        <ele>337.6</ele>
        <time>2024-04-28T11:12:14Z</time>
      </trkpt>
      <trkpt lat="46.03105" lon="1.30091">
        <ele>338.6</ele>
        <time>2024-04-28T11:12:18Z</time>
      </trkpt>
      <trkpt lat="46.03111" lon="1.30095">
        <ele>339.2</ele>
        <time>2024-04-28T11:12:21Z</time>
      </trkpt>
      <trkpt lat="46.03119" lon="1.30099">
        <ele>339.8</ele>
        <time>2024-04-28T11:12:25Z</time>
      </trkpt>
      <trkpt lat="46.03123" lon="1.30104">
        <ele>340.4</ele>
        <time>2024-04-28T11:12:28Z</time>
      </trkpt>
      <trkpt lat="46.03126" lon="1.30109">
        <ele>340.8</ele>
        <time>2024-04-28T11:12:30Z</time>
      </trkpt>
      <trkpt lat="46.03132" lon="1.30119">
        <ele>341.4</ele>
        <time>2024-04-28T11:12:35Z</time>
      </trkpt>
      <trkpt lat="46.03136" lon="1.30124">
        <ele>342</ele>
        <time>2024-04-28T11:12:38Z</time>
      </trkpt>
      <trkpt lat="46.03143" lon="1.30127">
        <ele>342.8</ele>
        <time>2024-04-28T11:12:42Z</time>
      </trkpt>
      <trkpt lat="46.03144" lon="1.30128">
        <ele>343</ele>
        <time>2024-04-28T11:12:43Z</time>
      </trkpt>
      <trkpt lat="46.03146" lon="1.3013">
        <ele>343.2</ele>
        <time>2024-04-28T11:12:45Z</time>
      </trkpt>
      <trkpt lat="46.03152" lon="1.30134">
        <ele>343.8</ele>
        <time>2024-04-28T11:12:51Z</time>
      </trkpt>
      <trkpt lat="46.03154" lon="1.30135">
        <ele>343.8</ele>
        <time>2024-04-28T11:12:52Z</time>
      </trkpt>
      <trkpt lat="46.03157" lon="1.30138">
        <ele>344.2</ele>
        <time>2024-04-28T11:12:56Z</time>
      </trkpt>
      <trkpt lat="46.03162" lon="1.3014">
        <ele>344.4</ele>
        <time>2024-04-28T11:13:00Z</time>
      </trkpt>
      <trkpt lat="46.03166" lon="1.3014">
        <ele>344.4</ele>
        <time>2024-04-28T11:13:02Z</time>
      </trkpt>
      <trkpt lat="46.03181" lon="1.30135">
        <ele>344.4</ele>
        <time>2024-04-28T11:13:07Z</time>
      </trkpt>
      <trkpt lat="46.0319" lon="1.30133">
        <ele>342.8</ele>
        <time>2024-04-28T11:13:10Z</time>
      </trkpt>
      <trkpt lat="46.03192" lon="1.30135">
        <ele>342.4</ele>
        <time>2024-04-28T11:13:11Z</time>
      </trkpt>
      <trkpt lat="46.03194" lon="1.30138">
        <ele>341.4</ele>
        <time>2024-04-28T11:13:12Z</time>
      </trkpt>
      <trkpt lat="46.03195" lon="1.30142">
        <ele>341</ele>
        <time>2024-04-28T11:13:13Z</time>
      </trkpt>
      <trkpt lat="46.03198" lon="1.30152">
        <ele>340.4</ele>
        <time>2024-04-28T11:13:15Z</time>
      </trkpt>
      <trkpt lat="46.03203" lon="1.30163">
        <ele>339.4</ele>
        <time>2024-04-28T11:13:17Z</time>
      </trkpt>
      <trkpt lat="46.03207" lon="1.30175">
        <ele>338</ele>
        <time>2024-04-28T11:13:19Z</time>
      </trkpt>
      <trkpt lat="46.03211" lon="1.30179">
        <ele>337</ele>
        <time>2024-04-28T11:13:20Z</time>
      </trkpt>
      <trkpt lat="46.03215" lon="1.30182">
        <ele>336</ele>
        <time>2024-04-28T11:13:21Z</time>
      </trkpt>
      <trkpt lat="46.03222" lon="1.30184">
        <ele>334.2</ele>
        <time>2024-04-28T11:13:22Z</time>
      </trkpt>
      <trkpt lat="46.03236" lon="1.30187">
        <ele>332.8</ele>
        <time>2024-04-28T11:13:24Z</time>
      </trkpt>
      <trkpt lat="46.03262" lon="1.30187">
        <ele>332.6</ele>
        <time>2024-04-28T11:13:28Z</time>
      </trkpt>
      <trkpt lat="46.0328" lon="1.3018">
        <ele>333.4</ele>
        <time>2024-04-28T11:13:33Z</time>
      </trkpt>
      <trkpt lat="46.03295" lon="1.30157">
        <ele>333.4</ele>
        <time>2024-04-28T11:13:38Z</time>
      </trkpt>
      <trkpt lat="46.0331" lon="1.30112">
        <ele>333.2</ele>
        <time>2024-04-28T11:13:44Z</time>
      </trkpt>
      <trkpt lat="46.03313" lon="1.30105">
        <ele>333.2</ele>
        <time>2024-04-28T11:13:45Z</time>
      </trkpt>
      <trkpt lat="46.03326" lon="1.30081">
        <ele>332.6</ele>
        <time>2024-04-28T11:13:49Z</time>
      </trkpt>
      <trkpt lat="46.0334" lon="1.3006">
        <ele>332.4</ele>
        <time>2024-04-28T11:13:53Z</time>
      </trkpt>
      <trkpt lat="46.03345" lon="1.30048">
        <ele>332.8</ele>
        <time>2024-04-28T11:13:55Z</time>
      </trkpt>
      <trkpt lat="46.03363" lon="1.30007">
        <ele>333.8</ele>
        <time>2024-04-28T11:14:03Z</time>
      </trkpt>
      <trkpt lat="46.03365" lon="1.30002">
        <ele>334</ele>
        <time>2024-04-28T11:14:04Z</time>
      </trkpt>
      <trkpt lat="46.03374" lon="1.29983">
        <ele>335.2</ele>
        <time>2024-04-28T11:14:09Z</time>
      </trkpt>
      <trkpt lat="46.03376" lon="1.2998">
        <ele>335.6</ele>
        <time>2024-04-28T11:14:10Z</time>
      </trkpt>
      <trkpt lat="46.03378" lon="1.29958">
        <ele>335.6</ele>
        <time>2024-04-28T11:14:15Z</time>
      </trkpt>
      <trkpt lat="46.03371" lon="1.29933">
        <ele>335.6</ele>
        <time>2024-04-28T11:14:21Z</time>
      </trkpt>
      <trkpt lat="46.0336" lon="1.29893">
        <ele>336.2</ele>
        <time>2024-04-28T11:14:30Z</time>
      </trkpt>
      <trkpt lat="46.03357" lon="1.29867">
        <ele>336.2</ele>
        <time>2024-04-28T11:14:36Z</time>
      </trkpt>
      <trkpt lat="46.03366" lon="1.29857">
        <ele>336.4</ele>
        <time>2024-04-28T11:14:40Z</time>
      </trkpt>
      <trkpt lat="46.03377" lon="1.29849">
        <ele>337.2</ele>
        <time>2024-04-28T11:14:44Z</time>
      </trkpt>
      <trkpt lat="46.03385" lon="1.29843">
        <ele>337.8</ele>
        <time>2024-04-28T11:14:47Z</time>
      </trkpt>
      <trkpt lat="46.03394" lon="1.29832">
        <ele>338.2</ele>
        <time>2024-04-28T11:14:52Z</time>
      </trkpt>
      <trkpt lat="46.03395" lon="1.29829">
        <ele>338.4</ele>
        <time>2024-04-28T11:14:53Z</time>
      </trkpt>
      <trkpt lat="46.03396" lon="1.29827">
        <ele>338.8</ele>
        <time>2024-04-28T11:14:54Z</time>
      </trkpt>
      <trkpt lat="46.03399" lon="1.2982">
        <ele>339.2</ele>
        <time>2024-04-28T11:14:57Z</time>
      </trkpt>
      <trkpt lat="46.03399" lon="1.29813">
        <ele>339.4</ele>
        <time>2024-04-28T11:14:59Z</time>
      </trkpt>
      <trkpt lat="46.03398" lon="1.29804">
        <ele>339.4</ele>
        <time>2024-04-28T11:15:02Z</time>
      </trkpt>
      <trkpt lat="46.03399" lon="1.29801">
        <ele>339.4</ele>
        <time>2024-04-28T11:15:04Z</time>
      </trkpt>
      <trkpt lat="46.034" lon="1.29801">
        <ele>339.4</ele>
        <time>2024-04-28T11:15:06Z</time>
      </trkpt>
    </trkseg>
  </trk>
</gpx>